<?xml version="1.0" encoding="UTF-8" standalone="no" ?>
<gpx xmlns="http://www.topografix.com/GPX/1/1" xmlns:xsi="http://www.w3.org/2001/XMLSchema-instance" xsi:schemaLocation="http://www.topografix.com/GPX/1/1 http://www.topografix.com/GPX/1/1/gpx.xsd" version="1.1" creator="VisuGPX - https://www.visugpx.com">
  <metadata>
    <name>Petit tour du Champsaur</name>
  </metadata>
  <trk>
    <name><![CDATA[Petit tour du Champsaur_1]]></name>
    <trkseg>
      <trkpt lat="44.5535" lon="6.2096">
        <ele>796.6</ele>
        <time>2022-09-18T08:57:53Z</time>
      </trkpt>
      <trkpt lat="44.55349" lon="6.20958">
        <ele>796.5</ele>
        <time>2022-09-18T08:57:54Z</time>
      </trkpt>
      <trkpt lat="44.55346" lon="6.20956">
        <ele>796.4</ele>
        <time>2022-09-18T08:57:56Z</time>
      </trkpt>
      <trkpt lat="44.55347" lon="6.2096">
        <ele>790.2</ele>
        <time>2022-09-18T08:58:15Z</time>
      </trkpt>
      <trkpt lat="44.55348" lon="6.20963">
        <ele>790.2</ele>
        <time>2022-09-18T08:58:17Z</time>
      </trkpt>
      <trkpt lat="44.55349" lon="6.20968">
        <ele>790.4</ele>
        <time>2022-09-18T08:58:19Z</time>
      </trkpt>
      <trkpt lat="44.55351" lon="6.2097">
        <ele>790.2</ele>
        <time>2022-09-18T08:58:21Z</time>
      </trkpt>
      <trkpt lat="44.55353" lon="6.20972">
        <ele>790</ele>
        <time>2022-09-18T08:58:23Z</time>
      </trkpt>
      <trkpt lat="44.55355" lon="6.20973">
        <ele>789.8</ele>
        <time>2022-09-18T08:58:25Z</time>
      </trkpt>
      <trkpt lat="44.55354" lon="6.2097">
        <ele>786.8</ele>
        <time>2022-09-18T08:59:15Z</time>
      </trkpt>
      <trkpt lat="44.55351" lon="6.20968">
        <ele>786.8</ele>
        <time>2022-09-18T08:59:17Z</time>
      </trkpt>
      <trkpt lat="44.55349" lon="6.20966">
        <ele>787</ele>
        <time>2022-09-18T08:59:18Z</time>
      </trkpt>
      <trkpt lat="44.55347" lon="6.20964">
        <ele>787</ele>
        <time>2022-09-18T08:59:19Z</time>
      </trkpt>
      <trkpt lat="44.55345" lon="6.20961">
        <ele>787</ele>
        <time>2022-09-18T08:59:20Z</time>
      </trkpt>
      <trkpt lat="44.55343" lon="6.20959">
        <ele>786.6</ele>
        <time>2022-09-18T08:59:21Z</time>
      </trkpt>
      <trkpt lat="44.55341" lon="6.20957">
        <ele>786.6</ele>
        <time>2022-09-18T08:59:22Z</time>
      </trkpt>
      <trkpt lat="44.55339" lon="6.20954">
        <ele>786.4</ele>
        <time>2022-09-18T08:59:23Z</time>
      </trkpt>
      <trkpt lat="44.55337" lon="6.20951">
        <ele>786.4</ele>
        <time>2022-09-18T08:59:24Z</time>
      </trkpt>
      <trkpt lat="44.55336" lon="6.20948">
        <ele>786.4</ele>
        <time>2022-09-18T08:59:25Z</time>
      </trkpt>
      <trkpt lat="44.55334" lon="6.20945">
        <ele>786.2</ele>
        <time>2022-09-18T08:59:26Z</time>
      </trkpt>
      <trkpt lat="44.55333" lon="6.20941">
        <ele>786</ele>
        <time>2022-09-18T08:59:27Z</time>
      </trkpt>
      <trkpt lat="44.55332" lon="6.20936">
        <ele>786</ele>
        <time>2022-09-18T08:59:28Z</time>
      </trkpt>
      <trkpt lat="44.55331" lon="6.20932">
        <ele>786</ele>
        <time>2022-09-18T08:59:29Z</time>
      </trkpt>
      <trkpt lat="44.5533" lon="6.20928">
        <ele>785.8</ele>
        <time>2022-09-18T08:59:30Z</time>
      </trkpt>
      <trkpt lat="44.55328" lon="6.20924">
        <ele>785.8</ele>
        <time>2022-09-18T08:59:31Z</time>
      </trkpt>
      <trkpt lat="44.55325" lon="6.2092">
        <ele>785.8</ele>
        <time>2022-09-18T08:59:32Z</time>
      </trkpt>
      <trkpt lat="44.55323" lon="6.20917">
        <ele>786</ele>
        <time>2022-09-18T08:59:33Z</time>
      </trkpt>
      <trkpt lat="44.5532" lon="6.20913">
        <ele>786.2</ele>
        <time>2022-09-18T08:59:34Z</time>
      </trkpt>
      <trkpt lat="44.55318" lon="6.2091">
        <ele>786.4</ele>
        <time>2022-09-18T08:59:35Z</time>
      </trkpt>
      <trkpt lat="44.55316" lon="6.20906">
        <ele>786.6</ele>
        <time>2022-09-18T08:59:36Z</time>
      </trkpt>
      <trkpt lat="44.55314" lon="6.20902">
        <ele>787</ele>
        <time>2022-09-18T08:59:37Z</time>
      </trkpt>
      <trkpt lat="44.55312" lon="6.20898">
        <ele>787</ele>
        <time>2022-09-18T08:59:38Z</time>
      </trkpt>
      <trkpt lat="44.5531" lon="6.20893">
        <ele>787.2</ele>
        <time>2022-09-18T08:59:39Z</time>
      </trkpt>
      <trkpt lat="44.55308" lon="6.20887">
        <ele>787.4</ele>
        <time>2022-09-18T08:59:40Z</time>
      </trkpt>
      <trkpt lat="44.55306" lon="6.20881">
        <ele>787.6</ele>
        <time>2022-09-18T08:59:41Z</time>
      </trkpt>
      <trkpt lat="44.55305" lon="6.20874">
        <ele>787.8</ele>
        <time>2022-09-18T08:59:42Z</time>
      </trkpt>
      <trkpt lat="44.55303" lon="6.20866">
        <ele>788.2</ele>
        <time>2022-09-18T08:59:43Z</time>
      </trkpt>
      <trkpt lat="44.55301" lon="6.20859">
        <ele>788.4</ele>
        <time>2022-09-18T08:59:44Z</time>
      </trkpt>
      <trkpt lat="44.55299" lon="6.20851">
        <ele>788.4</ele>
        <time>2022-09-18T08:59:45Z</time>
      </trkpt>
      <trkpt lat="44.55297" lon="6.20843">
        <ele>788.6</ele>
        <time>2022-09-18T08:59:46Z</time>
      </trkpt>
      <trkpt lat="44.55295" lon="6.20834">
        <ele>788.6</ele>
        <time>2022-09-18T08:59:47Z</time>
      </trkpt>
      <trkpt lat="44.55292" lon="6.20826">
        <ele>788.8</ele>
        <time>2022-09-18T08:59:48Z</time>
      </trkpt>
      <trkpt lat="44.5529" lon="6.20817">
        <ele>789</ele>
        <time>2022-09-18T08:59:49Z</time>
      </trkpt>
      <trkpt lat="44.55287" lon="6.20808">
        <ele>789.2</ele>
        <time>2022-09-18T08:59:50Z</time>
      </trkpt>
      <trkpt lat="44.55284" lon="6.20799">
        <ele>789.2</ele>
        <time>2022-09-18T08:59:51Z</time>
      </trkpt>
      <trkpt lat="44.55281" lon="6.2079">
        <ele>789.4</ele>
        <time>2022-09-18T08:59:52Z</time>
      </trkpt>
      <trkpt lat="44.55279" lon="6.2078">
        <ele>789.6</ele>
        <time>2022-09-18T08:59:53Z</time>
      </trkpt>
      <trkpt lat="44.55275" lon="6.20771">
        <ele>789.4</ele>
        <time>2022-09-18T08:59:54Z</time>
      </trkpt>
      <trkpt lat="44.55272" lon="6.20761">
        <ele>789.2</ele>
        <time>2022-09-18T08:59:55Z</time>
      </trkpt>
      <trkpt lat="44.55269" lon="6.20751">
        <ele>789</ele>
        <time>2022-09-18T08:59:56Z</time>
      </trkpt>
      <trkpt lat="44.55266" lon="6.20741">
        <ele>788.8</ele>
        <time>2022-09-18T08:59:57Z</time>
      </trkpt>
      <trkpt lat="44.55262" lon="6.20731">
        <ele>788.8</ele>
        <time>2022-09-18T08:59:58Z</time>
      </trkpt>
      <trkpt lat="44.55259" lon="6.20721">
        <ele>788.8</ele>
        <time>2022-09-18T08:59:59Z</time>
      </trkpt>
      <trkpt lat="44.55256" lon="6.2071">
        <ele>788.8</ele>
        <time>2022-09-18T09:00:00Z</time>
      </trkpt>
      <trkpt lat="44.55252" lon="6.207">
        <ele>788.6</ele>
        <time>2022-09-18T09:00:01Z</time>
      </trkpt>
      <trkpt lat="44.55248" lon="6.2069">
        <ele>788.6</ele>
        <time>2022-09-18T09:00:02Z</time>
      </trkpt>
      <trkpt lat="44.55245" lon="6.2068">
        <ele>788.2</ele>
        <time>2022-09-18T09:00:03Z</time>
      </trkpt>
      <trkpt lat="44.55241" lon="6.20669">
        <ele>788.2</ele>
        <time>2022-09-18T09:00:04Z</time>
      </trkpt>
      <trkpt lat="44.55237" lon="6.20659">
        <ele>788</ele>
        <time>2022-09-18T09:00:05Z</time>
      </trkpt>
      <trkpt lat="44.55234" lon="6.20649">
        <ele>787.8</ele>
        <time>2022-09-18T09:00:06Z</time>
      </trkpt>
      <trkpt lat="44.5523" lon="6.20639">
        <ele>787.6</ele>
        <time>2022-09-18T09:00:07Z</time>
      </trkpt>
      <trkpt lat="44.55226" lon="6.20628">
        <ele>787.6</ele>
        <time>2022-09-18T09:00:08Z</time>
      </trkpt>
      <trkpt lat="44.55222" lon="6.20618">
        <ele>787.2</ele>
        <time>2022-09-18T09:00:09Z</time>
      </trkpt>
      <trkpt lat="44.55217" lon="6.20608">
        <ele>787.2</ele>
        <time>2022-09-18T09:00:10Z</time>
      </trkpt>
      <trkpt lat="44.55213" lon="6.20598">
        <ele>787</ele>
        <time>2022-09-18T09:00:11Z</time>
      </trkpt>
      <trkpt lat="44.55209" lon="6.20588">
        <ele>786.8</ele>
        <time>2022-09-18T09:00:12Z</time>
      </trkpt>
      <trkpt lat="44.55205" lon="6.20577">
        <ele>786.6</ele>
        <time>2022-09-18T09:00:13Z</time>
      </trkpt>
      <trkpt lat="44.552" lon="6.20567">
        <ele>786.8</ele>
        <time>2022-09-18T09:00:14Z</time>
      </trkpt>
      <trkpt lat="44.55196" lon="6.20557">
        <ele>786.4</ele>
        <time>2022-09-18T09:00:15Z</time>
      </trkpt>
      <trkpt lat="44.55191" lon="6.20547">
        <ele>786.4</ele>
        <time>2022-09-18T09:00:16Z</time>
      </trkpt>
      <trkpt lat="44.55186" lon="6.20536">
        <ele>786.4</ele>
        <time>2022-09-18T09:00:17Z</time>
      </trkpt>
      <trkpt lat="44.55182" lon="6.20526">
        <ele>786.4</ele>
        <time>2022-09-18T09:00:18Z</time>
      </trkpt>
      <trkpt lat="44.55177" lon="6.20515">
        <ele>786.2</ele>
        <time>2022-09-18T09:00:19Z</time>
      </trkpt>
      <trkpt lat="44.55172" lon="6.20505">
        <ele>786</ele>
        <time>2022-09-18T09:00:20Z</time>
      </trkpt>
      <trkpt lat="44.55167" lon="6.20494">
        <ele>786</ele>
        <time>2022-09-18T09:00:21Z</time>
      </trkpt>
      <trkpt lat="44.55162" lon="6.20483">
        <ele>785.8</ele>
        <time>2022-09-18T09:00:22Z</time>
      </trkpt>
      <trkpt lat="44.55157" lon="6.20472">
        <ele>785.6</ele>
        <time>2022-09-18T09:00:23Z</time>
      </trkpt>
      <trkpt lat="44.55152" lon="6.20461">
        <ele>785.4</ele>
        <time>2022-09-18T09:00:24Z</time>
      </trkpt>
      <trkpt lat="44.55147" lon="6.20451">
        <ele>785.4</ele>
        <time>2022-09-18T09:00:25Z</time>
      </trkpt>
      <trkpt lat="44.55142" lon="6.2044">
        <ele>785</ele>
        <time>2022-09-18T09:00:26Z</time>
      </trkpt>
      <trkpt lat="44.55137" lon="6.20429">
        <ele>785.4</ele>
        <time>2022-09-18T09:00:27Z</time>
      </trkpt>
      <trkpt lat="44.55132" lon="6.20418">
        <ele>785.4</ele>
        <time>2022-09-18T09:00:28Z</time>
      </trkpt>
      <trkpt lat="44.55127" lon="6.20407">
        <ele>785.4</ele>
        <time>2022-09-18T09:00:29Z</time>
      </trkpt>
      <trkpt lat="44.55122" lon="6.20396">
        <ele>785.2</ele>
        <time>2022-09-18T09:00:30Z</time>
      </trkpt>
      <trkpt lat="44.55117" lon="6.20385">
        <ele>785.4</ele>
        <time>2022-09-18T09:00:31Z</time>
      </trkpt>
      <trkpt lat="44.55112" lon="6.20374">
        <ele>785.4</ele>
        <time>2022-09-18T09:00:32Z</time>
      </trkpt>
      <trkpt lat="44.55107" lon="6.20363">
        <ele>785.2</ele>
        <time>2022-09-18T09:00:33Z</time>
      </trkpt>
      <trkpt lat="44.55102" lon="6.20353">
        <ele>785.2</ele>
        <time>2022-09-18T09:00:34Z</time>
      </trkpt>
      <trkpt lat="44.55097" lon="6.20342">
        <ele>785.2</ele>
        <time>2022-09-18T09:00:35Z</time>
      </trkpt>
      <trkpt lat="44.55091" lon="6.20331">
        <ele>785</ele>
        <time>2022-09-18T09:00:36Z</time>
      </trkpt>
      <trkpt lat="44.55087" lon="6.20321">
        <ele>785.8</ele>
        <time>2022-09-18T09:00:37Z</time>
      </trkpt>
      <trkpt lat="44.55082" lon="6.2031">
        <ele>785.4</ele>
        <time>2022-09-18T09:00:38Z</time>
      </trkpt>
      <trkpt lat="44.55077" lon="6.20299">
        <ele>785.2</ele>
        <time>2022-09-18T09:00:39Z</time>
      </trkpt>
      <trkpt lat="44.55072" lon="6.20289">
        <ele>785.2</ele>
        <time>2022-09-18T09:00:40Z</time>
      </trkpt>
      <trkpt lat="44.55067" lon="6.20279">
        <ele>785.2</ele>
        <time>2022-09-18T09:00:41Z</time>
      </trkpt>
      <trkpt lat="44.55062" lon="6.20269">
        <ele>785.4</ele>
        <time>2022-09-18T09:00:42Z</time>
      </trkpt>
      <trkpt lat="44.55057" lon="6.20259">
        <ele>785.2</ele>
        <time>2022-09-18T09:00:43Z</time>
      </trkpt>
      <trkpt lat="44.55052" lon="6.20249">
        <ele>785.2</ele>
        <time>2022-09-18T09:00:44Z</time>
      </trkpt>
      <trkpt lat="44.55047" lon="6.2024">
        <ele>785</ele>
        <time>2022-09-18T09:00:45Z</time>
      </trkpt>
      <trkpt lat="44.55042" lon="6.2023">
        <ele>785.2</ele>
        <time>2022-09-18T09:00:46Z</time>
      </trkpt>
      <trkpt lat="44.55038" lon="6.20221">
        <ele>785.2</ele>
        <time>2022-09-18T09:00:47Z</time>
      </trkpt>
      <trkpt lat="44.55035" lon="6.20212">
        <ele>785</ele>
        <time>2022-09-18T09:00:48Z</time>
      </trkpt>
      <trkpt lat="44.55034" lon="6.20203">
        <ele>784.6</ele>
        <time>2022-09-18T09:00:49Z</time>
      </trkpt>
      <trkpt lat="44.55037" lon="6.20194">
        <ele>784.4</ele>
        <time>2022-09-18T09:00:50Z</time>
      </trkpt>
      <trkpt lat="44.5504" lon="6.20188">
        <ele>784.6</ele>
        <time>2022-09-18T09:00:51Z</time>
      </trkpt>
      <trkpt lat="44.55044" lon="6.20182">
        <ele>784.8</ele>
        <time>2022-09-18T09:00:52Z</time>
      </trkpt>
      <trkpt lat="44.55048" lon="6.20178">
        <ele>784.8</ele>
        <time>2022-09-18T09:00:53Z</time>
      </trkpt>
      <trkpt lat="44.55053" lon="6.20174">
        <ele>785</ele>
        <time>2022-09-18T09:00:54Z</time>
      </trkpt>
      <trkpt lat="44.55058" lon="6.20171">
        <ele>785</ele>
        <time>2022-09-18T09:00:55Z</time>
      </trkpt>
      <trkpt lat="44.55063" lon="6.20169">
        <ele>785</ele>
        <time>2022-09-18T09:00:56Z</time>
      </trkpt>
      <trkpt lat="44.55068" lon="6.20166">
        <ele>785.2</ele>
        <time>2022-09-18T09:00:57Z</time>
      </trkpt>
      <trkpt lat="44.55073" lon="6.20164">
        <ele>785.6</ele>
        <time>2022-09-18T09:00:58Z</time>
      </trkpt>
      <trkpt lat="44.55079" lon="6.20162">
        <ele>786</ele>
        <time>2022-09-18T09:00:59Z</time>
      </trkpt>
      <trkpt lat="44.55084" lon="6.20161">
        <ele>786.2</ele>
        <time>2022-09-18T09:01:00Z</time>
      </trkpt>
      <trkpt lat="44.5509" lon="6.20159">
        <ele>786.4</ele>
        <time>2022-09-18T09:01:01Z</time>
      </trkpt>
      <trkpt lat="44.55095" lon="6.20158">
        <ele>787</ele>
        <time>2022-09-18T09:01:02Z</time>
      </trkpt>
      <trkpt lat="44.55101" lon="6.20156">
        <ele>787.2</ele>
        <time>2022-09-18T09:01:03Z</time>
      </trkpt>
      <trkpt lat="44.55107" lon="6.20154">
        <ele>787.2</ele>
        <time>2022-09-18T09:01:04Z</time>
      </trkpt>
      <trkpt lat="44.55113" lon="6.20153">
        <ele>787.4</ele>
        <time>2022-09-18T09:01:05Z</time>
      </trkpt>
      <trkpt lat="44.55119" lon="6.20151">
        <ele>788</ele>
        <time>2022-09-18T09:01:06Z</time>
      </trkpt>
      <trkpt lat="44.55124" lon="6.2015">
        <ele>788.2</ele>
        <time>2022-09-18T09:01:07Z</time>
      </trkpt>
      <trkpt lat="44.5513" lon="6.20148">
        <ele>788.4</ele>
        <time>2022-09-18T09:01:08Z</time>
      </trkpt>
      <trkpt lat="44.55136" lon="6.20147">
        <ele>788.8</ele>
        <time>2022-09-18T09:01:09Z</time>
      </trkpt>
      <trkpt lat="44.55141" lon="6.20145">
        <ele>789.6</ele>
        <time>2022-09-18T09:01:10Z</time>
      </trkpt>
      <trkpt lat="44.55147" lon="6.20143">
        <ele>790.6</ele>
        <time>2022-09-18T09:01:11Z</time>
      </trkpt>
      <trkpt lat="44.55152" lon="6.20142">
        <ele>791.2</ele>
        <time>2022-09-18T09:01:12Z</time>
      </trkpt>
      <trkpt lat="44.55158" lon="6.2014">
        <ele>792</ele>
        <time>2022-09-18T09:01:13Z</time>
      </trkpt>
      <trkpt lat="44.55163" lon="6.20139">
        <ele>792.6</ele>
        <time>2022-09-18T09:01:14Z</time>
      </trkpt>
      <trkpt lat="44.55168" lon="6.20137">
        <ele>793.2</ele>
        <time>2022-09-18T09:01:15Z</time>
      </trkpt>
      <trkpt lat="44.55173" lon="6.20136">
        <ele>793.8</ele>
        <time>2022-09-18T09:01:16Z</time>
      </trkpt>
      <trkpt lat="44.55179" lon="6.20135">
        <ele>794.8</ele>
        <time>2022-09-18T09:01:17Z</time>
      </trkpt>
      <trkpt lat="44.55185" lon="6.20134">
        <ele>795.4</ele>
        <time>2022-09-18T09:01:18Z</time>
      </trkpt>
      <trkpt lat="44.55191" lon="6.20133">
        <ele>796</ele>
        <time>2022-09-18T09:01:19Z</time>
      </trkpt>
      <trkpt lat="44.55196" lon="6.20131">
        <ele>796.6</ele>
        <time>2022-09-18T09:01:20Z</time>
      </trkpt>
      <trkpt lat="44.55202" lon="6.2013">
        <ele>797.4</ele>
        <time>2022-09-18T09:01:21Z</time>
      </trkpt>
      <trkpt lat="44.55207" lon="6.20128">
        <ele>798</ele>
        <time>2022-09-18T09:01:22Z</time>
      </trkpt>
      <trkpt lat="44.55212" lon="6.20127">
        <ele>798.8</ele>
        <time>2022-09-18T09:01:23Z</time>
      </trkpt>
      <trkpt lat="44.55217" lon="6.20125">
        <ele>799.4</ele>
        <time>2022-09-18T09:01:24Z</time>
      </trkpt>
      <trkpt lat="44.55221" lon="6.20124">
        <ele>798.8</ele>
        <time>2022-09-18T09:01:25Z</time>
      </trkpt>
      <trkpt lat="44.55225" lon="6.20123">
        <ele>798.8</ele>
        <time>2022-09-18T09:01:26Z</time>
      </trkpt>
      <trkpt lat="44.5523" lon="6.20122">
        <ele>799.6</ele>
        <time>2022-09-18T09:01:27Z</time>
      </trkpt>
      <trkpt lat="44.55233" lon="6.2012">
        <ele>800</ele>
        <time>2022-09-18T09:01:28Z</time>
      </trkpt>
      <trkpt lat="44.55237" lon="6.20118">
        <ele>800.4</ele>
        <time>2022-09-18T09:01:29Z</time>
      </trkpt>
      <trkpt lat="44.55241" lon="6.20117">
        <ele>801</ele>
        <time>2022-09-18T09:01:30Z</time>
      </trkpt>
      <trkpt lat="44.55245" lon="6.20116">
        <ele>801</ele>
        <time>2022-09-18T09:01:31Z</time>
      </trkpt>
      <trkpt lat="44.55249" lon="6.20114">
        <ele>801.6</ele>
        <time>2022-09-18T09:01:32Z</time>
      </trkpt>
      <trkpt lat="44.55252" lon="6.20113">
        <ele>802</ele>
        <time>2022-09-18T09:01:33Z</time>
      </trkpt>
      <trkpt lat="44.55256" lon="6.20112">
        <ele>802.4</ele>
        <time>2022-09-18T09:01:34Z</time>
      </trkpt>
      <trkpt lat="44.55259" lon="6.20111">
        <ele>802.6</ele>
        <time>2022-09-18T09:01:35Z</time>
      </trkpt>
      <trkpt lat="44.55263" lon="6.2011">
        <ele>803.2</ele>
        <time>2022-09-18T09:01:36Z</time>
      </trkpt>
      <trkpt lat="44.55267" lon="6.20108">
        <ele>803.6</ele>
        <time>2022-09-18T09:01:37Z</time>
      </trkpt>
      <trkpt lat="44.5527" lon="6.20107">
        <ele>804</ele>
        <time>2022-09-18T09:01:38Z</time>
      </trkpt>
      <trkpt lat="44.55274" lon="6.20106">
        <ele>804.4</ele>
        <time>2022-09-18T09:01:39Z</time>
      </trkpt>
      <trkpt lat="44.55277" lon="6.20105">
        <ele>804.8</ele>
        <time>2022-09-18T09:01:40Z</time>
      </trkpt>
      <trkpt lat="44.55281" lon="6.20104">
        <ele>805</ele>
        <time>2022-09-18T09:01:41Z</time>
      </trkpt>
      <trkpt lat="44.55284" lon="6.20103">
        <ele>805.6</ele>
        <time>2022-09-18T09:01:42Z</time>
      </trkpt>
      <trkpt lat="44.55288" lon="6.20101">
        <ele>805.8</ele>
        <time>2022-09-18T09:01:43Z</time>
      </trkpt>
      <trkpt lat="44.55291" lon="6.201">
        <ele>806.2</ele>
        <time>2022-09-18T09:01:44Z</time>
      </trkpt>
      <trkpt lat="44.55295" lon="6.20099">
        <ele>806.6</ele>
        <time>2022-09-18T09:01:45Z</time>
      </trkpt>
      <trkpt lat="44.55298" lon="6.20098">
        <ele>807.2</ele>
        <time>2022-09-18T09:01:46Z</time>
      </trkpt>
      <trkpt lat="44.55302" lon="6.20098">
        <ele>807.6</ele>
        <time>2022-09-18T09:01:47Z</time>
      </trkpt>
      <trkpt lat="44.55305" lon="6.20097">
        <ele>808.2</ele>
        <time>2022-09-18T09:01:48Z</time>
      </trkpt>
      <trkpt lat="44.55308" lon="6.20096">
        <ele>808.8</ele>
        <time>2022-09-18T09:01:49Z</time>
      </trkpt>
      <trkpt lat="44.55311" lon="6.20095">
        <ele>809.4</ele>
        <time>2022-09-18T09:01:50Z</time>
      </trkpt>
      <trkpt lat="44.55315" lon="6.20094">
        <ele>809.8</ele>
        <time>2022-09-18T09:01:51Z</time>
      </trkpt>
      <trkpt lat="44.55318" lon="6.20093">
        <ele>810.4</ele>
        <time>2022-09-18T09:01:52Z</time>
      </trkpt>
      <trkpt lat="44.55321" lon="6.20092">
        <ele>811</ele>
        <time>2022-09-18T09:01:53Z</time>
      </trkpt>
      <trkpt lat="44.55324" lon="6.20092">
        <ele>811.4</ele>
        <time>2022-09-18T09:01:54Z</time>
      </trkpt>
      <trkpt lat="44.55327" lon="6.20091">
        <ele>812</ele>
        <time>2022-09-18T09:01:55Z</time>
      </trkpt>
      <trkpt lat="44.5533" lon="6.20091">
        <ele>812.4</ele>
        <time>2022-09-18T09:01:56Z</time>
      </trkpt>
      <trkpt lat="44.55333" lon="6.2009">
        <ele>813</ele>
        <time>2022-09-18T09:01:57Z</time>
      </trkpt>
      <trkpt lat="44.55336" lon="6.2009">
        <ele>813.4</ele>
        <time>2022-09-18T09:01:58Z</time>
      </trkpt>
      <trkpt lat="44.55339" lon="6.20089">
        <ele>814</ele>
        <time>2022-09-18T09:01:59Z</time>
      </trkpt>
      <trkpt lat="44.55342" lon="6.20089">
        <ele>814.4</ele>
        <time>2022-09-18T09:02:00Z</time>
      </trkpt>
      <trkpt lat="44.55345" lon="6.20088">
        <ele>815</ele>
        <time>2022-09-18T09:02:01Z</time>
      </trkpt>
      <trkpt lat="44.55349" lon="6.20088">
        <ele>815.4</ele>
        <time>2022-09-18T09:02:02Z</time>
      </trkpt>
      <trkpt lat="44.55352" lon="6.20087">
        <ele>816</ele>
        <time>2022-09-18T09:02:03Z</time>
      </trkpt>
      <trkpt lat="44.55355" lon="6.20087">
        <ele>816.4</ele>
        <time>2022-09-18T09:02:04Z</time>
      </trkpt>
      <trkpt lat="44.55358" lon="6.20086">
        <ele>816.6</ele>
        <time>2022-09-18T09:02:05Z</time>
      </trkpt>
      <trkpt lat="44.55361" lon="6.20086">
        <ele>817</ele>
        <time>2022-09-18T09:02:06Z</time>
      </trkpt>
      <trkpt lat="44.55364" lon="6.20086">
        <ele>817.4</ele>
        <time>2022-09-18T09:02:07Z</time>
      </trkpt>
      <trkpt lat="44.55367" lon="6.20086">
        <ele>817.6</ele>
        <time>2022-09-18T09:02:08Z</time>
      </trkpt>
      <trkpt lat="44.55369" lon="6.20085">
        <ele>818</ele>
        <time>2022-09-18T09:02:09Z</time>
      </trkpt>
      <trkpt lat="44.55372" lon="6.20085">
        <ele>818.4</ele>
        <time>2022-09-18T09:02:10Z</time>
      </trkpt>
      <trkpt lat="44.55374" lon="6.20085">
        <ele>818.8</ele>
        <time>2022-09-18T09:02:11Z</time>
      </trkpt>
      <trkpt lat="44.55377" lon="6.20085">
        <ele>819</ele>
        <time>2022-09-18T09:02:12Z</time>
      </trkpt>
      <trkpt lat="44.5538" lon="6.20085">
        <ele>819.4</ele>
        <time>2022-09-18T09:02:13Z</time>
      </trkpt>
      <trkpt lat="44.55382" lon="6.20085">
        <ele>819.6</ele>
        <time>2022-09-18T09:02:14Z</time>
      </trkpt>
      <trkpt lat="44.55385" lon="6.20085">
        <ele>819.8</ele>
        <time>2022-09-18T09:02:15Z</time>
      </trkpt>
      <trkpt lat="44.55388" lon="6.20086">
        <ele>820.2</ele>
        <time>2022-09-18T09:02:16Z</time>
      </trkpt>
      <trkpt lat="44.5539" lon="6.20086">
        <ele>820.6</ele>
        <time>2022-09-18T09:02:17Z</time>
      </trkpt>
      <trkpt lat="44.55393" lon="6.20087">
        <ele>821</ele>
        <time>2022-09-18T09:02:18Z</time>
      </trkpt>
      <trkpt lat="44.55396" lon="6.20087">
        <ele>821.4</ele>
        <time>2022-09-18T09:02:19Z</time>
      </trkpt>
      <trkpt lat="44.55398" lon="6.20087">
        <ele>821.8</ele>
        <time>2022-09-18T09:02:20Z</time>
      </trkpt>
      <trkpt lat="44.55401" lon="6.20088">
        <ele>822</ele>
        <time>2022-09-18T09:02:21Z</time>
      </trkpt>
      <trkpt lat="44.55404" lon="6.20088">
        <ele>822.2</ele>
        <time>2022-09-18T09:02:22Z</time>
      </trkpt>
      <trkpt lat="44.55407" lon="6.20089">
        <ele>822.6</ele>
        <time>2022-09-18T09:02:23Z</time>
      </trkpt>
      <trkpt lat="44.5541" lon="6.20089">
        <ele>823</ele>
        <time>2022-09-18T09:02:24Z</time>
      </trkpt>
      <trkpt lat="44.55412" lon="6.2009">
        <ele>823.6</ele>
        <time>2022-09-18T09:02:25Z</time>
      </trkpt>
      <trkpt lat="44.55415" lon="6.2009">
        <ele>823.6</ele>
        <time>2022-09-18T09:02:26Z</time>
      </trkpt>
      <trkpt lat="44.55418" lon="6.20091">
        <ele>824</ele>
        <time>2022-09-18T09:02:27Z</time>
      </trkpt>
      <trkpt lat="44.55421" lon="6.20091">
        <ele>824.4</ele>
        <time>2022-09-18T09:02:28Z</time>
      </trkpt>
      <trkpt lat="44.55424" lon="6.20092">
        <ele>825</ele>
        <time>2022-09-18T09:02:29Z</time>
      </trkpt>
      <trkpt lat="44.55427" lon="6.20092">
        <ele>825.2</ele>
        <time>2022-09-18T09:02:30Z</time>
      </trkpt>
      <trkpt lat="44.55429" lon="6.20092">
        <ele>825.6</ele>
        <time>2022-09-18T09:02:31Z</time>
      </trkpt>
      <trkpt lat="44.55432" lon="6.20092">
        <ele>826</ele>
        <time>2022-09-18T09:02:32Z</time>
      </trkpt>
      <trkpt lat="44.55434" lon="6.20092">
        <ele>826.4</ele>
        <time>2022-09-18T09:02:33Z</time>
      </trkpt>
      <trkpt lat="44.55437" lon="6.20092">
        <ele>827</ele>
        <time>2022-09-18T09:02:34Z</time>
      </trkpt>
      <trkpt lat="44.55439" lon="6.20092">
        <ele>827.4</ele>
        <time>2022-09-18T09:02:35Z</time>
      </trkpt>
      <trkpt lat="44.55441" lon="6.20092">
        <ele>828</ele>
        <time>2022-09-18T09:02:36Z</time>
      </trkpt>
      <trkpt lat="44.55444" lon="6.20091">
        <ele>828.6</ele>
        <time>2022-09-18T09:02:37Z</time>
      </trkpt>
      <trkpt lat="44.55447" lon="6.20091">
        <ele>829.2</ele>
        <time>2022-09-18T09:02:38Z</time>
      </trkpt>
      <trkpt lat="44.55449" lon="6.20091">
        <ele>829.6</ele>
        <time>2022-09-18T09:02:39Z</time>
      </trkpt>
      <trkpt lat="44.55452" lon="6.2009">
        <ele>830</ele>
        <time>2022-09-18T09:02:40Z</time>
      </trkpt>
      <trkpt lat="44.55455" lon="6.20089">
        <ele>830.4</ele>
        <time>2022-09-18T09:02:41Z</time>
      </trkpt>
      <trkpt lat="44.55457" lon="6.20087">
        <ele>830.8</ele>
        <time>2022-09-18T09:02:42Z</time>
      </trkpt>
      <trkpt lat="44.5546" lon="6.20086">
        <ele>831.4</ele>
        <time>2022-09-18T09:02:43Z</time>
      </trkpt>
      <trkpt lat="44.55463" lon="6.20084">
        <ele>832</ele>
        <time>2022-09-18T09:02:44Z</time>
      </trkpt>
      <trkpt lat="44.55465" lon="6.20083">
        <ele>832.6</ele>
        <time>2022-09-18T09:02:45Z</time>
      </trkpt>
      <trkpt lat="44.55468" lon="6.20082">
        <ele>833</ele>
        <time>2022-09-18T09:02:46Z</time>
      </trkpt>
      <trkpt lat="44.5547" lon="6.2008">
        <ele>833.4</ele>
        <time>2022-09-18T09:02:47Z</time>
      </trkpt>
      <trkpt lat="44.55473" lon="6.20079">
        <ele>834</ele>
        <time>2022-09-18T09:02:48Z</time>
      </trkpt>
      <trkpt lat="44.55475" lon="6.20077">
        <ele>834.4</ele>
        <time>2022-09-18T09:02:49Z</time>
      </trkpt>
      <trkpt lat="44.55478" lon="6.20076">
        <ele>834.8</ele>
        <time>2022-09-18T09:02:50Z</time>
      </trkpt>
      <trkpt lat="44.5548" lon="6.20075">
        <ele>835.2</ele>
        <time>2022-09-18T09:02:51Z</time>
      </trkpt>
      <trkpt lat="44.55483" lon="6.20073">
        <ele>835.8</ele>
        <time>2022-09-18T09:02:52Z</time>
      </trkpt>
      <trkpt lat="44.55485" lon="6.20072">
        <ele>836.4</ele>
        <time>2022-09-18T09:02:53Z</time>
      </trkpt>
      <trkpt lat="44.55487" lon="6.2007">
        <ele>837.2</ele>
        <time>2022-09-18T09:02:54Z</time>
      </trkpt>
      <trkpt lat="44.55489" lon="6.20068">
        <ele>837.8</ele>
        <time>2022-09-18T09:02:55Z</time>
      </trkpt>
      <trkpt lat="44.55491" lon="6.20066">
        <ele>838.2</ele>
        <time>2022-09-18T09:02:56Z</time>
      </trkpt>
      <trkpt lat="44.55493" lon="6.20064">
        <ele>838.8</ele>
        <time>2022-09-18T09:02:57Z</time>
      </trkpt>
      <trkpt lat="44.55495" lon="6.20062">
        <ele>839.2</ele>
        <time>2022-09-18T09:02:58Z</time>
      </trkpt>
      <trkpt lat="44.55497" lon="6.20059">
        <ele>839.6</ele>
        <time>2022-09-18T09:02:59Z</time>
      </trkpt>
      <trkpt lat="44.55499" lon="6.20057">
        <ele>840</ele>
        <time>2022-09-18T09:03:00Z</time>
      </trkpt>
      <trkpt lat="44.55501" lon="6.20055">
        <ele>840.2</ele>
        <time>2022-09-18T09:03:01Z</time>
      </trkpt>
      <trkpt lat="44.55503" lon="6.20052">
        <ele>841</ele>
        <time>2022-09-18T09:03:02Z</time>
      </trkpt>
      <trkpt lat="44.55505" lon="6.2005">
        <ele>841.2</ele>
        <time>2022-09-18T09:03:03Z</time>
      </trkpt>
      <trkpt lat="44.55507" lon="6.20047">
        <ele>841.8</ele>
        <time>2022-09-18T09:03:04Z</time>
      </trkpt>
      <trkpt lat="44.55509" lon="6.20045">
        <ele>842.2</ele>
        <time>2022-09-18T09:03:05Z</time>
      </trkpt>
      <trkpt lat="44.55511" lon="6.20042">
        <ele>842.6</ele>
        <time>2022-09-18T09:03:06Z</time>
      </trkpt>
      <trkpt lat="44.55513" lon="6.2004">
        <ele>843</ele>
        <time>2022-09-18T09:03:07Z</time>
      </trkpt>
      <trkpt lat="44.55515" lon="6.20037">
        <ele>843.4</ele>
        <time>2022-09-18T09:03:08Z</time>
      </trkpt>
      <trkpt lat="44.55517" lon="6.20035">
        <ele>843.6</ele>
        <time>2022-09-18T09:03:09Z</time>
      </trkpt>
      <trkpt lat="44.55519" lon="6.20033">
        <ele>843.8</ele>
        <time>2022-09-18T09:03:10Z</time>
      </trkpt>
      <trkpt lat="44.55521" lon="6.2003">
        <ele>844.4</ele>
        <time>2022-09-18T09:03:11Z</time>
      </trkpt>
      <trkpt lat="44.55522" lon="6.20028">
        <ele>844.8</ele>
        <time>2022-09-18T09:03:12Z</time>
      </trkpt>
      <trkpt lat="44.55524" lon="6.20026">
        <ele>845.4</ele>
        <time>2022-09-18T09:03:13Z</time>
      </trkpt>
      <trkpt lat="44.55526" lon="6.20023">
        <ele>845.8</ele>
        <time>2022-09-18T09:03:14Z</time>
      </trkpt>
      <trkpt lat="44.55528" lon="6.20021">
        <ele>846.2</ele>
        <time>2022-09-18T09:03:15Z</time>
      </trkpt>
      <trkpt lat="44.55529" lon="6.20019">
        <ele>846.8</ele>
        <time>2022-09-18T09:03:16Z</time>
      </trkpt>
      <trkpt lat="44.55531" lon="6.20017">
        <ele>847.2</ele>
        <time>2022-09-18T09:03:17Z</time>
      </trkpt>
      <trkpt lat="44.55533" lon="6.20015">
        <ele>847.6</ele>
        <time>2022-09-18T09:03:18Z</time>
      </trkpt>
      <trkpt lat="44.55535" lon="6.20014">
        <ele>848.2</ele>
        <time>2022-09-18T09:03:19Z</time>
      </trkpt>
      <trkpt lat="44.55537" lon="6.20012">
        <ele>848.6</ele>
        <time>2022-09-18T09:03:20Z</time>
      </trkpt>
      <trkpt lat="44.55539" lon="6.2001">
        <ele>849</ele>
        <time>2022-09-18T09:03:21Z</time>
      </trkpt>
      <trkpt lat="44.55542" lon="6.20009">
        <ele>849.8</ele>
        <time>2022-09-18T09:03:22Z</time>
      </trkpt>
      <trkpt lat="44.55544" lon="6.20007">
        <ele>850.2</ele>
        <time>2022-09-18T09:03:23Z</time>
      </trkpt>
      <trkpt lat="44.55547" lon="6.20006">
        <ele>850.6</ele>
        <time>2022-09-18T09:03:24Z</time>
      </trkpt>
      <trkpt lat="44.55549" lon="6.20005">
        <ele>851</ele>
        <time>2022-09-18T09:03:25Z</time>
      </trkpt>
      <trkpt lat="44.55552" lon="6.20004">
        <ele>851.4</ele>
        <time>2022-09-18T09:03:26Z</time>
      </trkpt>
      <trkpt lat="44.55555" lon="6.20003">
        <ele>852</ele>
        <time>2022-09-18T09:03:27Z</time>
      </trkpt>
      <trkpt lat="44.55557" lon="6.20002">
        <ele>852.4</ele>
        <time>2022-09-18T09:03:28Z</time>
      </trkpt>
      <trkpt lat="44.5556" lon="6.20001">
        <ele>852.8</ele>
        <time>2022-09-18T09:03:29Z</time>
      </trkpt>
      <trkpt lat="44.55563" lon="6.20001">
        <ele>853.2</ele>
        <time>2022-09-18T09:03:30Z</time>
      </trkpt>
      <trkpt lat="44.55565" lon="6.2">
        <ele>853.4</ele>
        <time>2022-09-18T09:03:31Z</time>
      </trkpt>
      <trkpt lat="44.55568" lon="6.19999">
        <ele>853.6</ele>
        <time>2022-09-18T09:03:32Z</time>
      </trkpt>
      <trkpt lat="44.55571" lon="6.19999">
        <ele>854</ele>
        <time>2022-09-18T09:03:33Z</time>
      </trkpt>
      <trkpt lat="44.55573" lon="6.19998">
        <ele>854.2</ele>
        <time>2022-09-18T09:03:34Z</time>
      </trkpt>
      <trkpt lat="44.55576" lon="6.19998">
        <ele>854.6</ele>
        <time>2022-09-18T09:03:35Z</time>
      </trkpt>
      <trkpt lat="44.55578" lon="6.19997">
        <ele>854.8</ele>
        <time>2022-09-18T09:03:36Z</time>
      </trkpt>
      <trkpt lat="44.55581" lon="6.19997">
        <ele>855.2</ele>
        <time>2022-09-18T09:03:37Z</time>
      </trkpt>
      <trkpt lat="44.55583" lon="6.19996">
        <ele>855.4</ele>
        <time>2022-09-18T09:03:38Z</time>
      </trkpt>
      <trkpt lat="44.55586" lon="6.19995">
        <ele>855.6</ele>
        <time>2022-09-18T09:03:39Z</time>
      </trkpt>
      <trkpt lat="44.55589" lon="6.19995">
        <ele>856</ele>
        <time>2022-09-18T09:03:40Z</time>
      </trkpt>
      <trkpt lat="44.55592" lon="6.19994">
        <ele>856.2</ele>
        <time>2022-09-18T09:03:41Z</time>
      </trkpt>
      <trkpt lat="44.55594" lon="6.19994">
        <ele>856.6</ele>
        <time>2022-09-18T09:03:42Z</time>
      </trkpt>
      <trkpt lat="44.55597" lon="6.19993">
        <ele>856.6</ele>
        <time>2022-09-18T09:03:43Z</time>
      </trkpt>
      <trkpt lat="44.556" lon="6.19993">
        <ele>857</ele>
        <time>2022-09-18T09:03:44Z</time>
      </trkpt>
      <trkpt lat="44.55603" lon="6.19992">
        <ele>857</ele>
        <time>2022-09-18T09:03:45Z</time>
      </trkpt>
      <trkpt lat="44.55606" lon="6.19991">
        <ele>857.2</ele>
        <time>2022-09-18T09:03:46Z</time>
      </trkpt>
      <trkpt lat="44.55609" lon="6.19991">
        <ele>857.2</ele>
        <time>2022-09-18T09:03:47Z</time>
      </trkpt>
      <trkpt lat="44.55611" lon="6.1999">
        <ele>857.2</ele>
        <time>2022-09-18T09:03:48Z</time>
      </trkpt>
      <trkpt lat="44.55615" lon="6.1999">
        <ele>857.4</ele>
        <time>2022-09-18T09:03:49Z</time>
      </trkpt>
      <trkpt lat="44.55618" lon="6.1999">
        <ele>857.2</ele>
        <time>2022-09-18T09:03:50Z</time>
      </trkpt>
      <trkpt lat="44.55621" lon="6.1999">
        <ele>857.6</ele>
        <time>2022-09-18T09:03:51Z</time>
      </trkpt>
      <trkpt lat="44.55624" lon="6.1999">
        <ele>857.6</ele>
        <time>2022-09-18T09:03:52Z</time>
      </trkpt>
      <trkpt lat="44.55627" lon="6.1999">
        <ele>858</ele>
        <time>2022-09-18T09:03:53Z</time>
      </trkpt>
      <trkpt lat="44.5563" lon="6.1999">
        <ele>858</ele>
        <time>2022-09-18T09:03:54Z</time>
      </trkpt>
      <trkpt lat="44.55634" lon="6.1999">
        <ele>858.2</ele>
        <time>2022-09-18T09:03:55Z</time>
      </trkpt>
      <trkpt lat="44.55637" lon="6.1999">
        <ele>858.4</ele>
        <time>2022-09-18T09:03:56Z</time>
      </trkpt>
      <trkpt lat="44.5564" lon="6.1999">
        <ele>858.4</ele>
        <time>2022-09-18T09:03:57Z</time>
      </trkpt>
      <trkpt lat="44.55643" lon="6.19991">
        <ele>858.4</ele>
        <time>2022-09-18T09:03:58Z</time>
      </trkpt>
      <trkpt lat="44.55647" lon="6.19991">
        <ele>858.6</ele>
        <time>2022-09-18T09:03:59Z</time>
      </trkpt>
      <trkpt lat="44.5565" lon="6.19991">
        <ele>858.8</ele>
        <time>2022-09-18T09:04:00Z</time>
      </trkpt>
      <trkpt lat="44.55654" lon="6.19992">
        <ele>859.2</ele>
        <time>2022-09-18T09:04:01Z</time>
      </trkpt>
      <trkpt lat="44.55657" lon="6.19993">
        <ele>859.4</ele>
        <time>2022-09-18T09:04:02Z</time>
      </trkpt>
      <trkpt lat="44.5566" lon="6.19993">
        <ele>859.4</ele>
        <time>2022-09-18T09:04:03Z</time>
      </trkpt>
      <trkpt lat="44.55663" lon="6.19995">
        <ele>859.8</ele>
        <time>2022-09-18T09:04:04Z</time>
      </trkpt>
      <trkpt lat="44.55666" lon="6.19996">
        <ele>860.2</ele>
        <time>2022-09-18T09:04:05Z</time>
      </trkpt>
      <trkpt lat="44.55669" lon="6.19998">
        <ele>860.4</ele>
        <time>2022-09-18T09:04:06Z</time>
      </trkpt>
      <trkpt lat="44.55672" lon="6.19999">
        <ele>860.6</ele>
        <time>2022-09-18T09:04:07Z</time>
      </trkpt>
      <trkpt lat="44.55675" lon="6.2">
        <ele>861</ele>
        <time>2022-09-18T09:04:08Z</time>
      </trkpt>
      <trkpt lat="44.55678" lon="6.20002">
        <ele>861.2</ele>
        <time>2022-09-18T09:04:09Z</time>
      </trkpt>
      <trkpt lat="44.55681" lon="6.20004">
        <ele>861.2</ele>
        <time>2022-09-18T09:04:10Z</time>
      </trkpt>
      <trkpt lat="44.55684" lon="6.20006">
        <ele>861.4</ele>
        <time>2022-09-18T09:04:11Z</time>
      </trkpt>
      <trkpt lat="44.55687" lon="6.20008">
        <ele>861.6</ele>
        <time>2022-09-18T09:04:12Z</time>
      </trkpt>
      <trkpt lat="44.5569" lon="6.20009">
        <ele>862</ele>
        <time>2022-09-18T09:04:13Z</time>
      </trkpt>
      <trkpt lat="44.55693" lon="6.20011">
        <ele>862.2</ele>
        <time>2022-09-18T09:04:14Z</time>
      </trkpt>
      <trkpt lat="44.55695" lon="6.20013">
        <ele>862.4</ele>
        <time>2022-09-18T09:04:15Z</time>
      </trkpt>
      <trkpt lat="44.55698" lon="6.20014">
        <ele>862.4</ele>
        <time>2022-09-18T09:04:16Z</time>
      </trkpt>
      <trkpt lat="44.55701" lon="6.20015">
        <ele>862.6</ele>
        <time>2022-09-18T09:04:17Z</time>
      </trkpt>
      <trkpt lat="44.55704" lon="6.20016">
        <ele>862.8</ele>
        <time>2022-09-18T09:04:18Z</time>
      </trkpt>
      <trkpt lat="44.55707" lon="6.20017">
        <ele>863</ele>
        <time>2022-09-18T09:04:19Z</time>
      </trkpt>
      <trkpt lat="44.55709" lon="6.20018">
        <ele>863.4</ele>
        <time>2022-09-18T09:04:20Z</time>
      </trkpt>
      <trkpt lat="44.55712" lon="6.20019">
        <ele>863.6</ele>
        <time>2022-09-18T09:04:21Z</time>
      </trkpt>
      <trkpt lat="44.55715" lon="6.2002">
        <ele>863.8</ele>
        <time>2022-09-18T09:04:22Z</time>
      </trkpt>
      <trkpt lat="44.55719" lon="6.2002">
        <ele>863.8</ele>
        <time>2022-09-18T09:04:23Z</time>
      </trkpt>
      <trkpt lat="44.55722" lon="6.20021">
        <ele>863.8</ele>
        <time>2022-09-18T09:04:24Z</time>
      </trkpt>
      <trkpt lat="44.55726" lon="6.20021">
        <ele>863.8</ele>
        <time>2022-09-18T09:04:25Z</time>
      </trkpt>
      <trkpt lat="44.5573" lon="6.20021">
        <ele>863.8</ele>
        <time>2022-09-18T09:04:26Z</time>
      </trkpt>
      <trkpt lat="44.55735" lon="6.2002">
        <ele>863.8</ele>
        <time>2022-09-18T09:04:27Z</time>
      </trkpt>
      <trkpt lat="44.55739" lon="6.2002">
        <ele>864</ele>
        <time>2022-09-18T09:04:28Z</time>
      </trkpt>
      <trkpt lat="44.55744" lon="6.2002">
        <ele>864</ele>
        <time>2022-09-18T09:04:29Z</time>
      </trkpt>
      <trkpt lat="44.55748" lon="6.2002">
        <ele>863.8</ele>
        <time>2022-09-18T09:04:30Z</time>
      </trkpt>
      <trkpt lat="44.55753" lon="6.2002">
        <ele>863.4</ele>
        <time>2022-09-18T09:04:31Z</time>
      </trkpt>
      <trkpt lat="44.55757" lon="6.20019">
        <ele>863.2</ele>
        <time>2022-09-18T09:04:32Z</time>
      </trkpt>
      <trkpt lat="44.55761" lon="6.20018">
        <ele>863.4</ele>
        <time>2022-09-18T09:04:33Z</time>
      </trkpt>
      <trkpt lat="44.55766" lon="6.20016">
        <ele>863.4</ele>
        <time>2022-09-18T09:04:34Z</time>
      </trkpt>
      <trkpt lat="44.5577" lon="6.20015">
        <ele>863.4</ele>
        <time>2022-09-18T09:04:35Z</time>
      </trkpt>
      <trkpt lat="44.55774" lon="6.20013">
        <ele>863.4</ele>
        <time>2022-09-18T09:04:36Z</time>
      </trkpt>
      <trkpt lat="44.55779" lon="6.20012">
        <ele>863.2</ele>
        <time>2022-09-18T09:04:37Z</time>
      </trkpt>
      <trkpt lat="44.55783" lon="6.20011">
        <ele>863</ele>
        <time>2022-09-18T09:04:38Z</time>
      </trkpt>
      <trkpt lat="44.55787" lon="6.2001">
        <ele>862.8</ele>
        <time>2022-09-18T09:04:39Z</time>
      </trkpt>
      <trkpt lat="44.55792" lon="6.20009">
        <ele>862.6</ele>
        <time>2022-09-18T09:04:40Z</time>
      </trkpt>
      <trkpt lat="44.55796" lon="6.20007">
        <ele>862.4</ele>
        <time>2022-09-18T09:04:41Z</time>
      </trkpt>
      <trkpt lat="44.55801" lon="6.20005">
        <ele>862.4</ele>
        <time>2022-09-18T09:04:42Z</time>
      </trkpt>
      <trkpt lat="44.55805" lon="6.20003">
        <ele>862.8</ele>
        <time>2022-09-18T09:04:43Z</time>
      </trkpt>
      <trkpt lat="44.55809" lon="6.20002">
        <ele>863</ele>
        <time>2022-09-18T09:04:44Z</time>
      </trkpt>
      <trkpt lat="44.55814" lon="6.2">
        <ele>863.2</ele>
        <time>2022-09-18T09:04:45Z</time>
      </trkpt>
      <trkpt lat="44.55819" lon="6.19998">
        <ele>863.6</ele>
        <time>2022-09-18T09:04:46Z</time>
      </trkpt>
      <trkpt lat="44.55823" lon="6.19996">
        <ele>863.4</ele>
        <time>2022-09-18T09:04:47Z</time>
      </trkpt>
      <trkpt lat="44.55828" lon="6.19994">
        <ele>863.4</ele>
        <time>2022-09-18T09:04:48Z</time>
      </trkpt>
      <trkpt lat="44.55833" lon="6.19992">
        <ele>863.2</ele>
        <time>2022-09-18T09:04:49Z</time>
      </trkpt>
      <trkpt lat="44.55838" lon="6.1999">
        <ele>863.2</ele>
        <time>2022-09-18T09:04:50Z</time>
      </trkpt>
      <trkpt lat="44.55842" lon="6.19989">
        <ele>863.2</ele>
        <time>2022-09-18T09:04:51Z</time>
      </trkpt>
      <trkpt lat="44.55847" lon="6.19987">
        <ele>863.4</ele>
        <time>2022-09-18T09:04:52Z</time>
      </trkpt>
      <trkpt lat="44.55852" lon="6.19986">
        <ele>863.2</ele>
        <time>2022-09-18T09:04:53Z</time>
      </trkpt>
      <trkpt lat="44.55856" lon="6.19985">
        <ele>863.2</ele>
        <time>2022-09-18T09:04:54Z</time>
      </trkpt>
      <trkpt lat="44.55861" lon="6.19984">
        <ele>863.2</ele>
        <time>2022-09-18T09:04:55Z</time>
      </trkpt>
      <trkpt lat="44.55866" lon="6.19983">
        <ele>863.4</ele>
        <time>2022-09-18T09:04:56Z</time>
      </trkpt>
      <trkpt lat="44.55871" lon="6.19983">
        <ele>863.4</ele>
        <time>2022-09-18T09:04:57Z</time>
      </trkpt>
      <trkpt lat="44.55876" lon="6.19983">
        <ele>863.4</ele>
        <time>2022-09-18T09:04:58Z</time>
      </trkpt>
      <trkpt lat="44.55881" lon="6.19982">
        <ele>863.6</ele>
        <time>2022-09-18T09:04:59Z</time>
      </trkpt>
      <trkpt lat="44.55886" lon="6.19982">
        <ele>863.8</ele>
        <time>2022-09-18T09:05:00Z</time>
      </trkpt>
      <trkpt lat="44.5589" lon="6.19982">
        <ele>863.8</ele>
        <time>2022-09-18T09:05:01Z</time>
      </trkpt>
      <trkpt lat="44.55895" lon="6.19982">
        <ele>864.2</ele>
        <time>2022-09-18T09:05:02Z</time>
      </trkpt>
      <trkpt lat="44.55899" lon="6.19983">
        <ele>864.4</ele>
        <time>2022-09-18T09:05:03Z</time>
      </trkpt>
      <trkpt lat="44.55904" lon="6.19983">
        <ele>864.4</ele>
        <time>2022-09-18T09:05:04Z</time>
      </trkpt>
      <trkpt lat="44.55908" lon="6.19984">
        <ele>864.6</ele>
        <time>2022-09-18T09:05:05Z</time>
      </trkpt>
      <trkpt lat="44.55912" lon="6.19984">
        <ele>864.8</ele>
        <time>2022-09-18T09:05:06Z</time>
      </trkpt>
      <trkpt lat="44.55916" lon="6.19985">
        <ele>865.2</ele>
        <time>2022-09-18T09:05:07Z</time>
      </trkpt>
      <trkpt lat="44.55919" lon="6.19985">
        <ele>865.4</ele>
        <time>2022-09-18T09:05:08Z</time>
      </trkpt>
      <trkpt lat="44.55923" lon="6.19986">
        <ele>865.6</ele>
        <time>2022-09-18T09:05:09Z</time>
      </trkpt>
      <trkpt lat="44.55927" lon="6.19986">
        <ele>865.8</ele>
        <time>2022-09-18T09:05:10Z</time>
      </trkpt>
      <trkpt lat="44.5593" lon="6.19987">
        <ele>865.8</ele>
        <time>2022-09-18T09:05:11Z</time>
      </trkpt>
      <trkpt lat="44.55933" lon="6.19988">
        <ele>866.2</ele>
        <time>2022-09-18T09:05:12Z</time>
      </trkpt>
      <trkpt lat="44.55937" lon="6.19989">
        <ele>866.6</ele>
        <time>2022-09-18T09:05:13Z</time>
      </trkpt>
      <trkpt lat="44.55941" lon="6.1999">
        <ele>867</ele>
        <time>2022-09-18T09:05:14Z</time>
      </trkpt>
      <trkpt lat="44.55946" lon="6.19991">
        <ele>867.4</ele>
        <time>2022-09-18T09:05:15Z</time>
      </trkpt>
      <trkpt lat="44.5595" lon="6.19991">
        <ele>868</ele>
        <time>2022-09-18T09:05:16Z</time>
      </trkpt>
      <trkpt lat="44.55954" lon="6.19992">
        <ele>868.2</ele>
        <time>2022-09-18T09:05:17Z</time>
      </trkpt>
      <trkpt lat="44.55958" lon="6.19993">
        <ele>868.4</ele>
        <time>2022-09-18T09:05:18Z</time>
      </trkpt>
      <trkpt lat="44.55961" lon="6.19993">
        <ele>869</ele>
        <time>2022-09-18T09:05:19Z</time>
      </trkpt>
      <trkpt lat="44.55965" lon="6.19993">
        <ele>869.6</ele>
        <time>2022-09-18T09:05:20Z</time>
      </trkpt>
      <trkpt lat="44.55968" lon="6.19993">
        <ele>869.8</ele>
        <time>2022-09-18T09:05:21Z</time>
      </trkpt>
      <trkpt lat="44.55972" lon="6.19993">
        <ele>870</ele>
        <time>2022-09-18T09:05:22Z</time>
      </trkpt>
      <trkpt lat="44.55975" lon="6.19993">
        <ele>870.4</ele>
        <time>2022-09-18T09:05:23Z</time>
      </trkpt>
      <trkpt lat="44.55979" lon="6.19993">
        <ele>870.8</ele>
        <time>2022-09-18T09:05:24Z</time>
      </trkpt>
      <trkpt lat="44.55982" lon="6.19993">
        <ele>871</ele>
        <time>2022-09-18T09:05:25Z</time>
      </trkpt>
      <trkpt lat="44.55985" lon="6.19992">
        <ele>871</ele>
        <time>2022-09-18T09:05:26Z</time>
      </trkpt>
      <trkpt lat="44.55989" lon="6.19992">
        <ele>871</ele>
        <time>2022-09-18T09:05:27Z</time>
      </trkpt>
      <trkpt lat="44.55992" lon="6.19992">
        <ele>871.2</ele>
        <time>2022-09-18T09:05:28Z</time>
      </trkpt>
      <trkpt lat="44.55996" lon="6.19991">
        <ele>871.2</ele>
        <time>2022-09-18T09:05:29Z</time>
      </trkpt>
      <trkpt lat="44.55999" lon="6.19991">
        <ele>871.4</ele>
        <time>2022-09-18T09:05:30Z</time>
      </trkpt>
      <trkpt lat="44.56002" lon="6.19991">
        <ele>871.4</ele>
        <time>2022-09-18T09:05:31Z</time>
      </trkpt>
      <trkpt lat="44.56006" lon="6.1999">
        <ele>871.6</ele>
        <time>2022-09-18T09:05:32Z</time>
      </trkpt>
      <trkpt lat="44.56009" lon="6.19989">
        <ele>871.6</ele>
        <time>2022-09-18T09:05:33Z</time>
      </trkpt>
      <trkpt lat="44.56012" lon="6.19988">
        <ele>871.8</ele>
        <time>2022-09-18T09:05:34Z</time>
      </trkpt>
      <trkpt lat="44.56015" lon="6.19987">
        <ele>871.8</ele>
        <time>2022-09-18T09:05:35Z</time>
      </trkpt>
      <trkpt lat="44.56018" lon="6.19987">
        <ele>872</ele>
        <time>2022-09-18T09:05:36Z</time>
      </trkpt>
      <trkpt lat="44.56021" lon="6.19986">
        <ele>872.2</ele>
        <time>2022-09-18T09:05:37Z</time>
      </trkpt>
      <trkpt lat="44.56024" lon="6.19985">
        <ele>872.4</ele>
        <time>2022-09-18T09:05:38Z</time>
      </trkpt>
      <trkpt lat="44.56028" lon="6.19984">
        <ele>872.8</ele>
        <time>2022-09-18T09:05:39Z</time>
      </trkpt>
      <trkpt lat="44.5603" lon="6.19983">
        <ele>873</ele>
        <time>2022-09-18T09:05:40Z</time>
      </trkpt>
      <trkpt lat="44.56034" lon="6.19981">
        <ele>873.2</ele>
        <time>2022-09-18T09:05:41Z</time>
      </trkpt>
      <trkpt lat="44.56037" lon="6.1998">
        <ele>873.6</ele>
        <time>2022-09-18T09:05:42Z</time>
      </trkpt>
      <trkpt lat="44.5604" lon="6.19978">
        <ele>873.8</ele>
        <time>2022-09-18T09:05:43Z</time>
      </trkpt>
      <trkpt lat="44.56043" lon="6.19977">
        <ele>874.2</ele>
        <time>2022-09-18T09:05:44Z</time>
      </trkpt>
      <trkpt lat="44.56046" lon="6.19975">
        <ele>874.6</ele>
        <time>2022-09-18T09:05:45Z</time>
      </trkpt>
      <trkpt lat="44.56049" lon="6.19974">
        <ele>875.2</ele>
        <time>2022-09-18T09:05:46Z</time>
      </trkpt>
      <trkpt lat="44.56052" lon="6.19972">
        <ele>875.4</ele>
        <time>2022-09-18T09:05:47Z</time>
      </trkpt>
      <trkpt lat="44.56055" lon="6.19971">
        <ele>875.6</ele>
        <time>2022-09-18T09:05:48Z</time>
      </trkpt>
      <trkpt lat="44.56058" lon="6.1997">
        <ele>876</ele>
        <time>2022-09-18T09:05:49Z</time>
      </trkpt>
      <trkpt lat="44.56061" lon="6.19968">
        <ele>876.4</ele>
        <time>2022-09-18T09:05:50Z</time>
      </trkpt>
      <trkpt lat="44.56064" lon="6.19967">
        <ele>876.8</ele>
        <time>2022-09-18T09:05:51Z</time>
      </trkpt>
      <trkpt lat="44.56067" lon="6.19965">
        <ele>877.2</ele>
        <time>2022-09-18T09:05:52Z</time>
      </trkpt>
      <trkpt lat="44.5607" lon="6.19964">
        <ele>877.6</ele>
        <time>2022-09-18T09:05:53Z</time>
      </trkpt>
      <trkpt lat="44.56072" lon="6.19962">
        <ele>877.8</ele>
        <time>2022-09-18T09:05:54Z</time>
      </trkpt>
      <trkpt lat="44.56075" lon="6.1996">
        <ele>878</ele>
        <time>2022-09-18T09:05:55Z</time>
      </trkpt>
      <trkpt lat="44.56077" lon="6.19959">
        <ele>878.4</ele>
        <time>2022-09-18T09:05:56Z</time>
      </trkpt>
      <trkpt lat="44.5608" lon="6.19957">
        <ele>878.4</ele>
        <time>2022-09-18T09:05:57Z</time>
      </trkpt>
      <trkpt lat="44.56083" lon="6.19956">
        <ele>878.6</ele>
        <time>2022-09-18T09:05:58Z</time>
      </trkpt>
      <trkpt lat="44.56085" lon="6.19954">
        <ele>878.6</ele>
        <time>2022-09-18T09:05:59Z</time>
      </trkpt>
      <trkpt lat="44.56088" lon="6.19953">
        <ele>878.6</ele>
        <time>2022-09-18T09:06:00Z</time>
      </trkpt>
      <trkpt lat="44.56091" lon="6.19952">
        <ele>878.8</ele>
        <time>2022-09-18T09:06:01Z</time>
      </trkpt>
      <trkpt lat="44.56094" lon="6.19951">
        <ele>878.8</ele>
        <time>2022-09-18T09:06:02Z</time>
      </trkpt>
      <trkpt lat="44.56097" lon="6.19949">
        <ele>879</ele>
        <time>2022-09-18T09:06:03Z</time>
      </trkpt>
      <trkpt lat="44.561" lon="6.19948">
        <ele>879</ele>
        <time>2022-09-18T09:06:04Z</time>
      </trkpt>
      <trkpt lat="44.56103" lon="6.19947">
        <ele>878.8</ele>
        <time>2022-09-18T09:06:05Z</time>
      </trkpt>
      <trkpt lat="44.56105" lon="6.19946">
        <ele>879</ele>
        <time>2022-09-18T09:06:06Z</time>
      </trkpt>
      <trkpt lat="44.56108" lon="6.19945">
        <ele>879</ele>
        <time>2022-09-18T09:06:07Z</time>
      </trkpt>
      <trkpt lat="44.56111" lon="6.19944">
        <ele>879.2</ele>
        <time>2022-09-18T09:06:08Z</time>
      </trkpt>
      <trkpt lat="44.56114" lon="6.19943">
        <ele>879.4</ele>
        <time>2022-09-18T09:06:09Z</time>
      </trkpt>
      <trkpt lat="44.56117" lon="6.19941">
        <ele>879.4</ele>
        <time>2022-09-18T09:06:10Z</time>
      </trkpt>
      <trkpt lat="44.5612" lon="6.1994">
        <ele>879.6</ele>
        <time>2022-09-18T09:06:11Z</time>
      </trkpt>
      <trkpt lat="44.56122" lon="6.19939">
        <ele>880</ele>
        <time>2022-09-18T09:06:12Z</time>
      </trkpt>
      <trkpt lat="44.56125" lon="6.19937">
        <ele>880</ele>
        <time>2022-09-18T09:06:13Z</time>
      </trkpt>
      <trkpt lat="44.56128" lon="6.19936">
        <ele>880.2</ele>
        <time>2022-09-18T09:06:14Z</time>
      </trkpt>
      <trkpt lat="44.5613" lon="6.19934">
        <ele>880.4</ele>
        <time>2022-09-18T09:06:15Z</time>
      </trkpt>
      <trkpt lat="44.56133" lon="6.19933">
        <ele>880.8</ele>
        <time>2022-09-18T09:06:16Z</time>
      </trkpt>
      <trkpt lat="44.56136" lon="6.19932">
        <ele>880.8</ele>
        <time>2022-09-18T09:06:17Z</time>
      </trkpt>
      <trkpt lat="44.56138" lon="6.1993">
        <ele>881</ele>
        <time>2022-09-18T09:06:18Z</time>
      </trkpt>
      <trkpt lat="44.56141" lon="6.19929">
        <ele>881.2</ele>
        <time>2022-09-18T09:06:19Z</time>
      </trkpt>
      <trkpt lat="44.56143" lon="6.19927">
        <ele>881.6</ele>
        <time>2022-09-18T09:06:20Z</time>
      </trkpt>
      <trkpt lat="44.56146" lon="6.19925">
        <ele>881.8</ele>
        <time>2022-09-18T09:06:21Z</time>
      </trkpt>
      <trkpt lat="44.56148" lon="6.19923">
        <ele>882.2</ele>
        <time>2022-09-18T09:06:22Z</time>
      </trkpt>
      <trkpt lat="44.56151" lon="6.19921">
        <ele>882.6</ele>
        <time>2022-09-18T09:06:23Z</time>
      </trkpt>
      <trkpt lat="44.56153" lon="6.19919">
        <ele>882.8</ele>
        <time>2022-09-18T09:06:24Z</time>
      </trkpt>
      <trkpt lat="44.56156" lon="6.19917">
        <ele>882.8</ele>
        <time>2022-09-18T09:06:25Z</time>
      </trkpt>
      <trkpt lat="44.56158" lon="6.19916">
        <ele>883.2</ele>
        <time>2022-09-18T09:06:26Z</time>
      </trkpt>
      <trkpt lat="44.56161" lon="6.19914">
        <ele>883.2</ele>
        <time>2022-09-18T09:06:27Z</time>
      </trkpt>
      <trkpt lat="44.56163" lon="6.19912">
        <ele>883.2</ele>
        <time>2022-09-18T09:06:28Z</time>
      </trkpt>
      <trkpt lat="44.56166" lon="6.1991">
        <ele>883.6</ele>
        <time>2022-09-18T09:06:29Z</time>
      </trkpt>
      <trkpt lat="44.56168" lon="6.19908">
        <ele>884</ele>
        <time>2022-09-18T09:06:30Z</time>
      </trkpt>
      <trkpt lat="44.5617" lon="6.19906">
        <ele>884.2</ele>
        <time>2022-09-18T09:06:31Z</time>
      </trkpt>
      <trkpt lat="44.56173" lon="6.19903">
        <ele>884.6</ele>
        <time>2022-09-18T09:06:32Z</time>
      </trkpt>
      <trkpt lat="44.56175" lon="6.19901">
        <ele>884.8</ele>
        <time>2022-09-18T09:06:33Z</time>
      </trkpt>
      <trkpt lat="44.56178" lon="6.199">
        <ele>885.2</ele>
        <time>2022-09-18T09:06:34Z</time>
      </trkpt>
      <trkpt lat="44.5618" lon="6.19897">
        <ele>885.4</ele>
        <time>2022-09-18T09:06:35Z</time>
      </trkpt>
      <trkpt lat="44.56182" lon="6.19895">
        <ele>885.8</ele>
        <time>2022-09-18T09:06:36Z</time>
      </trkpt>
      <trkpt lat="44.56185" lon="6.19894">
        <ele>886</ele>
        <time>2022-09-18T09:06:37Z</time>
      </trkpt>
      <trkpt lat="44.56187" lon="6.19892">
        <ele>886.6</ele>
        <time>2022-09-18T09:06:38Z</time>
      </trkpt>
      <trkpt lat="44.56189" lon="6.1989">
        <ele>886.8</ele>
        <time>2022-09-18T09:06:39Z</time>
      </trkpt>
      <trkpt lat="44.56191" lon="6.19888">
        <ele>887.2</ele>
        <time>2022-09-18T09:06:40Z</time>
      </trkpt>
      <trkpt lat="44.56194" lon="6.19886">
        <ele>887.4</ele>
        <time>2022-09-18T09:06:41Z</time>
      </trkpt>
      <trkpt lat="44.56196" lon="6.19884">
        <ele>887.8</ele>
        <time>2022-09-18T09:06:42Z</time>
      </trkpt>
      <trkpt lat="44.56198" lon="6.19882">
        <ele>887.8</ele>
        <time>2022-09-18T09:06:43Z</time>
      </trkpt>
      <trkpt lat="44.562" lon="6.1988">
        <ele>888.2</ele>
        <time>2022-09-18T09:06:44Z</time>
      </trkpt>
      <trkpt lat="44.56202" lon="6.19878">
        <ele>888.4</ele>
        <time>2022-09-18T09:06:45Z</time>
      </trkpt>
      <trkpt lat="44.56204" lon="6.19876">
        <ele>888.8</ele>
        <time>2022-09-18T09:06:46Z</time>
      </trkpt>
      <trkpt lat="44.56207" lon="6.19875">
        <ele>889</ele>
        <time>2022-09-18T09:06:47Z</time>
      </trkpt>
      <trkpt lat="44.56209" lon="6.19873">
        <ele>889.4</ele>
        <time>2022-09-18T09:06:48Z</time>
      </trkpt>
      <trkpt lat="44.56211" lon="6.19871">
        <ele>889.8</ele>
        <time>2022-09-18T09:06:49Z</time>
      </trkpt>
      <trkpt lat="44.56213" lon="6.1987">
        <ele>890</ele>
        <time>2022-09-18T09:06:50Z</time>
      </trkpt>
      <trkpt lat="44.56216" lon="6.19868">
        <ele>890.4</ele>
        <time>2022-09-18T09:06:51Z</time>
      </trkpt>
      <trkpt lat="44.56218" lon="6.19866">
        <ele>890.6</ele>
        <time>2022-09-18T09:06:52Z</time>
      </trkpt>
      <trkpt lat="44.5622" lon="6.19865">
        <ele>891</ele>
        <time>2022-09-18T09:06:53Z</time>
      </trkpt>
      <trkpt lat="44.56222" lon="6.19863">
        <ele>891.4</ele>
        <time>2022-09-18T09:06:54Z</time>
      </trkpt>
      <trkpt lat="44.56224" lon="6.19861">
        <ele>891.6</ele>
        <time>2022-09-18T09:06:55Z</time>
      </trkpt>
      <trkpt lat="44.56226" lon="6.19859">
        <ele>891.8</ele>
        <time>2022-09-18T09:06:56Z</time>
      </trkpt>
      <trkpt lat="44.56228" lon="6.19857">
        <ele>892</ele>
        <time>2022-09-18T09:06:57Z</time>
      </trkpt>
      <trkpt lat="44.5623" lon="6.19855">
        <ele>892.6</ele>
        <time>2022-09-18T09:06:58Z</time>
      </trkpt>
      <trkpt lat="44.56232" lon="6.19853">
        <ele>893.2</ele>
        <time>2022-09-18T09:06:59Z</time>
      </trkpt>
      <trkpt lat="44.56234" lon="6.19851">
        <ele>893.4</ele>
        <time>2022-09-18T09:07:00Z</time>
      </trkpt>
      <trkpt lat="44.56236" lon="6.1985">
        <ele>893.6</ele>
        <time>2022-09-18T09:07:01Z</time>
      </trkpt>
      <trkpt lat="44.56238" lon="6.19848">
        <ele>893.8</ele>
        <time>2022-09-18T09:07:02Z</time>
      </trkpt>
      <trkpt lat="44.5624" lon="6.19846">
        <ele>894</ele>
        <time>2022-09-18T09:07:03Z</time>
      </trkpt>
      <trkpt lat="44.56242" lon="6.19844">
        <ele>894</ele>
        <time>2022-09-18T09:07:04Z</time>
      </trkpt>
      <trkpt lat="44.56244" lon="6.19843">
        <ele>894.4</ele>
        <time>2022-09-18T09:07:05Z</time>
      </trkpt>
      <trkpt lat="44.56246" lon="6.19841">
        <ele>894.6</ele>
        <time>2022-09-18T09:07:06Z</time>
      </trkpt>
      <trkpt lat="44.56248" lon="6.1984">
        <ele>894.6</ele>
        <time>2022-09-18T09:07:07Z</time>
      </trkpt>
      <trkpt lat="44.5625" lon="6.19838">
        <ele>895</ele>
        <time>2022-09-18T09:07:08Z</time>
      </trkpt>
      <trkpt lat="44.56252" lon="6.19837">
        <ele>895.4</ele>
        <time>2022-09-18T09:07:09Z</time>
      </trkpt>
      <trkpt lat="44.56254" lon="6.19835">
        <ele>895.6</ele>
        <time>2022-09-18T09:07:10Z</time>
      </trkpt>
      <trkpt lat="44.56256" lon="6.19833">
        <ele>895.8</ele>
        <time>2022-09-18T09:07:11Z</time>
      </trkpt>
      <trkpt lat="44.56258" lon="6.19831">
        <ele>895.6</ele>
        <time>2022-09-18T09:07:12Z</time>
      </trkpt>
      <trkpt lat="44.5626" lon="6.19829">
        <ele>896</ele>
        <time>2022-09-18T09:07:13Z</time>
      </trkpt>
      <trkpt lat="44.56263" lon="6.19827">
        <ele>896.2</ele>
        <time>2022-09-18T09:07:14Z</time>
      </trkpt>
      <trkpt lat="44.56265" lon="6.19826">
        <ele>896.2</ele>
        <time>2022-09-18T09:07:15Z</time>
      </trkpt>
      <trkpt lat="44.56267" lon="6.19824">
        <ele>896.2</ele>
        <time>2022-09-18T09:07:16Z</time>
      </trkpt>
      <trkpt lat="44.56269" lon="6.19822">
        <ele>896.4</ele>
        <time>2022-09-18T09:07:17Z</time>
      </trkpt>
      <trkpt lat="44.56272" lon="6.1982">
        <ele>896.6</ele>
        <time>2022-09-18T09:07:18Z</time>
      </trkpt>
      <trkpt lat="44.56274" lon="6.19818">
        <ele>896.6</ele>
        <time>2022-09-18T09:07:19Z</time>
      </trkpt>
      <trkpt lat="44.56275" lon="6.19816">
        <ele>896.6</ele>
        <time>2022-09-18T09:07:20Z</time>
      </trkpt>
      <trkpt lat="44.56277" lon="6.19813">
        <ele>896.8</ele>
        <time>2022-09-18T09:07:21Z</time>
      </trkpt>
      <trkpt lat="44.56279" lon="6.19811">
        <ele>897</ele>
        <time>2022-09-18T09:07:22Z</time>
      </trkpt>
      <trkpt lat="44.56281" lon="6.19809">
        <ele>897.4</ele>
        <time>2022-09-18T09:07:23Z</time>
      </trkpt>
      <trkpt lat="44.56283" lon="6.19806">
        <ele>897.4</ele>
        <time>2022-09-18T09:07:24Z</time>
      </trkpt>
      <trkpt lat="44.56284" lon="6.19803">
        <ele>897.4</ele>
        <time>2022-09-18T09:07:25Z</time>
      </trkpt>
      <trkpt lat="44.56286" lon="6.19801">
        <ele>897.4</ele>
        <time>2022-09-18T09:07:26Z</time>
      </trkpt>
      <trkpt lat="44.56288" lon="6.19798">
        <ele>897.4</ele>
        <time>2022-09-18T09:07:27Z</time>
      </trkpt>
      <trkpt lat="44.56289" lon="6.19795">
        <ele>897.6</ele>
        <time>2022-09-18T09:07:28Z</time>
      </trkpt>
      <trkpt lat="44.56291" lon="6.19792">
        <ele>897.8</ele>
        <time>2022-09-18T09:07:29Z</time>
      </trkpt>
      <trkpt lat="44.56292" lon="6.19789">
        <ele>897.8</ele>
        <time>2022-09-18T09:07:30Z</time>
      </trkpt>
      <trkpt lat="44.56293" lon="6.19786">
        <ele>897.8</ele>
        <time>2022-09-18T09:07:31Z</time>
      </trkpt>
      <trkpt lat="44.56294" lon="6.19782">
        <ele>898</ele>
        <time>2022-09-18T09:07:32Z</time>
      </trkpt>
      <trkpt lat="44.56296" lon="6.19779">
        <ele>898.2</ele>
        <time>2022-09-18T09:07:33Z</time>
      </trkpt>
      <trkpt lat="44.56297" lon="6.19776">
        <ele>898.2</ele>
        <time>2022-09-18T09:07:34Z</time>
      </trkpt>
      <trkpt lat="44.56298" lon="6.19773">
        <ele>898.2</ele>
        <time>2022-09-18T09:07:35Z</time>
      </trkpt>
      <trkpt lat="44.56299" lon="6.19769">
        <ele>898.4</ele>
        <time>2022-09-18T09:07:36Z</time>
      </trkpt>
      <trkpt lat="44.563" lon="6.19766">
        <ele>898.4</ele>
        <time>2022-09-18T09:07:37Z</time>
      </trkpt>
      <trkpt lat="44.56301" lon="6.19763">
        <ele>898.6</ele>
        <time>2022-09-18T09:07:38Z</time>
      </trkpt>
      <trkpt lat="44.56302" lon="6.19759">
        <ele>898.6</ele>
        <time>2022-09-18T09:07:39Z</time>
      </trkpt>
      <trkpt lat="44.56303" lon="6.19756">
        <ele>898.4</ele>
        <time>2022-09-18T09:07:40Z</time>
      </trkpt>
      <trkpt lat="44.56304" lon="6.19752">
        <ele>898.4</ele>
        <time>2022-09-18T09:07:41Z</time>
      </trkpt>
      <trkpt lat="44.56305" lon="6.19749">
        <ele>898.6</ele>
        <time>2022-09-18T09:07:42Z</time>
      </trkpt>
      <trkpt lat="44.56306" lon="6.19745">
        <ele>898.6</ele>
        <time>2022-09-18T09:07:43Z</time>
      </trkpt>
      <trkpt lat="44.56307" lon="6.19741">
        <ele>898.6</ele>
        <time>2022-09-18T09:07:44Z</time>
      </trkpt>
      <trkpt lat="44.56308" lon="6.19738">
        <ele>898.8</ele>
        <time>2022-09-18T09:07:45Z</time>
      </trkpt>
      <trkpt lat="44.56308" lon="6.19734">
        <ele>899</ele>
        <time>2022-09-18T09:07:46Z</time>
      </trkpt>
      <trkpt lat="44.56309" lon="6.19731">
        <ele>899</ele>
        <time>2022-09-18T09:07:47Z</time>
      </trkpt>
      <trkpt lat="44.5631" lon="6.19727">
        <ele>899.2</ele>
        <time>2022-09-18T09:07:48Z</time>
      </trkpt>
      <trkpt lat="44.5631" lon="6.19723">
        <ele>899.2</ele>
        <time>2022-09-18T09:07:49Z</time>
      </trkpt>
      <trkpt lat="44.56311" lon="6.1972">
        <ele>899.4</ele>
        <time>2022-09-18T09:07:50Z</time>
      </trkpt>
      <trkpt lat="44.56311" lon="6.19716">
        <ele>899.4</ele>
        <time>2022-09-18T09:07:51Z</time>
      </trkpt>
      <trkpt lat="44.56312" lon="6.19713">
        <ele>899.4</ele>
        <time>2022-09-18T09:07:52Z</time>
      </trkpt>
      <trkpt lat="44.56313" lon="6.19709">
        <ele>899.4</ele>
        <time>2022-09-18T09:07:53Z</time>
      </trkpt>
      <trkpt lat="44.56314" lon="6.19706">
        <ele>899.6</ele>
        <time>2022-09-18T09:07:54Z</time>
      </trkpt>
      <trkpt lat="44.56316" lon="6.19703">
        <ele>899.8</ele>
        <time>2022-09-18T09:07:55Z</time>
      </trkpt>
      <trkpt lat="44.56317" lon="6.19701">
        <ele>899.8</ele>
        <time>2022-09-18T09:07:56Z</time>
      </trkpt>
      <trkpt lat="44.56318" lon="6.19699">
        <ele>900</ele>
        <time>2022-09-18T09:07:57Z</time>
      </trkpt>
      <trkpt lat="44.56319" lon="6.19697">
        <ele>899.8</ele>
        <time>2022-09-18T09:07:58Z</time>
      </trkpt>
      <trkpt lat="44.56321" lon="6.19695">
        <ele>900</ele>
        <time>2022-09-18T09:07:59Z</time>
      </trkpt>
      <trkpt lat="44.56322" lon="6.19693">
        <ele>900.2</ele>
        <time>2022-09-18T09:08:00Z</time>
      </trkpt>
      <trkpt lat="44.56325" lon="6.19691">
        <ele>900.6</ele>
        <time>2022-09-18T09:08:02Z</time>
      </trkpt>
      <trkpt lat="44.56327" lon="6.19692">
        <ele>900.4</ele>
        <time>2022-09-18T09:08:13Z</time>
      </trkpt>
      <trkpt lat="44.56329" lon="6.19692">
        <ele>900.2</ele>
        <time>2022-09-18T09:08:15Z</time>
      </trkpt>
      <trkpt lat="44.5633" lon="6.19692">
        <ele>899.6</ele>
        <time>2022-09-18T09:08:19Z</time>
      </trkpt>
      <trkpt lat="44.56334" lon="6.19694">
        <ele>899.2</ele>
        <time>2022-09-18T09:08:22Z</time>
      </trkpt>
      <trkpt lat="44.56335" lon="6.19696">
        <ele>899.2</ele>
        <time>2022-09-18T09:08:23Z</time>
      </trkpt>
      <trkpt lat="44.56337" lon="6.19697">
        <ele>899</ele>
        <time>2022-09-18T09:08:24Z</time>
      </trkpt>
      <trkpt lat="44.5634" lon="6.197">
        <ele>899</ele>
        <time>2022-09-18T09:08:25Z</time>
      </trkpt>
      <trkpt lat="44.56342" lon="6.19703">
        <ele>898.8</ele>
        <time>2022-09-18T09:08:26Z</time>
      </trkpt>
      <trkpt lat="44.56344" lon="6.19707">
        <ele>898.6</ele>
        <time>2022-09-18T09:08:27Z</time>
      </trkpt>
      <trkpt lat="44.56345" lon="6.1971">
        <ele>898.4</ele>
        <time>2022-09-18T09:08:28Z</time>
      </trkpt>
      <trkpt lat="44.56345" lon="6.19714">
        <ele>898.4</ele>
        <time>2022-09-18T09:08:29Z</time>
      </trkpt>
      <trkpt lat="44.56345" lon="6.19718">
        <ele>898</ele>
        <time>2022-09-18T09:08:30Z</time>
      </trkpt>
      <trkpt lat="44.56345" lon="6.19722">
        <ele>897.8</ele>
        <time>2022-09-18T09:08:31Z</time>
      </trkpt>
      <trkpt lat="44.56345" lon="6.19727">
        <ele>897.6</ele>
        <time>2022-09-18T09:08:32Z</time>
      </trkpt>
      <trkpt lat="44.56344" lon="6.19732">
        <ele>897.8</ele>
        <time>2022-09-18T09:08:33Z</time>
      </trkpt>
      <trkpt lat="44.56343" lon="6.19737">
        <ele>897.4</ele>
        <time>2022-09-18T09:08:34Z</time>
      </trkpt>
      <trkpt lat="44.56341" lon="6.19742">
        <ele>897.2</ele>
        <time>2022-09-18T09:08:35Z</time>
      </trkpt>
      <trkpt lat="44.56339" lon="6.19747">
        <ele>897.2</ele>
        <time>2022-09-18T09:08:36Z</time>
      </trkpt>
      <trkpt lat="44.56337" lon="6.19752">
        <ele>897.2</ele>
        <time>2022-09-18T09:08:37Z</time>
      </trkpt>
      <trkpt lat="44.56335" lon="6.19758">
        <ele>897</ele>
        <time>2022-09-18T09:08:38Z</time>
      </trkpt>
      <trkpt lat="44.56333" lon="6.19763">
        <ele>897</ele>
        <time>2022-09-18T09:08:39Z</time>
      </trkpt>
      <trkpt lat="44.56332" lon="6.19769">
        <ele>896.6</ele>
        <time>2022-09-18T09:08:40Z</time>
      </trkpt>
      <trkpt lat="44.5633" lon="6.19774">
        <ele>896.4</ele>
        <time>2022-09-18T09:08:41Z</time>
      </trkpt>
      <trkpt lat="44.56329" lon="6.1978">
        <ele>896</ele>
        <time>2022-09-18T09:08:42Z</time>
      </trkpt>
      <trkpt lat="44.56327" lon="6.19785">
        <ele>895.6</ele>
        <time>2022-09-18T09:08:43Z</time>
      </trkpt>
      <trkpt lat="44.56327" lon="6.19791">
        <ele>895.4</ele>
        <time>2022-09-18T09:08:44Z</time>
      </trkpt>
      <trkpt lat="44.56327" lon="6.19797">
        <ele>895.2</ele>
        <time>2022-09-18T09:08:45Z</time>
      </trkpt>
      <trkpt lat="44.56328" lon="6.19802">
        <ele>894.8</ele>
        <time>2022-09-18T09:08:46Z</time>
      </trkpt>
      <trkpt lat="44.56331" lon="6.19806">
        <ele>894.4</ele>
        <time>2022-09-18T09:08:47Z</time>
      </trkpt>
      <trkpt lat="44.56334" lon="6.19809">
        <ele>894</ele>
        <time>2022-09-18T09:08:48Z</time>
      </trkpt>
      <trkpt lat="44.56337" lon="6.1981">
        <ele>893.8</ele>
        <time>2022-09-18T09:08:49Z</time>
      </trkpt>
      <trkpt lat="44.5634" lon="6.19811">
        <ele>893.2</ele>
        <time>2022-09-18T09:08:50Z</time>
      </trkpt>
      <trkpt lat="44.56343" lon="6.19811">
        <ele>892.8</ele>
        <time>2022-09-18T09:08:51Z</time>
      </trkpt>
      <trkpt lat="44.56346" lon="6.19812">
        <ele>892.6</ele>
        <time>2022-09-18T09:08:52Z</time>
      </trkpt>
      <trkpt lat="44.5635" lon="6.19812">
        <ele>892.6</ele>
        <time>2022-09-18T09:08:53Z</time>
      </trkpt>
      <trkpt lat="44.56353" lon="6.19813">
        <ele>892.4</ele>
        <time>2022-09-18T09:08:54Z</time>
      </trkpt>
      <trkpt lat="44.56356" lon="6.19813">
        <ele>891.8</ele>
        <time>2022-09-18T09:08:55Z</time>
      </trkpt>
      <trkpt lat="44.5636" lon="6.19813">
        <ele>891.4</ele>
        <time>2022-09-18T09:08:56Z</time>
      </trkpt>
      <trkpt lat="44.56363" lon="6.19814">
        <ele>891.2</ele>
        <time>2022-09-18T09:08:57Z</time>
      </trkpt>
      <trkpt lat="44.56367" lon="6.19815">
        <ele>891</ele>
        <time>2022-09-18T09:08:58Z</time>
      </trkpt>
      <trkpt lat="44.56371" lon="6.19815">
        <ele>890.8</ele>
        <time>2022-09-18T09:08:59Z</time>
      </trkpt>
      <trkpt lat="44.56374" lon="6.19816">
        <ele>890.4</ele>
        <time>2022-09-18T09:09:00Z</time>
      </trkpt>
      <trkpt lat="44.56378" lon="6.19817">
        <ele>890.4</ele>
        <time>2022-09-18T09:09:01Z</time>
      </trkpt>
      <trkpt lat="44.56382" lon="6.19818">
        <ele>890.2</ele>
        <time>2022-09-18T09:09:02Z</time>
      </trkpt>
      <trkpt lat="44.56385" lon="6.19819">
        <ele>890.4</ele>
        <time>2022-09-18T09:09:03Z</time>
      </trkpt>
      <trkpt lat="44.56388" lon="6.1982">
        <ele>890.2</ele>
        <time>2022-09-18T09:09:04Z</time>
      </trkpt>
      <trkpt lat="44.5639" lon="6.19821">
        <ele>890.2</ele>
        <time>2022-09-18T09:09:05Z</time>
      </trkpt>
      <trkpt lat="44.56393" lon="6.19823">
        <ele>890</ele>
        <time>2022-09-18T09:09:06Z</time>
      </trkpt>
      <trkpt lat="44.56396" lon="6.19825">
        <ele>890</ele>
        <time>2022-09-18T09:09:07Z</time>
      </trkpt>
      <trkpt lat="44.56406" lon="6.19831">
        <ele>889.8</ele>
        <time>2022-09-18T09:09:10Z</time>
      </trkpt>
      <trkpt lat="44.56418" lon="6.19837">
        <ele>890.2</ele>
        <time>2022-09-18T09:09:13Z</time>
      </trkpt>
      <trkpt lat="44.56423" lon="6.19839">
        <ele>890.2</ele>
        <time>2022-09-18T09:09:14Z</time>
      </trkpt>
      <trkpt lat="44.56427" lon="6.1984">
        <ele>890.4</ele>
        <time>2022-09-18T09:09:15Z</time>
      </trkpt>
      <trkpt lat="44.56432" lon="6.19841">
        <ele>890.4</ele>
        <time>2022-09-18T09:09:16Z</time>
      </trkpt>
      <trkpt lat="44.56436" lon="6.19843">
        <ele>890.6</ele>
        <time>2022-09-18T09:09:17Z</time>
      </trkpt>
      <trkpt lat="44.5644" lon="6.19843">
        <ele>890.6</ele>
        <time>2022-09-18T09:09:18Z</time>
      </trkpt>
      <trkpt lat="44.56444" lon="6.19844">
        <ele>890.8</ele>
        <time>2022-09-18T09:09:19Z</time>
      </trkpt>
      <trkpt lat="44.56448" lon="6.19845">
        <ele>890.8</ele>
        <time>2022-09-18T09:09:20Z</time>
      </trkpt>
      <trkpt lat="44.56452" lon="6.19846">
        <ele>891</ele>
        <time>2022-09-18T09:09:21Z</time>
      </trkpt>
      <trkpt lat="44.56456" lon="6.19847">
        <ele>891.4</ele>
        <time>2022-09-18T09:09:22Z</time>
      </trkpt>
      <trkpt lat="44.56459" lon="6.19847">
        <ele>891.8</ele>
        <time>2022-09-18T09:09:23Z</time>
      </trkpt>
      <trkpt lat="44.56461" lon="6.19847">
        <ele>892</ele>
        <time>2022-09-18T09:09:24Z</time>
      </trkpt>
      <trkpt lat="44.56463" lon="6.19848">
        <ele>892.4</ele>
        <time>2022-09-18T09:09:25Z</time>
      </trkpt>
      <trkpt lat="44.56466" lon="6.19848">
        <ele>893</ele>
        <time>2022-09-18T09:09:27Z</time>
      </trkpt>
      <trkpt lat="44.56468" lon="6.1985">
        <ele>893.4</ele>
        <time>2022-09-18T09:09:29Z</time>
      </trkpt>
      <trkpt lat="44.56469" lon="6.19852">
        <ele>893.6</ele>
        <time>2022-09-18T09:09:30Z</time>
      </trkpt>
      <trkpt lat="44.56471" lon="6.19855">
        <ele>893.6</ele>
        <time>2022-09-18T09:09:31Z</time>
      </trkpt>
      <trkpt lat="44.56472" lon="6.19859">
        <ele>893.8</ele>
        <time>2022-09-18T09:09:32Z</time>
      </trkpt>
      <trkpt lat="44.56472" lon="6.19864">
        <ele>894</ele>
        <time>2022-09-18T09:09:33Z</time>
      </trkpt>
      <trkpt lat="44.56472" lon="6.19869">
        <ele>894.2</ele>
        <time>2022-09-18T09:09:34Z</time>
      </trkpt>
      <trkpt lat="44.56472" lon="6.19874">
        <ele>894.4</ele>
        <time>2022-09-18T09:09:35Z</time>
      </trkpt>
      <trkpt lat="44.56472" lon="6.1988">
        <ele>894.8</ele>
        <time>2022-09-18T09:09:36Z</time>
      </trkpt>
      <trkpt lat="44.56471" lon="6.19885">
        <ele>894.8</ele>
        <time>2022-09-18T09:09:37Z</time>
      </trkpt>
      <trkpt lat="44.56471" lon="6.1989">
        <ele>895</ele>
        <time>2022-09-18T09:09:38Z</time>
      </trkpt>
      <trkpt lat="44.5647" lon="6.19895">
        <ele>895</ele>
        <time>2022-09-18T09:09:39Z</time>
      </trkpt>
      <trkpt lat="44.5647" lon="6.199">
        <ele>895.4</ele>
        <time>2022-09-18T09:09:40Z</time>
      </trkpt>
      <trkpt lat="44.56469" lon="6.19905">
        <ele>895.6</ele>
        <time>2022-09-18T09:09:41Z</time>
      </trkpt>
      <trkpt lat="44.56468" lon="6.1991">
        <ele>895.8</ele>
        <time>2022-09-18T09:09:42Z</time>
      </trkpt>
      <trkpt lat="44.56467" lon="6.19915">
        <ele>895.8</ele>
        <time>2022-09-18T09:09:43Z</time>
      </trkpt>
      <trkpt lat="44.56467" lon="6.1992">
        <ele>896</ele>
        <time>2022-09-18T09:09:44Z</time>
      </trkpt>
      <trkpt lat="44.56466" lon="6.19925">
        <ele>896</ele>
        <time>2022-09-18T09:09:45Z</time>
      </trkpt>
      <trkpt lat="44.56466" lon="6.1993">
        <ele>896.2</ele>
        <time>2022-09-18T09:09:46Z</time>
      </trkpt>
      <trkpt lat="44.56465" lon="6.19936">
        <ele>896</ele>
        <time>2022-09-18T09:09:47Z</time>
      </trkpt>
      <trkpt lat="44.56464" lon="6.1994">
        <ele>896</ele>
        <time>2022-09-18T09:09:48Z</time>
      </trkpt>
      <trkpt lat="44.56464" lon="6.19945">
        <ele>896</ele>
        <time>2022-09-18T09:09:49Z</time>
      </trkpt>
      <trkpt lat="44.56463" lon="6.1995">
        <ele>896</ele>
        <time>2022-09-18T09:09:50Z</time>
      </trkpt>
      <trkpt lat="44.56462" lon="6.19955">
        <ele>896</ele>
        <time>2022-09-18T09:09:51Z</time>
      </trkpt>
      <trkpt lat="44.56461" lon="6.1996">
        <ele>896</ele>
        <time>2022-09-18T09:09:52Z</time>
      </trkpt>
      <trkpt lat="44.5646" lon="6.19965">
        <ele>896</ele>
        <time>2022-09-18T09:09:53Z</time>
      </trkpt>
      <trkpt lat="44.56458" lon="6.1997">
        <ele>896</ele>
        <time>2022-09-18T09:09:54Z</time>
      </trkpt>
      <trkpt lat="44.56456" lon="6.19974">
        <ele>895.8</ele>
        <time>2022-09-18T09:09:55Z</time>
      </trkpt>
      <trkpt lat="44.56454" lon="6.19979">
        <ele>895.8</ele>
        <time>2022-09-18T09:09:56Z</time>
      </trkpt>
      <trkpt lat="44.56451" lon="6.19983">
        <ele>895.8</ele>
        <time>2022-09-18T09:09:57Z</time>
      </trkpt>
      <trkpt lat="44.56449" lon="6.19987">
        <ele>895.6</ele>
        <time>2022-09-18T09:09:58Z</time>
      </trkpt>
      <trkpt lat="44.56447" lon="6.19992">
        <ele>895.4</ele>
        <time>2022-09-18T09:09:59Z</time>
      </trkpt>
      <trkpt lat="44.56446" lon="6.19997">
        <ele>895.4</ele>
        <time>2022-09-18T09:10:00Z</time>
      </trkpt>
      <trkpt lat="44.56446" lon="6.20001">
        <ele>895.2</ele>
        <time>2022-09-18T09:10:01Z</time>
      </trkpt>
      <trkpt lat="44.56446" lon="6.20006">
        <ele>895.2</ele>
        <time>2022-09-18T09:10:02Z</time>
      </trkpt>
      <trkpt lat="44.56448" lon="6.20011">
        <ele>895</ele>
        <time>2022-09-18T09:10:03Z</time>
      </trkpt>
      <trkpt lat="44.5645" lon="6.20014">
        <ele>895</ele>
        <time>2022-09-18T09:10:04Z</time>
      </trkpt>
      <trkpt lat="44.56453" lon="6.20017">
        <ele>895</ele>
        <time>2022-09-18T09:10:05Z</time>
      </trkpt>
      <trkpt lat="44.56456" lon="6.20018">
        <ele>894.8</ele>
        <time>2022-09-18T09:10:06Z</time>
      </trkpt>
      <trkpt lat="44.56459" lon="6.20019">
        <ele>894.6</ele>
        <time>2022-09-18T09:10:07Z</time>
      </trkpt>
      <trkpt lat="44.56463" lon="6.20019">
        <ele>894.6</ele>
        <time>2022-09-18T09:10:08Z</time>
      </trkpt>
      <trkpt lat="44.56466" lon="6.20018">
        <ele>894.6</ele>
        <time>2022-09-18T09:10:09Z</time>
      </trkpt>
      <trkpt lat="44.5647" lon="6.20018">
        <ele>894.4</ele>
        <time>2022-09-18T09:10:10Z</time>
      </trkpt>
      <trkpt lat="44.56475" lon="6.20018">
        <ele>894.4</ele>
        <time>2022-09-18T09:10:11Z</time>
      </trkpt>
      <trkpt lat="44.56479" lon="6.2002">
        <ele>894</ele>
        <time>2022-09-18T09:10:12Z</time>
      </trkpt>
      <trkpt lat="44.56484" lon="6.20024">
        <ele>893.8</ele>
        <time>2022-09-18T09:10:13Z</time>
      </trkpt>
      <trkpt lat="44.56487" lon="6.20028">
        <ele>893.4</ele>
        <time>2022-09-18T09:10:14Z</time>
      </trkpt>
      <trkpt lat="44.56491" lon="6.20033">
        <ele>893</ele>
        <time>2022-09-18T09:10:15Z</time>
      </trkpt>
      <trkpt lat="44.56493" lon="6.20039">
        <ele>892.6</ele>
        <time>2022-09-18T09:10:16Z</time>
      </trkpt>
      <trkpt lat="44.56496" lon="6.20046">
        <ele>892.2</ele>
        <time>2022-09-18T09:10:17Z</time>
      </trkpt>
      <trkpt lat="44.56498" lon="6.20053">
        <ele>892.2</ele>
        <time>2022-09-18T09:10:18Z</time>
      </trkpt>
      <trkpt lat="44.565" lon="6.20059">
        <ele>892</ele>
        <time>2022-09-18T09:10:19Z</time>
      </trkpt>
      <trkpt lat="44.56503" lon="6.20066">
        <ele>891.8</ele>
        <time>2022-09-18T09:10:20Z</time>
      </trkpt>
      <trkpt lat="44.56505" lon="6.20072">
        <ele>891.6</ele>
        <time>2022-09-18T09:10:21Z</time>
      </trkpt>
      <trkpt lat="44.56507" lon="6.20077">
        <ele>891.6</ele>
        <time>2022-09-18T09:10:22Z</time>
      </trkpt>
      <trkpt lat="44.56509" lon="6.20083">
        <ele>891.4</ele>
        <time>2022-09-18T09:10:23Z</time>
      </trkpt>
      <trkpt lat="44.56512" lon="6.20089">
        <ele>891.2</ele>
        <time>2022-09-18T09:10:24Z</time>
      </trkpt>
      <trkpt lat="44.56514" lon="6.20095">
        <ele>891.4</ele>
        <time>2022-09-18T09:10:25Z</time>
      </trkpt>
      <trkpt lat="44.56516" lon="6.20101">
        <ele>891.2</ele>
        <time>2022-09-18T09:10:26Z</time>
      </trkpt>
      <trkpt lat="44.56519" lon="6.20107">
        <ele>891.2</ele>
        <time>2022-09-18T09:10:27Z</time>
      </trkpt>
      <trkpt lat="44.56521" lon="6.20112">
        <ele>891.4</ele>
        <time>2022-09-18T09:10:28Z</time>
      </trkpt>
      <trkpt lat="44.56523" lon="6.20118">
        <ele>891.2</ele>
        <time>2022-09-18T09:10:29Z</time>
      </trkpt>
      <trkpt lat="44.56525" lon="6.20123">
        <ele>891.2</ele>
        <time>2022-09-18T09:10:30Z</time>
      </trkpt>
      <trkpt lat="44.56528" lon="6.20129">
        <ele>891.2</ele>
        <time>2022-09-18T09:10:31Z</time>
      </trkpt>
      <trkpt lat="44.5653" lon="6.20135">
        <ele>891.2</ele>
        <time>2022-09-18T09:10:32Z</time>
      </trkpt>
      <trkpt lat="44.56532" lon="6.20141">
        <ele>891.2</ele>
        <time>2022-09-18T09:10:33Z</time>
      </trkpt>
      <trkpt lat="44.56534" lon="6.20147">
        <ele>891.2</ele>
        <time>2022-09-18T09:10:34Z</time>
      </trkpt>
      <trkpt lat="44.56536" lon="6.20152">
        <ele>891.6</ele>
        <time>2022-09-18T09:10:35Z</time>
      </trkpt>
      <trkpt lat="44.56538" lon="6.20157">
        <ele>891.6</ele>
        <time>2022-09-18T09:10:36Z</time>
      </trkpt>
      <trkpt lat="44.5654" lon="6.20163">
        <ele>891.6</ele>
        <time>2022-09-18T09:10:37Z</time>
      </trkpt>
      <trkpt lat="44.56543" lon="6.20168">
        <ele>891.6</ele>
        <time>2022-09-18T09:10:38Z</time>
      </trkpt>
      <trkpt lat="44.56545" lon="6.20174">
        <ele>891.4</ele>
        <time>2022-09-18T09:10:39Z</time>
      </trkpt>
      <trkpt lat="44.56548" lon="6.20181">
        <ele>891.2</ele>
        <time>2022-09-18T09:10:40Z</time>
      </trkpt>
      <trkpt lat="44.56551" lon="6.20187">
        <ele>891.4</ele>
        <time>2022-09-18T09:10:41Z</time>
      </trkpt>
      <trkpt lat="44.56553" lon="6.20192">
        <ele>891</ele>
        <time>2022-09-18T09:10:42Z</time>
      </trkpt>
      <trkpt lat="44.56556" lon="6.20197">
        <ele>891</ele>
        <time>2022-09-18T09:10:43Z</time>
      </trkpt>
      <trkpt lat="44.56558" lon="6.20202">
        <ele>891.2</ele>
        <time>2022-09-18T09:10:44Z</time>
      </trkpt>
      <trkpt lat="44.56561" lon="6.20207">
        <ele>891.2</ele>
        <time>2022-09-18T09:10:45Z</time>
      </trkpt>
      <trkpt lat="44.56564" lon="6.20211">
        <ele>891.4</ele>
        <time>2022-09-18T09:10:46Z</time>
      </trkpt>
      <trkpt lat="44.56566" lon="6.20216">
        <ele>891.4</ele>
        <time>2022-09-18T09:10:47Z</time>
      </trkpt>
      <trkpt lat="44.56569" lon="6.2022">
        <ele>891.4</ele>
        <time>2022-09-18T09:10:48Z</time>
      </trkpt>
      <trkpt lat="44.56571" lon="6.20224">
        <ele>891.2</ele>
        <time>2022-09-18T09:10:49Z</time>
      </trkpt>
      <trkpt lat="44.56573" lon="6.20228">
        <ele>891.6</ele>
        <time>2022-09-18T09:10:50Z</time>
      </trkpt>
      <trkpt lat="44.56576" lon="6.20232">
        <ele>891.6</ele>
        <time>2022-09-18T09:10:51Z</time>
      </trkpt>
      <trkpt lat="44.56578" lon="6.20236">
        <ele>891.6</ele>
        <time>2022-09-18T09:10:52Z</time>
      </trkpt>
      <trkpt lat="44.56581" lon="6.20241">
        <ele>891.6</ele>
        <time>2022-09-18T09:10:53Z</time>
      </trkpt>
      <trkpt lat="44.56584" lon="6.20246">
        <ele>891.4</ele>
        <time>2022-09-18T09:10:54Z</time>
      </trkpt>
      <trkpt lat="44.56586" lon="6.2025">
        <ele>891.4</ele>
        <time>2022-09-18T09:10:55Z</time>
      </trkpt>
      <trkpt lat="44.56589" lon="6.20255">
        <ele>891.4</ele>
        <time>2022-09-18T09:10:56Z</time>
      </trkpt>
      <trkpt lat="44.56592" lon="6.2026">
        <ele>891.2</ele>
        <time>2022-09-18T09:10:57Z</time>
      </trkpt>
      <trkpt lat="44.56595" lon="6.20264">
        <ele>891.2</ele>
        <time>2022-09-18T09:10:58Z</time>
      </trkpt>
      <trkpt lat="44.56597" lon="6.20269">
        <ele>891.2</ele>
        <time>2022-09-18T09:10:59Z</time>
      </trkpt>
      <trkpt lat="44.566" lon="6.20274">
        <ele>891.2</ele>
        <time>2022-09-18T09:11:00Z</time>
      </trkpt>
      <trkpt lat="44.56603" lon="6.20278">
        <ele>891.4</ele>
        <time>2022-09-18T09:11:01Z</time>
      </trkpt>
      <trkpt lat="44.56605" lon="6.20282">
        <ele>891.4</ele>
        <time>2022-09-18T09:11:02Z</time>
      </trkpt>
      <trkpt lat="44.56607" lon="6.20287">
        <ele>891.4</ele>
        <time>2022-09-18T09:11:03Z</time>
      </trkpt>
      <trkpt lat="44.5661" lon="6.20291">
        <ele>891.6</ele>
        <time>2022-09-18T09:11:04Z</time>
      </trkpt>
      <trkpt lat="44.56612" lon="6.20295">
        <ele>892</ele>
        <time>2022-09-18T09:11:05Z</time>
      </trkpt>
      <trkpt lat="44.56614" lon="6.203">
        <ele>892</ele>
        <time>2022-09-18T09:11:06Z</time>
      </trkpt>
      <trkpt lat="44.56616" lon="6.20305">
        <ele>892.2</ele>
        <time>2022-09-18T09:11:07Z</time>
      </trkpt>
      <trkpt lat="44.56618" lon="6.20309">
        <ele>892.4</ele>
        <time>2022-09-18T09:11:08Z</time>
      </trkpt>
      <trkpt lat="44.56621" lon="6.20314">
        <ele>892.8</ele>
        <time>2022-09-18T09:11:09Z</time>
      </trkpt>
      <trkpt lat="44.56623" lon="6.20319">
        <ele>893</ele>
        <time>2022-09-18T09:11:10Z</time>
      </trkpt>
      <trkpt lat="44.56625" lon="6.20324">
        <ele>893.2</ele>
        <time>2022-09-18T09:11:11Z</time>
      </trkpt>
      <trkpt lat="44.56628" lon="6.20328">
        <ele>893.4</ele>
        <time>2022-09-18T09:11:12Z</time>
      </trkpt>
      <trkpt lat="44.5663" lon="6.20333">
        <ele>893.8</ele>
        <time>2022-09-18T09:11:13Z</time>
      </trkpt>
      <trkpt lat="44.56632" lon="6.20338">
        <ele>893.8</ele>
        <time>2022-09-18T09:11:14Z</time>
      </trkpt>
      <trkpt lat="44.56635" lon="6.20342">
        <ele>894</ele>
        <time>2022-09-18T09:11:15Z</time>
      </trkpt>
      <trkpt lat="44.56637" lon="6.20347">
        <ele>894.4</ele>
        <time>2022-09-18T09:11:16Z</time>
      </trkpt>
      <trkpt lat="44.56639" lon="6.20351">
        <ele>894.2</ele>
        <time>2022-09-18T09:11:17Z</time>
      </trkpt>
      <trkpt lat="44.56642" lon="6.20356">
        <ele>894.6</ele>
        <time>2022-09-18T09:11:18Z</time>
      </trkpt>
      <trkpt lat="44.56644" lon="6.20361">
        <ele>895</ele>
        <time>2022-09-18T09:11:19Z</time>
      </trkpt>
      <trkpt lat="44.56646" lon="6.20366">
        <ele>895.4</ele>
        <time>2022-09-18T09:11:20Z</time>
      </trkpt>
      <trkpt lat="44.56648" lon="6.20371">
        <ele>895.6</ele>
        <time>2022-09-18T09:11:21Z</time>
      </trkpt>
      <trkpt lat="44.56651" lon="6.20375">
        <ele>896</ele>
        <time>2022-09-18T09:11:22Z</time>
      </trkpt>
      <trkpt lat="44.56653" lon="6.2038">
        <ele>896</ele>
        <time>2022-09-18T09:11:23Z</time>
      </trkpt>
      <trkpt lat="44.56655" lon="6.20384">
        <ele>896.2</ele>
        <time>2022-09-18T09:11:24Z</time>
      </trkpt>
      <trkpt lat="44.56657" lon="6.20389">
        <ele>896.4</ele>
        <time>2022-09-18T09:11:25Z</time>
      </trkpt>
      <trkpt lat="44.5666" lon="6.20394">
        <ele>896.6</ele>
        <time>2022-09-18T09:11:26Z</time>
      </trkpt>
      <trkpt lat="44.56662" lon="6.20398">
        <ele>897</ele>
        <time>2022-09-18T09:11:27Z</time>
      </trkpt>
      <trkpt lat="44.56664" lon="6.20403">
        <ele>897</ele>
        <time>2022-09-18T09:11:28Z</time>
      </trkpt>
      <trkpt lat="44.56666" lon="6.20407">
        <ele>897.2</ele>
        <time>2022-09-18T09:11:29Z</time>
      </trkpt>
      <trkpt lat="44.56668" lon="6.20412">
        <ele>897.4</ele>
        <time>2022-09-18T09:11:30Z</time>
      </trkpt>
      <trkpt lat="44.56669" lon="6.20417">
        <ele>897.4</ele>
        <time>2022-09-18T09:11:31Z</time>
      </trkpt>
      <trkpt lat="44.56671" lon="6.20421">
        <ele>897.4</ele>
        <time>2022-09-18T09:11:32Z</time>
      </trkpt>
      <trkpt lat="44.56673" lon="6.20426">
        <ele>897.8</ele>
        <time>2022-09-18T09:11:33Z</time>
      </trkpt>
      <trkpt lat="44.56675" lon="6.2043">
        <ele>897.8</ele>
        <time>2022-09-18T09:11:34Z</time>
      </trkpt>
      <trkpt lat="44.56677" lon="6.20435">
        <ele>897.6</ele>
        <time>2022-09-18T09:11:35Z</time>
      </trkpt>
      <trkpt lat="44.56678" lon="6.2044">
        <ele>897.8</ele>
        <time>2022-09-18T09:11:36Z</time>
      </trkpt>
      <trkpt lat="44.5668" lon="6.20444">
        <ele>897.8</ele>
        <time>2022-09-18T09:11:37Z</time>
      </trkpt>
      <trkpt lat="44.56682" lon="6.20449">
        <ele>897.8</ele>
        <time>2022-09-18T09:11:38Z</time>
      </trkpt>
      <trkpt lat="44.56683" lon="6.20454">
        <ele>897.6</ele>
        <time>2022-09-18T09:11:39Z</time>
      </trkpt>
      <trkpt lat="44.56685" lon="6.20458">
        <ele>897.4</ele>
        <time>2022-09-18T09:11:40Z</time>
      </trkpt>
      <trkpt lat="44.56686" lon="6.20463">
        <ele>897.4</ele>
        <time>2022-09-18T09:11:41Z</time>
      </trkpt>
      <trkpt lat="44.56688" lon="6.20468">
        <ele>897.4</ele>
        <time>2022-09-18T09:11:42Z</time>
      </trkpt>
      <trkpt lat="44.56689" lon="6.20473">
        <ele>897.2</ele>
        <time>2022-09-18T09:11:43Z</time>
      </trkpt>
      <trkpt lat="44.56691" lon="6.20478">
        <ele>897</ele>
        <time>2022-09-18T09:11:44Z</time>
      </trkpt>
      <trkpt lat="44.56692" lon="6.20483">
        <ele>896.8</ele>
        <time>2022-09-18T09:11:45Z</time>
      </trkpt>
      <trkpt lat="44.56694" lon="6.20488">
        <ele>896.6</ele>
        <time>2022-09-18T09:11:46Z</time>
      </trkpt>
      <trkpt lat="44.56695" lon="6.20493">
        <ele>896.6</ele>
        <time>2022-09-18T09:11:47Z</time>
      </trkpt>
      <trkpt lat="44.56697" lon="6.20498">
        <ele>896.4</ele>
        <time>2022-09-18T09:11:48Z</time>
      </trkpt>
      <trkpt lat="44.56698" lon="6.20504">
        <ele>896.2</ele>
        <time>2022-09-18T09:11:49Z</time>
      </trkpt>
      <trkpt lat="44.56699" lon="6.20509">
        <ele>896</ele>
        <time>2022-09-18T09:11:50Z</time>
      </trkpt>
      <trkpt lat="44.56701" lon="6.20514">
        <ele>895.8</ele>
        <time>2022-09-18T09:11:51Z</time>
      </trkpt>
      <trkpt lat="44.56702" lon="6.2052">
        <ele>895.6</ele>
        <time>2022-09-18T09:11:52Z</time>
      </trkpt>
      <trkpt lat="44.56703" lon="6.20526">
        <ele>895.4</ele>
        <time>2022-09-18T09:11:53Z</time>
      </trkpt>
      <trkpt lat="44.56705" lon="6.20532">
        <ele>895.2</ele>
        <time>2022-09-18T09:11:54Z</time>
      </trkpt>
      <trkpt lat="44.56706" lon="6.20538">
        <ele>895.2</ele>
        <time>2022-09-18T09:11:55Z</time>
      </trkpt>
      <trkpt lat="44.56708" lon="6.20544">
        <ele>895</ele>
        <time>2022-09-18T09:11:56Z</time>
      </trkpt>
      <trkpt lat="44.56709" lon="6.2055">
        <ele>895</ele>
        <time>2022-09-18T09:11:57Z</time>
      </trkpt>
      <trkpt lat="44.56711" lon="6.20557">
        <ele>894.8</ele>
        <time>2022-09-18T09:11:58Z</time>
      </trkpt>
      <trkpt lat="44.56712" lon="6.20563">
        <ele>894.6</ele>
        <time>2022-09-18T09:11:59Z</time>
      </trkpt>
      <trkpt lat="44.56714" lon="6.2057">
        <ele>894.6</ele>
        <time>2022-09-18T09:12:00Z</time>
      </trkpt>
      <trkpt lat="44.56716" lon="6.20576">
        <ele>894.4</ele>
        <time>2022-09-18T09:12:01Z</time>
      </trkpt>
      <trkpt lat="44.56718" lon="6.20583">
        <ele>894.2</ele>
        <time>2022-09-18T09:12:02Z</time>
      </trkpt>
      <trkpt lat="44.56719" lon="6.2059">
        <ele>893.8</ele>
        <time>2022-09-18T09:12:03Z</time>
      </trkpt>
      <trkpt lat="44.56721" lon="6.20597">
        <ele>893.6</ele>
        <time>2022-09-18T09:12:04Z</time>
      </trkpt>
      <trkpt lat="44.56722" lon="6.20604">
        <ele>893.6</ele>
        <time>2022-09-18T09:12:05Z</time>
      </trkpt>
      <trkpt lat="44.56724" lon="6.20611">
        <ele>893.6</ele>
        <time>2022-09-18T09:12:06Z</time>
      </trkpt>
      <trkpt lat="44.56725" lon="6.20618">
        <ele>893.6</ele>
        <time>2022-09-18T09:12:07Z</time>
      </trkpt>
      <trkpt lat="44.56727" lon="6.20625">
        <ele>893.6</ele>
        <time>2022-09-18T09:12:08Z</time>
      </trkpt>
      <trkpt lat="44.56728" lon="6.20631">
        <ele>893.4</ele>
        <time>2022-09-18T09:12:09Z</time>
      </trkpt>
      <trkpt lat="44.5673" lon="6.20638">
        <ele>893.4</ele>
        <time>2022-09-18T09:12:10Z</time>
      </trkpt>
      <trkpt lat="44.56732" lon="6.20645">
        <ele>893</ele>
        <time>2022-09-18T09:12:11Z</time>
      </trkpt>
      <trkpt lat="44.56733" lon="6.20652">
        <ele>892.8</ele>
        <time>2022-09-18T09:12:12Z</time>
      </trkpt>
      <trkpt lat="44.56735" lon="6.20659">
        <ele>892.6</ele>
        <time>2022-09-18T09:12:13Z</time>
      </trkpt>
      <trkpt lat="44.56737" lon="6.20666">
        <ele>892.6</ele>
        <time>2022-09-18T09:12:14Z</time>
      </trkpt>
      <trkpt lat="44.56738" lon="6.20673">
        <ele>892.6</ele>
        <time>2022-09-18T09:12:15Z</time>
      </trkpt>
      <trkpt lat="44.5674" lon="6.2068">
        <ele>892.6</ele>
        <time>2022-09-18T09:12:16Z</time>
      </trkpt>
      <trkpt lat="44.56742" lon="6.20686">
        <ele>892.4</ele>
        <time>2022-09-18T09:12:17Z</time>
      </trkpt>
      <trkpt lat="44.56743" lon="6.20693">
        <ele>892.4</ele>
        <time>2022-09-18T09:12:18Z</time>
      </trkpt>
      <trkpt lat="44.56745" lon="6.207">
        <ele>892.4</ele>
        <time>2022-09-18T09:12:19Z</time>
      </trkpt>
      <trkpt lat="44.56746" lon="6.20706">
        <ele>892.6</ele>
        <time>2022-09-18T09:12:20Z</time>
      </trkpt>
      <trkpt lat="44.56748" lon="6.20713">
        <ele>892.6</ele>
        <time>2022-09-18T09:12:21Z</time>
      </trkpt>
      <trkpt lat="44.56749" lon="6.20719">
        <ele>892.2</ele>
        <time>2022-09-18T09:12:22Z</time>
      </trkpt>
      <trkpt lat="44.56751" lon="6.20726">
        <ele>892</ele>
        <time>2022-09-18T09:12:23Z</time>
      </trkpt>
      <trkpt lat="44.56752" lon="6.20732">
        <ele>892</ele>
        <time>2022-09-18T09:12:24Z</time>
      </trkpt>
      <trkpt lat="44.56754" lon="6.20738">
        <ele>892</ele>
        <time>2022-09-18T09:12:25Z</time>
      </trkpt>
      <trkpt lat="44.56756" lon="6.20744">
        <ele>892</ele>
        <time>2022-09-18T09:12:26Z</time>
      </trkpt>
      <trkpt lat="44.56757" lon="6.2075">
        <ele>892</ele>
        <time>2022-09-18T09:12:27Z</time>
      </trkpt>
      <trkpt lat="44.56759" lon="6.20756">
        <ele>892</ele>
        <time>2022-09-18T09:12:28Z</time>
      </trkpt>
      <trkpt lat="44.5676" lon="6.20762">
        <ele>892.2</ele>
        <time>2022-09-18T09:12:29Z</time>
      </trkpt>
      <trkpt lat="44.56761" lon="6.20768">
        <ele>892.2</ele>
        <time>2022-09-18T09:12:30Z</time>
      </trkpt>
      <trkpt lat="44.56763" lon="6.20774">
        <ele>892.4</ele>
        <time>2022-09-18T09:12:31Z</time>
      </trkpt>
      <trkpt lat="44.56764" lon="6.2078">
        <ele>892.4</ele>
        <time>2022-09-18T09:12:32Z</time>
      </trkpt>
      <trkpt lat="44.56765" lon="6.20786">
        <ele>892.2</ele>
        <time>2022-09-18T09:12:33Z</time>
      </trkpt>
      <trkpt lat="44.56766" lon="6.20791">
        <ele>892.6</ele>
        <time>2022-09-18T09:12:34Z</time>
      </trkpt>
      <trkpt lat="44.56768" lon="6.20797">
        <ele>892.6</ele>
        <time>2022-09-18T09:12:35Z</time>
      </trkpt>
      <trkpt lat="44.56769" lon="6.20803">
        <ele>892.4</ele>
        <time>2022-09-18T09:12:36Z</time>
      </trkpt>
      <trkpt lat="44.5677" lon="6.20809">
        <ele>892.6</ele>
        <time>2022-09-18T09:12:37Z</time>
      </trkpt>
      <trkpt lat="44.56772" lon="6.20815">
        <ele>892.8</ele>
        <time>2022-09-18T09:12:38Z</time>
      </trkpt>
      <trkpt lat="44.56774" lon="6.2082">
        <ele>893</ele>
        <time>2022-09-18T09:12:39Z</time>
      </trkpt>
      <trkpt lat="44.56775" lon="6.20826">
        <ele>892.8</ele>
        <time>2022-09-18T09:12:40Z</time>
      </trkpt>
      <trkpt lat="44.56777" lon="6.20832">
        <ele>892.8</ele>
        <time>2022-09-18T09:12:41Z</time>
      </trkpt>
      <trkpt lat="44.56778" lon="6.20837">
        <ele>893</ele>
        <time>2022-09-18T09:12:42Z</time>
      </trkpt>
      <trkpt lat="44.56779" lon="6.20843">
        <ele>893</ele>
        <time>2022-09-18T09:12:43Z</time>
      </trkpt>
      <trkpt lat="44.56781" lon="6.20849">
        <ele>893.2</ele>
        <time>2022-09-18T09:12:44Z</time>
      </trkpt>
      <trkpt lat="44.56783" lon="6.20855">
        <ele>893.4</ele>
        <time>2022-09-18T09:12:45Z</time>
      </trkpt>
      <trkpt lat="44.56785" lon="6.2086">
        <ele>893.4</ele>
        <time>2022-09-18T09:12:46Z</time>
      </trkpt>
      <trkpt lat="44.56787" lon="6.20866">
        <ele>893.2</ele>
        <time>2022-09-18T09:12:47Z</time>
      </trkpt>
      <trkpt lat="44.56789" lon="6.20871">
        <ele>893</ele>
        <time>2022-09-18T09:12:48Z</time>
      </trkpt>
      <trkpt lat="44.56791" lon="6.20877">
        <ele>893</ele>
        <time>2022-09-18T09:12:49Z</time>
      </trkpt>
      <trkpt lat="44.56793" lon="6.20883">
        <ele>893</ele>
        <time>2022-09-18T09:12:50Z</time>
      </trkpt>
      <trkpt lat="44.56795" lon="6.20888">
        <ele>893</ele>
        <time>2022-09-18T09:12:51Z</time>
      </trkpt>
      <trkpt lat="44.56797" lon="6.20894">
        <ele>893</ele>
        <time>2022-09-18T09:12:52Z</time>
      </trkpt>
      <trkpt lat="44.56799" lon="6.20899">
        <ele>893</ele>
        <time>2022-09-18T09:12:53Z</time>
      </trkpt>
      <trkpt lat="44.56801" lon="6.20905">
        <ele>893.2</ele>
        <time>2022-09-18T09:12:54Z</time>
      </trkpt>
      <trkpt lat="44.56804" lon="6.2091">
        <ele>893.2</ele>
        <time>2022-09-18T09:12:55Z</time>
      </trkpt>
      <trkpt lat="44.56806" lon="6.20915">
        <ele>893.2</ele>
        <time>2022-09-18T09:12:56Z</time>
      </trkpt>
      <trkpt lat="44.56808" lon="6.2092">
        <ele>893.4</ele>
        <time>2022-09-18T09:12:57Z</time>
      </trkpt>
      <trkpt lat="44.5681" lon="6.20926">
        <ele>893.4</ele>
        <time>2022-09-18T09:12:58Z</time>
      </trkpt>
      <trkpt lat="44.56813" lon="6.20931">
        <ele>893.6</ele>
        <time>2022-09-18T09:12:59Z</time>
      </trkpt>
      <trkpt lat="44.56815" lon="6.20936">
        <ele>893.8</ele>
        <time>2022-09-18T09:13:00Z</time>
      </trkpt>
      <trkpt lat="44.56817" lon="6.20942">
        <ele>894</ele>
        <time>2022-09-18T09:13:01Z</time>
      </trkpt>
      <trkpt lat="44.56819" lon="6.20947">
        <ele>893.8</ele>
        <time>2022-09-18T09:13:02Z</time>
      </trkpt>
      <trkpt lat="44.56821" lon="6.20952">
        <ele>894</ele>
        <time>2022-09-18T09:13:03Z</time>
      </trkpt>
      <trkpt lat="44.56824" lon="6.20957">
        <ele>894</ele>
        <time>2022-09-18T09:13:04Z</time>
      </trkpt>
      <trkpt lat="44.56826" lon="6.20962">
        <ele>894</ele>
        <time>2022-09-18T09:13:05Z</time>
      </trkpt>
      <trkpt lat="44.56828" lon="6.20968">
        <ele>894.2</ele>
        <time>2022-09-18T09:13:06Z</time>
      </trkpt>
      <trkpt lat="44.5683" lon="6.20973">
        <ele>893.8</ele>
        <time>2022-09-18T09:13:07Z</time>
      </trkpt>
      <trkpt lat="44.56832" lon="6.20978">
        <ele>894</ele>
        <time>2022-09-18T09:13:08Z</time>
      </trkpt>
      <trkpt lat="44.56834" lon="6.20983">
        <ele>894.4</ele>
        <time>2022-09-18T09:13:09Z</time>
      </trkpt>
      <trkpt lat="44.56837" lon="6.20988">
        <ele>894.6</ele>
        <time>2022-09-18T09:13:10Z</time>
      </trkpt>
      <trkpt lat="44.56839" lon="6.20994">
        <ele>894.8</ele>
        <time>2022-09-18T09:13:11Z</time>
      </trkpt>
      <trkpt lat="44.56841" lon="6.20999">
        <ele>894.8</ele>
        <time>2022-09-18T09:13:12Z</time>
      </trkpt>
      <trkpt lat="44.56843" lon="6.21004">
        <ele>894.8</ele>
        <time>2022-09-18T09:13:13Z</time>
      </trkpt>
      <trkpt lat="44.56845" lon="6.21009">
        <ele>894.8</ele>
        <time>2022-09-18T09:13:14Z</time>
      </trkpt>
      <trkpt lat="44.56847" lon="6.21014">
        <ele>894.8</ele>
        <time>2022-09-18T09:13:15Z</time>
      </trkpt>
      <trkpt lat="44.5685" lon="6.21019">
        <ele>894.6</ele>
        <time>2022-09-18T09:13:16Z</time>
      </trkpt>
      <trkpt lat="44.56852" lon="6.21024">
        <ele>894.6</ele>
        <time>2022-09-18T09:13:17Z</time>
      </trkpt>
      <trkpt lat="44.56854" lon="6.21029">
        <ele>894.8</ele>
        <time>2022-09-18T09:13:18Z</time>
      </trkpt>
      <trkpt lat="44.56857" lon="6.21034">
        <ele>895</ele>
        <time>2022-09-18T09:13:19Z</time>
      </trkpt>
      <trkpt lat="44.56859" lon="6.21039">
        <ele>895.2</ele>
        <time>2022-09-18T09:13:20Z</time>
      </trkpt>
      <trkpt lat="44.56861" lon="6.21044">
        <ele>895.2</ele>
        <time>2022-09-18T09:13:21Z</time>
      </trkpt>
      <trkpt lat="44.56864" lon="6.21049">
        <ele>895.4</ele>
        <time>2022-09-18T09:13:22Z</time>
      </trkpt>
      <trkpt lat="44.56866" lon="6.21054">
        <ele>895.6</ele>
        <time>2022-09-18T09:13:23Z</time>
      </trkpt>
      <trkpt lat="44.56868" lon="6.21059">
        <ele>895.6</ele>
        <time>2022-09-18T09:13:24Z</time>
      </trkpt>
      <trkpt lat="44.56871" lon="6.21064">
        <ele>895.8</ele>
        <time>2022-09-18T09:13:25Z</time>
      </trkpt>
      <trkpt lat="44.56873" lon="6.21069">
        <ele>895.8</ele>
        <time>2022-09-18T09:13:26Z</time>
      </trkpt>
      <trkpt lat="44.56876" lon="6.21074">
        <ele>895.8</ele>
        <time>2022-09-18T09:13:27Z</time>
      </trkpt>
      <trkpt lat="44.56878" lon="6.21079">
        <ele>896</ele>
        <time>2022-09-18T09:13:28Z</time>
      </trkpt>
      <trkpt lat="44.5688" lon="6.21084">
        <ele>895.8</ele>
        <time>2022-09-18T09:13:29Z</time>
      </trkpt>
      <trkpt lat="44.56882" lon="6.21089">
        <ele>895.8</ele>
        <time>2022-09-18T09:13:30Z</time>
      </trkpt>
      <trkpt lat="44.56885" lon="6.21094">
        <ele>896</ele>
        <time>2022-09-18T09:13:31Z</time>
      </trkpt>
      <trkpt lat="44.56887" lon="6.211">
        <ele>896</ele>
        <time>2022-09-18T09:13:32Z</time>
      </trkpt>
      <trkpt lat="44.56889" lon="6.21105">
        <ele>896.2</ele>
        <time>2022-09-18T09:13:33Z</time>
      </trkpt>
      <trkpt lat="44.56891" lon="6.2111">
        <ele>896.4</ele>
        <time>2022-09-18T09:13:34Z</time>
      </trkpt>
      <trkpt lat="44.56893" lon="6.21116">
        <ele>896.4</ele>
        <time>2022-09-18T09:13:35Z</time>
      </trkpt>
      <trkpt lat="44.56896" lon="6.21121">
        <ele>896.6</ele>
        <time>2022-09-18T09:13:36Z</time>
      </trkpt>
      <trkpt lat="44.56898" lon="6.21126">
        <ele>896.6</ele>
        <time>2022-09-18T09:13:37Z</time>
      </trkpt>
      <trkpt lat="44.569" lon="6.21131">
        <ele>896.8</ele>
        <time>2022-09-18T09:13:38Z</time>
      </trkpt>
      <trkpt lat="44.56902" lon="6.21136">
        <ele>897</ele>
        <time>2022-09-18T09:13:39Z</time>
      </trkpt>
      <trkpt lat="44.56904" lon="6.21141">
        <ele>897.2</ele>
        <time>2022-09-18T09:13:40Z</time>
      </trkpt>
      <trkpt lat="44.56906" lon="6.21146">
        <ele>897</ele>
        <time>2022-09-18T09:13:41Z</time>
      </trkpt>
      <trkpt lat="44.56908" lon="6.21151">
        <ele>897.2</ele>
        <time>2022-09-18T09:13:42Z</time>
      </trkpt>
      <trkpt lat="44.5691" lon="6.21156">
        <ele>897.2</ele>
        <time>2022-09-18T09:13:43Z</time>
      </trkpt>
      <trkpt lat="44.56912" lon="6.21161">
        <ele>897.4</ele>
        <time>2022-09-18T09:13:44Z</time>
      </trkpt>
      <trkpt lat="44.56914" lon="6.21166">
        <ele>897.8</ele>
        <time>2022-09-18T09:13:45Z</time>
      </trkpt>
      <trkpt lat="44.56915" lon="6.21171">
        <ele>897.6</ele>
        <time>2022-09-18T09:13:46Z</time>
      </trkpt>
      <trkpt lat="44.56917" lon="6.21176">
        <ele>897.8</ele>
        <time>2022-09-18T09:13:47Z</time>
      </trkpt>
      <trkpt lat="44.56919" lon="6.2118">
        <ele>897.8</ele>
        <time>2022-09-18T09:13:48Z</time>
      </trkpt>
      <trkpt lat="44.5692" lon="6.21185">
        <ele>897.8</ele>
        <time>2022-09-18T09:13:49Z</time>
      </trkpt>
      <trkpt lat="44.56922" lon="6.21189">
        <ele>898</ele>
        <time>2022-09-18T09:13:50Z</time>
      </trkpt>
      <trkpt lat="44.56924" lon="6.21194">
        <ele>898.2</ele>
        <time>2022-09-18T09:13:51Z</time>
      </trkpt>
      <trkpt lat="44.56925" lon="6.21199">
        <ele>898.2</ele>
        <time>2022-09-18T09:13:52Z</time>
      </trkpt>
      <trkpt lat="44.56927" lon="6.21203">
        <ele>898.4</ele>
        <time>2022-09-18T09:13:53Z</time>
      </trkpt>
      <trkpt lat="44.56929" lon="6.21208">
        <ele>898.4</ele>
        <time>2022-09-18T09:13:54Z</time>
      </trkpt>
      <trkpt lat="44.56931" lon="6.21212">
        <ele>898.4</ele>
        <time>2022-09-18T09:13:55Z</time>
      </trkpt>
      <trkpt lat="44.56933" lon="6.21217">
        <ele>898.8</ele>
        <time>2022-09-18T09:13:56Z</time>
      </trkpt>
      <trkpt lat="44.56934" lon="6.21222">
        <ele>898.8</ele>
        <time>2022-09-18T09:13:57Z</time>
      </trkpt>
      <trkpt lat="44.56936" lon="6.21226">
        <ele>899</ele>
        <time>2022-09-18T09:13:58Z</time>
      </trkpt>
      <trkpt lat="44.56938" lon="6.2123">
        <ele>899.2</ele>
        <time>2022-09-18T09:13:59Z</time>
      </trkpt>
      <trkpt lat="44.56939" lon="6.21234">
        <ele>899.4</ele>
        <time>2022-09-18T09:14:00Z</time>
      </trkpt>
      <trkpt lat="44.56941" lon="6.21238">
        <ele>899.2</ele>
        <time>2022-09-18T09:14:01Z</time>
      </trkpt>
      <trkpt lat="44.56943" lon="6.21242">
        <ele>899.6</ele>
        <time>2022-09-18T09:14:02Z</time>
      </trkpt>
      <trkpt lat="44.56944" lon="6.21246">
        <ele>899.8</ele>
        <time>2022-09-18T09:14:03Z</time>
      </trkpt>
      <trkpt lat="44.56946" lon="6.2125">
        <ele>899.8</ele>
        <time>2022-09-18T09:14:04Z</time>
      </trkpt>
      <trkpt lat="44.56947" lon="6.21254">
        <ele>900</ele>
        <time>2022-09-18T09:14:05Z</time>
      </trkpt>
      <trkpt lat="44.56948" lon="6.21258">
        <ele>900.2</ele>
        <time>2022-09-18T09:14:06Z</time>
      </trkpt>
      <trkpt lat="44.5695" lon="6.21262">
        <ele>900.4</ele>
        <time>2022-09-18T09:14:07Z</time>
      </trkpt>
      <trkpt lat="44.56951" lon="6.21266">
        <ele>900.6</ele>
        <time>2022-09-18T09:14:08Z</time>
      </trkpt>
      <trkpt lat="44.56952" lon="6.21271">
        <ele>900.8</ele>
        <time>2022-09-18T09:14:09Z</time>
      </trkpt>
      <trkpt lat="44.56954" lon="6.21275">
        <ele>900.8</ele>
        <time>2022-09-18T09:14:10Z</time>
      </trkpt>
      <trkpt lat="44.56955" lon="6.21279">
        <ele>901.2</ele>
        <time>2022-09-18T09:14:11Z</time>
      </trkpt>
      <trkpt lat="44.56957" lon="6.21283">
        <ele>901.4</ele>
        <time>2022-09-18T09:14:12Z</time>
      </trkpt>
      <trkpt lat="44.56958" lon="6.21287">
        <ele>901.6</ele>
        <time>2022-09-18T09:14:13Z</time>
      </trkpt>
      <trkpt lat="44.56959" lon="6.21291">
        <ele>901.8</ele>
        <time>2022-09-18T09:14:14Z</time>
      </trkpt>
      <trkpt lat="44.56961" lon="6.21294">
        <ele>902</ele>
        <time>2022-09-18T09:14:15Z</time>
      </trkpt>
      <trkpt lat="44.56962" lon="6.21298">
        <ele>902.4</ele>
        <time>2022-09-18T09:14:16Z</time>
      </trkpt>
      <trkpt lat="44.56964" lon="6.21302">
        <ele>902.8</ele>
        <time>2022-09-18T09:14:17Z</time>
      </trkpt>
      <trkpt lat="44.56965" lon="6.21306">
        <ele>903</ele>
        <time>2022-09-18T09:14:18Z</time>
      </trkpt>
      <trkpt lat="44.56966" lon="6.2131">
        <ele>903.4</ele>
        <time>2022-09-18T09:14:19Z</time>
      </trkpt>
      <trkpt lat="44.56968" lon="6.21314">
        <ele>904</ele>
        <time>2022-09-18T09:14:20Z</time>
      </trkpt>
      <trkpt lat="44.56969" lon="6.21318">
        <ele>904.4</ele>
        <time>2022-09-18T09:14:21Z</time>
      </trkpt>
      <trkpt lat="44.56971" lon="6.21322">
        <ele>904.8</ele>
        <time>2022-09-18T09:14:22Z</time>
      </trkpt>
      <trkpt lat="44.56972" lon="6.21326">
        <ele>905.2</ele>
        <time>2022-09-18T09:14:23Z</time>
      </trkpt>
      <trkpt lat="44.56973" lon="6.21329">
        <ele>905.8</ele>
        <time>2022-09-18T09:14:24Z</time>
      </trkpt>
      <trkpt lat="44.56975" lon="6.21333">
        <ele>906.2</ele>
        <time>2022-09-18T09:14:25Z</time>
      </trkpt>
      <trkpt lat="44.56976" lon="6.21337">
        <ele>906.4</ele>
        <time>2022-09-18T09:14:26Z</time>
      </trkpt>
      <trkpt lat="44.56977" lon="6.21341">
        <ele>906.8</ele>
        <time>2022-09-18T09:14:27Z</time>
      </trkpt>
      <trkpt lat="44.56979" lon="6.21345">
        <ele>907.2</ele>
        <time>2022-09-18T09:14:28Z</time>
      </trkpt>
      <trkpt lat="44.5698" lon="6.21349">
        <ele>907.6</ele>
        <time>2022-09-18T09:14:29Z</time>
      </trkpt>
      <trkpt lat="44.56981" lon="6.21353">
        <ele>908</ele>
        <time>2022-09-18T09:14:30Z</time>
      </trkpt>
      <trkpt lat="44.56983" lon="6.21357">
        <ele>908.4</ele>
        <time>2022-09-18T09:14:31Z</time>
      </trkpt>
      <trkpt lat="44.56984" lon="6.2136">
        <ele>908.8</ele>
        <time>2022-09-18T09:14:32Z</time>
      </trkpt>
      <trkpt lat="44.56986" lon="6.21364">
        <ele>909.2</ele>
        <time>2022-09-18T09:14:33Z</time>
      </trkpt>
      <trkpt lat="44.56987" lon="6.21368">
        <ele>909.4</ele>
        <time>2022-09-18T09:14:34Z</time>
      </trkpt>
      <trkpt lat="44.56988" lon="6.21371">
        <ele>910</ele>
        <time>2022-09-18T09:14:35Z</time>
      </trkpt>
      <trkpt lat="44.56989" lon="6.21375">
        <ele>910.4</ele>
        <time>2022-09-18T09:14:36Z</time>
      </trkpt>
      <trkpt lat="44.5699" lon="6.21379">
        <ele>910.6</ele>
        <time>2022-09-18T09:14:37Z</time>
      </trkpt>
      <trkpt lat="44.56991" lon="6.21382">
        <ele>911</ele>
        <time>2022-09-18T09:14:38Z</time>
      </trkpt>
      <trkpt lat="44.56992" lon="6.21386">
        <ele>911.4</ele>
        <time>2022-09-18T09:14:39Z</time>
      </trkpt>
      <trkpt lat="44.56993" lon="6.21389">
        <ele>911.8</ele>
        <time>2022-09-18T09:14:40Z</time>
      </trkpt>
      <trkpt lat="44.56994" lon="6.21392">
        <ele>912</ele>
        <time>2022-09-18T09:14:41Z</time>
      </trkpt>
      <trkpt lat="44.56995" lon="6.21396">
        <ele>912.4</ele>
        <time>2022-09-18T09:14:42Z</time>
      </trkpt>
      <trkpt lat="44.56996" lon="6.21399">
        <ele>912.4</ele>
        <time>2022-09-18T09:14:43Z</time>
      </trkpt>
      <trkpt lat="44.56997" lon="6.21402">
        <ele>912.6</ele>
        <time>2022-09-18T09:14:44Z</time>
      </trkpt>
      <trkpt lat="44.56998" lon="6.21406">
        <ele>912.8</ele>
        <time>2022-09-18T09:14:45Z</time>
      </trkpt>
      <trkpt lat="44.56999" lon="6.21409">
        <ele>913</ele>
        <time>2022-09-18T09:14:46Z</time>
      </trkpt>
      <trkpt lat="44.57" lon="6.21413">
        <ele>913</ele>
        <time>2022-09-18T09:14:47Z</time>
      </trkpt>
      <trkpt lat="44.57001" lon="6.21416">
        <ele>913</ele>
        <time>2022-09-18T09:14:48Z</time>
      </trkpt>
      <trkpt lat="44.57002" lon="6.21419">
        <ele>913.4</ele>
        <time>2022-09-18T09:14:49Z</time>
      </trkpt>
      <trkpt lat="44.57003" lon="6.21423">
        <ele>913.6</ele>
        <time>2022-09-18T09:14:50Z</time>
      </trkpt>
      <trkpt lat="44.57004" lon="6.21426">
        <ele>914</ele>
        <time>2022-09-18T09:14:51Z</time>
      </trkpt>
      <trkpt lat="44.57005" lon="6.21429">
        <ele>914.2</ele>
        <time>2022-09-18T09:14:52Z</time>
      </trkpt>
      <trkpt lat="44.57005" lon="6.21433">
        <ele>914.4</ele>
        <time>2022-09-18T09:14:53Z</time>
      </trkpt>
      <trkpt lat="44.57006" lon="6.21437">
        <ele>914.8</ele>
        <time>2022-09-18T09:14:54Z</time>
      </trkpt>
      <trkpt lat="44.57007" lon="6.2144">
        <ele>915</ele>
        <time>2022-09-18T09:14:55Z</time>
      </trkpt>
      <trkpt lat="44.57007" lon="6.21443">
        <ele>915.4</ele>
        <time>2022-09-18T09:14:56Z</time>
      </trkpt>
      <trkpt lat="44.57007" lon="6.21446">
        <ele>915.4</ele>
        <time>2022-09-18T09:14:57Z</time>
      </trkpt>
      <trkpt lat="44.57007" lon="6.2145">
        <ele>916</ele>
        <time>2022-09-18T09:14:58Z</time>
      </trkpt>
      <trkpt lat="44.57008" lon="6.21453">
        <ele>916.4</ele>
        <time>2022-09-18T09:14:59Z</time>
      </trkpt>
      <trkpt lat="44.57008" lon="6.21456">
        <ele>916.8</ele>
        <time>2022-09-18T09:15:00Z</time>
      </trkpt>
      <trkpt lat="44.57008" lon="6.21459">
        <ele>917</ele>
        <time>2022-09-18T09:15:01Z</time>
      </trkpt>
      <trkpt lat="44.57009" lon="6.21462">
        <ele>917.4</ele>
        <time>2022-09-18T09:15:02Z</time>
      </trkpt>
      <trkpt lat="44.57009" lon="6.21465">
        <ele>917.8</ele>
        <time>2022-09-18T09:15:03Z</time>
      </trkpt>
      <trkpt lat="44.57009" lon="6.21468">
        <ele>918.2</ele>
        <time>2022-09-18T09:15:04Z</time>
      </trkpt>
      <trkpt lat="44.5701" lon="6.21471">
        <ele>918.6</ele>
        <time>2022-09-18T09:15:05Z</time>
      </trkpt>
      <trkpt lat="44.5701" lon="6.21474">
        <ele>918.8</ele>
        <time>2022-09-18T09:15:06Z</time>
      </trkpt>
      <trkpt lat="44.5701" lon="6.21477">
        <ele>919.2</ele>
        <time>2022-09-18T09:15:07Z</time>
      </trkpt>
      <trkpt lat="44.57011" lon="6.21482">
        <ele>920</ele>
        <time>2022-09-18T09:15:09Z</time>
      </trkpt>
      <trkpt lat="44.57012" lon="6.21485">
        <ele>920.6</ele>
        <time>2022-09-18T09:15:10Z</time>
      </trkpt>
      <trkpt lat="44.57012" lon="6.21488">
        <ele>921.4</ele>
        <time>2022-09-18T09:15:11Z</time>
      </trkpt>
      <trkpt lat="44.57012" lon="6.21492">
        <ele>922.2</ele>
        <time>2022-09-18T09:15:12Z</time>
      </trkpt>
      <trkpt lat="44.57012" lon="6.21495">
        <ele>922.4</ele>
        <time>2022-09-18T09:15:13Z</time>
      </trkpt>
      <trkpt lat="44.57012" lon="6.21499">
        <ele>922.8</ele>
        <time>2022-09-18T09:15:14Z</time>
      </trkpt>
      <trkpt lat="44.57012" lon="6.21503">
        <ele>923.2</ele>
        <time>2022-09-18T09:15:15Z</time>
      </trkpt>
      <trkpt lat="44.57012" lon="6.21506">
        <ele>923.6</ele>
        <time>2022-09-18T09:15:16Z</time>
      </trkpt>
      <trkpt lat="44.57012" lon="6.2151">
        <ele>924</ele>
        <time>2022-09-18T09:15:17Z</time>
      </trkpt>
      <trkpt lat="44.57012" lon="6.21513">
        <ele>924.2</ele>
        <time>2022-09-18T09:15:18Z</time>
      </trkpt>
      <trkpt lat="44.57013" lon="6.21517">
        <ele>924.4</ele>
        <time>2022-09-18T09:15:19Z</time>
      </trkpt>
      <trkpt lat="44.57013" lon="6.2152">
        <ele>924.8</ele>
        <time>2022-09-18T09:15:20Z</time>
      </trkpt>
      <trkpt lat="44.57013" lon="6.21524">
        <ele>925.2</ele>
        <time>2022-09-18T09:15:21Z</time>
      </trkpt>
      <trkpt lat="44.57013" lon="6.21527">
        <ele>925.6</ele>
        <time>2022-09-18T09:15:22Z</time>
      </trkpt>
      <trkpt lat="44.57014" lon="6.21531">
        <ele>925.8</ele>
        <time>2022-09-18T09:15:23Z</time>
      </trkpt>
      <trkpt lat="44.57014" lon="6.21535">
        <ele>926.4</ele>
        <time>2022-09-18T09:15:24Z</time>
      </trkpt>
      <trkpt lat="44.57014" lon="6.21539">
        <ele>926.6</ele>
        <time>2022-09-18T09:15:25Z</time>
      </trkpt>
      <trkpt lat="44.57014" lon="6.21542">
        <ele>926.8</ele>
        <time>2022-09-18T09:15:26Z</time>
      </trkpt>
      <trkpt lat="44.57014" lon="6.21546">
        <ele>927.2</ele>
        <time>2022-09-18T09:15:27Z</time>
      </trkpt>
      <trkpt lat="44.57014" lon="6.2155">
        <ele>927.6</ele>
        <time>2022-09-18T09:15:28Z</time>
      </trkpt>
      <trkpt lat="44.57014" lon="6.21554">
        <ele>928</ele>
        <time>2022-09-18T09:15:29Z</time>
      </trkpt>
      <trkpt lat="44.57015" lon="6.21557">
        <ele>928.2</ele>
        <time>2022-09-18T09:15:30Z</time>
      </trkpt>
      <trkpt lat="44.57015" lon="6.21561">
        <ele>928.6</ele>
        <time>2022-09-18T09:15:31Z</time>
      </trkpt>
      <trkpt lat="44.57015" lon="6.21565">
        <ele>928.8</ele>
        <time>2022-09-18T09:15:32Z</time>
      </trkpt>
      <trkpt lat="44.57015" lon="6.21569">
        <ele>929</ele>
        <time>2022-09-18T09:15:33Z</time>
      </trkpt>
      <trkpt lat="44.57015" lon="6.21573">
        <ele>929.4</ele>
        <time>2022-09-18T09:15:34Z</time>
      </trkpt>
      <trkpt lat="44.57015" lon="6.21576">
        <ele>929.6</ele>
        <time>2022-09-18T09:15:35Z</time>
      </trkpt>
      <trkpt lat="44.57015" lon="6.2158">
        <ele>929.8</ele>
        <time>2022-09-18T09:15:36Z</time>
      </trkpt>
      <trkpt lat="44.57015" lon="6.21584">
        <ele>930.2</ele>
        <time>2022-09-18T09:15:37Z</time>
      </trkpt>
      <trkpt lat="44.57015" lon="6.21588">
        <ele>930.4</ele>
        <time>2022-09-18T09:15:38Z</time>
      </trkpt>
      <trkpt lat="44.57015" lon="6.21592">
        <ele>930.8</ele>
        <time>2022-09-18T09:15:39Z</time>
      </trkpt>
      <trkpt lat="44.57015" lon="6.21596">
        <ele>931</ele>
        <time>2022-09-18T09:15:40Z</time>
      </trkpt>
      <trkpt lat="44.57015" lon="6.216">
        <ele>931.2</ele>
        <time>2022-09-18T09:15:41Z</time>
      </trkpt>
      <trkpt lat="44.57015" lon="6.21603">
        <ele>931.4</ele>
        <time>2022-09-18T09:15:42Z</time>
      </trkpt>
      <trkpt lat="44.57015" lon="6.21607">
        <ele>931.4</ele>
        <time>2022-09-18T09:15:43Z</time>
      </trkpt>
      <trkpt lat="44.57015" lon="6.21611">
        <ele>931.6</ele>
        <time>2022-09-18T09:15:44Z</time>
      </trkpt>
      <trkpt lat="44.57015" lon="6.21615">
        <ele>931.8</ele>
        <time>2022-09-18T09:15:45Z</time>
      </trkpt>
      <trkpt lat="44.57015" lon="6.21619">
        <ele>932</ele>
        <time>2022-09-18T09:15:46Z</time>
      </trkpt>
      <trkpt lat="44.57015" lon="6.21623">
        <ele>932.4</ele>
        <time>2022-09-18T09:15:47Z</time>
      </trkpt>
      <trkpt lat="44.57015" lon="6.21626">
        <ele>932.6</ele>
        <time>2022-09-18T09:15:48Z</time>
      </trkpt>
      <trkpt lat="44.57015" lon="6.2163">
        <ele>932.8</ele>
        <time>2022-09-18T09:15:49Z</time>
      </trkpt>
      <trkpt lat="44.57015" lon="6.21634">
        <ele>933.2</ele>
        <time>2022-09-18T09:15:50Z</time>
      </trkpt>
      <trkpt lat="44.57015" lon="6.21638">
        <ele>933.2</ele>
        <time>2022-09-18T09:15:51Z</time>
      </trkpt>
      <trkpt lat="44.57015" lon="6.21641">
        <ele>933.2</ele>
        <time>2022-09-18T09:15:52Z</time>
      </trkpt>
      <trkpt lat="44.57015" lon="6.21644">
        <ele>933.6</ele>
        <time>2022-09-18T09:15:53Z</time>
      </trkpt>
      <trkpt lat="44.57015" lon="6.21648">
        <ele>934</ele>
        <time>2022-09-18T09:15:54Z</time>
      </trkpt>
      <trkpt lat="44.57015" lon="6.21651">
        <ele>934</ele>
        <time>2022-09-18T09:15:55Z</time>
      </trkpt>
      <trkpt lat="44.57015" lon="6.21655">
        <ele>934.4</ele>
        <time>2022-09-18T09:15:56Z</time>
      </trkpt>
      <trkpt lat="44.57015" lon="6.21658">
        <ele>934.8</ele>
        <time>2022-09-18T09:15:57Z</time>
      </trkpt>
      <trkpt lat="44.57015" lon="6.21662">
        <ele>935</ele>
        <time>2022-09-18T09:15:58Z</time>
      </trkpt>
      <trkpt lat="44.57015" lon="6.21665">
        <ele>935.2</ele>
        <time>2022-09-18T09:15:59Z</time>
      </trkpt>
      <trkpt lat="44.57014" lon="6.21669">
        <ele>935.6</ele>
        <time>2022-09-18T09:16:00Z</time>
      </trkpt>
      <trkpt lat="44.57014" lon="6.21672">
        <ele>935.8</ele>
        <time>2022-09-18T09:16:01Z</time>
      </trkpt>
      <trkpt lat="44.57014" lon="6.21676">
        <ele>936</ele>
        <time>2022-09-18T09:16:02Z</time>
      </trkpt>
      <trkpt lat="44.57014" lon="6.2168">
        <ele>936.2</ele>
        <time>2022-09-18T09:16:03Z</time>
      </trkpt>
      <trkpt lat="44.57013" lon="6.21683">
        <ele>936.2</ele>
        <time>2022-09-18T09:16:04Z</time>
      </trkpt>
      <trkpt lat="44.57013" lon="6.21687">
        <ele>936.8</ele>
        <time>2022-09-18T09:16:05Z</time>
      </trkpt>
      <trkpt lat="44.57013" lon="6.2169">
        <ele>936.8</ele>
        <time>2022-09-18T09:16:06Z</time>
      </trkpt>
      <trkpt lat="44.57013" lon="6.21694">
        <ele>937</ele>
        <time>2022-09-18T09:16:07Z</time>
      </trkpt>
      <trkpt lat="44.57013" lon="6.21697">
        <ele>937.4</ele>
        <time>2022-09-18T09:16:08Z</time>
      </trkpt>
      <trkpt lat="44.57013" lon="6.21701">
        <ele>937.6</ele>
        <time>2022-09-18T09:16:09Z</time>
      </trkpt>
      <trkpt lat="44.57013" lon="6.21704">
        <ele>937.8</ele>
        <time>2022-09-18T09:16:10Z</time>
      </trkpt>
      <trkpt lat="44.57013" lon="6.21707">
        <ele>938</ele>
        <time>2022-09-18T09:16:11Z</time>
      </trkpt>
      <trkpt lat="44.57013" lon="6.21711">
        <ele>938.2</ele>
        <time>2022-09-18T09:16:12Z</time>
      </trkpt>
      <trkpt lat="44.57013" lon="6.21714">
        <ele>938.4</ele>
        <time>2022-09-18T09:16:13Z</time>
      </trkpt>
      <trkpt lat="44.57013" lon="6.21717">
        <ele>938.6</ele>
        <time>2022-09-18T09:16:14Z</time>
      </trkpt>
      <trkpt lat="44.57013" lon="6.21721">
        <ele>939</ele>
        <time>2022-09-18T09:16:15Z</time>
      </trkpt>
      <trkpt lat="44.57014" lon="6.21724">
        <ele>939.4</ele>
        <time>2022-09-18T09:16:16Z</time>
      </trkpt>
      <trkpt lat="44.57014" lon="6.21728">
        <ele>939.6</ele>
        <time>2022-09-18T09:16:17Z</time>
      </trkpt>
      <trkpt lat="44.57014" lon="6.21731">
        <ele>939.4</ele>
        <time>2022-09-18T09:16:18Z</time>
      </trkpt>
      <trkpt lat="44.57014" lon="6.21735">
        <ele>939.8</ele>
        <time>2022-09-18T09:16:19Z</time>
      </trkpt>
      <trkpt lat="44.57015" lon="6.21739">
        <ele>940</ele>
        <time>2022-09-18T09:16:20Z</time>
      </trkpt>
      <trkpt lat="44.57015" lon="6.21742">
        <ele>940</ele>
        <time>2022-09-18T09:16:21Z</time>
      </trkpt>
      <trkpt lat="44.57015" lon="6.21746">
        <ele>940.2</ele>
        <time>2022-09-18T09:16:22Z</time>
      </trkpt>
      <trkpt lat="44.57016" lon="6.21749">
        <ele>940.2</ele>
        <time>2022-09-18T09:16:23Z</time>
      </trkpt>
      <trkpt lat="44.57016" lon="6.21753">
        <ele>940.2</ele>
        <time>2022-09-18T09:16:24Z</time>
      </trkpt>
      <trkpt lat="44.57016" lon="6.21756">
        <ele>940</ele>
        <time>2022-09-18T09:16:25Z</time>
      </trkpt>
      <trkpt lat="44.57016" lon="6.2176">
        <ele>940.2</ele>
        <time>2022-09-18T09:16:26Z</time>
      </trkpt>
      <trkpt lat="44.57017" lon="6.21763">
        <ele>940</ele>
        <time>2022-09-18T09:16:27Z</time>
      </trkpt>
      <trkpt lat="44.57017" lon="6.21767">
        <ele>940</ele>
        <time>2022-09-18T09:16:28Z</time>
      </trkpt>
      <trkpt lat="44.57018" lon="6.2177">
        <ele>940</ele>
        <time>2022-09-18T09:16:29Z</time>
      </trkpt>
      <trkpt lat="44.57018" lon="6.21773">
        <ele>939.8</ele>
        <time>2022-09-18T09:16:30Z</time>
      </trkpt>
      <trkpt lat="44.57019" lon="6.21776">
        <ele>939.6</ele>
        <time>2022-09-18T09:16:31Z</time>
      </trkpt>
      <trkpt lat="44.5702" lon="6.2178">
        <ele>939.8</ele>
        <time>2022-09-18T09:16:32Z</time>
      </trkpt>
      <trkpt lat="44.5702" lon="6.21783">
        <ele>940</ele>
        <time>2022-09-18T09:16:33Z</time>
      </trkpt>
      <trkpt lat="44.57021" lon="6.21786">
        <ele>940</ele>
        <time>2022-09-18T09:16:34Z</time>
      </trkpt>
      <trkpt lat="44.57022" lon="6.21789">
        <ele>940</ele>
        <time>2022-09-18T09:16:35Z</time>
      </trkpt>
      <trkpt lat="44.57023" lon="6.21792">
        <ele>940</ele>
        <time>2022-09-18T09:16:36Z</time>
      </trkpt>
      <trkpt lat="44.57024" lon="6.21795">
        <ele>939.8</ele>
        <time>2022-09-18T09:16:37Z</time>
      </trkpt>
      <trkpt lat="44.57024" lon="6.21798">
        <ele>939.8</ele>
        <time>2022-09-18T09:16:38Z</time>
      </trkpt>
      <trkpt lat="44.57025" lon="6.218">
        <ele>939.6</ele>
        <time>2022-09-18T09:16:39Z</time>
      </trkpt>
      <trkpt lat="44.57026" lon="6.21803">
        <ele>939.6</ele>
        <time>2022-09-18T09:16:40Z</time>
      </trkpt>
      <trkpt lat="44.57027" lon="6.21806">
        <ele>939.6</ele>
        <time>2022-09-18T09:16:41Z</time>
      </trkpt>
      <trkpt lat="44.57028" lon="6.21809">
        <ele>939.6</ele>
        <time>2022-09-18T09:16:42Z</time>
      </trkpt>
      <trkpt lat="44.57029" lon="6.21812">
        <ele>939.4</ele>
        <time>2022-09-18T09:16:43Z</time>
      </trkpt>
      <trkpt lat="44.5703" lon="6.21814">
        <ele>939.2</ele>
        <time>2022-09-18T09:16:44Z</time>
      </trkpt>
      <trkpt lat="44.57031" lon="6.21816">
        <ele>939.2</ele>
        <time>2022-09-18T09:16:45Z</time>
      </trkpt>
      <trkpt lat="44.57031" lon="6.21819">
        <ele>939</ele>
        <time>2022-09-18T09:16:46Z</time>
      </trkpt>
      <trkpt lat="44.57032" lon="6.21822">
        <ele>939</ele>
        <time>2022-09-18T09:16:47Z</time>
      </trkpt>
      <trkpt lat="44.57033" lon="6.21825">
        <ele>939</ele>
        <time>2022-09-18T09:16:48Z</time>
      </trkpt>
      <trkpt lat="44.57034" lon="6.21827">
        <ele>939</ele>
        <time>2022-09-18T09:16:49Z</time>
      </trkpt>
      <trkpt lat="44.57035" lon="6.2183">
        <ele>938.8</ele>
        <time>2022-09-18T09:16:50Z</time>
      </trkpt>
      <trkpt lat="44.57036" lon="6.21833">
        <ele>938.8</ele>
        <time>2022-09-18T09:16:51Z</time>
      </trkpt>
      <trkpt lat="44.57036" lon="6.21836">
        <ele>938.8</ele>
        <time>2022-09-18T09:16:52Z</time>
      </trkpt>
      <trkpt lat="44.57037" lon="6.21838">
        <ele>938.8</ele>
        <time>2022-09-18T09:16:53Z</time>
      </trkpt>
      <trkpt lat="44.57038" lon="6.21841">
        <ele>938.8</ele>
        <time>2022-09-18T09:16:54Z</time>
      </trkpt>
      <trkpt lat="44.57039" lon="6.21844">
        <ele>939</ele>
        <time>2022-09-18T09:16:55Z</time>
      </trkpt>
      <trkpt lat="44.5704" lon="6.21847">
        <ele>939</ele>
        <time>2022-09-18T09:16:56Z</time>
      </trkpt>
      <trkpt lat="44.57041" lon="6.2185">
        <ele>939</ele>
        <time>2022-09-18T09:16:57Z</time>
      </trkpt>
      <trkpt lat="44.57042" lon="6.21852">
        <ele>939</ele>
        <time>2022-09-18T09:16:58Z</time>
      </trkpt>
      <trkpt lat="44.57043" lon="6.21855">
        <ele>938.8</ele>
        <time>2022-09-18T09:16:59Z</time>
      </trkpt>
      <trkpt lat="44.57045" lon="6.21857">
        <ele>939</ele>
        <time>2022-09-18T09:17:00Z</time>
      </trkpt>
      <trkpt lat="44.57046" lon="6.2186">
        <ele>939</ele>
        <time>2022-09-18T09:17:01Z</time>
      </trkpt>
      <trkpt lat="44.57047" lon="6.21863">
        <ele>939</ele>
        <time>2022-09-18T09:17:02Z</time>
      </trkpt>
      <trkpt lat="44.57048" lon="6.21866">
        <ele>939</ele>
        <time>2022-09-18T09:17:03Z</time>
      </trkpt>
      <trkpt lat="44.57049" lon="6.21869">
        <ele>939.2</ele>
        <time>2022-09-18T09:17:04Z</time>
      </trkpt>
      <trkpt lat="44.57051" lon="6.21871">
        <ele>939.2</ele>
        <time>2022-09-18T09:17:05Z</time>
      </trkpt>
      <trkpt lat="44.57052" lon="6.21874">
        <ele>939.2</ele>
        <time>2022-09-18T09:17:06Z</time>
      </trkpt>
      <trkpt lat="44.57054" lon="6.21876">
        <ele>939.4</ele>
        <time>2022-09-18T09:17:07Z</time>
      </trkpt>
      <trkpt lat="44.57055" lon="6.21879">
        <ele>939.4</ele>
        <time>2022-09-18T09:17:08Z</time>
      </trkpt>
      <trkpt lat="44.57057" lon="6.21881">
        <ele>939.4</ele>
        <time>2022-09-18T09:17:09Z</time>
      </trkpt>
      <trkpt lat="44.57058" lon="6.21884">
        <ele>939.6</ele>
        <time>2022-09-18T09:17:10Z</time>
      </trkpt>
      <trkpt lat="44.5706" lon="6.21886">
        <ele>939.8</ele>
        <time>2022-09-18T09:17:11Z</time>
      </trkpt>
      <trkpt lat="44.57061" lon="6.21889">
        <ele>939.8</ele>
        <time>2022-09-18T09:17:12Z</time>
      </trkpt>
      <trkpt lat="44.57063" lon="6.21891">
        <ele>940</ele>
        <time>2022-09-18T09:17:13Z</time>
      </trkpt>
      <trkpt lat="44.57064" lon="6.21894">
        <ele>940.2</ele>
        <time>2022-09-18T09:17:14Z</time>
      </trkpt>
      <trkpt lat="44.57066" lon="6.21896">
        <ele>940.4</ele>
        <time>2022-09-18T09:17:15Z</time>
      </trkpt>
      <trkpt lat="44.57067" lon="6.21898">
        <ele>940.6</ele>
        <time>2022-09-18T09:17:16Z</time>
      </trkpt>
      <trkpt lat="44.57069" lon="6.21901">
        <ele>940.8</ele>
        <time>2022-09-18T09:17:17Z</time>
      </trkpt>
      <trkpt lat="44.57071" lon="6.21903">
        <ele>941</ele>
        <time>2022-09-18T09:17:18Z</time>
      </trkpt>
      <trkpt lat="44.57072" lon="6.21905">
        <ele>941.4</ele>
        <time>2022-09-18T09:17:19Z</time>
      </trkpt>
      <trkpt lat="44.57074" lon="6.21907">
        <ele>941.4</ele>
        <time>2022-09-18T09:17:20Z</time>
      </trkpt>
      <trkpt lat="44.57076" lon="6.2191">
        <ele>941.6</ele>
        <time>2022-09-18T09:17:21Z</time>
      </trkpt>
      <trkpt lat="44.57077" lon="6.21912">
        <ele>941.8</ele>
        <time>2022-09-18T09:17:22Z</time>
      </trkpt>
      <trkpt lat="44.57079" lon="6.21914">
        <ele>941.8</ele>
        <time>2022-09-18T09:17:23Z</time>
      </trkpt>
      <trkpt lat="44.5708" lon="6.21916">
        <ele>942</ele>
        <time>2022-09-18T09:17:24Z</time>
      </trkpt>
      <trkpt lat="44.57082" lon="6.21919">
        <ele>942</ele>
        <time>2022-09-18T09:17:25Z</time>
      </trkpt>
      <trkpt lat="44.57084" lon="6.21921">
        <ele>942.2</ele>
        <time>2022-09-18T09:17:26Z</time>
      </trkpt>
      <trkpt lat="44.57085" lon="6.21923">
        <ele>942.6</ele>
        <time>2022-09-18T09:17:27Z</time>
      </trkpt>
      <trkpt lat="44.57087" lon="6.21926">
        <ele>942.8</ele>
        <time>2022-09-18T09:17:28Z</time>
      </trkpt>
      <trkpt lat="44.57089" lon="6.21928">
        <ele>943</ele>
        <time>2022-09-18T09:17:29Z</time>
      </trkpt>
      <trkpt lat="44.5709" lon="6.2193">
        <ele>943.2</ele>
        <time>2022-09-18T09:17:30Z</time>
      </trkpt>
      <trkpt lat="44.57092" lon="6.21933">
        <ele>943.4</ele>
        <time>2022-09-18T09:17:31Z</time>
      </trkpt>
      <trkpt lat="44.57094" lon="6.21935">
        <ele>943.4</ele>
        <time>2022-09-18T09:17:32Z</time>
      </trkpt>
      <trkpt lat="44.57096" lon="6.21937">
        <ele>943.8</ele>
        <time>2022-09-18T09:17:33Z</time>
      </trkpt>
      <trkpt lat="44.57097" lon="6.21939">
        <ele>944</ele>
        <time>2022-09-18T09:17:34Z</time>
      </trkpt>
      <trkpt lat="44.57099" lon="6.21942">
        <ele>944</ele>
        <time>2022-09-18T09:17:35Z</time>
      </trkpt>
      <trkpt lat="44.57101" lon="6.21944">
        <ele>944.2</ele>
        <time>2022-09-18T09:17:36Z</time>
      </trkpt>
      <trkpt lat="44.57102" lon="6.21947">
        <ele>944.4</ele>
        <time>2022-09-18T09:17:37Z</time>
      </trkpt>
      <trkpt lat="44.57104" lon="6.21949">
        <ele>944.4</ele>
        <time>2022-09-18T09:17:38Z</time>
      </trkpt>
      <trkpt lat="44.57105" lon="6.21951">
        <ele>944.4</ele>
        <time>2022-09-18T09:17:39Z</time>
      </trkpt>
      <trkpt lat="44.57107" lon="6.21954">
        <ele>944.6</ele>
        <time>2022-09-18T09:17:40Z</time>
      </trkpt>
      <trkpt lat="44.57108" lon="6.21956">
        <ele>944.8</ele>
        <time>2022-09-18T09:17:41Z</time>
      </trkpt>
      <trkpt lat="44.5711" lon="6.21958">
        <ele>945</ele>
        <time>2022-09-18T09:17:42Z</time>
      </trkpt>
      <trkpt lat="44.57111" lon="6.21961">
        <ele>945</ele>
        <time>2022-09-18T09:17:43Z</time>
      </trkpt>
      <trkpt lat="44.57113" lon="6.21963">
        <ele>945.2</ele>
        <time>2022-09-18T09:17:44Z</time>
      </trkpt>
      <trkpt lat="44.57115" lon="6.21965">
        <ele>945.6</ele>
        <time>2022-09-18T09:17:45Z</time>
      </trkpt>
      <trkpt lat="44.57116" lon="6.21968">
        <ele>945.6</ele>
        <time>2022-09-18T09:17:46Z</time>
      </trkpt>
      <trkpt lat="44.57118" lon="6.2197">
        <ele>945.8</ele>
        <time>2022-09-18T09:17:47Z</time>
      </trkpt>
      <trkpt lat="44.57119" lon="6.21972">
        <ele>946</ele>
        <time>2022-09-18T09:17:48Z</time>
      </trkpt>
      <trkpt lat="44.57121" lon="6.21974">
        <ele>946.2</ele>
        <time>2022-09-18T09:17:49Z</time>
      </trkpt>
      <trkpt lat="44.57123" lon="6.21976">
        <ele>946.2</ele>
        <time>2022-09-18T09:17:50Z</time>
      </trkpt>
      <trkpt lat="44.57124" lon="6.21979">
        <ele>946.4</ele>
        <time>2022-09-18T09:17:51Z</time>
      </trkpt>
      <trkpt lat="44.57126" lon="6.21981">
        <ele>946.4</ele>
        <time>2022-09-18T09:17:52Z</time>
      </trkpt>
      <trkpt lat="44.57127" lon="6.21984">
        <ele>946.4</ele>
        <time>2022-09-18T09:17:53Z</time>
      </trkpt>
      <trkpt lat="44.57128" lon="6.21986">
        <ele>946.6</ele>
        <time>2022-09-18T09:17:54Z</time>
      </trkpt>
      <trkpt lat="44.5713" lon="6.21989">
        <ele>946.8</ele>
        <time>2022-09-18T09:17:55Z</time>
      </trkpt>
      <trkpt lat="44.57131" lon="6.21991">
        <ele>947.2</ele>
        <time>2022-09-18T09:17:56Z</time>
      </trkpt>
      <trkpt lat="44.57132" lon="6.21993">
        <ele>947.2</ele>
        <time>2022-09-18T09:17:57Z</time>
      </trkpt>
      <trkpt lat="44.57134" lon="6.21995">
        <ele>947.2</ele>
        <time>2022-09-18T09:17:58Z</time>
      </trkpt>
      <trkpt lat="44.57135" lon="6.21998">
        <ele>947.4</ele>
        <time>2022-09-18T09:17:59Z</time>
      </trkpt>
      <trkpt lat="44.57137" lon="6.22">
        <ele>947.4</ele>
        <time>2022-09-18T09:18:00Z</time>
      </trkpt>
      <trkpt lat="44.57138" lon="6.22003">
        <ele>947.6</ele>
        <time>2022-09-18T09:18:01Z</time>
      </trkpt>
      <trkpt lat="44.57139" lon="6.22005">
        <ele>947.6</ele>
        <time>2022-09-18T09:18:02Z</time>
      </trkpt>
      <trkpt lat="44.57141" lon="6.22008">
        <ele>947.8</ele>
        <time>2022-09-18T09:18:03Z</time>
      </trkpt>
      <trkpt lat="44.57142" lon="6.2201">
        <ele>947.8</ele>
        <time>2022-09-18T09:18:04Z</time>
      </trkpt>
      <trkpt lat="44.57144" lon="6.22012">
        <ele>948</ele>
        <time>2022-09-18T09:18:05Z</time>
      </trkpt>
      <trkpt lat="44.57145" lon="6.22015">
        <ele>948</ele>
        <time>2022-09-18T09:18:06Z</time>
      </trkpt>
      <trkpt lat="44.57147" lon="6.22017">
        <ele>948.2</ele>
        <time>2022-09-18T09:18:07Z</time>
      </trkpt>
      <trkpt lat="44.57148" lon="6.22019">
        <ele>948</ele>
        <time>2022-09-18T09:18:08Z</time>
      </trkpt>
      <trkpt lat="44.5715" lon="6.22022">
        <ele>948.4</ele>
        <time>2022-09-18T09:18:09Z</time>
      </trkpt>
      <trkpt lat="44.57152" lon="6.22024">
        <ele>948.2</ele>
        <time>2022-09-18T09:18:10Z</time>
      </trkpt>
      <trkpt lat="44.57153" lon="6.22026">
        <ele>948.4</ele>
        <time>2022-09-18T09:18:11Z</time>
      </trkpt>
      <trkpt lat="44.57155" lon="6.22028">
        <ele>948.4</ele>
        <time>2022-09-18T09:18:12Z</time>
      </trkpt>
      <trkpt lat="44.57157" lon="6.22031">
        <ele>948.4</ele>
        <time>2022-09-18T09:18:13Z</time>
      </trkpt>
      <trkpt lat="44.57159" lon="6.22033">
        <ele>948.6</ele>
        <time>2022-09-18T09:18:14Z</time>
      </trkpt>
      <trkpt lat="44.5716" lon="6.22036">
        <ele>948.8</ele>
        <time>2022-09-18T09:18:15Z</time>
      </trkpt>
      <trkpt lat="44.57161" lon="6.22038">
        <ele>949</ele>
        <time>2022-09-18T09:18:16Z</time>
      </trkpt>
      <trkpt lat="44.57163" lon="6.22041">
        <ele>949</ele>
        <time>2022-09-18T09:18:17Z</time>
      </trkpt>
      <trkpt lat="44.57165" lon="6.22043">
        <ele>949.4</ele>
        <time>2022-09-18T09:18:18Z</time>
      </trkpt>
      <trkpt lat="44.57166" lon="6.22046">
        <ele>949.4</ele>
        <time>2022-09-18T09:18:19Z</time>
      </trkpt>
      <trkpt lat="44.57167" lon="6.22049">
        <ele>949.4</ele>
        <time>2022-09-18T09:18:20Z</time>
      </trkpt>
      <trkpt lat="44.57169" lon="6.22051">
        <ele>949.8</ele>
        <time>2022-09-18T09:18:21Z</time>
      </trkpt>
      <trkpt lat="44.5717" lon="6.22054">
        <ele>949.8</ele>
        <time>2022-09-18T09:18:22Z</time>
      </trkpt>
      <trkpt lat="44.57172" lon="6.22057">
        <ele>950</ele>
        <time>2022-09-18T09:18:23Z</time>
      </trkpt>
      <trkpt lat="44.57173" lon="6.2206">
        <ele>950.2</ele>
        <time>2022-09-18T09:18:24Z</time>
      </trkpt>
      <trkpt lat="44.57175" lon="6.22063">
        <ele>950.4</ele>
        <time>2022-09-18T09:18:25Z</time>
      </trkpt>
      <trkpt lat="44.57176" lon="6.22066">
        <ele>950.8</ele>
        <time>2022-09-18T09:18:26Z</time>
      </trkpt>
      <trkpt lat="44.57177" lon="6.22069">
        <ele>951</ele>
        <time>2022-09-18T09:18:27Z</time>
      </trkpt>
      <trkpt lat="44.57178" lon="6.22072">
        <ele>951.2</ele>
        <time>2022-09-18T09:18:28Z</time>
      </trkpt>
      <trkpt lat="44.57179" lon="6.22075">
        <ele>951.4</ele>
        <time>2022-09-18T09:18:29Z</time>
      </trkpt>
      <trkpt lat="44.5718" lon="6.22077">
        <ele>951.6</ele>
        <time>2022-09-18T09:18:30Z</time>
      </trkpt>
      <trkpt lat="44.57182" lon="6.2208">
        <ele>951.8</ele>
        <time>2022-09-18T09:18:31Z</time>
      </trkpt>
      <trkpt lat="44.57183" lon="6.22084">
        <ele>952</ele>
        <time>2022-09-18T09:18:32Z</time>
      </trkpt>
      <trkpt lat="44.57184" lon="6.22087">
        <ele>952.2</ele>
        <time>2022-09-18T09:18:33Z</time>
      </trkpt>
      <trkpt lat="44.57185" lon="6.2209">
        <ele>952.2</ele>
        <time>2022-09-18T09:18:34Z</time>
      </trkpt>
      <trkpt lat="44.57186" lon="6.22093">
        <ele>952.4</ele>
        <time>2022-09-18T09:18:35Z</time>
      </trkpt>
      <trkpt lat="44.57187" lon="6.22096">
        <ele>952.6</ele>
        <time>2022-09-18T09:18:36Z</time>
      </trkpt>
      <trkpt lat="44.57188" lon="6.22099">
        <ele>952.6</ele>
        <time>2022-09-18T09:18:37Z</time>
      </trkpt>
      <trkpt lat="44.5719" lon="6.22102">
        <ele>953</ele>
        <time>2022-09-18T09:18:38Z</time>
      </trkpt>
      <trkpt lat="44.57191" lon="6.22105">
        <ele>953.2</ele>
        <time>2022-09-18T09:18:39Z</time>
      </trkpt>
      <trkpt lat="44.57192" lon="6.22108">
        <ele>953.4</ele>
        <time>2022-09-18T09:18:40Z</time>
      </trkpt>
      <trkpt lat="44.57193" lon="6.22111">
        <ele>953.6</ele>
        <time>2022-09-18T09:18:41Z</time>
      </trkpt>
      <trkpt lat="44.57194" lon="6.22114">
        <ele>953.8</ele>
        <time>2022-09-18T09:18:42Z</time>
      </trkpt>
      <trkpt lat="44.57194" lon="6.22117">
        <ele>954.2</ele>
        <time>2022-09-18T09:18:43Z</time>
      </trkpt>
      <trkpt lat="44.57195" lon="6.2212">
        <ele>954.4</ele>
        <time>2022-09-18T09:18:44Z</time>
      </trkpt>
      <trkpt lat="44.57195" lon="6.22123">
        <ele>954.2</ele>
        <time>2022-09-18T09:18:45Z</time>
      </trkpt>
      <trkpt lat="44.57196" lon="6.22125">
        <ele>954.6</ele>
        <time>2022-09-18T09:18:46Z</time>
      </trkpt>
      <trkpt lat="44.57197" lon="6.22128">
        <ele>954.6</ele>
        <time>2022-09-18T09:18:47Z</time>
      </trkpt>
      <trkpt lat="44.57197" lon="6.22131">
        <ele>955</ele>
        <time>2022-09-18T09:18:48Z</time>
      </trkpt>
      <trkpt lat="44.57198" lon="6.22134">
        <ele>955.2</ele>
        <time>2022-09-18T09:18:49Z</time>
      </trkpt>
      <trkpt lat="44.57198" lon="6.22138">
        <ele>955.4</ele>
        <time>2022-09-18T09:18:50Z</time>
      </trkpt>
      <trkpt lat="44.57199" lon="6.22141">
        <ele>955.4</ele>
        <time>2022-09-18T09:18:51Z</time>
      </trkpt>
      <trkpt lat="44.572" lon="6.22144">
        <ele>955.8</ele>
        <time>2022-09-18T09:18:52Z</time>
      </trkpt>
      <trkpt lat="44.572" lon="6.22147">
        <ele>956</ele>
        <time>2022-09-18T09:18:53Z</time>
      </trkpt>
      <trkpt lat="44.57201" lon="6.2215">
        <ele>956.2</ele>
        <time>2022-09-18T09:18:54Z</time>
      </trkpt>
      <trkpt lat="44.57201" lon="6.22154">
        <ele>956.2</ele>
        <time>2022-09-18T09:18:55Z</time>
      </trkpt>
      <trkpt lat="44.57202" lon="6.22157">
        <ele>956.4</ele>
        <time>2022-09-18T09:18:56Z</time>
      </trkpt>
      <trkpt lat="44.57202" lon="6.2216">
        <ele>956.6</ele>
        <time>2022-09-18T09:18:57Z</time>
      </trkpt>
      <trkpt lat="44.57202" lon="6.22163">
        <ele>956.8</ele>
        <time>2022-09-18T09:18:58Z</time>
      </trkpt>
      <trkpt lat="44.57203" lon="6.22166">
        <ele>956.8</ele>
        <time>2022-09-18T09:18:59Z</time>
      </trkpt>
      <trkpt lat="44.57203" lon="6.22169">
        <ele>957</ele>
        <time>2022-09-18T09:19:00Z</time>
      </trkpt>
      <trkpt lat="44.57204" lon="6.22173">
        <ele>957.2</ele>
        <time>2022-09-18T09:19:01Z</time>
      </trkpt>
      <trkpt lat="44.57204" lon="6.22176">
        <ele>957.6</ele>
        <time>2022-09-18T09:19:02Z</time>
      </trkpt>
      <trkpt lat="44.57205" lon="6.22179">
        <ele>957.8</ele>
        <time>2022-09-18T09:19:03Z</time>
      </trkpt>
      <trkpt lat="44.57205" lon="6.22182">
        <ele>957.8</ele>
        <time>2022-09-18T09:19:04Z</time>
      </trkpt>
      <trkpt lat="44.57205" lon="6.22185">
        <ele>958.2</ele>
        <time>2022-09-18T09:19:05Z</time>
      </trkpt>
      <trkpt lat="44.57206" lon="6.22189">
        <ele>958.2</ele>
        <time>2022-09-18T09:19:06Z</time>
      </trkpt>
      <trkpt lat="44.57207" lon="6.22192">
        <ele>958.4</ele>
        <time>2022-09-18T09:19:07Z</time>
      </trkpt>
      <trkpt lat="44.57207" lon="6.22195">
        <ele>958.4</ele>
        <time>2022-09-18T09:19:08Z</time>
      </trkpt>
      <trkpt lat="44.57208" lon="6.22198">
        <ele>958.6</ele>
        <time>2022-09-18T09:19:09Z</time>
      </trkpt>
      <trkpt lat="44.57208" lon="6.22201">
        <ele>958.8</ele>
        <time>2022-09-18T09:19:10Z</time>
      </trkpt>
      <trkpt lat="44.57209" lon="6.22204">
        <ele>959</ele>
        <time>2022-09-18T09:19:11Z</time>
      </trkpt>
      <trkpt lat="44.57209" lon="6.22207">
        <ele>959.4</ele>
        <time>2022-09-18T09:19:12Z</time>
      </trkpt>
      <trkpt lat="44.5721" lon="6.2221">
        <ele>959.6</ele>
        <time>2022-09-18T09:19:13Z</time>
      </trkpt>
      <trkpt lat="44.57211" lon="6.22213">
        <ele>959.6</ele>
        <time>2022-09-18T09:19:14Z</time>
      </trkpt>
      <trkpt lat="44.57211" lon="6.22217">
        <ele>960.2</ele>
        <time>2022-09-18T09:19:15Z</time>
      </trkpt>
      <trkpt lat="44.57212" lon="6.2222">
        <ele>960.4</ele>
        <time>2022-09-18T09:19:16Z</time>
      </trkpt>
      <trkpt lat="44.57212" lon="6.22223">
        <ele>960.8</ele>
        <time>2022-09-18T09:19:17Z</time>
      </trkpt>
      <trkpt lat="44.57212" lon="6.22226">
        <ele>960.8</ele>
        <time>2022-09-18T09:19:18Z</time>
      </trkpt>
      <trkpt lat="44.57213" lon="6.2223">
        <ele>961.2</ele>
        <time>2022-09-18T09:19:19Z</time>
      </trkpt>
      <trkpt lat="44.57213" lon="6.22233">
        <ele>961.6</ele>
        <time>2022-09-18T09:19:20Z</time>
      </trkpt>
      <trkpt lat="44.57214" lon="6.22236">
        <ele>962</ele>
        <time>2022-09-18T09:19:21Z</time>
      </trkpt>
      <trkpt lat="44.57214" lon="6.2224">
        <ele>962.4</ele>
        <time>2022-09-18T09:19:22Z</time>
      </trkpt>
      <trkpt lat="44.57215" lon="6.22243">
        <ele>962.4</ele>
        <time>2022-09-18T09:19:23Z</time>
      </trkpt>
      <trkpt lat="44.57215" lon="6.22246">
        <ele>962.8</ele>
        <time>2022-09-18T09:19:24Z</time>
      </trkpt>
      <trkpt lat="44.57216" lon="6.22249">
        <ele>963.2</ele>
        <time>2022-09-18T09:19:25Z</time>
      </trkpt>
      <trkpt lat="44.57216" lon="6.22253">
        <ele>963.4</ele>
        <time>2022-09-18T09:19:26Z</time>
      </trkpt>
      <trkpt lat="44.57217" lon="6.22256">
        <ele>963.8</ele>
        <time>2022-09-18T09:19:27Z</time>
      </trkpt>
      <trkpt lat="44.57217" lon="6.22259">
        <ele>964.2</ele>
        <time>2022-09-18T09:19:28Z</time>
      </trkpt>
      <trkpt lat="44.57218" lon="6.22262">
        <ele>964.6</ele>
        <time>2022-09-18T09:19:29Z</time>
      </trkpt>
      <trkpt lat="44.57218" lon="6.22266">
        <ele>965</ele>
        <time>2022-09-18T09:19:30Z</time>
      </trkpt>
      <trkpt lat="44.57219" lon="6.22269">
        <ele>965.4</ele>
        <time>2022-09-18T09:19:31Z</time>
      </trkpt>
      <trkpt lat="44.5722" lon="6.22272">
        <ele>965.6</ele>
        <time>2022-09-18T09:19:32Z</time>
      </trkpt>
      <trkpt lat="44.5722" lon="6.22275">
        <ele>966</ele>
        <time>2022-09-18T09:19:33Z</time>
      </trkpt>
      <trkpt lat="44.57221" lon="6.22278">
        <ele>966.4</ele>
        <time>2022-09-18T09:19:34Z</time>
      </trkpt>
      <trkpt lat="44.57222" lon="6.22282">
        <ele>966.8</ele>
        <time>2022-09-18T09:19:35Z</time>
      </trkpt>
      <trkpt lat="44.57222" lon="6.22285">
        <ele>967</ele>
        <time>2022-09-18T09:19:36Z</time>
      </trkpt>
      <trkpt lat="44.57223" lon="6.22288">
        <ele>967.2</ele>
        <time>2022-09-18T09:19:37Z</time>
      </trkpt>
      <trkpt lat="44.57224" lon="6.22291">
        <ele>967.6</ele>
        <time>2022-09-18T09:19:38Z</time>
      </trkpt>
      <trkpt lat="44.57224" lon="6.22294">
        <ele>967.8</ele>
        <time>2022-09-18T09:19:39Z</time>
      </trkpt>
      <trkpt lat="44.57225" lon="6.22296">
        <ele>968.2</ele>
        <time>2022-09-18T09:19:40Z</time>
      </trkpt>
      <trkpt lat="44.57226" lon="6.22299">
        <ele>968.4</ele>
        <time>2022-09-18T09:19:41Z</time>
      </trkpt>
      <trkpt lat="44.57227" lon="6.22302">
        <ele>968.6</ele>
        <time>2022-09-18T09:19:42Z</time>
      </trkpt>
      <trkpt lat="44.57228" lon="6.22305">
        <ele>969</ele>
        <time>2022-09-18T09:19:43Z</time>
      </trkpt>
      <trkpt lat="44.5723" lon="6.22308">
        <ele>969.2</ele>
        <time>2022-09-18T09:19:44Z</time>
      </trkpt>
      <trkpt lat="44.57231" lon="6.22311">
        <ele>969.4</ele>
        <time>2022-09-18T09:19:45Z</time>
      </trkpt>
      <trkpt lat="44.57232" lon="6.22313">
        <ele>969.6</ele>
        <time>2022-09-18T09:19:46Z</time>
      </trkpt>
      <trkpt lat="44.57234" lon="6.22316">
        <ele>970</ele>
        <time>2022-09-18T09:19:47Z</time>
      </trkpt>
      <trkpt lat="44.57235" lon="6.22318">
        <ele>970.4</ele>
        <time>2022-09-18T09:19:48Z</time>
      </trkpt>
      <trkpt lat="44.57237" lon="6.2232">
        <ele>970.8</ele>
        <time>2022-09-18T09:19:49Z</time>
      </trkpt>
      <trkpt lat="44.57238" lon="6.22323">
        <ele>971.2</ele>
        <time>2022-09-18T09:19:50Z</time>
      </trkpt>
      <trkpt lat="44.5724" lon="6.22324">
        <ele>971.2</ele>
        <time>2022-09-18T09:19:51Z</time>
      </trkpt>
      <trkpt lat="44.57242" lon="6.22326">
        <ele>971.4</ele>
        <time>2022-09-18T09:19:52Z</time>
      </trkpt>
      <trkpt lat="44.57244" lon="6.22328">
        <ele>971.6</ele>
        <time>2022-09-18T09:19:53Z</time>
      </trkpt>
      <trkpt lat="44.57246" lon="6.2233">
        <ele>972</ele>
        <time>2022-09-18T09:19:54Z</time>
      </trkpt>
      <trkpt lat="44.57248" lon="6.22331">
        <ele>972</ele>
        <time>2022-09-18T09:19:55Z</time>
      </trkpt>
      <trkpt lat="44.57249" lon="6.22332">
        <ele>972.2</ele>
        <time>2022-09-18T09:19:56Z</time>
      </trkpt>
      <trkpt lat="44.57252" lon="6.22333">
        <ele>972.4</ele>
        <time>2022-09-18T09:19:57Z</time>
      </trkpt>
      <trkpt lat="44.57254" lon="6.22334">
        <ele>972.8</ele>
        <time>2022-09-18T09:19:58Z</time>
      </trkpt>
      <trkpt lat="44.57256" lon="6.22335">
        <ele>973</ele>
        <time>2022-09-18T09:19:59Z</time>
      </trkpt>
      <trkpt lat="44.57259" lon="6.22336">
        <ele>973.2</ele>
        <time>2022-09-18T09:20:00Z</time>
      </trkpt>
      <trkpt lat="44.57261" lon="6.22336">
        <ele>973.4</ele>
        <time>2022-09-18T09:20:01Z</time>
      </trkpt>
      <trkpt lat="44.57263" lon="6.22337">
        <ele>973.8</ele>
        <time>2022-09-18T09:20:02Z</time>
      </trkpt>
      <trkpt lat="44.57266" lon="6.22337">
        <ele>973.8</ele>
        <time>2022-09-18T09:20:03Z</time>
      </trkpt>
      <trkpt lat="44.57268" lon="6.22337">
        <ele>974</ele>
        <time>2022-09-18T09:20:04Z</time>
      </trkpt>
      <trkpt lat="44.5727" lon="6.22338">
        <ele>974</ele>
        <time>2022-09-18T09:20:05Z</time>
      </trkpt>
      <trkpt lat="44.57272" lon="6.22338">
        <ele>974.2</ele>
        <time>2022-09-18T09:20:06Z</time>
      </trkpt>
      <trkpt lat="44.57275" lon="6.22338">
        <ele>974.4</ele>
        <time>2022-09-18T09:20:07Z</time>
      </trkpt>
      <trkpt lat="44.57277" lon="6.22339">
        <ele>974.6</ele>
        <time>2022-09-18T09:20:08Z</time>
      </trkpt>
      <trkpt lat="44.57279" lon="6.22339">
        <ele>974.6</ele>
        <time>2022-09-18T09:20:09Z</time>
      </trkpt>
      <trkpt lat="44.57282" lon="6.2234">
        <ele>975</ele>
        <time>2022-09-18T09:20:10Z</time>
      </trkpt>
      <trkpt lat="44.57284" lon="6.2234">
        <ele>975</ele>
        <time>2022-09-18T09:20:11Z</time>
      </trkpt>
      <trkpt lat="44.57287" lon="6.2234">
        <ele>975.2</ele>
        <time>2022-09-18T09:20:12Z</time>
      </trkpt>
      <trkpt lat="44.57289" lon="6.22341">
        <ele>975.4</ele>
        <time>2022-09-18T09:20:13Z</time>
      </trkpt>
      <trkpt lat="44.57291" lon="6.22341">
        <ele>975.6</ele>
        <time>2022-09-18T09:20:14Z</time>
      </trkpt>
      <trkpt lat="44.57294" lon="6.22342">
        <ele>975.8</ele>
        <time>2022-09-18T09:20:15Z</time>
      </trkpt>
      <trkpt lat="44.57296" lon="6.22342">
        <ele>976</ele>
        <time>2022-09-18T09:20:16Z</time>
      </trkpt>
      <trkpt lat="44.57299" lon="6.22343">
        <ele>976.2</ele>
        <time>2022-09-18T09:20:17Z</time>
      </trkpt>
      <trkpt lat="44.57301" lon="6.22344">
        <ele>976.4</ele>
        <time>2022-09-18T09:20:18Z</time>
      </trkpt>
      <trkpt lat="44.57304" lon="6.22345">
        <ele>976.6</ele>
        <time>2022-09-18T09:20:19Z</time>
      </trkpt>
      <trkpt lat="44.57306" lon="6.22346">
        <ele>977</ele>
        <time>2022-09-18T09:20:20Z</time>
      </trkpt>
      <trkpt lat="44.57308" lon="6.22347">
        <ele>977.2</ele>
        <time>2022-09-18T09:20:21Z</time>
      </trkpt>
      <trkpt lat="44.5731" lon="6.22349">
        <ele>977.4</ele>
        <time>2022-09-18T09:20:22Z</time>
      </trkpt>
      <trkpt lat="44.57312" lon="6.2235">
        <ele>977.6</ele>
        <time>2022-09-18T09:20:23Z</time>
      </trkpt>
      <trkpt lat="44.57315" lon="6.22351">
        <ele>977.8</ele>
        <time>2022-09-18T09:20:24Z</time>
      </trkpt>
      <trkpt lat="44.57317" lon="6.22353">
        <ele>978.2</ele>
        <time>2022-09-18T09:20:25Z</time>
      </trkpt>
      <trkpt lat="44.57319" lon="6.22354">
        <ele>978.6</ele>
        <time>2022-09-18T09:20:26Z</time>
      </trkpt>
      <trkpt lat="44.57322" lon="6.22355">
        <ele>978.8</ele>
        <time>2022-09-18T09:20:27Z</time>
      </trkpt>
      <trkpt lat="44.57324" lon="6.22357">
        <ele>979</ele>
        <time>2022-09-18T09:20:28Z</time>
      </trkpt>
      <trkpt lat="44.57326" lon="6.22358">
        <ele>979.2</ele>
        <time>2022-09-18T09:20:29Z</time>
      </trkpt>
      <trkpt lat="44.57328" lon="6.2236">
        <ele>979.4</ele>
        <time>2022-09-18T09:20:30Z</time>
      </trkpt>
      <trkpt lat="44.5733" lon="6.22361">
        <ele>979.6</ele>
        <time>2022-09-18T09:20:31Z</time>
      </trkpt>
      <trkpt lat="44.57333" lon="6.22362">
        <ele>979.8</ele>
        <time>2022-09-18T09:20:32Z</time>
      </trkpt>
      <trkpt lat="44.57335" lon="6.22363">
        <ele>980</ele>
        <time>2022-09-18T09:20:33Z</time>
      </trkpt>
      <trkpt lat="44.57337" lon="6.22365">
        <ele>980.2</ele>
        <time>2022-09-18T09:20:34Z</time>
      </trkpt>
      <trkpt lat="44.57339" lon="6.22366">
        <ele>980.6</ele>
        <time>2022-09-18T09:20:35Z</time>
      </trkpt>
      <trkpt lat="44.57342" lon="6.22367">
        <ele>980.6</ele>
        <time>2022-09-18T09:20:36Z</time>
      </trkpt>
      <trkpt lat="44.57344" lon="6.22367">
        <ele>980.8</ele>
        <time>2022-09-18T09:20:37Z</time>
      </trkpt>
      <trkpt lat="44.57346" lon="6.22369">
        <ele>981.2</ele>
        <time>2022-09-18T09:20:38Z</time>
      </trkpt>
      <trkpt lat="44.57348" lon="6.2237">
        <ele>981.4</ele>
        <time>2022-09-18T09:20:39Z</time>
      </trkpt>
      <trkpt lat="44.5735" lon="6.22371">
        <ele>981.6</ele>
        <time>2022-09-18T09:20:40Z</time>
      </trkpt>
      <trkpt lat="44.57352" lon="6.22373">
        <ele>981.6</ele>
        <time>2022-09-18T09:20:41Z</time>
      </trkpt>
      <trkpt lat="44.57355" lon="6.22374">
        <ele>981.8</ele>
        <time>2022-09-18T09:20:42Z</time>
      </trkpt>
      <trkpt lat="44.57357" lon="6.22375">
        <ele>982</ele>
        <time>2022-09-18T09:20:43Z</time>
      </trkpt>
      <trkpt lat="44.57359" lon="6.22376">
        <ele>982.4</ele>
        <time>2022-09-18T09:20:44Z</time>
      </trkpt>
      <trkpt lat="44.57361" lon="6.22377">
        <ele>982.6</ele>
        <time>2022-09-18T09:20:45Z</time>
      </trkpt>
      <trkpt lat="44.57362" lon="6.22378">
        <ele>983</ele>
        <time>2022-09-18T09:20:46Z</time>
      </trkpt>
      <trkpt lat="44.57364" lon="6.22378">
        <ele>983</ele>
        <time>2022-09-18T09:20:47Z</time>
      </trkpt>
      <trkpt lat="44.57367" lon="6.22379">
        <ele>983.6</ele>
        <time>2022-09-18T09:20:49Z</time>
      </trkpt>
      <trkpt lat="44.57369" lon="6.22379">
        <ele>984.2</ele>
        <time>2022-09-18T09:20:51Z</time>
      </trkpt>
      <trkpt lat="44.57371" lon="6.22377">
        <ele>984.8</ele>
        <time>2022-09-18T09:20:53Z</time>
      </trkpt>
      <trkpt lat="44.57372" lon="6.22376">
        <ele>985</ele>
        <time>2022-09-18T09:20:55Z</time>
      </trkpt>
      <trkpt lat="44.5737" lon="6.22374">
        <ele>985.4</ele>
        <time>2022-09-18T09:20:58Z</time>
      </trkpt>
      <trkpt lat="44.57367" lon="6.22375">
        <ele>985.4</ele>
        <time>2022-09-18T09:21:00Z</time>
      </trkpt>
      <trkpt lat="44.57366" lon="6.22379">
        <ele>985.2</ele>
        <time>2022-09-18T09:21:02Z</time>
      </trkpt>
      <trkpt lat="44.57366" lon="6.22383">
        <ele>985.4</ele>
        <time>2022-09-18T09:21:04Z</time>
      </trkpt>
      <trkpt lat="44.57368" lon="6.22384">
        <ele>985</ele>
        <time>2022-09-18T09:21:08Z</time>
      </trkpt>
      <trkpt lat="44.57369" lon="6.22381">
        <ele>985</ele>
        <time>2022-09-18T09:21:11Z</time>
      </trkpt>
      <trkpt lat="44.5737" lon="6.22379">
        <ele>984.6</ele>
        <time>2022-09-18T09:21:13Z</time>
      </trkpt>
      <trkpt lat="44.57371" lon="6.22376">
        <ele>984</ele>
        <time>2022-09-18T09:21:16Z</time>
      </trkpt>
      <trkpt lat="44.57372" lon="6.22373">
        <ele>983.6</ele>
        <time>2022-09-18T09:21:18Z</time>
      </trkpt>
      <trkpt lat="44.57371" lon="6.2237">
        <ele>983</ele>
        <time>2022-09-18T09:21:22Z</time>
      </trkpt>
      <trkpt lat="44.57372" lon="6.22365">
        <ele>982.6</ele>
        <time>2022-09-18T09:21:24Z</time>
      </trkpt>
      <trkpt lat="44.57372" lon="6.22363">
        <ele>982.4</ele>
        <time>2022-09-18T09:21:25Z</time>
      </trkpt>
      <trkpt lat="44.57372" lon="6.2236">
        <ele>982.2</ele>
        <time>2022-09-18T09:21:26Z</time>
      </trkpt>
      <trkpt lat="44.57373" lon="6.22358">
        <ele>982</ele>
        <time>2022-09-18T09:21:27Z</time>
      </trkpt>
      <trkpt lat="44.57374" lon="6.22355">
        <ele>981.8</ele>
        <time>2022-09-18T09:21:28Z</time>
      </trkpt>
      <trkpt lat="44.57375" lon="6.22353">
        <ele>981.6</ele>
        <time>2022-09-18T09:21:29Z</time>
      </trkpt>
      <trkpt lat="44.57376" lon="6.22351">
        <ele>981.4</ele>
        <time>2022-09-18T09:21:30Z</time>
      </trkpt>
      <trkpt lat="44.57377" lon="6.22348">
        <ele>981</ele>
        <time>2022-09-18T09:21:31Z</time>
      </trkpt>
      <trkpt lat="44.57378" lon="6.22345">
        <ele>981</ele>
        <time>2022-09-18T09:21:32Z</time>
      </trkpt>
      <trkpt lat="44.57379" lon="6.22343">
        <ele>980.8</ele>
        <time>2022-09-18T09:21:33Z</time>
      </trkpt>
      <trkpt lat="44.5738" lon="6.2234">
        <ele>980.8</ele>
        <time>2022-09-18T09:21:34Z</time>
      </trkpt>
      <trkpt lat="44.57381" lon="6.22337">
        <ele>980.6</ele>
        <time>2022-09-18T09:21:35Z</time>
      </trkpt>
      <trkpt lat="44.57382" lon="6.22334">
        <ele>980.2</ele>
        <time>2022-09-18T09:21:36Z</time>
      </trkpt>
      <trkpt lat="44.57383" lon="6.22331">
        <ele>980</ele>
        <time>2022-09-18T09:21:37Z</time>
      </trkpt>
      <trkpt lat="44.57384" lon="6.22328">
        <ele>979.8</ele>
        <time>2022-09-18T09:21:38Z</time>
      </trkpt>
      <trkpt lat="44.57385" lon="6.22326">
        <ele>979.6</ele>
        <time>2022-09-18T09:21:39Z</time>
      </trkpt>
      <trkpt lat="44.57387" lon="6.22324">
        <ele>979.6</ele>
        <time>2022-09-18T09:21:40Z</time>
      </trkpt>
      <trkpt lat="44.57389" lon="6.22322">
        <ele>979.6</ele>
        <time>2022-09-18T09:21:41Z</time>
      </trkpt>
      <trkpt lat="44.57392" lon="6.22321">
        <ele>979.4</ele>
        <time>2022-09-18T09:21:42Z</time>
      </trkpt>
      <trkpt lat="44.57395" lon="6.2232">
        <ele>979.6</ele>
        <time>2022-09-18T09:21:43Z</time>
      </trkpt>
      <trkpt lat="44.57397" lon="6.22321">
        <ele>979.8</ele>
        <time>2022-09-18T09:21:44Z</time>
      </trkpt>
      <trkpt lat="44.574" lon="6.22322">
        <ele>979.8</ele>
        <time>2022-09-18T09:21:45Z</time>
      </trkpt>
      <trkpt lat="44.57402" lon="6.22324">
        <ele>979.8</ele>
        <time>2022-09-18T09:21:46Z</time>
      </trkpt>
      <trkpt lat="44.57404" lon="6.22326">
        <ele>980</ele>
        <time>2022-09-18T09:21:47Z</time>
      </trkpt>
      <trkpt lat="44.57406" lon="6.22329">
        <ele>980</ele>
        <time>2022-09-18T09:21:48Z</time>
      </trkpt>
      <trkpt lat="44.57407" lon="6.22332">
        <ele>980</ele>
        <time>2022-09-18T09:21:49Z</time>
      </trkpt>
      <trkpt lat="44.57409" lon="6.22335">
        <ele>980.4</ele>
        <time>2022-09-18T09:21:50Z</time>
      </trkpt>
      <trkpt lat="44.5741" lon="6.22338">
        <ele>980.6</ele>
        <time>2022-09-18T09:21:51Z</time>
      </trkpt>
      <trkpt lat="44.57411" lon="6.22341">
        <ele>980.6</ele>
        <time>2022-09-18T09:21:52Z</time>
      </trkpt>
      <trkpt lat="44.57412" lon="6.22344">
        <ele>980.8</ele>
        <time>2022-09-18T09:21:53Z</time>
      </trkpt>
      <trkpt lat="44.57413" lon="6.22348">
        <ele>981.4</ele>
        <time>2022-09-18T09:21:54Z</time>
      </trkpt>
      <trkpt lat="44.57413" lon="6.22351">
        <ele>981.6</ele>
        <time>2022-09-18T09:21:55Z</time>
      </trkpt>
      <trkpt lat="44.57414" lon="6.22354">
        <ele>982</ele>
        <time>2022-09-18T09:21:56Z</time>
      </trkpt>
      <trkpt lat="44.57415" lon="6.22357">
        <ele>982.2</ele>
        <time>2022-09-18T09:21:57Z</time>
      </trkpt>
      <trkpt lat="44.57416" lon="6.2236">
        <ele>982.6</ele>
        <time>2022-09-18T09:21:58Z</time>
      </trkpt>
      <trkpt lat="44.57417" lon="6.22363">
        <ele>983</ele>
        <time>2022-09-18T09:21:59Z</time>
      </trkpt>
      <trkpt lat="44.57418" lon="6.22366">
        <ele>983.4</ele>
        <time>2022-09-18T09:22:00Z</time>
      </trkpt>
      <trkpt lat="44.57419" lon="6.22369">
        <ele>983.6</ele>
        <time>2022-09-18T09:22:01Z</time>
      </trkpt>
      <trkpt lat="44.5742" lon="6.22372">
        <ele>984</ele>
        <time>2022-09-18T09:22:02Z</time>
      </trkpt>
      <trkpt lat="44.57421" lon="6.22375">
        <ele>984.4</ele>
        <time>2022-09-18T09:22:03Z</time>
      </trkpt>
      <trkpt lat="44.57422" lon="6.22378">
        <ele>984.8</ele>
        <time>2022-09-18T09:22:04Z</time>
      </trkpt>
      <trkpt lat="44.57423" lon="6.22381">
        <ele>985.2</ele>
        <time>2022-09-18T09:22:05Z</time>
      </trkpt>
      <trkpt lat="44.57424" lon="6.22384">
        <ele>985.4</ele>
        <time>2022-09-18T09:22:06Z</time>
      </trkpt>
      <trkpt lat="44.57425" lon="6.22387">
        <ele>985.8</ele>
        <time>2022-09-18T09:22:07Z</time>
      </trkpt>
      <trkpt lat="44.57427" lon="6.22389">
        <ele>986.2</ele>
        <time>2022-09-18T09:22:08Z</time>
      </trkpt>
      <trkpt lat="44.57428" lon="6.22392">
        <ele>986.6</ele>
        <time>2022-09-18T09:22:09Z</time>
      </trkpt>
      <trkpt lat="44.5743" lon="6.22394">
        <ele>987</ele>
        <time>2022-09-18T09:22:10Z</time>
      </trkpt>
      <trkpt lat="44.57431" lon="6.22396">
        <ele>987.6</ele>
        <time>2022-09-18T09:22:11Z</time>
      </trkpt>
      <trkpt lat="44.57433" lon="6.22399">
        <ele>988</ele>
        <time>2022-09-18T09:22:12Z</time>
      </trkpt>
      <trkpt lat="44.57435" lon="6.22401">
        <ele>988.4</ele>
        <time>2022-09-18T09:22:13Z</time>
      </trkpt>
      <trkpt lat="44.57436" lon="6.22403">
        <ele>989</ele>
        <time>2022-09-18T09:22:14Z</time>
      </trkpt>
      <trkpt lat="44.57437" lon="6.22406">
        <ele>989.4</ele>
        <time>2022-09-18T09:22:15Z</time>
      </trkpt>
      <trkpt lat="44.57439" lon="6.22408">
        <ele>989.6</ele>
        <time>2022-09-18T09:22:16Z</time>
      </trkpt>
      <trkpt lat="44.5744" lon="6.2241">
        <ele>990.2</ele>
        <time>2022-09-18T09:22:17Z</time>
      </trkpt>
      <trkpt lat="44.57442" lon="6.22412">
        <ele>990.8</ele>
        <time>2022-09-18T09:22:18Z</time>
      </trkpt>
      <trkpt lat="44.57444" lon="6.22414">
        <ele>991.6</ele>
        <time>2022-09-18T09:22:19Z</time>
      </trkpt>
      <trkpt lat="44.57445" lon="6.22416">
        <ele>991.8</ele>
        <time>2022-09-18T09:22:20Z</time>
      </trkpt>
      <trkpt lat="44.57447" lon="6.22418">
        <ele>992</ele>
        <time>2022-09-18T09:22:21Z</time>
      </trkpt>
      <trkpt lat="44.57449" lon="6.2242">
        <ele>992.4</ele>
        <time>2022-09-18T09:22:22Z</time>
      </trkpt>
      <trkpt lat="44.57451" lon="6.22422">
        <ele>992.6</ele>
        <time>2022-09-18T09:22:23Z</time>
      </trkpt>
      <trkpt lat="44.57453" lon="6.22424">
        <ele>993</ele>
        <time>2022-09-18T09:22:24Z</time>
      </trkpt>
      <trkpt lat="44.57455" lon="6.22425">
        <ele>993.4</ele>
        <time>2022-09-18T09:22:25Z</time>
      </trkpt>
      <trkpt lat="44.57457" lon="6.22427">
        <ele>993.8</ele>
        <time>2022-09-18T09:22:26Z</time>
      </trkpt>
      <trkpt lat="44.57459" lon="6.22428">
        <ele>994</ele>
        <time>2022-09-18T09:22:27Z</time>
      </trkpt>
      <trkpt lat="44.57461" lon="6.2243">
        <ele>994.4</ele>
        <time>2022-09-18T09:22:28Z</time>
      </trkpt>
      <trkpt lat="44.57462" lon="6.22432">
        <ele>994.6</ele>
        <time>2022-09-18T09:22:29Z</time>
      </trkpt>
      <trkpt lat="44.57464" lon="6.22434">
        <ele>994.8</ele>
        <time>2022-09-18T09:22:30Z</time>
      </trkpt>
      <trkpt lat="44.57466" lon="6.22435">
        <ele>995</ele>
        <time>2022-09-18T09:22:31Z</time>
      </trkpt>
      <trkpt lat="44.57468" lon="6.22437">
        <ele>995.4</ele>
        <time>2022-09-18T09:22:32Z</time>
      </trkpt>
      <trkpt lat="44.5747" lon="6.22438">
        <ele>995.8</ele>
        <time>2022-09-18T09:22:33Z</time>
      </trkpt>
      <trkpt lat="44.57471" lon="6.22439">
        <ele>995.8</ele>
        <time>2022-09-18T09:22:34Z</time>
      </trkpt>
      <trkpt lat="44.57473" lon="6.2244">
        <ele>996.2</ele>
        <time>2022-09-18T09:22:35Z</time>
      </trkpt>
      <trkpt lat="44.57476" lon="6.2244">
        <ele>996.6</ele>
        <time>2022-09-18T09:22:36Z</time>
      </trkpt>
      <trkpt lat="44.57478" lon="6.22441">
        <ele>996.8</ele>
        <time>2022-09-18T09:22:37Z</time>
      </trkpt>
      <trkpt lat="44.5748" lon="6.22442">
        <ele>997</ele>
        <time>2022-09-18T09:22:38Z</time>
      </trkpt>
      <trkpt lat="44.57482" lon="6.22443">
        <ele>997.2</ele>
        <time>2022-09-18T09:22:39Z</time>
      </trkpt>
      <trkpt lat="44.57484" lon="6.22444">
        <ele>997.6</ele>
        <time>2022-09-18T09:22:40Z</time>
      </trkpt>
      <trkpt lat="44.57486" lon="6.22445">
        <ele>997.8</ele>
        <time>2022-09-18T09:22:41Z</time>
      </trkpt>
      <trkpt lat="44.57489" lon="6.22445">
        <ele>998.2</ele>
        <time>2022-09-18T09:22:42Z</time>
      </trkpt>
      <trkpt lat="44.57491" lon="6.22446">
        <ele>998.6</ele>
        <time>2022-09-18T09:22:43Z</time>
      </trkpt>
      <trkpt lat="44.57493" lon="6.22446">
        <ele>998.6</ele>
        <time>2022-09-18T09:22:44Z</time>
      </trkpt>
      <trkpt lat="44.57495" lon="6.22447">
        <ele>998.8</ele>
        <time>2022-09-18T09:22:45Z</time>
      </trkpt>
      <trkpt lat="44.57498" lon="6.22447">
        <ele>999</ele>
        <time>2022-09-18T09:22:46Z</time>
      </trkpt>
      <trkpt lat="44.575" lon="6.22447">
        <ele>999.4</ele>
        <time>2022-09-18T09:22:47Z</time>
      </trkpt>
      <trkpt lat="44.57502" lon="6.22448">
        <ele>999.8</ele>
        <time>2022-09-18T09:22:48Z</time>
      </trkpt>
      <trkpt lat="44.57504" lon="6.22449">
        <ele>999.8</ele>
        <time>2022-09-18T09:22:49Z</time>
      </trkpt>
      <trkpt lat="44.57506" lon="6.2245">
        <ele>1000</ele>
        <time>2022-09-18T09:22:50Z</time>
      </trkpt>
      <trkpt lat="44.57508" lon="6.2245">
        <ele>1000.2</ele>
        <time>2022-09-18T09:22:51Z</time>
      </trkpt>
      <trkpt lat="44.57511" lon="6.22451">
        <ele>1000.4</ele>
        <time>2022-09-18T09:22:52Z</time>
      </trkpt>
      <trkpt lat="44.57513" lon="6.22452">
        <ele>1000.6</ele>
        <time>2022-09-18T09:22:53Z</time>
      </trkpt>
      <trkpt lat="44.57515" lon="6.22453">
        <ele>1001</ele>
        <time>2022-09-18T09:22:54Z</time>
      </trkpt>
      <trkpt lat="44.57517" lon="6.22453">
        <ele>1001.2</ele>
        <time>2022-09-18T09:22:55Z</time>
      </trkpt>
      <trkpt lat="44.57519" lon="6.22454">
        <ele>1001.4</ele>
        <time>2022-09-18T09:22:56Z</time>
      </trkpt>
      <trkpt lat="44.57522" lon="6.22455">
        <ele>1001.6</ele>
        <time>2022-09-18T09:22:57Z</time>
      </trkpt>
      <trkpt lat="44.57524" lon="6.22456">
        <ele>1001.8</ele>
        <time>2022-09-18T09:22:58Z</time>
      </trkpt>
      <trkpt lat="44.57526" lon="6.22457">
        <ele>1001.8</ele>
        <time>2022-09-18T09:22:59Z</time>
      </trkpt>
      <trkpt lat="44.57527" lon="6.22458">
        <ele>1002.2</ele>
        <time>2022-09-18T09:23:00Z</time>
      </trkpt>
      <trkpt lat="44.57529" lon="6.22459">
        <ele>1002.4</ele>
        <time>2022-09-18T09:23:01Z</time>
      </trkpt>
      <trkpt lat="44.57531" lon="6.2246">
        <ele>1002.8</ele>
        <time>2022-09-18T09:23:02Z</time>
      </trkpt>
      <trkpt lat="44.57533" lon="6.22461">
        <ele>1002.8</ele>
        <time>2022-09-18T09:23:03Z</time>
      </trkpt>
      <trkpt lat="44.57535" lon="6.22462">
        <ele>1003</ele>
        <time>2022-09-18T09:23:04Z</time>
      </trkpt>
      <trkpt lat="44.57537" lon="6.22464">
        <ele>1003.4</ele>
        <time>2022-09-18T09:23:05Z</time>
      </trkpt>
      <trkpt lat="44.57539" lon="6.22465">
        <ele>1003.4</ele>
        <time>2022-09-18T09:23:06Z</time>
      </trkpt>
      <trkpt lat="44.57541" lon="6.22466">
        <ele>1003.6</ele>
        <time>2022-09-18T09:23:07Z</time>
      </trkpt>
      <trkpt lat="44.57543" lon="6.22468">
        <ele>1003.8</ele>
        <time>2022-09-18T09:23:08Z</time>
      </trkpt>
      <trkpt lat="44.57545" lon="6.2247">
        <ele>1003.8</ele>
        <time>2022-09-18T09:23:09Z</time>
      </trkpt>
      <trkpt lat="44.57547" lon="6.22472">
        <ele>1004</ele>
        <time>2022-09-18T09:23:10Z</time>
      </trkpt>
      <trkpt lat="44.57548" lon="6.22474">
        <ele>1004.2</ele>
        <time>2022-09-18T09:23:11Z</time>
      </trkpt>
      <trkpt lat="44.5755" lon="6.22476">
        <ele>1004.4</ele>
        <time>2022-09-18T09:23:12Z</time>
      </trkpt>
      <trkpt lat="44.57552" lon="6.22478">
        <ele>1004.6</ele>
        <time>2022-09-18T09:23:13Z</time>
      </trkpt>
      <trkpt lat="44.57553" lon="6.2248">
        <ele>1004.6</ele>
        <time>2022-09-18T09:23:14Z</time>
      </trkpt>
      <trkpt lat="44.57555" lon="6.22482">
        <ele>1005</ele>
        <time>2022-09-18T09:23:15Z</time>
      </trkpt>
      <trkpt lat="44.57556" lon="6.22484">
        <ele>1005.2</ele>
        <time>2022-09-18T09:23:16Z</time>
      </trkpt>
      <trkpt lat="44.57558" lon="6.22486">
        <ele>1005.4</ele>
        <time>2022-09-18T09:23:17Z</time>
      </trkpt>
      <trkpt lat="44.57559" lon="6.22488">
        <ele>1005.6</ele>
        <time>2022-09-18T09:23:18Z</time>
      </trkpt>
      <trkpt lat="44.57561" lon="6.2249">
        <ele>1005.8</ele>
        <time>2022-09-18T09:23:19Z</time>
      </trkpt>
      <trkpt lat="44.57563" lon="6.22492">
        <ele>1006</ele>
        <time>2022-09-18T09:23:20Z</time>
      </trkpt>
      <trkpt lat="44.57565" lon="6.22493">
        <ele>1006.4</ele>
        <time>2022-09-18T09:23:21Z</time>
      </trkpt>
      <trkpt lat="44.57566" lon="6.22495">
        <ele>1006.8</ele>
        <time>2022-09-18T09:23:22Z</time>
      </trkpt>
      <trkpt lat="44.57568" lon="6.22497">
        <ele>1007</ele>
        <time>2022-09-18T09:23:23Z</time>
      </trkpt>
      <trkpt lat="44.5757" lon="6.22499">
        <ele>1007.2</ele>
        <time>2022-09-18T09:23:24Z</time>
      </trkpt>
      <trkpt lat="44.57571" lon="6.22501">
        <ele>1007.6</ele>
        <time>2022-09-18T09:23:25Z</time>
      </trkpt>
      <trkpt lat="44.57573" lon="6.22503">
        <ele>1007.8</ele>
        <time>2022-09-18T09:23:26Z</time>
      </trkpt>
      <trkpt lat="44.57575" lon="6.22505">
        <ele>1008</ele>
        <time>2022-09-18T09:23:27Z</time>
      </trkpt>
      <trkpt lat="44.57577" lon="6.22506">
        <ele>1008.2</ele>
        <time>2022-09-18T09:23:28Z</time>
      </trkpt>
      <trkpt lat="44.57579" lon="6.22507">
        <ele>1008.6</ele>
        <time>2022-09-18T09:23:29Z</time>
      </trkpt>
      <trkpt lat="44.5758" lon="6.22509">
        <ele>1008.6</ele>
        <time>2022-09-18T09:23:30Z</time>
      </trkpt>
      <trkpt lat="44.57582" lon="6.2251">
        <ele>1008.8</ele>
        <time>2022-09-18T09:23:31Z</time>
      </trkpt>
      <trkpt lat="44.57585" lon="6.22511">
        <ele>1009.2</ele>
        <time>2022-09-18T09:23:32Z</time>
      </trkpt>
      <trkpt lat="44.57587" lon="6.22511">
        <ele>1009.2</ele>
        <time>2022-09-18T09:23:33Z</time>
      </trkpt>
      <trkpt lat="44.57589" lon="6.22511">
        <ele>1009.2</ele>
        <time>2022-09-18T09:23:34Z</time>
      </trkpt>
      <trkpt lat="44.57591" lon="6.22511">
        <ele>1009.6</ele>
        <time>2022-09-18T09:23:35Z</time>
      </trkpt>
      <trkpt lat="44.57594" lon="6.2251">
        <ele>1009.8</ele>
        <time>2022-09-18T09:23:36Z</time>
      </trkpt>
      <trkpt lat="44.57596" lon="6.22509">
        <ele>1010</ele>
        <time>2022-09-18T09:23:37Z</time>
      </trkpt>
      <trkpt lat="44.57599" lon="6.22508">
        <ele>1010.2</ele>
        <time>2022-09-18T09:23:38Z</time>
      </trkpt>
      <trkpt lat="44.57601" lon="6.22507">
        <ele>1010.4</ele>
        <time>2022-09-18T09:23:39Z</time>
      </trkpt>
      <trkpt lat="44.57603" lon="6.22505">
        <ele>1010.4</ele>
        <time>2022-09-18T09:23:40Z</time>
      </trkpt>
      <trkpt lat="44.57604" lon="6.22503">
        <ele>1010.4</ele>
        <time>2022-09-18T09:23:41Z</time>
      </trkpt>
      <trkpt lat="44.57606" lon="6.22501">
        <ele>1010.6</ele>
        <time>2022-09-18T09:23:42Z</time>
      </trkpt>
      <trkpt lat="44.57607" lon="6.22499">
        <ele>1010.6</ele>
        <time>2022-09-18T09:23:43Z</time>
      </trkpt>
      <trkpt lat="44.57609" lon="6.22496">
        <ele>1010.8</ele>
        <time>2022-09-18T09:23:44Z</time>
      </trkpt>
      <trkpt lat="44.57609" lon="6.22493">
        <ele>1011</ele>
        <time>2022-09-18T09:23:45Z</time>
      </trkpt>
      <trkpt lat="44.5761" lon="6.2249">
        <ele>1011.2</ele>
        <time>2022-09-18T09:23:46Z</time>
      </trkpt>
      <trkpt lat="44.57611" lon="6.22487">
        <ele>1011.2</ele>
        <time>2022-09-18T09:23:47Z</time>
      </trkpt>
      <trkpt lat="44.57611" lon="6.22483">
        <ele>1011.4</ele>
        <time>2022-09-18T09:23:48Z</time>
      </trkpt>
      <trkpt lat="44.57612" lon="6.2248">
        <ele>1011.4</ele>
        <time>2022-09-18T09:23:49Z</time>
      </trkpt>
      <trkpt lat="44.57612" lon="6.22478">
        <ele>1011.4</ele>
        <time>2022-09-18T09:23:50Z</time>
      </trkpt>
      <trkpt lat="44.57612" lon="6.22474">
        <ele>1011.6</ele>
        <time>2022-09-18T09:23:51Z</time>
      </trkpt>
      <trkpt lat="44.57611" lon="6.22471">
        <ele>1011.6</ele>
        <time>2022-09-18T09:23:52Z</time>
      </trkpt>
      <trkpt lat="44.57611" lon="6.22468">
        <ele>1011.8</ele>
        <time>2022-09-18T09:23:53Z</time>
      </trkpt>
      <trkpt lat="44.5761" lon="6.22464">
        <ele>1011.8</ele>
        <time>2022-09-18T09:23:54Z</time>
      </trkpt>
      <trkpt lat="44.57609" lon="6.22461">
        <ele>1011.8</ele>
        <time>2022-09-18T09:23:55Z</time>
      </trkpt>
      <trkpt lat="44.57608" lon="6.22458">
        <ele>1012</ele>
        <time>2022-09-18T09:23:56Z</time>
      </trkpt>
      <trkpt lat="44.57607" lon="6.22455">
        <ele>1012.2</ele>
        <time>2022-09-18T09:23:57Z</time>
      </trkpt>
      <trkpt lat="44.57605" lon="6.22452">
        <ele>1012.2</ele>
        <time>2022-09-18T09:23:58Z</time>
      </trkpt>
      <trkpt lat="44.57604" lon="6.22449">
        <ele>1012.2</ele>
        <time>2022-09-18T09:23:59Z</time>
      </trkpt>
      <trkpt lat="44.57603" lon="6.22446">
        <ele>1012.4</ele>
        <time>2022-09-18T09:24:00Z</time>
      </trkpt>
      <trkpt lat="44.57601" lon="6.22445">
        <ele>1012.4</ele>
        <time>2022-09-18T09:24:01Z</time>
      </trkpt>
      <trkpt lat="44.57598" lon="6.22442">
        <ele>1012.6</ele>
        <time>2022-09-18T09:24:03Z</time>
      </trkpt>
      <trkpt lat="44.57597" lon="6.2244">
        <ele>1012.8</ele>
        <time>2022-09-18T09:24:04Z</time>
      </trkpt>
      <trkpt lat="44.57596" lon="6.22437">
        <ele>1012.8</ele>
        <time>2022-09-18T09:24:05Z</time>
      </trkpt>
      <trkpt lat="44.57596" lon="6.22434">
        <ele>1012.6</ele>
        <time>2022-09-18T09:24:06Z</time>
      </trkpt>
      <trkpt lat="44.57595" lon="6.22429">
        <ele>1012.8</ele>
        <time>2022-09-18T09:24:08Z</time>
      </trkpt>
      <trkpt lat="44.57594" lon="6.22427">
        <ele>1012.6</ele>
        <time>2022-09-18T09:24:09Z</time>
      </trkpt>
      <trkpt lat="44.57593" lon="6.22425">
        <ele>1012.8</ele>
        <time>2022-09-18T09:24:10Z</time>
      </trkpt>
      <trkpt lat="44.57591" lon="6.22423">
        <ele>1012.8</ele>
        <time>2022-09-18T09:24:11Z</time>
      </trkpt>
      <trkpt lat="44.5759" lon="6.2242">
        <ele>1012.8</ele>
        <time>2022-09-18T09:24:12Z</time>
      </trkpt>
      <trkpt lat="44.57588" lon="6.22418">
        <ele>1012.8</ele>
        <time>2022-09-18T09:24:13Z</time>
      </trkpt>
      <trkpt lat="44.57587" lon="6.22415">
        <ele>1012.8</ele>
        <time>2022-09-18T09:24:14Z</time>
      </trkpt>
      <trkpt lat="44.57586" lon="6.22412">
        <ele>1012.4</ele>
        <time>2022-09-18T09:24:15Z</time>
      </trkpt>
      <trkpt lat="44.57584" lon="6.2241">
        <ele>1012.2</ele>
        <time>2022-09-18T09:24:16Z</time>
      </trkpt>
      <trkpt lat="44.57583" lon="6.22408">
        <ele>1012.2</ele>
        <time>2022-09-18T09:24:17Z</time>
      </trkpt>
      <trkpt lat="44.57582" lon="6.22405">
        <ele>1012.4</ele>
        <time>2022-09-18T09:24:18Z</time>
      </trkpt>
      <trkpt lat="44.5758" lon="6.22403">
        <ele>1012.4</ele>
        <time>2022-09-18T09:24:19Z</time>
      </trkpt>
      <trkpt lat="44.57578" lon="6.224">
        <ele>1012.6</ele>
        <time>2022-09-18T09:24:20Z</time>
      </trkpt>
      <trkpt lat="44.57577" lon="6.22398">
        <ele>1012.8</ele>
        <time>2022-09-18T09:24:21Z</time>
      </trkpt>
      <trkpt lat="44.57575" lon="6.22395">
        <ele>1012.8</ele>
        <time>2022-09-18T09:24:22Z</time>
      </trkpt>
      <trkpt lat="44.57573" lon="6.22393">
        <ele>1012.8</ele>
        <time>2022-09-18T09:24:23Z</time>
      </trkpt>
      <trkpt lat="44.57572" lon="6.2239">
        <ele>1012.8</ele>
        <time>2022-09-18T09:24:24Z</time>
      </trkpt>
      <trkpt lat="44.5757" lon="6.22388">
        <ele>1012.8</ele>
        <time>2022-09-18T09:24:25Z</time>
      </trkpt>
      <trkpt lat="44.57569" lon="6.22385">
        <ele>1012.8</ele>
        <time>2022-09-18T09:24:26Z</time>
      </trkpt>
      <trkpt lat="44.57567" lon="6.22382">
        <ele>1013</ele>
        <time>2022-09-18T09:24:27Z</time>
      </trkpt>
      <trkpt lat="44.57566" lon="6.2238">
        <ele>1013</ele>
        <time>2022-09-18T09:24:28Z</time>
      </trkpt>
      <trkpt lat="44.57565" lon="6.22377">
        <ele>1013.2</ele>
        <time>2022-09-18T09:24:29Z</time>
      </trkpt>
      <trkpt lat="44.57563" lon="6.22375">
        <ele>1013.2</ele>
        <time>2022-09-18T09:24:30Z</time>
      </trkpt>
      <trkpt lat="44.57561" lon="6.22372">
        <ele>1013.4</ele>
        <time>2022-09-18T09:24:31Z</time>
      </trkpt>
      <trkpt lat="44.5756" lon="6.2237">
        <ele>1013.6</ele>
        <time>2022-09-18T09:24:32Z</time>
      </trkpt>
      <trkpt lat="44.57558" lon="6.22368">
        <ele>1013.4</ele>
        <time>2022-09-18T09:24:33Z</time>
      </trkpt>
      <trkpt lat="44.57557" lon="6.22365">
        <ele>1013.6</ele>
        <time>2022-09-18T09:24:34Z</time>
      </trkpt>
      <trkpt lat="44.57555" lon="6.22363">
        <ele>1013.8</ele>
        <time>2022-09-18T09:24:35Z</time>
      </trkpt>
      <trkpt lat="44.57554" lon="6.2236">
        <ele>1013.8</ele>
        <time>2022-09-18T09:24:36Z</time>
      </trkpt>
      <trkpt lat="44.57553" lon="6.22358">
        <ele>1014</ele>
        <time>2022-09-18T09:24:37Z</time>
      </trkpt>
      <trkpt lat="44.57551" lon="6.22355">
        <ele>1014</ele>
        <time>2022-09-18T09:24:38Z</time>
      </trkpt>
      <trkpt lat="44.5755" lon="6.22353">
        <ele>1014.2</ele>
        <time>2022-09-18T09:24:39Z</time>
      </trkpt>
      <trkpt lat="44.57549" lon="6.22351">
        <ele>1014.2</ele>
        <time>2022-09-18T09:24:40Z</time>
      </trkpt>
      <trkpt lat="44.57548" lon="6.22348">
        <ele>1014.4</ele>
        <time>2022-09-18T09:24:41Z</time>
      </trkpt>
      <trkpt lat="44.57547" lon="6.22346">
        <ele>1014.4</ele>
        <time>2022-09-18T09:24:42Z</time>
      </trkpt>
      <trkpt lat="44.57546" lon="6.22343">
        <ele>1014.4</ele>
        <time>2022-09-18T09:24:43Z</time>
      </trkpt>
      <trkpt lat="44.57545" lon="6.2234">
        <ele>1014.4</ele>
        <time>2022-09-18T09:24:44Z</time>
      </trkpt>
      <trkpt lat="44.57544" lon="6.22338">
        <ele>1014.6</ele>
        <time>2022-09-18T09:24:45Z</time>
      </trkpt>
      <trkpt lat="44.57543" lon="6.22335">
        <ele>1015</ele>
        <time>2022-09-18T09:24:46Z</time>
      </trkpt>
      <trkpt lat="44.57542" lon="6.22332">
        <ele>1015</ele>
        <time>2022-09-18T09:24:47Z</time>
      </trkpt>
      <trkpt lat="44.57541" lon="6.2233">
        <ele>1015.2</ele>
        <time>2022-09-18T09:24:48Z</time>
      </trkpt>
      <trkpt lat="44.5754" lon="6.22327">
        <ele>1015.2</ele>
        <time>2022-09-18T09:24:49Z</time>
      </trkpt>
      <trkpt lat="44.5754" lon="6.22323">
        <ele>1015.6</ele>
        <time>2022-09-18T09:24:50Z</time>
      </trkpt>
      <trkpt lat="44.57539" lon="6.2232">
        <ele>1015.8</ele>
        <time>2022-09-18T09:24:51Z</time>
      </trkpt>
      <trkpt lat="44.57539" lon="6.22317">
        <ele>1016</ele>
        <time>2022-09-18T09:24:52Z</time>
      </trkpt>
      <trkpt lat="44.57538" lon="6.22314">
        <ele>1016</ele>
        <time>2022-09-18T09:24:53Z</time>
      </trkpt>
      <trkpt lat="44.57537" lon="6.22311">
        <ele>1016.2</ele>
        <time>2022-09-18T09:24:54Z</time>
      </trkpt>
      <trkpt lat="44.57536" lon="6.22308">
        <ele>1016.6</ele>
        <time>2022-09-18T09:24:55Z</time>
      </trkpt>
      <trkpt lat="44.57536" lon="6.22305">
        <ele>1016.4</ele>
        <time>2022-09-18T09:24:56Z</time>
      </trkpt>
      <trkpt lat="44.57535" lon="6.22302">
        <ele>1016.8</ele>
        <time>2022-09-18T09:24:57Z</time>
      </trkpt>
      <trkpt lat="44.57535" lon="6.22299">
        <ele>1017.2</ele>
        <time>2022-09-18T09:24:58Z</time>
      </trkpt>
      <trkpt lat="44.57534" lon="6.22296">
        <ele>1017.4</ele>
        <time>2022-09-18T09:24:59Z</time>
      </trkpt>
      <trkpt lat="44.57534" lon="6.22293">
        <ele>1017.6</ele>
        <time>2022-09-18T09:25:00Z</time>
      </trkpt>
      <trkpt lat="44.57534" lon="6.2229">
        <ele>1017.6</ele>
        <time>2022-09-18T09:25:01Z</time>
      </trkpt>
      <trkpt lat="44.57533" lon="6.22286">
        <ele>1017.8</ele>
        <time>2022-09-18T09:25:02Z</time>
      </trkpt>
      <trkpt lat="44.57533" lon="6.22283">
        <ele>1018</ele>
        <time>2022-09-18T09:25:03Z</time>
      </trkpt>
      <trkpt lat="44.57533" lon="6.2228">
        <ele>1018.2</ele>
        <time>2022-09-18T09:25:04Z</time>
      </trkpt>
      <trkpt lat="44.57532" lon="6.22277">
        <ele>1018.2</ele>
        <time>2022-09-18T09:25:05Z</time>
      </trkpt>
      <trkpt lat="44.57532" lon="6.22274">
        <ele>1018.4</ele>
        <time>2022-09-18T09:25:06Z</time>
      </trkpt>
      <trkpt lat="44.57531" lon="6.2227">
        <ele>1018.6</ele>
        <time>2022-09-18T09:25:07Z</time>
      </trkpt>
      <trkpt lat="44.57531" lon="6.22267">
        <ele>1018.8</ele>
        <time>2022-09-18T09:25:08Z</time>
      </trkpt>
      <trkpt lat="44.57532" lon="6.22264">
        <ele>1019</ele>
        <time>2022-09-18T09:25:09Z</time>
      </trkpt>
      <trkpt lat="44.57532" lon="6.22261">
        <ele>1019</ele>
        <time>2022-09-18T09:25:10Z</time>
      </trkpt>
      <trkpt lat="44.57532" lon="6.22258">
        <ele>1019.4</ele>
        <time>2022-09-18T09:25:11Z</time>
      </trkpt>
      <trkpt lat="44.57532" lon="6.22255">
        <ele>1019.4</ele>
        <time>2022-09-18T09:25:12Z</time>
      </trkpt>
      <trkpt lat="44.57532" lon="6.22252">
        <ele>1019.6</ele>
        <time>2022-09-18T09:25:13Z</time>
      </trkpt>
      <trkpt lat="44.57533" lon="6.22249">
        <ele>1019.8</ele>
        <time>2022-09-18T09:25:14Z</time>
      </trkpt>
      <trkpt lat="44.57533" lon="6.22246">
        <ele>1019.8</ele>
        <time>2022-09-18T09:25:15Z</time>
      </trkpt>
      <trkpt lat="44.57533" lon="6.22243">
        <ele>1020</ele>
        <time>2022-09-18T09:25:16Z</time>
      </trkpt>
      <trkpt lat="44.57533" lon="6.2224">
        <ele>1020</ele>
        <time>2022-09-18T09:25:17Z</time>
      </trkpt>
      <trkpt lat="44.57534" lon="6.22237">
        <ele>1020.2</ele>
        <time>2022-09-18T09:25:18Z</time>
      </trkpt>
      <trkpt lat="44.57534" lon="6.22234">
        <ele>1020.4</ele>
        <time>2022-09-18T09:25:19Z</time>
      </trkpt>
      <trkpt lat="44.57535" lon="6.22231">
        <ele>1020.4</ele>
        <time>2022-09-18T09:25:20Z</time>
      </trkpt>
      <trkpt lat="44.57535" lon="6.22228">
        <ele>1020.4</ele>
        <time>2022-09-18T09:25:21Z</time>
      </trkpt>
      <trkpt lat="44.57535" lon="6.22225">
        <ele>1020.6</ele>
        <time>2022-09-18T09:25:22Z</time>
      </trkpt>
      <trkpt lat="44.57535" lon="6.22222">
        <ele>1020.8</ele>
        <time>2022-09-18T09:25:23Z</time>
      </trkpt>
      <trkpt lat="44.57536" lon="6.22219">
        <ele>1021</ele>
        <time>2022-09-18T09:25:24Z</time>
      </trkpt>
      <trkpt lat="44.57536" lon="6.22216">
        <ele>1021</ele>
        <time>2022-09-18T09:25:25Z</time>
      </trkpt>
      <trkpt lat="44.57537" lon="6.22213">
        <ele>1021.4</ele>
        <time>2022-09-18T09:25:26Z</time>
      </trkpt>
      <trkpt lat="44.57538" lon="6.2221">
        <ele>1021.6</ele>
        <time>2022-09-18T09:25:27Z</time>
      </trkpt>
      <trkpt lat="44.57538" lon="6.22207">
        <ele>1021.8</ele>
        <time>2022-09-18T09:25:28Z</time>
      </trkpt>
      <trkpt lat="44.57538" lon="6.22204">
        <ele>1021.8</ele>
        <time>2022-09-18T09:25:29Z</time>
      </trkpt>
      <trkpt lat="44.57539" lon="6.22201">
        <ele>1022.2</ele>
        <time>2022-09-18T09:25:30Z</time>
      </trkpt>
      <trkpt lat="44.57539" lon="6.22199">
        <ele>1022.2</ele>
        <time>2022-09-18T09:25:31Z</time>
      </trkpt>
      <trkpt lat="44.5754" lon="6.22196">
        <ele>1022.4</ele>
        <time>2022-09-18T09:25:32Z</time>
      </trkpt>
      <trkpt lat="44.5754" lon="6.22193">
        <ele>1022.6</ele>
        <time>2022-09-18T09:25:33Z</time>
      </trkpt>
      <trkpt lat="44.5754" lon="6.2219">
        <ele>1022.8</ele>
        <time>2022-09-18T09:25:34Z</time>
      </trkpt>
      <trkpt lat="44.57541" lon="6.22187">
        <ele>1023</ele>
        <time>2022-09-18T09:25:35Z</time>
      </trkpt>
      <trkpt lat="44.57541" lon="6.22184">
        <ele>1023</ele>
        <time>2022-09-18T09:25:36Z</time>
      </trkpt>
      <trkpt lat="44.57542" lon="6.22181">
        <ele>1023</ele>
        <time>2022-09-18T09:25:37Z</time>
      </trkpt>
      <trkpt lat="44.57542" lon="6.22178">
        <ele>1023</ele>
        <time>2022-09-18T09:25:38Z</time>
      </trkpt>
      <trkpt lat="44.57543" lon="6.22175">
        <ele>1023.4</ele>
        <time>2022-09-18T09:25:39Z</time>
      </trkpt>
      <trkpt lat="44.57544" lon="6.22172">
        <ele>1023.6</ele>
        <time>2022-09-18T09:25:40Z</time>
      </trkpt>
      <trkpt lat="44.57544" lon="6.22169">
        <ele>1023.6</ele>
        <time>2022-09-18T09:25:41Z</time>
      </trkpt>
      <trkpt lat="44.57545" lon="6.22166">
        <ele>1023.8</ele>
        <time>2022-09-18T09:25:42Z</time>
      </trkpt>
      <trkpt lat="44.57546" lon="6.22163">
        <ele>1024</ele>
        <time>2022-09-18T09:25:43Z</time>
      </trkpt>
      <trkpt lat="44.57546" lon="6.2216">
        <ele>1024.2</ele>
        <time>2022-09-18T09:25:44Z</time>
      </trkpt>
      <trkpt lat="44.57546" lon="6.22157">
        <ele>1024.2</ele>
        <time>2022-09-18T09:25:45Z</time>
      </trkpt>
      <trkpt lat="44.57547" lon="6.22154">
        <ele>1024.4</ele>
        <time>2022-09-18T09:25:46Z</time>
      </trkpt>
      <trkpt lat="44.57547" lon="6.22151">
        <ele>1024.4</ele>
        <time>2022-09-18T09:25:47Z</time>
      </trkpt>
      <trkpt lat="44.57548" lon="6.22148">
        <ele>1024.6</ele>
        <time>2022-09-18T09:25:48Z</time>
      </trkpt>
      <trkpt lat="44.57548" lon="6.22146">
        <ele>1025</ele>
        <time>2022-09-18T09:25:49Z</time>
      </trkpt>
      <trkpt lat="44.57549" lon="6.22143">
        <ele>1025.4</ele>
        <time>2022-09-18T09:25:50Z</time>
      </trkpt>
      <trkpt lat="44.57549" lon="6.2214">
        <ele>1025.6</ele>
        <time>2022-09-18T09:25:51Z</time>
      </trkpt>
      <trkpt lat="44.5755" lon="6.22137">
        <ele>1025.6</ele>
        <time>2022-09-18T09:25:52Z</time>
      </trkpt>
      <trkpt lat="44.5755" lon="6.22134">
        <ele>1026</ele>
        <time>2022-09-18T09:25:53Z</time>
      </trkpt>
      <trkpt lat="44.57551" lon="6.2213">
        <ele>1026</ele>
        <time>2022-09-18T09:25:54Z</time>
      </trkpt>
      <trkpt lat="44.57551" lon="6.22127">
        <ele>1026.4</ele>
        <time>2022-09-18T09:25:55Z</time>
      </trkpt>
      <trkpt lat="44.57551" lon="6.22124">
        <ele>1026.4</ele>
        <time>2022-09-18T09:25:56Z</time>
      </trkpt>
      <trkpt lat="44.57552" lon="6.22121">
        <ele>1026.8</ele>
        <time>2022-09-18T09:25:57Z</time>
      </trkpt>
      <trkpt lat="44.57552" lon="6.22118">
        <ele>1027.2</ele>
        <time>2022-09-18T09:25:58Z</time>
      </trkpt>
      <trkpt lat="44.57552" lon="6.22115">
        <ele>1027.6</ele>
        <time>2022-09-18T09:25:59Z</time>
      </trkpt>
      <trkpt lat="44.57552" lon="6.22112">
        <ele>1028</ele>
        <time>2022-09-18T09:26:00Z</time>
      </trkpt>
      <trkpt lat="44.57552" lon="6.22108">
        <ele>1028.4</ele>
        <time>2022-09-18T09:26:01Z</time>
      </trkpt>
      <trkpt lat="44.57553" lon="6.22105">
        <ele>1028.4</ele>
        <time>2022-09-18T09:26:02Z</time>
      </trkpt>
      <trkpt lat="44.57553" lon="6.22101">
        <ele>1028.8</ele>
        <time>2022-09-18T09:26:03Z</time>
      </trkpt>
      <trkpt lat="44.57552" lon="6.22098">
        <ele>1029.2</ele>
        <time>2022-09-18T09:26:04Z</time>
      </trkpt>
      <trkpt lat="44.57552" lon="6.22094">
        <ele>1029.6</ele>
        <time>2022-09-18T09:26:05Z</time>
      </trkpt>
      <trkpt lat="44.57552" lon="6.22091">
        <ele>1030</ele>
        <time>2022-09-18T09:26:06Z</time>
      </trkpt>
      <trkpt lat="44.57552" lon="6.22088">
        <ele>1030.4</ele>
        <time>2022-09-18T09:26:07Z</time>
      </trkpt>
      <trkpt lat="44.57552" lon="6.22084">
        <ele>1030.8</ele>
        <time>2022-09-18T09:26:08Z</time>
      </trkpt>
      <trkpt lat="44.57551" lon="6.22081">
        <ele>1031</ele>
        <time>2022-09-18T09:26:09Z</time>
      </trkpt>
      <trkpt lat="44.57551" lon="6.22078">
        <ele>1031.6</ele>
        <time>2022-09-18T09:26:10Z</time>
      </trkpt>
      <trkpt lat="44.5755" lon="6.22074">
        <ele>1031.8</ele>
        <time>2022-09-18T09:26:11Z</time>
      </trkpt>
      <trkpt lat="44.5755" lon="6.22071">
        <ele>1032</ele>
        <time>2022-09-18T09:26:12Z</time>
      </trkpt>
      <trkpt lat="44.57549" lon="6.22068">
        <ele>1032.2</ele>
        <time>2022-09-18T09:26:13Z</time>
      </trkpt>
      <trkpt lat="44.57548" lon="6.22065">
        <ele>1032.2</ele>
        <time>2022-09-18T09:26:14Z</time>
      </trkpt>
      <trkpt lat="44.57548" lon="6.22061">
        <ele>1032.4</ele>
        <time>2022-09-18T09:26:15Z</time>
      </trkpt>
      <trkpt lat="44.57547" lon="6.22058">
        <ele>1032.8</ele>
        <time>2022-09-18T09:26:16Z</time>
      </trkpt>
      <trkpt lat="44.57547" lon="6.22055">
        <ele>1033</ele>
        <time>2022-09-18T09:26:17Z</time>
      </trkpt>
      <trkpt lat="44.57547" lon="6.22051">
        <ele>1033</ele>
        <time>2022-09-18T09:26:18Z</time>
      </trkpt>
      <trkpt lat="44.57546" lon="6.22048">
        <ele>1033.4</ele>
        <time>2022-09-18T09:26:19Z</time>
      </trkpt>
      <trkpt lat="44.57546" lon="6.22044">
        <ele>1033.6</ele>
        <time>2022-09-18T09:26:20Z</time>
      </trkpt>
      <trkpt lat="44.57545" lon="6.2204">
        <ele>1033.6</ele>
        <time>2022-09-18T09:26:21Z</time>
      </trkpt>
      <trkpt lat="44.57544" lon="6.22037">
        <ele>1033.8</ele>
        <time>2022-09-18T09:26:22Z</time>
      </trkpt>
      <trkpt lat="44.57543" lon="6.22034">
        <ele>1033.8</ele>
        <time>2022-09-18T09:26:23Z</time>
      </trkpt>
      <trkpt lat="44.57542" lon="6.22031">
        <ele>1034.2</ele>
        <time>2022-09-18T09:26:24Z</time>
      </trkpt>
      <trkpt lat="44.57541" lon="6.22028">
        <ele>1034.2</ele>
        <time>2022-09-18T09:26:25Z</time>
      </trkpt>
      <trkpt lat="44.5754" lon="6.22025">
        <ele>1034.6</ele>
        <time>2022-09-18T09:26:26Z</time>
      </trkpt>
      <trkpt lat="44.57539" lon="6.22021">
        <ele>1034.6</ele>
        <time>2022-09-18T09:26:27Z</time>
      </trkpt>
      <trkpt lat="44.57539" lon="6.22018">
        <ele>1034.6</ele>
        <time>2022-09-18T09:26:28Z</time>
      </trkpt>
      <trkpt lat="44.5754" lon="6.22015">
        <ele>1034.8</ele>
        <time>2022-09-18T09:26:29Z</time>
      </trkpt>
      <trkpt lat="44.57541" lon="6.22013">
        <ele>1035.2</ele>
        <time>2022-09-18T09:26:30Z</time>
      </trkpt>
      <trkpt lat="44.57542" lon="6.22011">
        <ele>1035.2</ele>
        <time>2022-09-18T09:26:31Z</time>
      </trkpt>
      <trkpt lat="44.57544" lon="6.22009">
        <ele>1035.2</ele>
        <time>2022-09-18T09:26:32Z</time>
      </trkpt>
      <trkpt lat="44.57546" lon="6.22007">
        <ele>1035.4</ele>
        <time>2022-09-18T09:26:33Z</time>
      </trkpt>
      <trkpt lat="44.57548" lon="6.22007">
        <ele>1035.2</ele>
        <time>2022-09-18T09:26:34Z</time>
      </trkpt>
      <trkpt lat="44.57551" lon="6.22007">
        <ele>1035.6</ele>
        <time>2022-09-18T09:26:35Z</time>
      </trkpt>
      <trkpt lat="44.57553" lon="6.22008">
        <ele>1035.6</ele>
        <time>2022-09-18T09:26:36Z</time>
      </trkpt>
      <trkpt lat="44.57555" lon="6.22009">
        <ele>1035.6</ele>
        <time>2022-09-18T09:26:37Z</time>
      </trkpt>
      <trkpt lat="44.57557" lon="6.22011">
        <ele>1036</ele>
        <time>2022-09-18T09:26:38Z</time>
      </trkpt>
      <trkpt lat="44.57558" lon="6.22014">
        <ele>1036.2</ele>
        <time>2022-09-18T09:26:39Z</time>
      </trkpt>
      <trkpt lat="44.57559" lon="6.22017">
        <ele>1036.4</ele>
        <time>2022-09-18T09:26:40Z</time>
      </trkpt>
      <trkpt lat="44.57559" lon="6.2202">
        <ele>1036.6</ele>
        <time>2022-09-18T09:26:41Z</time>
      </trkpt>
      <trkpt lat="44.5756" lon="6.22023">
        <ele>1036.8</ele>
        <time>2022-09-18T09:26:42Z</time>
      </trkpt>
      <trkpt lat="44.57561" lon="6.22026">
        <ele>1037.2</ele>
        <time>2022-09-18T09:26:43Z</time>
      </trkpt>
      <trkpt lat="44.57562" lon="6.22029">
        <ele>1037.2</ele>
        <time>2022-09-18T09:26:44Z</time>
      </trkpt>
      <trkpt lat="44.57563" lon="6.22032">
        <ele>1037.2</ele>
        <time>2022-09-18T09:26:45Z</time>
      </trkpt>
      <trkpt lat="44.57564" lon="6.22035">
        <ele>1037.4</ele>
        <time>2022-09-18T09:26:46Z</time>
      </trkpt>
      <trkpt lat="44.57565" lon="6.22038">
        <ele>1037.4</ele>
        <time>2022-09-18T09:26:47Z</time>
      </trkpt>
      <trkpt lat="44.57566" lon="6.22042">
        <ele>1037.6</ele>
        <time>2022-09-18T09:26:48Z</time>
      </trkpt>
      <trkpt lat="44.57566" lon="6.22045">
        <ele>1038</ele>
        <time>2022-09-18T09:26:49Z</time>
      </trkpt>
      <trkpt lat="44.57567" lon="6.22048">
        <ele>1038.4</ele>
        <time>2022-09-18T09:26:50Z</time>
      </trkpt>
      <trkpt lat="44.57567" lon="6.22051">
        <ele>1038.6</ele>
        <time>2022-09-18T09:26:51Z</time>
      </trkpt>
      <trkpt lat="44.57568" lon="6.22055">
        <ele>1038.8</ele>
        <time>2022-09-18T09:26:52Z</time>
      </trkpt>
      <trkpt lat="44.57569" lon="6.22058">
        <ele>1039.2</ele>
        <time>2022-09-18T09:26:53Z</time>
      </trkpt>
      <trkpt lat="44.57569" lon="6.22061">
        <ele>1039.4</ele>
        <time>2022-09-18T09:26:54Z</time>
      </trkpt>
      <trkpt lat="44.5757" lon="6.22065">
        <ele>1039.6</ele>
        <time>2022-09-18T09:26:55Z</time>
      </trkpt>
      <trkpt lat="44.57571" lon="6.22068">
        <ele>1039.6</ele>
        <time>2022-09-18T09:26:56Z</time>
      </trkpt>
      <trkpt lat="44.57571" lon="6.22071">
        <ele>1039.8</ele>
        <time>2022-09-18T09:26:57Z</time>
      </trkpt>
      <trkpt lat="44.57572" lon="6.22074">
        <ele>1040</ele>
        <time>2022-09-18T09:26:58Z</time>
      </trkpt>
      <trkpt lat="44.57573" lon="6.22078">
        <ele>1040.2</ele>
        <time>2022-09-18T09:26:59Z</time>
      </trkpt>
      <trkpt lat="44.57574" lon="6.22081">
        <ele>1040.6</ele>
        <time>2022-09-18T09:27:00Z</time>
      </trkpt>
      <trkpt lat="44.57575" lon="6.22083">
        <ele>1041</ele>
        <time>2022-09-18T09:27:01Z</time>
      </trkpt>
      <trkpt lat="44.57576" lon="6.22086">
        <ele>1041.2</ele>
        <time>2022-09-18T09:27:02Z</time>
      </trkpt>
      <trkpt lat="44.57577" lon="6.22089">
        <ele>1041.4</ele>
        <time>2022-09-18T09:27:03Z</time>
      </trkpt>
      <trkpt lat="44.57579" lon="6.22092">
        <ele>1041.8</ele>
        <time>2022-09-18T09:27:04Z</time>
      </trkpt>
      <trkpt lat="44.5758" lon="6.22095">
        <ele>1041.8</ele>
        <time>2022-09-18T09:27:05Z</time>
      </trkpt>
      <trkpt lat="44.57581" lon="6.22098">
        <ele>1042.2</ele>
        <time>2022-09-18T09:27:06Z</time>
      </trkpt>
      <trkpt lat="44.57583" lon="6.221">
        <ele>1042.4</ele>
        <time>2022-09-18T09:27:07Z</time>
      </trkpt>
      <trkpt lat="44.57584" lon="6.22103">
        <ele>1042.6</ele>
        <time>2022-09-18T09:27:08Z</time>
      </trkpt>
      <trkpt lat="44.57585" lon="6.22106">
        <ele>1043</ele>
        <time>2022-09-18T09:27:09Z</time>
      </trkpt>
      <trkpt lat="44.57586" lon="6.22109">
        <ele>1043</ele>
        <time>2022-09-18T09:27:10Z</time>
      </trkpt>
      <trkpt lat="44.57588" lon="6.22112">
        <ele>1043</ele>
        <time>2022-09-18T09:27:11Z</time>
      </trkpt>
      <trkpt lat="44.57589" lon="6.22115">
        <ele>1043.6</ele>
        <time>2022-09-18T09:27:12Z</time>
      </trkpt>
      <trkpt lat="44.5759" lon="6.22118">
        <ele>1043.6</ele>
        <time>2022-09-18T09:27:13Z</time>
      </trkpt>
      <trkpt lat="44.57591" lon="6.2212">
        <ele>1044</ele>
        <time>2022-09-18T09:27:14Z</time>
      </trkpt>
      <trkpt lat="44.57592" lon="6.22123">
        <ele>1044.2</ele>
        <time>2022-09-18T09:27:15Z</time>
      </trkpt>
      <trkpt lat="44.57594" lon="6.22126">
        <ele>1044.6</ele>
        <time>2022-09-18T09:27:16Z</time>
      </trkpt>
      <trkpt lat="44.57595" lon="6.22129">
        <ele>1045</ele>
        <time>2022-09-18T09:27:17Z</time>
      </trkpt>
      <trkpt lat="44.57597" lon="6.22132">
        <ele>1045.2</ele>
        <time>2022-09-18T09:27:18Z</time>
      </trkpt>
      <trkpt lat="44.57598" lon="6.22134">
        <ele>1045.4</ele>
        <time>2022-09-18T09:27:19Z</time>
      </trkpt>
      <trkpt lat="44.576" lon="6.22137">
        <ele>1046</ele>
        <time>2022-09-18T09:27:20Z</time>
      </trkpt>
      <trkpt lat="44.57602" lon="6.22139">
        <ele>1046.4</ele>
        <time>2022-09-18T09:27:21Z</time>
      </trkpt>
      <trkpt lat="44.57604" lon="6.22142">
        <ele>1046.8</ele>
        <time>2022-09-18T09:27:22Z</time>
      </trkpt>
      <trkpt lat="44.57605" lon="6.22144">
        <ele>1046.8</ele>
        <time>2022-09-18T09:27:23Z</time>
      </trkpt>
      <trkpt lat="44.57607" lon="6.22146">
        <ele>1047.2</ele>
        <time>2022-09-18T09:27:24Z</time>
      </trkpt>
      <trkpt lat="44.57609" lon="6.22148">
        <ele>1047.6</ele>
        <time>2022-09-18T09:27:25Z</time>
      </trkpt>
      <trkpt lat="44.57611" lon="6.2215">
        <ele>1048</ele>
        <time>2022-09-18T09:27:26Z</time>
      </trkpt>
      <trkpt lat="44.57614" lon="6.22152">
        <ele>1048.4</ele>
        <time>2022-09-18T09:27:27Z</time>
      </trkpt>
      <trkpt lat="44.57616" lon="6.22154">
        <ele>1048.6</ele>
        <time>2022-09-18T09:27:28Z</time>
      </trkpt>
      <trkpt lat="44.57617" lon="6.22156">
        <ele>1048.6</ele>
        <time>2022-09-18T09:27:29Z</time>
      </trkpt>
      <trkpt lat="44.57619" lon="6.22158">
        <ele>1049</ele>
        <time>2022-09-18T09:27:30Z</time>
      </trkpt>
      <trkpt lat="44.57621" lon="6.22161">
        <ele>1049</ele>
        <time>2022-09-18T09:27:31Z</time>
      </trkpt>
      <trkpt lat="44.57623" lon="6.22163">
        <ele>1049.6</ele>
        <time>2022-09-18T09:27:32Z</time>
      </trkpt>
      <trkpt lat="44.57625" lon="6.22165">
        <ele>1049.8</ele>
        <time>2022-09-18T09:27:33Z</time>
      </trkpt>
      <trkpt lat="44.57627" lon="6.22167">
        <ele>1050</ele>
        <time>2022-09-18T09:27:34Z</time>
      </trkpt>
      <trkpt lat="44.57629" lon="6.22169">
        <ele>1050.2</ele>
        <time>2022-09-18T09:27:35Z</time>
      </trkpt>
      <trkpt lat="44.57631" lon="6.2217">
        <ele>1050.4</ele>
        <time>2022-09-18T09:27:36Z</time>
      </trkpt>
      <trkpt lat="44.57633" lon="6.22173">
        <ele>1050.6</ele>
        <time>2022-09-18T09:27:37Z</time>
      </trkpt>
      <trkpt lat="44.57635" lon="6.22175">
        <ele>1051</ele>
        <time>2022-09-18T09:27:38Z</time>
      </trkpt>
      <trkpt lat="44.57637" lon="6.22177">
        <ele>1051</ele>
        <time>2022-09-18T09:27:39Z</time>
      </trkpt>
      <trkpt lat="44.57639" lon="6.22179">
        <ele>1051.2</ele>
        <time>2022-09-18T09:27:40Z</time>
      </trkpt>
      <trkpt lat="44.5764" lon="6.22181">
        <ele>1051.4</ele>
        <time>2022-09-18T09:27:41Z</time>
      </trkpt>
      <trkpt lat="44.57642" lon="6.22183">
        <ele>1051.6</ele>
        <time>2022-09-18T09:27:42Z</time>
      </trkpt>
      <trkpt lat="44.57644" lon="6.22185">
        <ele>1051.8</ele>
        <time>2022-09-18T09:27:43Z</time>
      </trkpt>
      <trkpt lat="44.57646" lon="6.22187">
        <ele>1052</ele>
        <time>2022-09-18T09:27:44Z</time>
      </trkpt>
      <trkpt lat="44.57648" lon="6.22189">
        <ele>1052</ele>
        <time>2022-09-18T09:27:45Z</time>
      </trkpt>
      <trkpt lat="44.5765" lon="6.22191">
        <ele>1052.2</ele>
        <time>2022-09-18T09:27:46Z</time>
      </trkpt>
      <trkpt lat="44.57651" lon="6.22193">
        <ele>1052.4</ele>
        <time>2022-09-18T09:27:47Z</time>
      </trkpt>
      <trkpt lat="44.57653" lon="6.22195">
        <ele>1052.8</ele>
        <time>2022-09-18T09:27:48Z</time>
      </trkpt>
      <trkpt lat="44.57655" lon="6.22198">
        <ele>1052.6</ele>
        <time>2022-09-18T09:27:49Z</time>
      </trkpt>
      <trkpt lat="44.57657" lon="6.222">
        <ele>1053</ele>
        <time>2022-09-18T09:27:50Z</time>
      </trkpt>
      <trkpt lat="44.57659" lon="6.22202">
        <ele>1053</ele>
        <time>2022-09-18T09:27:51Z</time>
      </trkpt>
      <trkpt lat="44.57661" lon="6.22205">
        <ele>1052.6</ele>
        <time>2022-09-18T09:27:52Z</time>
      </trkpt>
      <trkpt lat="44.57663" lon="6.22207">
        <ele>1052.8</ele>
        <time>2022-09-18T09:27:53Z</time>
      </trkpt>
      <trkpt lat="44.57665" lon="6.2221">
        <ele>1052.8</ele>
        <time>2022-09-18T09:27:54Z</time>
      </trkpt>
      <trkpt lat="44.57666" lon="6.22213">
        <ele>1052.8</ele>
        <time>2022-09-18T09:27:55Z</time>
      </trkpt>
      <trkpt lat="44.57668" lon="6.22216">
        <ele>1052.8</ele>
        <time>2022-09-18T09:27:56Z</time>
      </trkpt>
      <trkpt lat="44.57669" lon="6.22219">
        <ele>1053</ele>
        <time>2022-09-18T09:27:57Z</time>
      </trkpt>
      <trkpt lat="44.57671" lon="6.22222">
        <ele>1053.2</ele>
        <time>2022-09-18T09:27:58Z</time>
      </trkpt>
      <trkpt lat="44.57672" lon="6.22225">
        <ele>1053.4</ele>
        <time>2022-09-18T09:27:59Z</time>
      </trkpt>
      <trkpt lat="44.57673" lon="6.22228">
        <ele>1053.6</ele>
        <time>2022-09-18T09:28:00Z</time>
      </trkpt>
      <trkpt lat="44.57674" lon="6.22231">
        <ele>1053.8</ele>
        <time>2022-09-18T09:28:01Z</time>
      </trkpt>
      <trkpt lat="44.57674" lon="6.22234">
        <ele>1053.8</ele>
        <time>2022-09-18T09:28:02Z</time>
      </trkpt>
      <trkpt lat="44.57675" lon="6.22237">
        <ele>1054.2</ele>
        <time>2022-09-18T09:28:03Z</time>
      </trkpt>
      <trkpt lat="44.57676" lon="6.2224">
        <ele>1054.4</ele>
        <time>2022-09-18T09:28:04Z</time>
      </trkpt>
      <trkpt lat="44.57676" lon="6.22244">
        <ele>1054.4</ele>
        <time>2022-09-18T09:28:05Z</time>
      </trkpt>
      <trkpt lat="44.57677" lon="6.22247">
        <ele>1054.6</ele>
        <time>2022-09-18T09:28:06Z</time>
      </trkpt>
      <trkpt lat="44.57677" lon="6.2225">
        <ele>1054.6</ele>
        <time>2022-09-18T09:28:07Z</time>
      </trkpt>
      <trkpt lat="44.57678" lon="6.22253">
        <ele>1054.6</ele>
        <time>2022-09-18T09:28:08Z</time>
      </trkpt>
      <trkpt lat="44.57679" lon="6.22256">
        <ele>1055</ele>
        <time>2022-09-18T09:28:09Z</time>
      </trkpt>
      <trkpt lat="44.5768" lon="6.22259">
        <ele>1055</ele>
        <time>2022-09-18T09:28:10Z</time>
      </trkpt>
      <trkpt lat="44.5768" lon="6.22262">
        <ele>1055.2</ele>
        <time>2022-09-18T09:28:11Z</time>
      </trkpt>
      <trkpt lat="44.57681" lon="6.22265">
        <ele>1055.4</ele>
        <time>2022-09-18T09:28:12Z</time>
      </trkpt>
      <trkpt lat="44.57681" lon="6.22268">
        <ele>1055.6</ele>
        <time>2022-09-18T09:28:13Z</time>
      </trkpt>
      <trkpt lat="44.57682" lon="6.22271">
        <ele>1056</ele>
        <time>2022-09-18T09:28:14Z</time>
      </trkpt>
      <trkpt lat="44.57682" lon="6.22274">
        <ele>1056</ele>
        <time>2022-09-18T09:28:15Z</time>
      </trkpt>
      <trkpt lat="44.57681" lon="6.22277">
        <ele>1056.4</ele>
        <time>2022-09-18T09:28:16Z</time>
      </trkpt>
      <trkpt lat="44.57681" lon="6.22281">
        <ele>1056.4</ele>
        <time>2022-09-18T09:28:17Z</time>
      </trkpt>
      <trkpt lat="44.57681" lon="6.22284">
        <ele>1056.4</ele>
        <time>2022-09-18T09:28:18Z</time>
      </trkpt>
      <trkpt lat="44.57681" lon="6.22287">
        <ele>1056.6</ele>
        <time>2022-09-18T09:28:19Z</time>
      </trkpt>
      <trkpt lat="44.5768" lon="6.2229">
        <ele>1056.8</ele>
        <time>2022-09-18T09:28:20Z</time>
      </trkpt>
      <trkpt lat="44.5768" lon="6.22293">
        <ele>1057</ele>
        <time>2022-09-18T09:28:21Z</time>
      </trkpt>
      <trkpt lat="44.5768" lon="6.22296">
        <ele>1057</ele>
        <time>2022-09-18T09:28:22Z</time>
      </trkpt>
      <trkpt lat="44.5768" lon="6.22299">
        <ele>1057.2</ele>
        <time>2022-09-18T09:28:23Z</time>
      </trkpt>
      <trkpt lat="44.57681" lon="6.22303">
        <ele>1057.4</ele>
        <time>2022-09-18T09:28:24Z</time>
      </trkpt>
      <trkpt lat="44.57681" lon="6.22306">
        <ele>1057.6</ele>
        <time>2022-09-18T09:28:25Z</time>
      </trkpt>
      <trkpt lat="44.57681" lon="6.22309">
        <ele>1057.8</ele>
        <time>2022-09-18T09:28:26Z</time>
      </trkpt>
      <trkpt lat="44.57681" lon="6.22312">
        <ele>1058.2</ele>
        <time>2022-09-18T09:28:27Z</time>
      </trkpt>
      <trkpt lat="44.57681" lon="6.22315">
        <ele>1058.6</ele>
        <time>2022-09-18T09:28:28Z</time>
      </trkpt>
      <trkpt lat="44.57681" lon="6.22318">
        <ele>1058.8</ele>
        <time>2022-09-18T09:28:29Z</time>
      </trkpt>
      <trkpt lat="44.57681" lon="6.22321">
        <ele>1059.2</ele>
        <time>2022-09-18T09:28:30Z</time>
      </trkpt>
      <trkpt lat="44.57682" lon="6.22324">
        <ele>1059.4</ele>
        <time>2022-09-18T09:28:31Z</time>
      </trkpt>
      <trkpt lat="44.57682" lon="6.22327">
        <ele>1059.8</ele>
        <time>2022-09-18T09:28:32Z</time>
      </trkpt>
      <trkpt lat="44.57683" lon="6.2233">
        <ele>1060</ele>
        <time>2022-09-18T09:28:33Z</time>
      </trkpt>
      <trkpt lat="44.57684" lon="6.22333">
        <ele>1059.8</ele>
        <time>2022-09-18T09:28:34Z</time>
      </trkpt>
      <trkpt lat="44.57685" lon="6.22335">
        <ele>1060.2</ele>
        <time>2022-09-18T09:28:35Z</time>
      </trkpt>
      <trkpt lat="44.57686" lon="6.22337">
        <ele>1060.4</ele>
        <time>2022-09-18T09:28:36Z</time>
      </trkpt>
      <trkpt lat="44.57688" lon="6.22339">
        <ele>1060.8</ele>
        <time>2022-09-18T09:28:37Z</time>
      </trkpt>
      <trkpt lat="44.5769" lon="6.2234">
        <ele>1061.2</ele>
        <time>2022-09-18T09:28:38Z</time>
      </trkpt>
      <trkpt lat="44.57691" lon="6.22341">
        <ele>1061.2</ele>
        <time>2022-09-18T09:28:39Z</time>
      </trkpt>
      <trkpt lat="44.57694" lon="6.22341">
        <ele>1061.6</ele>
        <time>2022-09-18T09:28:40Z</time>
      </trkpt>
      <trkpt lat="44.57696" lon="6.22341">
        <ele>1061.6</ele>
        <time>2022-09-18T09:28:41Z</time>
      </trkpt>
      <trkpt lat="44.57698" lon="6.2234">
        <ele>1062</ele>
        <time>2022-09-18T09:28:42Z</time>
      </trkpt>
      <trkpt lat="44.577" lon="6.22339">
        <ele>1062.2</ele>
        <time>2022-09-18T09:28:43Z</time>
      </trkpt>
      <trkpt lat="44.57702" lon="6.22337">
        <ele>1062.6</ele>
        <time>2022-09-18T09:28:44Z</time>
      </trkpt>
      <trkpt lat="44.57703" lon="6.22335">
        <ele>1062.8</ele>
        <time>2022-09-18T09:28:45Z</time>
      </trkpt>
      <trkpt lat="44.57705" lon="6.22332">
        <ele>1063</ele>
        <time>2022-09-18T09:28:46Z</time>
      </trkpt>
      <trkpt lat="44.57706" lon="6.22329">
        <ele>1063.4</ele>
        <time>2022-09-18T09:28:47Z</time>
      </trkpt>
      <trkpt lat="44.57707" lon="6.22327">
        <ele>1063.8</ele>
        <time>2022-09-18T09:28:48Z</time>
      </trkpt>
      <trkpt lat="44.57708" lon="6.22324">
        <ele>1063.8</ele>
        <time>2022-09-18T09:28:49Z</time>
      </trkpt>
      <trkpt lat="44.57709" lon="6.22321">
        <ele>1064.2</ele>
        <time>2022-09-18T09:28:50Z</time>
      </trkpt>
      <trkpt lat="44.57709" lon="6.22318">
        <ele>1064.4</ele>
        <time>2022-09-18T09:28:51Z</time>
      </trkpt>
      <trkpt lat="44.5771" lon="6.22315">
        <ele>1064.6</ele>
        <time>2022-09-18T09:28:52Z</time>
      </trkpt>
      <trkpt lat="44.5771" lon="6.22312">
        <ele>1064.8</ele>
        <time>2022-09-18T09:28:53Z</time>
      </trkpt>
      <trkpt lat="44.57711" lon="6.2231">
        <ele>1065</ele>
        <time>2022-09-18T09:28:54Z</time>
      </trkpt>
      <trkpt lat="44.57711" lon="6.22307">
        <ele>1065.4</ele>
        <time>2022-09-18T09:28:55Z</time>
      </trkpt>
      <trkpt lat="44.57712" lon="6.22303">
        <ele>1065.4</ele>
        <time>2022-09-18T09:28:56Z</time>
      </trkpt>
      <trkpt lat="44.57713" lon="6.223">
        <ele>1065.8</ele>
        <time>2022-09-18T09:28:57Z</time>
      </trkpt>
      <trkpt lat="44.57713" lon="6.22297">
        <ele>1066.2</ele>
        <time>2022-09-18T09:28:58Z</time>
      </trkpt>
      <trkpt lat="44.57714" lon="6.22294">
        <ele>1066.8</ele>
        <time>2022-09-18T09:28:59Z</time>
      </trkpt>
      <trkpt lat="44.57714" lon="6.22291">
        <ele>1067.4</ele>
        <time>2022-09-18T09:29:00Z</time>
      </trkpt>
      <trkpt lat="44.57714" lon="6.22288">
        <ele>1067.6</ele>
        <time>2022-09-18T09:29:01Z</time>
      </trkpt>
      <trkpt lat="44.57715" lon="6.22284">
        <ele>1068</ele>
        <time>2022-09-18T09:29:02Z</time>
      </trkpt>
      <trkpt lat="44.57715" lon="6.22281">
        <ele>1068.4</ele>
        <time>2022-09-18T09:29:03Z</time>
      </trkpt>
      <trkpt lat="44.57715" lon="6.22278">
        <ele>1068.8</ele>
        <time>2022-09-18T09:29:04Z</time>
      </trkpt>
      <trkpt lat="44.57715" lon="6.22275">
        <ele>1069</ele>
        <time>2022-09-18T09:29:05Z</time>
      </trkpt>
      <trkpt lat="44.57715" lon="6.22272">
        <ele>1069</ele>
        <time>2022-09-18T09:29:06Z</time>
      </trkpt>
      <trkpt lat="44.57716" lon="6.22269">
        <ele>1069.6</ele>
        <time>2022-09-18T09:29:07Z</time>
      </trkpt>
      <trkpt lat="44.57716" lon="6.22266">
        <ele>1069.6</ele>
        <time>2022-09-18T09:29:08Z</time>
      </trkpt>
      <trkpt lat="44.57717" lon="6.22263">
        <ele>1070</ele>
        <time>2022-09-18T09:29:09Z</time>
      </trkpt>
      <trkpt lat="44.57717" lon="6.22259">
        <ele>1070.2</ele>
        <time>2022-09-18T09:29:10Z</time>
      </trkpt>
      <trkpt lat="44.57718" lon="6.22256">
        <ele>1070.4</ele>
        <time>2022-09-18T09:29:11Z</time>
      </trkpt>
      <trkpt lat="44.57719" lon="6.22253">
        <ele>1070.8</ele>
        <time>2022-09-18T09:29:12Z</time>
      </trkpt>
      <trkpt lat="44.57719" lon="6.2225">
        <ele>1071</ele>
        <time>2022-09-18T09:29:13Z</time>
      </trkpt>
      <trkpt lat="44.5772" lon="6.22247">
        <ele>1071.2</ele>
        <time>2022-09-18T09:29:14Z</time>
      </trkpt>
      <trkpt lat="44.57722" lon="6.22244">
        <ele>1071.4</ele>
        <time>2022-09-18T09:29:15Z</time>
      </trkpt>
      <trkpt lat="44.57723" lon="6.22241">
        <ele>1071.6</ele>
        <time>2022-09-18T09:29:16Z</time>
      </trkpt>
      <trkpt lat="44.57723" lon="6.22238">
        <ele>1071.4</ele>
        <time>2022-09-18T09:29:17Z</time>
      </trkpt>
      <trkpt lat="44.57724" lon="6.22235">
        <ele>1071.4</ele>
        <time>2022-09-18T09:29:18Z</time>
      </trkpt>
      <trkpt lat="44.57725" lon="6.22232">
        <ele>1071.8</ele>
        <time>2022-09-18T09:29:19Z</time>
      </trkpt>
      <trkpt lat="44.57725" lon="6.22229">
        <ele>1072</ele>
        <time>2022-09-18T09:29:20Z</time>
      </trkpt>
      <trkpt lat="44.57726" lon="6.22226">
        <ele>1072.2</ele>
        <time>2022-09-18T09:29:21Z</time>
      </trkpt>
      <trkpt lat="44.57727" lon="6.22223">
        <ele>1072.2</ele>
        <time>2022-09-18T09:29:22Z</time>
      </trkpt>
      <trkpt lat="44.57728" lon="6.2222">
        <ele>1072.6</ele>
        <time>2022-09-18T09:29:23Z</time>
      </trkpt>
      <trkpt lat="44.57729" lon="6.22217">
        <ele>1073</ele>
        <time>2022-09-18T09:29:24Z</time>
      </trkpt>
      <trkpt lat="44.5773" lon="6.22215">
        <ele>1073.2</ele>
        <time>2022-09-18T09:29:25Z</time>
      </trkpt>
      <trkpt lat="44.57731" lon="6.22212">
        <ele>1073.2</ele>
        <time>2022-09-18T09:29:26Z</time>
      </trkpt>
      <trkpt lat="44.57732" lon="6.22209">
        <ele>1073.4</ele>
        <time>2022-09-18T09:29:27Z</time>
      </trkpt>
      <trkpt lat="44.57733" lon="6.22206">
        <ele>1073.6</ele>
        <time>2022-09-18T09:29:28Z</time>
      </trkpt>
      <trkpt lat="44.57734" lon="6.22204">
        <ele>1073.6</ele>
        <time>2022-09-18T09:29:29Z</time>
      </trkpt>
      <trkpt lat="44.57734" lon="6.22201">
        <ele>1074</ele>
        <time>2022-09-18T09:29:30Z</time>
      </trkpt>
      <trkpt lat="44.57735" lon="6.22198">
        <ele>1074.4</ele>
        <time>2022-09-18T09:29:31Z</time>
      </trkpt>
      <trkpt lat="44.57736" lon="6.22195">
        <ele>1074.8</ele>
        <time>2022-09-18T09:29:32Z</time>
      </trkpt>
      <trkpt lat="44.57737" lon="6.22193">
        <ele>1075</ele>
        <time>2022-09-18T09:29:33Z</time>
      </trkpt>
      <trkpt lat="44.57738" lon="6.2219">
        <ele>1075.4</ele>
        <time>2022-09-18T09:29:34Z</time>
      </trkpt>
      <trkpt lat="44.57739" lon="6.22187">
        <ele>1075.4</ele>
        <time>2022-09-18T09:29:35Z</time>
      </trkpt>
      <trkpt lat="44.57739" lon="6.22184">
        <ele>1075.6</ele>
        <time>2022-09-18T09:29:36Z</time>
      </trkpt>
      <trkpt lat="44.5774" lon="6.22181">
        <ele>1075.8</ele>
        <time>2022-09-18T09:29:37Z</time>
      </trkpt>
      <trkpt lat="44.57741" lon="6.22178">
        <ele>1076</ele>
        <time>2022-09-18T09:29:38Z</time>
      </trkpt>
      <trkpt lat="44.57742" lon="6.22175">
        <ele>1076.2</ele>
        <time>2022-09-18T09:29:39Z</time>
      </trkpt>
      <trkpt lat="44.57742" lon="6.22172">
        <ele>1076.4</ele>
        <time>2022-09-18T09:29:40Z</time>
      </trkpt>
      <trkpt lat="44.57743" lon="6.22169">
        <ele>1076.8</ele>
        <time>2022-09-18T09:29:41Z</time>
      </trkpt>
      <trkpt lat="44.57743" lon="6.22166">
        <ele>1077.2</ele>
        <time>2022-09-18T09:29:42Z</time>
      </trkpt>
      <trkpt lat="44.57744" lon="6.22163">
        <ele>1077.4</ele>
        <time>2022-09-18T09:29:43Z</time>
      </trkpt>
      <trkpt lat="44.57744" lon="6.2216">
        <ele>1077.6</ele>
        <time>2022-09-18T09:29:44Z</time>
      </trkpt>
      <trkpt lat="44.57745" lon="6.22157">
        <ele>1077.4</ele>
        <time>2022-09-18T09:29:45Z</time>
      </trkpt>
      <trkpt lat="44.57746" lon="6.22154">
        <ele>1077.6</ele>
        <time>2022-09-18T09:29:46Z</time>
      </trkpt>
      <trkpt lat="44.57746" lon="6.22151">
        <ele>1077.8</ele>
        <time>2022-09-18T09:29:47Z</time>
      </trkpt>
      <trkpt lat="44.57747" lon="6.22148">
        <ele>1078.4</ele>
        <time>2022-09-18T09:29:48Z</time>
      </trkpt>
      <trkpt lat="44.57748" lon="6.22145">
        <ele>1078.4</ele>
        <time>2022-09-18T09:29:49Z</time>
      </trkpt>
      <trkpt lat="44.57749" lon="6.22143">
        <ele>1078.6</ele>
        <time>2022-09-18T09:29:50Z</time>
      </trkpt>
      <trkpt lat="44.5775" lon="6.2214">
        <ele>1078.8</ele>
        <time>2022-09-18T09:29:51Z</time>
      </trkpt>
      <trkpt lat="44.5775" lon="6.22137">
        <ele>1079</ele>
        <time>2022-09-18T09:29:52Z</time>
      </trkpt>
      <trkpt lat="44.57751" lon="6.22134">
        <ele>1079.2</ele>
        <time>2022-09-18T09:29:53Z</time>
      </trkpt>
      <trkpt lat="44.57752" lon="6.2213">
        <ele>1079.6</ele>
        <time>2022-09-18T09:29:54Z</time>
      </trkpt>
      <trkpt lat="44.57752" lon="6.22127">
        <ele>1079.6</ele>
        <time>2022-09-18T09:29:55Z</time>
      </trkpt>
      <trkpt lat="44.57753" lon="6.22124">
        <ele>1079.6</ele>
        <time>2022-09-18T09:29:56Z</time>
      </trkpt>
      <trkpt lat="44.57753" lon="6.2212">
        <ele>1079.4</ele>
        <time>2022-09-18T09:29:57Z</time>
      </trkpt>
      <trkpt lat="44.57754" lon="6.22117">
        <ele>1079.4</ele>
        <time>2022-09-18T09:29:58Z</time>
      </trkpt>
      <trkpt lat="44.57754" lon="6.22114">
        <ele>1080</ele>
        <time>2022-09-18T09:29:59Z</time>
      </trkpt>
      <trkpt lat="44.57755" lon="6.2211">
        <ele>1080</ele>
        <time>2022-09-18T09:30:00Z</time>
      </trkpt>
      <trkpt lat="44.57755" lon="6.22107">
        <ele>1080</ele>
        <time>2022-09-18T09:30:01Z</time>
      </trkpt>
      <trkpt lat="44.57756" lon="6.22104">
        <ele>1080.2</ele>
        <time>2022-09-18T09:30:02Z</time>
      </trkpt>
      <trkpt lat="44.57756" lon="6.221">
        <ele>1080.6</ele>
        <time>2022-09-18T09:30:03Z</time>
      </trkpt>
      <trkpt lat="44.57756" lon="6.22096">
        <ele>1080.8</ele>
        <time>2022-09-18T09:30:04Z</time>
      </trkpt>
      <trkpt lat="44.57757" lon="6.22093">
        <ele>1081</ele>
        <time>2022-09-18T09:30:05Z</time>
      </trkpt>
      <trkpt lat="44.57757" lon="6.22089">
        <ele>1081.2</ele>
        <time>2022-09-18T09:30:06Z</time>
      </trkpt>
      <trkpt lat="44.57757" lon="6.22085">
        <ele>1081.4</ele>
        <time>2022-09-18T09:30:07Z</time>
      </trkpt>
      <trkpt lat="44.57757" lon="6.22082">
        <ele>1081.6</ele>
        <time>2022-09-18T09:30:08Z</time>
      </trkpt>
      <trkpt lat="44.57757" lon="6.22079">
        <ele>1081.8</ele>
        <time>2022-09-18T09:30:09Z</time>
      </trkpt>
      <trkpt lat="44.57757" lon="6.22075">
        <ele>1082</ele>
        <time>2022-09-18T09:30:10Z</time>
      </trkpt>
      <trkpt lat="44.57757" lon="6.22072">
        <ele>1082</ele>
        <time>2022-09-18T09:30:11Z</time>
      </trkpt>
      <trkpt lat="44.57757" lon="6.22068">
        <ele>1082</ele>
        <time>2022-09-18T09:30:12Z</time>
      </trkpt>
      <trkpt lat="44.57757" lon="6.22064">
        <ele>1082</ele>
        <time>2022-09-18T09:30:13Z</time>
      </trkpt>
      <trkpt lat="44.57757" lon="6.22061">
        <ele>1082</ele>
        <time>2022-09-18T09:30:14Z</time>
      </trkpt>
      <trkpt lat="44.57756" lon="6.22057">
        <ele>1082.4</ele>
        <time>2022-09-18T09:30:15Z</time>
      </trkpt>
      <trkpt lat="44.57756" lon="6.22053">
        <ele>1082.8</ele>
        <time>2022-09-18T09:30:16Z</time>
      </trkpt>
      <trkpt lat="44.57756" lon="6.2205">
        <ele>1083</ele>
        <time>2022-09-18T09:30:17Z</time>
      </trkpt>
      <trkpt lat="44.57756" lon="6.22046">
        <ele>1083.2</ele>
        <time>2022-09-18T09:30:18Z</time>
      </trkpt>
      <trkpt lat="44.57755" lon="6.22042">
        <ele>1083.6</ele>
        <time>2022-09-18T09:30:19Z</time>
      </trkpt>
      <trkpt lat="44.57755" lon="6.22039">
        <ele>1083.8</ele>
        <time>2022-09-18T09:30:20Z</time>
      </trkpt>
      <trkpt lat="44.57755" lon="6.22035">
        <ele>1083.8</ele>
        <time>2022-09-18T09:30:21Z</time>
      </trkpt>
      <trkpt lat="44.57755" lon="6.22032">
        <ele>1083.8</ele>
        <time>2022-09-18T09:30:22Z</time>
      </trkpt>
      <trkpt lat="44.57756" lon="6.22028">
        <ele>1083.8</ele>
        <time>2022-09-18T09:30:23Z</time>
      </trkpt>
      <trkpt lat="44.57756" lon="6.22025">
        <ele>1084</ele>
        <time>2022-09-18T09:30:24Z</time>
      </trkpt>
      <trkpt lat="44.57756" lon="6.22021">
        <ele>1084.2</ele>
        <time>2022-09-18T09:30:25Z</time>
      </trkpt>
      <trkpt lat="44.57757" lon="6.22018">
        <ele>1084.4</ele>
        <time>2022-09-18T09:30:26Z</time>
      </trkpt>
      <trkpt lat="44.57757" lon="6.22014">
        <ele>1084.6</ele>
        <time>2022-09-18T09:30:27Z</time>
      </trkpt>
      <trkpt lat="44.57757" lon="6.22011">
        <ele>1084.6</ele>
        <time>2022-09-18T09:30:28Z</time>
      </trkpt>
      <trkpt lat="44.57757" lon="6.22007">
        <ele>1084.8</ele>
        <time>2022-09-18T09:30:29Z</time>
      </trkpt>
      <trkpt lat="44.57757" lon="6.22004">
        <ele>1085</ele>
        <time>2022-09-18T09:30:30Z</time>
      </trkpt>
      <trkpt lat="44.57758" lon="6.22">
        <ele>1085</ele>
        <time>2022-09-18T09:30:31Z</time>
      </trkpt>
      <trkpt lat="44.57758" lon="6.21997">
        <ele>1085</ele>
        <time>2022-09-18T09:30:32Z</time>
      </trkpt>
      <trkpt lat="44.57759" lon="6.21994">
        <ele>1085.2</ele>
        <time>2022-09-18T09:30:33Z</time>
      </trkpt>
      <trkpt lat="44.57759" lon="6.2199">
        <ele>1085.2</ele>
        <time>2022-09-18T09:30:34Z</time>
      </trkpt>
      <trkpt lat="44.57759" lon="6.21987">
        <ele>1085.4</ele>
        <time>2022-09-18T09:30:35Z</time>
      </trkpt>
      <trkpt lat="44.5776" lon="6.21984">
        <ele>1085.2</ele>
        <time>2022-09-18T09:30:36Z</time>
      </trkpt>
      <trkpt lat="44.5776" lon="6.2198">
        <ele>1085.4</ele>
        <time>2022-09-18T09:30:37Z</time>
      </trkpt>
      <trkpt lat="44.57761" lon="6.21977">
        <ele>1085.6</ele>
        <time>2022-09-18T09:30:38Z</time>
      </trkpt>
      <trkpt lat="44.57762" lon="6.21974">
        <ele>1085.6</ele>
        <time>2022-09-18T09:30:39Z</time>
      </trkpt>
      <trkpt lat="44.57762" lon="6.21971">
        <ele>1085.8</ele>
        <time>2022-09-18T09:30:40Z</time>
      </trkpt>
      <trkpt lat="44.57763" lon="6.21968">
        <ele>1086</ele>
        <time>2022-09-18T09:30:41Z</time>
      </trkpt>
      <trkpt lat="44.57764" lon="6.21965">
        <ele>1085.8</ele>
        <time>2022-09-18T09:30:42Z</time>
      </trkpt>
      <trkpt lat="44.57765" lon="6.21962">
        <ele>1086</ele>
        <time>2022-09-18T09:30:43Z</time>
      </trkpt>
      <trkpt lat="44.57765" lon="6.21959">
        <ele>1086.2</ele>
        <time>2022-09-18T09:30:44Z</time>
      </trkpt>
      <trkpt lat="44.57766" lon="6.21956">
        <ele>1086.4</ele>
        <time>2022-09-18T09:30:45Z</time>
      </trkpt>
      <trkpt lat="44.57767" lon="6.21953">
        <ele>1086.4</ele>
        <time>2022-09-18T09:30:46Z</time>
      </trkpt>
      <trkpt lat="44.57768" lon="6.2195">
        <ele>1086.6</ele>
        <time>2022-09-18T09:30:47Z</time>
      </trkpt>
      <trkpt lat="44.57769" lon="6.21947">
        <ele>1086.8</ele>
        <time>2022-09-18T09:30:48Z</time>
      </trkpt>
      <trkpt lat="44.57771" lon="6.21944">
        <ele>1087</ele>
        <time>2022-09-18T09:30:49Z</time>
      </trkpt>
      <trkpt lat="44.57772" lon="6.21941">
        <ele>1087.2</ele>
        <time>2022-09-18T09:30:50Z</time>
      </trkpt>
      <trkpt lat="44.57773" lon="6.21938">
        <ele>1087.4</ele>
        <time>2022-09-18T09:30:51Z</time>
      </trkpt>
      <trkpt lat="44.57774" lon="6.21936">
        <ele>1087.4</ele>
        <time>2022-09-18T09:30:52Z</time>
      </trkpt>
      <trkpt lat="44.57775" lon="6.21932">
        <ele>1087.6</ele>
        <time>2022-09-18T09:30:53Z</time>
      </trkpt>
      <trkpt lat="44.57777" lon="6.21929">
        <ele>1087.6</ele>
        <time>2022-09-18T09:30:54Z</time>
      </trkpt>
      <trkpt lat="44.57778" lon="6.21927">
        <ele>1088</ele>
        <time>2022-09-18T09:30:55Z</time>
      </trkpt>
      <trkpt lat="44.57779" lon="6.21924">
        <ele>1088</ele>
        <time>2022-09-18T09:30:56Z</time>
      </trkpt>
      <trkpt lat="44.57781" lon="6.21921">
        <ele>1088.4</ele>
        <time>2022-09-18T09:30:57Z</time>
      </trkpt>
      <trkpt lat="44.57782" lon="6.21918">
        <ele>1088.6</ele>
        <time>2022-09-18T09:30:58Z</time>
      </trkpt>
      <trkpt lat="44.57783" lon="6.21915">
        <ele>1088.6</ele>
        <time>2022-09-18T09:30:59Z</time>
      </trkpt>
      <trkpt lat="44.57785" lon="6.21912">
        <ele>1089</ele>
        <time>2022-09-18T09:31:00Z</time>
      </trkpt>
      <trkpt lat="44.57786" lon="6.21909">
        <ele>1089.2</ele>
        <time>2022-09-18T09:31:01Z</time>
      </trkpt>
      <trkpt lat="44.57787" lon="6.21906">
        <ele>1089.6</ele>
        <time>2022-09-18T09:31:02Z</time>
      </trkpt>
      <trkpt lat="44.57789" lon="6.21903">
        <ele>1090</ele>
        <time>2022-09-18T09:31:03Z</time>
      </trkpt>
      <trkpt lat="44.5779" lon="6.219">
        <ele>1090.6</ele>
        <time>2022-09-18T09:31:04Z</time>
      </trkpt>
      <trkpt lat="44.57791" lon="6.21897">
        <ele>1090.8</ele>
        <time>2022-09-18T09:31:05Z</time>
      </trkpt>
      <trkpt lat="44.57793" lon="6.21894">
        <ele>1091</ele>
        <time>2022-09-18T09:31:06Z</time>
      </trkpt>
      <trkpt lat="44.57794" lon="6.21891">
        <ele>1091.4</ele>
        <time>2022-09-18T09:31:07Z</time>
      </trkpt>
      <trkpt lat="44.57795" lon="6.21888">
        <ele>1091.8</ele>
        <time>2022-09-18T09:31:08Z</time>
      </trkpt>
      <trkpt lat="44.57796" lon="6.21885">
        <ele>1092.2</ele>
        <time>2022-09-18T09:31:09Z</time>
      </trkpt>
      <trkpt lat="44.57797" lon="6.21882">
        <ele>1092.6</ele>
        <time>2022-09-18T09:31:10Z</time>
      </trkpt>
      <trkpt lat="44.57798" lon="6.21879">
        <ele>1093</ele>
        <time>2022-09-18T09:31:11Z</time>
      </trkpt>
      <trkpt lat="44.578" lon="6.21876">
        <ele>1093.2</ele>
        <time>2022-09-18T09:31:12Z</time>
      </trkpt>
      <trkpt lat="44.578" lon="6.21872">
        <ele>1093.8</ele>
        <time>2022-09-18T09:31:13Z</time>
      </trkpt>
      <trkpt lat="44.57801" lon="6.21869">
        <ele>1094.2</ele>
        <time>2022-09-18T09:31:14Z</time>
      </trkpt>
      <trkpt lat="44.57802" lon="6.21865">
        <ele>1094.6</ele>
        <time>2022-09-18T09:31:15Z</time>
      </trkpt>
      <trkpt lat="44.57803" lon="6.21862">
        <ele>1095</ele>
        <time>2022-09-18T09:31:16Z</time>
      </trkpt>
      <trkpt lat="44.57804" lon="6.21859">
        <ele>1095.4</ele>
        <time>2022-09-18T09:31:17Z</time>
      </trkpt>
      <trkpt lat="44.57805" lon="6.21856">
        <ele>1095.6</ele>
        <time>2022-09-18T09:31:18Z</time>
      </trkpt>
      <trkpt lat="44.57806" lon="6.21852">
        <ele>1096.2</ele>
        <time>2022-09-18T09:31:19Z</time>
      </trkpt>
      <trkpt lat="44.57807" lon="6.21848">
        <ele>1096.8</ele>
        <time>2022-09-18T09:31:20Z</time>
      </trkpt>
      <trkpt lat="44.57808" lon="6.21845">
        <ele>1097.2</ele>
        <time>2022-09-18T09:31:21Z</time>
      </trkpt>
      <trkpt lat="44.57808" lon="6.21841">
        <ele>1097.6</ele>
        <time>2022-09-18T09:31:22Z</time>
      </trkpt>
      <trkpt lat="44.57809" lon="6.21837">
        <ele>1098</ele>
        <time>2022-09-18T09:31:23Z</time>
      </trkpt>
      <trkpt lat="44.5781" lon="6.21833">
        <ele>1098.4</ele>
        <time>2022-09-18T09:31:24Z</time>
      </trkpt>
      <trkpt lat="44.5781" lon="6.2183">
        <ele>1098.8</ele>
        <time>2022-09-18T09:31:25Z</time>
      </trkpt>
      <trkpt lat="44.57811" lon="6.21826">
        <ele>1099.4</ele>
        <time>2022-09-18T09:31:26Z</time>
      </trkpt>
      <trkpt lat="44.57812" lon="6.21823">
        <ele>1099.8</ele>
        <time>2022-09-18T09:31:27Z</time>
      </trkpt>
      <trkpt lat="44.57813" lon="6.21819">
        <ele>1100</ele>
        <time>2022-09-18T09:31:28Z</time>
      </trkpt>
      <trkpt lat="44.57814" lon="6.21816">
        <ele>1100.4</ele>
        <time>2022-09-18T09:31:29Z</time>
      </trkpt>
      <trkpt lat="44.57814" lon="6.21812">
        <ele>1100.6</ele>
        <time>2022-09-18T09:31:30Z</time>
      </trkpt>
      <trkpt lat="44.57815" lon="6.21809">
        <ele>1100.8</ele>
        <time>2022-09-18T09:31:31Z</time>
      </trkpt>
      <trkpt lat="44.57816" lon="6.21805">
        <ele>1100.8</ele>
        <time>2022-09-18T09:31:32Z</time>
      </trkpt>
      <trkpt lat="44.57817" lon="6.21802">
        <ele>1101</ele>
        <time>2022-09-18T09:31:33Z</time>
      </trkpt>
      <trkpt lat="44.57818" lon="6.21799">
        <ele>1101.2</ele>
        <time>2022-09-18T09:31:34Z</time>
      </trkpt>
      <trkpt lat="44.57818" lon="6.21795">
        <ele>1101.4</ele>
        <time>2022-09-18T09:31:35Z</time>
      </trkpt>
      <trkpt lat="44.57819" lon="6.21792">
        <ele>1101.4</ele>
        <time>2022-09-18T09:31:36Z</time>
      </trkpt>
      <trkpt lat="44.57819" lon="6.21788">
        <ele>1101.6</ele>
        <time>2022-09-18T09:31:37Z</time>
      </trkpt>
      <trkpt lat="44.57819" lon="6.21784">
        <ele>1101.8</ele>
        <time>2022-09-18T09:31:38Z</time>
      </trkpt>
      <trkpt lat="44.57819" lon="6.2178">
        <ele>1102</ele>
        <time>2022-09-18T09:31:39Z</time>
      </trkpt>
      <trkpt lat="44.5782" lon="6.21776">
        <ele>1102</ele>
        <time>2022-09-18T09:31:40Z</time>
      </trkpt>
      <trkpt lat="44.5782" lon="6.21773">
        <ele>1102</ele>
        <time>2022-09-18T09:31:41Z</time>
      </trkpt>
      <trkpt lat="44.5782" lon="6.21769">
        <ele>1102</ele>
        <time>2022-09-18T09:31:42Z</time>
      </trkpt>
      <trkpt lat="44.5782" lon="6.21765">
        <ele>1102.4</ele>
        <time>2022-09-18T09:31:43Z</time>
      </trkpt>
      <trkpt lat="44.57821" lon="6.21761">
        <ele>1102.2</ele>
        <time>2022-09-18T09:31:44Z</time>
      </trkpt>
      <trkpt lat="44.57821" lon="6.21757">
        <ele>1102.2</ele>
        <time>2022-09-18T09:31:45Z</time>
      </trkpt>
      <trkpt lat="44.57821" lon="6.21753">
        <ele>1102.2</ele>
        <time>2022-09-18T09:31:46Z</time>
      </trkpt>
      <trkpt lat="44.57821" lon="6.21749">
        <ele>1102.2</ele>
        <time>2022-09-18T09:31:47Z</time>
      </trkpt>
      <trkpt lat="44.57821" lon="6.21745">
        <ele>1102</ele>
        <time>2022-09-18T09:31:48Z</time>
      </trkpt>
      <trkpt lat="44.57822" lon="6.21741">
        <ele>1101.8</ele>
        <time>2022-09-18T09:31:49Z</time>
      </trkpt>
      <trkpt lat="44.57822" lon="6.21737">
        <ele>1101.8</ele>
        <time>2022-09-18T09:31:50Z</time>
      </trkpt>
      <trkpt lat="44.57822" lon="6.21734">
        <ele>1101.8</ele>
        <time>2022-09-18T09:31:51Z</time>
      </trkpt>
      <trkpt lat="44.57822" lon="6.2173">
        <ele>1101.6</ele>
        <time>2022-09-18T09:31:52Z</time>
      </trkpt>
      <trkpt lat="44.57823" lon="6.21726">
        <ele>1101.4</ele>
        <time>2022-09-18T09:31:53Z</time>
      </trkpt>
      <trkpt lat="44.57823" lon="6.21722">
        <ele>1101.4</ele>
        <time>2022-09-18T09:31:54Z</time>
      </trkpt>
      <trkpt lat="44.57823" lon="6.21718">
        <ele>1101.4</ele>
        <time>2022-09-18T09:31:55Z</time>
      </trkpt>
      <trkpt lat="44.57824" lon="6.21714">
        <ele>1101.4</ele>
        <time>2022-09-18T09:31:56Z</time>
      </trkpt>
      <trkpt lat="44.57824" lon="6.2171">
        <ele>1101.2</ele>
        <time>2022-09-18T09:31:57Z</time>
      </trkpt>
      <trkpt lat="44.57824" lon="6.21706">
        <ele>1101.2</ele>
        <time>2022-09-18T09:31:58Z</time>
      </trkpt>
      <trkpt lat="44.57824" lon="6.21702">
        <ele>1101</ele>
        <time>2022-09-18T09:31:59Z</time>
      </trkpt>
      <trkpt lat="44.57825" lon="6.21698">
        <ele>1100.8</ele>
        <time>2022-09-18T09:32:00Z</time>
      </trkpt>
      <trkpt lat="44.57825" lon="6.21694">
        <ele>1100.6</ele>
        <time>2022-09-18T09:32:01Z</time>
      </trkpt>
      <trkpt lat="44.57825" lon="6.2169">
        <ele>1100.6</ele>
        <time>2022-09-18T09:32:02Z</time>
      </trkpt>
      <trkpt lat="44.57825" lon="6.21687">
        <ele>1100.6</ele>
        <time>2022-09-18T09:32:03Z</time>
      </trkpt>
      <trkpt lat="44.57825" lon="6.21683">
        <ele>1100.4</ele>
        <time>2022-09-18T09:32:04Z</time>
      </trkpt>
      <trkpt lat="44.57825" lon="6.21679">
        <ele>1100.4</ele>
        <time>2022-09-18T09:32:05Z</time>
      </trkpt>
      <trkpt lat="44.57824" lon="6.21675">
        <ele>1100.4</ele>
        <time>2022-09-18T09:32:06Z</time>
      </trkpt>
      <trkpt lat="44.57824" lon="6.21671">
        <ele>1100.4</ele>
        <time>2022-09-18T09:32:07Z</time>
      </trkpt>
      <trkpt lat="44.57824" lon="6.21667">
        <ele>1100.2</ele>
        <time>2022-09-18T09:32:08Z</time>
      </trkpt>
      <trkpt lat="44.57823" lon="6.21663">
        <ele>1100.2</ele>
        <time>2022-09-18T09:32:09Z</time>
      </trkpt>
      <trkpt lat="44.57823" lon="6.21659">
        <ele>1100.2</ele>
        <time>2022-09-18T09:32:10Z</time>
      </trkpt>
      <trkpt lat="44.57822" lon="6.21655">
        <ele>1100.2</ele>
        <time>2022-09-18T09:32:11Z</time>
      </trkpt>
      <trkpt lat="44.57822" lon="6.21651">
        <ele>1100</ele>
        <time>2022-09-18T09:32:12Z</time>
      </trkpt>
      <trkpt lat="44.57822" lon="6.21648">
        <ele>1100</ele>
        <time>2022-09-18T09:32:13Z</time>
      </trkpt>
      <trkpt lat="44.57822" lon="6.21644">
        <ele>1099.8</ele>
        <time>2022-09-18T09:32:14Z</time>
      </trkpt>
      <trkpt lat="44.57821" lon="6.2164">
        <ele>1099.8</ele>
        <time>2022-09-18T09:32:15Z</time>
      </trkpt>
      <trkpt lat="44.57821" lon="6.21637">
        <ele>1100</ele>
        <time>2022-09-18T09:32:16Z</time>
      </trkpt>
      <trkpt lat="44.57821" lon="6.21633">
        <ele>1099.8</ele>
        <time>2022-09-18T09:32:17Z</time>
      </trkpt>
      <trkpt lat="44.5782" lon="6.21629">
        <ele>1099.8</ele>
        <time>2022-09-18T09:32:18Z</time>
      </trkpt>
      <trkpt lat="44.5782" lon="6.21625">
        <ele>1099.8</ele>
        <time>2022-09-18T09:32:19Z</time>
      </trkpt>
      <trkpt lat="44.57819" lon="6.21622">
        <ele>1099.6</ele>
        <time>2022-09-18T09:32:20Z</time>
      </trkpt>
      <trkpt lat="44.57819" lon="6.21618">
        <ele>1099.8</ele>
        <time>2022-09-18T09:32:21Z</time>
      </trkpt>
      <trkpt lat="44.57819" lon="6.21614">
        <ele>1100</ele>
        <time>2022-09-18T09:32:22Z</time>
      </trkpt>
      <trkpt lat="44.57818" lon="6.2161">
        <ele>1100</ele>
        <time>2022-09-18T09:32:23Z</time>
      </trkpt>
      <trkpt lat="44.57818" lon="6.21606">
        <ele>1099.8</ele>
        <time>2022-09-18T09:32:24Z</time>
      </trkpt>
      <trkpt lat="44.57818" lon="6.21603">
        <ele>1099.8</ele>
        <time>2022-09-18T09:32:25Z</time>
      </trkpt>
      <trkpt lat="44.57817" lon="6.21599">
        <ele>1100</ele>
        <time>2022-09-18T09:32:26Z</time>
      </trkpt>
      <trkpt lat="44.57817" lon="6.21595">
        <ele>1100</ele>
        <time>2022-09-18T09:32:27Z</time>
      </trkpt>
      <trkpt lat="44.57817" lon="6.21591">
        <ele>1099.8</ele>
        <time>2022-09-18T09:32:28Z</time>
      </trkpt>
      <trkpt lat="44.57818" lon="6.21587">
        <ele>1099.8</ele>
        <time>2022-09-18T09:32:29Z</time>
      </trkpt>
      <trkpt lat="44.57818" lon="6.21583">
        <ele>1100</ele>
        <time>2022-09-18T09:32:30Z</time>
      </trkpt>
      <trkpt lat="44.57819" lon="6.21579">
        <ele>1099.8</ele>
        <time>2022-09-18T09:32:31Z</time>
      </trkpt>
      <trkpt lat="44.57819" lon="6.21575">
        <ele>1099.8</ele>
        <time>2022-09-18T09:32:32Z</time>
      </trkpt>
      <trkpt lat="44.57819" lon="6.2157">
        <ele>1099.6</ele>
        <time>2022-09-18T09:32:33Z</time>
      </trkpt>
      <trkpt lat="44.5782" lon="6.21566">
        <ele>1099.8</ele>
        <time>2022-09-18T09:32:34Z</time>
      </trkpt>
      <trkpt lat="44.5782" lon="6.21562">
        <ele>1099.6</ele>
        <time>2022-09-18T09:32:35Z</time>
      </trkpt>
      <trkpt lat="44.5782" lon="6.21558">
        <ele>1099.2</ele>
        <time>2022-09-18T09:32:36Z</time>
      </trkpt>
      <trkpt lat="44.5782" lon="6.21553">
        <ele>1099.2</ele>
        <time>2022-09-18T09:32:37Z</time>
      </trkpt>
      <trkpt lat="44.5782" lon="6.21549">
        <ele>1099.2</ele>
        <time>2022-09-18T09:32:38Z</time>
      </trkpt>
      <trkpt lat="44.5782" lon="6.21545">
        <ele>1099</ele>
        <time>2022-09-18T09:32:39Z</time>
      </trkpt>
      <trkpt lat="44.57821" lon="6.2154">
        <ele>1099</ele>
        <time>2022-09-18T09:32:40Z</time>
      </trkpt>
      <trkpt lat="44.57821" lon="6.21536">
        <ele>1098.8</ele>
        <time>2022-09-18T09:32:41Z</time>
      </trkpt>
      <trkpt lat="44.57821" lon="6.21531">
        <ele>1098.8</ele>
        <time>2022-09-18T09:32:42Z</time>
      </trkpt>
      <trkpt lat="44.57822" lon="6.21527">
        <ele>1098.8</ele>
        <time>2022-09-18T09:32:43Z</time>
      </trkpt>
      <trkpt lat="44.57823" lon="6.21523">
        <ele>1098.8</ele>
        <time>2022-09-18T09:32:44Z</time>
      </trkpt>
      <trkpt lat="44.57823" lon="6.21519">
        <ele>1098.8</ele>
        <time>2022-09-18T09:32:45Z</time>
      </trkpt>
      <trkpt lat="44.57824" lon="6.21515">
        <ele>1099</ele>
        <time>2022-09-18T09:32:46Z</time>
      </trkpt>
      <trkpt lat="44.57824" lon="6.21511">
        <ele>1098.8</ele>
        <time>2022-09-18T09:32:47Z</time>
      </trkpt>
      <trkpt lat="44.57825" lon="6.21507">
        <ele>1098.8</ele>
        <time>2022-09-18T09:32:48Z</time>
      </trkpt>
      <trkpt lat="44.57825" lon="6.21503">
        <ele>1098.8</ele>
        <time>2022-09-18T09:32:49Z</time>
      </trkpt>
      <trkpt lat="44.57825" lon="6.21498">
        <ele>1098.8</ele>
        <time>2022-09-18T09:32:50Z</time>
      </trkpt>
      <trkpt lat="44.57826" lon="6.21494">
        <ele>1099</ele>
        <time>2022-09-18T09:32:51Z</time>
      </trkpt>
      <trkpt lat="44.57826" lon="6.2149">
        <ele>1099</ele>
        <time>2022-09-18T09:32:52Z</time>
      </trkpt>
      <trkpt lat="44.57827" lon="6.21487">
        <ele>1099</ele>
        <time>2022-09-18T09:32:53Z</time>
      </trkpt>
      <trkpt lat="44.57827" lon="6.21483">
        <ele>1099.2</ele>
        <time>2022-09-18T09:32:54Z</time>
      </trkpt>
      <trkpt lat="44.57828" lon="6.2148">
        <ele>1099.2</ele>
        <time>2022-09-18T09:32:55Z</time>
      </trkpt>
      <trkpt lat="44.57829" lon="6.21476">
        <ele>1099.2</ele>
        <time>2022-09-18T09:32:56Z</time>
      </trkpt>
      <trkpt lat="44.57829" lon="6.21473">
        <ele>1099.2</ele>
        <time>2022-09-18T09:32:57Z</time>
      </trkpt>
      <trkpt lat="44.5783" lon="6.2147">
        <ele>1099.2</ele>
        <time>2022-09-18T09:32:58Z</time>
      </trkpt>
      <trkpt lat="44.57831" lon="6.21466">
        <ele>1099.4</ele>
        <time>2022-09-18T09:32:59Z</time>
      </trkpt>
      <trkpt lat="44.57832" lon="6.21463">
        <ele>1099.4</ele>
        <time>2022-09-18T09:33:00Z</time>
      </trkpt>
      <trkpt lat="44.57833" lon="6.21459">
        <ele>1099.4</ele>
        <time>2022-09-18T09:33:01Z</time>
      </trkpt>
      <trkpt lat="44.57834" lon="6.21455">
        <ele>1099.6</ele>
        <time>2022-09-18T09:33:02Z</time>
      </trkpt>
      <trkpt lat="44.57835" lon="6.21451">
        <ele>1099.8</ele>
        <time>2022-09-18T09:33:03Z</time>
      </trkpt>
      <trkpt lat="44.57836" lon="6.21448">
        <ele>1099.8</ele>
        <time>2022-09-18T09:33:04Z</time>
      </trkpt>
      <trkpt lat="44.57837" lon="6.21444">
        <ele>1100.2</ele>
        <time>2022-09-18T09:33:05Z</time>
      </trkpt>
      <trkpt lat="44.57838" lon="6.21441">
        <ele>1100.6</ele>
        <time>2022-09-18T09:33:06Z</time>
      </trkpt>
      <trkpt lat="44.57839" lon="6.21437">
        <ele>1101</ele>
        <time>2022-09-18T09:33:07Z</time>
      </trkpt>
      <trkpt lat="44.57841" lon="6.21434">
        <ele>1101.4</ele>
        <time>2022-09-18T09:33:08Z</time>
      </trkpt>
      <trkpt lat="44.57842" lon="6.2143">
        <ele>1101.6</ele>
        <time>2022-09-18T09:33:09Z</time>
      </trkpt>
      <trkpt lat="44.57843" lon="6.21427">
        <ele>1102</ele>
        <time>2022-09-18T09:33:10Z</time>
      </trkpt>
      <trkpt lat="44.57843" lon="6.21423">
        <ele>1102.4</ele>
        <time>2022-09-18T09:33:11Z</time>
      </trkpt>
      <trkpt lat="44.57844" lon="6.2142">
        <ele>1102.8</ele>
        <time>2022-09-18T09:33:12Z</time>
      </trkpt>
      <trkpt lat="44.57845" lon="6.21416">
        <ele>1103.4</ele>
        <time>2022-09-18T09:33:13Z</time>
      </trkpt>
      <trkpt lat="44.57847" lon="6.21413">
        <ele>1104</ele>
        <time>2022-09-18T09:33:14Z</time>
      </trkpt>
      <trkpt lat="44.57847" lon="6.21409">
        <ele>1104.6</ele>
        <time>2022-09-18T09:33:15Z</time>
      </trkpt>
      <trkpt lat="44.57848" lon="6.21406">
        <ele>1105.2</ele>
        <time>2022-09-18T09:33:16Z</time>
      </trkpt>
      <trkpt lat="44.57849" lon="6.21402">
        <ele>1105.6</ele>
        <time>2022-09-18T09:33:17Z</time>
      </trkpt>
      <trkpt lat="44.5785" lon="6.21399">
        <ele>1106.2</ele>
        <time>2022-09-18T09:33:18Z</time>
      </trkpt>
      <trkpt lat="44.57851" lon="6.21395">
        <ele>1107</ele>
        <time>2022-09-18T09:33:19Z</time>
      </trkpt>
      <trkpt lat="44.57852" lon="6.21392">
        <ele>1107.6</ele>
        <time>2022-09-18T09:33:20Z</time>
      </trkpt>
      <trkpt lat="44.57854" lon="6.21388">
        <ele>1108.2</ele>
        <time>2022-09-18T09:33:21Z</time>
      </trkpt>
      <trkpt lat="44.57855" lon="6.21385">
        <ele>1108.6</ele>
        <time>2022-09-18T09:33:22Z</time>
      </trkpt>
      <trkpt lat="44.57856" lon="6.21382">
        <ele>1109</ele>
        <time>2022-09-18T09:33:23Z</time>
      </trkpt>
      <trkpt lat="44.57858" lon="6.21378">
        <ele>1109.4</ele>
        <time>2022-09-18T09:33:24Z</time>
      </trkpt>
      <trkpt lat="44.57859" lon="6.21375">
        <ele>1109.8</ele>
        <time>2022-09-18T09:33:25Z</time>
      </trkpt>
      <trkpt lat="44.5786" lon="6.21372">
        <ele>1110.4</ele>
        <time>2022-09-18T09:33:26Z</time>
      </trkpt>
      <trkpt lat="44.57861" lon="6.21369">
        <ele>1110.8</ele>
        <time>2022-09-18T09:33:27Z</time>
      </trkpt>
      <trkpt lat="44.57862" lon="6.21366">
        <ele>1111.2</ele>
        <time>2022-09-18T09:33:28Z</time>
      </trkpt>
      <trkpt lat="44.57864" lon="6.21362">
        <ele>1111.4</ele>
        <time>2022-09-18T09:33:29Z</time>
      </trkpt>
      <trkpt lat="44.57865" lon="6.21359">
        <ele>1111.8</ele>
        <time>2022-09-18T09:33:30Z</time>
      </trkpt>
      <trkpt lat="44.57866" lon="6.21356">
        <ele>1112.2</ele>
        <time>2022-09-18T09:33:31Z</time>
      </trkpt>
      <trkpt lat="44.57867" lon="6.21353">
        <ele>1112.6</ele>
        <time>2022-09-18T09:33:32Z</time>
      </trkpt>
      <trkpt lat="44.57868" lon="6.2135">
        <ele>1113</ele>
        <time>2022-09-18T09:33:33Z</time>
      </trkpt>
      <trkpt lat="44.57869" lon="6.21347">
        <ele>1113.4</ele>
        <time>2022-09-18T09:33:34Z</time>
      </trkpt>
      <trkpt lat="44.5787" lon="6.21343">
        <ele>1114</ele>
        <time>2022-09-18T09:33:35Z</time>
      </trkpt>
      <trkpt lat="44.57871" lon="6.2134">
        <ele>1114.4</ele>
        <time>2022-09-18T09:33:36Z</time>
      </trkpt>
      <trkpt lat="44.57872" lon="6.21337">
        <ele>1114.8</ele>
        <time>2022-09-18T09:33:37Z</time>
      </trkpt>
      <trkpt lat="44.57873" lon="6.21334">
        <ele>1115.4</ele>
        <time>2022-09-18T09:33:38Z</time>
      </trkpt>
      <trkpt lat="44.57875" lon="6.21331">
        <ele>1115.8</ele>
        <time>2022-09-18T09:33:39Z</time>
      </trkpt>
      <trkpt lat="44.57876" lon="6.21328">
        <ele>1116.4</ele>
        <time>2022-09-18T09:33:40Z</time>
      </trkpt>
      <trkpt lat="44.57877" lon="6.21325">
        <ele>1116.8</ele>
        <time>2022-09-18T09:33:41Z</time>
      </trkpt>
      <trkpt lat="44.57878" lon="6.21322">
        <ele>1117.4</ele>
        <time>2022-09-18T09:33:42Z</time>
      </trkpt>
      <trkpt lat="44.57879" lon="6.21319">
        <ele>1117.8</ele>
        <time>2022-09-18T09:33:43Z</time>
      </trkpt>
      <trkpt lat="44.5788" lon="6.21316">
        <ele>1118.2</ele>
        <time>2022-09-18T09:33:44Z</time>
      </trkpt>
      <trkpt lat="44.57881" lon="6.21313">
        <ele>1118.6</ele>
        <time>2022-09-18T09:33:45Z</time>
      </trkpt>
      <trkpt lat="44.57882" lon="6.2131">
        <ele>1119.2</ele>
        <time>2022-09-18T09:33:46Z</time>
      </trkpt>
      <trkpt lat="44.57884" lon="6.21307">
        <ele>1119.6</ele>
        <time>2022-09-18T09:33:47Z</time>
      </trkpt>
      <trkpt lat="44.57885" lon="6.21303">
        <ele>1120.2</ele>
        <time>2022-09-18T09:33:48Z</time>
      </trkpt>
      <trkpt lat="44.57886" lon="6.213">
        <ele>1120.6</ele>
        <time>2022-09-18T09:33:49Z</time>
      </trkpt>
      <trkpt lat="44.57887" lon="6.21297">
        <ele>1121</ele>
        <time>2022-09-18T09:33:50Z</time>
      </trkpt>
      <trkpt lat="44.57888" lon="6.21294">
        <ele>1121.6</ele>
        <time>2022-09-18T09:33:51Z</time>
      </trkpt>
      <trkpt lat="44.57889" lon="6.21291">
        <ele>1122.2</ele>
        <time>2022-09-18T09:33:52Z</time>
      </trkpt>
      <trkpt lat="44.57891" lon="6.21289">
        <ele>1122.8</ele>
        <time>2022-09-18T09:33:53Z</time>
      </trkpt>
      <trkpt lat="44.57892" lon="6.21286">
        <ele>1123.2</ele>
        <time>2022-09-18T09:33:54Z</time>
      </trkpt>
      <trkpt lat="44.57893" lon="6.21283">
        <ele>1123.8</ele>
        <time>2022-09-18T09:33:55Z</time>
      </trkpt>
      <trkpt lat="44.57895" lon="6.2128">
        <ele>1124.4</ele>
        <time>2022-09-18T09:33:56Z</time>
      </trkpt>
      <trkpt lat="44.57896" lon="6.21277">
        <ele>1125</ele>
        <time>2022-09-18T09:33:57Z</time>
      </trkpt>
      <trkpt lat="44.57897" lon="6.21274">
        <ele>1125.4</ele>
        <time>2022-09-18T09:33:58Z</time>
      </trkpt>
      <trkpt lat="44.57899" lon="6.21271">
        <ele>1126</ele>
        <time>2022-09-18T09:33:59Z</time>
      </trkpt>
      <trkpt lat="44.579" lon="6.21268">
        <ele>1126.4</ele>
        <time>2022-09-18T09:34:00Z</time>
      </trkpt>
      <trkpt lat="44.57901" lon="6.21266">
        <ele>1126.4</ele>
        <time>2022-09-18T09:34:01Z</time>
      </trkpt>
      <trkpt lat="44.57902" lon="6.21263">
        <ele>1127</ele>
        <time>2022-09-18T09:34:02Z</time>
      </trkpt>
      <trkpt lat="44.57904" lon="6.2126">
        <ele>1127.2</ele>
        <time>2022-09-18T09:34:03Z</time>
      </trkpt>
      <trkpt lat="44.57905" lon="6.21257">
        <ele>1127.8</ele>
        <time>2022-09-18T09:34:04Z</time>
      </trkpt>
      <trkpt lat="44.57906" lon="6.21254">
        <ele>1128.4</ele>
        <time>2022-09-18T09:34:05Z</time>
      </trkpt>
      <trkpt lat="44.57907" lon="6.2125">
        <ele>1128.6</ele>
        <time>2022-09-18T09:34:06Z</time>
      </trkpt>
      <trkpt lat="44.57908" lon="6.21247">
        <ele>1129</ele>
        <time>2022-09-18T09:34:07Z</time>
      </trkpt>
      <trkpt lat="44.57909" lon="6.21244">
        <ele>1129.4</ele>
        <time>2022-09-18T09:34:08Z</time>
      </trkpt>
      <trkpt lat="44.5791" lon="6.21241">
        <ele>1129.8</ele>
        <time>2022-09-18T09:34:09Z</time>
      </trkpt>
      <trkpt lat="44.57911" lon="6.21237">
        <ele>1130.2</ele>
        <time>2022-09-18T09:34:10Z</time>
      </trkpt>
      <trkpt lat="44.57912" lon="6.21234">
        <ele>1130.6</ele>
        <time>2022-09-18T09:34:11Z</time>
      </trkpt>
      <trkpt lat="44.57913" lon="6.21231">
        <ele>1131.2</ele>
        <time>2022-09-18T09:34:12Z</time>
      </trkpt>
      <trkpt lat="44.57913" lon="6.21227">
        <ele>1131.6</ele>
        <time>2022-09-18T09:34:13Z</time>
      </trkpt>
      <trkpt lat="44.57914" lon="6.21223">
        <ele>1132</ele>
        <time>2022-09-18T09:34:14Z</time>
      </trkpt>
      <trkpt lat="44.57915" lon="6.2122">
        <ele>1132.2</ele>
        <time>2022-09-18T09:34:15Z</time>
      </trkpt>
      <trkpt lat="44.57915" lon="6.21216">
        <ele>1132.2</ele>
        <time>2022-09-18T09:34:16Z</time>
      </trkpt>
      <trkpt lat="44.57916" lon="6.21213">
        <ele>1132.6</ele>
        <time>2022-09-18T09:34:17Z</time>
      </trkpt>
      <trkpt lat="44.57916" lon="6.21209">
        <ele>1133</ele>
        <time>2022-09-18T09:34:18Z</time>
      </trkpt>
      <trkpt lat="44.57916" lon="6.21206">
        <ele>1133.6</ele>
        <time>2022-09-18T09:34:19Z</time>
      </trkpt>
      <trkpt lat="44.57917" lon="6.21202">
        <ele>1134</ele>
        <time>2022-09-18T09:34:20Z</time>
      </trkpt>
      <trkpt lat="44.57917" lon="6.21198">
        <ele>1134.4</ele>
        <time>2022-09-18T09:34:21Z</time>
      </trkpt>
      <trkpt lat="44.57917" lon="6.21195">
        <ele>1134.6</ele>
        <time>2022-09-18T09:34:22Z</time>
      </trkpt>
      <trkpt lat="44.57917" lon="6.21191">
        <ele>1135.2</ele>
        <time>2022-09-18T09:34:23Z</time>
      </trkpt>
      <trkpt lat="44.57917" lon="6.21187">
        <ele>1135.6</ele>
        <time>2022-09-18T09:34:24Z</time>
      </trkpt>
      <trkpt lat="44.57917" lon="6.21183">
        <ele>1136</ele>
        <time>2022-09-18T09:34:25Z</time>
      </trkpt>
      <trkpt lat="44.57918" lon="6.21179">
        <ele>1136.2</ele>
        <time>2022-09-18T09:34:26Z</time>
      </trkpt>
      <trkpt lat="44.57918" lon="6.21176">
        <ele>1136.6</ele>
        <time>2022-09-18T09:34:27Z</time>
      </trkpt>
      <trkpt lat="44.57919" lon="6.21172">
        <ele>1137</ele>
        <time>2022-09-18T09:34:28Z</time>
      </trkpt>
      <trkpt lat="44.57919" lon="6.21168">
        <ele>1137.4</ele>
        <time>2022-09-18T09:34:29Z</time>
      </trkpt>
      <trkpt lat="44.57919" lon="6.21165">
        <ele>1137.6</ele>
        <time>2022-09-18T09:34:30Z</time>
      </trkpt>
      <trkpt lat="44.5792" lon="6.21161">
        <ele>1138</ele>
        <time>2022-09-18T09:34:31Z</time>
      </trkpt>
      <trkpt lat="44.57921" lon="6.21158">
        <ele>1138.2</ele>
        <time>2022-09-18T09:34:32Z</time>
      </trkpt>
      <trkpt lat="44.57922" lon="6.21154">
        <ele>1138.2</ele>
        <time>2022-09-18T09:34:33Z</time>
      </trkpt>
      <trkpt lat="44.57923" lon="6.21151">
        <ele>1138.6</ele>
        <time>2022-09-18T09:34:34Z</time>
      </trkpt>
      <trkpt lat="44.57925" lon="6.21149">
        <ele>1138.8</ele>
        <time>2022-09-18T09:34:35Z</time>
      </trkpt>
      <trkpt lat="44.57927" lon="6.21146">
        <ele>1139</ele>
        <time>2022-09-18T09:34:36Z</time>
      </trkpt>
      <trkpt lat="44.57929" lon="6.21144">
        <ele>1139.2</ele>
        <time>2022-09-18T09:34:37Z</time>
      </trkpt>
      <trkpt lat="44.57931" lon="6.21142">
        <ele>1139.2</ele>
        <time>2022-09-18T09:34:38Z</time>
      </trkpt>
      <trkpt lat="44.57934" lon="6.21139">
        <ele>1139.4</ele>
        <time>2022-09-18T09:34:39Z</time>
      </trkpt>
      <trkpt lat="44.57936" lon="6.21138">
        <ele>1139.6</ele>
        <time>2022-09-18T09:34:40Z</time>
      </trkpt>
      <trkpt lat="44.57939" lon="6.21137">
        <ele>1139.8</ele>
        <time>2022-09-18T09:34:41Z</time>
      </trkpt>
      <trkpt lat="44.57941" lon="6.21136">
        <ele>1140</ele>
        <time>2022-09-18T09:34:42Z</time>
      </trkpt>
      <trkpt lat="44.57944" lon="6.21135">
        <ele>1140.2</ele>
        <time>2022-09-18T09:34:43Z</time>
      </trkpt>
      <trkpt lat="44.57947" lon="6.21135">
        <ele>1140.4</ele>
        <time>2022-09-18T09:34:44Z</time>
      </trkpt>
      <trkpt lat="44.5795" lon="6.21136">
        <ele>1140.6</ele>
        <time>2022-09-18T09:34:45Z</time>
      </trkpt>
      <trkpt lat="44.57952" lon="6.21136">
        <ele>1140.8</ele>
        <time>2022-09-18T09:34:46Z</time>
      </trkpt>
      <trkpt lat="44.57955" lon="6.21138">
        <ele>1141</ele>
        <time>2022-09-18T09:34:47Z</time>
      </trkpt>
      <trkpt lat="44.57957" lon="6.21139">
        <ele>1141.4</ele>
        <time>2022-09-18T09:34:48Z</time>
      </trkpt>
      <trkpt lat="44.57959" lon="6.21142">
        <ele>1141.4</ele>
        <time>2022-09-18T09:34:49Z</time>
      </trkpt>
      <trkpt lat="44.57961" lon="6.21144">
        <ele>1141.6</ele>
        <time>2022-09-18T09:34:50Z</time>
      </trkpt>
      <trkpt lat="44.57963" lon="6.21147">
        <ele>1142</ele>
        <time>2022-09-18T09:34:51Z</time>
      </trkpt>
      <trkpt lat="44.57965" lon="6.21149">
        <ele>1142.6</ele>
        <time>2022-09-18T09:34:52Z</time>
      </trkpt>
      <trkpt lat="44.57967" lon="6.21152">
        <ele>1142.6</ele>
        <time>2022-09-18T09:34:53Z</time>
      </trkpt>
      <trkpt lat="44.57969" lon="6.21154">
        <ele>1142.8</ele>
        <time>2022-09-18T09:34:54Z</time>
      </trkpt>
      <trkpt lat="44.5797" lon="6.21157">
        <ele>1143</ele>
        <time>2022-09-18T09:34:55Z</time>
      </trkpt>
      <trkpt lat="44.57971" lon="6.2116">
        <ele>1143.4</ele>
        <time>2022-09-18T09:34:56Z</time>
      </trkpt>
      <trkpt lat="44.57972" lon="6.21163">
        <ele>1143.8</ele>
        <time>2022-09-18T09:34:57Z</time>
      </trkpt>
      <trkpt lat="44.57973" lon="6.21167">
        <ele>1144.2</ele>
        <time>2022-09-18T09:34:58Z</time>
      </trkpt>
      <trkpt lat="44.57974" lon="6.2117">
        <ele>1144.4</ele>
        <time>2022-09-18T09:34:59Z</time>
      </trkpt>
      <trkpt lat="44.57974" lon="6.21174">
        <ele>1144.8</ele>
        <time>2022-09-18T09:35:00Z</time>
      </trkpt>
      <trkpt lat="44.57974" lon="6.21177">
        <ele>1145.2</ele>
        <time>2022-09-18T09:35:01Z</time>
      </trkpt>
      <trkpt lat="44.57974" lon="6.21181">
        <ele>1145.6</ele>
        <time>2022-09-18T09:35:02Z</time>
      </trkpt>
      <trkpt lat="44.57974" lon="6.21185">
        <ele>1145.8</ele>
        <time>2022-09-18T09:35:03Z</time>
      </trkpt>
      <trkpt lat="44.57975" lon="6.21188">
        <ele>1146.2</ele>
        <time>2022-09-18T09:35:04Z</time>
      </trkpt>
      <trkpt lat="44.57976" lon="6.21191">
        <ele>1146.4</ele>
        <time>2022-09-18T09:35:05Z</time>
      </trkpt>
      <trkpt lat="44.57976" lon="6.21195">
        <ele>1146.6</ele>
        <time>2022-09-18T09:35:06Z</time>
      </trkpt>
      <trkpt lat="44.57977" lon="6.21198">
        <ele>1146.8</ele>
        <time>2022-09-18T09:35:07Z</time>
      </trkpt>
      <trkpt lat="44.57978" lon="6.21202">
        <ele>1147</ele>
        <time>2022-09-18T09:35:08Z</time>
      </trkpt>
      <trkpt lat="44.57978" lon="6.21205">
        <ele>1147.4</ele>
        <time>2022-09-18T09:35:09Z</time>
      </trkpt>
      <trkpt lat="44.57978" lon="6.21209">
        <ele>1147.4</ele>
        <time>2022-09-18T09:35:10Z</time>
      </trkpt>
      <trkpt lat="44.57979" lon="6.21212">
        <ele>1147.6</ele>
        <time>2022-09-18T09:35:11Z</time>
      </trkpt>
      <trkpt lat="44.57979" lon="6.21216">
        <ele>1147.8</ele>
        <time>2022-09-18T09:35:12Z</time>
      </trkpt>
      <trkpt lat="44.57979" lon="6.21219">
        <ele>1147.8</ele>
        <time>2022-09-18T09:35:13Z</time>
      </trkpt>
      <trkpt lat="44.5798" lon="6.21222">
        <ele>1147.8</ele>
        <time>2022-09-18T09:35:14Z</time>
      </trkpt>
      <trkpt lat="44.5798" lon="6.21226">
        <ele>1148.2</ele>
        <time>2022-09-18T09:35:15Z</time>
      </trkpt>
      <trkpt lat="44.5798" lon="6.21229">
        <ele>1148</ele>
        <time>2022-09-18T09:35:16Z</time>
      </trkpt>
      <trkpt lat="44.57981" lon="6.21233">
        <ele>1148.2</ele>
        <time>2022-09-18T09:35:17Z</time>
      </trkpt>
      <trkpt lat="44.57981" lon="6.21236">
        <ele>1148.2</ele>
        <time>2022-09-18T09:35:18Z</time>
      </trkpt>
      <trkpt lat="44.57982" lon="6.21239">
        <ele>1148.4</ele>
        <time>2022-09-18T09:35:19Z</time>
      </trkpt>
      <trkpt lat="44.57982" lon="6.21243">
        <ele>1148</ele>
        <time>2022-09-18T09:35:20Z</time>
      </trkpt>
      <trkpt lat="44.57983" lon="6.21246">
        <ele>1148</ele>
        <time>2022-09-18T09:35:21Z</time>
      </trkpt>
      <trkpt lat="44.57983" lon="6.21249">
        <ele>1148</ele>
        <time>2022-09-18T09:35:22Z</time>
      </trkpt>
      <trkpt lat="44.57983" lon="6.21253">
        <ele>1148</ele>
        <time>2022-09-18T09:35:23Z</time>
      </trkpt>
      <trkpt lat="44.57984" lon="6.21256">
        <ele>1148</ele>
        <time>2022-09-18T09:35:24Z</time>
      </trkpt>
      <trkpt lat="44.57984" lon="6.21259">
        <ele>1148</ele>
        <time>2022-09-18T09:35:25Z</time>
      </trkpt>
      <trkpt lat="44.57984" lon="6.21263">
        <ele>1148.2</ele>
        <time>2022-09-18T09:35:26Z</time>
      </trkpt>
      <trkpt lat="44.57985" lon="6.21266">
        <ele>1148.4</ele>
        <time>2022-09-18T09:35:27Z</time>
      </trkpt>
      <trkpt lat="44.57985" lon="6.21269">
        <ele>1148.4</ele>
        <time>2022-09-18T09:35:28Z</time>
      </trkpt>
      <trkpt lat="44.57986" lon="6.21273">
        <ele>1148.6</ele>
        <time>2022-09-18T09:35:29Z</time>
      </trkpt>
      <trkpt lat="44.57986" lon="6.21276">
        <ele>1148.6</ele>
        <time>2022-09-18T09:35:30Z</time>
      </trkpt>
      <trkpt lat="44.57987" lon="6.21279">
        <ele>1149</ele>
        <time>2022-09-18T09:35:31Z</time>
      </trkpt>
      <trkpt lat="44.57987" lon="6.21283">
        <ele>1149.4</ele>
        <time>2022-09-18T09:35:32Z</time>
      </trkpt>
      <trkpt lat="44.57988" lon="6.21286">
        <ele>1149.6</ele>
        <time>2022-09-18T09:35:33Z</time>
      </trkpt>
      <trkpt lat="44.57988" lon="6.21289">
        <ele>1150</ele>
        <time>2022-09-18T09:35:34Z</time>
      </trkpt>
      <trkpt lat="44.57989" lon="6.21292">
        <ele>1150.2</ele>
        <time>2022-09-18T09:35:35Z</time>
      </trkpt>
      <trkpt lat="44.57989" lon="6.21296">
        <ele>1150.6</ele>
        <time>2022-09-18T09:35:36Z</time>
      </trkpt>
      <trkpt lat="44.5799" lon="6.21299">
        <ele>1150.8</ele>
        <time>2022-09-18T09:35:37Z</time>
      </trkpt>
      <trkpt lat="44.5799" lon="6.21302">
        <ele>1151</ele>
        <time>2022-09-18T09:35:38Z</time>
      </trkpt>
      <trkpt lat="44.57991" lon="6.21305">
        <ele>1151.4</ele>
        <time>2022-09-18T09:35:39Z</time>
      </trkpt>
      <trkpt lat="44.57992" lon="6.21308">
        <ele>1151.6</ele>
        <time>2022-09-18T09:35:40Z</time>
      </trkpt>
      <trkpt lat="44.57993" lon="6.2131">
        <ele>1152</ele>
        <time>2022-09-18T09:35:41Z</time>
      </trkpt>
      <trkpt lat="44.57994" lon="6.21313">
        <ele>1152.4</ele>
        <time>2022-09-18T09:35:42Z</time>
      </trkpt>
      <trkpt lat="44.57995" lon="6.21316">
        <ele>1152.6</ele>
        <time>2022-09-18T09:35:43Z</time>
      </trkpt>
      <trkpt lat="44.57996" lon="6.21319">
        <ele>1153.4</ele>
        <time>2022-09-18T09:35:44Z</time>
      </trkpt>
      <trkpt lat="44.57997" lon="6.21322">
        <ele>1153.6</ele>
        <time>2022-09-18T09:35:45Z</time>
      </trkpt>
      <trkpt lat="44.57999" lon="6.21324">
        <ele>1154</ele>
        <time>2022-09-18T09:35:46Z</time>
      </trkpt>
      <trkpt lat="44.58" lon="6.21327">
        <ele>1154.4</ele>
        <time>2022-09-18T09:35:47Z</time>
      </trkpt>
      <trkpt lat="44.58002" lon="6.2133">
        <ele>1154.6</ele>
        <time>2022-09-18T09:35:48Z</time>
      </trkpt>
      <trkpt lat="44.58003" lon="6.21333">
        <ele>1155</ele>
        <time>2022-09-18T09:35:49Z</time>
      </trkpt>
      <trkpt lat="44.58005" lon="6.21335">
        <ele>1155.4</ele>
        <time>2022-09-18T09:35:50Z</time>
      </trkpt>
      <trkpt lat="44.58006" lon="6.21338">
        <ele>1155.4</ele>
        <time>2022-09-18T09:35:51Z</time>
      </trkpt>
      <trkpt lat="44.58008" lon="6.21341">
        <ele>1155.8</ele>
        <time>2022-09-18T09:35:52Z</time>
      </trkpt>
      <trkpt lat="44.58009" lon="6.21343">
        <ele>1156</ele>
        <time>2022-09-18T09:35:53Z</time>
      </trkpt>
      <trkpt lat="44.58011" lon="6.21346">
        <ele>1156.4</ele>
        <time>2022-09-18T09:35:54Z</time>
      </trkpt>
      <trkpt lat="44.58012" lon="6.21348">
        <ele>1156.6</ele>
        <time>2022-09-18T09:35:55Z</time>
      </trkpt>
      <trkpt lat="44.58014" lon="6.21351">
        <ele>1156.8</ele>
        <time>2022-09-18T09:35:56Z</time>
      </trkpt>
      <trkpt lat="44.58015" lon="6.21353">
        <ele>1157</ele>
        <time>2022-09-18T09:35:57Z</time>
      </trkpt>
      <trkpt lat="44.58017" lon="6.21356">
        <ele>1157.6</ele>
        <time>2022-09-18T09:35:58Z</time>
      </trkpt>
      <trkpt lat="44.58018" lon="6.21358">
        <ele>1158</ele>
        <time>2022-09-18T09:35:59Z</time>
      </trkpt>
      <trkpt lat="44.5802" lon="6.21361">
        <ele>1158.2</ele>
        <time>2022-09-18T09:36:00Z</time>
      </trkpt>
      <trkpt lat="44.58022" lon="6.21363">
        <ele>1158.4</ele>
        <time>2022-09-18T09:36:01Z</time>
      </trkpt>
      <trkpt lat="44.58024" lon="6.21364">
        <ele>1158.8</ele>
        <time>2022-09-18T09:36:02Z</time>
      </trkpt>
      <trkpt lat="44.58026" lon="6.21366">
        <ele>1159.2</ele>
        <time>2022-09-18T09:36:03Z</time>
      </trkpt>
      <trkpt lat="44.58028" lon="6.21368">
        <ele>1159.4</ele>
        <time>2022-09-18T09:36:04Z</time>
      </trkpt>
      <trkpt lat="44.5803" lon="6.2137">
        <ele>1159.6</ele>
        <time>2022-09-18T09:36:05Z</time>
      </trkpt>
      <trkpt lat="44.58032" lon="6.21372">
        <ele>1159.8</ele>
        <time>2022-09-18T09:36:06Z</time>
      </trkpt>
      <trkpt lat="44.58034" lon="6.21373">
        <ele>1159.8</ele>
        <time>2022-09-18T09:36:07Z</time>
      </trkpt>
      <trkpt lat="44.58036" lon="6.21374">
        <ele>1160</ele>
        <time>2022-09-18T09:36:08Z</time>
      </trkpt>
      <trkpt lat="44.58038" lon="6.21376">
        <ele>1160.4</ele>
        <time>2022-09-18T09:36:09Z</time>
      </trkpt>
      <trkpt lat="44.58041" lon="6.21377">
        <ele>1160.8</ele>
        <time>2022-09-18T09:36:10Z</time>
      </trkpt>
      <trkpt lat="44.58043" lon="6.21378">
        <ele>1161</ele>
        <time>2022-09-18T09:36:11Z</time>
      </trkpt>
      <trkpt lat="44.58045" lon="6.2138">
        <ele>1161.2</ele>
        <time>2022-09-18T09:36:12Z</time>
      </trkpt>
      <trkpt lat="44.58047" lon="6.21382">
        <ele>1161.6</ele>
        <time>2022-09-18T09:36:13Z</time>
      </trkpt>
      <trkpt lat="44.58049" lon="6.21384">
        <ele>1161.8</ele>
        <time>2022-09-18T09:36:14Z</time>
      </trkpt>
      <trkpt lat="44.58051" lon="6.21386">
        <ele>1161.8</ele>
        <time>2022-09-18T09:36:15Z</time>
      </trkpt>
      <trkpt lat="44.58053" lon="6.21388">
        <ele>1162</ele>
        <time>2022-09-18T09:36:16Z</time>
      </trkpt>
      <trkpt lat="44.58054" lon="6.21391">
        <ele>1162.2</ele>
        <time>2022-09-18T09:36:17Z</time>
      </trkpt>
      <trkpt lat="44.58056" lon="6.21393">
        <ele>1162.4</ele>
        <time>2022-09-18T09:36:18Z</time>
      </trkpt>
      <trkpt lat="44.58058" lon="6.21395">
        <ele>1162.6</ele>
        <time>2022-09-18T09:36:19Z</time>
      </trkpt>
      <trkpt lat="44.5806" lon="6.21396">
        <ele>1162.8</ele>
        <time>2022-09-18T09:36:20Z</time>
      </trkpt>
      <trkpt lat="44.58062" lon="6.21398">
        <ele>1162.6</ele>
        <time>2022-09-18T09:36:21Z</time>
      </trkpt>
      <trkpt lat="44.58064" lon="6.214">
        <ele>1162.8</ele>
        <time>2022-09-18T09:36:22Z</time>
      </trkpt>
      <trkpt lat="44.58066" lon="6.21401">
        <ele>1163</ele>
        <time>2022-09-18T09:36:23Z</time>
      </trkpt>
      <trkpt lat="44.58068" lon="6.21402">
        <ele>1162.8</ele>
        <time>2022-09-18T09:36:24Z</time>
      </trkpt>
      <trkpt lat="44.5807" lon="6.21404">
        <ele>1163</ele>
        <time>2022-09-18T09:36:25Z</time>
      </trkpt>
      <trkpt lat="44.58073" lon="6.21405">
        <ele>1163</ele>
        <time>2022-09-18T09:36:26Z</time>
      </trkpt>
      <trkpt lat="44.58075" lon="6.21407">
        <ele>1163</ele>
        <time>2022-09-18T09:36:27Z</time>
      </trkpt>
      <trkpt lat="44.58077" lon="6.21408">
        <ele>1163</ele>
        <time>2022-09-18T09:36:28Z</time>
      </trkpt>
      <trkpt lat="44.58079" lon="6.21409">
        <ele>1163</ele>
        <time>2022-09-18T09:36:29Z</time>
      </trkpt>
      <trkpt lat="44.58081" lon="6.21411">
        <ele>1162.8</ele>
        <time>2022-09-18T09:36:30Z</time>
      </trkpt>
      <trkpt lat="44.58084" lon="6.21412">
        <ele>1163</ele>
        <time>2022-09-18T09:36:31Z</time>
      </trkpt>
      <trkpt lat="44.58086" lon="6.21413">
        <ele>1163</ele>
        <time>2022-09-18T09:36:32Z</time>
      </trkpt>
      <trkpt lat="44.58088" lon="6.21415">
        <ele>1162.8</ele>
        <time>2022-09-18T09:36:33Z</time>
      </trkpt>
      <trkpt lat="44.5809" lon="6.21416">
        <ele>1162.8</ele>
        <time>2022-09-18T09:36:34Z</time>
      </trkpt>
      <trkpt lat="44.58092" lon="6.21418">
        <ele>1163</ele>
        <time>2022-09-18T09:36:35Z</time>
      </trkpt>
      <trkpt lat="44.58094" lon="6.21419">
        <ele>1162.8</ele>
        <time>2022-09-18T09:36:36Z</time>
      </trkpt>
      <trkpt lat="44.58096" lon="6.21421">
        <ele>1163</ele>
        <time>2022-09-18T09:36:37Z</time>
      </trkpt>
      <trkpt lat="44.58099" lon="6.21423">
        <ele>1163</ele>
        <time>2022-09-18T09:36:38Z</time>
      </trkpt>
      <trkpt lat="44.58101" lon="6.21424">
        <ele>1163.2</ele>
        <time>2022-09-18T09:36:39Z</time>
      </trkpt>
      <trkpt lat="44.58103" lon="6.21426">
        <ele>1163.4</ele>
        <time>2022-09-18T09:36:40Z</time>
      </trkpt>
      <trkpt lat="44.58105" lon="6.21428">
        <ele>1163.4</ele>
        <time>2022-09-18T09:36:41Z</time>
      </trkpt>
      <trkpt lat="44.58107" lon="6.21429">
        <ele>1163.4</ele>
        <time>2022-09-18T09:36:42Z</time>
      </trkpt>
      <trkpt lat="44.58109" lon="6.21431">
        <ele>1163.2</ele>
        <time>2022-09-18T09:36:43Z</time>
      </trkpt>
      <trkpt lat="44.58112" lon="6.21433">
        <ele>1163.2</ele>
        <time>2022-09-18T09:36:44Z</time>
      </trkpt>
      <trkpt lat="44.58114" lon="6.21434">
        <ele>1163.4</ele>
        <time>2022-09-18T09:36:45Z</time>
      </trkpt>
      <trkpt lat="44.58116" lon="6.21436">
        <ele>1163.2</ele>
        <time>2022-09-18T09:36:46Z</time>
      </trkpt>
      <trkpt lat="44.58119" lon="6.21437">
        <ele>1163.2</ele>
        <time>2022-09-18T09:36:47Z</time>
      </trkpt>
      <trkpt lat="44.58121" lon="6.21439">
        <ele>1163.4</ele>
        <time>2022-09-18T09:36:48Z</time>
      </trkpt>
      <trkpt lat="44.58124" lon="6.21441">
        <ele>1163.4</ele>
        <time>2022-09-18T09:36:49Z</time>
      </trkpt>
      <trkpt lat="44.58126" lon="6.21442">
        <ele>1163.6</ele>
        <time>2022-09-18T09:36:50Z</time>
      </trkpt>
      <trkpt lat="44.58128" lon="6.21444">
        <ele>1163.8</ele>
        <time>2022-09-18T09:36:51Z</time>
      </trkpt>
      <trkpt lat="44.58131" lon="6.21446">
        <ele>1163.6</ele>
        <time>2022-09-18T09:36:52Z</time>
      </trkpt>
      <trkpt lat="44.58133" lon="6.21447">
        <ele>1163.6</ele>
        <time>2022-09-18T09:36:53Z</time>
      </trkpt>
      <trkpt lat="44.58135" lon="6.21449">
        <ele>1163.8</ele>
        <time>2022-09-18T09:36:54Z</time>
      </trkpt>
      <trkpt lat="44.58137" lon="6.21451">
        <ele>1164</ele>
        <time>2022-09-18T09:36:55Z</time>
      </trkpt>
      <trkpt lat="44.58139" lon="6.21453">
        <ele>1164</ele>
        <time>2022-09-18T09:36:56Z</time>
      </trkpt>
      <trkpt lat="44.58142" lon="6.21455">
        <ele>1164</ele>
        <time>2022-09-18T09:36:57Z</time>
      </trkpt>
      <trkpt lat="44.58144" lon="6.21457">
        <ele>1164</ele>
        <time>2022-09-18T09:36:58Z</time>
      </trkpt>
      <trkpt lat="44.58146" lon="6.21459">
        <ele>1164.2</ele>
        <time>2022-09-18T09:36:59Z</time>
      </trkpt>
      <trkpt lat="44.58148" lon="6.2146">
        <ele>1164.4</ele>
        <time>2022-09-18T09:37:00Z</time>
      </trkpt>
      <trkpt lat="44.58151" lon="6.21462">
        <ele>1164.6</ele>
        <time>2022-09-18T09:37:01Z</time>
      </trkpt>
      <trkpt lat="44.58153" lon="6.21464">
        <ele>1164.4</ele>
        <time>2022-09-18T09:37:02Z</time>
      </trkpt>
      <trkpt lat="44.58155" lon="6.21465">
        <ele>1164.6</ele>
        <time>2022-09-18T09:37:03Z</time>
      </trkpt>
      <trkpt lat="44.58158" lon="6.21467">
        <ele>1164.6</ele>
        <time>2022-09-18T09:37:04Z</time>
      </trkpt>
      <trkpt lat="44.5816" lon="6.21469">
        <ele>1164.8</ele>
        <time>2022-09-18T09:37:05Z</time>
      </trkpt>
      <trkpt lat="44.58162" lon="6.21472">
        <ele>1165</ele>
        <time>2022-09-18T09:37:06Z</time>
      </trkpt>
      <trkpt lat="44.58165" lon="6.21474">
        <ele>1164.8</ele>
        <time>2022-09-18T09:37:07Z</time>
      </trkpt>
      <trkpt lat="44.58168" lon="6.21476">
        <ele>1165.2</ele>
        <time>2022-09-18T09:37:08Z</time>
      </trkpt>
      <trkpt lat="44.5817" lon="6.21478">
        <ele>1165.6</ele>
        <time>2022-09-18T09:37:09Z</time>
      </trkpt>
      <trkpt lat="44.58172" lon="6.2148">
        <ele>1165.8</ele>
        <time>2022-09-18T09:37:10Z</time>
      </trkpt>
      <trkpt lat="44.58174" lon="6.21482">
        <ele>1166</ele>
        <time>2022-09-18T09:37:11Z</time>
      </trkpt>
      <trkpt lat="44.58176" lon="6.21485">
        <ele>1166.4</ele>
        <time>2022-09-18T09:37:12Z</time>
      </trkpt>
      <trkpt lat="44.58178" lon="6.21488">
        <ele>1166.4</ele>
        <time>2022-09-18T09:37:13Z</time>
      </trkpt>
      <trkpt lat="44.58179" lon="6.2149">
        <ele>1166.8</ele>
        <time>2022-09-18T09:37:14Z</time>
      </trkpt>
      <trkpt lat="44.58181" lon="6.21493">
        <ele>1166.8</ele>
        <time>2022-09-18T09:37:15Z</time>
      </trkpt>
      <trkpt lat="44.58183" lon="6.21496">
        <ele>1167.2</ele>
        <time>2022-09-18T09:37:16Z</time>
      </trkpt>
      <trkpt lat="44.58184" lon="6.21499">
        <ele>1167.6</ele>
        <time>2022-09-18T09:37:17Z</time>
      </trkpt>
      <trkpt lat="44.58186" lon="6.21502">
        <ele>1167.8</ele>
        <time>2022-09-18T09:37:18Z</time>
      </trkpt>
      <trkpt lat="44.58187" lon="6.21505">
        <ele>1167.8</ele>
        <time>2022-09-18T09:37:19Z</time>
      </trkpt>
      <trkpt lat="44.58189" lon="6.21508">
        <ele>1168</ele>
        <time>2022-09-18T09:37:20Z</time>
      </trkpt>
      <trkpt lat="44.5819" lon="6.21511">
        <ele>1168.2</ele>
        <time>2022-09-18T09:37:21Z</time>
      </trkpt>
      <trkpt lat="44.58191" lon="6.21514">
        <ele>1168.6</ele>
        <time>2022-09-18T09:37:22Z</time>
      </trkpt>
      <trkpt lat="44.58192" lon="6.21518">
        <ele>1168.8</ele>
        <time>2022-09-18T09:37:23Z</time>
      </trkpt>
      <trkpt lat="44.58193" lon="6.21521">
        <ele>1169</ele>
        <time>2022-09-18T09:37:24Z</time>
      </trkpt>
      <trkpt lat="44.58193" lon="6.21524">
        <ele>1169</ele>
        <time>2022-09-18T09:37:25Z</time>
      </trkpt>
      <trkpt lat="44.58194" lon="6.21528">
        <ele>1169.4</ele>
        <time>2022-09-18T09:37:26Z</time>
      </trkpt>
      <trkpt lat="44.58195" lon="6.21531">
        <ele>1169.4</ele>
        <time>2022-09-18T09:37:27Z</time>
      </trkpt>
      <trkpt lat="44.58196" lon="6.21535">
        <ele>1169.6</ele>
        <time>2022-09-18T09:37:28Z</time>
      </trkpt>
      <trkpt lat="44.58196" lon="6.21538">
        <ele>1169.6</ele>
        <time>2022-09-18T09:37:29Z</time>
      </trkpt>
      <trkpt lat="44.58197" lon="6.21541">
        <ele>1170</ele>
        <time>2022-09-18T09:37:30Z</time>
      </trkpt>
      <trkpt lat="44.58198" lon="6.21545">
        <ele>1170.2</ele>
        <time>2022-09-18T09:37:31Z</time>
      </trkpt>
      <trkpt lat="44.58198" lon="6.21548">
        <ele>1170.4</ele>
        <time>2022-09-18T09:37:32Z</time>
      </trkpt>
      <trkpt lat="44.58199" lon="6.21551">
        <ele>1170.4</ele>
        <time>2022-09-18T09:37:33Z</time>
      </trkpt>
      <trkpt lat="44.582" lon="6.21554">
        <ele>1170.4</ele>
        <time>2022-09-18T09:37:34Z</time>
      </trkpt>
      <trkpt lat="44.58201" lon="6.21557">
        <ele>1170.4</ele>
        <time>2022-09-18T09:37:35Z</time>
      </trkpt>
      <trkpt lat="44.58201" lon="6.21561">
        <ele>1170.6</ele>
        <time>2022-09-18T09:37:36Z</time>
      </trkpt>
      <trkpt lat="44.58202" lon="6.21564">
        <ele>1170.8</ele>
        <time>2022-09-18T09:37:37Z</time>
      </trkpt>
      <trkpt lat="44.58202" lon="6.21568">
        <ele>1171</ele>
        <time>2022-09-18T09:37:38Z</time>
      </trkpt>
      <trkpt lat="44.58203" lon="6.21571">
        <ele>1171</ele>
        <time>2022-09-18T09:37:39Z</time>
      </trkpt>
      <trkpt lat="44.58204" lon="6.21574">
        <ele>1171.2</ele>
        <time>2022-09-18T09:37:40Z</time>
      </trkpt>
      <trkpt lat="44.58205" lon="6.21578">
        <ele>1171</ele>
        <time>2022-09-18T09:37:41Z</time>
      </trkpt>
      <trkpt lat="44.58205" lon="6.21581">
        <ele>1171.4</ele>
        <time>2022-09-18T09:37:42Z</time>
      </trkpt>
      <trkpt lat="44.58206" lon="6.21584">
        <ele>1171.2</ele>
        <time>2022-09-18T09:37:43Z</time>
      </trkpt>
      <trkpt lat="44.58207" lon="6.21587">
        <ele>1171.2</ele>
        <time>2022-09-18T09:37:44Z</time>
      </trkpt>
      <trkpt lat="44.58207" lon="6.2159">
        <ele>1171.2</ele>
        <time>2022-09-18T09:37:45Z</time>
      </trkpt>
      <trkpt lat="44.58208" lon="6.21594">
        <ele>1171.2</ele>
        <time>2022-09-18T09:37:46Z</time>
      </trkpt>
      <trkpt lat="44.58209" lon="6.21597">
        <ele>1171.2</ele>
        <time>2022-09-18T09:37:47Z</time>
      </trkpt>
      <trkpt lat="44.58209" lon="6.216">
        <ele>1171</ele>
        <time>2022-09-18T09:37:48Z</time>
      </trkpt>
      <trkpt lat="44.5821" lon="6.21604">
        <ele>1171</ele>
        <time>2022-09-18T09:37:49Z</time>
      </trkpt>
      <trkpt lat="44.5821" lon="6.21607">
        <ele>1171</ele>
        <time>2022-09-18T09:37:50Z</time>
      </trkpt>
      <trkpt lat="44.58211" lon="6.21611">
        <ele>1171.2</ele>
        <time>2022-09-18T09:37:51Z</time>
      </trkpt>
      <trkpt lat="44.58212" lon="6.21614">
        <ele>1171.2</ele>
        <time>2022-09-18T09:37:52Z</time>
      </trkpt>
      <trkpt lat="44.58212" lon="6.21617">
        <ele>1171.2</ele>
        <time>2022-09-18T09:37:53Z</time>
      </trkpt>
      <trkpt lat="44.58213" lon="6.21621">
        <ele>1171.2</ele>
        <time>2022-09-18T09:37:54Z</time>
      </trkpt>
      <trkpt lat="44.58214" lon="6.21624">
        <ele>1171</ele>
        <time>2022-09-18T09:37:55Z</time>
      </trkpt>
      <trkpt lat="44.58214" lon="6.21627">
        <ele>1171.2</ele>
        <time>2022-09-18T09:37:56Z</time>
      </trkpt>
      <trkpt lat="44.58215" lon="6.2163">
        <ele>1171.2</ele>
        <time>2022-09-18T09:37:57Z</time>
      </trkpt>
      <trkpt lat="44.58215" lon="6.21633">
        <ele>1171.4</ele>
        <time>2022-09-18T09:37:58Z</time>
      </trkpt>
      <trkpt lat="44.58216" lon="6.21636">
        <ele>1171.4</ele>
        <time>2022-09-18T09:37:59Z</time>
      </trkpt>
      <trkpt lat="44.58216" lon="6.21639">
        <ele>1171.6</ele>
        <time>2022-09-18T09:38:00Z</time>
      </trkpt>
      <trkpt lat="44.58217" lon="6.21642">
        <ele>1171.6</ele>
        <time>2022-09-18T09:38:01Z</time>
      </trkpt>
      <trkpt lat="44.58217" lon="6.21645">
        <ele>1171.4</ele>
        <time>2022-09-18T09:38:02Z</time>
      </trkpt>
      <trkpt lat="44.58218" lon="6.21648">
        <ele>1171.4</ele>
        <time>2022-09-18T09:38:03Z</time>
      </trkpt>
      <trkpt lat="44.58218" lon="6.21651">
        <ele>1171.6</ele>
        <time>2022-09-18T09:38:04Z</time>
      </trkpt>
      <trkpt lat="44.58219" lon="6.21654">
        <ele>1171.8</ele>
        <time>2022-09-18T09:38:05Z</time>
      </trkpt>
      <trkpt lat="44.5822" lon="6.21657">
        <ele>1171.6</ele>
        <time>2022-09-18T09:38:06Z</time>
      </trkpt>
      <trkpt lat="44.5822" lon="6.2166">
        <ele>1171.6</ele>
        <time>2022-09-18T09:38:07Z</time>
      </trkpt>
      <trkpt lat="44.58221" lon="6.21663">
        <ele>1171.6</ele>
        <time>2022-09-18T09:38:08Z</time>
      </trkpt>
      <trkpt lat="44.58221" lon="6.21666">
        <ele>1171.8</ele>
        <time>2022-09-18T09:38:09Z</time>
      </trkpt>
      <trkpt lat="44.58221" lon="6.21669">
        <ele>1172</ele>
        <time>2022-09-18T09:38:10Z</time>
      </trkpt>
      <trkpt lat="44.58222" lon="6.21672">
        <ele>1172</ele>
        <time>2022-09-18T09:38:11Z</time>
      </trkpt>
      <trkpt lat="44.58222" lon="6.21675">
        <ele>1172.2</ele>
        <time>2022-09-18T09:38:12Z</time>
      </trkpt>
      <trkpt lat="44.58222" lon="6.21678">
        <ele>1172.2</ele>
        <time>2022-09-18T09:38:13Z</time>
      </trkpt>
      <trkpt lat="44.58223" lon="6.21681">
        <ele>1172.6</ele>
        <time>2022-09-18T09:38:14Z</time>
      </trkpt>
      <trkpt lat="44.58223" lon="6.21684">
        <ele>1172.6</ele>
        <time>2022-09-18T09:38:15Z</time>
      </trkpt>
      <trkpt lat="44.58224" lon="6.21687">
        <ele>1172.6</ele>
        <time>2022-09-18T09:38:16Z</time>
      </trkpt>
      <trkpt lat="44.58224" lon="6.2169">
        <ele>1172.8</ele>
        <time>2022-09-18T09:38:17Z</time>
      </trkpt>
      <trkpt lat="44.58225" lon="6.21692">
        <ele>1172.6</ele>
        <time>2022-09-18T09:38:18Z</time>
      </trkpt>
      <trkpt lat="44.58225" lon="6.21695">
        <ele>1172.6</ele>
        <time>2022-09-18T09:38:19Z</time>
      </trkpt>
      <trkpt lat="44.58225" lon="6.21699">
        <ele>1172.8</ele>
        <time>2022-09-18T09:38:20Z</time>
      </trkpt>
      <trkpt lat="44.58226" lon="6.21702">
        <ele>1172.8</ele>
        <time>2022-09-18T09:38:21Z</time>
      </trkpt>
      <trkpt lat="44.58226" lon="6.21704">
        <ele>1173</ele>
        <time>2022-09-18T09:38:22Z</time>
      </trkpt>
      <trkpt lat="44.58226" lon="6.21707">
        <ele>1173.2</ele>
        <time>2022-09-18T09:38:23Z</time>
      </trkpt>
      <trkpt lat="44.58227" lon="6.2171">
        <ele>1173.4</ele>
        <time>2022-09-18T09:38:24Z</time>
      </trkpt>
      <trkpt lat="44.58227" lon="6.21713">
        <ele>1173.6</ele>
        <time>2022-09-18T09:38:25Z</time>
      </trkpt>
      <trkpt lat="44.58227" lon="6.21717">
        <ele>1173.8</ele>
        <time>2022-09-18T09:38:26Z</time>
      </trkpt>
      <trkpt lat="44.58228" lon="6.2172">
        <ele>1174</ele>
        <time>2022-09-18T09:38:27Z</time>
      </trkpt>
      <trkpt lat="44.58228" lon="6.21723">
        <ele>1174.2</ele>
        <time>2022-09-18T09:38:28Z</time>
      </trkpt>
      <trkpt lat="44.58228" lon="6.21726">
        <ele>1174.4</ele>
        <time>2022-09-18T09:38:29Z</time>
      </trkpt>
      <trkpt lat="44.58228" lon="6.21729">
        <ele>1174.6</ele>
        <time>2022-09-18T09:38:30Z</time>
      </trkpt>
      <trkpt lat="44.58228" lon="6.21732">
        <ele>1175</ele>
        <time>2022-09-18T09:38:31Z</time>
      </trkpt>
      <trkpt lat="44.58229" lon="6.21735">
        <ele>1175</ele>
        <time>2022-09-18T09:38:32Z</time>
      </trkpt>
      <trkpt lat="44.58229" lon="6.21739">
        <ele>1175.4</ele>
        <time>2022-09-18T09:38:33Z</time>
      </trkpt>
      <trkpt lat="44.58229" lon="6.21742">
        <ele>1175.4</ele>
        <time>2022-09-18T09:38:34Z</time>
      </trkpt>
      <trkpt lat="44.58229" lon="6.21745">
        <ele>1175.8</ele>
        <time>2022-09-18T09:38:35Z</time>
      </trkpt>
      <trkpt lat="44.58229" lon="6.21748">
        <ele>1175.8</ele>
        <time>2022-09-18T09:38:36Z</time>
      </trkpt>
      <trkpt lat="44.58229" lon="6.21751">
        <ele>1176.2</ele>
        <time>2022-09-18T09:38:37Z</time>
      </trkpt>
      <trkpt lat="44.58229" lon="6.21754">
        <ele>1176.2</ele>
        <time>2022-09-18T09:38:38Z</time>
      </trkpt>
      <trkpt lat="44.58229" lon="6.21757">
        <ele>1176.4</ele>
        <time>2022-09-18T09:38:39Z</time>
      </trkpt>
      <trkpt lat="44.58229" lon="6.2176">
        <ele>1176.6</ele>
        <time>2022-09-18T09:38:40Z</time>
      </trkpt>
      <trkpt lat="44.58229" lon="6.21763">
        <ele>1177</ele>
        <time>2022-09-18T09:38:41Z</time>
      </trkpt>
      <trkpt lat="44.58229" lon="6.21767">
        <ele>1177.2</ele>
        <time>2022-09-18T09:38:42Z</time>
      </trkpt>
      <trkpt lat="44.58229" lon="6.2177">
        <ele>1177.2</ele>
        <time>2022-09-18T09:38:43Z</time>
      </trkpt>
      <trkpt lat="44.5823" lon="6.21773">
        <ele>1177.6</ele>
        <time>2022-09-18T09:38:44Z</time>
      </trkpt>
      <trkpt lat="44.5823" lon="6.21776">
        <ele>1178</ele>
        <time>2022-09-18T09:38:45Z</time>
      </trkpt>
      <trkpt lat="44.5823" lon="6.21779">
        <ele>1177.8</ele>
        <time>2022-09-18T09:38:46Z</time>
      </trkpt>
      <trkpt lat="44.5823" lon="6.21782">
        <ele>1178</ele>
        <time>2022-09-18T09:38:47Z</time>
      </trkpt>
      <trkpt lat="44.5823" lon="6.21786">
        <ele>1178</ele>
        <time>2022-09-18T09:38:48Z</time>
      </trkpt>
      <trkpt lat="44.5823" lon="6.21789">
        <ele>1178.2</ele>
        <time>2022-09-18T09:38:49Z</time>
      </trkpt>
      <trkpt lat="44.58229" lon="6.21792">
        <ele>1178.2</ele>
        <time>2022-09-18T09:38:50Z</time>
      </trkpt>
      <trkpt lat="44.58229" lon="6.21795">
        <ele>1178.6</ele>
        <time>2022-09-18T09:38:51Z</time>
      </trkpt>
      <trkpt lat="44.58229" lon="6.21799">
        <ele>1178.8</ele>
        <time>2022-09-18T09:38:52Z</time>
      </trkpt>
      <trkpt lat="44.58229" lon="6.21801">
        <ele>1179</ele>
        <time>2022-09-18T09:38:53Z</time>
      </trkpt>
      <trkpt lat="44.58229" lon="6.21805">
        <ele>1179.4</ele>
        <time>2022-09-18T09:38:54Z</time>
      </trkpt>
      <trkpt lat="44.58229" lon="6.21808">
        <ele>1179.6</ele>
        <time>2022-09-18T09:38:55Z</time>
      </trkpt>
      <trkpt lat="44.58228" lon="6.21811">
        <ele>1180</ele>
        <time>2022-09-18T09:38:56Z</time>
      </trkpt>
      <trkpt lat="44.58228" lon="6.21814">
        <ele>1180.2</ele>
        <time>2022-09-18T09:38:57Z</time>
      </trkpt>
      <trkpt lat="44.58228" lon="6.21817">
        <ele>1180.4</ele>
        <time>2022-09-18T09:38:58Z</time>
      </trkpt>
      <trkpt lat="44.58228" lon="6.2182">
        <ele>1180.4</ele>
        <time>2022-09-18T09:38:59Z</time>
      </trkpt>
      <trkpt lat="44.58228" lon="6.21824">
        <ele>1180.6</ele>
        <time>2022-09-18T09:39:00Z</time>
      </trkpt>
      <trkpt lat="44.58228" lon="6.21827">
        <ele>1180.6</ele>
        <time>2022-09-18T09:39:01Z</time>
      </trkpt>
      <trkpt lat="44.58228" lon="6.2183">
        <ele>1181</ele>
        <time>2022-09-18T09:39:02Z</time>
      </trkpt>
      <trkpt lat="44.58227" lon="6.21833">
        <ele>1181</ele>
        <time>2022-09-18T09:39:03Z</time>
      </trkpt>
      <trkpt lat="44.58227" lon="6.21836">
        <ele>1181</ele>
        <time>2022-09-18T09:39:04Z</time>
      </trkpt>
      <trkpt lat="44.58226" lon="6.2184">
        <ele>1181.4</ele>
        <time>2022-09-18T09:39:05Z</time>
      </trkpt>
      <trkpt lat="44.58226" lon="6.21843">
        <ele>1181.6</ele>
        <time>2022-09-18T09:39:06Z</time>
      </trkpt>
      <trkpt lat="44.58225" lon="6.21846">
        <ele>1182</ele>
        <time>2022-09-18T09:39:07Z</time>
      </trkpt>
      <trkpt lat="44.58224" lon="6.21849">
        <ele>1182.2</ele>
        <time>2022-09-18T09:39:08Z</time>
      </trkpt>
      <trkpt lat="44.58224" lon="6.21852">
        <ele>1182.4</ele>
        <time>2022-09-18T09:39:09Z</time>
      </trkpt>
      <trkpt lat="44.58223" lon="6.21855">
        <ele>1182.6</ele>
        <time>2022-09-18T09:39:10Z</time>
      </trkpt>
      <trkpt lat="44.58222" lon="6.21858">
        <ele>1182.8</ele>
        <time>2022-09-18T09:39:11Z</time>
      </trkpt>
      <trkpt lat="44.58222" lon="6.21861">
        <ele>1183</ele>
        <time>2022-09-18T09:39:12Z</time>
      </trkpt>
      <trkpt lat="44.58221" lon="6.21864">
        <ele>1183.2</ele>
        <time>2022-09-18T09:39:13Z</time>
      </trkpt>
      <trkpt lat="44.5822" lon="6.21867">
        <ele>1183.4</ele>
        <time>2022-09-18T09:39:14Z</time>
      </trkpt>
      <trkpt lat="44.58219" lon="6.2187">
        <ele>1183.8</ele>
        <time>2022-09-18T09:39:15Z</time>
      </trkpt>
      <trkpt lat="44.58219" lon="6.21873">
        <ele>1184</ele>
        <time>2022-09-18T09:39:16Z</time>
      </trkpt>
      <trkpt lat="44.58218" lon="6.21876">
        <ele>1184.2</ele>
        <time>2022-09-18T09:39:17Z</time>
      </trkpt>
      <trkpt lat="44.58217" lon="6.21879">
        <ele>1184.4</ele>
        <time>2022-09-18T09:39:18Z</time>
      </trkpt>
      <trkpt lat="44.58215" lon="6.21882">
        <ele>1184.6</ele>
        <time>2022-09-18T09:39:19Z</time>
      </trkpt>
      <trkpt lat="44.58214" lon="6.21885">
        <ele>1184.6</ele>
        <time>2022-09-18T09:39:20Z</time>
      </trkpt>
      <trkpt lat="44.58213" lon="6.21887">
        <ele>1184.8</ele>
        <time>2022-09-18T09:39:21Z</time>
      </trkpt>
      <trkpt lat="44.58212" lon="6.2189">
        <ele>1184.8</ele>
        <time>2022-09-18T09:39:22Z</time>
      </trkpt>
      <trkpt lat="44.5821" lon="6.21892">
        <ele>1185</ele>
        <time>2022-09-18T09:39:23Z</time>
      </trkpt>
      <trkpt lat="44.58209" lon="6.21894">
        <ele>1185.2</ele>
        <time>2022-09-18T09:39:24Z</time>
      </trkpt>
      <trkpt lat="44.58207" lon="6.21897">
        <ele>1185.2</ele>
        <time>2022-09-18T09:39:25Z</time>
      </trkpt>
      <trkpt lat="44.58206" lon="6.21899">
        <ele>1185.4</ele>
        <time>2022-09-18T09:39:26Z</time>
      </trkpt>
      <trkpt lat="44.58204" lon="6.21902">
        <ele>1185.4</ele>
        <time>2022-09-18T09:39:27Z</time>
      </trkpt>
      <trkpt lat="44.58203" lon="6.21904">
        <ele>1185.2</ele>
        <time>2022-09-18T09:39:28Z</time>
      </trkpt>
      <trkpt lat="44.58201" lon="6.21906">
        <ele>1185.4</ele>
        <time>2022-09-18T09:39:29Z</time>
      </trkpt>
      <trkpt lat="44.58199" lon="6.21909">
        <ele>1185.6</ele>
        <time>2022-09-18T09:39:30Z</time>
      </trkpt>
      <trkpt lat="44.58198" lon="6.21911">
        <ele>1186</ele>
        <time>2022-09-18T09:39:31Z</time>
      </trkpt>
      <trkpt lat="44.58197" lon="6.21915">
        <ele>1186.2</ele>
        <time>2022-09-18T09:39:32Z</time>
      </trkpt>
      <trkpt lat="44.58196" lon="6.21918">
        <ele>1186.2</ele>
        <time>2022-09-18T09:39:33Z</time>
      </trkpt>
      <trkpt lat="44.58195" lon="6.21921">
        <ele>1186.2</ele>
        <time>2022-09-18T09:39:34Z</time>
      </trkpt>
      <trkpt lat="44.58195" lon="6.21923">
        <ele>1186.4</ele>
        <time>2022-09-18T09:39:35Z</time>
      </trkpt>
      <trkpt lat="44.58195" lon="6.21928">
        <ele>1186.2</ele>
        <time>2022-09-18T09:39:37Z</time>
      </trkpt>
      <trkpt lat="44.58195" lon="6.21931">
        <ele>1186.4</ele>
        <time>2022-09-18T09:39:39Z</time>
      </trkpt>
      <trkpt lat="44.58195" lon="6.21934">
        <ele>1186.4</ele>
        <time>2022-09-18T09:39:41Z</time>
      </trkpt>
      <trkpt lat="44.58197" lon="6.21936">
        <ele>1162.2</ele>
        <time>2022-09-18T09:44:39Z</time>
      </trkpt>
      <trkpt lat="44.58201" lon="6.21937">
        <ele>1162.4</ele>
        <time>2022-09-18T09:44:41Z</time>
      </trkpt>
      <trkpt lat="44.58203" lon="6.21937">
        <ele>1162.8</ele>
        <time>2022-09-18T09:44:42Z</time>
      </trkpt>
      <trkpt lat="44.58206" lon="6.21936">
        <ele>1163</ele>
        <time>2022-09-18T09:44:43Z</time>
      </trkpt>
      <trkpt lat="44.58209" lon="6.21934">
        <ele>1163.2</ele>
        <time>2022-09-18T09:44:44Z</time>
      </trkpt>
      <trkpt lat="44.58211" lon="6.21932">
        <ele>1163</ele>
        <time>2022-09-18T09:44:45Z</time>
      </trkpt>
      <trkpt lat="44.58213" lon="6.21929">
        <ele>1163.4</ele>
        <time>2022-09-18T09:44:46Z</time>
      </trkpt>
      <trkpt lat="44.58215" lon="6.21926">
        <ele>1163.6</ele>
        <time>2022-09-18T09:44:47Z</time>
      </trkpt>
      <trkpt lat="44.58217" lon="6.21924">
        <ele>1163.8</ele>
        <time>2022-09-18T09:44:48Z</time>
      </trkpt>
      <trkpt lat="44.58219" lon="6.21921">
        <ele>1164</ele>
        <time>2022-09-18T09:44:49Z</time>
      </trkpt>
      <trkpt lat="44.5822" lon="6.21919">
        <ele>1164.4</ele>
        <time>2022-09-18T09:44:50Z</time>
      </trkpt>
      <trkpt lat="44.5822" lon="6.21915">
        <ele>1164.8</ele>
        <time>2022-09-18T09:44:51Z</time>
      </trkpt>
      <trkpt lat="44.58221" lon="6.21912">
        <ele>1164.8</ele>
        <time>2022-09-18T09:44:52Z</time>
      </trkpt>
      <trkpt lat="44.58223" lon="6.21909">
        <ele>1165.2</ele>
        <time>2022-09-18T09:44:53Z</time>
      </trkpt>
      <trkpt lat="44.58224" lon="6.21906">
        <ele>1165.4</ele>
        <time>2022-09-18T09:44:54Z</time>
      </trkpt>
      <trkpt lat="44.58226" lon="6.21904">
        <ele>1165.6</ele>
        <time>2022-09-18T09:44:55Z</time>
      </trkpt>
      <trkpt lat="44.58228" lon="6.21901">
        <ele>1165.8</ele>
        <time>2022-09-18T09:44:56Z</time>
      </trkpt>
      <trkpt lat="44.58229" lon="6.21898">
        <ele>1165.8</ele>
        <time>2022-09-18T09:44:57Z</time>
      </trkpt>
      <trkpt lat="44.58231" lon="6.21896">
        <ele>1166.2</ele>
        <time>2022-09-18T09:44:58Z</time>
      </trkpt>
      <trkpt lat="44.58232" lon="6.21893">
        <ele>1166.6</ele>
        <time>2022-09-18T09:44:59Z</time>
      </trkpt>
      <trkpt lat="44.58234" lon="6.2189">
        <ele>1166.8</ele>
        <time>2022-09-18T09:45:00Z</time>
      </trkpt>
      <trkpt lat="44.58235" lon="6.21888">
        <ele>1167</ele>
        <time>2022-09-18T09:45:01Z</time>
      </trkpt>
      <trkpt lat="44.58237" lon="6.21886">
        <ele>1167.2</ele>
        <time>2022-09-18T09:45:02Z</time>
      </trkpt>
      <trkpt lat="44.58238" lon="6.21883">
        <ele>1167.6</ele>
        <time>2022-09-18T09:45:03Z</time>
      </trkpt>
      <trkpt lat="44.5824" lon="6.21881">
        <ele>1168</ele>
        <time>2022-09-18T09:45:04Z</time>
      </trkpt>
      <trkpt lat="44.58241" lon="6.21878">
        <ele>1168.2</ele>
        <time>2022-09-18T09:45:05Z</time>
      </trkpt>
      <trkpt lat="44.58242" lon="6.21876">
        <ele>1168.6</ele>
        <time>2022-09-18T09:45:06Z</time>
      </trkpt>
      <trkpt lat="44.58244" lon="6.21874">
        <ele>1169</ele>
        <time>2022-09-18T09:45:07Z</time>
      </trkpt>
      <trkpt lat="44.58245" lon="6.21871">
        <ele>1169.4</ele>
        <time>2022-09-18T09:45:08Z</time>
      </trkpt>
      <trkpt lat="44.58246" lon="6.21869">
        <ele>1169.8</ele>
        <time>2022-09-18T09:45:09Z</time>
      </trkpt>
      <trkpt lat="44.58248" lon="6.21866">
        <ele>1170.4</ele>
        <time>2022-09-18T09:45:10Z</time>
      </trkpt>
      <trkpt lat="44.58249" lon="6.21864">
        <ele>1171</ele>
        <time>2022-09-18T09:45:11Z</time>
      </trkpt>
      <trkpt lat="44.5825" lon="6.21861">
        <ele>1171.4</ele>
        <time>2022-09-18T09:45:12Z</time>
      </trkpt>
      <trkpt lat="44.58252" lon="6.21859">
        <ele>1171.8</ele>
        <time>2022-09-18T09:45:13Z</time>
      </trkpt>
      <trkpt lat="44.58253" lon="6.21856">
        <ele>1172.4</ele>
        <time>2022-09-18T09:45:14Z</time>
      </trkpt>
      <trkpt lat="44.58254" lon="6.21854">
        <ele>1173</ele>
        <time>2022-09-18T09:45:15Z</time>
      </trkpt>
      <trkpt lat="44.58255" lon="6.21852">
        <ele>1173.4</ele>
        <time>2022-09-18T09:45:16Z</time>
      </trkpt>
      <trkpt lat="44.58257" lon="6.21849">
        <ele>1173.8</ele>
        <time>2022-09-18T09:45:17Z</time>
      </trkpt>
      <trkpt lat="44.58258" lon="6.21847">
        <ele>1174.4</ele>
        <time>2022-09-18T09:45:18Z</time>
      </trkpt>
      <trkpt lat="44.5826" lon="6.21845">
        <ele>1174.8</ele>
        <time>2022-09-18T09:45:19Z</time>
      </trkpt>
      <trkpt lat="44.58261" lon="6.21843">
        <ele>1175.2</ele>
        <time>2022-09-18T09:45:20Z</time>
      </trkpt>
      <trkpt lat="44.58263" lon="6.2184">
        <ele>1175.8</ele>
        <time>2022-09-18T09:45:21Z</time>
      </trkpt>
      <trkpt lat="44.58264" lon="6.21838">
        <ele>1176.4</ele>
        <time>2022-09-18T09:45:22Z</time>
      </trkpt>
      <trkpt lat="44.58266" lon="6.21835">
        <ele>1176.6</ele>
        <time>2022-09-18T09:45:23Z</time>
      </trkpt>
      <trkpt lat="44.58267" lon="6.21833">
        <ele>1177.4</ele>
        <time>2022-09-18T09:45:24Z</time>
      </trkpt>
      <trkpt lat="44.58269" lon="6.21831">
        <ele>1177.8</ele>
        <time>2022-09-18T09:45:25Z</time>
      </trkpt>
      <trkpt lat="44.5827" lon="6.21828">
        <ele>1178.4</ele>
        <time>2022-09-18T09:45:26Z</time>
      </trkpt>
      <trkpt lat="44.58272" lon="6.21826">
        <ele>1178.8</ele>
        <time>2022-09-18T09:45:27Z</time>
      </trkpt>
      <trkpt lat="44.58273" lon="6.21823">
        <ele>1179.4</ele>
        <time>2022-09-18T09:45:28Z</time>
      </trkpt>
      <trkpt lat="44.58274" lon="6.21821">
        <ele>1180</ele>
        <time>2022-09-18T09:45:29Z</time>
      </trkpt>
      <trkpt lat="44.58275" lon="6.21818">
        <ele>1180.4</ele>
        <time>2022-09-18T09:45:30Z</time>
      </trkpt>
      <trkpt lat="44.58276" lon="6.21815">
        <ele>1180.6</ele>
        <time>2022-09-18T09:45:31Z</time>
      </trkpt>
      <trkpt lat="44.58277" lon="6.21812">
        <ele>1181</ele>
        <time>2022-09-18T09:45:32Z</time>
      </trkpt>
      <trkpt lat="44.58278" lon="6.2181">
        <ele>1181.6</ele>
        <time>2022-09-18T09:45:33Z</time>
      </trkpt>
      <trkpt lat="44.5828" lon="6.21808">
        <ele>1182.2</ele>
        <time>2022-09-18T09:45:34Z</time>
      </trkpt>
      <trkpt lat="44.58281" lon="6.21806">
        <ele>1182.6</ele>
        <time>2022-09-18T09:45:35Z</time>
      </trkpt>
      <trkpt lat="44.58282" lon="6.21803">
        <ele>1183.2</ele>
        <time>2022-09-18T09:45:36Z</time>
      </trkpt>
      <trkpt lat="44.58283" lon="6.21801">
        <ele>1183.8</ele>
        <time>2022-09-18T09:45:37Z</time>
      </trkpt>
      <trkpt lat="44.58284" lon="6.21798">
        <ele>1184.4</ele>
        <time>2022-09-18T09:45:38Z</time>
      </trkpt>
      <trkpt lat="44.58284" lon="6.21796">
        <ele>1184.8</ele>
        <time>2022-09-18T09:45:39Z</time>
      </trkpt>
      <trkpt lat="44.58285" lon="6.21793">
        <ele>1185.2</ele>
        <time>2022-09-18T09:45:40Z</time>
      </trkpt>
      <trkpt lat="44.58286" lon="6.21791">
        <ele>1185.8</ele>
        <time>2022-09-18T09:45:41Z</time>
      </trkpt>
      <trkpt lat="44.58286" lon="6.21788">
        <ele>1186.2</ele>
        <time>2022-09-18T09:45:42Z</time>
      </trkpt>
      <trkpt lat="44.58287" lon="6.21786">
        <ele>1186.8</ele>
        <time>2022-09-18T09:45:43Z</time>
      </trkpt>
      <trkpt lat="44.58288" lon="6.21783">
        <ele>1187.2</ele>
        <time>2022-09-18T09:45:44Z</time>
      </trkpt>
      <trkpt lat="44.58288" lon="6.2178">
        <ele>1187.8</ele>
        <time>2022-09-18T09:45:45Z</time>
      </trkpt>
      <trkpt lat="44.58289" lon="6.21777">
        <ele>1188.2</ele>
        <time>2022-09-18T09:45:46Z</time>
      </trkpt>
      <trkpt lat="44.58289" lon="6.21774">
        <ele>1188.4</ele>
        <time>2022-09-18T09:45:47Z</time>
      </trkpt>
      <trkpt lat="44.5829" lon="6.21771">
        <ele>1189</ele>
        <time>2022-09-18T09:45:48Z</time>
      </trkpt>
      <trkpt lat="44.5829" lon="6.21768">
        <ele>1189.4</ele>
        <time>2022-09-18T09:45:49Z</time>
      </trkpt>
      <trkpt lat="44.5829" lon="6.21765">
        <ele>1189.8</ele>
        <time>2022-09-18T09:45:50Z</time>
      </trkpt>
      <trkpt lat="44.58291" lon="6.21763">
        <ele>1190.4</ele>
        <time>2022-09-18T09:45:51Z</time>
      </trkpt>
      <trkpt lat="44.58292" lon="6.2176">
        <ele>1190.8</ele>
        <time>2022-09-18T09:45:52Z</time>
      </trkpt>
      <trkpt lat="44.58292" lon="6.21757">
        <ele>1191</ele>
        <time>2022-09-18T09:45:53Z</time>
      </trkpt>
      <trkpt lat="44.58293" lon="6.21754">
        <ele>1191.6</ele>
        <time>2022-09-18T09:45:54Z</time>
      </trkpt>
      <trkpt lat="44.58293" lon="6.21752">
        <ele>1192</ele>
        <time>2022-09-18T09:45:55Z</time>
      </trkpt>
      <trkpt lat="44.58293" lon="6.21749">
        <ele>1192.4</ele>
        <time>2022-09-18T09:45:56Z</time>
      </trkpt>
      <trkpt lat="44.58294" lon="6.21746">
        <ele>1192.8</ele>
        <time>2022-09-18T09:45:57Z</time>
      </trkpt>
      <trkpt lat="44.58294" lon="6.21743">
        <ele>1193.2</ele>
        <time>2022-09-18T09:45:58Z</time>
      </trkpt>
      <trkpt lat="44.58294" lon="6.2174">
        <ele>1193.4</ele>
        <time>2022-09-18T09:45:59Z</time>
      </trkpt>
      <trkpt lat="44.58295" lon="6.21737">
        <ele>1193.6</ele>
        <time>2022-09-18T09:46:00Z</time>
      </trkpt>
      <trkpt lat="44.58295" lon="6.21735">
        <ele>1193.8</ele>
        <time>2022-09-18T09:46:01Z</time>
      </trkpt>
      <trkpt lat="44.58296" lon="6.21732">
        <ele>1194</ele>
        <time>2022-09-18T09:46:02Z</time>
      </trkpt>
      <trkpt lat="44.58296" lon="6.21729">
        <ele>1194.4</ele>
        <time>2022-09-18T09:46:03Z</time>
      </trkpt>
      <trkpt lat="44.58296" lon="6.21726">
        <ele>1194.4</ele>
        <time>2022-09-18T09:46:04Z</time>
      </trkpt>
      <trkpt lat="44.58297" lon="6.21723">
        <ele>1194.8</ele>
        <time>2022-09-18T09:46:05Z</time>
      </trkpt>
      <trkpt lat="44.58297" lon="6.2172">
        <ele>1195</ele>
        <time>2022-09-18T09:46:06Z</time>
      </trkpt>
      <trkpt lat="44.58297" lon="6.21717">
        <ele>1195.2</ele>
        <time>2022-09-18T09:46:07Z</time>
      </trkpt>
      <trkpt lat="44.58297" lon="6.21715">
        <ele>1195.2</ele>
        <time>2022-09-18T09:46:08Z</time>
      </trkpt>
      <trkpt lat="44.58298" lon="6.21712">
        <ele>1195.4</ele>
        <time>2022-09-18T09:46:09Z</time>
      </trkpt>
      <trkpt lat="44.58298" lon="6.21709">
        <ele>1195.6</ele>
        <time>2022-09-18T09:46:10Z</time>
      </trkpt>
      <trkpt lat="44.58299" lon="6.21706">
        <ele>1195.8</ele>
        <time>2022-09-18T09:46:11Z</time>
      </trkpt>
      <trkpt lat="44.58299" lon="6.21703">
        <ele>1196</ele>
        <time>2022-09-18T09:46:12Z</time>
      </trkpt>
      <trkpt lat="44.583" lon="6.21701">
        <ele>1196.2</ele>
        <time>2022-09-18T09:46:13Z</time>
      </trkpt>
      <trkpt lat="44.58301" lon="6.21698">
        <ele>1196.2</ele>
        <time>2022-09-18T09:46:14Z</time>
      </trkpt>
      <trkpt lat="44.58301" lon="6.21696">
        <ele>1196.2</ele>
        <time>2022-09-18T09:46:15Z</time>
      </trkpt>
      <trkpt lat="44.58302" lon="6.21693">
        <ele>1196.4</ele>
        <time>2022-09-18T09:46:16Z</time>
      </trkpt>
      <trkpt lat="44.58303" lon="6.2169">
        <ele>1196.6</ele>
        <time>2022-09-18T09:46:17Z</time>
      </trkpt>
      <trkpt lat="44.58304" lon="6.21688">
        <ele>1196.8</ele>
        <time>2022-09-18T09:46:18Z</time>
      </trkpt>
      <trkpt lat="44.58306" lon="6.21686">
        <ele>1197.2</ele>
        <time>2022-09-18T09:46:19Z</time>
      </trkpt>
      <trkpt lat="44.58307" lon="6.21683">
        <ele>1197.2</ele>
        <time>2022-09-18T09:46:20Z</time>
      </trkpt>
      <trkpt lat="44.58309" lon="6.21682">
        <ele>1197.4</ele>
        <time>2022-09-18T09:46:21Z</time>
      </trkpt>
      <trkpt lat="44.58312" lon="6.21681">
        <ele>1197.4</ele>
        <time>2022-09-18T09:46:22Z</time>
      </trkpt>
      <trkpt lat="44.58314" lon="6.2168">
        <ele>1197.6</ele>
        <time>2022-09-18T09:46:23Z</time>
      </trkpt>
      <trkpt lat="44.58317" lon="6.2168">
        <ele>1197.8</ele>
        <time>2022-09-18T09:46:24Z</time>
      </trkpt>
      <trkpt lat="44.58319" lon="6.21682">
        <ele>1197.8</ele>
        <time>2022-09-18T09:46:25Z</time>
      </trkpt>
      <trkpt lat="44.58321" lon="6.21684">
        <ele>1198.2</ele>
        <time>2022-09-18T09:46:26Z</time>
      </trkpt>
      <trkpt lat="44.58323" lon="6.21686">
        <ele>1198.4</ele>
        <time>2022-09-18T09:46:27Z</time>
      </trkpt>
      <trkpt lat="44.58325" lon="6.21689">
        <ele>1198.8</ele>
        <time>2022-09-18T09:46:28Z</time>
      </trkpt>
      <trkpt lat="44.58326" lon="6.21693">
        <ele>1198.8</ele>
        <time>2022-09-18T09:46:29Z</time>
      </trkpt>
      <trkpt lat="44.58327" lon="6.21696">
        <ele>1199</ele>
        <time>2022-09-18T09:46:30Z</time>
      </trkpt>
      <trkpt lat="44.58328" lon="6.21699">
        <ele>1199.2</ele>
        <time>2022-09-18T09:46:31Z</time>
      </trkpt>
      <trkpt lat="44.58329" lon="6.21702">
        <ele>1199.4</ele>
        <time>2022-09-18T09:46:32Z</time>
      </trkpt>
      <trkpt lat="44.5833" lon="6.21706">
        <ele>1199.8</ele>
        <time>2022-09-18T09:46:33Z</time>
      </trkpt>
      <trkpt lat="44.5833" lon="6.21709">
        <ele>1200.2</ele>
        <time>2022-09-18T09:46:34Z</time>
      </trkpt>
      <trkpt lat="44.58331" lon="6.21712">
        <ele>1200.2</ele>
        <time>2022-09-18T09:46:35Z</time>
      </trkpt>
      <trkpt lat="44.58332" lon="6.21715">
        <ele>1200.4</ele>
        <time>2022-09-18T09:46:36Z</time>
      </trkpt>
      <trkpt lat="44.58333" lon="6.21718">
        <ele>1201</ele>
        <time>2022-09-18T09:46:37Z</time>
      </trkpt>
      <trkpt lat="44.58333" lon="6.21722">
        <ele>1201.4</ele>
        <time>2022-09-18T09:46:38Z</time>
      </trkpt>
      <trkpt lat="44.58334" lon="6.21725">
        <ele>1201.8</ele>
        <time>2022-09-18T09:46:39Z</time>
      </trkpt>
      <trkpt lat="44.58334" lon="6.21728">
        <ele>1202</ele>
        <time>2022-09-18T09:46:40Z</time>
      </trkpt>
      <trkpt lat="44.58335" lon="6.21732">
        <ele>1202.4</ele>
        <time>2022-09-18T09:46:41Z</time>
      </trkpt>
      <trkpt lat="44.58336" lon="6.21735">
        <ele>1202.6</ele>
        <time>2022-09-18T09:46:42Z</time>
      </trkpt>
      <trkpt lat="44.58336" lon="6.21738">
        <ele>1203</ele>
        <time>2022-09-18T09:46:43Z</time>
      </trkpt>
      <trkpt lat="44.58337" lon="6.21742">
        <ele>1203.2</ele>
        <time>2022-09-18T09:46:44Z</time>
      </trkpt>
      <trkpt lat="44.58338" lon="6.21745">
        <ele>1203.4</ele>
        <time>2022-09-18T09:46:45Z</time>
      </trkpt>
      <trkpt lat="44.58338" lon="6.21749">
        <ele>1203.6</ele>
        <time>2022-09-18T09:46:46Z</time>
      </trkpt>
      <trkpt lat="44.58339" lon="6.21752">
        <ele>1204</ele>
        <time>2022-09-18T09:46:47Z</time>
      </trkpt>
      <trkpt lat="44.5834" lon="6.21755">
        <ele>1204.6</ele>
        <time>2022-09-18T09:46:48Z</time>
      </trkpt>
      <trkpt lat="44.5834" lon="6.21759">
        <ele>1205</ele>
        <time>2022-09-18T09:46:49Z</time>
      </trkpt>
      <trkpt lat="44.58341" lon="6.21762">
        <ele>1205.2</ele>
        <time>2022-09-18T09:46:50Z</time>
      </trkpt>
      <trkpt lat="44.58341" lon="6.21765">
        <ele>1205.6</ele>
        <time>2022-09-18T09:46:51Z</time>
      </trkpt>
      <trkpt lat="44.58342" lon="6.21768">
        <ele>1205.8</ele>
        <time>2022-09-18T09:46:52Z</time>
      </trkpt>
      <trkpt lat="44.58343" lon="6.21771">
        <ele>1206</ele>
        <time>2022-09-18T09:46:53Z</time>
      </trkpt>
      <trkpt lat="44.58343" lon="6.21774">
        <ele>1206.2</ele>
        <time>2022-09-18T09:46:54Z</time>
      </trkpt>
      <trkpt lat="44.58343" lon="6.21777">
        <ele>1206.6</ele>
        <time>2022-09-18T09:46:55Z</time>
      </trkpt>
      <trkpt lat="44.58344" lon="6.2178">
        <ele>1207</ele>
        <time>2022-09-18T09:46:56Z</time>
      </trkpt>
      <trkpt lat="44.58344" lon="6.21783">
        <ele>1207.4</ele>
        <time>2022-09-18T09:46:57Z</time>
      </trkpt>
      <trkpt lat="44.58344" lon="6.21786">
        <ele>1207.4</ele>
        <time>2022-09-18T09:46:58Z</time>
      </trkpt>
      <trkpt lat="44.58344" lon="6.21789">
        <ele>1207.6</ele>
        <time>2022-09-18T09:46:59Z</time>
      </trkpt>
      <trkpt lat="44.58344" lon="6.21793">
        <ele>1208</ele>
        <time>2022-09-18T09:47:00Z</time>
      </trkpt>
      <trkpt lat="44.58345" lon="6.21796">
        <ele>1208.4</ele>
        <time>2022-09-18T09:47:01Z</time>
      </trkpt>
      <trkpt lat="44.58345" lon="6.21799">
        <ele>1208.4</ele>
        <time>2022-09-18T09:47:02Z</time>
      </trkpt>
      <trkpt lat="44.58345" lon="6.21802">
        <ele>1208.4</ele>
        <time>2022-09-18T09:47:03Z</time>
      </trkpt>
      <trkpt lat="44.58345" lon="6.21805">
        <ele>1208.6</ele>
        <time>2022-09-18T09:47:04Z</time>
      </trkpt>
      <trkpt lat="44.58345" lon="6.21808">
        <ele>1209</ele>
        <time>2022-09-18T09:47:05Z</time>
      </trkpt>
      <trkpt lat="44.58344" lon="6.21812">
        <ele>1209.2</ele>
        <time>2022-09-18T09:47:06Z</time>
      </trkpt>
      <trkpt lat="44.58344" lon="6.21815">
        <ele>1209.4</ele>
        <time>2022-09-18T09:47:07Z</time>
      </trkpt>
      <trkpt lat="44.58344" lon="6.21819">
        <ele>1209.6</ele>
        <time>2022-09-18T09:47:08Z</time>
      </trkpt>
      <trkpt lat="44.58344" lon="6.21822">
        <ele>1209.6</ele>
        <time>2022-09-18T09:47:09Z</time>
      </trkpt>
      <trkpt lat="44.58344" lon="6.21825">
        <ele>1210</ele>
        <time>2022-09-18T09:47:10Z</time>
      </trkpt>
      <trkpt lat="44.58344" lon="6.21829">
        <ele>1210.2</ele>
        <time>2022-09-18T09:47:11Z</time>
      </trkpt>
      <trkpt lat="44.58344" lon="6.21832">
        <ele>1210.6</ele>
        <time>2022-09-18T09:47:12Z</time>
      </trkpt>
      <trkpt lat="44.58344" lon="6.21835">
        <ele>1210.8</ele>
        <time>2022-09-18T09:47:13Z</time>
      </trkpt>
      <trkpt lat="44.58344" lon="6.21838">
        <ele>1211</ele>
        <time>2022-09-18T09:47:14Z</time>
      </trkpt>
      <trkpt lat="44.58344" lon="6.21841">
        <ele>1211.4</ele>
        <time>2022-09-18T09:47:15Z</time>
      </trkpt>
      <trkpt lat="44.58345" lon="6.21844">
        <ele>1211.4</ele>
        <time>2022-09-18T09:47:16Z</time>
      </trkpt>
      <trkpt lat="44.58345" lon="6.21847">
        <ele>1211.6</ele>
        <time>2022-09-18T09:47:17Z</time>
      </trkpt>
      <trkpt lat="44.58345" lon="6.2185">
        <ele>1211.8</ele>
        <time>2022-09-18T09:47:18Z</time>
      </trkpt>
      <trkpt lat="44.58345" lon="6.21852">
        <ele>1211.8</ele>
        <time>2022-09-18T09:47:19Z</time>
      </trkpt>
      <trkpt lat="44.58345" lon="6.21855">
        <ele>1212</ele>
        <time>2022-09-18T09:47:20Z</time>
      </trkpt>
      <trkpt lat="44.58345" lon="6.21858">
        <ele>1212.2</ele>
        <time>2022-09-18T09:47:21Z</time>
      </trkpt>
      <trkpt lat="44.58344" lon="6.21861">
        <ele>1212.4</ele>
        <time>2022-09-18T09:47:22Z</time>
      </trkpt>
      <trkpt lat="44.58344" lon="6.21864">
        <ele>1212.4</ele>
        <time>2022-09-18T09:47:23Z</time>
      </trkpt>
      <trkpt lat="44.58344" lon="6.21867">
        <ele>1212.6</ele>
        <time>2022-09-18T09:47:24Z</time>
      </trkpt>
      <trkpt lat="44.58344" lon="6.2187">
        <ele>1212.8</ele>
        <time>2022-09-18T09:47:25Z</time>
      </trkpt>
      <trkpt lat="44.58344" lon="6.21874">
        <ele>1213</ele>
        <time>2022-09-18T09:47:26Z</time>
      </trkpt>
      <trkpt lat="44.58344" lon="6.21877">
        <ele>1213</ele>
        <time>2022-09-18T09:47:27Z</time>
      </trkpt>
      <trkpt lat="44.58344" lon="6.2188">
        <ele>1213</ele>
        <time>2022-09-18T09:47:28Z</time>
      </trkpt>
      <trkpt lat="44.58344" lon="6.21883">
        <ele>1213.4</ele>
        <time>2022-09-18T09:47:29Z</time>
      </trkpt>
      <trkpt lat="44.58344" lon="6.21886">
        <ele>1213.6</ele>
        <time>2022-09-18T09:47:30Z</time>
      </trkpt>
      <trkpt lat="44.58344" lon="6.21889">
        <ele>1213.6</ele>
        <time>2022-09-18T09:47:31Z</time>
      </trkpt>
      <trkpt lat="44.58344" lon="6.21892">
        <ele>1213.8</ele>
        <time>2022-09-18T09:47:32Z</time>
      </trkpt>
      <trkpt lat="44.58344" lon="6.21895">
        <ele>1214</ele>
        <time>2022-09-18T09:47:33Z</time>
      </trkpt>
      <trkpt lat="44.58344" lon="6.21898">
        <ele>1213.8</ele>
        <time>2022-09-18T09:47:34Z</time>
      </trkpt>
      <trkpt lat="44.58344" lon="6.21901">
        <ele>1214</ele>
        <time>2022-09-18T09:47:35Z</time>
      </trkpt>
      <trkpt lat="44.58343" lon="6.21904">
        <ele>1214</ele>
        <time>2022-09-18T09:47:36Z</time>
      </trkpt>
      <trkpt lat="44.58343" lon="6.21908">
        <ele>1214.2</ele>
        <time>2022-09-18T09:47:37Z</time>
      </trkpt>
      <trkpt lat="44.58344" lon="6.21911">
        <ele>1214.2</ele>
        <time>2022-09-18T09:47:38Z</time>
      </trkpt>
      <trkpt lat="44.58344" lon="6.21914">
        <ele>1214.4</ele>
        <time>2022-09-18T09:47:39Z</time>
      </trkpt>
      <trkpt lat="44.58344" lon="6.21917">
        <ele>1214.6</ele>
        <time>2022-09-18T09:47:40Z</time>
      </trkpt>
      <trkpt lat="44.58344" lon="6.2192">
        <ele>1215</ele>
        <time>2022-09-18T09:47:41Z</time>
      </trkpt>
      <trkpt lat="44.58344" lon="6.21923">
        <ele>1215.2</ele>
        <time>2022-09-18T09:47:42Z</time>
      </trkpt>
      <trkpt lat="44.58344" lon="6.21927">
        <ele>1215.4</ele>
        <time>2022-09-18T09:47:43Z</time>
      </trkpt>
      <trkpt lat="44.58344" lon="6.2193">
        <ele>1215.8</ele>
        <time>2022-09-18T09:47:44Z</time>
      </trkpt>
      <trkpt lat="44.58343" lon="6.21933">
        <ele>1216</ele>
        <time>2022-09-18T09:47:45Z</time>
      </trkpt>
      <trkpt lat="44.58344" lon="6.21936">
        <ele>1216</ele>
        <time>2022-09-18T09:47:46Z</time>
      </trkpt>
      <trkpt lat="44.58344" lon="6.21939">
        <ele>1216.4</ele>
        <time>2022-09-18T09:47:47Z</time>
      </trkpt>
      <trkpt lat="44.58345" lon="6.21942">
        <ele>1216.6</ele>
        <time>2022-09-18T09:47:48Z</time>
      </trkpt>
      <trkpt lat="44.58346" lon="6.21944">
        <ele>1216.8</ele>
        <time>2022-09-18T09:47:49Z</time>
      </trkpt>
      <trkpt lat="44.58346" lon="6.21947">
        <ele>1217.2</ele>
        <time>2022-09-18T09:47:50Z</time>
      </trkpt>
      <trkpt lat="44.58347" lon="6.2195">
        <ele>1217.4</ele>
        <time>2022-09-18T09:47:51Z</time>
      </trkpt>
      <trkpt lat="44.58347" lon="6.21953">
        <ele>1217.6</ele>
        <time>2022-09-18T09:47:52Z</time>
      </trkpt>
      <trkpt lat="44.58348" lon="6.21955">
        <ele>1218</ele>
        <time>2022-09-18T09:47:53Z</time>
      </trkpt>
      <trkpt lat="44.58349" lon="6.21958">
        <ele>1218.2</ele>
        <time>2022-09-18T09:47:54Z</time>
      </trkpt>
      <trkpt lat="44.58349" lon="6.2196">
        <ele>1218.2</ele>
        <time>2022-09-18T09:47:55Z</time>
      </trkpt>
      <trkpt lat="44.5835" lon="6.21963">
        <ele>1218.4</ele>
        <time>2022-09-18T09:47:56Z</time>
      </trkpt>
      <trkpt lat="44.58351" lon="6.21966">
        <ele>1218.6</ele>
        <time>2022-09-18T09:47:57Z</time>
      </trkpt>
      <trkpt lat="44.58352" lon="6.21968">
        <ele>1219</ele>
        <time>2022-09-18T09:47:58Z</time>
      </trkpt>
      <trkpt lat="44.58354" lon="6.2197">
        <ele>1219.2</ele>
        <time>2022-09-18T09:47:59Z</time>
      </trkpt>
      <trkpt lat="44.58356" lon="6.21971">
        <ele>1219.4</ele>
        <time>2022-09-18T09:48:00Z</time>
      </trkpt>
      <trkpt lat="44.58357" lon="6.21973">
        <ele>1219.6</ele>
        <time>2022-09-18T09:48:01Z</time>
      </trkpt>
      <trkpt lat="44.58359" lon="6.21975">
        <ele>1219.8</ele>
        <time>2022-09-18T09:48:02Z</time>
      </trkpt>
      <trkpt lat="44.58367" lon="6.21983">
        <ele>1220.4</ele>
        <time>2022-09-18T09:48:06Z</time>
      </trkpt>
      <trkpt lat="44.58369" lon="6.21985">
        <ele>1220.6</ele>
        <time>2022-09-18T09:48:07Z</time>
      </trkpt>
      <trkpt lat="44.58377" lon="6.21991">
        <ele>1221.2</ele>
        <time>2022-09-18T09:48:11Z</time>
      </trkpt>
      <trkpt lat="44.58385" lon="6.21999">
        <ele>1221.2</ele>
        <time>2022-09-18T09:48:15Z</time>
      </trkpt>
      <trkpt lat="44.58386" lon="6.22002">
        <ele>1221.6</ele>
        <time>2022-09-18T09:48:16Z</time>
      </trkpt>
      <trkpt lat="44.58388" lon="6.22005">
        <ele>1221.6</ele>
        <time>2022-09-18T09:48:17Z</time>
      </trkpt>
      <trkpt lat="44.58389" lon="6.22008">
        <ele>1221.6</ele>
        <time>2022-09-18T09:48:18Z</time>
      </trkpt>
      <trkpt lat="44.5839" lon="6.22011">
        <ele>1221.6</ele>
        <time>2022-09-18T09:48:19Z</time>
      </trkpt>
      <trkpt lat="44.58391" lon="6.22013">
        <ele>1221.6</ele>
        <time>2022-09-18T09:48:20Z</time>
      </trkpt>
      <trkpt lat="44.58393" lon="6.22016">
        <ele>1222</ele>
        <time>2022-09-18T09:48:22Z</time>
      </trkpt>
      <trkpt lat="44.58394" lon="6.22019">
        <ele>1222.2</ele>
        <time>2022-09-18T09:48:23Z</time>
      </trkpt>
      <trkpt lat="44.58397" lon="6.22022">
        <ele>1222.6</ele>
        <time>2022-09-18T09:48:25Z</time>
      </trkpt>
      <trkpt lat="44.58399" lon="6.22023">
        <ele>1223</ele>
        <time>2022-09-18T09:48:26Z</time>
      </trkpt>
      <trkpt lat="44.58402" lon="6.22026">
        <ele>1223.4</ele>
        <time>2022-09-18T09:48:28Z</time>
      </trkpt>
      <trkpt lat="44.58404" lon="6.22027">
        <ele>1223.6</ele>
        <time>2022-09-18T09:48:29Z</time>
      </trkpt>
      <trkpt lat="44.58405" lon="6.22028">
        <ele>1223.8</ele>
        <time>2022-09-18T09:48:30Z</time>
      </trkpt>
      <trkpt lat="44.58407" lon="6.22029">
        <ele>1224.2</ele>
        <time>2022-09-18T09:48:31Z</time>
      </trkpt>
      <trkpt lat="44.5841" lon="6.22029">
        <ele>1224.4</ele>
        <time>2022-09-18T09:48:32Z</time>
      </trkpt>
      <trkpt lat="44.58412" lon="6.22029">
        <ele>1224.6</ele>
        <time>2022-09-18T09:48:33Z</time>
      </trkpt>
      <trkpt lat="44.58414" lon="6.22029">
        <ele>1224.8</ele>
        <time>2022-09-18T09:48:34Z</time>
      </trkpt>
      <trkpt lat="44.58417" lon="6.22028">
        <ele>1225</ele>
        <time>2022-09-18T09:48:35Z</time>
      </trkpt>
      <trkpt lat="44.58419" lon="6.22028">
        <ele>1225.4</ele>
        <time>2022-09-18T09:48:36Z</time>
      </trkpt>
      <trkpt lat="44.58421" lon="6.22028">
        <ele>1225.6</ele>
        <time>2022-09-18T09:48:37Z</time>
      </trkpt>
      <trkpt lat="44.58423" lon="6.22029">
        <ele>1225.8</ele>
        <time>2022-09-18T09:48:38Z</time>
      </trkpt>
      <trkpt lat="44.58433" lon="6.22028">
        <ele>1227.8</ele>
        <time>2022-09-18T09:48:44Z</time>
      </trkpt>
      <trkpt lat="44.58443" lon="6.22028">
        <ele>1229.6</ele>
        <time>2022-09-18T09:48:50Z</time>
      </trkpt>
      <trkpt lat="44.58453" lon="6.22028">
        <ele>1231.2</ele>
        <time>2022-09-18T09:48:58Z</time>
      </trkpt>
      <trkpt lat="44.58462" lon="6.22025">
        <ele>1231.4</ele>
        <time>2022-09-18T09:49:03Z</time>
      </trkpt>
      <trkpt lat="44.58473" lon="6.22022">
        <ele>1231.8</ele>
        <time>2022-09-18T09:49:09Z</time>
      </trkpt>
      <trkpt lat="44.58482" lon="6.22025">
        <ele>1231.6</ele>
        <time>2022-09-18T09:49:13Z</time>
      </trkpt>
      <trkpt lat="44.58493" lon="6.22029">
        <ele>1232.4</ele>
        <time>2022-09-18T09:49:19Z</time>
      </trkpt>
      <trkpt lat="44.58504" lon="6.22031">
        <ele>1233.4</ele>
        <time>2022-09-18T09:49:24Z</time>
      </trkpt>
      <trkpt lat="44.58515" lon="6.22031">
        <ele>1234.6</ele>
        <time>2022-09-18T09:49:29Z</time>
      </trkpt>
      <trkpt lat="44.58526" lon="6.22035">
        <ele>1236.6</ele>
        <time>2022-09-18T09:49:34Z</time>
      </trkpt>
      <trkpt lat="44.58535" lon="6.22038">
        <ele>1237.8</ele>
        <time>2022-09-18T09:49:38Z</time>
      </trkpt>
      <trkpt lat="44.58545" lon="6.22042">
        <ele>1240.2</ele>
        <time>2022-09-18T09:49:43Z</time>
      </trkpt>
      <trkpt lat="44.58556" lon="6.22047">
        <ele>1242.8</ele>
        <time>2022-09-18T09:49:49Z</time>
      </trkpt>
      <trkpt lat="44.58562" lon="6.22046">
        <ele>1243.8</ele>
        <time>2022-09-18T09:49:52Z</time>
      </trkpt>
      <trkpt lat="44.58564" lon="6.22046">
        <ele>1244.4</ele>
        <time>2022-09-18T09:49:53Z</time>
      </trkpt>
      <trkpt lat="44.58566" lon="6.22046">
        <ele>1244.8</ele>
        <time>2022-09-18T09:49:54Z</time>
      </trkpt>
      <trkpt lat="44.58569" lon="6.22046">
        <ele>1245.4</ele>
        <time>2022-09-18T09:49:56Z</time>
      </trkpt>
      <trkpt lat="44.58579" lon="6.22049">
        <ele>1247.6</ele>
        <time>2022-09-18T09:50:01Z</time>
      </trkpt>
      <trkpt lat="44.58591" lon="6.2205">
        <ele>1249.6</ele>
        <time>2022-09-18T09:50:06Z</time>
      </trkpt>
      <trkpt lat="44.586" lon="6.22052">
        <ele>1251.6</ele>
        <time>2022-09-18T09:50:10Z</time>
      </trkpt>
      <trkpt lat="44.58606" lon="6.22054">
        <ele>1252.8</ele>
        <time>2022-09-18T09:50:13Z</time>
      </trkpt>
      <trkpt lat="44.58608" lon="6.22055">
        <ele>1253</ele>
        <time>2022-09-18T09:50:14Z</time>
      </trkpt>
      <trkpt lat="44.58611" lon="6.22056">
        <ele>1253.4</ele>
        <time>2022-09-18T09:50:15Z</time>
      </trkpt>
      <trkpt lat="44.58613" lon="6.22057">
        <ele>1253.6</ele>
        <time>2022-09-18T09:50:16Z</time>
      </trkpt>
      <trkpt lat="44.58615" lon="6.22059">
        <ele>1253.8</ele>
        <time>2022-09-18T09:50:17Z</time>
      </trkpt>
      <trkpt lat="44.58617" lon="6.2206">
        <ele>1254.4</ele>
        <time>2022-09-18T09:50:18Z</time>
      </trkpt>
      <trkpt lat="44.58619" lon="6.22062">
        <ele>1254.8</ele>
        <time>2022-09-18T09:50:19Z</time>
      </trkpt>
      <trkpt lat="44.58621" lon="6.22065">
        <ele>1255.2</ele>
        <time>2022-09-18T09:50:20Z</time>
      </trkpt>
      <trkpt lat="44.58622" lon="6.22067">
        <ele>1255.4</ele>
        <time>2022-09-18T09:50:21Z</time>
      </trkpt>
      <trkpt lat="44.58624" lon="6.2207">
        <ele>1255.6</ele>
        <time>2022-09-18T09:50:22Z</time>
      </trkpt>
      <trkpt lat="44.58626" lon="6.22072">
        <ele>1255.8</ele>
        <time>2022-09-18T09:50:23Z</time>
      </trkpt>
      <trkpt lat="44.58628" lon="6.22073">
        <ele>1256.2</ele>
        <time>2022-09-18T09:50:24Z</time>
      </trkpt>
      <trkpt lat="44.5863" lon="6.22075">
        <ele>1256.6</ele>
        <time>2022-09-18T09:50:25Z</time>
      </trkpt>
      <trkpt lat="44.58632" lon="6.22076">
        <ele>1257</ele>
        <time>2022-09-18T09:50:26Z</time>
      </trkpt>
      <trkpt lat="44.58634" lon="6.22077">
        <ele>1257.2</ele>
        <time>2022-09-18T09:50:27Z</time>
      </trkpt>
      <trkpt lat="44.58636" lon="6.22077">
        <ele>1257.6</ele>
        <time>2022-09-18T09:50:28Z</time>
      </trkpt>
      <trkpt lat="44.58638" lon="6.22078">
        <ele>1258</ele>
        <time>2022-09-18T09:50:29Z</time>
      </trkpt>
      <trkpt lat="44.58641" lon="6.22078">
        <ele>1258.2</ele>
        <time>2022-09-18T09:50:30Z</time>
      </trkpt>
      <trkpt lat="44.58643" lon="6.22078">
        <ele>1258.6</ele>
        <time>2022-09-18T09:50:31Z</time>
      </trkpt>
      <trkpt lat="44.58645" lon="6.22078">
        <ele>1259</ele>
        <time>2022-09-18T09:50:32Z</time>
      </trkpt>
      <trkpt lat="44.58648" lon="6.22079">
        <ele>1259.2</ele>
        <time>2022-09-18T09:50:33Z</time>
      </trkpt>
      <trkpt lat="44.5865" lon="6.22079">
        <ele>1259.2</ele>
        <time>2022-09-18T09:50:34Z</time>
      </trkpt>
      <trkpt lat="44.58653" lon="6.2208">
        <ele>1259.6</ele>
        <time>2022-09-18T09:50:35Z</time>
      </trkpt>
      <trkpt lat="44.58655" lon="6.22081">
        <ele>1259.8</ele>
        <time>2022-09-18T09:50:36Z</time>
      </trkpt>
      <trkpt lat="44.58658" lon="6.22082">
        <ele>1259.8</ele>
        <time>2022-09-18T09:50:37Z</time>
      </trkpt>
      <trkpt lat="44.5866" lon="6.22083">
        <ele>1260.2</ele>
        <time>2022-09-18T09:50:38Z</time>
      </trkpt>
      <trkpt lat="44.58663" lon="6.22084">
        <ele>1260.6</ele>
        <time>2022-09-18T09:50:39Z</time>
      </trkpt>
      <trkpt lat="44.58665" lon="6.22085">
        <ele>1260.8</ele>
        <time>2022-09-18T09:50:40Z</time>
      </trkpt>
      <trkpt lat="44.58667" lon="6.22086">
        <ele>1260.6</ele>
        <time>2022-09-18T09:50:41Z</time>
      </trkpt>
      <trkpt lat="44.58669" lon="6.22087">
        <ele>1260.8</ele>
        <time>2022-09-18T09:50:42Z</time>
      </trkpt>
      <trkpt lat="44.58671" lon="6.22088">
        <ele>1261</ele>
        <time>2022-09-18T09:50:43Z</time>
      </trkpt>
      <trkpt lat="44.58675" lon="6.2209">
        <ele>1261.2</ele>
        <time>2022-09-18T09:50:45Z</time>
      </trkpt>
      <trkpt lat="44.58681" lon="6.22093">
        <ele>1261.4</ele>
        <time>2022-09-18T09:50:48Z</time>
      </trkpt>
      <trkpt lat="44.58683" lon="6.22093">
        <ele>1261.6</ele>
        <time>2022-09-18T09:50:49Z</time>
      </trkpt>
      <trkpt lat="44.58685" lon="6.22093">
        <ele>1261.6</ele>
        <time>2022-09-18T09:50:50Z</time>
      </trkpt>
      <trkpt lat="44.58695" lon="6.22094">
        <ele>1262.2</ele>
        <time>2022-09-18T09:50:54Z</time>
      </trkpt>
      <trkpt lat="44.58698" lon="6.22094">
        <ele>1262.4</ele>
        <time>2022-09-18T09:50:55Z</time>
      </trkpt>
      <trkpt lat="44.58701" lon="6.22094">
        <ele>1262.4</ele>
        <time>2022-09-18T09:50:56Z</time>
      </trkpt>
      <trkpt lat="44.58703" lon="6.22094">
        <ele>1262.6</ele>
        <time>2022-09-18T09:50:57Z</time>
      </trkpt>
      <trkpt lat="44.58706" lon="6.22093">
        <ele>1262.8</ele>
        <time>2022-09-18T09:50:58Z</time>
      </trkpt>
      <trkpt lat="44.5871" lon="6.22093">
        <ele>1263</ele>
        <time>2022-09-18T09:51:00Z</time>
      </trkpt>
      <trkpt lat="44.5872" lon="6.22089">
        <ele>1264</ele>
        <time>2022-09-18T09:51:05Z</time>
      </trkpt>
      <trkpt lat="44.58731" lon="6.22085">
        <ele>1264.8</ele>
        <time>2022-09-18T09:51:09Z</time>
      </trkpt>
      <trkpt lat="44.58742" lon="6.22082">
        <ele>1265.6</ele>
        <time>2022-09-18T09:51:13Z</time>
      </trkpt>
      <trkpt lat="44.5875" lon="6.22077">
        <ele>1267</ele>
        <time>2022-09-18T09:51:17Z</time>
      </trkpt>
      <trkpt lat="44.58761" lon="6.22075">
        <ele>1267.8</ele>
        <time>2022-09-18T09:51:22Z</time>
      </trkpt>
      <trkpt lat="44.58772" lon="6.22072">
        <ele>1269</ele>
        <time>2022-09-18T09:51:26Z</time>
      </trkpt>
      <trkpt lat="44.58784" lon="6.22069">
        <ele>1270</ele>
        <time>2022-09-18T09:51:30Z</time>
      </trkpt>
      <trkpt lat="44.58794" lon="6.22063">
        <ele>1271.2</ele>
        <time>2022-09-18T09:51:34Z</time>
      </trkpt>
      <trkpt lat="44.58802" lon="6.22057">
        <ele>1272</ele>
        <time>2022-09-18T09:51:37Z</time>
      </trkpt>
      <trkpt lat="44.58812" lon="6.22048">
        <ele>1273</ele>
        <time>2022-09-18T09:51:41Z</time>
      </trkpt>
      <trkpt lat="44.58822" lon="6.22048">
        <ele>1273.8</ele>
        <time>2022-09-18T09:51:44Z</time>
      </trkpt>
      <trkpt lat="44.58832" lon="6.22053">
        <ele>1274.6</ele>
        <time>2022-09-18T09:51:47Z</time>
      </trkpt>
      <trkpt lat="44.58837" lon="6.22055">
        <ele>1275.2</ele>
        <time>2022-09-18T09:51:49Z</time>
      </trkpt>
      <trkpt lat="44.58847" lon="6.22058">
        <ele>1276.8</ele>
        <time>2022-09-18T09:51:53Z</time>
      </trkpt>
      <trkpt lat="44.58848" lon="6.22059">
        <ele>1277</ele>
        <time>2022-09-18T09:51:54Z</time>
      </trkpt>
      <trkpt lat="44.5885" lon="6.2206">
        <ele>1277.4</ele>
        <time>2022-09-18T09:51:55Z</time>
      </trkpt>
      <trkpt lat="44.58852" lon="6.22061">
        <ele>1277.8</ele>
        <time>2022-09-18T09:51:56Z</time>
      </trkpt>
      <trkpt lat="44.58856" lon="6.2206">
        <ele>1278.2</ele>
        <time>2022-09-18T09:51:58Z</time>
      </trkpt>
      <trkpt lat="44.58858" lon="6.2206">
        <ele>1279</ele>
        <time>2022-09-18T09:52:00Z</time>
      </trkpt>
      <trkpt lat="44.58865" lon="6.22062">
        <ele>1280.6</ele>
        <time>2022-09-18T09:52:06Z</time>
      </trkpt>
      <trkpt lat="44.58868" lon="6.22063">
        <ele>1280.8</ele>
        <time>2022-09-18T09:52:07Z</time>
      </trkpt>
      <trkpt lat="44.58876" lon="6.22069">
        <ele>1282</ele>
        <time>2022-09-18T09:52:13Z</time>
      </trkpt>
      <trkpt lat="44.58885" lon="6.22071">
        <ele>1283.2</ele>
        <time>2022-09-18T09:52:18Z</time>
      </trkpt>
      <trkpt lat="44.58894" lon="6.22076">
        <ele>1284.2</ele>
        <time>2022-09-18T09:52:23Z</time>
      </trkpt>
      <trkpt lat="44.58896" lon="6.22078">
        <ele>1284.4</ele>
        <time>2022-09-18T09:52:24Z</time>
      </trkpt>
      <trkpt lat="44.58898" lon="6.22079">
        <ele>1284.6</ele>
        <time>2022-09-18T09:52:25Z</time>
      </trkpt>
      <trkpt lat="44.589" lon="6.2208">
        <ele>1284.8</ele>
        <time>2022-09-18T09:52:26Z</time>
      </trkpt>
      <trkpt lat="44.58905" lon="6.22081">
        <ele>1285.4</ele>
        <time>2022-09-18T09:52:28Z</time>
      </trkpt>
      <trkpt lat="44.58915" lon="6.22086">
        <ele>1286.4</ele>
        <time>2022-09-18T09:52:32Z</time>
      </trkpt>
      <trkpt lat="44.58926" lon="6.2209">
        <ele>1287.4</ele>
        <time>2022-09-18T09:52:37Z</time>
      </trkpt>
      <trkpt lat="44.58937" lon="6.22092">
        <ele>1288.2</ele>
        <time>2022-09-18T09:52:42Z</time>
      </trkpt>
      <trkpt lat="44.58947" lon="6.22096">
        <ele>1289.2</ele>
        <time>2022-09-18T09:52:47Z</time>
      </trkpt>
      <trkpt lat="44.58957" lon="6.22098">
        <ele>1290.6</ele>
        <time>2022-09-18T09:52:52Z</time>
      </trkpt>
      <trkpt lat="44.58965" lon="6.22102">
        <ele>1291.6</ele>
        <time>2022-09-18T09:52:56Z</time>
      </trkpt>
      <trkpt lat="44.58974" lon="6.22106">
        <ele>1292.8</ele>
        <time>2022-09-18T09:53:00Z</time>
      </trkpt>
      <trkpt lat="44.58983" lon="6.22109">
        <ele>1294.2</ele>
        <time>2022-09-18T09:53:05Z</time>
      </trkpt>
      <trkpt lat="44.58993" lon="6.22115">
        <ele>1294.8</ele>
        <time>2022-09-18T09:53:09Z</time>
      </trkpt>
      <trkpt lat="44.58999" lon="6.22117">
        <ele>1295.2</ele>
        <time>2022-09-18T09:53:11Z</time>
      </trkpt>
      <trkpt lat="44.59004" lon="6.2212">
        <ele>1295.6</ele>
        <time>2022-09-18T09:53:13Z</time>
      </trkpt>
      <trkpt lat="44.59007" lon="6.22121">
        <ele>1296</ele>
        <time>2022-09-18T09:53:14Z</time>
      </trkpt>
      <trkpt lat="44.59009" lon="6.22122">
        <ele>1296.2</ele>
        <time>2022-09-18T09:53:15Z</time>
      </trkpt>
      <trkpt lat="44.59012" lon="6.22123">
        <ele>1296.2</ele>
        <time>2022-09-18T09:53:16Z</time>
      </trkpt>
      <trkpt lat="44.59015" lon="6.22123">
        <ele>1296.6</ele>
        <time>2022-09-18T09:53:17Z</time>
      </trkpt>
      <trkpt lat="44.5902" lon="6.22126">
        <ele>1297</ele>
        <time>2022-09-18T09:53:19Z</time>
      </trkpt>
      <trkpt lat="44.59022" lon="6.22127">
        <ele>1297.2</ele>
        <time>2022-09-18T09:53:20Z</time>
      </trkpt>
      <trkpt lat="44.59024" lon="6.22128">
        <ele>1297.2</ele>
        <time>2022-09-18T09:53:21Z</time>
      </trkpt>
      <trkpt lat="44.59027" lon="6.22129">
        <ele>1297.2</ele>
        <time>2022-09-18T09:53:22Z</time>
      </trkpt>
      <trkpt lat="44.59029" lon="6.22129">
        <ele>1297.4</ele>
        <time>2022-09-18T09:53:23Z</time>
      </trkpt>
      <trkpt lat="44.59034" lon="6.2213">
        <ele>1298</ele>
        <time>2022-09-18T09:53:25Z</time>
      </trkpt>
      <trkpt lat="44.59037" lon="6.2213">
        <ele>1298</ele>
        <time>2022-09-18T09:53:26Z</time>
      </trkpt>
      <trkpt lat="44.59046" lon="6.22134">
        <ele>1299</ele>
        <time>2022-09-18T09:53:30Z</time>
      </trkpt>
      <trkpt lat="44.59056" lon="6.22139">
        <ele>1300</ele>
        <time>2022-09-18T09:53:34Z</time>
      </trkpt>
      <trkpt lat="44.59065" lon="6.22145">
        <ele>1301</ele>
        <time>2022-09-18T09:53:38Z</time>
      </trkpt>
      <trkpt lat="44.59074" lon="6.22151">
        <ele>1302</ele>
        <time>2022-09-18T09:53:42Z</time>
      </trkpt>
      <trkpt lat="44.59083" lon="6.22159">
        <ele>1303.2</ele>
        <time>2022-09-18T09:53:46Z</time>
      </trkpt>
      <trkpt lat="44.59092" lon="6.22167">
        <ele>1304.2</ele>
        <time>2022-09-18T09:53:50Z</time>
      </trkpt>
      <trkpt lat="44.59103" lon="6.2217">
        <ele>1305.4</ele>
        <time>2022-09-18T09:53:55Z</time>
      </trkpt>
      <trkpt lat="44.59113" lon="6.22175">
        <ele>1306.8</ele>
        <time>2022-09-18T09:54:00Z</time>
      </trkpt>
      <trkpt lat="44.59115" lon="6.22176">
        <ele>1307</ele>
        <time>2022-09-18T09:54:01Z</time>
      </trkpt>
      <trkpt lat="44.59118" lon="6.2218">
        <ele>1307.6</ele>
        <time>2022-09-18T09:54:03Z</time>
      </trkpt>
      <trkpt lat="44.5912" lon="6.22182">
        <ele>1308</ele>
        <time>2022-09-18T09:54:04Z</time>
      </trkpt>
      <trkpt lat="44.59122" lon="6.22185">
        <ele>1308.6</ele>
        <time>2022-09-18T09:54:06Z</time>
      </trkpt>
      <trkpt lat="44.59125" lon="6.22187">
        <ele>1308.8</ele>
        <time>2022-09-18T09:54:07Z</time>
      </trkpt>
      <trkpt lat="44.59127" lon="6.22188">
        <ele>1309</ele>
        <time>2022-09-18T09:54:08Z</time>
      </trkpt>
      <trkpt lat="44.59128" lon="6.2219">
        <ele>1309.4</ele>
        <time>2022-09-18T09:54:09Z</time>
      </trkpt>
      <trkpt lat="44.5913" lon="6.22192">
        <ele>1309.6</ele>
        <time>2022-09-18T09:54:10Z</time>
      </trkpt>
      <trkpt lat="44.59133" lon="6.22193">
        <ele>1310</ele>
        <time>2022-09-18T09:54:11Z</time>
      </trkpt>
      <trkpt lat="44.59134" lon="6.22196">
        <ele>1310.6</ele>
        <time>2022-09-18T09:54:12Z</time>
      </trkpt>
      <trkpt lat="44.59136" lon="6.22198">
        <ele>1310.6</ele>
        <time>2022-09-18T09:54:13Z</time>
      </trkpt>
      <trkpt lat="44.59138" lon="6.222">
        <ele>1311.2</ele>
        <time>2022-09-18T09:54:14Z</time>
      </trkpt>
      <trkpt lat="44.5914" lon="6.22202">
        <ele>1311.2</ele>
        <time>2022-09-18T09:54:15Z</time>
      </trkpt>
      <trkpt lat="44.59142" lon="6.22204">
        <ele>1311.4</ele>
        <time>2022-09-18T09:54:16Z</time>
      </trkpt>
      <trkpt lat="44.59143" lon="6.22207">
        <ele>1311.8</ele>
        <time>2022-09-18T09:54:17Z</time>
      </trkpt>
      <trkpt lat="44.59144" lon="6.2221">
        <ele>1312</ele>
        <time>2022-09-18T09:54:18Z</time>
      </trkpt>
      <trkpt lat="44.59145" lon="6.22213">
        <ele>1312.4</ele>
        <time>2022-09-18T09:54:19Z</time>
      </trkpt>
      <trkpt lat="44.59146" lon="6.22215">
        <ele>1312.6</ele>
        <time>2022-09-18T09:54:20Z</time>
      </trkpt>
      <trkpt lat="44.59147" lon="6.22218">
        <ele>1312.8</ele>
        <time>2022-09-18T09:54:21Z</time>
      </trkpt>
      <trkpt lat="44.59149" lon="6.2222">
        <ele>1313</ele>
        <time>2022-09-18T09:54:22Z</time>
      </trkpt>
      <trkpt lat="44.5915" lon="6.22222">
        <ele>1313.4</ele>
        <time>2022-09-18T09:54:23Z</time>
      </trkpt>
      <trkpt lat="44.59152" lon="6.22224">
        <ele>1313.8</ele>
        <time>2022-09-18T09:54:24Z</time>
      </trkpt>
      <trkpt lat="44.59154" lon="6.22227">
        <ele>1313.8</ele>
        <time>2022-09-18T09:54:25Z</time>
      </trkpt>
      <trkpt lat="44.59155" lon="6.22229">
        <ele>1314</ele>
        <time>2022-09-18T09:54:26Z</time>
      </trkpt>
      <trkpt lat="44.59156" lon="6.22232">
        <ele>1314.2</ele>
        <time>2022-09-18T09:54:27Z</time>
      </trkpt>
      <trkpt lat="44.59158" lon="6.22236">
        <ele>1315</ele>
        <time>2022-09-18T09:54:29Z</time>
      </trkpt>
      <trkpt lat="44.59159" lon="6.2224">
        <ele>1315.2</ele>
        <time>2022-09-18T09:54:31Z</time>
      </trkpt>
      <trkpt lat="44.59161" lon="6.22244">
        <ele>1315.6</ele>
        <time>2022-09-18T09:54:33Z</time>
      </trkpt>
      <trkpt lat="44.59162" lon="6.22248">
        <ele>1316.4</ele>
        <time>2022-09-18T09:54:35Z</time>
      </trkpt>
      <trkpt lat="44.59162" lon="6.22252">
        <ele>1316.8</ele>
        <time>2022-09-18T09:54:37Z</time>
      </trkpt>
      <trkpt lat="44.59162" lon="6.22255">
        <ele>1317.2</ele>
        <time>2022-09-18T09:54:38Z</time>
      </trkpt>
      <trkpt lat="44.59162" lon="6.2226">
        <ele>1318</ele>
        <time>2022-09-18T09:54:40Z</time>
      </trkpt>
      <trkpt lat="44.59162" lon="6.22262">
        <ele>1318.4</ele>
        <time>2022-09-18T09:54:41Z</time>
      </trkpt>
      <trkpt lat="44.59162" lon="6.22265">
        <ele>1318.6</ele>
        <time>2022-09-18T09:54:42Z</time>
      </trkpt>
      <trkpt lat="44.59162" lon="6.22268">
        <ele>1319</ele>
        <time>2022-09-18T09:54:43Z</time>
      </trkpt>
      <trkpt lat="44.59163" lon="6.22271">
        <ele>1319.4</ele>
        <time>2022-09-18T09:54:44Z</time>
      </trkpt>
      <trkpt lat="44.59166" lon="6.2228">
        <ele>1320</ele>
        <time>2022-09-18T09:54:47Z</time>
      </trkpt>
      <trkpt lat="44.59167" lon="6.22283">
        <ele>1320.6</ele>
        <time>2022-09-18T09:54:48Z</time>
      </trkpt>
      <trkpt lat="44.59168" lon="6.22286">
        <ele>1321</ele>
        <time>2022-09-18T09:54:49Z</time>
      </trkpt>
      <trkpt lat="44.59169" lon="6.2229">
        <ele>1321.2</ele>
        <time>2022-09-18T09:54:50Z</time>
      </trkpt>
      <trkpt lat="44.59171" lon="6.22294">
        <ele>1321.4</ele>
        <time>2022-09-18T09:54:51Z</time>
      </trkpt>
      <trkpt lat="44.59172" lon="6.22298">
        <ele>1321.8</ele>
        <time>2022-09-18T09:54:52Z</time>
      </trkpt>
      <trkpt lat="44.59173" lon="6.22301">
        <ele>1322</ele>
        <time>2022-09-18T09:54:53Z</time>
      </trkpt>
      <trkpt lat="44.59173" lon="6.22304">
        <ele>1322.4</ele>
        <time>2022-09-18T09:54:54Z</time>
      </trkpt>
      <trkpt lat="44.59174" lon="6.22308">
        <ele>1322.4</ele>
        <time>2022-09-18T09:54:55Z</time>
      </trkpt>
      <trkpt lat="44.59174" lon="6.22312">
        <ele>1322.8</ele>
        <time>2022-09-18T09:54:56Z</time>
      </trkpt>
      <trkpt lat="44.59174" lon="6.22316">
        <ele>1323.2</ele>
        <time>2022-09-18T09:54:57Z</time>
      </trkpt>
      <trkpt lat="44.59174" lon="6.22319">
        <ele>1323.4</ele>
        <time>2022-09-18T09:54:58Z</time>
      </trkpt>
      <trkpt lat="44.59174" lon="6.22324">
        <ele>1323.8</ele>
        <time>2022-09-18T09:54:59Z</time>
      </trkpt>
      <trkpt lat="44.59175" lon="6.22328">
        <ele>1323.8</ele>
        <time>2022-09-18T09:55:00Z</time>
      </trkpt>
      <trkpt lat="44.59175" lon="6.22333">
        <ele>1324.2</ele>
        <time>2022-09-18T09:55:01Z</time>
      </trkpt>
      <trkpt lat="44.59176" lon="6.22338">
        <ele>1324</ele>
        <time>2022-09-18T09:55:02Z</time>
      </trkpt>
      <trkpt lat="44.59176" lon="6.22343">
        <ele>1324.2</ele>
        <time>2022-09-18T09:55:03Z</time>
      </trkpt>
      <trkpt lat="44.59176" lon="6.22348">
        <ele>1324.2</ele>
        <time>2022-09-18T09:55:04Z</time>
      </trkpt>
      <trkpt lat="44.59176" lon="6.22353">
        <ele>1324.2</ele>
        <time>2022-09-18T09:55:05Z</time>
      </trkpt>
      <trkpt lat="44.59176" lon="6.22358">
        <ele>1324.6</ele>
        <time>2022-09-18T09:55:06Z</time>
      </trkpt>
      <trkpt lat="44.59175" lon="6.22362">
        <ele>1324.6</ele>
        <time>2022-09-18T09:55:07Z</time>
      </trkpt>
      <trkpt lat="44.59174" lon="6.22367">
        <ele>1324.8</ele>
        <time>2022-09-18T09:55:08Z</time>
      </trkpt>
      <trkpt lat="44.59174" lon="6.22371">
        <ele>1324.8</ele>
        <time>2022-09-18T09:55:09Z</time>
      </trkpt>
      <trkpt lat="44.59173" lon="6.22375">
        <ele>1324.8</ele>
        <time>2022-09-18T09:55:10Z</time>
      </trkpt>
      <trkpt lat="44.59172" lon="6.22379">
        <ele>1324.8</ele>
        <time>2022-09-18T09:55:11Z</time>
      </trkpt>
      <trkpt lat="44.59171" lon="6.22382">
        <ele>1325</ele>
        <time>2022-09-18T09:55:12Z</time>
      </trkpt>
      <trkpt lat="44.5917" lon="6.22385">
        <ele>1325.2</ele>
        <time>2022-09-18T09:55:13Z</time>
      </trkpt>
      <trkpt lat="44.59168" lon="6.22388">
        <ele>1325.4</ele>
        <time>2022-09-18T09:55:14Z</time>
      </trkpt>
      <trkpt lat="44.59167" lon="6.22391">
        <ele>1325.6</ele>
        <time>2022-09-18T09:55:15Z</time>
      </trkpt>
      <trkpt lat="44.59165" lon="6.22393">
        <ele>1325.8</ele>
        <time>2022-09-18T09:55:16Z</time>
      </trkpt>
      <trkpt lat="44.59163" lon="6.22395">
        <ele>1325.4</ele>
        <time>2022-09-18T09:55:17Z</time>
      </trkpt>
      <trkpt lat="44.59161" lon="6.22397">
        <ele>1325.2</ele>
        <time>2022-09-18T09:55:18Z</time>
      </trkpt>
      <trkpt lat="44.59159" lon="6.22401">
        <ele>1325.4</ele>
        <time>2022-09-18T09:55:20Z</time>
      </trkpt>
      <trkpt lat="44.59159" lon="6.22407">
        <ele>1325.8</ele>
        <time>2022-09-18T09:55:22Z</time>
      </trkpt>
      <trkpt lat="44.59159" lon="6.22411">
        <ele>1326</ele>
        <time>2022-09-18T09:55:23Z</time>
      </trkpt>
      <trkpt lat="44.59159" lon="6.22414">
        <ele>1326</ele>
        <time>2022-09-18T09:55:24Z</time>
      </trkpt>
      <trkpt lat="44.59161" lon="6.22416">
        <ele>1326.4</ele>
        <time>2022-09-18T09:55:26Z</time>
      </trkpt>
      <trkpt lat="44.59166" lon="6.22415">
        <ele>1327.2</ele>
        <time>2022-09-18T09:55:29Z</time>
      </trkpt>
      <trkpt lat="44.59176" lon="6.22413">
        <ele>1328.2</ele>
        <time>2022-09-18T09:55:32Z</time>
      </trkpt>
      <trkpt lat="44.59186" lon="6.22407">
        <ele>1329.2</ele>
        <time>2022-09-18T09:55:36Z</time>
      </trkpt>
      <trkpt lat="44.59194" lon="6.22398">
        <ele>1329.2</ele>
        <time>2022-09-18T09:55:40Z</time>
      </trkpt>
      <trkpt lat="44.59197" lon="6.22392">
        <ele>1329.2</ele>
        <time>2022-09-18T09:55:42Z</time>
      </trkpt>
      <trkpt lat="44.59198" lon="6.22388">
        <ele>1329</ele>
        <time>2022-09-18T09:55:43Z</time>
      </trkpt>
      <trkpt lat="44.59204" lon="6.22378">
        <ele>1328.6</ele>
        <time>2022-09-18T09:55:47Z</time>
      </trkpt>
      <trkpt lat="44.59211" lon="6.22369">
        <ele>1328.4</ele>
        <time>2022-09-18T09:55:50Z</time>
      </trkpt>
      <trkpt lat="44.59213" lon="6.22365">
        <ele>1328.4</ele>
        <time>2022-09-18T09:55:51Z</time>
      </trkpt>
      <trkpt lat="44.59216" lon="6.22362">
        <ele>1328.2</ele>
        <time>2022-09-18T09:55:52Z</time>
      </trkpt>
      <trkpt lat="44.59218" lon="6.22359">
        <ele>1328</ele>
        <time>2022-09-18T09:55:53Z</time>
      </trkpt>
      <trkpt lat="44.59221" lon="6.22357">
        <ele>1328</ele>
        <time>2022-09-18T09:55:54Z</time>
      </trkpt>
      <trkpt lat="44.59223" lon="6.22354">
        <ele>1328</ele>
        <time>2022-09-18T09:55:55Z</time>
      </trkpt>
      <trkpt lat="44.59226" lon="6.22353">
        <ele>1328</ele>
        <time>2022-09-18T09:55:56Z</time>
      </trkpt>
      <trkpt lat="44.59228" lon="6.22353">
        <ele>1328.2</ele>
        <time>2022-09-18T09:55:57Z</time>
      </trkpt>
      <trkpt lat="44.5923" lon="6.22353">
        <ele>1328</ele>
        <time>2022-09-18T09:55:58Z</time>
      </trkpt>
      <trkpt lat="44.59232" lon="6.22354">
        <ele>1328.2</ele>
        <time>2022-09-18T09:55:59Z</time>
      </trkpt>
      <trkpt lat="44.59235" lon="6.22356">
        <ele>1328.4</ele>
        <time>2022-09-18T09:56:00Z</time>
      </trkpt>
      <trkpt lat="44.59237" lon="6.22357">
        <ele>1328.6</ele>
        <time>2022-09-18T09:56:01Z</time>
      </trkpt>
      <trkpt lat="44.59238" lon="6.22359">
        <ele>1328.8</ele>
        <time>2022-09-18T09:56:02Z</time>
      </trkpt>
      <trkpt lat="44.5924" lon="6.22362">
        <ele>1329</ele>
        <time>2022-09-18T09:56:03Z</time>
      </trkpt>
      <trkpt lat="44.59241" lon="6.22365">
        <ele>1329</ele>
        <time>2022-09-18T09:56:04Z</time>
      </trkpt>
      <trkpt lat="44.59242" lon="6.22368">
        <ele>1329.2</ele>
        <time>2022-09-18T09:56:05Z</time>
      </trkpt>
      <trkpt lat="44.59242" lon="6.22372">
        <ele>1329.2</ele>
        <time>2022-09-18T09:56:06Z</time>
      </trkpt>
      <trkpt lat="44.59241" lon="6.22376">
        <ele>1329.2</ele>
        <time>2022-09-18T09:56:07Z</time>
      </trkpt>
      <trkpt lat="44.59241" lon="6.22379">
        <ele>1329.6</ele>
        <time>2022-09-18T09:56:08Z</time>
      </trkpt>
      <trkpt lat="44.5924" lon="6.22382">
        <ele>1329.8</ele>
        <time>2022-09-18T09:56:09Z</time>
      </trkpt>
      <trkpt lat="44.5924" lon="6.22385">
        <ele>1330</ele>
        <time>2022-09-18T09:56:10Z</time>
      </trkpt>
      <trkpt lat="44.59239" lon="6.22388">
        <ele>1330</ele>
        <time>2022-09-18T09:56:11Z</time>
      </trkpt>
      <trkpt lat="44.59238" lon="6.22391">
        <ele>1330</ele>
        <time>2022-09-18T09:56:12Z</time>
      </trkpt>
      <trkpt lat="44.59237" lon="6.22393">
        <ele>1330.2</ele>
        <time>2022-09-18T09:56:13Z</time>
      </trkpt>
      <trkpt lat="44.59236" lon="6.22396">
        <ele>1330.2</ele>
        <time>2022-09-18T09:56:14Z</time>
      </trkpt>
      <trkpt lat="44.59235" lon="6.22399">
        <ele>1330.2</ele>
        <time>2022-09-18T09:56:15Z</time>
      </trkpt>
      <trkpt lat="44.59234" lon="6.22402">
        <ele>1330.6</ele>
        <time>2022-09-18T09:56:16Z</time>
      </trkpt>
      <trkpt lat="44.59234" lon="6.22405">
        <ele>1331.2</ele>
        <time>2022-09-18T09:56:17Z</time>
      </trkpt>
      <trkpt lat="44.59232" lon="6.22418">
        <ele>1332.4</ele>
        <time>2022-09-18T09:56:21Z</time>
      </trkpt>
      <trkpt lat="44.59231" lon="6.22432">
        <ele>1333.8</ele>
        <time>2022-09-18T09:56:26Z</time>
      </trkpt>
      <trkpt lat="44.59231" lon="6.22435">
        <ele>1334</ele>
        <time>2022-09-18T09:56:27Z</time>
      </trkpt>
      <trkpt lat="44.5923" lon="6.22439">
        <ele>1334.6</ele>
        <time>2022-09-18T09:56:29Z</time>
      </trkpt>
      <trkpt lat="44.5923" lon="6.22442">
        <ele>1334.8</ele>
        <time>2022-09-18T09:56:30Z</time>
      </trkpt>
      <trkpt lat="44.59228" lon="6.22446">
        <ele>1335.4</ele>
        <time>2022-09-18T09:56:32Z</time>
      </trkpt>
      <trkpt lat="44.59226" lon="6.22462">
        <ele>1336.6</ele>
        <time>2022-09-18T09:56:38Z</time>
      </trkpt>
      <trkpt lat="44.59225" lon="6.22475">
        <ele>1337.4</ele>
        <time>2022-09-18T09:56:43Z</time>
      </trkpt>
      <trkpt lat="44.59226" lon="6.22491">
        <ele>1339.2</ele>
        <time>2022-09-18T09:56:50Z</time>
      </trkpt>
      <trkpt lat="44.59229" lon="6.22499">
        <ele>1339.6</ele>
        <time>2022-09-18T09:56:53Z</time>
      </trkpt>
      <trkpt lat="44.59231" lon="6.22502">
        <ele>1339.8</ele>
        <time>2022-09-18T09:56:55Z</time>
      </trkpt>
      <trkpt lat="44.59234" lon="6.22506">
        <ele>1340.2</ele>
        <time>2022-09-18T09:56:58Z</time>
      </trkpt>
      <trkpt lat="44.59245" lon="6.22509">
        <ele>1340.8</ele>
        <time>2022-09-18T09:57:03Z</time>
      </trkpt>
      <trkpt lat="44.59255" lon="6.22507">
        <ele>1341</ele>
        <time>2022-09-18T09:57:07Z</time>
      </trkpt>
      <trkpt lat="44.59265" lon="6.22506">
        <ele>1341.4</ele>
        <time>2022-09-18T09:57:12Z</time>
      </trkpt>
      <trkpt lat="44.59267" lon="6.22507">
        <ele>1341.4</ele>
        <time>2022-09-18T09:57:13Z</time>
      </trkpt>
      <trkpt lat="44.59269" lon="6.22506">
        <ele>1341.4</ele>
        <time>2022-09-18T09:57:14Z</time>
      </trkpt>
      <trkpt lat="44.59271" lon="6.22505">
        <ele>1341.4</ele>
        <time>2022-09-18T09:57:15Z</time>
      </trkpt>
      <trkpt lat="44.5928" lon="6.22502">
        <ele>1342.2</ele>
        <time>2022-09-18T09:57:22Z</time>
      </trkpt>
      <trkpt lat="44.59291" lon="6.22499">
        <ele>1342.6</ele>
        <time>2022-09-18T09:57:27Z</time>
      </trkpt>
      <trkpt lat="44.59301" lon="6.225">
        <ele>1343</ele>
        <time>2022-09-18T09:57:31Z</time>
      </trkpt>
      <trkpt lat="44.59309" lon="6.225">
        <ele>1343.8</ele>
        <time>2022-09-18T09:57:34Z</time>
      </trkpt>
      <trkpt lat="44.59312" lon="6.225">
        <ele>1344</ele>
        <time>2022-09-18T09:57:35Z</time>
      </trkpt>
      <trkpt lat="44.59314" lon="6.225">
        <ele>1344.6</ele>
        <time>2022-09-18T09:57:36Z</time>
      </trkpt>
      <trkpt lat="44.59316" lon="6.22499">
        <ele>1344.8</ele>
        <time>2022-09-18T09:57:37Z</time>
      </trkpt>
      <trkpt lat="44.59319" lon="6.22498">
        <ele>1345.2</ele>
        <time>2022-09-18T09:57:38Z</time>
      </trkpt>
      <trkpt lat="44.59321" lon="6.22498">
        <ele>1345.6</ele>
        <time>2022-09-18T09:57:39Z</time>
      </trkpt>
      <trkpt lat="44.59324" lon="6.22497">
        <ele>1346</ele>
        <time>2022-09-18T09:57:40Z</time>
      </trkpt>
      <trkpt lat="44.59326" lon="6.22496">
        <ele>1346.4</ele>
        <time>2022-09-18T09:57:41Z</time>
      </trkpt>
      <trkpt lat="44.59329" lon="6.22496">
        <ele>1346.8</ele>
        <time>2022-09-18T09:57:42Z</time>
      </trkpt>
      <trkpt lat="44.59331" lon="6.22495">
        <ele>1347</ele>
        <time>2022-09-18T09:57:43Z</time>
      </trkpt>
      <trkpt lat="44.59333" lon="6.22495">
        <ele>1347.4</ele>
        <time>2022-09-18T09:57:44Z</time>
      </trkpt>
      <trkpt lat="44.59335" lon="6.22494">
        <ele>1347.8</ele>
        <time>2022-09-18T09:57:45Z</time>
      </trkpt>
      <trkpt lat="44.59337" lon="6.22493">
        <ele>1348.2</ele>
        <time>2022-09-18T09:57:46Z</time>
      </trkpt>
      <trkpt lat="44.59339" lon="6.22492">
        <ele>1348.6</ele>
        <time>2022-09-18T09:57:47Z</time>
      </trkpt>
      <trkpt lat="44.59341" lon="6.22491">
        <ele>1349</ele>
        <time>2022-09-18T09:57:48Z</time>
      </trkpt>
      <trkpt lat="44.59344" lon="6.22488">
        <ele>1349.8</ele>
        <time>2022-09-18T09:57:50Z</time>
      </trkpt>
      <trkpt lat="44.59346" lon="6.22486">
        <ele>1350.2</ele>
        <time>2022-09-18T09:57:51Z</time>
      </trkpt>
      <trkpt lat="44.59348" lon="6.22485">
        <ele>1350.4</ele>
        <time>2022-09-18T09:57:52Z</time>
      </trkpt>
      <trkpt lat="44.59351" lon="6.22484">
        <ele>1351</ele>
        <time>2022-09-18T09:57:53Z</time>
      </trkpt>
      <trkpt lat="44.59353" lon="6.22483">
        <ele>1351.6</ele>
        <time>2022-09-18T09:57:54Z</time>
      </trkpt>
      <trkpt lat="44.59356" lon="6.22482">
        <ele>1352</ele>
        <time>2022-09-18T09:57:55Z</time>
      </trkpt>
      <trkpt lat="44.59359" lon="6.22481">
        <ele>1352.4</ele>
        <time>2022-09-18T09:57:56Z</time>
      </trkpt>
      <trkpt lat="44.59361" lon="6.22479">
        <ele>1352.6</ele>
        <time>2022-09-18T09:57:57Z</time>
      </trkpt>
      <trkpt lat="44.59363" lon="6.22478">
        <ele>1353</ele>
        <time>2022-09-18T09:57:58Z</time>
      </trkpt>
      <trkpt lat="44.59365" lon="6.22476">
        <ele>1353.4</ele>
        <time>2022-09-18T09:57:59Z</time>
      </trkpt>
      <trkpt lat="44.59367" lon="6.22474">
        <ele>1353.8</ele>
        <time>2022-09-18T09:58:00Z</time>
      </trkpt>
      <trkpt lat="44.59369" lon="6.22472">
        <ele>1354.2</ele>
        <time>2022-09-18T09:58:01Z</time>
      </trkpt>
      <trkpt lat="44.59371" lon="6.2247">
        <ele>1354.4</ele>
        <time>2022-09-18T09:58:02Z</time>
      </trkpt>
      <trkpt lat="44.59374" lon="6.22468">
        <ele>1355</ele>
        <time>2022-09-18T09:58:03Z</time>
      </trkpt>
      <trkpt lat="44.59376" lon="6.22467">
        <ele>1355.4</ele>
        <time>2022-09-18T09:58:04Z</time>
      </trkpt>
      <trkpt lat="44.59378" lon="6.22465">
        <ele>1355.6</ele>
        <time>2022-09-18T09:58:05Z</time>
      </trkpt>
      <trkpt lat="44.5938" lon="6.22463">
        <ele>1355.8</ele>
        <time>2022-09-18T09:58:06Z</time>
      </trkpt>
      <trkpt lat="44.59382" lon="6.22462">
        <ele>1356</ele>
        <time>2022-09-18T09:58:07Z</time>
      </trkpt>
      <trkpt lat="44.59385" lon="6.2246">
        <ele>1356.2</ele>
        <time>2022-09-18T09:58:08Z</time>
      </trkpt>
      <trkpt lat="44.59387" lon="6.22458">
        <ele>1356.4</ele>
        <time>2022-09-18T09:58:09Z</time>
      </trkpt>
      <trkpt lat="44.59389" lon="6.22456">
        <ele>1356.6</ele>
        <time>2022-09-18T09:58:10Z</time>
      </trkpt>
      <trkpt lat="44.59391" lon="6.22454">
        <ele>1356.8</ele>
        <time>2022-09-18T09:58:11Z</time>
      </trkpt>
      <trkpt lat="44.59393" lon="6.22452">
        <ele>1357.2</ele>
        <time>2022-09-18T09:58:12Z</time>
      </trkpt>
      <trkpt lat="44.59395" lon="6.2245">
        <ele>1357.8</ele>
        <time>2022-09-18T09:58:13Z</time>
      </trkpt>
      <trkpt lat="44.59397" lon="6.22448">
        <ele>1357.8</ele>
        <time>2022-09-18T09:58:14Z</time>
      </trkpt>
      <trkpt lat="44.59399" lon="6.22446">
        <ele>1358.2</ele>
        <time>2022-09-18T09:58:15Z</time>
      </trkpt>
      <trkpt lat="44.59401" lon="6.22444">
        <ele>1358.4</ele>
        <time>2022-09-18T09:58:16Z</time>
      </trkpt>
      <trkpt lat="44.59403" lon="6.22442">
        <ele>1358.8</ele>
        <time>2022-09-18T09:58:17Z</time>
      </trkpt>
      <trkpt lat="44.59405" lon="6.2244">
        <ele>1359.2</ele>
        <time>2022-09-18T09:58:18Z</time>
      </trkpt>
      <trkpt lat="44.59407" lon="6.22438">
        <ele>1359.6</ele>
        <time>2022-09-18T09:58:19Z</time>
      </trkpt>
      <trkpt lat="44.5941" lon="6.22436">
        <ele>1360</ele>
        <time>2022-09-18T09:58:20Z</time>
      </trkpt>
      <trkpt lat="44.59411" lon="6.22434">
        <ele>1360.4</ele>
        <time>2022-09-18T09:58:21Z</time>
      </trkpt>
      <trkpt lat="44.59413" lon="6.22432">
        <ele>1361</ele>
        <time>2022-09-18T09:58:22Z</time>
      </trkpt>
      <trkpt lat="44.59416" lon="6.2243">
        <ele>1361.6</ele>
        <time>2022-09-18T09:58:23Z</time>
      </trkpt>
      <trkpt lat="44.59418" lon="6.22428">
        <ele>1361.8</ele>
        <time>2022-09-18T09:58:24Z</time>
      </trkpt>
      <trkpt lat="44.59419" lon="6.22425">
        <ele>1362.2</ele>
        <time>2022-09-18T09:58:25Z</time>
      </trkpt>
      <trkpt lat="44.59421" lon="6.22422">
        <ele>1362.6</ele>
        <time>2022-09-18T09:58:26Z</time>
      </trkpt>
      <trkpt lat="44.59423" lon="6.22419">
        <ele>1362.8</ele>
        <time>2022-09-18T09:58:27Z</time>
      </trkpt>
      <trkpt lat="44.59424" lon="6.22415">
        <ele>1363.2</ele>
        <time>2022-09-18T09:58:28Z</time>
      </trkpt>
      <trkpt lat="44.59426" lon="6.22412">
        <ele>1363.4</ele>
        <time>2022-09-18T09:58:29Z</time>
      </trkpt>
      <trkpt lat="44.59427" lon="6.22409">
        <ele>1363.8</ele>
        <time>2022-09-18T09:58:30Z</time>
      </trkpt>
      <trkpt lat="44.59428" lon="6.22405">
        <ele>1364</ele>
        <time>2022-09-18T09:58:31Z</time>
      </trkpt>
      <trkpt lat="44.59429" lon="6.22402">
        <ele>1364.4</ele>
        <time>2022-09-18T09:58:32Z</time>
      </trkpt>
      <trkpt lat="44.5943" lon="6.22398">
        <ele>1364.8</ele>
        <time>2022-09-18T09:58:33Z</time>
      </trkpt>
      <trkpt lat="44.59431" lon="6.22395">
        <ele>1365</ele>
        <time>2022-09-18T09:58:34Z</time>
      </trkpt>
      <trkpt lat="44.59433" lon="6.22391">
        <ele>1365.4</ele>
        <time>2022-09-18T09:58:35Z</time>
      </trkpt>
      <trkpt lat="44.59434" lon="6.22388">
        <ele>1365.6</ele>
        <time>2022-09-18T09:58:36Z</time>
      </trkpt>
      <trkpt lat="44.59435" lon="6.22385">
        <ele>1366</ele>
        <time>2022-09-18T09:58:37Z</time>
      </trkpt>
      <trkpt lat="44.59435" lon="6.22382">
        <ele>1366</ele>
        <time>2022-09-18T09:58:38Z</time>
      </trkpt>
      <trkpt lat="44.59436" lon="6.22378">
        <ele>1366.4</ele>
        <time>2022-09-18T09:58:39Z</time>
      </trkpt>
      <trkpt lat="44.59436" lon="6.22375">
        <ele>1366.4</ele>
        <time>2022-09-18T09:58:40Z</time>
      </trkpt>
      <trkpt lat="44.59436" lon="6.22372">
        <ele>1366.8</ele>
        <time>2022-09-18T09:58:41Z</time>
      </trkpt>
      <trkpt lat="44.59436" lon="6.22368">
        <ele>1367</ele>
        <time>2022-09-18T09:58:42Z</time>
      </trkpt>
      <trkpt lat="44.59436" lon="6.22365">
        <ele>1367.4</ele>
        <time>2022-09-18T09:58:43Z</time>
      </trkpt>
      <trkpt lat="44.59436" lon="6.22361">
        <ele>1367.8</ele>
        <time>2022-09-18T09:58:44Z</time>
      </trkpt>
      <trkpt lat="44.59436" lon="6.22358">
        <ele>1368.2</ele>
        <time>2022-09-18T09:58:45Z</time>
      </trkpt>
      <trkpt lat="44.59436" lon="6.22354">
        <ele>1368.6</ele>
        <time>2022-09-18T09:58:46Z</time>
      </trkpt>
      <trkpt lat="44.59436" lon="6.22351">
        <ele>1368.8</ele>
        <time>2022-09-18T09:58:47Z</time>
      </trkpt>
      <trkpt lat="44.59437" lon="6.22348">
        <ele>1369.2</ele>
        <time>2022-09-18T09:58:48Z</time>
      </trkpt>
      <trkpt lat="44.59437" lon="6.22344">
        <ele>1369.4</ele>
        <time>2022-09-18T09:58:49Z</time>
      </trkpt>
      <trkpt lat="44.59438" lon="6.22342">
        <ele>1369.6</ele>
        <time>2022-09-18T09:58:50Z</time>
      </trkpt>
      <trkpt lat="44.59439" lon="6.2234">
        <ele>1369.8</ele>
        <time>2022-09-18T09:58:51Z</time>
      </trkpt>
      <trkpt lat="44.59441" lon="6.2234">
        <ele>1370</ele>
        <time>2022-09-18T09:58:52Z</time>
      </trkpt>
      <trkpt lat="44.59444" lon="6.2234">
        <ele>1370.4</ele>
        <time>2022-09-18T09:58:53Z</time>
      </trkpt>
      <trkpt lat="44.59446" lon="6.22344">
        <ele>1371.2</ele>
        <time>2022-09-18T09:58:55Z</time>
      </trkpt>
      <trkpt lat="44.59447" lon="6.22346">
        <ele>1371.4</ele>
        <time>2022-09-18T09:58:56Z</time>
      </trkpt>
      <trkpt lat="44.59447" lon="6.22349">
        <ele>1372</ele>
        <time>2022-09-18T09:58:57Z</time>
      </trkpt>
      <trkpt lat="44.59448" lon="6.22352">
        <ele>1372.2</ele>
        <time>2022-09-18T09:58:58Z</time>
      </trkpt>
      <trkpt lat="44.59448" lon="6.22356">
        <ele>1372.4</ele>
        <time>2022-09-18T09:58:59Z</time>
      </trkpt>
      <trkpt lat="44.59448" lon="6.22359">
        <ele>1372.4</ele>
        <time>2022-09-18T09:59:00Z</time>
      </trkpt>
      <trkpt lat="44.59448" lon="6.22362">
        <ele>1372.6</ele>
        <time>2022-09-18T09:59:01Z</time>
      </trkpt>
      <trkpt lat="44.59448" lon="6.22365">
        <ele>1372.6</ele>
        <time>2022-09-18T09:59:02Z</time>
      </trkpt>
      <trkpt lat="44.59448" lon="6.22368">
        <ele>1372.8</ele>
        <time>2022-09-18T09:59:03Z</time>
      </trkpt>
      <trkpt lat="44.59449" lon="6.22371">
        <ele>1373</ele>
        <time>2022-09-18T09:59:04Z</time>
      </trkpt>
      <trkpt lat="44.59449" lon="6.22374">
        <ele>1373.2</ele>
        <time>2022-09-18T09:59:05Z</time>
      </trkpt>
      <trkpt lat="44.59449" lon="6.22377">
        <ele>1373.4</ele>
        <time>2022-09-18T09:59:06Z</time>
      </trkpt>
      <trkpt lat="44.5945" lon="6.22381">
        <ele>1373.6</ele>
        <time>2022-09-18T09:59:08Z</time>
      </trkpt>
      <trkpt lat="44.5945" lon="6.22384">
        <ele>1373.8</ele>
        <time>2022-09-18T09:59:10Z</time>
      </trkpt>
      <trkpt lat="44.59451" lon="6.22387">
        <ele>1374.2</ele>
        <time>2022-09-18T09:59:12Z</time>
      </trkpt>
      <trkpt lat="44.59452" lon="6.2239">
        <ele>1374.6</ele>
        <time>2022-09-18T09:59:14Z</time>
      </trkpt>
      <trkpt lat="44.59454" lon="6.22394">
        <ele>1374.6</ele>
        <time>2022-09-18T09:59:16Z</time>
      </trkpt>
      <trkpt lat="44.59461" lon="6.22404">
        <ele>1375</ele>
        <time>2022-09-18T09:59:22Z</time>
      </trkpt>
      <trkpt lat="44.59468" lon="6.22413">
        <ele>1375.6</ele>
        <time>2022-09-18T09:59:27Z</time>
      </trkpt>
      <trkpt lat="44.59474" lon="6.22425">
        <ele>1376.2</ele>
        <time>2022-09-18T09:59:33Z</time>
      </trkpt>
      <trkpt lat="44.59475" lon="6.22437">
        <ele>1376.6</ele>
        <time>2022-09-18T09:59:37Z</time>
      </trkpt>
      <trkpt lat="44.59476" lon="6.22452">
        <ele>1376.8</ele>
        <time>2022-09-18T09:59:44Z</time>
      </trkpt>
      <trkpt lat="44.59477" lon="6.22467">
        <ele>1377.8</ele>
        <time>2022-09-18T09:59:50Z</time>
      </trkpt>
      <trkpt lat="44.59475" lon="6.2248">
        <ele>1378.8</ele>
        <time>2022-09-18T09:59:59Z</time>
      </trkpt>
      <trkpt lat="44.59478" lon="6.22493">
        <ele>1379.6</ele>
        <time>2022-09-18T10:00:09Z</time>
      </trkpt>
      <trkpt lat="44.59476" lon="6.22512">
        <ele>1379.6</ele>
        <time>2022-09-18T10:00:12Z</time>
      </trkpt>
      <trkpt lat="44.59477" lon="6.22526">
        <ele>1380</ele>
        <time>2022-09-18T10:00:16Z</time>
      </trkpt>
      <trkpt lat="44.5948" lon="6.22538">
        <ele>1380.8</ele>
        <time>2022-09-18T10:00:22Z</time>
      </trkpt>
      <trkpt lat="44.59482" lon="6.22554">
        <ele>1381</ele>
        <time>2022-09-18T10:00:27Z</time>
      </trkpt>
      <trkpt lat="44.59483" lon="6.22557">
        <ele>1381.2</ele>
        <time>2022-09-18T10:00:28Z</time>
      </trkpt>
      <trkpt lat="44.59483" lon="6.22559">
        <ele>1381.4</ele>
        <time>2022-09-18T10:00:29Z</time>
      </trkpt>
      <trkpt lat="44.59485" lon="6.22563">
        <ele>1381.4</ele>
        <time>2022-09-18T10:00:31Z</time>
      </trkpt>
      <trkpt lat="44.59489" lon="6.22573">
        <ele>1382</ele>
        <time>2022-09-18T10:00:35Z</time>
      </trkpt>
      <trkpt lat="44.59491" lon="6.22577">
        <ele>1382.2</ele>
        <time>2022-09-18T10:00:36Z</time>
      </trkpt>
      <trkpt lat="44.59492" lon="6.22581">
        <ele>1382.4</ele>
        <time>2022-09-18T10:00:37Z</time>
      </trkpt>
      <trkpt lat="44.59495" lon="6.22585">
        <ele>1382.6</ele>
        <time>2022-09-18T10:00:38Z</time>
      </trkpt>
      <trkpt lat="44.59496" lon="6.22589">
        <ele>1382.6</ele>
        <time>2022-09-18T10:00:39Z</time>
      </trkpt>
      <trkpt lat="44.59497" lon="6.22592">
        <ele>1382.8</ele>
        <time>2022-09-18T10:00:40Z</time>
      </trkpt>
      <trkpt lat="44.59498" lon="6.22594">
        <ele>1383</ele>
        <time>2022-09-18T10:00:41Z</time>
      </trkpt>
      <trkpt lat="44.59498" lon="6.22598">
        <ele>1383.2</ele>
        <time>2022-09-18T10:00:43Z</time>
      </trkpt>
      <trkpt lat="44.59499" lon="6.22601">
        <ele>1383.2</ele>
        <time>2022-09-18T10:00:44Z</time>
      </trkpt>
      <trkpt lat="44.595" lon="6.22604">
        <ele>1383.6</ele>
        <time>2022-09-18T10:00:45Z</time>
      </trkpt>
      <trkpt lat="44.595" lon="6.22607">
        <ele>1383.8</ele>
        <time>2022-09-18T10:00:46Z</time>
      </trkpt>
      <trkpt lat="44.59499" lon="6.22612">
        <ele>1384.4</ele>
        <time>2022-09-18T10:00:48Z</time>
      </trkpt>
      <trkpt lat="44.59499" lon="6.22616">
        <ele>1385.2</ele>
        <time>2022-09-18T10:00:50Z</time>
      </trkpt>
      <trkpt lat="44.59498" lon="6.2262">
        <ele>1385.8</ele>
        <time>2022-09-18T10:00:52Z</time>
      </trkpt>
      <trkpt lat="44.59497" lon="6.22623">
        <ele>1386.4</ele>
        <time>2022-09-18T10:00:54Z</time>
      </trkpt>
      <trkpt lat="44.59496" lon="6.22628">
        <ele>1386.4</ele>
        <time>2022-09-18T10:00:56Z</time>
      </trkpt>
      <trkpt lat="44.59495" lon="6.22632">
        <ele>1387</ele>
        <time>2022-09-18T10:00:58Z</time>
      </trkpt>
      <trkpt lat="44.59494" lon="6.22636">
        <ele>1387.6</ele>
        <time>2022-09-18T10:01:00Z</time>
      </trkpt>
      <trkpt lat="44.59493" lon="6.2264">
        <ele>1388</ele>
        <time>2022-09-18T10:01:02Z</time>
      </trkpt>
      <trkpt lat="44.59492" lon="6.22645">
        <ele>1388.8</ele>
        <time>2022-09-18T10:01:04Z</time>
      </trkpt>
      <trkpt lat="44.59491" lon="6.22648">
        <ele>1388.6</ele>
        <time>2022-09-18T10:01:06Z</time>
      </trkpt>
      <trkpt lat="44.5949" lon="6.22652">
        <ele>1389.2</ele>
        <time>2022-09-18T10:01:08Z</time>
      </trkpt>
      <trkpt lat="44.59488" lon="6.22655">
        <ele>1389.2</ele>
        <time>2022-09-18T10:01:10Z</time>
      </trkpt>
      <trkpt lat="44.59487" lon="6.22659">
        <ele>1389.8</ele>
        <time>2022-09-18T10:01:12Z</time>
      </trkpt>
      <trkpt lat="44.59486" lon="6.22663">
        <ele>1390.4</ele>
        <time>2022-09-18T10:01:14Z</time>
      </trkpt>
      <trkpt lat="44.59485" lon="6.22667">
        <ele>1390.4</ele>
        <time>2022-09-18T10:01:16Z</time>
      </trkpt>
      <trkpt lat="44.59484" lon="6.2267">
        <ele>1390.6</ele>
        <time>2022-09-18T10:01:18Z</time>
      </trkpt>
      <trkpt lat="44.59482" lon="6.22674">
        <ele>1390.6</ele>
        <time>2022-09-18T10:01:20Z</time>
      </trkpt>
      <trkpt lat="44.5948" lon="6.22677">
        <ele>1391.2</ele>
        <time>2022-09-18T10:01:22Z</time>
      </trkpt>
      <trkpt lat="44.59479" lon="6.2268">
        <ele>1391.2</ele>
        <time>2022-09-18T10:01:24Z</time>
      </trkpt>
      <trkpt lat="44.59477" lon="6.22683">
        <ele>1391.4</ele>
        <time>2022-09-18T10:01:26Z</time>
      </trkpt>
      <trkpt lat="44.59476" lon="6.22686">
        <ele>1391.8</ele>
        <time>2022-09-18T10:01:28Z</time>
      </trkpt>
      <trkpt lat="44.59475" lon="6.22689">
        <ele>1392.2</ele>
        <time>2022-09-18T10:01:30Z</time>
      </trkpt>
      <trkpt lat="44.59473" lon="6.22693">
        <ele>1392.6</ele>
        <time>2022-09-18T10:01:32Z</time>
      </trkpt>
      <trkpt lat="44.59471" lon="6.22696">
        <ele>1393.2</ele>
        <time>2022-09-18T10:01:34Z</time>
      </trkpt>
      <trkpt lat="44.59469" lon="6.22698">
        <ele>1393.6</ele>
        <time>2022-09-18T10:01:36Z</time>
      </trkpt>
      <trkpt lat="44.59468" lon="6.22702">
        <ele>1393.8</ele>
        <time>2022-09-18T10:01:38Z</time>
      </trkpt>
      <trkpt lat="44.59466" lon="6.22704">
        <ele>1394.2</ele>
        <time>2022-09-18T10:01:40Z</time>
      </trkpt>
      <trkpt lat="44.59464" lon="6.22707">
        <ele>1394.2</ele>
        <time>2022-09-18T10:01:42Z</time>
      </trkpt>
      <trkpt lat="44.59462" lon="6.2271">
        <ele>1394.8</ele>
        <time>2022-09-18T10:01:44Z</time>
      </trkpt>
      <trkpt lat="44.5946" lon="6.22713">
        <ele>1395</ele>
        <time>2022-09-18T10:01:46Z</time>
      </trkpt>
      <trkpt lat="44.59458" lon="6.22716">
        <ele>1395.2</ele>
        <time>2022-09-18T10:01:48Z</time>
      </trkpt>
      <trkpt lat="44.59457" lon="6.2272">
        <ele>1395.4</ele>
        <time>2022-09-18T10:01:50Z</time>
      </trkpt>
      <trkpt lat="44.59456" lon="6.22724">
        <ele>1395.6</ele>
        <time>2022-09-18T10:01:52Z</time>
      </trkpt>
      <trkpt lat="44.59454" lon="6.22728">
        <ele>1395.8</ele>
        <time>2022-09-18T10:01:54Z</time>
      </trkpt>
      <trkpt lat="44.59453" lon="6.22732">
        <ele>1396.2</ele>
        <time>2022-09-18T10:01:56Z</time>
      </trkpt>
      <trkpt lat="44.59452" lon="6.22736">
        <ele>1396.8</ele>
        <time>2022-09-18T10:01:58Z</time>
      </trkpt>
      <trkpt lat="44.59451" lon="6.2274">
        <ele>1397</ele>
        <time>2022-09-18T10:02:00Z</time>
      </trkpt>
      <trkpt lat="44.59452" lon="6.22745">
        <ele>1397.4</ele>
        <time>2022-09-18T10:02:02Z</time>
      </trkpt>
      <trkpt lat="44.59454" lon="6.22749">
        <ele>1397.4</ele>
        <time>2022-09-18T10:02:04Z</time>
      </trkpt>
      <trkpt lat="44.59456" lon="6.22753">
        <ele>1397.6</ele>
        <time>2022-09-18T10:02:06Z</time>
      </trkpt>
      <trkpt lat="44.59458" lon="6.22756">
        <ele>1397.8</ele>
        <time>2022-09-18T10:02:08Z</time>
      </trkpt>
      <trkpt lat="44.5946" lon="6.22758">
        <ele>1398.2</ele>
        <time>2022-09-18T10:02:10Z</time>
      </trkpt>
      <trkpt lat="44.59462" lon="6.2276">
        <ele>1398.6</ele>
        <time>2022-09-18T10:02:12Z</time>
      </trkpt>
      <trkpt lat="44.59464" lon="6.22762">
        <ele>1399</ele>
        <time>2022-09-18T10:02:15Z</time>
      </trkpt>
      <trkpt lat="44.59472" lon="6.22771">
        <ele>1400.4</ele>
        <time>2022-09-18T10:02:23Z</time>
      </trkpt>
      <trkpt lat="44.59479" lon="6.22782">
        <ele>1401.6</ele>
        <time>2022-09-18T10:02:31Z</time>
      </trkpt>
      <trkpt lat="44.59486" lon="6.22794">
        <ele>1402.6</ele>
        <time>2022-09-18T10:02:36Z</time>
      </trkpt>
      <trkpt lat="44.59493" lon="6.22804">
        <ele>1402.8</ele>
        <time>2022-09-18T10:02:41Z</time>
      </trkpt>
      <trkpt lat="44.59501" lon="6.22815">
        <ele>1403.2</ele>
        <time>2022-09-18T10:02:45Z</time>
      </trkpt>
      <trkpt lat="44.59507" lon="6.22828">
        <ele>1403.6</ele>
        <time>2022-09-18T10:02:50Z</time>
      </trkpt>
      <trkpt lat="44.59508" lon="6.2283">
        <ele>1403.8</ele>
        <time>2022-09-18T10:02:51Z</time>
      </trkpt>
      <trkpt lat="44.5951" lon="6.22833">
        <ele>1403.8</ele>
        <time>2022-09-18T10:02:52Z</time>
      </trkpt>
      <trkpt lat="44.59516" lon="6.22842">
        <ele>1404</ele>
        <time>2022-09-18T10:02:58Z</time>
      </trkpt>
      <trkpt lat="44.59521" lon="6.22853">
        <ele>1405</ele>
        <time>2022-09-18T10:03:04Z</time>
      </trkpt>
      <trkpt lat="44.5953" lon="6.22865">
        <ele>1405.6</ele>
        <time>2022-09-18T10:03:09Z</time>
      </trkpt>
      <trkpt lat="44.59537" lon="6.22873">
        <ele>1405.8</ele>
        <time>2022-09-18T10:03:12Z</time>
      </trkpt>
      <trkpt lat="44.59543" lon="6.22884">
        <ele>1406.2</ele>
        <time>2022-09-18T10:03:16Z</time>
      </trkpt>
      <trkpt lat="44.59545" lon="6.22887">
        <ele>1406.6</ele>
        <time>2022-09-18T10:03:17Z</time>
      </trkpt>
      <trkpt lat="44.59548" lon="6.22892">
        <ele>1406.8</ele>
        <time>2022-09-18T10:03:19Z</time>
      </trkpt>
      <trkpt lat="44.59549" lon="6.22894">
        <ele>1406.8</ele>
        <time>2022-09-18T10:03:20Z</time>
      </trkpt>
      <trkpt lat="44.59554" lon="6.22902">
        <ele>1407.4</ele>
        <time>2022-09-18T10:03:23Z</time>
      </trkpt>
      <trkpt lat="44.59555" lon="6.22904">
        <ele>1407.6</ele>
        <time>2022-09-18T10:03:24Z</time>
      </trkpt>
      <trkpt lat="44.59557" lon="6.22906">
        <ele>1407.8</ele>
        <time>2022-09-18T10:03:25Z</time>
      </trkpt>
      <trkpt lat="44.59559" lon="6.22908">
        <ele>1407.8</ele>
        <time>2022-09-18T10:03:26Z</time>
      </trkpt>
      <trkpt lat="44.59561" lon="6.22909">
        <ele>1408</ele>
        <time>2022-09-18T10:03:27Z</time>
      </trkpt>
      <trkpt lat="44.59563" lon="6.2291">
        <ele>1408.2</ele>
        <time>2022-09-18T10:03:28Z</time>
      </trkpt>
      <trkpt lat="44.59565" lon="6.22911">
        <ele>1408.6</ele>
        <time>2022-09-18T10:03:29Z</time>
      </trkpt>
      <trkpt lat="44.59566" lon="6.22913">
        <ele>1408.8</ele>
        <time>2022-09-18T10:03:30Z</time>
      </trkpt>
      <trkpt lat="44.59568" lon="6.22914">
        <ele>1409</ele>
        <time>2022-09-18T10:03:31Z</time>
      </trkpt>
      <trkpt lat="44.59571" lon="6.22915">
        <ele>1409.4</ele>
        <time>2022-09-18T10:03:33Z</time>
      </trkpt>
      <trkpt lat="44.59575" lon="6.22917">
        <ele>1410</ele>
        <time>2022-09-18T10:03:35Z</time>
      </trkpt>
      <trkpt lat="44.59584" lon="6.2292">
        <ele>1412.2</ele>
        <time>2022-09-18T10:03:42Z</time>
      </trkpt>
      <trkpt lat="44.59593" lon="6.22927">
        <ele>1413.4</ele>
        <time>2022-09-18T10:03:47Z</time>
      </trkpt>
      <trkpt lat="44.59602" lon="6.22934">
        <ele>1415</ele>
        <time>2022-09-18T10:03:52Z</time>
      </trkpt>
      <trkpt lat="44.59604" lon="6.22935">
        <ele>1415.6</ele>
        <time>2022-09-18T10:03:53Z</time>
      </trkpt>
      <trkpt lat="44.59606" lon="6.22937">
        <ele>1415.8</ele>
        <time>2022-09-18T10:03:54Z</time>
      </trkpt>
      <trkpt lat="44.59608" lon="6.22938">
        <ele>1416.2</ele>
        <time>2022-09-18T10:03:55Z</time>
      </trkpt>
      <trkpt lat="44.59611" lon="6.22941">
        <ele>1417</ele>
        <time>2022-09-18T10:03:57Z</time>
      </trkpt>
      <trkpt lat="44.59613" lon="6.22943">
        <ele>1417.2</ele>
        <time>2022-09-18T10:03:58Z</time>
      </trkpt>
      <trkpt lat="44.59614" lon="6.22944">
        <ele>1417.8</ele>
        <time>2022-09-18T10:03:59Z</time>
      </trkpt>
      <trkpt lat="44.59616" lon="6.22946">
        <ele>1418.2</ele>
        <time>2022-09-18T10:04:00Z</time>
      </trkpt>
      <trkpt lat="44.59618" lon="6.22947">
        <ele>1418.4</ele>
        <time>2022-09-18T10:04:01Z</time>
      </trkpt>
      <trkpt lat="44.5962" lon="6.22948">
        <ele>1419</ele>
        <time>2022-09-18T10:04:02Z</time>
      </trkpt>
      <trkpt lat="44.59621" lon="6.22949">
        <ele>1419.4</ele>
        <time>2022-09-18T10:04:03Z</time>
      </trkpt>
      <trkpt lat="44.59623" lon="6.22951">
        <ele>1419.6</ele>
        <time>2022-09-18T10:04:04Z</time>
      </trkpt>
      <trkpt lat="44.59625" lon="6.22953">
        <ele>1420</ele>
        <time>2022-09-18T10:04:05Z</time>
      </trkpt>
      <trkpt lat="44.59626" lon="6.22955">
        <ele>1420.4</ele>
        <time>2022-09-18T10:04:06Z</time>
      </trkpt>
      <trkpt lat="44.59627" lon="6.22957">
        <ele>1421</ele>
        <time>2022-09-18T10:04:07Z</time>
      </trkpt>
      <trkpt lat="44.59629" lon="6.22959">
        <ele>1421.2</ele>
        <time>2022-09-18T10:04:08Z</time>
      </trkpt>
      <trkpt lat="44.5963" lon="6.22961">
        <ele>1421.8</ele>
        <time>2022-09-18T10:04:09Z</time>
      </trkpt>
      <trkpt lat="44.59632" lon="6.22963">
        <ele>1422.2</ele>
        <time>2022-09-18T10:04:10Z</time>
      </trkpt>
      <trkpt lat="44.59633" lon="6.22965">
        <ele>1422.6</ele>
        <time>2022-09-18T10:04:11Z</time>
      </trkpt>
      <trkpt lat="44.59635" lon="6.22967">
        <ele>1423</ele>
        <time>2022-09-18T10:04:12Z</time>
      </trkpt>
      <trkpt lat="44.59636" lon="6.22968">
        <ele>1423.2</ele>
        <time>2022-09-18T10:04:13Z</time>
      </trkpt>
      <trkpt lat="44.59639" lon="6.22971">
        <ele>1423.8</ele>
        <time>2022-09-18T10:04:15Z</time>
      </trkpt>
      <trkpt lat="44.5964" lon="6.22973">
        <ele>1424.2</ele>
        <time>2022-09-18T10:04:16Z</time>
      </trkpt>
      <trkpt lat="44.59643" lon="6.22977">
        <ele>1425</ele>
        <time>2022-09-18T10:04:18Z</time>
      </trkpt>
      <trkpt lat="44.59644" lon="6.22979">
        <ele>1425.2</ele>
        <time>2022-09-18T10:04:19Z</time>
      </trkpt>
      <trkpt lat="44.59646" lon="6.22983">
        <ele>1425.6</ele>
        <time>2022-09-18T10:04:21Z</time>
      </trkpt>
      <trkpt lat="44.59647" lon="6.22985">
        <ele>1426.2</ele>
        <time>2022-09-18T10:04:22Z</time>
      </trkpt>
      <trkpt lat="44.59649" lon="6.22989">
        <ele>1426.8</ele>
        <time>2022-09-18T10:04:24Z</time>
      </trkpt>
      <trkpt lat="44.59651" lon="6.22991">
        <ele>1427.6</ele>
        <time>2022-09-18T10:04:26Z</time>
      </trkpt>
      <trkpt lat="44.59652" lon="6.22994">
        <ele>1428.2</ele>
        <time>2022-09-18T10:04:28Z</time>
      </trkpt>
      <trkpt lat="44.59653" lon="6.22997">
        <ele>1429.2</ele>
        <time>2022-09-18T10:04:30Z</time>
      </trkpt>
      <trkpt lat="44.59653" lon="6.22999">
        <ele>1429.8</ele>
        <time>2022-09-18T10:04:32Z</time>
      </trkpt>
      <trkpt lat="44.59654" lon="6.23003">
        <ele>1431</ele>
        <time>2022-09-18T10:04:35Z</time>
      </trkpt>
      <trkpt lat="44.59654" lon="6.23006">
        <ele>1431.4</ele>
        <time>2022-09-18T10:04:37Z</time>
      </trkpt>
      <trkpt lat="44.59654" lon="6.23009">
        <ele>1432.8</ele>
        <time>2022-09-18T10:04:40Z</time>
      </trkpt>
      <trkpt lat="44.59656" lon="6.23013">
        <ele>1433.6</ele>
        <time>2022-09-18T10:04:42Z</time>
      </trkpt>
      <trkpt lat="44.59658" lon="6.23016">
        <ele>1434.2</ele>
        <time>2022-09-18T10:04:44Z</time>
      </trkpt>
      <trkpt lat="44.59664" lon="6.23027">
        <ele>1437.4</ele>
        <time>2022-09-18T10:04:54Z</time>
      </trkpt>
      <trkpt lat="44.59671" lon="6.23038">
        <ele>1439.6</ele>
        <time>2022-09-18T10:05:03Z</time>
      </trkpt>
      <trkpt lat="44.59677" lon="6.2305">
        <ele>1441</ele>
        <time>2022-09-18T10:05:09Z</time>
      </trkpt>
      <trkpt lat="44.59684" lon="6.23061">
        <ele>1442</ele>
        <time>2022-09-18T10:05:13Z</time>
      </trkpt>
      <trkpt lat="44.5969" lon="6.23075">
        <ele>1443.6</ele>
        <time>2022-09-18T10:05:18Z</time>
      </trkpt>
      <trkpt lat="44.59693" lon="6.23089">
        <ele>1444.4</ele>
        <time>2022-09-18T10:05:22Z</time>
      </trkpt>
      <trkpt lat="44.597" lon="6.23103">
        <ele>1445.2</ele>
        <time>2022-09-18T10:05:25Z</time>
      </trkpt>
      <trkpt lat="44.59706" lon="6.23113">
        <ele>1446.6</ele>
        <time>2022-09-18T10:05:30Z</time>
      </trkpt>
      <trkpt lat="44.59713" lon="6.23123">
        <ele>1449.8</ele>
        <time>2022-09-18T10:05:39Z</time>
      </trkpt>
      <trkpt lat="44.59722" lon="6.23126">
        <ele>1451.6</ele>
        <time>2022-09-18T10:05:45Z</time>
      </trkpt>
      <trkpt lat="44.59731" lon="6.23125">
        <ele>1452.6</ele>
        <time>2022-09-18T10:05:49Z</time>
      </trkpt>
      <trkpt lat="44.5974" lon="6.23124">
        <ele>1453.8</ele>
        <time>2022-09-18T10:05:54Z</time>
      </trkpt>
      <trkpt lat="44.59751" lon="6.23128">
        <ele>1455</ele>
        <time>2022-09-18T10:05:58Z</time>
      </trkpt>
      <trkpt lat="44.59762" lon="6.23124">
        <ele>1455.8</ele>
        <time>2022-09-18T10:06:02Z</time>
      </trkpt>
      <trkpt lat="44.59764" lon="6.23123">
        <ele>1456</ele>
        <time>2022-09-18T10:06:03Z</time>
      </trkpt>
      <trkpt lat="44.59766" lon="6.2312">
        <ele>1456.6</ele>
        <time>2022-09-18T10:06:05Z</time>
      </trkpt>
      <trkpt lat="44.59772" lon="6.23107">
        <ele>1457.4</ele>
        <time>2022-09-18T10:06:11Z</time>
      </trkpt>
      <trkpt lat="44.59775" lon="6.23099">
        <ele>1458.6</ele>
        <time>2022-09-18T10:06:15Z</time>
      </trkpt>
      <trkpt lat="44.59776" lon="6.23097">
        <ele>1458.8</ele>
        <time>2022-09-18T10:06:16Z</time>
      </trkpt>
      <trkpt lat="44.59778" lon="6.23093">
        <ele>1459.2</ele>
        <time>2022-09-18T10:06:18Z</time>
      </trkpt>
      <trkpt lat="44.5978" lon="6.23088">
        <ele>1459.8</ele>
        <time>2022-09-18T10:06:20Z</time>
      </trkpt>
      <trkpt lat="44.59781" lon="6.23086">
        <ele>1460.2</ele>
        <time>2022-09-18T10:06:21Z</time>
      </trkpt>
      <trkpt lat="44.59782" lon="6.23082">
        <ele>1460.8</ele>
        <time>2022-09-18T10:06:23Z</time>
      </trkpt>
      <trkpt lat="44.59783" lon="6.23075">
        <ele>1461.4</ele>
        <time>2022-09-18T10:06:26Z</time>
      </trkpt>
      <trkpt lat="44.59782" lon="6.23072">
        <ele>1461.6</ele>
        <time>2022-09-18T10:06:27Z</time>
      </trkpt>
      <trkpt lat="44.59782" lon="6.2307">
        <ele>1461.8</ele>
        <time>2022-09-18T10:06:28Z</time>
      </trkpt>
      <trkpt lat="44.59781" lon="6.23065">
        <ele>1462.2</ele>
        <time>2022-09-18T10:06:30Z</time>
      </trkpt>
      <trkpt lat="44.5978" lon="6.2306">
        <ele>1462.6</ele>
        <time>2022-09-18T10:06:32Z</time>
      </trkpt>
      <trkpt lat="44.59779" lon="6.23058">
        <ele>1463</ele>
        <time>2022-09-18T10:06:33Z</time>
      </trkpt>
      <trkpt lat="44.59779" lon="6.23055">
        <ele>1463.2</ele>
        <time>2022-09-18T10:06:34Z</time>
      </trkpt>
      <trkpt lat="44.59779" lon="6.23052">
        <ele>1463.6</ele>
        <time>2022-09-18T10:06:35Z</time>
      </trkpt>
      <trkpt lat="44.59779" lon="6.23047">
        <ele>1463.6</ele>
        <time>2022-09-18T10:06:37Z</time>
      </trkpt>
      <trkpt lat="44.59779" lon="6.23045">
        <ele>1464.2</ele>
        <time>2022-09-18T10:06:38Z</time>
      </trkpt>
      <trkpt lat="44.59779" lon="6.23042">
        <ele>1464.4</ele>
        <time>2022-09-18T10:06:39Z</time>
      </trkpt>
      <trkpt lat="44.5978" lon="6.2304">
        <ele>1464.6</ele>
        <time>2022-09-18T10:06:40Z</time>
      </trkpt>
      <trkpt lat="44.5978" lon="6.23035">
        <ele>1465.2</ele>
        <time>2022-09-18T10:06:42Z</time>
      </trkpt>
      <trkpt lat="44.59781" lon="6.2303">
        <ele>1465.4</ele>
        <time>2022-09-18T10:06:44Z</time>
      </trkpt>
      <trkpt lat="44.59781" lon="6.23025">
        <ele>1466</ele>
        <time>2022-09-18T10:06:46Z</time>
      </trkpt>
      <trkpt lat="44.59782" lon="6.23022">
        <ele>1466.2</ele>
        <time>2022-09-18T10:06:47Z</time>
      </trkpt>
      <trkpt lat="44.59782" lon="6.2302">
        <ele>1466.4</ele>
        <time>2022-09-18T10:06:48Z</time>
      </trkpt>
      <trkpt lat="44.59782" lon="6.23017">
        <ele>1466.6</ele>
        <time>2022-09-18T10:06:49Z</time>
      </trkpt>
      <trkpt lat="44.59783" lon="6.23014">
        <ele>1466.8</ele>
        <time>2022-09-18T10:06:50Z</time>
      </trkpt>
      <trkpt lat="44.59783" lon="6.23011">
        <ele>1466.8</ele>
        <time>2022-09-18T10:06:51Z</time>
      </trkpt>
      <trkpt lat="44.59784" lon="6.23009">
        <ele>1466.6</ele>
        <time>2022-09-18T10:06:52Z</time>
      </trkpt>
      <trkpt lat="44.59786" lon="6.23005">
        <ele>1467.4</ele>
        <time>2022-09-18T10:06:54Z</time>
      </trkpt>
      <trkpt lat="44.59786" lon="6.23002">
        <ele>1467.2</ele>
        <time>2022-09-18T10:06:55Z</time>
      </trkpt>
      <trkpt lat="44.59786" lon="6.23">
        <ele>1467.2</ele>
        <time>2022-09-18T10:06:56Z</time>
      </trkpt>
      <trkpt lat="44.59787" lon="6.22997">
        <ele>1467.2</ele>
        <time>2022-09-18T10:06:57Z</time>
      </trkpt>
      <trkpt lat="44.59787" lon="6.22994">
        <ele>1467</ele>
        <time>2022-09-18T10:06:58Z</time>
      </trkpt>
      <trkpt lat="44.59788" lon="6.22992">
        <ele>1467</ele>
        <time>2022-09-18T10:06:59Z</time>
      </trkpt>
      <trkpt lat="44.59788" lon="6.22989">
        <ele>1466.8</ele>
        <time>2022-09-18T10:07:00Z</time>
      </trkpt>
      <trkpt lat="44.59788" lon="6.22987">
        <ele>1467.2</ele>
        <time>2022-09-18T10:07:01Z</time>
      </trkpt>
      <trkpt lat="44.59788" lon="6.22984">
        <ele>1467.4</ele>
        <time>2022-09-18T10:07:02Z</time>
      </trkpt>
      <trkpt lat="44.59788" lon="6.22981">
        <ele>1467.8</ele>
        <time>2022-09-18T10:07:03Z</time>
      </trkpt>
      <trkpt lat="44.59788" lon="6.22978">
        <ele>1468</ele>
        <time>2022-09-18T10:07:04Z</time>
      </trkpt>
      <trkpt lat="44.59788" lon="6.22976">
        <ele>1467.8</ele>
        <time>2022-09-18T10:07:05Z</time>
      </trkpt>
      <trkpt lat="44.59788" lon="6.22973">
        <ele>1467.8</ele>
        <time>2022-09-18T10:07:06Z</time>
      </trkpt>
      <trkpt lat="44.59787" lon="6.2297">
        <ele>1467.8</ele>
        <time>2022-09-18T10:07:07Z</time>
      </trkpt>
      <trkpt lat="44.59787" lon="6.22967">
        <ele>1468</ele>
        <time>2022-09-18T10:07:08Z</time>
      </trkpt>
      <trkpt lat="44.59787" lon="6.22964">
        <ele>1468.2</ele>
        <time>2022-09-18T10:07:09Z</time>
      </trkpt>
      <trkpt lat="44.59786" lon="6.22962">
        <ele>1468.2</ele>
        <time>2022-09-18T10:07:10Z</time>
      </trkpt>
      <trkpt lat="44.59786" lon="6.22957">
        <ele>1468.2</ele>
        <time>2022-09-18T10:07:12Z</time>
      </trkpt>
      <trkpt lat="44.59786" lon="6.22954">
        <ele>1468.4</ele>
        <time>2022-09-18T10:07:13Z</time>
      </trkpt>
      <trkpt lat="44.59785" lon="6.22952">
        <ele>1468.6</ele>
        <time>2022-09-18T10:07:14Z</time>
      </trkpt>
      <trkpt lat="44.59784" lon="6.22949">
        <ele>1469</ele>
        <time>2022-09-18T10:07:15Z</time>
      </trkpt>
      <trkpt lat="44.59783" lon="6.22944">
        <ele>1469.2</ele>
        <time>2022-09-18T10:07:17Z</time>
      </trkpt>
      <trkpt lat="44.59783" lon="6.22942">
        <ele>1469.2</ele>
        <time>2022-09-18T10:07:18Z</time>
      </trkpt>
      <trkpt lat="44.59782" lon="6.22937">
        <ele>1469.6</ele>
        <time>2022-09-18T10:07:20Z</time>
      </trkpt>
      <trkpt lat="44.59781" lon="6.22934">
        <ele>1469.8</ele>
        <time>2022-09-18T10:07:21Z</time>
      </trkpt>
      <trkpt lat="44.59781" lon="6.22932">
        <ele>1470.2</ele>
        <time>2022-09-18T10:07:22Z</time>
      </trkpt>
      <trkpt lat="44.5978" lon="6.22929">
        <ele>1470.4</ele>
        <time>2022-09-18T10:07:23Z</time>
      </trkpt>
      <trkpt lat="44.59779" lon="6.22927">
        <ele>1470.4</ele>
        <time>2022-09-18T10:07:24Z</time>
      </trkpt>
      <trkpt lat="44.59778" lon="6.22922">
        <ele>1470.4</ele>
        <time>2022-09-18T10:07:26Z</time>
      </trkpt>
      <trkpt lat="44.59777" lon="6.2292">
        <ele>1470.4</ele>
        <time>2022-09-18T10:07:27Z</time>
      </trkpt>
      <trkpt lat="44.59776" lon="6.22917">
        <ele>1470.6</ele>
        <time>2022-09-18T10:07:28Z</time>
      </trkpt>
      <trkpt lat="44.59776" lon="6.22914">
        <ele>1470.6</ele>
        <time>2022-09-18T10:07:29Z</time>
      </trkpt>
      <trkpt lat="44.59775" lon="6.22912">
        <ele>1470.6</ele>
        <time>2022-09-18T10:07:30Z</time>
      </trkpt>
      <trkpt lat="44.59775" lon="6.22909">
        <ele>1470.6</ele>
        <time>2022-09-18T10:07:31Z</time>
      </trkpt>
      <trkpt lat="44.59774" lon="6.22906">
        <ele>1470.8</ele>
        <time>2022-09-18T10:07:32Z</time>
      </trkpt>
      <trkpt lat="44.59772" lon="6.22903">
        <ele>1471.6</ele>
        <time>2022-09-18T10:07:34Z</time>
      </trkpt>
      <trkpt lat="44.59771" lon="6.229">
        <ele>1471.8</ele>
        <time>2022-09-18T10:07:36Z</time>
      </trkpt>
      <trkpt lat="44.59771" lon="6.22896">
        <ele>1472.6</ele>
        <time>2022-09-18T10:07:38Z</time>
      </trkpt>
      <trkpt lat="44.5977" lon="6.22892">
        <ele>1472.4</ele>
        <time>2022-09-18T10:07:40Z</time>
      </trkpt>
      <trkpt lat="44.59768" lon="6.22888">
        <ele>1472.6</ele>
        <time>2022-09-18T10:07:42Z</time>
      </trkpt>
      <trkpt lat="44.59768" lon="6.22885">
        <ele>1472.6</ele>
        <time>2022-09-18T10:07:43Z</time>
      </trkpt>
      <trkpt lat="44.59767" lon="6.2288">
        <ele>1473.2</ele>
        <time>2022-09-18T10:07:45Z</time>
      </trkpt>
      <trkpt lat="44.59766" lon="6.22875">
        <ele>1473.4</ele>
        <time>2022-09-18T10:07:47Z</time>
      </trkpt>
      <trkpt lat="44.59765" lon="6.22873">
        <ele>1473.6</ele>
        <time>2022-09-18T10:07:48Z</time>
      </trkpt>
      <trkpt lat="44.59765" lon="6.2287">
        <ele>1473.8</ele>
        <time>2022-09-18T10:07:49Z</time>
      </trkpt>
      <trkpt lat="44.59764" lon="6.22867">
        <ele>1473.8</ele>
        <time>2022-09-18T10:07:50Z</time>
      </trkpt>
      <trkpt lat="44.59764" lon="6.22865">
        <ele>1473.8</ele>
        <time>2022-09-18T10:07:51Z</time>
      </trkpt>
      <trkpt lat="44.59764" lon="6.22862">
        <ele>1474</ele>
        <time>2022-09-18T10:07:52Z</time>
      </trkpt>
      <trkpt lat="44.59764" lon="6.22859">
        <ele>1474.2</ele>
        <time>2022-09-18T10:07:53Z</time>
      </trkpt>
      <trkpt lat="44.59765" lon="6.22854">
        <ele>1474.4</ele>
        <time>2022-09-18T10:07:55Z</time>
      </trkpt>
      <trkpt lat="44.59765" lon="6.22851">
        <ele>1474.8</ele>
        <time>2022-09-18T10:07:56Z</time>
      </trkpt>
      <trkpt lat="44.59765" lon="6.22848">
        <ele>1475</ele>
        <time>2022-09-18T10:07:57Z</time>
      </trkpt>
      <trkpt lat="44.59766" lon="6.22846">
        <ele>1475.4</ele>
        <time>2022-09-18T10:07:58Z</time>
      </trkpt>
      <trkpt lat="44.59766" lon="6.22843">
        <ele>1475.8</ele>
        <time>2022-09-18T10:07:59Z</time>
      </trkpt>
      <trkpt lat="44.59766" lon="6.2284">
        <ele>1476</ele>
        <time>2022-09-18T10:08:00Z</time>
      </trkpt>
      <trkpt lat="44.59767" lon="6.22837">
        <ele>1476.2</ele>
        <time>2022-09-18T10:08:01Z</time>
      </trkpt>
      <trkpt lat="44.59767" lon="6.22834">
        <ele>1476.6</ele>
        <time>2022-09-18T10:08:02Z</time>
      </trkpt>
      <trkpt lat="44.59767" lon="6.22831">
        <ele>1476.6</ele>
        <time>2022-09-18T10:08:03Z</time>
      </trkpt>
      <trkpt lat="44.59767" lon="6.22828">
        <ele>1476.8</ele>
        <time>2022-09-18T10:08:04Z</time>
      </trkpt>
      <trkpt lat="44.59768" lon="6.22825">
        <ele>1477</ele>
        <time>2022-09-18T10:08:05Z</time>
      </trkpt>
      <trkpt lat="44.59768" lon="6.22823">
        <ele>1477</ele>
        <time>2022-09-18T10:08:06Z</time>
      </trkpt>
      <trkpt lat="44.59768" lon="6.2282">
        <ele>1477.4</ele>
        <time>2022-09-18T10:08:07Z</time>
      </trkpt>
      <trkpt lat="44.59769" lon="6.22818">
        <ele>1477.4</ele>
        <time>2022-09-18T10:08:08Z</time>
      </trkpt>
      <trkpt lat="44.5977" lon="6.22815">
        <ele>1477.6</ele>
        <time>2022-09-18T10:08:09Z</time>
      </trkpt>
      <trkpt lat="44.5977" lon="6.22813">
        <ele>1477.6</ele>
        <time>2022-09-18T10:08:10Z</time>
      </trkpt>
      <trkpt lat="44.5977" lon="6.2281">
        <ele>1477.8</ele>
        <time>2022-09-18T10:08:11Z</time>
      </trkpt>
      <trkpt lat="44.59771" lon="6.22808">
        <ele>1477.8</ele>
        <time>2022-09-18T10:08:12Z</time>
      </trkpt>
      <trkpt lat="44.59771" lon="6.22805">
        <ele>1478</ele>
        <time>2022-09-18T10:08:13Z</time>
      </trkpt>
      <trkpt lat="44.59771" lon="6.22802">
        <ele>1478</ele>
        <time>2022-09-18T10:08:14Z</time>
      </trkpt>
      <trkpt lat="44.59772" lon="6.228">
        <ele>1478</ele>
        <time>2022-09-18T10:08:15Z</time>
      </trkpt>
      <trkpt lat="44.59772" lon="6.22797">
        <ele>1478.4</ele>
        <time>2022-09-18T10:08:16Z</time>
      </trkpt>
      <trkpt lat="44.59773" lon="6.22795">
        <ele>1478.6</ele>
        <time>2022-09-18T10:08:17Z</time>
      </trkpt>
      <trkpt lat="44.59773" lon="6.22792">
        <ele>1478.6</ele>
        <time>2022-09-18T10:08:18Z</time>
      </trkpt>
      <trkpt lat="44.59774" lon="6.2279">
        <ele>1478.6</ele>
        <time>2022-09-18T10:08:19Z</time>
      </trkpt>
      <trkpt lat="44.59774" lon="6.22787">
        <ele>1478.8</ele>
        <time>2022-09-18T10:08:20Z</time>
      </trkpt>
      <trkpt lat="44.59774" lon="6.22784">
        <ele>1479.2</ele>
        <time>2022-09-18T10:08:21Z</time>
      </trkpt>
      <trkpt lat="44.59774" lon="6.22782">
        <ele>1479.2</ele>
        <time>2022-09-18T10:08:22Z</time>
      </trkpt>
      <trkpt lat="44.59774" lon="6.22777">
        <ele>1479.4</ele>
        <time>2022-09-18T10:08:24Z</time>
      </trkpt>
      <trkpt lat="44.59774" lon="6.22774">
        <ele>1479.4</ele>
        <time>2022-09-18T10:08:25Z</time>
      </trkpt>
      <trkpt lat="44.59774" lon="6.22771">
        <ele>1479.6</ele>
        <time>2022-09-18T10:08:26Z</time>
      </trkpt>
      <trkpt lat="44.59774" lon="6.22769">
        <ele>1479.8</ele>
        <time>2022-09-18T10:08:27Z</time>
      </trkpt>
      <trkpt lat="44.59774" lon="6.22766">
        <ele>1479.8</ele>
        <time>2022-09-18T10:08:28Z</time>
      </trkpt>
      <trkpt lat="44.59775" lon="6.22763">
        <ele>1480</ele>
        <time>2022-09-18T10:08:29Z</time>
      </trkpt>
      <trkpt lat="44.59775" lon="6.22761">
        <ele>1480.4</ele>
        <time>2022-09-18T10:08:30Z</time>
      </trkpt>
      <trkpt lat="44.59776" lon="6.22755">
        <ele>1480.6</ele>
        <time>2022-09-18T10:08:32Z</time>
      </trkpt>
      <trkpt lat="44.59776" lon="6.22753">
        <ele>1480.8</ele>
        <time>2022-09-18T10:08:33Z</time>
      </trkpt>
      <trkpt lat="44.59776" lon="6.2275">
        <ele>1481.2</ele>
        <time>2022-09-18T10:08:34Z</time>
      </trkpt>
      <trkpt lat="44.59776" lon="6.22747">
        <ele>1481.2</ele>
        <time>2022-09-18T10:08:35Z</time>
      </trkpt>
      <trkpt lat="44.59776" lon="6.22744">
        <ele>1481.4</ele>
        <time>2022-09-18T10:08:36Z</time>
      </trkpt>
      <trkpt lat="44.59775" lon="6.22741">
        <ele>1481.8</ele>
        <time>2022-09-18T10:08:37Z</time>
      </trkpt>
      <trkpt lat="44.59775" lon="6.22739">
        <ele>1482</ele>
        <time>2022-09-18T10:08:38Z</time>
      </trkpt>
      <trkpt lat="44.59775" lon="6.22736">
        <ele>1482.2</ele>
        <time>2022-09-18T10:08:39Z</time>
      </trkpt>
      <trkpt lat="44.59775" lon="6.22733">
        <ele>1482.4</ele>
        <time>2022-09-18T10:08:40Z</time>
      </trkpt>
      <trkpt lat="44.59775" lon="6.22731">
        <ele>1482.6</ele>
        <time>2022-09-18T10:08:41Z</time>
      </trkpt>
      <trkpt lat="44.59774" lon="6.22728">
        <ele>1482.6</ele>
        <time>2022-09-18T10:08:42Z</time>
      </trkpt>
      <trkpt lat="44.59774" lon="6.22725">
        <ele>1483</ele>
        <time>2022-09-18T10:08:43Z</time>
      </trkpt>
      <trkpt lat="44.59774" lon="6.22722">
        <ele>1483.4</ele>
        <time>2022-09-18T10:08:44Z</time>
      </trkpt>
      <trkpt lat="44.59774" lon="6.2272">
        <ele>1483.4</ele>
        <time>2022-09-18T10:08:45Z</time>
      </trkpt>
      <trkpt lat="44.59774" lon="6.22717">
        <ele>1483.4</ele>
        <time>2022-09-18T10:08:46Z</time>
      </trkpt>
      <trkpt lat="44.59774" lon="6.22714">
        <ele>1483.6</ele>
        <time>2022-09-18T10:08:47Z</time>
      </trkpt>
      <trkpt lat="44.59775" lon="6.22712">
        <ele>1483.8</ele>
        <time>2022-09-18T10:08:48Z</time>
      </trkpt>
      <trkpt lat="44.59775" lon="6.22709">
        <ele>1483.8</ele>
        <time>2022-09-18T10:08:49Z</time>
      </trkpt>
      <trkpt lat="44.59775" lon="6.22706">
        <ele>1484.2</ele>
        <time>2022-09-18T10:08:50Z</time>
      </trkpt>
      <trkpt lat="44.59775" lon="6.22704">
        <ele>1484.2</ele>
        <time>2022-09-18T10:08:51Z</time>
      </trkpt>
      <trkpt lat="44.59775" lon="6.22701">
        <ele>1484.4</ele>
        <time>2022-09-18T10:08:52Z</time>
      </trkpt>
      <trkpt lat="44.59775" lon="6.22699">
        <ele>1484.6</ele>
        <time>2022-09-18T10:08:53Z</time>
      </trkpt>
      <trkpt lat="44.59775" lon="6.22696">
        <ele>1484.6</ele>
        <time>2022-09-18T10:08:54Z</time>
      </trkpt>
      <trkpt lat="44.59775" lon="6.22693">
        <ele>1484.8</ele>
        <time>2022-09-18T10:08:55Z</time>
      </trkpt>
      <trkpt lat="44.59775" lon="6.22691">
        <ele>1485</ele>
        <time>2022-09-18T10:08:56Z</time>
      </trkpt>
      <trkpt lat="44.59775" lon="6.22688">
        <ele>1485</ele>
        <time>2022-09-18T10:08:57Z</time>
      </trkpt>
      <trkpt lat="44.59775" lon="6.22685">
        <ele>1485</ele>
        <time>2022-09-18T10:08:58Z</time>
      </trkpt>
      <trkpt lat="44.59775" lon="6.22683">
        <ele>1485.2</ele>
        <time>2022-09-18T10:08:59Z</time>
      </trkpt>
      <trkpt lat="44.59775" lon="6.2268">
        <ele>1485.4</ele>
        <time>2022-09-18T10:09:00Z</time>
      </trkpt>
      <trkpt lat="44.59775" lon="6.22678">
        <ele>1485.4</ele>
        <time>2022-09-18T10:09:01Z</time>
      </trkpt>
      <trkpt lat="44.59775" lon="6.22675">
        <ele>1485.6</ele>
        <time>2022-09-18T10:09:02Z</time>
      </trkpt>
      <trkpt lat="44.59774" lon="6.2267">
        <ele>1485.8</ele>
        <time>2022-09-18T10:09:04Z</time>
      </trkpt>
      <trkpt lat="44.59774" lon="6.22667">
        <ele>1485.8</ele>
        <time>2022-09-18T10:09:05Z</time>
      </trkpt>
      <trkpt lat="44.59774" lon="6.22665">
        <ele>1486</ele>
        <time>2022-09-18T10:09:06Z</time>
      </trkpt>
      <trkpt lat="44.59775" lon="6.22662">
        <ele>1486.2</ele>
        <time>2022-09-18T10:09:07Z</time>
      </trkpt>
      <trkpt lat="44.59774" lon="6.22659">
        <ele>1486.4</ele>
        <time>2022-09-18T10:09:08Z</time>
      </trkpt>
      <trkpt lat="44.59774" lon="6.22656">
        <ele>1486.8</ele>
        <time>2022-09-18T10:09:09Z</time>
      </trkpt>
      <trkpt lat="44.59774" lon="6.22654">
        <ele>1486.8</ele>
        <time>2022-09-18T10:09:10Z</time>
      </trkpt>
      <trkpt lat="44.59774" lon="6.22651">
        <ele>1487</ele>
        <time>2022-09-18T10:09:11Z</time>
      </trkpt>
      <trkpt lat="44.59774" lon="6.22648">
        <ele>1487.2</ele>
        <time>2022-09-18T10:09:12Z</time>
      </trkpt>
      <trkpt lat="44.59774" lon="6.22645">
        <ele>1487.4</ele>
        <time>2022-09-18T10:09:13Z</time>
      </trkpt>
      <trkpt lat="44.59774" lon="6.22643">
        <ele>1487.6</ele>
        <time>2022-09-18T10:09:14Z</time>
      </trkpt>
      <trkpt lat="44.59774" lon="6.2264">
        <ele>1488</ele>
        <time>2022-09-18T10:09:15Z</time>
      </trkpt>
      <trkpt lat="44.59774" lon="6.22637">
        <ele>1488.4</ele>
        <time>2022-09-18T10:09:16Z</time>
      </trkpt>
      <trkpt lat="44.59774" lon="6.22634">
        <ele>1488.6</ele>
        <time>2022-09-18T10:09:17Z</time>
      </trkpt>
      <trkpt lat="44.59774" lon="6.22632">
        <ele>1488.8</ele>
        <time>2022-09-18T10:09:18Z</time>
      </trkpt>
      <trkpt lat="44.59774" lon="6.22629">
        <ele>1489</ele>
        <time>2022-09-18T10:09:19Z</time>
      </trkpt>
      <trkpt lat="44.59774" lon="6.22626">
        <ele>1489.2</ele>
        <time>2022-09-18T10:09:20Z</time>
      </trkpt>
      <trkpt lat="44.59774" lon="6.22624">
        <ele>1489.4</ele>
        <time>2022-09-18T10:09:21Z</time>
      </trkpt>
      <trkpt lat="44.59774" lon="6.22621">
        <ele>1489.6</ele>
        <time>2022-09-18T10:09:22Z</time>
      </trkpt>
      <trkpt lat="44.59774" lon="6.22618">
        <ele>1490.2</ele>
        <time>2022-09-18T10:09:23Z</time>
      </trkpt>
      <trkpt lat="44.59774" lon="6.22615">
        <ele>1490.2</ele>
        <time>2022-09-18T10:09:24Z</time>
      </trkpt>
      <trkpt lat="44.59774" lon="6.22612">
        <ele>1490.2</ele>
        <time>2022-09-18T10:09:25Z</time>
      </trkpt>
      <trkpt lat="44.59774" lon="6.2261">
        <ele>1490.6</ele>
        <time>2022-09-18T10:09:26Z</time>
      </trkpt>
      <trkpt lat="44.59774" lon="6.22607">
        <ele>1490.8</ele>
        <time>2022-09-18T10:09:27Z</time>
      </trkpt>
      <trkpt lat="44.59774" lon="6.22604">
        <ele>1491</ele>
        <time>2022-09-18T10:09:28Z</time>
      </trkpt>
      <trkpt lat="44.59774" lon="6.22602">
        <ele>1491.4</ele>
        <time>2022-09-18T10:09:29Z</time>
      </trkpt>
      <trkpt lat="44.59775" lon="6.22599">
        <ele>1491.4</ele>
        <time>2022-09-18T10:09:30Z</time>
      </trkpt>
      <trkpt lat="44.59775" lon="6.22597">
        <ele>1491.6</ele>
        <time>2022-09-18T10:09:31Z</time>
      </trkpt>
      <trkpt lat="44.59775" lon="6.22591">
        <ele>1492</ele>
        <time>2022-09-18T10:09:33Z</time>
      </trkpt>
      <trkpt lat="44.59775" lon="6.22589">
        <ele>1492.4</ele>
        <time>2022-09-18T10:09:34Z</time>
      </trkpt>
      <trkpt lat="44.59775" lon="6.22586">
        <ele>1492.6</ele>
        <time>2022-09-18T10:09:35Z</time>
      </trkpt>
      <trkpt lat="44.59775" lon="6.22583">
        <ele>1492.8</ele>
        <time>2022-09-18T10:09:36Z</time>
      </trkpt>
      <trkpt lat="44.59776" lon="6.22578">
        <ele>1493.6</ele>
        <time>2022-09-18T10:09:38Z</time>
      </trkpt>
      <trkpt lat="44.59776" lon="6.22575">
        <ele>1493.6</ele>
        <time>2022-09-18T10:09:39Z</time>
      </trkpt>
      <trkpt lat="44.59776" lon="6.22572">
        <ele>1493.8</ele>
        <time>2022-09-18T10:09:40Z</time>
      </trkpt>
      <trkpt lat="44.59776" lon="6.22569">
        <ele>1494.4</ele>
        <time>2022-09-18T10:09:41Z</time>
      </trkpt>
      <trkpt lat="44.59776" lon="6.22567">
        <ele>1494.8</ele>
        <time>2022-09-18T10:09:42Z</time>
      </trkpt>
      <trkpt lat="44.59776" lon="6.22564">
        <ele>1495</ele>
        <time>2022-09-18T10:09:43Z</time>
      </trkpt>
      <trkpt lat="44.59776" lon="6.22561">
        <ele>1495.2</ele>
        <time>2022-09-18T10:09:44Z</time>
      </trkpt>
      <trkpt lat="44.59776" lon="6.22558">
        <ele>1495.4</ele>
        <time>2022-09-18T10:09:45Z</time>
      </trkpt>
      <trkpt lat="44.59777" lon="6.22556">
        <ele>1495.4</ele>
        <time>2022-09-18T10:09:46Z</time>
      </trkpt>
      <trkpt lat="44.59777" lon="6.22553">
        <ele>1495.8</ele>
        <time>2022-09-18T10:09:47Z</time>
      </trkpt>
      <trkpt lat="44.59777" lon="6.22548">
        <ele>1496.2</ele>
        <time>2022-09-18T10:09:49Z</time>
      </trkpt>
      <trkpt lat="44.59777" lon="6.22545">
        <ele>1497.4</ele>
        <time>2022-09-18T10:09:52Z</time>
      </trkpt>
      <trkpt lat="44.59777" lon="6.22542">
        <ele>1497.6</ele>
        <time>2022-09-18T10:09:53Z</time>
      </trkpt>
      <trkpt lat="44.59777" lon="6.22539">
        <ele>1498</ele>
        <time>2022-09-18T10:09:54Z</time>
      </trkpt>
      <trkpt lat="44.59778" lon="6.22536">
        <ele>1498.2</ele>
        <time>2022-09-18T10:09:55Z</time>
      </trkpt>
      <trkpt lat="44.59778" lon="6.22533">
        <ele>1498.6</ele>
        <time>2022-09-18T10:09:56Z</time>
      </trkpt>
      <trkpt lat="44.59778" lon="6.2253">
        <ele>1498.8</ele>
        <time>2022-09-18T10:09:57Z</time>
      </trkpt>
      <trkpt lat="44.59778" lon="6.22527">
        <ele>1499</ele>
        <time>2022-09-18T10:09:58Z</time>
      </trkpt>
      <trkpt lat="44.59778" lon="6.22524">
        <ele>1499.2</ele>
        <time>2022-09-18T10:09:59Z</time>
      </trkpt>
      <trkpt lat="44.59777" lon="6.22521">
        <ele>1499.4</ele>
        <time>2022-09-18T10:10:00Z</time>
      </trkpt>
      <trkpt lat="44.59778" lon="6.22518">
        <ele>1499.4</ele>
        <time>2022-09-18T10:10:01Z</time>
      </trkpt>
      <trkpt lat="44.59778" lon="6.22515">
        <ele>1499.6</ele>
        <time>2022-09-18T10:10:02Z</time>
      </trkpt>
      <trkpt lat="44.59778" lon="6.22512">
        <ele>1499.8</ele>
        <time>2022-09-18T10:10:03Z</time>
      </trkpt>
      <trkpt lat="44.59777" lon="6.22509">
        <ele>1499.8</ele>
        <time>2022-09-18T10:10:04Z</time>
      </trkpt>
      <trkpt lat="44.59777" lon="6.22506">
        <ele>1499.8</ele>
        <time>2022-09-18T10:10:05Z</time>
      </trkpt>
      <trkpt lat="44.59777" lon="6.22503">
        <ele>1499.8</ele>
        <time>2022-09-18T10:10:06Z</time>
      </trkpt>
      <trkpt lat="44.59776" lon="6.225">
        <ele>1500</ele>
        <time>2022-09-18T10:10:07Z</time>
      </trkpt>
      <trkpt lat="44.59776" lon="6.22497">
        <ele>1500.2</ele>
        <time>2022-09-18T10:10:08Z</time>
      </trkpt>
      <trkpt lat="44.59775" lon="6.22494">
        <ele>1500.4</ele>
        <time>2022-09-18T10:10:09Z</time>
      </trkpt>
      <trkpt lat="44.59775" lon="6.22491">
        <ele>1500.6</ele>
        <time>2022-09-18T10:10:10Z</time>
      </trkpt>
      <trkpt lat="44.59775" lon="6.22488">
        <ele>1500.8</ele>
        <time>2022-09-18T10:10:11Z</time>
      </trkpt>
      <trkpt lat="44.59774" lon="6.22485">
        <ele>1501</ele>
        <time>2022-09-18T10:10:12Z</time>
      </trkpt>
      <trkpt lat="44.59773" lon="6.22481">
        <ele>1501.4</ele>
        <time>2022-09-18T10:10:13Z</time>
      </trkpt>
      <trkpt lat="44.59772" lon="6.22478">
        <ele>1501.6</ele>
        <time>2022-09-18T10:10:14Z</time>
      </trkpt>
      <trkpt lat="44.59772" lon="6.22475">
        <ele>1501.8</ele>
        <time>2022-09-18T10:10:15Z</time>
      </trkpt>
      <trkpt lat="44.59771" lon="6.22472">
        <ele>1502.2</ele>
        <time>2022-09-18T10:10:16Z</time>
      </trkpt>
      <trkpt lat="44.5977" lon="6.22469">
        <ele>1502.6</ele>
        <time>2022-09-18T10:10:17Z</time>
      </trkpt>
      <trkpt lat="44.5977" lon="6.22466">
        <ele>1502.8</ele>
        <time>2022-09-18T10:10:18Z</time>
      </trkpt>
      <trkpt lat="44.59769" lon="6.22463">
        <ele>1503.4</ele>
        <time>2022-09-18T10:10:19Z</time>
      </trkpt>
      <trkpt lat="44.59769" lon="6.2246">
        <ele>1504</ele>
        <time>2022-09-18T10:10:20Z</time>
      </trkpt>
      <trkpt lat="44.59768" lon="6.22457">
        <ele>1504</ele>
        <time>2022-09-18T10:10:21Z</time>
      </trkpt>
      <trkpt lat="44.59768" lon="6.22455">
        <ele>1504.2</ele>
        <time>2022-09-18T10:10:22Z</time>
      </trkpt>
      <trkpt lat="44.59767" lon="6.22452">
        <ele>1504.4</ele>
        <time>2022-09-18T10:10:23Z</time>
      </trkpt>
      <trkpt lat="44.59767" lon="6.22449">
        <ele>1504.8</ele>
        <time>2022-09-18T10:10:24Z</time>
      </trkpt>
      <trkpt lat="44.59766" lon="6.22447">
        <ele>1505</ele>
        <time>2022-09-18T10:10:25Z</time>
      </trkpt>
      <trkpt lat="44.59765" lon="6.22444">
        <ele>1505.4</ele>
        <time>2022-09-18T10:10:26Z</time>
      </trkpt>
      <trkpt lat="44.59765" lon="6.22442">
        <ele>1506</ele>
        <time>2022-09-18T10:10:27Z</time>
      </trkpt>
      <trkpt lat="44.59764" lon="6.22439">
        <ele>1506.6</ele>
        <time>2022-09-18T10:10:28Z</time>
      </trkpt>
      <trkpt lat="44.59764" lon="6.22437">
        <ele>1506.8</ele>
        <time>2022-09-18T10:10:29Z</time>
      </trkpt>
      <trkpt lat="44.59763" lon="6.22434">
        <ele>1507</ele>
        <time>2022-09-18T10:10:30Z</time>
      </trkpt>
      <trkpt lat="44.59762" lon="6.22431">
        <ele>1507.4</ele>
        <time>2022-09-18T10:10:31Z</time>
      </trkpt>
      <trkpt lat="44.59762" lon="6.22429">
        <ele>1508</ele>
        <time>2022-09-18T10:10:32Z</time>
      </trkpt>
      <trkpt lat="44.59761" lon="6.22426">
        <ele>1508.4</ele>
        <time>2022-09-18T10:10:33Z</time>
      </trkpt>
      <trkpt lat="44.59761" lon="6.22423">
        <ele>1508.6</ele>
        <time>2022-09-18T10:10:34Z</time>
      </trkpt>
      <trkpt lat="44.5976" lon="6.2242">
        <ele>1508.6</ele>
        <time>2022-09-18T10:10:35Z</time>
      </trkpt>
      <trkpt lat="44.5976" lon="6.22418">
        <ele>1509.6</ele>
        <time>2022-09-18T10:10:36Z</time>
      </trkpt>
      <trkpt lat="44.59759" lon="6.22415">
        <ele>1509.6</ele>
        <time>2022-09-18T10:10:37Z</time>
      </trkpt>
      <trkpt lat="44.59758" lon="6.22412">
        <ele>1510.2</ele>
        <time>2022-09-18T10:10:38Z</time>
      </trkpt>
      <trkpt lat="44.59758" lon="6.22409">
        <ele>1510.2</ele>
        <time>2022-09-18T10:10:39Z</time>
      </trkpt>
      <trkpt lat="44.59757" lon="6.22407">
        <ele>1510.8</ele>
        <time>2022-09-18T10:10:40Z</time>
      </trkpt>
      <trkpt lat="44.59757" lon="6.22404">
        <ele>1511.2</ele>
        <time>2022-09-18T10:10:41Z</time>
      </trkpt>
      <trkpt lat="44.59757" lon="6.22401">
        <ele>1511.6</ele>
        <time>2022-09-18T10:10:42Z</time>
      </trkpt>
      <trkpt lat="44.59757" lon="6.22398">
        <ele>1512.2</ele>
        <time>2022-09-18T10:10:43Z</time>
      </trkpt>
      <trkpt lat="44.59757" lon="6.22396">
        <ele>1512.4</ele>
        <time>2022-09-18T10:10:44Z</time>
      </trkpt>
      <trkpt lat="44.59757" lon="6.22393">
        <ele>1512.6</ele>
        <time>2022-09-18T10:10:45Z</time>
      </trkpt>
      <trkpt lat="44.59757" lon="6.22388">
        <ele>1513.2</ele>
        <time>2022-09-18T10:10:47Z</time>
      </trkpt>
      <trkpt lat="44.59757" lon="6.22386">
        <ele>1513.4</ele>
        <time>2022-09-18T10:10:48Z</time>
      </trkpt>
      <trkpt lat="44.59757" lon="6.22383">
        <ele>1513.8</ele>
        <time>2022-09-18T10:10:49Z</time>
      </trkpt>
      <trkpt lat="44.59758" lon="6.2238">
        <ele>1514.2</ele>
        <time>2022-09-18T10:10:50Z</time>
      </trkpt>
      <trkpt lat="44.59758" lon="6.22378">
        <ele>1514.6</ele>
        <time>2022-09-18T10:10:51Z</time>
      </trkpt>
      <trkpt lat="44.59758" lon="6.22375">
        <ele>1515.2</ele>
        <time>2022-09-18T10:10:52Z</time>
      </trkpt>
      <trkpt lat="44.59758" lon="6.22372">
        <ele>1515.2</ele>
        <time>2022-09-18T10:10:53Z</time>
      </trkpt>
      <trkpt lat="44.5976" lon="6.22368">
        <ele>1515.8</ele>
        <time>2022-09-18T10:10:55Z</time>
      </trkpt>
      <trkpt lat="44.59761" lon="6.22365">
        <ele>1516</ele>
        <time>2022-09-18T10:10:56Z</time>
      </trkpt>
      <trkpt lat="44.59763" lon="6.22361">
        <ele>1516.6</ele>
        <time>2022-09-18T10:10:58Z</time>
      </trkpt>
      <trkpt lat="44.59765" lon="6.2236">
        <ele>1516.8</ele>
        <time>2022-09-18T10:10:59Z</time>
      </trkpt>
      <trkpt lat="44.59767" lon="6.22356">
        <ele>1517.4</ele>
        <time>2022-09-18T10:11:01Z</time>
      </trkpt>
      <trkpt lat="44.59769" lon="6.22355">
        <ele>1517.6</ele>
        <time>2022-09-18T10:11:02Z</time>
      </trkpt>
      <trkpt lat="44.5977" lon="6.22353">
        <ele>1517.8</ele>
        <time>2022-09-18T10:11:03Z</time>
      </trkpt>
      <trkpt lat="44.59773" lon="6.22351">
        <ele>1518.4</ele>
        <time>2022-09-18T10:11:05Z</time>
      </trkpt>
      <trkpt lat="44.59777" lon="6.22348">
        <ele>1519</ele>
        <time>2022-09-18T10:11:07Z</time>
      </trkpt>
      <trkpt lat="44.59779" lon="6.22347">
        <ele>1519</ele>
        <time>2022-09-18T10:11:08Z</time>
      </trkpt>
      <trkpt lat="44.59781" lon="6.22346">
        <ele>1519.2</ele>
        <time>2022-09-18T10:11:09Z</time>
      </trkpt>
      <trkpt lat="44.59782" lon="6.22345">
        <ele>1519.6</ele>
        <time>2022-09-18T10:11:10Z</time>
      </trkpt>
      <trkpt lat="44.59784" lon="6.22344">
        <ele>1520</ele>
        <time>2022-09-18T10:11:11Z</time>
      </trkpt>
      <trkpt lat="44.59786" lon="6.22342">
        <ele>1520.4</ele>
        <time>2022-09-18T10:11:12Z</time>
      </trkpt>
      <trkpt lat="44.59788" lon="6.22341">
        <ele>1520.8</ele>
        <time>2022-09-18T10:11:13Z</time>
      </trkpt>
      <trkpt lat="44.5979" lon="6.2234">
        <ele>1521</ele>
        <time>2022-09-18T10:11:14Z</time>
      </trkpt>
      <trkpt lat="44.59792" lon="6.22338">
        <ele>1521.4</ele>
        <time>2022-09-18T10:11:15Z</time>
      </trkpt>
      <trkpt lat="44.59794" lon="6.22337">
        <ele>1521.8</ele>
        <time>2022-09-18T10:11:16Z</time>
      </trkpt>
      <trkpt lat="44.59796" lon="6.22336">
        <ele>1522</ele>
        <time>2022-09-18T10:11:17Z</time>
      </trkpt>
      <trkpt lat="44.59798" lon="6.22336">
        <ele>1522.4</ele>
        <time>2022-09-18T10:11:18Z</time>
      </trkpt>
      <trkpt lat="44.598" lon="6.22335">
        <ele>1522.8</ele>
        <time>2022-09-18T10:11:19Z</time>
      </trkpt>
      <trkpt lat="44.59802" lon="6.22334">
        <ele>1523.2</ele>
        <time>2022-09-18T10:11:20Z</time>
      </trkpt>
      <trkpt lat="44.59804" lon="6.22333">
        <ele>1523.6</ele>
        <time>2022-09-18T10:11:21Z</time>
      </trkpt>
      <trkpt lat="44.59806" lon="6.22333">
        <ele>1524</ele>
        <time>2022-09-18T10:11:22Z</time>
      </trkpt>
      <trkpt lat="44.59808" lon="6.22332">
        <ele>1524.2</ele>
        <time>2022-09-18T10:11:23Z</time>
      </trkpt>
      <trkpt lat="44.5981" lon="6.22332">
        <ele>1524.4</ele>
        <time>2022-09-18T10:11:24Z</time>
      </trkpt>
      <trkpt lat="44.59813" lon="6.22332">
        <ele>1524.8</ele>
        <time>2022-09-18T10:11:25Z</time>
      </trkpt>
      <trkpt lat="44.59815" lon="6.22332">
        <ele>1525.2</ele>
        <time>2022-09-18T10:11:26Z</time>
      </trkpt>
      <trkpt lat="44.59817" lon="6.22332">
        <ele>1525.6</ele>
        <time>2022-09-18T10:11:27Z</time>
      </trkpt>
      <trkpt lat="44.59819" lon="6.22332">
        <ele>1526.2</ele>
        <time>2022-09-18T10:11:28Z</time>
      </trkpt>
      <trkpt lat="44.59828" lon="6.22333">
        <ele>1527.8</ele>
        <time>2022-09-18T10:11:32Z</time>
      </trkpt>
      <trkpt lat="44.59836" lon="6.22329">
        <ele>1529.4</ele>
        <time>2022-09-18T10:11:36Z</time>
      </trkpt>
      <trkpt lat="44.5984" lon="6.22328">
        <ele>1530.4</ele>
        <time>2022-09-18T10:11:38Z</time>
      </trkpt>
      <trkpt lat="44.59846" lon="6.22327">
        <ele>1531.6</ele>
        <time>2022-09-18T10:11:41Z</time>
      </trkpt>
      <trkpt lat="44.59856" lon="6.22324">
        <ele>1534</ele>
        <time>2022-09-18T10:11:46Z</time>
      </trkpt>
      <trkpt lat="44.59859" lon="6.22321">
        <ele>1534.6</ele>
        <time>2022-09-18T10:11:48Z</time>
      </trkpt>
      <trkpt lat="44.59861" lon="6.2232">
        <ele>1534.8</ele>
        <time>2022-09-18T10:11:49Z</time>
      </trkpt>
      <trkpt lat="44.59863" lon="6.22319">
        <ele>1535.6</ele>
        <time>2022-09-18T10:11:50Z</time>
      </trkpt>
      <trkpt lat="44.59865" lon="6.22318">
        <ele>1536.2</ele>
        <time>2022-09-18T10:11:51Z</time>
      </trkpt>
      <trkpt lat="44.59866" lon="6.22317">
        <ele>1536.4</ele>
        <time>2022-09-18T10:11:52Z</time>
      </trkpt>
      <trkpt lat="44.59868" lon="6.22316">
        <ele>1536.6</ele>
        <time>2022-09-18T10:11:53Z</time>
      </trkpt>
      <trkpt lat="44.5987" lon="6.22315">
        <ele>1537</ele>
        <time>2022-09-18T10:11:54Z</time>
      </trkpt>
      <trkpt lat="44.59872" lon="6.22313">
        <ele>1537.6</ele>
        <time>2022-09-18T10:11:55Z</time>
      </trkpt>
      <trkpt lat="44.59874" lon="6.22312">
        <ele>1538</ele>
        <time>2022-09-18T10:11:56Z</time>
      </trkpt>
      <trkpt lat="44.59875" lon="6.22311">
        <ele>1538.6</ele>
        <time>2022-09-18T10:11:57Z</time>
      </trkpt>
      <trkpt lat="44.59877" lon="6.22309">
        <ele>1539.2</ele>
        <time>2022-09-18T10:11:58Z</time>
      </trkpt>
      <trkpt lat="44.59879" lon="6.22308">
        <ele>1539.6</ele>
        <time>2022-09-18T10:11:59Z</time>
      </trkpt>
      <trkpt lat="44.5988" lon="6.22306">
        <ele>1539.8</ele>
        <time>2022-09-18T10:12:00Z</time>
      </trkpt>
      <trkpt lat="44.59882" lon="6.22305">
        <ele>1540.2</ele>
        <time>2022-09-18T10:12:01Z</time>
      </trkpt>
      <trkpt lat="44.59884" lon="6.22303">
        <ele>1540.4</ele>
        <time>2022-09-18T10:12:02Z</time>
      </trkpt>
      <trkpt lat="44.59885" lon="6.22301">
        <ele>1540.8</ele>
        <time>2022-09-18T10:12:03Z</time>
      </trkpt>
      <trkpt lat="44.59886" lon="6.22299">
        <ele>1541.2</ele>
        <time>2022-09-18T10:12:04Z</time>
      </trkpt>
      <trkpt lat="44.59888" lon="6.22296">
        <ele>1541.8</ele>
        <time>2022-09-18T10:12:05Z</time>
      </trkpt>
      <trkpt lat="44.59889" lon="6.22294">
        <ele>1542.2</ele>
        <time>2022-09-18T10:12:06Z</time>
      </trkpt>
      <trkpt lat="44.5989" lon="6.22292">
        <ele>1542.4</ele>
        <time>2022-09-18T10:12:07Z</time>
      </trkpt>
      <trkpt lat="44.59892" lon="6.2229">
        <ele>1543</ele>
        <time>2022-09-18T10:12:08Z</time>
      </trkpt>
      <trkpt lat="44.59893" lon="6.22287">
        <ele>1543.4</ele>
        <time>2022-09-18T10:12:09Z</time>
      </trkpt>
      <trkpt lat="44.59894" lon="6.22285">
        <ele>1543.6</ele>
        <time>2022-09-18T10:12:10Z</time>
      </trkpt>
      <trkpt lat="44.59895" lon="6.22282">
        <ele>1544</ele>
        <time>2022-09-18T10:12:11Z</time>
      </trkpt>
      <trkpt lat="44.59896" lon="6.22279">
        <ele>1544.4</ele>
        <time>2022-09-18T10:12:12Z</time>
      </trkpt>
      <trkpt lat="44.59897" lon="6.22276">
        <ele>1545</ele>
        <time>2022-09-18T10:12:13Z</time>
      </trkpt>
      <trkpt lat="44.59898" lon="6.22274">
        <ele>1545.4</ele>
        <time>2022-09-18T10:12:14Z</time>
      </trkpt>
      <trkpt lat="44.59899" lon="6.22271">
        <ele>1545.8</ele>
        <time>2022-09-18T10:12:15Z</time>
      </trkpt>
      <trkpt lat="44.599" lon="6.22268">
        <ele>1546.2</ele>
        <time>2022-09-18T10:12:16Z</time>
      </trkpt>
      <trkpt lat="44.59902" lon="6.22266">
        <ele>1546.6</ele>
        <time>2022-09-18T10:12:17Z</time>
      </trkpt>
      <trkpt lat="44.59903" lon="6.22263">
        <ele>1547</ele>
        <time>2022-09-18T10:12:18Z</time>
      </trkpt>
      <trkpt lat="44.59904" lon="6.22261">
        <ele>1547.2</ele>
        <time>2022-09-18T10:12:19Z</time>
      </trkpt>
      <trkpt lat="44.59905" lon="6.22259">
        <ele>1547.4</ele>
        <time>2022-09-18T10:12:20Z</time>
      </trkpt>
      <trkpt lat="44.59906" lon="6.22256">
        <ele>1547.8</ele>
        <time>2022-09-18T10:12:21Z</time>
      </trkpt>
      <trkpt lat="44.59907" lon="6.22254">
        <ele>1548.2</ele>
        <time>2022-09-18T10:12:22Z</time>
      </trkpt>
      <trkpt lat="44.59908" lon="6.22251">
        <ele>1548.8</ele>
        <time>2022-09-18T10:12:23Z</time>
      </trkpt>
      <trkpt lat="44.5991" lon="6.22248">
        <ele>1549</ele>
        <time>2022-09-18T10:12:24Z</time>
      </trkpt>
      <trkpt lat="44.5991" lon="6.22246">
        <ele>1549.4</ele>
        <time>2022-09-18T10:12:25Z</time>
      </trkpt>
      <trkpt lat="44.59911" lon="6.22243">
        <ele>1549.8</ele>
        <time>2022-09-18T10:12:26Z</time>
      </trkpt>
      <trkpt lat="44.59912" lon="6.2224">
        <ele>1549.8</ele>
        <time>2022-09-18T10:12:27Z</time>
      </trkpt>
      <trkpt lat="44.59913" lon="6.22238">
        <ele>1550.4</ele>
        <time>2022-09-18T10:12:28Z</time>
      </trkpt>
      <trkpt lat="44.59914" lon="6.22235">
        <ele>1550.8</ele>
        <time>2022-09-18T10:12:29Z</time>
      </trkpt>
      <trkpt lat="44.59915" lon="6.22233">
        <ele>1551</ele>
        <time>2022-09-18T10:12:30Z</time>
      </trkpt>
      <trkpt lat="44.59916" lon="6.2223">
        <ele>1551.2</ele>
        <time>2022-09-18T10:12:31Z</time>
      </trkpt>
      <trkpt lat="44.59917" lon="6.22227">
        <ele>1551.2</ele>
        <time>2022-09-18T10:12:32Z</time>
      </trkpt>
      <trkpt lat="44.59918" lon="6.22225">
        <ele>1551.4</ele>
        <time>2022-09-18T10:12:33Z</time>
      </trkpt>
      <trkpt lat="44.59919" lon="6.22222">
        <ele>1551.8</ele>
        <time>2022-09-18T10:12:34Z</time>
      </trkpt>
      <trkpt lat="44.5992" lon="6.2222">
        <ele>1552.2</ele>
        <time>2022-09-18T10:12:35Z</time>
      </trkpt>
      <trkpt lat="44.59921" lon="6.22217">
        <ele>1552.6</ele>
        <time>2022-09-18T10:12:36Z</time>
      </trkpt>
      <trkpt lat="44.59922" lon="6.22214">
        <ele>1552.8</ele>
        <time>2022-09-18T10:12:37Z</time>
      </trkpt>
      <trkpt lat="44.59922" lon="6.22212">
        <ele>1553</ele>
        <time>2022-09-18T10:12:38Z</time>
      </trkpt>
      <trkpt lat="44.59923" lon="6.22209">
        <ele>1553.2</ele>
        <time>2022-09-18T10:12:39Z</time>
      </trkpt>
      <trkpt lat="44.59923" lon="6.22206">
        <ele>1553.4</ele>
        <time>2022-09-18T10:12:40Z</time>
      </trkpt>
      <trkpt lat="44.59923" lon="6.22203">
        <ele>1553.8</ele>
        <time>2022-09-18T10:12:41Z</time>
      </trkpt>
      <trkpt lat="44.59923" lon="6.222">
        <ele>1553.8</ele>
        <time>2022-09-18T10:12:42Z</time>
      </trkpt>
      <trkpt lat="44.59923" lon="6.22197">
        <ele>1553.8</ele>
        <time>2022-09-18T10:12:43Z</time>
      </trkpt>
      <trkpt lat="44.59923" lon="6.22194">
        <ele>1554.2</ele>
        <time>2022-09-18T10:12:44Z</time>
      </trkpt>
      <trkpt lat="44.59922" lon="6.22191">
        <ele>1554.6</ele>
        <time>2022-09-18T10:12:45Z</time>
      </trkpt>
      <trkpt lat="44.59922" lon="6.22188">
        <ele>1554.8</ele>
        <time>2022-09-18T10:12:46Z</time>
      </trkpt>
      <trkpt lat="44.59921" lon="6.22185">
        <ele>1554.8</ele>
        <time>2022-09-18T10:12:47Z</time>
      </trkpt>
      <trkpt lat="44.5992" lon="6.22182">
        <ele>1555</ele>
        <time>2022-09-18T10:12:48Z</time>
      </trkpt>
      <trkpt lat="44.5992" lon="6.2218">
        <ele>1555</ele>
        <time>2022-09-18T10:12:49Z</time>
      </trkpt>
      <trkpt lat="44.59919" lon="6.22177">
        <ele>1555.4</ele>
        <time>2022-09-18T10:12:50Z</time>
      </trkpt>
      <trkpt lat="44.59918" lon="6.22174">
        <ele>1555.4</ele>
        <time>2022-09-18T10:12:51Z</time>
      </trkpt>
      <trkpt lat="44.59918" lon="6.22171">
        <ele>1555.8</ele>
        <time>2022-09-18T10:12:52Z</time>
      </trkpt>
      <trkpt lat="44.59917" lon="6.22168">
        <ele>1555.8</ele>
        <time>2022-09-18T10:12:53Z</time>
      </trkpt>
      <trkpt lat="44.59917" lon="6.22165">
        <ele>1556</ele>
        <time>2022-09-18T10:12:54Z</time>
      </trkpt>
      <trkpt lat="44.59916" lon="6.22163">
        <ele>1556</ele>
        <time>2022-09-18T10:12:55Z</time>
      </trkpt>
      <trkpt lat="44.59916" lon="6.2216">
        <ele>1556</ele>
        <time>2022-09-18T10:12:56Z</time>
      </trkpt>
      <trkpt lat="44.59915" lon="6.22157">
        <ele>1556</ele>
        <time>2022-09-18T10:12:57Z</time>
      </trkpt>
      <trkpt lat="44.59915" lon="6.22154">
        <ele>1555.8</ele>
        <time>2022-09-18T10:12:58Z</time>
      </trkpt>
      <trkpt lat="44.59914" lon="6.22151">
        <ele>1556.2</ele>
        <time>2022-09-18T10:12:59Z</time>
      </trkpt>
      <trkpt lat="44.59914" lon="6.22148">
        <ele>1556.2</ele>
        <time>2022-09-18T10:13:00Z</time>
      </trkpt>
      <trkpt lat="44.59914" lon="6.22145">
        <ele>1556.2</ele>
        <time>2022-09-18T10:13:01Z</time>
      </trkpt>
      <trkpt lat="44.59914" lon="6.22141">
        <ele>1556.2</ele>
        <time>2022-09-18T10:13:02Z</time>
      </trkpt>
      <trkpt lat="44.59913" lon="6.22138">
        <ele>1556.4</ele>
        <time>2022-09-18T10:13:03Z</time>
      </trkpt>
      <trkpt lat="44.59913" lon="6.22135">
        <ele>1556</ele>
        <time>2022-09-18T10:13:04Z</time>
      </trkpt>
      <trkpt lat="44.59913" lon="6.22132">
        <ele>1556</ele>
        <time>2022-09-18T10:13:05Z</time>
      </trkpt>
      <trkpt lat="44.59913" lon="6.22129">
        <ele>1555.8</ele>
        <time>2022-09-18T10:13:06Z</time>
      </trkpt>
      <trkpt lat="44.59913" lon="6.22126">
        <ele>1555.6</ele>
        <time>2022-09-18T10:13:07Z</time>
      </trkpt>
      <trkpt lat="44.59913" lon="6.22123">
        <ele>1555.6</ele>
        <time>2022-09-18T10:13:08Z</time>
      </trkpt>
      <trkpt lat="44.59913" lon="6.2212">
        <ele>1555.8</ele>
        <time>2022-09-18T10:13:09Z</time>
      </trkpt>
      <trkpt lat="44.59913" lon="6.22117">
        <ele>1555.6</ele>
        <time>2022-09-18T10:13:10Z</time>
      </trkpt>
      <trkpt lat="44.59914" lon="6.22114">
        <ele>1555.6</ele>
        <time>2022-09-18T10:13:11Z</time>
      </trkpt>
      <trkpt lat="44.59914" lon="6.22111">
        <ele>1555.8</ele>
        <time>2022-09-18T10:13:12Z</time>
      </trkpt>
      <trkpt lat="44.59914" lon="6.22108">
        <ele>1555.6</ele>
        <time>2022-09-18T10:13:13Z</time>
      </trkpt>
      <trkpt lat="44.59915" lon="6.22105">
        <ele>1555.6</ele>
        <time>2022-09-18T10:13:14Z</time>
      </trkpt>
      <trkpt lat="44.59915" lon="6.22102">
        <ele>1555.4</ele>
        <time>2022-09-18T10:13:15Z</time>
      </trkpt>
      <trkpt lat="44.59915" lon="6.22099">
        <ele>1555.4</ele>
        <time>2022-09-18T10:13:16Z</time>
      </trkpt>
      <trkpt lat="44.59915" lon="6.22095">
        <ele>1555.2</ele>
        <time>2022-09-18T10:13:17Z</time>
      </trkpt>
      <trkpt lat="44.59916" lon="6.22092">
        <ele>1555.4</ele>
        <time>2022-09-18T10:13:18Z</time>
      </trkpt>
      <trkpt lat="44.59916" lon="6.22089">
        <ele>1555.4</ele>
        <time>2022-09-18T10:13:19Z</time>
      </trkpt>
      <trkpt lat="44.59916" lon="6.22086">
        <ele>1555</ele>
        <time>2022-09-18T10:13:20Z</time>
      </trkpt>
      <trkpt lat="44.59917" lon="6.22083">
        <ele>1554.8</ele>
        <time>2022-09-18T10:13:21Z</time>
      </trkpt>
      <trkpt lat="44.59917" lon="6.2208">
        <ele>1554.6</ele>
        <time>2022-09-18T10:13:22Z</time>
      </trkpt>
      <trkpt lat="44.59918" lon="6.22077">
        <ele>1554.4</ele>
        <time>2022-09-18T10:13:23Z</time>
      </trkpt>
      <trkpt lat="44.59918" lon="6.22074">
        <ele>1554.4</ele>
        <time>2022-09-18T10:13:24Z</time>
      </trkpt>
      <trkpt lat="44.59919" lon="6.22071">
        <ele>1554</ele>
        <time>2022-09-18T10:13:25Z</time>
      </trkpt>
      <trkpt lat="44.5992" lon="6.22068">
        <ele>1554.2</ele>
        <time>2022-09-18T10:13:26Z</time>
      </trkpt>
      <trkpt lat="44.59921" lon="6.22065">
        <ele>1554.4</ele>
        <time>2022-09-18T10:13:27Z</time>
      </trkpt>
      <trkpt lat="44.59921" lon="6.22062">
        <ele>1554.4</ele>
        <time>2022-09-18T10:13:28Z</time>
      </trkpt>
      <trkpt lat="44.59922" lon="6.22058">
        <ele>1554.8</ele>
        <time>2022-09-18T10:13:29Z</time>
      </trkpt>
      <trkpt lat="44.59923" lon="6.22055">
        <ele>1554.8</ele>
        <time>2022-09-18T10:13:30Z</time>
      </trkpt>
      <trkpt lat="44.59923" lon="6.22052">
        <ele>1554.6</ele>
        <time>2022-09-18T10:13:31Z</time>
      </trkpt>
      <trkpt lat="44.59924" lon="6.22049">
        <ele>1554.6</ele>
        <time>2022-09-18T10:13:32Z</time>
      </trkpt>
      <trkpt lat="44.59925" lon="6.22046">
        <ele>1554.8</ele>
        <time>2022-09-18T10:13:33Z</time>
      </trkpt>
      <trkpt lat="44.59926" lon="6.22044">
        <ele>1554.8</ele>
        <time>2022-09-18T10:13:34Z</time>
      </trkpt>
      <trkpt lat="44.59927" lon="6.22041">
        <ele>1554.8</ele>
        <time>2022-09-18T10:13:35Z</time>
      </trkpt>
      <trkpt lat="44.59927" lon="6.22038">
        <ele>1554.8</ele>
        <time>2022-09-18T10:13:36Z</time>
      </trkpt>
      <trkpt lat="44.59928" lon="6.22035">
        <ele>1554.8</ele>
        <time>2022-09-18T10:13:37Z</time>
      </trkpt>
      <trkpt lat="44.59929" lon="6.22032">
        <ele>1555</ele>
        <time>2022-09-18T10:13:38Z</time>
      </trkpt>
      <trkpt lat="44.59929" lon="6.22029">
        <ele>1555</ele>
        <time>2022-09-18T10:13:39Z</time>
      </trkpt>
      <trkpt lat="44.5993" lon="6.22026">
        <ele>1555.4</ele>
        <time>2022-09-18T10:13:40Z</time>
      </trkpt>
      <trkpt lat="44.59931" lon="6.22023">
        <ele>1555.4</ele>
        <time>2022-09-18T10:13:41Z</time>
      </trkpt>
      <trkpt lat="44.59932" lon="6.2202">
        <ele>1555.6</ele>
        <time>2022-09-18T10:13:42Z</time>
      </trkpt>
      <trkpt lat="44.59932" lon="6.22017">
        <ele>1555.6</ele>
        <time>2022-09-18T10:13:43Z</time>
      </trkpt>
      <trkpt lat="44.59932" lon="6.22014">
        <ele>1555.2</ele>
        <time>2022-09-18T10:13:44Z</time>
      </trkpt>
      <trkpt lat="44.59933" lon="6.22011">
        <ele>1555.6</ele>
        <time>2022-09-18T10:13:45Z</time>
      </trkpt>
      <trkpt lat="44.59933" lon="6.22008">
        <ele>1555.4</ele>
        <time>2022-09-18T10:13:46Z</time>
      </trkpt>
      <trkpt lat="44.59933" lon="6.22005">
        <ele>1555</ele>
        <time>2022-09-18T10:13:47Z</time>
      </trkpt>
      <trkpt lat="44.59934" lon="6.22002">
        <ele>1555</ele>
        <time>2022-09-18T10:13:48Z</time>
      </trkpt>
      <trkpt lat="44.59935" lon="6.22">
        <ele>1554.8</ele>
        <time>2022-09-18T10:13:49Z</time>
      </trkpt>
      <trkpt lat="44.59936" lon="6.21997">
        <ele>1554.6</ele>
        <time>2022-09-18T10:13:50Z</time>
      </trkpt>
      <trkpt lat="44.59938" lon="6.21994">
        <ele>1555</ele>
        <time>2022-09-18T10:13:51Z</time>
      </trkpt>
      <trkpt lat="44.59939" lon="6.21991">
        <ele>1555</ele>
        <time>2022-09-18T10:13:52Z</time>
      </trkpt>
      <trkpt lat="44.5994" lon="6.21988">
        <ele>1555</ele>
        <time>2022-09-18T10:13:53Z</time>
      </trkpt>
      <trkpt lat="44.5994" lon="6.21986">
        <ele>1555</ele>
        <time>2022-09-18T10:13:54Z</time>
      </trkpt>
      <trkpt lat="44.59941" lon="6.21983">
        <ele>1555</ele>
        <time>2022-09-18T10:13:55Z</time>
      </trkpt>
      <trkpt lat="44.59941" lon="6.2198">
        <ele>1555</ele>
        <time>2022-09-18T10:13:56Z</time>
      </trkpt>
      <trkpt lat="44.59942" lon="6.21977">
        <ele>1555.2</ele>
        <time>2022-09-18T10:13:57Z</time>
      </trkpt>
      <trkpt lat="44.59942" lon="6.21974">
        <ele>1555</ele>
        <time>2022-09-18T10:13:58Z</time>
      </trkpt>
      <trkpt lat="44.59942" lon="6.21971">
        <ele>1555</ele>
        <time>2022-09-18T10:13:59Z</time>
      </trkpt>
      <trkpt lat="44.59942" lon="6.21968">
        <ele>1555</ele>
        <time>2022-09-18T10:14:00Z</time>
      </trkpt>
      <trkpt lat="44.59942" lon="6.21965">
        <ele>1555.2</ele>
        <time>2022-09-18T10:14:01Z</time>
      </trkpt>
      <trkpt lat="44.59943" lon="6.21962">
        <ele>1555.2</ele>
        <time>2022-09-18T10:14:02Z</time>
      </trkpt>
      <trkpt lat="44.59944" lon="6.21959">
        <ele>1555.2</ele>
        <time>2022-09-18T10:14:03Z</time>
      </trkpt>
      <trkpt lat="44.59945" lon="6.21956">
        <ele>1555.2</ele>
        <time>2022-09-18T10:14:04Z</time>
      </trkpt>
      <trkpt lat="44.59946" lon="6.21953">
        <ele>1555</ele>
        <time>2022-09-18T10:14:05Z</time>
      </trkpt>
      <trkpt lat="44.59947" lon="6.21949">
        <ele>1555.2</ele>
        <time>2022-09-18T10:14:06Z</time>
      </trkpt>
      <trkpt lat="44.59948" lon="6.21947">
        <ele>1555.2</ele>
        <time>2022-09-18T10:14:07Z</time>
      </trkpt>
      <trkpt lat="44.59949" lon="6.21944">
        <ele>1555.2</ele>
        <time>2022-09-18T10:14:08Z</time>
      </trkpt>
      <trkpt lat="44.59951" lon="6.21942">
        <ele>1555</ele>
        <time>2022-09-18T10:14:09Z</time>
      </trkpt>
      <trkpt lat="44.59953" lon="6.2194">
        <ele>1555</ele>
        <time>2022-09-18T10:14:10Z</time>
      </trkpt>
      <trkpt lat="44.59956" lon="6.21939">
        <ele>1555</ele>
        <time>2022-09-18T10:14:11Z</time>
      </trkpt>
      <trkpt lat="44.59958" lon="6.21939">
        <ele>1555</ele>
        <time>2022-09-18T10:14:12Z</time>
      </trkpt>
      <trkpt lat="44.59961" lon="6.2194">
        <ele>1555</ele>
        <time>2022-09-18T10:14:13Z</time>
      </trkpt>
      <trkpt lat="44.59963" lon="6.21941">
        <ele>1554.8</ele>
        <time>2022-09-18T10:14:14Z</time>
      </trkpt>
      <trkpt lat="44.59965" lon="6.21942">
        <ele>1554.8</ele>
        <time>2022-09-18T10:14:15Z</time>
      </trkpt>
      <trkpt lat="44.59968" lon="6.21944">
        <ele>1554.8</ele>
        <time>2022-09-18T10:14:16Z</time>
      </trkpt>
      <trkpt lat="44.59969" lon="6.21947">
        <ele>1554.6</ele>
        <time>2022-09-18T10:14:17Z</time>
      </trkpt>
      <trkpt lat="44.59971" lon="6.21951">
        <ele>1554.4</ele>
        <time>2022-09-18T10:14:18Z</time>
      </trkpt>
      <trkpt lat="44.59972" lon="6.21954">
        <ele>1554.2</ele>
        <time>2022-09-18T10:14:19Z</time>
      </trkpt>
      <trkpt lat="44.59972" lon="6.21958">
        <ele>1554.2</ele>
        <time>2022-09-18T10:14:20Z</time>
      </trkpt>
      <trkpt lat="44.59972" lon="6.21962">
        <ele>1553.8</ele>
        <time>2022-09-18T10:14:21Z</time>
      </trkpt>
      <trkpt lat="44.59972" lon="6.21966">
        <ele>1553.8</ele>
        <time>2022-09-18T10:14:22Z</time>
      </trkpt>
      <trkpt lat="44.59971" lon="6.2197">
        <ele>1553.8</ele>
        <time>2022-09-18T10:14:23Z</time>
      </trkpt>
      <trkpt lat="44.5997" lon="6.21973">
        <ele>1553.8</ele>
        <time>2022-09-18T10:14:24Z</time>
      </trkpt>
      <trkpt lat="44.59969" lon="6.21977">
        <ele>1553.8</ele>
        <time>2022-09-18T10:14:25Z</time>
      </trkpt>
      <trkpt lat="44.59968" lon="6.21981">
        <ele>1553.8</ele>
        <time>2022-09-18T10:14:26Z</time>
      </trkpt>
      <trkpt lat="44.59967" lon="6.21985">
        <ele>1553.8</ele>
        <time>2022-09-18T10:14:27Z</time>
      </trkpt>
      <trkpt lat="44.59966" lon="6.21988">
        <ele>1554</ele>
        <time>2022-09-18T10:14:28Z</time>
      </trkpt>
      <trkpt lat="44.59964" lon="6.21992">
        <ele>1554.2</ele>
        <time>2022-09-18T10:14:29Z</time>
      </trkpt>
      <trkpt lat="44.59963" lon="6.21996">
        <ele>1554.2</ele>
        <time>2022-09-18T10:14:30Z</time>
      </trkpt>
      <trkpt lat="44.59963" lon="6.22">
        <ele>1554.2</ele>
        <time>2022-09-18T10:14:31Z</time>
      </trkpt>
      <trkpt lat="44.59962" lon="6.22004">
        <ele>1554.2</ele>
        <time>2022-09-18T10:14:32Z</time>
      </trkpt>
      <trkpt lat="44.59962" lon="6.22008">
        <ele>1554.4</ele>
        <time>2022-09-18T10:14:33Z</time>
      </trkpt>
      <trkpt lat="44.59962" lon="6.22012">
        <ele>1554.6</ele>
        <time>2022-09-18T10:14:34Z</time>
      </trkpt>
      <trkpt lat="44.59962" lon="6.22016">
        <ele>1554.6</ele>
        <time>2022-09-18T10:14:35Z</time>
      </trkpt>
      <trkpt lat="44.59962" lon="6.2202">
        <ele>1554.6</ele>
        <time>2022-09-18T10:14:36Z</time>
      </trkpt>
      <trkpt lat="44.59963" lon="6.22024">
        <ele>1554.8</ele>
        <time>2022-09-18T10:14:37Z</time>
      </trkpt>
      <trkpt lat="44.59964" lon="6.22027">
        <ele>1554.8</ele>
        <time>2022-09-18T10:14:38Z</time>
      </trkpt>
      <trkpt lat="44.59965" lon="6.22031">
        <ele>1554.8</ele>
        <time>2022-09-18T10:14:39Z</time>
      </trkpt>
      <trkpt lat="44.59967" lon="6.22034">
        <ele>1555</ele>
        <time>2022-09-18T10:14:40Z</time>
      </trkpt>
      <trkpt lat="44.59968" lon="6.22038">
        <ele>1555.2</ele>
        <time>2022-09-18T10:14:41Z</time>
      </trkpt>
      <trkpt lat="44.59969" lon="6.22041">
        <ele>1555.4</ele>
        <time>2022-09-18T10:14:42Z</time>
      </trkpt>
      <trkpt lat="44.59971" lon="6.22045">
        <ele>1555.8</ele>
        <time>2022-09-18T10:14:43Z</time>
      </trkpt>
      <trkpt lat="44.59972" lon="6.22048">
        <ele>1556.2</ele>
        <time>2022-09-18T10:14:44Z</time>
      </trkpt>
      <trkpt lat="44.59974" lon="6.22051">
        <ele>1556.6</ele>
        <time>2022-09-18T10:14:45Z</time>
      </trkpt>
      <trkpt lat="44.59976" lon="6.22055">
        <ele>1557</ele>
        <time>2022-09-18T10:14:46Z</time>
      </trkpt>
      <trkpt lat="44.59978" lon="6.22057">
        <ele>1557.4</ele>
        <time>2022-09-18T10:14:47Z</time>
      </trkpt>
      <trkpt lat="44.5998" lon="6.2206">
        <ele>1557.8</ele>
        <time>2022-09-18T10:14:48Z</time>
      </trkpt>
      <trkpt lat="44.59983" lon="6.22062">
        <ele>1558</ele>
        <time>2022-09-18T10:14:49Z</time>
      </trkpt>
      <trkpt lat="44.59985" lon="6.22064">
        <ele>1558.4</ele>
        <time>2022-09-18T10:14:50Z</time>
      </trkpt>
      <trkpt lat="44.59988" lon="6.22065">
        <ele>1558.6</ele>
        <time>2022-09-18T10:14:51Z</time>
      </trkpt>
      <trkpt lat="44.5999" lon="6.22067">
        <ele>1559</ele>
        <time>2022-09-18T10:14:52Z</time>
      </trkpt>
      <trkpt lat="44.59993" lon="6.22069">
        <ele>1559.4</ele>
        <time>2022-09-18T10:14:53Z</time>
      </trkpt>
      <trkpt lat="44.59995" lon="6.2207">
        <ele>1559.8</ele>
        <time>2022-09-18T10:14:54Z</time>
      </trkpt>
      <trkpt lat="44.59998" lon="6.22071">
        <ele>1560.2</ele>
        <time>2022-09-18T10:14:55Z</time>
      </trkpt>
      <trkpt lat="44.6" lon="6.22071">
        <ele>1560.6</ele>
        <time>2022-09-18T10:14:56Z</time>
      </trkpt>
      <trkpt lat="44.60003" lon="6.22071">
        <ele>1560.8</ele>
        <time>2022-09-18T10:14:57Z</time>
      </trkpt>
      <trkpt lat="44.60005" lon="6.22071">
        <ele>1561</ele>
        <time>2022-09-18T10:14:58Z</time>
      </trkpt>
      <trkpt lat="44.60007" lon="6.22071">
        <ele>1561.2</ele>
        <time>2022-09-18T10:14:59Z</time>
      </trkpt>
      <trkpt lat="44.60009" lon="6.2207">
        <ele>1561.4</ele>
        <time>2022-09-18T10:15:00Z</time>
      </trkpt>
      <trkpt lat="44.60011" lon="6.22069">
        <ele>1561.8</ele>
        <time>2022-09-18T10:15:01Z</time>
      </trkpt>
      <trkpt lat="44.60014" lon="6.22067">
        <ele>1562.4</ele>
        <time>2022-09-18T10:15:03Z</time>
      </trkpt>
      <trkpt lat="44.60015" lon="6.22064">
        <ele>1563</ele>
        <time>2022-09-18T10:15:05Z</time>
      </trkpt>
      <trkpt lat="44.60015" lon="6.2206">
        <ele>1563.8</ele>
        <time>2022-09-18T10:15:12Z</time>
      </trkpt>
      <trkpt lat="44.60014" lon="6.22056">
        <ele>1563.8</ele>
        <time>2022-09-18T10:15:14Z</time>
      </trkpt>
      <trkpt lat="44.60013" lon="6.22052">
        <ele>1564</ele>
        <time>2022-09-18T10:15:16Z</time>
      </trkpt>
      <trkpt lat="44.60013" lon="6.22049">
        <ele>1563.4</ele>
        <time>2022-09-18T10:15:25Z</time>
      </trkpt>
      <trkpt lat="44.60011" lon="6.22047">
        <ele>1558.6</ele>
        <time>2022-09-18T10:15:48Z</time>
      </trkpt>
      <trkpt lat="44.60013" lon="6.22046">
        <ele>1553.6</ele>
        <time>2022-09-18T10:17:31Z</time>
      </trkpt>
      <trkpt lat="44.60011" lon="6.22046">
        <ele>1553.6</ele>
        <time>2022-09-18T10:17:47Z</time>
      </trkpt>
      <trkpt lat="44.60012" lon="6.22049">
        <ele>1551.6</ele>
        <time>2022-09-18T10:18:03Z</time>
      </trkpt>
      <trkpt lat="44.60013" lon="6.22051">
        <ele>1550.4</ele>
        <time>2022-09-18T10:21:30Z</time>
      </trkpt>
      <trkpt lat="44.60013" lon="6.22054">
        <ele>1551</ele>
        <time>2022-09-18T10:21:32Z</time>
      </trkpt>
      <trkpt lat="44.60015" lon="6.22053">
        <ele>1559.4</ele>
        <time>2022-09-18T10:22:39Z</time>
      </trkpt>
      <trkpt lat="44.60015" lon="6.22056">
        <ele>1563.6</ele>
        <time>2022-09-18T10:23:12Z</time>
      </trkpt>
      <trkpt lat="44.60015" lon="6.22058">
        <ele>1563.8</ele>
        <time>2022-09-18T10:23:14Z</time>
      </trkpt>
      <trkpt lat="44.60016" lon="6.22061">
        <ele>1563.8</ele>
        <time>2022-09-18T10:23:16Z</time>
      </trkpt>
      <trkpt lat="44.60018" lon="6.22063">
        <ele>1564.2</ele>
        <time>2022-09-18T10:23:18Z</time>
      </trkpt>
      <trkpt lat="44.6002" lon="6.22062">
        <ele>1565.2</ele>
        <time>2022-09-18T10:23:30Z</time>
      </trkpt>
      <trkpt lat="44.60022" lon="6.22061">
        <ele>1565.4</ele>
        <time>2022-09-18T10:23:33Z</time>
      </trkpt>
      <trkpt lat="44.60024" lon="6.22061">
        <ele>1565.6</ele>
        <time>2022-09-18T10:23:35Z</time>
      </trkpt>
      <trkpt lat="44.60027" lon="6.22059">
        <ele>1565.8</ele>
        <time>2022-09-18T10:23:37Z</time>
      </trkpt>
      <trkpt lat="44.6003" lon="6.22057">
        <ele>1566</ele>
        <time>2022-09-18T10:23:39Z</time>
      </trkpt>
      <trkpt lat="44.60032" lon="6.22057">
        <ele>1566</ele>
        <time>2022-09-18T10:23:40Z</time>
      </trkpt>
      <trkpt lat="44.60034" lon="6.22056">
        <ele>1566.2</ele>
        <time>2022-09-18T10:23:41Z</time>
      </trkpt>
      <trkpt lat="44.60036" lon="6.22055">
        <ele>1566.6</ele>
        <time>2022-09-18T10:23:42Z</time>
      </trkpt>
      <trkpt lat="44.60038" lon="6.22055">
        <ele>1566.6</ele>
        <time>2022-09-18T10:23:43Z</time>
      </trkpt>
      <trkpt lat="44.6004" lon="6.22054">
        <ele>1566.4</ele>
        <time>2022-09-18T10:23:44Z</time>
      </trkpt>
      <trkpt lat="44.60042" lon="6.22054">
        <ele>1566.2</ele>
        <time>2022-09-18T10:23:45Z</time>
      </trkpt>
      <trkpt lat="44.60044" lon="6.22053">
        <ele>1566.4</ele>
        <time>2022-09-18T10:23:46Z</time>
      </trkpt>
      <trkpt lat="44.60046" lon="6.22052">
        <ele>1566.4</ele>
        <time>2022-09-18T10:23:47Z</time>
      </trkpt>
      <trkpt lat="44.60048" lon="6.22051">
        <ele>1566.4</ele>
        <time>2022-09-18T10:23:48Z</time>
      </trkpt>
      <trkpt lat="44.6005" lon="6.2205">
        <ele>1566.6</ele>
        <time>2022-09-18T10:23:49Z</time>
      </trkpt>
      <trkpt lat="44.60052" lon="6.22048">
        <ele>1567</ele>
        <time>2022-09-18T10:23:50Z</time>
      </trkpt>
      <trkpt lat="44.60055" lon="6.22047">
        <ele>1567</ele>
        <time>2022-09-18T10:23:51Z</time>
      </trkpt>
      <trkpt lat="44.60057" lon="6.22046">
        <ele>1567.2</ele>
        <time>2022-09-18T10:23:52Z</time>
      </trkpt>
      <trkpt lat="44.60059" lon="6.22044">
        <ele>1567.4</ele>
        <time>2022-09-18T10:23:53Z</time>
      </trkpt>
      <trkpt lat="44.60061" lon="6.22043">
        <ele>1567.8</ele>
        <time>2022-09-18T10:23:54Z</time>
      </trkpt>
      <trkpt lat="44.60064" lon="6.22041">
        <ele>1568</ele>
        <time>2022-09-18T10:23:55Z</time>
      </trkpt>
      <trkpt lat="44.60066" lon="6.22039">
        <ele>1568.6</ele>
        <time>2022-09-18T10:23:56Z</time>
      </trkpt>
      <trkpt lat="44.60068" lon="6.22038">
        <ele>1568.8</ele>
        <time>2022-09-18T10:23:57Z</time>
      </trkpt>
      <trkpt lat="44.6007" lon="6.22037">
        <ele>1569.4</ele>
        <time>2022-09-18T10:23:58Z</time>
      </trkpt>
      <trkpt lat="44.60073" lon="6.22035">
        <ele>1570</ele>
        <time>2022-09-18T10:23:59Z</time>
      </trkpt>
      <trkpt lat="44.60075" lon="6.22034">
        <ele>1570.4</ele>
        <time>2022-09-18T10:24:00Z</time>
      </trkpt>
      <trkpt lat="44.60078" lon="6.22032">
        <ele>1570.8</ele>
        <time>2022-09-18T10:24:01Z</time>
      </trkpt>
      <trkpt lat="44.60081" lon="6.22031">
        <ele>1571.2</ele>
        <time>2022-09-18T10:24:02Z</time>
      </trkpt>
      <trkpt lat="44.60083" lon="6.22029">
        <ele>1571.6</ele>
        <time>2022-09-18T10:24:03Z</time>
      </trkpt>
      <trkpt lat="44.60086" lon="6.22028">
        <ele>1572.2</ele>
        <time>2022-09-18T10:24:04Z</time>
      </trkpt>
      <trkpt lat="44.60089" lon="6.22026">
        <ele>1573</ele>
        <time>2022-09-18T10:24:05Z</time>
      </trkpt>
      <trkpt lat="44.60092" lon="6.22025">
        <ele>1573.6</ele>
        <time>2022-09-18T10:24:06Z</time>
      </trkpt>
      <trkpt lat="44.60095" lon="6.22023">
        <ele>1574</ele>
        <time>2022-09-18T10:24:07Z</time>
      </trkpt>
      <trkpt lat="44.60098" lon="6.22021">
        <ele>1574.2</ele>
        <time>2022-09-18T10:24:08Z</time>
      </trkpt>
      <trkpt lat="44.60101" lon="6.22019">
        <ele>1574.4</ele>
        <time>2022-09-18T10:24:09Z</time>
      </trkpt>
      <trkpt lat="44.60104" lon="6.22018">
        <ele>1574.8</ele>
        <time>2022-09-18T10:24:10Z</time>
      </trkpt>
      <trkpt lat="44.60107" lon="6.22016">
        <ele>1574.8</ele>
        <time>2022-09-18T10:24:11Z</time>
      </trkpt>
      <trkpt lat="44.6011" lon="6.22014">
        <ele>1575</ele>
        <time>2022-09-18T10:24:12Z</time>
      </trkpt>
      <trkpt lat="44.60113" lon="6.22012">
        <ele>1575.4</ele>
        <time>2022-09-18T10:24:13Z</time>
      </trkpt>
      <trkpt lat="44.60116" lon="6.22011">
        <ele>1575.6</ele>
        <time>2022-09-18T10:24:14Z</time>
      </trkpt>
      <trkpt lat="44.60119" lon="6.2201">
        <ele>1576</ele>
        <time>2022-09-18T10:24:15Z</time>
      </trkpt>
      <trkpt lat="44.60122" lon="6.22008">
        <ele>1576.4</ele>
        <time>2022-09-18T10:24:16Z</time>
      </trkpt>
      <trkpt lat="44.60125" lon="6.22007">
        <ele>1576.8</ele>
        <time>2022-09-18T10:24:17Z</time>
      </trkpt>
      <trkpt lat="44.60128" lon="6.22005">
        <ele>1577.4</ele>
        <time>2022-09-18T10:24:18Z</time>
      </trkpt>
      <trkpt lat="44.60131" lon="6.22004">
        <ele>1577.8</ele>
        <time>2022-09-18T10:24:19Z</time>
      </trkpt>
      <trkpt lat="44.60134" lon="6.22003">
        <ele>1578.4</ele>
        <time>2022-09-18T10:24:20Z</time>
      </trkpt>
      <trkpt lat="44.60137" lon="6.22001">
        <ele>1578.6</ele>
        <time>2022-09-18T10:24:21Z</time>
      </trkpt>
      <trkpt lat="44.60141" lon="6.22">
        <ele>1578.6</ele>
        <time>2022-09-18T10:24:22Z</time>
      </trkpt>
      <trkpt lat="44.60144" lon="6.21999">
        <ele>1578.6</ele>
        <time>2022-09-18T10:24:23Z</time>
      </trkpt>
      <trkpt lat="44.60148" lon="6.21997">
        <ele>1578.8</ele>
        <time>2022-09-18T10:24:24Z</time>
      </trkpt>
      <trkpt lat="44.60152" lon="6.21996">
        <ele>1579</ele>
        <time>2022-09-18T10:24:25Z</time>
      </trkpt>
      <trkpt lat="44.60156" lon="6.21995">
        <ele>1579.2</ele>
        <time>2022-09-18T10:24:26Z</time>
      </trkpt>
      <trkpt lat="44.6016" lon="6.21993">
        <ele>1579.8</ele>
        <time>2022-09-18T10:24:27Z</time>
      </trkpt>
      <trkpt lat="44.60165" lon="6.21991">
        <ele>1580.6</ele>
        <time>2022-09-18T10:24:28Z</time>
      </trkpt>
      <trkpt lat="44.60169" lon="6.21989">
        <ele>1581.2</ele>
        <time>2022-09-18T10:24:29Z</time>
      </trkpt>
      <trkpt lat="44.60173" lon="6.21987">
        <ele>1581.8</ele>
        <time>2022-09-18T10:24:30Z</time>
      </trkpt>
      <trkpt lat="44.60177" lon="6.21986">
        <ele>1582</ele>
        <time>2022-09-18T10:24:31Z</time>
      </trkpt>
      <trkpt lat="44.60181" lon="6.21984">
        <ele>1582.2</ele>
        <time>2022-09-18T10:24:32Z</time>
      </trkpt>
      <trkpt lat="44.60186" lon="6.21983">
        <ele>1582.6</ele>
        <time>2022-09-18T10:24:33Z</time>
      </trkpt>
      <trkpt lat="44.6019" lon="6.21981">
        <ele>1582.8</ele>
        <time>2022-09-18T10:24:34Z</time>
      </trkpt>
      <trkpt lat="44.60195" lon="6.21979">
        <ele>1583.2</ele>
        <time>2022-09-18T10:24:35Z</time>
      </trkpt>
      <trkpt lat="44.602" lon="6.21977">
        <ele>1583</ele>
        <time>2022-09-18T10:24:36Z</time>
      </trkpt>
      <trkpt lat="44.60205" lon="6.21975">
        <ele>1583.2</ele>
        <time>2022-09-18T10:24:37Z</time>
      </trkpt>
      <trkpt lat="44.6021" lon="6.21973">
        <ele>1583.4</ele>
        <time>2022-09-18T10:24:38Z</time>
      </trkpt>
      <trkpt lat="44.60214" lon="6.21971">
        <ele>1583.2</ele>
        <time>2022-09-18T10:24:39Z</time>
      </trkpt>
      <trkpt lat="44.60218" lon="6.21969">
        <ele>1583.2</ele>
        <time>2022-09-18T10:24:40Z</time>
      </trkpt>
      <trkpt lat="44.60222" lon="6.21968">
        <ele>1582.8</ele>
        <time>2022-09-18T10:24:41Z</time>
      </trkpt>
      <trkpt lat="44.60226" lon="6.21966">
        <ele>1582.6</ele>
        <time>2022-09-18T10:24:42Z</time>
      </trkpt>
      <trkpt lat="44.60231" lon="6.21965">
        <ele>1582.6</ele>
        <time>2022-09-18T10:24:43Z</time>
      </trkpt>
      <trkpt lat="44.60235" lon="6.21963">
        <ele>1582.6</ele>
        <time>2022-09-18T10:24:44Z</time>
      </trkpt>
      <trkpt lat="44.6024" lon="6.21962">
        <ele>1582.6</ele>
        <time>2022-09-18T10:24:45Z</time>
      </trkpt>
      <trkpt lat="44.60244" lon="6.2196">
        <ele>1582.8</ele>
        <time>2022-09-18T10:24:46Z</time>
      </trkpt>
      <trkpt lat="44.60249" lon="6.21959">
        <ele>1582.4</ele>
        <time>2022-09-18T10:24:47Z</time>
      </trkpt>
      <trkpt lat="44.60253" lon="6.21957">
        <ele>1582.2</ele>
        <time>2022-09-18T10:24:48Z</time>
      </trkpt>
      <trkpt lat="44.60258" lon="6.21956">
        <ele>1582.2</ele>
        <time>2022-09-18T10:24:49Z</time>
      </trkpt>
      <trkpt lat="44.60263" lon="6.21954">
        <ele>1582.4</ele>
        <time>2022-09-18T10:24:50Z</time>
      </trkpt>
      <trkpt lat="44.60268" lon="6.21953">
        <ele>1582.4</ele>
        <time>2022-09-18T10:24:51Z</time>
      </trkpt>
      <trkpt lat="44.60273" lon="6.21952">
        <ele>1582.2</ele>
        <time>2022-09-18T10:24:52Z</time>
      </trkpt>
      <trkpt lat="44.60278" lon="6.21951">
        <ele>1582</ele>
        <time>2022-09-18T10:24:53Z</time>
      </trkpt>
      <trkpt lat="44.60283" lon="6.2195">
        <ele>1581.6</ele>
        <time>2022-09-18T10:24:54Z</time>
      </trkpt>
      <trkpt lat="44.60287" lon="6.21949">
        <ele>1581.6</ele>
        <time>2022-09-18T10:24:55Z</time>
      </trkpt>
      <trkpt lat="44.60292" lon="6.21948">
        <ele>1581.6</ele>
        <time>2022-09-18T10:24:56Z</time>
      </trkpt>
      <trkpt lat="44.60297" lon="6.21947">
        <ele>1581</ele>
        <time>2022-09-18T10:24:57Z</time>
      </trkpt>
      <trkpt lat="44.60303" lon="6.21946">
        <ele>1581</ele>
        <time>2022-09-18T10:24:58Z</time>
      </trkpt>
      <trkpt lat="44.60308" lon="6.21945">
        <ele>1581.2</ele>
        <time>2022-09-18T10:24:59Z</time>
      </trkpt>
      <trkpt lat="44.60313" lon="6.21944">
        <ele>1581</ele>
        <time>2022-09-18T10:25:00Z</time>
      </trkpt>
      <trkpt lat="44.60318" lon="6.21942">
        <ele>1580.8</ele>
        <time>2022-09-18T10:25:01Z</time>
      </trkpt>
      <trkpt lat="44.60323" lon="6.21941">
        <ele>1580.8</ele>
        <time>2022-09-18T10:25:02Z</time>
      </trkpt>
      <trkpt lat="44.60329" lon="6.2194">
        <ele>1579.8</ele>
        <time>2022-09-18T10:25:03Z</time>
      </trkpt>
      <trkpt lat="44.60335" lon="6.2194">
        <ele>1579.6</ele>
        <time>2022-09-18T10:25:04Z</time>
      </trkpt>
      <trkpt lat="44.6034" lon="6.21939">
        <ele>1579.8</ele>
        <time>2022-09-18T10:25:05Z</time>
      </trkpt>
      <trkpt lat="44.60346" lon="6.21939">
        <ele>1579.6</ele>
        <time>2022-09-18T10:25:06Z</time>
      </trkpt>
      <trkpt lat="44.60351" lon="6.21938">
        <ele>1579.4</ele>
        <time>2022-09-18T10:25:07Z</time>
      </trkpt>
      <trkpt lat="44.60357" lon="6.21938">
        <ele>1579.4</ele>
        <time>2022-09-18T10:25:08Z</time>
      </trkpt>
      <trkpt lat="44.60362" lon="6.21937">
        <ele>1579</ele>
        <time>2022-09-18T10:25:09Z</time>
      </trkpt>
      <trkpt lat="44.60368" lon="6.21936">
        <ele>1578.8</ele>
        <time>2022-09-18T10:25:10Z</time>
      </trkpt>
      <trkpt lat="44.60373" lon="6.21935">
        <ele>1578.4</ele>
        <time>2022-09-18T10:25:11Z</time>
      </trkpt>
      <trkpt lat="44.60379" lon="6.21934">
        <ele>1578.2</ele>
        <time>2022-09-18T10:25:12Z</time>
      </trkpt>
      <trkpt lat="44.60384" lon="6.21933">
        <ele>1577.8</ele>
        <time>2022-09-18T10:25:13Z</time>
      </trkpt>
      <trkpt lat="44.60389" lon="6.21933">
        <ele>1577.4</ele>
        <time>2022-09-18T10:25:14Z</time>
      </trkpt>
      <trkpt lat="44.60395" lon="6.21933">
        <ele>1577.2</ele>
        <time>2022-09-18T10:25:15Z</time>
      </trkpt>
      <trkpt lat="44.604" lon="6.21933">
        <ele>1576.8</ele>
        <time>2022-09-18T10:25:16Z</time>
      </trkpt>
      <trkpt lat="44.60406" lon="6.21933">
        <ele>1576.6</ele>
        <time>2022-09-18T10:25:17Z</time>
      </trkpt>
      <trkpt lat="44.60412" lon="6.21933">
        <ele>1577.2</ele>
        <time>2022-09-18T10:25:18Z</time>
      </trkpt>
      <trkpt lat="44.60417" lon="6.21933">
        <ele>1577</ele>
        <time>2022-09-18T10:25:19Z</time>
      </trkpt>
      <trkpt lat="44.60423" lon="6.21932">
        <ele>1576.2</ele>
        <time>2022-09-18T10:25:20Z</time>
      </trkpt>
      <trkpt lat="44.60429" lon="6.21931">
        <ele>1575.4</ele>
        <time>2022-09-18T10:25:21Z</time>
      </trkpt>
      <trkpt lat="44.60434" lon="6.21929">
        <ele>1574.8</ele>
        <time>2022-09-18T10:25:22Z</time>
      </trkpt>
      <trkpt lat="44.60439" lon="6.21927">
        <ele>1574.6</ele>
        <time>2022-09-18T10:25:23Z</time>
      </trkpt>
      <trkpt lat="44.60445" lon="6.21925">
        <ele>1574.4</ele>
        <time>2022-09-18T10:25:24Z</time>
      </trkpt>
      <trkpt lat="44.60449" lon="6.21922">
        <ele>1574</ele>
        <time>2022-09-18T10:25:25Z</time>
      </trkpt>
      <trkpt lat="44.60454" lon="6.21919">
        <ele>1573.4</ele>
        <time>2022-09-18T10:25:26Z</time>
      </trkpt>
      <trkpt lat="44.60458" lon="6.21916">
        <ele>1573</ele>
        <time>2022-09-18T10:25:27Z</time>
      </trkpt>
      <trkpt lat="44.60462" lon="6.21913">
        <ele>1572.6</ele>
        <time>2022-09-18T10:25:28Z</time>
      </trkpt>
      <trkpt lat="44.60466" lon="6.2191">
        <ele>1572.4</ele>
        <time>2022-09-18T10:25:29Z</time>
      </trkpt>
      <trkpt lat="44.6047" lon="6.21906">
        <ele>1572</ele>
        <time>2022-09-18T10:25:30Z</time>
      </trkpt>
      <trkpt lat="44.60474" lon="6.21902">
        <ele>1571.4</ele>
        <time>2022-09-18T10:25:31Z</time>
      </trkpt>
      <trkpt lat="44.60478" lon="6.21898">
        <ele>1571.4</ele>
        <time>2022-09-18T10:25:32Z</time>
      </trkpt>
      <trkpt lat="44.60482" lon="6.21894">
        <ele>1571</ele>
        <time>2022-09-18T10:25:33Z</time>
      </trkpt>
      <trkpt lat="44.60486" lon="6.2189">
        <ele>1570.6</ele>
        <time>2022-09-18T10:25:34Z</time>
      </trkpt>
      <trkpt lat="44.6049" lon="6.21887">
        <ele>1570.2</ele>
        <time>2022-09-18T10:25:35Z</time>
      </trkpt>
      <trkpt lat="44.60495" lon="6.21885">
        <ele>1570</ele>
        <time>2022-09-18T10:25:36Z</time>
      </trkpt>
      <trkpt lat="44.60499" lon="6.21882">
        <ele>1569.6</ele>
        <time>2022-09-18T10:25:37Z</time>
      </trkpt>
      <trkpt lat="44.60504" lon="6.2188">
        <ele>1569.4</ele>
        <time>2022-09-18T10:25:38Z</time>
      </trkpt>
      <trkpt lat="44.6051" lon="6.21879">
        <ele>1569.2</ele>
        <time>2022-09-18T10:25:39Z</time>
      </trkpt>
      <trkpt lat="44.60515" lon="6.21878">
        <ele>1568.6</ele>
        <time>2022-09-18T10:25:40Z</time>
      </trkpt>
      <trkpt lat="44.60521" lon="6.21877">
        <ele>1568.4</ele>
        <time>2022-09-18T10:25:41Z</time>
      </trkpt>
      <trkpt lat="44.60526" lon="6.21877">
        <ele>1567.8</ele>
        <time>2022-09-18T10:25:42Z</time>
      </trkpt>
      <trkpt lat="44.60532" lon="6.21879">
        <ele>1567.6</ele>
        <time>2022-09-18T10:25:43Z</time>
      </trkpt>
      <trkpt lat="44.60538" lon="6.2188">
        <ele>1567.2</ele>
        <time>2022-09-18T10:25:44Z</time>
      </trkpt>
      <trkpt lat="44.60544" lon="6.21882">
        <ele>1566.6</ele>
        <time>2022-09-18T10:25:45Z</time>
      </trkpt>
      <trkpt lat="44.6055" lon="6.21884">
        <ele>1566</ele>
        <time>2022-09-18T10:25:46Z</time>
      </trkpt>
      <trkpt lat="44.60556" lon="6.21886">
        <ele>1565.4</ele>
        <time>2022-09-18T10:25:47Z</time>
      </trkpt>
      <trkpt lat="44.60562" lon="6.21888">
        <ele>1564.8</ele>
        <time>2022-09-18T10:25:48Z</time>
      </trkpt>
      <trkpt lat="44.60567" lon="6.21889">
        <ele>1564.4</ele>
        <time>2022-09-18T10:25:49Z</time>
      </trkpt>
      <trkpt lat="44.60573" lon="6.2189">
        <ele>1563.6</ele>
        <time>2022-09-18T10:25:50Z</time>
      </trkpt>
      <trkpt lat="44.60578" lon="6.21892">
        <ele>1563</ele>
        <time>2022-09-18T10:25:51Z</time>
      </trkpt>
      <trkpt lat="44.60584" lon="6.21893">
        <ele>1562.6</ele>
        <time>2022-09-18T10:25:52Z</time>
      </trkpt>
      <trkpt lat="44.60589" lon="6.21895">
        <ele>1562.4</ele>
        <time>2022-09-18T10:25:53Z</time>
      </trkpt>
      <trkpt lat="44.60595" lon="6.21897">
        <ele>1562</ele>
        <time>2022-09-18T10:25:54Z</time>
      </trkpt>
      <trkpt lat="44.606" lon="6.21898">
        <ele>1561.6</ele>
        <time>2022-09-18T10:25:55Z</time>
      </trkpt>
      <trkpt lat="44.60606" lon="6.219">
        <ele>1561</ele>
        <time>2022-09-18T10:25:56Z</time>
      </trkpt>
      <trkpt lat="44.60611" lon="6.21901">
        <ele>1560.8</ele>
        <time>2022-09-18T10:25:57Z</time>
      </trkpt>
      <trkpt lat="44.60617" lon="6.21903">
        <ele>1560.6</ele>
        <time>2022-09-18T10:25:58Z</time>
      </trkpt>
      <trkpt lat="44.60623" lon="6.21905">
        <ele>1560</ele>
        <time>2022-09-18T10:25:59Z</time>
      </trkpt>
      <trkpt lat="44.60628" lon="6.21906">
        <ele>1559.8</ele>
        <time>2022-09-18T10:26:00Z</time>
      </trkpt>
      <trkpt lat="44.60634" lon="6.21909">
        <ele>1558.6</ele>
        <time>2022-09-18T10:26:01Z</time>
      </trkpt>
      <trkpt lat="44.60639" lon="6.21911">
        <ele>1558</ele>
        <time>2022-09-18T10:26:02Z</time>
      </trkpt>
      <trkpt lat="44.60646" lon="6.21913">
        <ele>1557.4</ele>
        <time>2022-09-18T10:26:03Z</time>
      </trkpt>
      <trkpt lat="44.60652" lon="6.21916">
        <ele>1557.2</ele>
        <time>2022-09-18T10:26:04Z</time>
      </trkpt>
      <trkpt lat="44.60659" lon="6.21918">
        <ele>1557.2</ele>
        <time>2022-09-18T10:26:05Z</time>
      </trkpt>
      <trkpt lat="44.60665" lon="6.21922">
        <ele>1556.6</ele>
        <time>2022-09-18T10:26:06Z</time>
      </trkpt>
      <trkpt lat="44.60671" lon="6.21928">
        <ele>1556</ele>
        <time>2022-09-18T10:26:07Z</time>
      </trkpt>
      <trkpt lat="44.60677" lon="6.21934">
        <ele>1555.8</ele>
        <time>2022-09-18T10:26:08Z</time>
      </trkpt>
      <trkpt lat="44.60683" lon="6.21941">
        <ele>1555</ele>
        <time>2022-09-18T10:26:09Z</time>
      </trkpt>
      <trkpt lat="44.60688" lon="6.21946">
        <ele>1554</ele>
        <time>2022-09-18T10:26:10Z</time>
      </trkpt>
      <trkpt lat="44.60694" lon="6.21951">
        <ele>1553.2</ele>
        <time>2022-09-18T10:26:11Z</time>
      </trkpt>
      <trkpt lat="44.607" lon="6.21954">
        <ele>1552.4</ele>
        <time>2022-09-18T10:26:12Z</time>
      </trkpt>
      <trkpt lat="44.60707" lon="6.21954">
        <ele>1552</ele>
        <time>2022-09-18T10:26:13Z</time>
      </trkpt>
      <trkpt lat="44.60714" lon="6.21953">
        <ele>1551.2</ele>
        <time>2022-09-18T10:26:14Z</time>
      </trkpt>
      <trkpt lat="44.60721" lon="6.21949">
        <ele>1551.2</ele>
        <time>2022-09-18T10:26:15Z</time>
      </trkpt>
      <trkpt lat="44.60726" lon="6.21942">
        <ele>1550.8</ele>
        <time>2022-09-18T10:26:16Z</time>
      </trkpt>
      <trkpt lat="44.60728" lon="6.2193">
        <ele>1550</ele>
        <time>2022-09-18T10:26:17Z</time>
      </trkpt>
      <trkpt lat="44.6073" lon="6.21917">
        <ele>1549.2</ele>
        <time>2022-09-18T10:26:18Z</time>
      </trkpt>
      <trkpt lat="44.6073" lon="6.21904">
        <ele>1549</ele>
        <time>2022-09-18T10:26:19Z</time>
      </trkpt>
      <trkpt lat="44.60729" lon="6.21891">
        <ele>1548.8</ele>
        <time>2022-09-18T10:26:20Z</time>
      </trkpt>
      <trkpt lat="44.60726" lon="6.21877">
        <ele>1548.8</ele>
        <time>2022-09-18T10:26:21Z</time>
      </trkpt>
      <trkpt lat="44.60724" lon="6.21864">
        <ele>1547.8</ele>
        <time>2022-09-18T10:26:22Z</time>
      </trkpt>
      <trkpt lat="44.60724" lon="6.2185">
        <ele>1547.4</ele>
        <time>2022-09-18T10:26:23Z</time>
      </trkpt>
      <trkpt lat="44.60726" lon="6.21838">
        <ele>1546.6</ele>
        <time>2022-09-18T10:26:24Z</time>
      </trkpt>
      <trkpt lat="44.60733" lon="6.21827">
        <ele>1545.8</ele>
        <time>2022-09-18T10:26:25Z</time>
      </trkpt>
      <trkpt lat="44.6074" lon="6.21818">
        <ele>1544.6</ele>
        <time>2022-09-18T10:26:26Z</time>
      </trkpt>
      <trkpt lat="44.60747" lon="6.2181">
        <ele>1544</ele>
        <time>2022-09-18T10:26:27Z</time>
      </trkpt>
      <trkpt lat="44.60752" lon="6.21801">
        <ele>1543.8</ele>
        <time>2022-09-18T10:26:28Z</time>
      </trkpt>
      <trkpt lat="44.60753" lon="6.21792">
        <ele>1543.4</ele>
        <time>2022-09-18T10:26:29Z</time>
      </trkpt>
      <trkpt lat="44.60749" lon="6.21772">
        <ele>1540.8</ele>
        <time>2022-09-18T10:26:31Z</time>
      </trkpt>
      <trkpt lat="44.60743" lon="6.21761">
        <ele>1540</ele>
        <time>2022-09-18T10:26:32Z</time>
      </trkpt>
      <trkpt lat="44.60736" lon="6.21751">
        <ele>1539.2</ele>
        <time>2022-09-18T10:26:33Z</time>
      </trkpt>
      <trkpt lat="44.60729" lon="6.21742">
        <ele>1538.6</ele>
        <time>2022-09-18T10:26:34Z</time>
      </trkpt>
      <trkpt lat="44.60722" lon="6.21734">
        <ele>1538</ele>
        <time>2022-09-18T10:26:35Z</time>
      </trkpt>
      <trkpt lat="44.60714" lon="6.21727">
        <ele>1537.6</ele>
        <time>2022-09-18T10:26:36Z</time>
      </trkpt>
      <trkpt lat="44.60709" lon="6.21718">
        <ele>1537</ele>
        <time>2022-09-18T10:26:37Z</time>
      </trkpt>
      <trkpt lat="44.60707" lon="6.21709">
        <ele>1535.8</ele>
        <time>2022-09-18T10:26:38Z</time>
      </trkpt>
      <trkpt lat="44.60711" lon="6.21701">
        <ele>1535</ele>
        <time>2022-09-18T10:26:39Z</time>
      </trkpt>
      <trkpt lat="44.60717" lon="6.21696">
        <ele>1534.6</ele>
        <time>2022-09-18T10:26:40Z</time>
      </trkpt>
      <trkpt lat="44.60723" lon="6.21694">
        <ele>1534.2</ele>
        <time>2022-09-18T10:26:41Z</time>
      </trkpt>
      <trkpt lat="44.60731" lon="6.21692">
        <ele>1534</ele>
        <time>2022-09-18T10:26:42Z</time>
      </trkpt>
      <trkpt lat="44.60737" lon="6.21688">
        <ele>1533.8</ele>
        <time>2022-09-18T10:26:43Z</time>
      </trkpt>
      <trkpt lat="44.60742" lon="6.21684">
        <ele>1533.6</ele>
        <time>2022-09-18T10:26:44Z</time>
      </trkpt>
      <trkpt lat="44.60747" lon="6.21681">
        <ele>1533</ele>
        <time>2022-09-18T10:26:45Z</time>
      </trkpt>
      <trkpt lat="44.60751" lon="6.21677">
        <ele>1532.8</ele>
        <time>2022-09-18T10:26:46Z</time>
      </trkpt>
      <trkpt lat="44.60754" lon="6.21674">
        <ele>1532.4</ele>
        <time>2022-09-18T10:26:47Z</time>
      </trkpt>
      <trkpt lat="44.60758" lon="6.2167">
        <ele>1532.2</ele>
        <time>2022-09-18T10:26:48Z</time>
      </trkpt>
      <trkpt lat="44.60761" lon="6.21666">
        <ele>1532.2</ele>
        <time>2022-09-18T10:26:49Z</time>
      </trkpt>
      <trkpt lat="44.60764" lon="6.21662">
        <ele>1532.2</ele>
        <time>2022-09-18T10:26:50Z</time>
      </trkpt>
      <trkpt lat="44.60767" lon="6.21657">
        <ele>1531.8</ele>
        <time>2022-09-18T10:26:51Z</time>
      </trkpt>
      <trkpt lat="44.6077" lon="6.21652">
        <ele>1531.8</ele>
        <time>2022-09-18T10:26:52Z</time>
      </trkpt>
      <trkpt lat="44.60774" lon="6.21646">
        <ele>1532.2</ele>
        <time>2022-09-18T10:26:53Z</time>
      </trkpt>
      <trkpt lat="44.60778" lon="6.21642">
        <ele>1532.2</ele>
        <time>2022-09-18T10:26:54Z</time>
      </trkpt>
      <trkpt lat="44.60782" lon="6.21637">
        <ele>1532</ele>
        <time>2022-09-18T10:26:55Z</time>
      </trkpt>
      <trkpt lat="44.60787" lon="6.21632">
        <ele>1531.8</ele>
        <time>2022-09-18T10:26:56Z</time>
      </trkpt>
      <trkpt lat="44.60792" lon="6.21628">
        <ele>1531.4</ele>
        <time>2022-09-18T10:26:57Z</time>
      </trkpt>
      <trkpt lat="44.60797" lon="6.21624">
        <ele>1531.2</ele>
        <time>2022-09-18T10:26:58Z</time>
      </trkpt>
      <trkpt lat="44.60802" lon="6.21621">
        <ele>1531</ele>
        <time>2022-09-18T10:26:59Z</time>
      </trkpt>
      <trkpt lat="44.60808" lon="6.21619">
        <ele>1530.8</ele>
        <time>2022-09-18T10:27:00Z</time>
      </trkpt>
      <trkpt lat="44.60815" lon="6.21618">
        <ele>1530.6</ele>
        <time>2022-09-18T10:27:01Z</time>
      </trkpt>
      <trkpt lat="44.60822" lon="6.21618">
        <ele>1530.2</ele>
        <time>2022-09-18T10:27:02Z</time>
      </trkpt>
      <trkpt lat="44.60829" lon="6.21617">
        <ele>1530</ele>
        <time>2022-09-18T10:27:03Z</time>
      </trkpt>
      <trkpt lat="44.60835" lon="6.21617">
        <ele>1529.6</ele>
        <time>2022-09-18T10:27:04Z</time>
      </trkpt>
      <trkpt lat="44.60842" lon="6.21617">
        <ele>1529</ele>
        <time>2022-09-18T10:27:05Z</time>
      </trkpt>
      <trkpt lat="44.60849" lon="6.21616">
        <ele>1528.6</ele>
        <time>2022-09-18T10:27:06Z</time>
      </trkpt>
      <trkpt lat="44.60856" lon="6.21615">
        <ele>1528.4</ele>
        <time>2022-09-18T10:27:07Z</time>
      </trkpt>
      <trkpt lat="44.60863" lon="6.21612">
        <ele>1527.8</ele>
        <time>2022-09-18T10:27:08Z</time>
      </trkpt>
      <trkpt lat="44.6087" lon="6.21609">
        <ele>1526.8</ele>
        <time>2022-09-18T10:27:09Z</time>
      </trkpt>
      <trkpt lat="44.60876" lon="6.21604">
        <ele>1526.2</ele>
        <time>2022-09-18T10:27:10Z</time>
      </trkpt>
      <trkpt lat="44.60882" lon="6.216">
        <ele>1525.8</ele>
        <time>2022-09-18T10:27:11Z</time>
      </trkpt>
      <trkpt lat="44.60887" lon="6.21595">
        <ele>1525.2</ele>
        <time>2022-09-18T10:27:12Z</time>
      </trkpt>
      <trkpt lat="44.60892" lon="6.21594">
        <ele>1524.6</ele>
        <time>2022-09-18T10:27:13Z</time>
      </trkpt>
      <trkpt lat="44.60896" lon="6.21597">
        <ele>1524</ele>
        <time>2022-09-18T10:27:14Z</time>
      </trkpt>
      <trkpt lat="44.60898" lon="6.21606">
        <ele>1523.6</ele>
        <time>2022-09-18T10:27:15Z</time>
      </trkpt>
      <trkpt lat="44.60896" lon="6.21615">
        <ele>1523</ele>
        <time>2022-09-18T10:27:16Z</time>
      </trkpt>
      <trkpt lat="44.60892" lon="6.21622">
        <ele>1523</ele>
        <time>2022-09-18T10:27:17Z</time>
      </trkpt>
      <trkpt lat="44.60887" lon="6.21628">
        <ele>1522.4</ele>
        <time>2022-09-18T10:27:18Z</time>
      </trkpt>
      <trkpt lat="44.60882" lon="6.21635">
        <ele>1521.8</ele>
        <time>2022-09-18T10:27:19Z</time>
      </trkpt>
      <trkpt lat="44.60877" lon="6.21642">
        <ele>1521.6</ele>
        <time>2022-09-18T10:27:20Z</time>
      </trkpt>
      <trkpt lat="44.60873" lon="6.21651">
        <ele>1521.4</ele>
        <time>2022-09-18T10:27:21Z</time>
      </trkpt>
      <trkpt lat="44.6087" lon="6.2166">
        <ele>1521</ele>
        <time>2022-09-18T10:27:22Z</time>
      </trkpt>
      <trkpt lat="44.60868" lon="6.21669">
        <ele>1520.6</ele>
        <time>2022-09-18T10:27:23Z</time>
      </trkpt>
      <trkpt lat="44.60868" lon="6.21678">
        <ele>1520.2</ele>
        <time>2022-09-18T10:27:24Z</time>
      </trkpt>
      <trkpt lat="44.6087" lon="6.21687">
        <ele>1519.8</ele>
        <time>2022-09-18T10:27:25Z</time>
      </trkpt>
      <trkpt lat="44.60871" lon="6.21697">
        <ele>1519.4</ele>
        <time>2022-09-18T10:27:26Z</time>
      </trkpt>
      <trkpt lat="44.60872" lon="6.21707">
        <ele>1519</ele>
        <time>2022-09-18T10:27:27Z</time>
      </trkpt>
      <trkpt lat="44.60869" lon="6.21729">
        <ele>1518.8</ele>
        <time>2022-09-18T10:27:29Z</time>
      </trkpt>
      <trkpt lat="44.60866" lon="6.2174">
        <ele>1518.4</ele>
        <time>2022-09-18T10:27:30Z</time>
      </trkpt>
      <trkpt lat="44.60862" lon="6.2175">
        <ele>1518.4</ele>
        <time>2022-09-18T10:27:31Z</time>
      </trkpt>
      <trkpt lat="44.60857" lon="6.21759">
        <ele>1518.4</ele>
        <time>2022-09-18T10:27:32Z</time>
      </trkpt>
      <trkpt lat="44.60853" lon="6.21767">
        <ele>1518.4</ele>
        <time>2022-09-18T10:27:33Z</time>
      </trkpt>
      <trkpt lat="44.60849" lon="6.21776">
        <ele>1517.8</ele>
        <time>2022-09-18T10:27:34Z</time>
      </trkpt>
      <trkpt lat="44.60845" lon="6.21792">
        <ele>1516.8</ele>
        <time>2022-09-18T10:27:36Z</time>
      </trkpt>
      <trkpt lat="44.60846" lon="6.21808">
        <ele>1516.4</ele>
        <time>2022-09-18T10:27:38Z</time>
      </trkpt>
      <trkpt lat="44.6085" lon="6.2182">
        <ele>1517.2</ele>
        <time>2022-09-18T10:27:40Z</time>
      </trkpt>
      <trkpt lat="44.60854" lon="6.21832">
        <ele>1518</ele>
        <time>2022-09-18T10:27:42Z</time>
      </trkpt>
      <trkpt lat="44.6086" lon="6.21843">
        <ele>1517.8</ele>
        <time>2022-09-18T10:27:45Z</time>
      </trkpt>
      <trkpt lat="44.60872" lon="6.21848">
        <ele>1517.6</ele>
        <time>2022-09-18T10:27:47Z</time>
      </trkpt>
      <trkpt lat="44.60885" lon="6.21848">
        <ele>1517.2</ele>
        <time>2022-09-18T10:27:49Z</time>
      </trkpt>
      <trkpt lat="44.60905" lon="6.21849">
        <ele>1517</ele>
        <time>2022-09-18T10:27:51Z</time>
      </trkpt>
      <trkpt lat="44.60914" lon="6.21848">
        <ele>1517.2</ele>
        <time>2022-09-18T10:27:52Z</time>
      </trkpt>
      <trkpt lat="44.6093" lon="6.21846">
        <ele>1517.2</ele>
        <time>2022-09-18T10:27:54Z</time>
      </trkpt>
      <trkpt lat="44.60936" lon="6.21846">
        <ele>1517</ele>
        <time>2022-09-18T10:27:55Z</time>
      </trkpt>
      <trkpt lat="44.60943" lon="6.21848">
        <ele>1517</ele>
        <time>2022-09-18T10:27:56Z</time>
      </trkpt>
      <trkpt lat="44.60949" lon="6.21849">
        <ele>1517</ele>
        <time>2022-09-18T10:27:57Z</time>
      </trkpt>
      <trkpt lat="44.60954" lon="6.21852">
        <ele>1516.8</ele>
        <time>2022-09-18T10:27:58Z</time>
      </trkpt>
      <trkpt lat="44.60959" lon="6.21856">
        <ele>1516.8</ele>
        <time>2022-09-18T10:27:59Z</time>
      </trkpt>
      <trkpt lat="44.60965" lon="6.2186">
        <ele>1516.8</ele>
        <time>2022-09-18T10:28:00Z</time>
      </trkpt>
      <trkpt lat="44.6097" lon="6.21864">
        <ele>1516.6</ele>
        <time>2022-09-18T10:28:01Z</time>
      </trkpt>
      <trkpt lat="44.60975" lon="6.21867">
        <ele>1516.4</ele>
        <time>2022-09-18T10:28:02Z</time>
      </trkpt>
      <trkpt lat="44.60979" lon="6.2187">
        <ele>1516.2</ele>
        <time>2022-09-18T10:28:03Z</time>
      </trkpt>
      <trkpt lat="44.60984" lon="6.21872">
        <ele>1516</ele>
        <time>2022-09-18T10:28:04Z</time>
      </trkpt>
      <trkpt lat="44.60989" lon="6.21874">
        <ele>1516</ele>
        <time>2022-09-18T10:28:05Z</time>
      </trkpt>
      <trkpt lat="44.60995" lon="6.21875">
        <ele>1515.6</ele>
        <time>2022-09-18T10:28:06Z</time>
      </trkpt>
      <trkpt lat="44.61001" lon="6.21875">
        <ele>1515.4</ele>
        <time>2022-09-18T10:28:07Z</time>
      </trkpt>
      <trkpt lat="44.61007" lon="6.21875">
        <ele>1515.4</ele>
        <time>2022-09-18T10:28:08Z</time>
      </trkpt>
      <trkpt lat="44.61013" lon="6.21874">
        <ele>1515.4</ele>
        <time>2022-09-18T10:28:09Z</time>
      </trkpt>
      <trkpt lat="44.61019" lon="6.21874">
        <ele>1515.6</ele>
        <time>2022-09-18T10:28:10Z</time>
      </trkpt>
      <trkpt lat="44.61025" lon="6.21874">
        <ele>1515.6</ele>
        <time>2022-09-18T10:28:11Z</time>
      </trkpt>
      <trkpt lat="44.61031" lon="6.21875">
        <ele>1515.6</ele>
        <time>2022-09-18T10:28:12Z</time>
      </trkpt>
      <trkpt lat="44.61037" lon="6.21877">
        <ele>1515.8</ele>
        <time>2022-09-18T10:28:13Z</time>
      </trkpt>
      <trkpt lat="44.61042" lon="6.21879">
        <ele>1515.6</ele>
        <time>2022-09-18T10:28:14Z</time>
      </trkpt>
      <trkpt lat="44.61048" lon="6.21881">
        <ele>1515.6</ele>
        <time>2022-09-18T10:28:15Z</time>
      </trkpt>
      <trkpt lat="44.61054" lon="6.21883">
        <ele>1515.6</ele>
        <time>2022-09-18T10:28:16Z</time>
      </trkpt>
      <trkpt lat="44.6106" lon="6.21885">
        <ele>1515.4</ele>
        <time>2022-09-18T10:28:17Z</time>
      </trkpt>
      <trkpt lat="44.61067" lon="6.21885">
        <ele>1515.4</ele>
        <time>2022-09-18T10:28:18Z</time>
      </trkpt>
      <trkpt lat="44.61075" lon="6.21884">
        <ele>1515.4</ele>
        <time>2022-09-18T10:28:19Z</time>
      </trkpt>
      <trkpt lat="44.61082" lon="6.21881">
        <ele>1514.8</ele>
        <time>2022-09-18T10:28:20Z</time>
      </trkpt>
      <trkpt lat="44.6109" lon="6.21878">
        <ele>1514.6</ele>
        <time>2022-09-18T10:28:21Z</time>
      </trkpt>
      <trkpt lat="44.61097" lon="6.21875">
        <ele>1514.2</ele>
        <time>2022-09-18T10:28:22Z</time>
      </trkpt>
      <trkpt lat="44.61105" lon="6.21872">
        <ele>1513.8</ele>
        <time>2022-09-18T10:28:23Z</time>
      </trkpt>
      <trkpt lat="44.61114" lon="6.2187">
        <ele>1513.8</ele>
        <time>2022-09-18T10:28:24Z</time>
      </trkpt>
      <trkpt lat="44.61122" lon="6.21868">
        <ele>1513.2</ele>
        <time>2022-09-18T10:28:25Z</time>
      </trkpt>
      <trkpt lat="44.61131" lon="6.21866">
        <ele>1513.2</ele>
        <time>2022-09-18T10:28:26Z</time>
      </trkpt>
      <trkpt lat="44.61139" lon="6.21865">
        <ele>1512.8</ele>
        <time>2022-09-18T10:28:27Z</time>
      </trkpt>
      <trkpt lat="44.61148" lon="6.21863">
        <ele>1512.4</ele>
        <time>2022-09-18T10:28:28Z</time>
      </trkpt>
      <trkpt lat="44.61157" lon="6.21862">
        <ele>1512</ele>
        <time>2022-09-18T10:28:29Z</time>
      </trkpt>
      <trkpt lat="44.61166" lon="6.2186">
        <ele>1511.6</ele>
        <time>2022-09-18T10:28:30Z</time>
      </trkpt>
      <trkpt lat="44.61175" lon="6.21857">
        <ele>1511.4</ele>
        <time>2022-09-18T10:28:31Z</time>
      </trkpt>
      <trkpt lat="44.61183" lon="6.21851">
        <ele>1511.4</ele>
        <time>2022-09-18T10:28:32Z</time>
      </trkpt>
      <trkpt lat="44.6119" lon="6.21843">
        <ele>1510.8</ele>
        <time>2022-09-18T10:28:33Z</time>
      </trkpt>
      <trkpt lat="44.61196" lon="6.21832">
        <ele>1510.4</ele>
        <time>2022-09-18T10:28:34Z</time>
      </trkpt>
      <trkpt lat="44.61201" lon="6.21821">
        <ele>1509.6</ele>
        <time>2022-09-18T10:28:35Z</time>
      </trkpt>
      <trkpt lat="44.61207" lon="6.21811">
        <ele>1509.2</ele>
        <time>2022-09-18T10:28:36Z</time>
      </trkpt>
      <trkpt lat="44.61214" lon="6.21801">
        <ele>1509</ele>
        <time>2022-09-18T10:28:37Z</time>
      </trkpt>
      <trkpt lat="44.61221" lon="6.21792">
        <ele>1508.6</ele>
        <time>2022-09-18T10:28:38Z</time>
      </trkpt>
      <trkpt lat="44.61229" lon="6.21785">
        <ele>1508.4</ele>
        <time>2022-09-18T10:28:39Z</time>
      </trkpt>
      <trkpt lat="44.61239" lon="6.21779">
        <ele>1508</ele>
        <time>2022-09-18T10:28:40Z</time>
      </trkpt>
      <trkpt lat="44.61249" lon="6.21775">
        <ele>1507.8</ele>
        <time>2022-09-18T10:28:41Z</time>
      </trkpt>
      <trkpt lat="44.61259" lon="6.21771">
        <ele>1507.4</ele>
        <time>2022-09-18T10:28:42Z</time>
      </trkpt>
      <trkpt lat="44.61269" lon="6.21767">
        <ele>1507.2</ele>
        <time>2022-09-18T10:28:43Z</time>
      </trkpt>
      <trkpt lat="44.61279" lon="6.21761">
        <ele>1506.4</ele>
        <time>2022-09-18T10:28:44Z</time>
      </trkpt>
      <trkpt lat="44.61289" lon="6.21756">
        <ele>1505.6</ele>
        <time>2022-09-18T10:28:45Z</time>
      </trkpt>
      <trkpt lat="44.61299" lon="6.21753">
        <ele>1504.8</ele>
        <time>2022-09-18T10:28:46Z</time>
      </trkpt>
      <trkpt lat="44.61309" lon="6.21753">
        <ele>1504.4</ele>
        <time>2022-09-18T10:28:47Z</time>
      </trkpt>
      <trkpt lat="44.61319" lon="6.21757">
        <ele>1503.2</ele>
        <time>2022-09-18T10:28:48Z</time>
      </trkpt>
      <trkpt lat="44.61329" lon="6.21763">
        <ele>1502.2</ele>
        <time>2022-09-18T10:28:49Z</time>
      </trkpt>
      <trkpt lat="44.61339" lon="6.21771">
        <ele>1501.2</ele>
        <time>2022-09-18T10:28:50Z</time>
      </trkpt>
      <trkpt lat="44.61347" lon="6.2178">
        <ele>1500.4</ele>
        <time>2022-09-18T10:28:51Z</time>
      </trkpt>
      <trkpt lat="44.61356" lon="6.21788">
        <ele>1500</ele>
        <time>2022-09-18T10:28:52Z</time>
      </trkpt>
      <trkpt lat="44.61364" lon="6.21794">
        <ele>1499.2</ele>
        <time>2022-09-18T10:28:53Z</time>
      </trkpt>
      <trkpt lat="44.61374" lon="6.21799">
        <ele>1497.6</ele>
        <time>2022-09-18T10:28:54Z</time>
      </trkpt>
      <trkpt lat="44.61384" lon="6.21802">
        <ele>1496.6</ele>
        <time>2022-09-18T10:28:55Z</time>
      </trkpt>
      <trkpt lat="44.61396" lon="6.21803">
        <ele>1495.6</ele>
        <time>2022-09-18T10:28:56Z</time>
      </trkpt>
      <trkpt lat="44.61407" lon="6.21804">
        <ele>1494.8</ele>
        <time>2022-09-18T10:28:57Z</time>
      </trkpt>
      <trkpt lat="44.61417" lon="6.21804">
        <ele>1494.4</ele>
        <time>2022-09-18T10:28:58Z</time>
      </trkpt>
      <trkpt lat="44.61427" lon="6.21806">
        <ele>1493.8</ele>
        <time>2022-09-18T10:28:59Z</time>
      </trkpt>
      <trkpt lat="44.61442" lon="6.21804">
        <ele>1491.4</ele>
        <time>2022-09-18T10:29:01Z</time>
      </trkpt>
      <trkpt lat="44.6145" lon="6.21796">
        <ele>1490.4</ele>
        <time>2022-09-18T10:29:02Z</time>
      </trkpt>
      <trkpt lat="44.61462" lon="6.21776">
        <ele>1489.2</ele>
        <time>2022-09-18T10:29:04Z</time>
      </trkpt>
      <trkpt lat="44.61468" lon="6.21766">
        <ele>1488.4</ele>
        <time>2022-09-18T10:29:05Z</time>
      </trkpt>
      <trkpt lat="44.61476" lon="6.21757">
        <ele>1487.6</ele>
        <time>2022-09-18T10:29:06Z</time>
      </trkpt>
      <trkpt lat="44.61485" lon="6.21749">
        <ele>1487</ele>
        <time>2022-09-18T10:29:07Z</time>
      </trkpt>
      <trkpt lat="44.61494" lon="6.21745">
        <ele>1486.4</ele>
        <time>2022-09-18T10:29:08Z</time>
      </trkpt>
      <trkpt lat="44.61504" lon="6.21744">
        <ele>1485.6</ele>
        <time>2022-09-18T10:29:09Z</time>
      </trkpt>
      <trkpt lat="44.61514" lon="6.21744">
        <ele>1484.6</ele>
        <time>2022-09-18T10:29:10Z</time>
      </trkpt>
      <trkpt lat="44.61524" lon="6.21744">
        <ele>1483.8</ele>
        <time>2022-09-18T10:29:11Z</time>
      </trkpt>
      <trkpt lat="44.61535" lon="6.21743">
        <ele>1483.4</ele>
        <time>2022-09-18T10:29:12Z</time>
      </trkpt>
      <trkpt lat="44.61545" lon="6.21739">
        <ele>1482</ele>
        <time>2022-09-18T10:29:13Z</time>
      </trkpt>
      <trkpt lat="44.61555" lon="6.21735">
        <ele>1481</ele>
        <time>2022-09-18T10:29:14Z</time>
      </trkpt>
      <trkpt lat="44.61563" lon="6.21729">
        <ele>1480</ele>
        <time>2022-09-18T10:29:15Z</time>
      </trkpt>
      <trkpt lat="44.61574" lon="6.21709">
        <ele>1478.8</ele>
        <time>2022-09-18T10:29:17Z</time>
      </trkpt>
      <trkpt lat="44.61584" lon="6.21689">
        <ele>1477</ele>
        <time>2022-09-18T10:29:19Z</time>
      </trkpt>
      <trkpt lat="44.61592" lon="6.2168">
        <ele>1476.2</ele>
        <time>2022-09-18T10:29:20Z</time>
      </trkpt>
      <trkpt lat="44.61601" lon="6.21673">
        <ele>1475.4</ele>
        <time>2022-09-18T10:29:21Z</time>
      </trkpt>
      <trkpt lat="44.6161" lon="6.21666">
        <ele>1475</ele>
        <time>2022-09-18T10:29:22Z</time>
      </trkpt>
      <trkpt lat="44.61618" lon="6.21659">
        <ele>1474.2</ele>
        <time>2022-09-18T10:29:23Z</time>
      </trkpt>
      <trkpt lat="44.61626" lon="6.21652">
        <ele>1473.6</ele>
        <time>2022-09-18T10:29:24Z</time>
      </trkpt>
      <trkpt lat="44.61636" lon="6.21647">
        <ele>1472.4</ele>
        <time>2022-09-18T10:29:25Z</time>
      </trkpt>
      <trkpt lat="44.61646" lon="6.21647">
        <ele>1471.6</ele>
        <time>2022-09-18T10:29:26Z</time>
      </trkpt>
      <trkpt lat="44.61656" lon="6.21648">
        <ele>1471.4</ele>
        <time>2022-09-18T10:29:27Z</time>
      </trkpt>
      <trkpt lat="44.61665" lon="6.2165">
        <ele>1470.6</ele>
        <time>2022-09-18T10:29:28Z</time>
      </trkpt>
      <trkpt lat="44.61674" lon="6.21652">
        <ele>1469.4</ele>
        <time>2022-09-18T10:29:29Z</time>
      </trkpt>
      <trkpt lat="44.61682" lon="6.21652">
        <ele>1468.6</ele>
        <time>2022-09-18T10:29:30Z</time>
      </trkpt>
      <trkpt lat="44.6169" lon="6.21651">
        <ele>1468.2</ele>
        <time>2022-09-18T10:29:31Z</time>
      </trkpt>
      <trkpt lat="44.61694" lon="6.21646">
        <ele>1468</ele>
        <time>2022-09-18T10:29:32Z</time>
      </trkpt>
      <trkpt lat="44.61691" lon="6.21633">
        <ele>1467</ele>
        <time>2022-09-18T10:29:34Z</time>
      </trkpt>
      <trkpt lat="44.61681" lon="6.21628">
        <ele>1465.6</ele>
        <time>2022-09-18T10:29:36Z</time>
      </trkpt>
      <trkpt lat="44.61667" lon="6.21634">
        <ele>1465.4</ele>
        <time>2022-09-18T10:29:38Z</time>
      </trkpt>
      <trkpt lat="44.6165" lon="6.21635">
        <ele>1465</ele>
        <time>2022-09-18T10:29:40Z</time>
      </trkpt>
      <trkpt lat="44.61642" lon="6.21635">
        <ele>1464.6</ele>
        <time>2022-09-18T10:29:41Z</time>
      </trkpt>
      <trkpt lat="44.61635" lon="6.21635">
        <ele>1464.2</ele>
        <time>2022-09-18T10:29:42Z</time>
      </trkpt>
      <trkpt lat="44.61627" lon="6.21634">
        <ele>1464</ele>
        <time>2022-09-18T10:29:43Z</time>
      </trkpt>
      <trkpt lat="44.61618" lon="6.21635">
        <ele>1463.6</ele>
        <time>2022-09-18T10:29:44Z</time>
      </trkpt>
      <trkpt lat="44.6161" lon="6.21638">
        <ele>1463.4</ele>
        <time>2022-09-18T10:29:45Z</time>
      </trkpt>
      <trkpt lat="44.61602" lon="6.21642">
        <ele>1462.8</ele>
        <time>2022-09-18T10:29:46Z</time>
      </trkpt>
      <trkpt lat="44.61593" lon="6.21647">
        <ele>1462.2</ele>
        <time>2022-09-18T10:29:47Z</time>
      </trkpt>
      <trkpt lat="44.61584" lon="6.21653">
        <ele>1461.4</ele>
        <time>2022-09-18T10:29:48Z</time>
      </trkpt>
      <trkpt lat="44.61575" lon="6.21658">
        <ele>1461.2</ele>
        <time>2022-09-18T10:29:49Z</time>
      </trkpt>
      <trkpt lat="44.61565" lon="6.21664">
        <ele>1460.4</ele>
        <time>2022-09-18T10:29:50Z</time>
      </trkpt>
      <trkpt lat="44.61556" lon="6.21671">
        <ele>1459.6</ele>
        <time>2022-09-18T10:29:51Z</time>
      </trkpt>
      <trkpt lat="44.61546" lon="6.21679">
        <ele>1459.2</ele>
        <time>2022-09-18T10:29:52Z</time>
      </trkpt>
      <trkpt lat="44.61535" lon="6.21686">
        <ele>1458.8</ele>
        <time>2022-09-18T10:29:53Z</time>
      </trkpt>
      <trkpt lat="44.61524" lon="6.21693">
        <ele>1458.2</ele>
        <time>2022-09-18T10:29:54Z</time>
      </trkpt>
      <trkpt lat="44.61512" lon="6.21697">
        <ele>1457.2</ele>
        <time>2022-09-18T10:29:55Z</time>
      </trkpt>
      <trkpt lat="44.615" lon="6.21698">
        <ele>1456.2</ele>
        <time>2022-09-18T10:29:56Z</time>
      </trkpt>
      <trkpt lat="44.61487" lon="6.21698">
        <ele>1455.4</ele>
        <time>2022-09-18T10:29:57Z</time>
      </trkpt>
      <trkpt lat="44.61474" lon="6.21697">
        <ele>1454</ele>
        <time>2022-09-18T10:29:58Z</time>
      </trkpt>
      <trkpt lat="44.61462" lon="6.21697">
        <ele>1452.6</ele>
        <time>2022-09-18T10:29:59Z</time>
      </trkpt>
      <trkpt lat="44.6145" lon="6.21698">
        <ele>1452.6</ele>
        <time>2022-09-18T10:30:00Z</time>
      </trkpt>
      <trkpt lat="44.6144" lon="6.21699">
        <ele>1449.8</ele>
        <time>2022-09-18T10:30:01Z</time>
      </trkpt>
      <trkpt lat="44.6143" lon="6.217">
        <ele>1448</ele>
        <time>2022-09-18T10:30:02Z</time>
      </trkpt>
      <trkpt lat="44.61421" lon="6.21686">
        <ele>1445</ele>
        <time>2022-09-18T10:30:04Z</time>
      </trkpt>
      <trkpt lat="44.61423" lon="6.21675">
        <ele>1444.6</ele>
        <time>2022-09-18T10:30:05Z</time>
      </trkpt>
      <trkpt lat="44.61428" lon="6.21665">
        <ele>1444.2</ele>
        <time>2022-09-18T10:30:06Z</time>
      </trkpt>
      <trkpt lat="44.61436" lon="6.21659">
        <ele>1443.6</ele>
        <time>2022-09-18T10:30:07Z</time>
      </trkpt>
      <trkpt lat="44.61444" lon="6.21656">
        <ele>1443.2</ele>
        <time>2022-09-18T10:30:08Z</time>
      </trkpt>
      <trkpt lat="44.61453" lon="6.21656">
        <ele>1442.2</ele>
        <time>2022-09-18T10:30:09Z</time>
      </trkpt>
      <trkpt lat="44.61461" lon="6.21658">
        <ele>1441.6</ele>
        <time>2022-09-18T10:30:10Z</time>
      </trkpt>
      <trkpt lat="44.6147" lon="6.21659">
        <ele>1440.8</ele>
        <time>2022-09-18T10:30:11Z</time>
      </trkpt>
      <trkpt lat="44.61478" lon="6.21659">
        <ele>1439.8</ele>
        <time>2022-09-18T10:30:12Z</time>
      </trkpt>
      <trkpt lat="44.61487" lon="6.21657">
        <ele>1438.6</ele>
        <time>2022-09-18T10:30:13Z</time>
      </trkpt>
      <trkpt lat="44.61495" lon="6.21654">
        <ele>1437.8</ele>
        <time>2022-09-18T10:30:14Z</time>
      </trkpt>
      <trkpt lat="44.61503" lon="6.2165">
        <ele>1436.8</ele>
        <time>2022-09-18T10:30:15Z</time>
      </trkpt>
      <trkpt lat="44.61512" lon="6.21646">
        <ele>1436</ele>
        <time>2022-09-18T10:30:16Z</time>
      </trkpt>
      <trkpt lat="44.6152" lon="6.21641">
        <ele>1435.4</ele>
        <time>2022-09-18T10:30:17Z</time>
      </trkpt>
      <trkpt lat="44.61528" lon="6.21635">
        <ele>1435</ele>
        <time>2022-09-18T10:30:18Z</time>
      </trkpt>
      <trkpt lat="44.61536" lon="6.2163">
        <ele>1434.4</ele>
        <time>2022-09-18T10:30:19Z</time>
      </trkpt>
      <trkpt lat="44.61544" lon="6.21625">
        <ele>1434</ele>
        <time>2022-09-18T10:30:20Z</time>
      </trkpt>
      <trkpt lat="44.61553" lon="6.21619">
        <ele>1433.2</ele>
        <time>2022-09-18T10:30:21Z</time>
      </trkpt>
      <trkpt lat="44.61562" lon="6.21613">
        <ele>1432.6</ele>
        <time>2022-09-18T10:30:22Z</time>
      </trkpt>
      <trkpt lat="44.6157" lon="6.21607">
        <ele>1431.8</ele>
        <time>2022-09-18T10:30:23Z</time>
      </trkpt>
      <trkpt lat="44.61579" lon="6.216">
        <ele>1431.6</ele>
        <time>2022-09-18T10:30:24Z</time>
      </trkpt>
      <trkpt lat="44.61589" lon="6.21594">
        <ele>1430.6</ele>
        <time>2022-09-18T10:30:25Z</time>
      </trkpt>
      <trkpt lat="44.61599" lon="6.21587">
        <ele>1429.8</ele>
        <time>2022-09-18T10:30:26Z</time>
      </trkpt>
      <trkpt lat="44.61609" lon="6.21581">
        <ele>1430</ele>
        <time>2022-09-18T10:30:27Z</time>
      </trkpt>
      <trkpt lat="44.61619" lon="6.21573">
        <ele>1429.4</ele>
        <time>2022-09-18T10:30:28Z</time>
      </trkpt>
      <trkpt lat="44.61629" lon="6.21565">
        <ele>1428.8</ele>
        <time>2022-09-18T10:30:29Z</time>
      </trkpt>
      <trkpt lat="44.61637" lon="6.21555">
        <ele>1428.4</ele>
        <time>2022-09-18T10:30:30Z</time>
      </trkpt>
      <trkpt lat="44.61645" lon="6.21544">
        <ele>1427.2</ele>
        <time>2022-09-18T10:30:31Z</time>
      </trkpt>
      <trkpt lat="44.61651" lon="6.21531">
        <ele>1426.2</ele>
        <time>2022-09-18T10:30:32Z</time>
      </trkpt>
      <trkpt lat="44.61654" lon="6.21515">
        <ele>1425.8</ele>
        <time>2022-09-18T10:30:33Z</time>
      </trkpt>
      <trkpt lat="44.61656" lon="6.21499">
        <ele>1424.2</ele>
        <time>2022-09-18T10:30:34Z</time>
      </trkpt>
      <trkpt lat="44.61656" lon="6.21482">
        <ele>1422.6</ele>
        <time>2022-09-18T10:30:35Z</time>
      </trkpt>
      <trkpt lat="44.61655" lon="6.21465">
        <ele>1421.6</ele>
        <time>2022-09-18T10:30:36Z</time>
      </trkpt>
      <trkpt lat="44.61652" lon="6.21447">
        <ele>1420</ele>
        <time>2022-09-18T10:30:37Z</time>
      </trkpt>
      <trkpt lat="44.6165" lon="6.2143">
        <ele>1419.2</ele>
        <time>2022-09-18T10:30:38Z</time>
      </trkpt>
      <trkpt lat="44.61647" lon="6.21412">
        <ele>1418</ele>
        <time>2022-09-18T10:30:39Z</time>
      </trkpt>
      <trkpt lat="44.61644" lon="6.21395">
        <ele>1417.6</ele>
        <time>2022-09-18T10:30:40Z</time>
      </trkpt>
      <trkpt lat="44.61641" lon="6.21378">
        <ele>1416.6</ele>
        <time>2022-09-18T10:30:41Z</time>
      </trkpt>
      <trkpt lat="44.61639" lon="6.2136">
        <ele>1415.6</ele>
        <time>2022-09-18T10:30:42Z</time>
      </trkpt>
      <trkpt lat="44.61636" lon="6.21343">
        <ele>1416</ele>
        <time>2022-09-18T10:30:43Z</time>
      </trkpt>
      <trkpt lat="44.61634" lon="6.21327">
        <ele>1415.4</ele>
        <time>2022-09-18T10:30:44Z</time>
      </trkpt>
      <trkpt lat="44.61632" lon="6.21311">
        <ele>1414</ele>
        <time>2022-09-18T10:30:45Z</time>
      </trkpt>
      <trkpt lat="44.6163" lon="6.21295">
        <ele>1412.4</ele>
        <time>2022-09-18T10:30:46Z</time>
      </trkpt>
      <trkpt lat="44.61628" lon="6.2128">
        <ele>1411.2</ele>
        <time>2022-09-18T10:30:47Z</time>
      </trkpt>
      <trkpt lat="44.61627" lon="6.21265">
        <ele>1409.8</ele>
        <time>2022-09-18T10:30:48Z</time>
      </trkpt>
      <trkpt lat="44.61626" lon="6.21251">
        <ele>1408.8</ele>
        <time>2022-09-18T10:30:49Z</time>
      </trkpt>
      <trkpt lat="44.61626" lon="6.21237">
        <ele>1408.2</ele>
        <time>2022-09-18T10:30:50Z</time>
      </trkpt>
      <trkpt lat="44.61626" lon="6.21224">
        <ele>1407</ele>
        <time>2022-09-18T10:30:51Z</time>
      </trkpt>
      <trkpt lat="44.61627" lon="6.21211">
        <ele>1406</ele>
        <time>2022-09-18T10:30:52Z</time>
      </trkpt>
      <trkpt lat="44.61629" lon="6.212">
        <ele>1405.4</ele>
        <time>2022-09-18T10:30:53Z</time>
      </trkpt>
      <trkpt lat="44.61631" lon="6.21189">
        <ele>1405</ele>
        <time>2022-09-18T10:30:54Z</time>
      </trkpt>
      <trkpt lat="44.61633" lon="6.21179">
        <ele>1403.6</ele>
        <time>2022-09-18T10:30:55Z</time>
      </trkpt>
      <trkpt lat="44.61635" lon="6.21171">
        <ele>1403</ele>
        <time>2022-09-18T10:30:56Z</time>
      </trkpt>
      <trkpt lat="44.61637" lon="6.21164">
        <ele>1402.2</ele>
        <time>2022-09-18T10:30:57Z</time>
      </trkpt>
      <trkpt lat="44.61638" lon="6.21156">
        <ele>1401.4</ele>
        <time>2022-09-18T10:30:58Z</time>
      </trkpt>
      <trkpt lat="44.6164" lon="6.2115">
        <ele>1400.6</ele>
        <time>2022-09-18T10:30:59Z</time>
      </trkpt>
      <trkpt lat="44.61641" lon="6.21143">
        <ele>1400.2</ele>
        <time>2022-09-18T10:31:00Z</time>
      </trkpt>
      <trkpt lat="44.61642" lon="6.21136">
        <ele>1399.8</ele>
        <time>2022-09-18T10:31:01Z</time>
      </trkpt>
      <trkpt lat="44.61644" lon="6.21129">
        <ele>1400</ele>
        <time>2022-09-18T10:31:02Z</time>
      </trkpt>
      <trkpt lat="44.61644" lon="6.21122">
        <ele>1400</ele>
        <time>2022-09-18T10:31:03Z</time>
      </trkpt>
      <trkpt lat="44.61645" lon="6.21115">
        <ele>1399.8</ele>
        <time>2022-09-18T10:31:04Z</time>
      </trkpt>
      <trkpt lat="44.61647" lon="6.21109">
        <ele>1399</ele>
        <time>2022-09-18T10:31:05Z</time>
      </trkpt>
      <trkpt lat="44.61649" lon="6.21103">
        <ele>1398.2</ele>
        <time>2022-09-18T10:31:06Z</time>
      </trkpt>
      <trkpt lat="44.61653" lon="6.21098">
        <ele>1397.6</ele>
        <time>2022-09-18T10:31:07Z</time>
      </trkpt>
      <trkpt lat="44.61657" lon="6.21093">
        <ele>1397.4</ele>
        <time>2022-09-18T10:31:08Z</time>
      </trkpt>
      <trkpt lat="44.61661" lon="6.21089">
        <ele>1397</ele>
        <time>2022-09-18T10:31:09Z</time>
      </trkpt>
      <trkpt lat="44.61666" lon="6.21085">
        <ele>1397</ele>
        <time>2022-09-18T10:31:10Z</time>
      </trkpt>
      <trkpt lat="44.61671" lon="6.2108">
        <ele>1396.6</ele>
        <time>2022-09-18T10:31:11Z</time>
      </trkpt>
      <trkpt lat="44.61676" lon="6.21076">
        <ele>1396.2</ele>
        <time>2022-09-18T10:31:12Z</time>
      </trkpt>
      <trkpt lat="44.61681" lon="6.2107">
        <ele>1395.8</ele>
        <time>2022-09-18T10:31:13Z</time>
      </trkpt>
      <trkpt lat="44.61687" lon="6.21065">
        <ele>1395.4</ele>
        <time>2022-09-18T10:31:14Z</time>
      </trkpt>
      <trkpt lat="44.61693" lon="6.21058">
        <ele>1395</ele>
        <time>2022-09-18T10:31:15Z</time>
      </trkpt>
      <trkpt lat="44.61699" lon="6.21053">
        <ele>1394.2</ele>
        <time>2022-09-18T10:31:16Z</time>
      </trkpt>
      <trkpt lat="44.61705" lon="6.21048">
        <ele>1394.2</ele>
        <time>2022-09-18T10:31:17Z</time>
      </trkpt>
      <trkpt lat="44.61711" lon="6.21043">
        <ele>1393.8</ele>
        <time>2022-09-18T10:31:18Z</time>
      </trkpt>
      <trkpt lat="44.61717" lon="6.21037">
        <ele>1393.2</ele>
        <time>2022-09-18T10:31:19Z</time>
      </trkpt>
      <trkpt lat="44.61723" lon="6.21033">
        <ele>1392.6</ele>
        <time>2022-09-18T10:31:20Z</time>
      </trkpt>
      <trkpt lat="44.61729" lon="6.21029">
        <ele>1392</ele>
        <time>2022-09-18T10:31:21Z</time>
      </trkpt>
      <trkpt lat="44.61735" lon="6.21025">
        <ele>1391.4</ele>
        <time>2022-09-18T10:31:22Z</time>
      </trkpt>
      <trkpt lat="44.6174" lon="6.2102">
        <ele>1391</ele>
        <time>2022-09-18T10:31:23Z</time>
      </trkpt>
      <trkpt lat="44.61746" lon="6.21016">
        <ele>1390.6</ele>
        <time>2022-09-18T10:31:24Z</time>
      </trkpt>
      <trkpt lat="44.61752" lon="6.21011">
        <ele>1390.2</ele>
        <time>2022-09-18T10:31:25Z</time>
      </trkpt>
      <trkpt lat="44.61758" lon="6.21006">
        <ele>1390</ele>
        <time>2022-09-18T10:31:26Z</time>
      </trkpt>
      <trkpt lat="44.61763" lon="6.21002">
        <ele>1389.4</ele>
        <time>2022-09-18T10:31:27Z</time>
      </trkpt>
      <trkpt lat="44.61769" lon="6.20997">
        <ele>1388.8</ele>
        <time>2022-09-18T10:31:28Z</time>
      </trkpt>
      <trkpt lat="44.61775" lon="6.20993">
        <ele>1388.2</ele>
        <time>2022-09-18T10:31:29Z</time>
      </trkpt>
      <trkpt lat="44.6178" lon="6.20988">
        <ele>1387.8</ele>
        <time>2022-09-18T10:31:30Z</time>
      </trkpt>
      <trkpt lat="44.61786" lon="6.20983">
        <ele>1387.2</ele>
        <time>2022-09-18T10:31:31Z</time>
      </trkpt>
      <trkpt lat="44.61792" lon="6.20979">
        <ele>1386.8</ele>
        <time>2022-09-18T10:31:32Z</time>
      </trkpt>
      <trkpt lat="44.61798" lon="6.20974">
        <ele>1386.4</ele>
        <time>2022-09-18T10:31:33Z</time>
      </trkpt>
      <trkpt lat="44.61804" lon="6.2097">
        <ele>1386</ele>
        <time>2022-09-18T10:31:34Z</time>
      </trkpt>
      <trkpt lat="44.6181" lon="6.20966">
        <ele>1386.2</ele>
        <time>2022-09-18T10:31:35Z</time>
      </trkpt>
      <trkpt lat="44.61816" lon="6.20962">
        <ele>1385.6</ele>
        <time>2022-09-18T10:31:36Z</time>
      </trkpt>
      <trkpt lat="44.61822" lon="6.20957">
        <ele>1385.4</ele>
        <time>2022-09-18T10:31:37Z</time>
      </trkpt>
      <trkpt lat="44.61827" lon="6.20952">
        <ele>1385.2</ele>
        <time>2022-09-18T10:31:38Z</time>
      </trkpt>
      <trkpt lat="44.61833" lon="6.20948">
        <ele>1385</ele>
        <time>2022-09-18T10:31:39Z</time>
      </trkpt>
      <trkpt lat="44.61838" lon="6.20944">
        <ele>1384.8</ele>
        <time>2022-09-18T10:31:40Z</time>
      </trkpt>
      <trkpt lat="44.61843" lon="6.2094">
        <ele>1384.6</ele>
        <time>2022-09-18T10:31:41Z</time>
      </trkpt>
      <trkpt lat="44.61847" lon="6.20937">
        <ele>1384.6</ele>
        <time>2022-09-18T10:31:42Z</time>
      </trkpt>
      <trkpt lat="44.61852" lon="6.20933">
        <ele>1384.2</ele>
        <time>2022-09-18T10:31:43Z</time>
      </trkpt>
      <trkpt lat="44.61857" lon="6.20929">
        <ele>1383.6</ele>
        <time>2022-09-18T10:31:44Z</time>
      </trkpt>
      <trkpt lat="44.61862" lon="6.20925">
        <ele>1383.4</ele>
        <time>2022-09-18T10:31:45Z</time>
      </trkpt>
      <trkpt lat="44.61866" lon="6.20921">
        <ele>1383</ele>
        <time>2022-09-18T10:31:46Z</time>
      </trkpt>
      <trkpt lat="44.61872" lon="6.20919">
        <ele>1382.8</ele>
        <time>2022-09-18T10:31:47Z</time>
      </trkpt>
      <trkpt lat="44.61877" lon="6.20917">
        <ele>1382.6</ele>
        <time>2022-09-18T10:31:48Z</time>
      </trkpt>
      <trkpt lat="44.61884" lon="6.20915">
        <ele>1382.4</ele>
        <time>2022-09-18T10:31:49Z</time>
      </trkpt>
      <trkpt lat="44.6189" lon="6.20913">
        <ele>1382.2</ele>
        <time>2022-09-18T10:31:50Z</time>
      </trkpt>
      <trkpt lat="44.61896" lon="6.2091">
        <ele>1382</ele>
        <time>2022-09-18T10:31:51Z</time>
      </trkpt>
      <trkpt lat="44.61903" lon="6.20908">
        <ele>1382.2</ele>
        <time>2022-09-18T10:31:52Z</time>
      </trkpt>
      <trkpt lat="44.61909" lon="6.20906">
        <ele>1381.8</ele>
        <time>2022-09-18T10:31:53Z</time>
      </trkpt>
      <trkpt lat="44.61915" lon="6.20906">
        <ele>1381.4</ele>
        <time>2022-09-18T10:31:54Z</time>
      </trkpt>
      <trkpt lat="44.61922" lon="6.20906">
        <ele>1381.2</ele>
        <time>2022-09-18T10:31:55Z</time>
      </trkpt>
      <trkpt lat="44.61928" lon="6.20907">
        <ele>1381.2</ele>
        <time>2022-09-18T10:31:56Z</time>
      </trkpt>
      <trkpt lat="44.61934" lon="6.20909">
        <ele>1381</ele>
        <time>2022-09-18T10:31:57Z</time>
      </trkpt>
      <trkpt lat="44.6194" lon="6.2091">
        <ele>1380.6</ele>
        <time>2022-09-18T10:31:58Z</time>
      </trkpt>
      <trkpt lat="44.61946" lon="6.20912">
        <ele>1380.4</ele>
        <time>2022-09-18T10:31:59Z</time>
      </trkpt>
      <trkpt lat="44.61951" lon="6.20914">
        <ele>1380.2</ele>
        <time>2022-09-18T10:32:00Z</time>
      </trkpt>
      <trkpt lat="44.61956" lon="6.20915">
        <ele>1380</ele>
        <time>2022-09-18T10:32:01Z</time>
      </trkpt>
      <trkpt lat="44.61961" lon="6.20917">
        <ele>1379.8</ele>
        <time>2022-09-18T10:32:02Z</time>
      </trkpt>
      <trkpt lat="44.61966" lon="6.20918">
        <ele>1379.2</ele>
        <time>2022-09-18T10:32:03Z</time>
      </trkpt>
      <trkpt lat="44.6197" lon="6.20919">
        <ele>1379.2</ele>
        <time>2022-09-18T10:32:04Z</time>
      </trkpt>
      <trkpt lat="44.61975" lon="6.20921">
        <ele>1378.8</ele>
        <time>2022-09-18T10:32:05Z</time>
      </trkpt>
      <trkpt lat="44.6198" lon="6.20922">
        <ele>1378.6</ele>
        <time>2022-09-18T10:32:06Z</time>
      </trkpt>
      <trkpt lat="44.61985" lon="6.20924">
        <ele>1378.4</ele>
        <time>2022-09-18T10:32:07Z</time>
      </trkpt>
      <trkpt lat="44.6199" lon="6.20925">
        <ele>1378</ele>
        <time>2022-09-18T10:32:08Z</time>
      </trkpt>
      <trkpt lat="44.61994" lon="6.20926">
        <ele>1377.8</ele>
        <time>2022-09-18T10:32:09Z</time>
      </trkpt>
      <trkpt lat="44.61999" lon="6.20927">
        <ele>1377.6</ele>
        <time>2022-09-18T10:32:10Z</time>
      </trkpt>
      <trkpt lat="44.62004" lon="6.20928">
        <ele>1377.2</ele>
        <time>2022-09-18T10:32:11Z</time>
      </trkpt>
      <trkpt lat="44.62009" lon="6.20929">
        <ele>1376.6</ele>
        <time>2022-09-18T10:32:12Z</time>
      </trkpt>
      <trkpt lat="44.62014" lon="6.20929">
        <ele>1376.4</ele>
        <time>2022-09-18T10:32:13Z</time>
      </trkpt>
      <trkpt lat="44.62019" lon="6.20929">
        <ele>1376.2</ele>
        <time>2022-09-18T10:32:14Z</time>
      </trkpt>
      <trkpt lat="44.62024" lon="6.20929">
        <ele>1376</ele>
        <time>2022-09-18T10:32:15Z</time>
      </trkpt>
      <trkpt lat="44.62029" lon="6.20929">
        <ele>1375.6</ele>
        <time>2022-09-18T10:32:16Z</time>
      </trkpt>
      <trkpt lat="44.62033" lon="6.20929">
        <ele>1375.2</ele>
        <time>2022-09-18T10:32:17Z</time>
      </trkpt>
      <trkpt lat="44.62038" lon="6.20929">
        <ele>1374.8</ele>
        <time>2022-09-18T10:32:18Z</time>
      </trkpt>
      <trkpt lat="44.62042" lon="6.2093">
        <ele>1374.8</ele>
        <time>2022-09-18T10:32:19Z</time>
      </trkpt>
      <trkpt lat="44.62046" lon="6.20931">
        <ele>1374.6</ele>
        <time>2022-09-18T10:32:20Z</time>
      </trkpt>
      <trkpt lat="44.62049" lon="6.20931">
        <ele>1374</ele>
        <time>2022-09-18T10:32:21Z</time>
      </trkpt>
      <trkpt lat="44.62053" lon="6.20931">
        <ele>1373.6</ele>
        <time>2022-09-18T10:32:22Z</time>
      </trkpt>
      <trkpt lat="44.62057" lon="6.20932">
        <ele>1373.4</ele>
        <time>2022-09-18T10:32:23Z</time>
      </trkpt>
      <trkpt lat="44.62062" lon="6.20932">
        <ele>1373</ele>
        <time>2022-09-18T10:32:24Z</time>
      </trkpt>
      <trkpt lat="44.62066" lon="6.20931">
        <ele>1372.8</ele>
        <time>2022-09-18T10:32:25Z</time>
      </trkpt>
      <trkpt lat="44.62071" lon="6.2093">
        <ele>1372.6</ele>
        <time>2022-09-18T10:32:26Z</time>
      </trkpt>
      <trkpt lat="44.62076" lon="6.2093">
        <ele>1372.6</ele>
        <time>2022-09-18T10:32:27Z</time>
      </trkpt>
      <trkpt lat="44.62081" lon="6.20929">
        <ele>1372.6</ele>
        <time>2022-09-18T10:32:28Z</time>
      </trkpt>
      <trkpt lat="44.62087" lon="6.2093">
        <ele>1372</ele>
        <time>2022-09-18T10:32:29Z</time>
      </trkpt>
      <trkpt lat="44.62093" lon="6.2093">
        <ele>1372</ele>
        <time>2022-09-18T10:32:30Z</time>
      </trkpt>
      <trkpt lat="44.62099" lon="6.2093">
        <ele>1371.6</ele>
        <time>2022-09-18T10:32:31Z</time>
      </trkpt>
      <trkpt lat="44.62105" lon="6.20931">
        <ele>1371.6</ele>
        <time>2022-09-18T10:32:32Z</time>
      </trkpt>
      <trkpt lat="44.62112" lon="6.20932">
        <ele>1371</ele>
        <time>2022-09-18T10:32:33Z</time>
      </trkpt>
      <trkpt lat="44.62118" lon="6.20932">
        <ele>1370.6</ele>
        <time>2022-09-18T10:32:34Z</time>
      </trkpt>
      <trkpt lat="44.62125" lon="6.20932">
        <ele>1370.4</ele>
        <time>2022-09-18T10:32:35Z</time>
      </trkpt>
      <trkpt lat="44.62132" lon="6.20932">
        <ele>1370.2</ele>
        <time>2022-09-18T10:32:36Z</time>
      </trkpt>
      <trkpt lat="44.62139" lon="6.20932">
        <ele>1370.2</ele>
        <time>2022-09-18T10:32:37Z</time>
      </trkpt>
      <trkpt lat="44.62145" lon="6.20932">
        <ele>1370</ele>
        <time>2022-09-18T10:32:38Z</time>
      </trkpt>
      <trkpt lat="44.62151" lon="6.20932">
        <ele>1369.8</ele>
        <time>2022-09-18T10:32:39Z</time>
      </trkpt>
      <trkpt lat="44.62157" lon="6.20932">
        <ele>1369.4</ele>
        <time>2022-09-18T10:32:40Z</time>
      </trkpt>
      <trkpt lat="44.62163" lon="6.20932">
        <ele>1368.6</ele>
        <time>2022-09-18T10:32:41Z</time>
      </trkpt>
      <trkpt lat="44.62169" lon="6.20932">
        <ele>1367.8</ele>
        <time>2022-09-18T10:32:42Z</time>
      </trkpt>
      <trkpt lat="44.62175" lon="6.20932">
        <ele>1367.4</ele>
        <time>2022-09-18T10:32:43Z</time>
      </trkpt>
      <trkpt lat="44.62181" lon="6.20932">
        <ele>1367.6</ele>
        <time>2022-09-18T10:32:44Z</time>
      </trkpt>
      <trkpt lat="44.62187" lon="6.20933">
        <ele>1367.2</ele>
        <time>2022-09-18T10:32:45Z</time>
      </trkpt>
      <trkpt lat="44.62193" lon="6.20933">
        <ele>1366.6</ele>
        <time>2022-09-18T10:32:46Z</time>
      </trkpt>
      <trkpt lat="44.62198" lon="6.20934">
        <ele>1366.8</ele>
        <time>2022-09-18T10:32:47Z</time>
      </trkpt>
      <trkpt lat="44.62203" lon="6.20934">
        <ele>1366.6</ele>
        <time>2022-09-18T10:32:48Z</time>
      </trkpt>
      <trkpt lat="44.62207" lon="6.20935">
        <ele>1366</ele>
        <time>2022-09-18T10:32:49Z</time>
      </trkpt>
      <trkpt lat="44.62211" lon="6.20935">
        <ele>1365.8</ele>
        <time>2022-09-18T10:32:50Z</time>
      </trkpt>
      <trkpt lat="44.62215" lon="6.20935">
        <ele>1365.6</ele>
        <time>2022-09-18T10:32:51Z</time>
      </trkpt>
      <trkpt lat="44.62219" lon="6.20936">
        <ele>1365.6</ele>
        <time>2022-09-18T10:32:52Z</time>
      </trkpt>
      <trkpt lat="44.62223" lon="6.20937">
        <ele>1365.2</ele>
        <time>2022-09-18T10:32:53Z</time>
      </trkpt>
      <trkpt lat="44.62227" lon="6.20939">
        <ele>1365.4</ele>
        <time>2022-09-18T10:32:54Z</time>
      </trkpt>
      <trkpt lat="44.62231" lon="6.20939">
        <ele>1365.4</ele>
        <time>2022-09-18T10:32:55Z</time>
      </trkpt>
      <trkpt lat="44.62235" lon="6.2094">
        <ele>1365.6</ele>
        <time>2022-09-18T10:32:56Z</time>
      </trkpt>
      <trkpt lat="44.62239" lon="6.2094">
        <ele>1365.6</ele>
        <time>2022-09-18T10:32:57Z</time>
      </trkpt>
      <trkpt lat="44.62243" lon="6.20941">
        <ele>1365.4</ele>
        <time>2022-09-18T10:32:58Z</time>
      </trkpt>
      <trkpt lat="44.62246" lon="6.20941">
        <ele>1365.4</ele>
        <time>2022-09-18T10:32:59Z</time>
      </trkpt>
      <trkpt lat="44.6225" lon="6.20942">
        <ele>1365.4</ele>
        <time>2022-09-18T10:33:00Z</time>
      </trkpt>
      <trkpt lat="44.62254" lon="6.20941">
        <ele>1365.6</ele>
        <time>2022-09-18T10:33:01Z</time>
      </trkpt>
      <trkpt lat="44.62257" lon="6.20941">
        <ele>1365.8</ele>
        <time>2022-09-18T10:33:02Z</time>
      </trkpt>
      <trkpt lat="44.6226" lon="6.20941">
        <ele>1366.2</ele>
        <time>2022-09-18T10:33:03Z</time>
      </trkpt>
      <trkpt lat="44.62264" lon="6.20941">
        <ele>1366</ele>
        <time>2022-09-18T10:33:04Z</time>
      </trkpt>
      <trkpt lat="44.62269" lon="6.20941">
        <ele>1366.2</ele>
        <time>2022-09-18T10:33:05Z</time>
      </trkpt>
      <trkpt lat="44.62274" lon="6.20942">
        <ele>1366.2</ele>
        <time>2022-09-18T10:33:06Z</time>
      </trkpt>
      <trkpt lat="44.62279" lon="6.20943">
        <ele>1366.2</ele>
        <time>2022-09-18T10:33:07Z</time>
      </trkpt>
      <trkpt lat="44.62283" lon="6.20944">
        <ele>1366.8</ele>
        <time>2022-09-18T10:33:08Z</time>
      </trkpt>
      <trkpt lat="44.62288" lon="6.20945">
        <ele>1366.4</ele>
        <time>2022-09-18T10:33:09Z</time>
      </trkpt>
      <trkpt lat="44.62293" lon="6.20947">
        <ele>1365.8</ele>
        <time>2022-09-18T10:33:10Z</time>
      </trkpt>
      <trkpt lat="44.62298" lon="6.20949">
        <ele>1365.2</ele>
        <time>2022-09-18T10:33:11Z</time>
      </trkpt>
      <trkpt lat="44.62303" lon="6.20952">
        <ele>1364.4</ele>
        <time>2022-09-18T10:33:12Z</time>
      </trkpt>
      <trkpt lat="44.62306" lon="6.20956">
        <ele>1364.2</ele>
        <time>2022-09-18T10:33:13Z</time>
      </trkpt>
      <trkpt lat="44.62309" lon="6.20962">
        <ele>1364</ele>
        <time>2022-09-18T10:33:14Z</time>
      </trkpt>
      <trkpt lat="44.6231" lon="6.20968">
        <ele>1364.2</ele>
        <time>2022-09-18T10:33:15Z</time>
      </trkpt>
      <trkpt lat="44.62309" lon="6.20974">
        <ele>1364.4</ele>
        <time>2022-09-18T10:33:16Z</time>
      </trkpt>
      <trkpt lat="44.62307" lon="6.2098">
        <ele>1365.2</ele>
        <time>2022-09-18T10:33:17Z</time>
      </trkpt>
      <trkpt lat="44.62305" lon="6.20985">
        <ele>1365.4</ele>
        <time>2022-09-18T10:33:18Z</time>
      </trkpt>
      <trkpt lat="44.62303" lon="6.20991">
        <ele>1365.6</ele>
        <time>2022-09-18T10:33:19Z</time>
      </trkpt>
      <trkpt lat="44.62301" lon="6.20996">
        <ele>1365.8</ele>
        <time>2022-09-18T10:33:20Z</time>
      </trkpt>
      <trkpt lat="44.623" lon="6.21002">
        <ele>1366</ele>
        <time>2022-09-18T10:33:21Z</time>
      </trkpt>
      <trkpt lat="44.62298" lon="6.21008">
        <ele>1366.2</ele>
        <time>2022-09-18T10:33:22Z</time>
      </trkpt>
      <trkpt lat="44.62297" lon="6.21014">
        <ele>1366.2</ele>
        <time>2022-09-18T10:33:23Z</time>
      </trkpt>
      <trkpt lat="44.62295" lon="6.2102">
        <ele>1366.8</ele>
        <time>2022-09-18T10:33:24Z</time>
      </trkpt>
      <trkpt lat="44.62294" lon="6.21026">
        <ele>1367</ele>
        <time>2022-09-18T10:33:25Z</time>
      </trkpt>
      <trkpt lat="44.62292" lon="6.21032">
        <ele>1367.4</ele>
        <time>2022-09-18T10:33:26Z</time>
      </trkpt>
      <trkpt lat="44.62291" lon="6.21038">
        <ele>1367.6</ele>
        <time>2022-09-18T10:33:27Z</time>
      </trkpt>
      <trkpt lat="44.6229" lon="6.21044">
        <ele>1367.6</ele>
        <time>2022-09-18T10:33:28Z</time>
      </trkpt>
      <trkpt lat="44.6229" lon="6.2105">
        <ele>1367.6</ele>
        <time>2022-09-18T10:33:29Z</time>
      </trkpt>
      <trkpt lat="44.62289" lon="6.21057">
        <ele>1367.8</ele>
        <time>2022-09-18T10:33:30Z</time>
      </trkpt>
      <trkpt lat="44.6229" lon="6.21063">
        <ele>1368.4</ele>
        <time>2022-09-18T10:33:31Z</time>
      </trkpt>
      <trkpt lat="44.6229" lon="6.21069">
        <ele>1368.6</ele>
        <time>2022-09-18T10:33:32Z</time>
      </trkpt>
      <trkpt lat="44.62291" lon="6.21074">
        <ele>1369</ele>
        <time>2022-09-18T10:33:33Z</time>
      </trkpt>
      <trkpt lat="44.62292" lon="6.2108">
        <ele>1369</ele>
        <time>2022-09-18T10:33:34Z</time>
      </trkpt>
      <trkpt lat="44.62293" lon="6.21085">
        <ele>1369</ele>
        <time>2022-09-18T10:33:35Z</time>
      </trkpt>
      <trkpt lat="44.62295" lon="6.2109">
        <ele>1369</ele>
        <time>2022-09-18T10:33:36Z</time>
      </trkpt>
      <trkpt lat="44.62297" lon="6.21095">
        <ele>1369.2</ele>
        <time>2022-09-18T10:33:37Z</time>
      </trkpt>
      <trkpt lat="44.62298" lon="6.211">
        <ele>1369.4</ele>
        <time>2022-09-18T10:33:38Z</time>
      </trkpt>
      <trkpt lat="44.623" lon="6.21104">
        <ele>1369.8</ele>
        <time>2022-09-18T10:33:39Z</time>
      </trkpt>
      <trkpt lat="44.62303" lon="6.21108">
        <ele>1369.8</ele>
        <time>2022-09-18T10:33:40Z</time>
      </trkpt>
      <trkpt lat="44.62305" lon="6.21111">
        <ele>1370.2</ele>
        <time>2022-09-18T10:33:41Z</time>
      </trkpt>
      <trkpt lat="44.62308" lon="6.21113">
        <ele>1370.4</ele>
        <time>2022-09-18T10:33:42Z</time>
      </trkpt>
      <trkpt lat="44.62312" lon="6.21115">
        <ele>1370.6</ele>
        <time>2022-09-18T10:33:43Z</time>
      </trkpt>
      <trkpt lat="44.62315" lon="6.21116">
        <ele>1371</ele>
        <time>2022-09-18T10:33:44Z</time>
      </trkpt>
      <trkpt lat="44.62318" lon="6.21116">
        <ele>1371.4</ele>
        <time>2022-09-18T10:33:45Z</time>
      </trkpt>
      <trkpt lat="44.62321" lon="6.21116">
        <ele>1371.8</ele>
        <time>2022-09-18T10:33:46Z</time>
      </trkpt>
      <trkpt lat="44.62324" lon="6.21115">
        <ele>1371.8</ele>
        <time>2022-09-18T10:33:47Z</time>
      </trkpt>
      <trkpt lat="44.62328" lon="6.21114">
        <ele>1372.2</ele>
        <time>2022-09-18T10:33:48Z</time>
      </trkpt>
      <trkpt lat="44.62331" lon="6.21111">
        <ele>1372.6</ele>
        <time>2022-09-18T10:33:49Z</time>
      </trkpt>
      <trkpt lat="44.62334" lon="6.21109">
        <ele>1372.8</ele>
        <time>2022-09-18T10:33:50Z</time>
      </trkpt>
      <trkpt lat="44.62337" lon="6.21106">
        <ele>1372.8</ele>
        <time>2022-09-18T10:33:51Z</time>
      </trkpt>
      <trkpt lat="44.6234" lon="6.21103">
        <ele>1373</ele>
        <time>2022-09-18T10:33:52Z</time>
      </trkpt>
      <trkpt lat="44.62343" lon="6.211">
        <ele>1373</ele>
        <time>2022-09-18T10:33:53Z</time>
      </trkpt>
      <trkpt lat="44.62346" lon="6.21097">
        <ele>1373</ele>
        <time>2022-09-18T10:33:54Z</time>
      </trkpt>
      <trkpt lat="44.62349" lon="6.21093">
        <ele>1372.8</ele>
        <time>2022-09-18T10:33:55Z</time>
      </trkpt>
      <trkpt lat="44.62352" lon="6.2109">
        <ele>1372.8</ele>
        <time>2022-09-18T10:33:56Z</time>
      </trkpt>
      <trkpt lat="44.62355" lon="6.21087">
        <ele>1372.8</ele>
        <time>2022-09-18T10:33:57Z</time>
      </trkpt>
      <trkpt lat="44.62359" lon="6.21084">
        <ele>1372.6</ele>
        <time>2022-09-18T10:33:58Z</time>
      </trkpt>
      <trkpt lat="44.62362" lon="6.21081">
        <ele>1372.2</ele>
        <time>2022-09-18T10:33:59Z</time>
      </trkpt>
      <trkpt lat="44.62365" lon="6.21078">
        <ele>1372.4</ele>
        <time>2022-09-18T10:34:00Z</time>
      </trkpt>
      <trkpt lat="44.62368" lon="6.21075">
        <ele>1372.6</ele>
        <time>2022-09-18T10:34:01Z</time>
      </trkpt>
      <trkpt lat="44.62372" lon="6.21072">
        <ele>1372.6</ele>
        <time>2022-09-18T10:34:02Z</time>
      </trkpt>
      <trkpt lat="44.62375" lon="6.21069">
        <ele>1372.8</ele>
        <time>2022-09-18T10:34:03Z</time>
      </trkpt>
      <trkpt lat="44.62378" lon="6.21066">
        <ele>1373</ele>
        <time>2022-09-18T10:34:04Z</time>
      </trkpt>
      <trkpt lat="44.62382" lon="6.21063">
        <ele>1373</ele>
        <time>2022-09-18T10:34:05Z</time>
      </trkpt>
      <trkpt lat="44.62385" lon="6.2106">
        <ele>1373.2</ele>
        <time>2022-09-18T10:34:06Z</time>
      </trkpt>
      <trkpt lat="44.62388" lon="6.21057">
        <ele>1373.4</ele>
        <time>2022-09-18T10:34:07Z</time>
      </trkpt>
      <trkpt lat="44.62391" lon="6.21054">
        <ele>1373.6</ele>
        <time>2022-09-18T10:34:08Z</time>
      </trkpt>
      <trkpt lat="44.62394" lon="6.21051">
        <ele>1373.8</ele>
        <time>2022-09-18T10:34:09Z</time>
      </trkpt>
      <trkpt lat="44.62396" lon="6.21049">
        <ele>1374.2</ele>
        <time>2022-09-18T10:34:10Z</time>
      </trkpt>
      <trkpt lat="44.62399" lon="6.21046">
        <ele>1374.8</ele>
        <time>2022-09-18T10:34:11Z</time>
      </trkpt>
      <trkpt lat="44.62401" lon="6.21043">
        <ele>1375</ele>
        <time>2022-09-18T10:34:12Z</time>
      </trkpt>
      <trkpt lat="44.62404" lon="6.21041">
        <ele>1375.4</ele>
        <time>2022-09-18T10:34:13Z</time>
      </trkpt>
      <trkpt lat="44.62406" lon="6.21039">
        <ele>1375.8</ele>
        <time>2022-09-18T10:34:14Z</time>
      </trkpt>
      <trkpt lat="44.62408" lon="6.21036">
        <ele>1376.2</ele>
        <time>2022-09-18T10:34:15Z</time>
      </trkpt>
      <trkpt lat="44.6241" lon="6.21034">
        <ele>1376.6</ele>
        <time>2022-09-18T10:34:16Z</time>
      </trkpt>
      <trkpt lat="44.62412" lon="6.21032">
        <ele>1377</ele>
        <time>2022-09-18T10:34:17Z</time>
      </trkpt>
      <trkpt lat="44.62414" lon="6.2103">
        <ele>1377.2</ele>
        <time>2022-09-18T10:34:18Z</time>
      </trkpt>
      <trkpt lat="44.62415" lon="6.21026">
        <ele>1377.4</ele>
        <time>2022-09-18T10:34:19Z</time>
      </trkpt>
      <trkpt lat="44.62417" lon="6.21022">
        <ele>1377.8</ele>
        <time>2022-09-18T10:34:20Z</time>
      </trkpt>
      <trkpt lat="44.62418" lon="6.21019">
        <ele>1378.2</ele>
        <time>2022-09-18T10:34:21Z</time>
      </trkpt>
      <trkpt lat="44.62419" lon="6.21015">
        <ele>1378.8</ele>
        <time>2022-09-18T10:34:22Z</time>
      </trkpt>
      <trkpt lat="44.6242" lon="6.21012">
        <ele>1379.2</ele>
        <time>2022-09-18T10:34:23Z</time>
      </trkpt>
      <trkpt lat="44.62421" lon="6.21008">
        <ele>1379.4</ele>
        <time>2022-09-18T10:34:24Z</time>
      </trkpt>
      <trkpt lat="44.62423" lon="6.21004">
        <ele>1379.8</ele>
        <time>2022-09-18T10:34:25Z</time>
      </trkpt>
      <trkpt lat="44.62424" lon="6.21001">
        <ele>1380</ele>
        <time>2022-09-18T10:34:26Z</time>
      </trkpt>
      <trkpt lat="44.62425" lon="6.20997">
        <ele>1380.2</ele>
        <time>2022-09-18T10:34:27Z</time>
      </trkpt>
      <trkpt lat="44.62426" lon="6.20994">
        <ele>1380.6</ele>
        <time>2022-09-18T10:34:28Z</time>
      </trkpt>
      <trkpt lat="44.62427" lon="6.20991">
        <ele>1380.8</ele>
        <time>2022-09-18T10:34:29Z</time>
      </trkpt>
      <trkpt lat="44.62429" lon="6.20988">
        <ele>1381</ele>
        <time>2022-09-18T10:34:30Z</time>
      </trkpt>
      <trkpt lat="44.6243" lon="6.20985">
        <ele>1381.2</ele>
        <time>2022-09-18T10:34:31Z</time>
      </trkpt>
      <trkpt lat="44.62431" lon="6.20982">
        <ele>1381.6</ele>
        <time>2022-09-18T10:34:32Z</time>
      </trkpt>
      <trkpt lat="44.62432" lon="6.2098">
        <ele>1381.8</ele>
        <time>2022-09-18T10:34:33Z</time>
      </trkpt>
      <trkpt lat="44.62433" lon="6.20977">
        <ele>1382</ele>
        <time>2022-09-18T10:34:34Z</time>
      </trkpt>
      <trkpt lat="44.62434" lon="6.20975">
        <ele>1382</ele>
        <time>2022-09-18T10:34:35Z</time>
      </trkpt>
      <trkpt lat="44.62436" lon="6.20972">
        <ele>1382.2</ele>
        <time>2022-09-18T10:34:36Z</time>
      </trkpt>
      <trkpt lat="44.62438" lon="6.2097">
        <ele>1382.2</ele>
        <time>2022-09-18T10:34:37Z</time>
      </trkpt>
      <trkpt lat="44.6244" lon="6.20968">
        <ele>1382.2</ele>
        <time>2022-09-18T10:34:38Z</time>
      </trkpt>
      <trkpt lat="44.62442" lon="6.20965">
        <ele>1382.2</ele>
        <time>2022-09-18T10:34:39Z</time>
      </trkpt>
      <trkpt lat="44.62444" lon="6.20963">
        <ele>1382.2</ele>
        <time>2022-09-18T10:34:40Z</time>
      </trkpt>
      <trkpt lat="44.62446" lon="6.20961">
        <ele>1382.4</ele>
        <time>2022-09-18T10:34:41Z</time>
      </trkpt>
      <trkpt lat="44.62448" lon="6.20959">
        <ele>1382</ele>
        <time>2022-09-18T10:34:42Z</time>
      </trkpt>
      <trkpt lat="44.6245" lon="6.20957">
        <ele>1381.6</ele>
        <time>2022-09-18T10:34:43Z</time>
      </trkpt>
      <trkpt lat="44.62452" lon="6.20955">
        <ele>1381.6</ele>
        <time>2022-09-18T10:34:44Z</time>
      </trkpt>
      <trkpt lat="44.62454" lon="6.20952">
        <ele>1381.4</ele>
        <time>2022-09-18T10:34:45Z</time>
      </trkpt>
      <trkpt lat="44.62457" lon="6.2095">
        <ele>1381.4</ele>
        <time>2022-09-18T10:34:46Z</time>
      </trkpt>
      <trkpt lat="44.62459" lon="6.20948">
        <ele>1381</ele>
        <time>2022-09-18T10:34:47Z</time>
      </trkpt>
      <trkpt lat="44.62462" lon="6.20946">
        <ele>1380.6</ele>
        <time>2022-09-18T10:34:48Z</time>
      </trkpt>
      <trkpt lat="44.62465" lon="6.20943">
        <ele>1380.4</ele>
        <time>2022-09-18T10:34:49Z</time>
      </trkpt>
      <trkpt lat="44.62468" lon="6.20941">
        <ele>1380</ele>
        <time>2022-09-18T10:34:50Z</time>
      </trkpt>
      <trkpt lat="44.6247" lon="6.20939">
        <ele>1379.8</ele>
        <time>2022-09-18T10:34:51Z</time>
      </trkpt>
      <trkpt lat="44.62473" lon="6.20936">
        <ele>1379.6</ele>
        <time>2022-09-18T10:34:52Z</time>
      </trkpt>
      <trkpt lat="44.62475" lon="6.20934">
        <ele>1379.4</ele>
        <time>2022-09-18T10:34:53Z</time>
      </trkpt>
      <trkpt lat="44.62477" lon="6.20932">
        <ele>1379.4</ele>
        <time>2022-09-18T10:34:54Z</time>
      </trkpt>
      <trkpt lat="44.62479" lon="6.2093">
        <ele>1379.2</ele>
        <time>2022-09-18T10:34:55Z</time>
      </trkpt>
      <trkpt lat="44.62481" lon="6.20928">
        <ele>1379</ele>
        <time>2022-09-18T10:34:56Z</time>
      </trkpt>
      <trkpt lat="44.62483" lon="6.20926">
        <ele>1378.8</ele>
        <time>2022-09-18T10:34:57Z</time>
      </trkpt>
      <trkpt lat="44.62485" lon="6.20924">
        <ele>1378.8</ele>
        <time>2022-09-18T10:34:58Z</time>
      </trkpt>
      <trkpt lat="44.62487" lon="6.20922">
        <ele>1378.6</ele>
        <time>2022-09-18T10:34:59Z</time>
      </trkpt>
      <trkpt lat="44.62489" lon="6.20919">
        <ele>1378.4</ele>
        <time>2022-09-18T10:35:00Z</time>
      </trkpt>
      <trkpt lat="44.62492" lon="6.20917">
        <ele>1378.2</ele>
        <time>2022-09-18T10:35:01Z</time>
      </trkpt>
      <trkpt lat="44.62494" lon="6.20915">
        <ele>1378.2</ele>
        <time>2022-09-18T10:35:02Z</time>
      </trkpt>
      <trkpt lat="44.62496" lon="6.20912">
        <ele>1378</ele>
        <time>2022-09-18T10:35:03Z</time>
      </trkpt>
      <trkpt lat="44.62498" lon="6.2091">
        <ele>1377.8</ele>
        <time>2022-09-18T10:35:04Z</time>
      </trkpt>
      <trkpt lat="44.625" lon="6.20907">
        <ele>1377.6</ele>
        <time>2022-09-18T10:35:05Z</time>
      </trkpt>
      <trkpt lat="44.62502" lon="6.20904">
        <ele>1377.6</ele>
        <time>2022-09-18T10:35:06Z</time>
      </trkpt>
      <trkpt lat="44.62504" lon="6.20902">
        <ele>1377.4</ele>
        <time>2022-09-18T10:35:07Z</time>
      </trkpt>
      <trkpt lat="44.62507" lon="6.20899">
        <ele>1377.4</ele>
        <time>2022-09-18T10:35:08Z</time>
      </trkpt>
      <trkpt lat="44.62509" lon="6.20897">
        <ele>1377.2</ele>
        <time>2022-09-18T10:35:09Z</time>
      </trkpt>
      <trkpt lat="44.62511" lon="6.20894">
        <ele>1377</ele>
        <time>2022-09-18T10:35:10Z</time>
      </trkpt>
      <trkpt lat="44.62513" lon="6.20892">
        <ele>1377</ele>
        <time>2022-09-18T10:35:11Z</time>
      </trkpt>
      <trkpt lat="44.62515" lon="6.20889">
        <ele>1377</ele>
        <time>2022-09-18T10:35:12Z</time>
      </trkpt>
      <trkpt lat="44.62517" lon="6.20887">
        <ele>1377</ele>
        <time>2022-09-18T10:35:13Z</time>
      </trkpt>
      <trkpt lat="44.62518" lon="6.20885">
        <ele>1377</ele>
        <time>2022-09-18T10:35:14Z</time>
      </trkpt>
      <trkpt lat="44.62519" lon="6.20883">
        <ele>1377</ele>
        <time>2022-09-18T10:35:15Z</time>
      </trkpt>
      <trkpt lat="44.62521" lon="6.20881">
        <ele>1377</ele>
        <time>2022-09-18T10:35:16Z</time>
      </trkpt>
      <trkpt lat="44.62523" lon="6.20879">
        <ele>1377</ele>
        <time>2022-09-18T10:35:17Z</time>
      </trkpt>
      <trkpt lat="44.62524" lon="6.20877">
        <ele>1376.8</ele>
        <time>2022-09-18T10:35:18Z</time>
      </trkpt>
      <trkpt lat="44.62526" lon="6.20875">
        <ele>1376.8</ele>
        <time>2022-09-18T10:35:19Z</time>
      </trkpt>
      <trkpt lat="44.62528" lon="6.20873">
        <ele>1376.8</ele>
        <time>2022-09-18T10:35:20Z</time>
      </trkpt>
      <trkpt lat="44.6253" lon="6.20871">
        <ele>1376.8</ele>
        <time>2022-09-18T10:35:21Z</time>
      </trkpt>
      <trkpt lat="44.62532" lon="6.20869">
        <ele>1376.8</ele>
        <time>2022-09-18T10:35:22Z</time>
      </trkpt>
      <trkpt lat="44.62534" lon="6.20867">
        <ele>1376.6</ele>
        <time>2022-09-18T10:35:23Z</time>
      </trkpt>
      <trkpt lat="44.62537" lon="6.20865">
        <ele>1376.6</ele>
        <time>2022-09-18T10:35:24Z</time>
      </trkpt>
      <trkpt lat="44.62539" lon="6.20863">
        <ele>1376.6</ele>
        <time>2022-09-18T10:35:25Z</time>
      </trkpt>
      <trkpt lat="44.62541" lon="6.20862">
        <ele>1376.8</ele>
        <time>2022-09-18T10:35:26Z</time>
      </trkpt>
      <trkpt lat="44.62543" lon="6.20861">
        <ele>1376.8</ele>
        <time>2022-09-18T10:35:27Z</time>
      </trkpt>
      <trkpt lat="44.62544" lon="6.20859">
        <ele>1376.8</ele>
        <time>2022-09-18T10:35:28Z</time>
      </trkpt>
      <trkpt lat="44.62547" lon="6.20857">
        <ele>1376.8</ele>
        <time>2022-09-18T10:35:30Z</time>
      </trkpt>
      <trkpt lat="44.6255" lon="6.20857">
        <ele>1377</ele>
        <time>2022-09-18T10:35:32Z</time>
      </trkpt>
      <trkpt lat="44.62551" lon="6.20855">
        <ele>1369.4</ele>
        <time>2022-09-18T10:36:25Z</time>
      </trkpt>
      <trkpt lat="44.62552" lon="6.20852">
        <ele>1368.2</ele>
        <time>2022-09-18T10:36:31Z</time>
      </trkpt>
      <trkpt lat="44.62553" lon="6.20849">
        <ele>1368</ele>
        <time>2022-09-18T10:36:32Z</time>
      </trkpt>
      <trkpt lat="44.62555" lon="6.20846">
        <ele>1368</ele>
        <time>2022-09-18T10:36:33Z</time>
      </trkpt>
      <trkpt lat="44.62557" lon="6.20843">
        <ele>1367.8</ele>
        <time>2022-09-18T10:36:34Z</time>
      </trkpt>
      <trkpt lat="44.62559" lon="6.2084">
        <ele>1367.4</ele>
        <time>2022-09-18T10:36:35Z</time>
      </trkpt>
      <trkpt lat="44.62561" lon="6.20836">
        <ele>1367.2</ele>
        <time>2022-09-18T10:36:36Z</time>
      </trkpt>
      <trkpt lat="44.62564" lon="6.20831">
        <ele>1367</ele>
        <time>2022-09-18T10:36:37Z</time>
      </trkpt>
      <trkpt lat="44.62567" lon="6.20826">
        <ele>1366.6</ele>
        <time>2022-09-18T10:36:38Z</time>
      </trkpt>
      <trkpt lat="44.62571" lon="6.20821">
        <ele>1366.4</ele>
        <time>2022-09-18T10:36:39Z</time>
      </trkpt>
      <trkpt lat="44.62575" lon="6.20816">
        <ele>1366</ele>
        <time>2022-09-18T10:36:40Z</time>
      </trkpt>
      <trkpt lat="44.6258" lon="6.20811">
        <ele>1365.8</ele>
        <time>2022-09-18T10:36:41Z</time>
      </trkpt>
      <trkpt lat="44.62585" lon="6.20806">
        <ele>1365.6</ele>
        <time>2022-09-18T10:36:42Z</time>
      </trkpt>
      <trkpt lat="44.62592" lon="6.20801">
        <ele>1365</ele>
        <time>2022-09-18T10:36:43Z</time>
      </trkpt>
      <trkpt lat="44.62598" lon="6.20797">
        <ele>1364.4</ele>
        <time>2022-09-18T10:36:44Z</time>
      </trkpt>
      <trkpt lat="44.62605" lon="6.20794">
        <ele>1364</ele>
        <time>2022-09-18T10:36:45Z</time>
      </trkpt>
      <trkpt lat="44.62613" lon="6.2079">
        <ele>1363.2</ele>
        <time>2022-09-18T10:36:46Z</time>
      </trkpt>
      <trkpt lat="44.6262" lon="6.20787">
        <ele>1362.6</ele>
        <time>2022-09-18T10:36:47Z</time>
      </trkpt>
      <trkpt lat="44.62628" lon="6.20784">
        <ele>1362.2</ele>
        <time>2022-09-18T10:36:48Z</time>
      </trkpt>
      <trkpt lat="44.62636" lon="6.2078">
        <ele>1361.8</ele>
        <time>2022-09-18T10:36:49Z</time>
      </trkpt>
      <trkpt lat="44.62644" lon="6.20776">
        <ele>1361.4</ele>
        <time>2022-09-18T10:36:50Z</time>
      </trkpt>
      <trkpt lat="44.62652" lon="6.20773">
        <ele>1361</ele>
        <time>2022-09-18T10:36:51Z</time>
      </trkpt>
      <trkpt lat="44.6266" lon="6.2077">
        <ele>1360.6</ele>
        <time>2022-09-18T10:36:52Z</time>
      </trkpt>
      <trkpt lat="44.62668" lon="6.20767">
        <ele>1360.2</ele>
        <time>2022-09-18T10:36:53Z</time>
      </trkpt>
      <trkpt lat="44.62676" lon="6.20765">
        <ele>1359.8</ele>
        <time>2022-09-18T10:36:54Z</time>
      </trkpt>
      <trkpt lat="44.62684" lon="6.20763">
        <ele>1359.6</ele>
        <time>2022-09-18T10:36:55Z</time>
      </trkpt>
      <trkpt lat="44.62692" lon="6.20763">
        <ele>1359.4</ele>
        <time>2022-09-18T10:36:56Z</time>
      </trkpt>
      <trkpt lat="44.627" lon="6.20763">
        <ele>1359.2</ele>
        <time>2022-09-18T10:36:57Z</time>
      </trkpt>
      <trkpt lat="44.62708" lon="6.20764">
        <ele>1359.4</ele>
        <time>2022-09-18T10:36:58Z</time>
      </trkpt>
      <trkpt lat="44.62715" lon="6.20765">
        <ele>1359.2</ele>
        <time>2022-09-18T10:36:59Z</time>
      </trkpt>
      <trkpt lat="44.62722" lon="6.20765">
        <ele>1359</ele>
        <time>2022-09-18T10:37:00Z</time>
      </trkpt>
      <trkpt lat="44.62729" lon="6.20765">
        <ele>1359</ele>
        <time>2022-09-18T10:37:01Z</time>
      </trkpt>
      <trkpt lat="44.62736" lon="6.20765">
        <ele>1359</ele>
        <time>2022-09-18T10:37:02Z</time>
      </trkpt>
      <trkpt lat="44.62743" lon="6.20764">
        <ele>1358.8</ele>
        <time>2022-09-18T10:37:03Z</time>
      </trkpt>
      <trkpt lat="44.62751" lon="6.20763">
        <ele>1358.8</ele>
        <time>2022-09-18T10:37:04Z</time>
      </trkpt>
      <trkpt lat="44.62758" lon="6.20762">
        <ele>1359</ele>
        <time>2022-09-18T10:37:05Z</time>
      </trkpt>
      <trkpt lat="44.62764" lon="6.20761">
        <ele>1359.2</ele>
        <time>2022-09-18T10:37:06Z</time>
      </trkpt>
      <trkpt lat="44.62771" lon="6.2076">
        <ele>1359.4</ele>
        <time>2022-09-18T10:37:07Z</time>
      </trkpt>
      <trkpt lat="44.62777" lon="6.20759">
        <ele>1359.6</ele>
        <time>2022-09-18T10:37:08Z</time>
      </trkpt>
      <trkpt lat="44.62783" lon="6.20757">
        <ele>1360</ele>
        <time>2022-09-18T10:37:09Z</time>
      </trkpt>
      <trkpt lat="44.62789" lon="6.20755">
        <ele>1360</ele>
        <time>2022-09-18T10:37:10Z</time>
      </trkpt>
      <trkpt lat="44.62794" lon="6.20752">
        <ele>1360</ele>
        <time>2022-09-18T10:37:11Z</time>
      </trkpt>
      <trkpt lat="44.62799" lon="6.20748">
        <ele>1360</ele>
        <time>2022-09-18T10:37:12Z</time>
      </trkpt>
      <trkpt lat="44.62803" lon="6.20745">
        <ele>1360.2</ele>
        <time>2022-09-18T10:37:13Z</time>
      </trkpt>
      <trkpt lat="44.62808" lon="6.20741">
        <ele>1360.6</ele>
        <time>2022-09-18T10:37:14Z</time>
      </trkpt>
      <trkpt lat="44.62812" lon="6.20738">
        <ele>1361.2</ele>
        <time>2022-09-18T10:37:15Z</time>
      </trkpt>
      <trkpt lat="44.62815" lon="6.20735">
        <ele>1361.6</ele>
        <time>2022-09-18T10:37:16Z</time>
      </trkpt>
      <trkpt lat="44.62819" lon="6.20732">
        <ele>1361.8</ele>
        <time>2022-09-18T10:37:17Z</time>
      </trkpt>
      <trkpt lat="44.62822" lon="6.2073">
        <ele>1362.4</ele>
        <time>2022-09-18T10:37:18Z</time>
      </trkpt>
      <trkpt lat="44.62826" lon="6.20727">
        <ele>1363</ele>
        <time>2022-09-18T10:37:19Z</time>
      </trkpt>
      <trkpt lat="44.62829" lon="6.20725">
        <ele>1363.4</ele>
        <time>2022-09-18T10:37:20Z</time>
      </trkpt>
      <trkpt lat="44.62831" lon="6.20723">
        <ele>1363.8</ele>
        <time>2022-09-18T10:37:21Z</time>
      </trkpt>
      <trkpt lat="44.62834" lon="6.20721">
        <ele>1364.2</ele>
        <time>2022-09-18T10:37:22Z</time>
      </trkpt>
      <trkpt lat="44.62837" lon="6.20719">
        <ele>1364.6</ele>
        <time>2022-09-18T10:37:23Z</time>
      </trkpt>
      <trkpt lat="44.6284" lon="6.20717">
        <ele>1365</ele>
        <time>2022-09-18T10:37:24Z</time>
      </trkpt>
      <trkpt lat="44.62843" lon="6.20716">
        <ele>1365.2</ele>
        <time>2022-09-18T10:37:25Z</time>
      </trkpt>
      <trkpt lat="44.62846" lon="6.20714">
        <ele>1365.6</ele>
        <time>2022-09-18T10:37:26Z</time>
      </trkpt>
      <trkpt lat="44.62849" lon="6.20712">
        <ele>1366.2</ele>
        <time>2022-09-18T10:37:27Z</time>
      </trkpt>
      <trkpt lat="44.62851" lon="6.20711">
        <ele>1366.4</ele>
        <time>2022-09-18T10:37:28Z</time>
      </trkpt>
      <trkpt lat="44.62854" lon="6.20709">
        <ele>1366.8</ele>
        <time>2022-09-18T10:37:29Z</time>
      </trkpt>
      <trkpt lat="44.62857" lon="6.20707">
        <ele>1367</ele>
        <time>2022-09-18T10:37:30Z</time>
      </trkpt>
      <trkpt lat="44.6286" lon="6.20705">
        <ele>1367.2</ele>
        <time>2022-09-18T10:37:31Z</time>
      </trkpt>
      <trkpt lat="44.62863" lon="6.20703">
        <ele>1367.4</ele>
        <time>2022-09-18T10:37:32Z</time>
      </trkpt>
      <trkpt lat="44.62866" lon="6.20701">
        <ele>1367.6</ele>
        <time>2022-09-18T10:37:33Z</time>
      </trkpt>
      <trkpt lat="44.62869" lon="6.20699">
        <ele>1367.6</ele>
        <time>2022-09-18T10:37:34Z</time>
      </trkpt>
      <trkpt lat="44.62872" lon="6.20697">
        <ele>1367.6</ele>
        <time>2022-09-18T10:37:35Z</time>
      </trkpt>
      <trkpt lat="44.62875" lon="6.20695">
        <ele>1367.8</ele>
        <time>2022-09-18T10:37:36Z</time>
      </trkpt>
      <trkpt lat="44.62878" lon="6.20693">
        <ele>1367.8</ele>
        <time>2022-09-18T10:37:37Z</time>
      </trkpt>
      <trkpt lat="44.62881" lon="6.20692">
        <ele>1368</ele>
        <time>2022-09-18T10:37:38Z</time>
      </trkpt>
      <trkpt lat="44.62884" lon="6.2069">
        <ele>1368.2</ele>
        <time>2022-09-18T10:37:39Z</time>
      </trkpt>
      <trkpt lat="44.62887" lon="6.20688">
        <ele>1368.4</ele>
        <time>2022-09-18T10:37:40Z</time>
      </trkpt>
      <trkpt lat="44.62889" lon="6.20687">
        <ele>1368.4</ele>
        <time>2022-09-18T10:37:41Z</time>
      </trkpt>
      <trkpt lat="44.62892" lon="6.20686">
        <ele>1368.2</ele>
        <time>2022-09-18T10:37:42Z</time>
      </trkpt>
      <trkpt lat="44.62894" lon="6.20684">
        <ele>1368.4</ele>
        <time>2022-09-18T10:37:43Z</time>
      </trkpt>
      <trkpt lat="44.62897" lon="6.20682">
        <ele>1368.4</ele>
        <time>2022-09-18T10:37:44Z</time>
      </trkpt>
      <trkpt lat="44.629" lon="6.2068">
        <ele>1368.6</ele>
        <time>2022-09-18T10:37:45Z</time>
      </trkpt>
      <trkpt lat="44.62903" lon="6.20679">
        <ele>1368.6</ele>
        <time>2022-09-18T10:37:46Z</time>
      </trkpt>
      <trkpt lat="44.62906" lon="6.20677">
        <ele>1368.6</ele>
        <time>2022-09-18T10:37:47Z</time>
      </trkpt>
      <trkpt lat="44.6291" lon="6.20676">
        <ele>1369</ele>
        <time>2022-09-18T10:37:48Z</time>
      </trkpt>
      <trkpt lat="44.62913" lon="6.20674">
        <ele>1369</ele>
        <time>2022-09-18T10:37:49Z</time>
      </trkpt>
      <trkpt lat="44.62916" lon="6.20673">
        <ele>1369</ele>
        <time>2022-09-18T10:37:50Z</time>
      </trkpt>
      <trkpt lat="44.62919" lon="6.20672">
        <ele>1369</ele>
        <time>2022-09-18T10:37:51Z</time>
      </trkpt>
      <trkpt lat="44.62923" lon="6.20671">
        <ele>1369.2</ele>
        <time>2022-09-18T10:37:52Z</time>
      </trkpt>
      <trkpt lat="44.62926" lon="6.2067">
        <ele>1369.2</ele>
        <time>2022-09-18T10:37:53Z</time>
      </trkpt>
      <trkpt lat="44.62929" lon="6.20669">
        <ele>1369.2</ele>
        <time>2022-09-18T10:37:54Z</time>
      </trkpt>
      <trkpt lat="44.62932" lon="6.20668">
        <ele>1369.2</ele>
        <time>2022-09-18T10:37:55Z</time>
      </trkpt>
      <trkpt lat="44.62934" lon="6.20667">
        <ele>1369.4</ele>
        <time>2022-09-18T10:37:56Z</time>
      </trkpt>
      <trkpt lat="44.62937" lon="6.20666">
        <ele>1369.6</ele>
        <time>2022-09-18T10:37:57Z</time>
      </trkpt>
      <trkpt lat="44.6294" lon="6.20665">
        <ele>1369.8</ele>
        <time>2022-09-18T10:37:58Z</time>
      </trkpt>
      <trkpt lat="44.62943" lon="6.20664">
        <ele>1370.4</ele>
        <time>2022-09-18T10:37:59Z</time>
      </trkpt>
      <trkpt lat="44.62946" lon="6.20663">
        <ele>1371</ele>
        <time>2022-09-18T10:38:00Z</time>
      </trkpt>
      <trkpt lat="44.62949" lon="6.20661">
        <ele>1371.4</ele>
        <time>2022-09-18T10:38:01Z</time>
      </trkpt>
      <trkpt lat="44.62952" lon="6.2066">
        <ele>1371.4</ele>
        <time>2022-09-18T10:38:02Z</time>
      </trkpt>
      <trkpt lat="44.62956" lon="6.20658">
        <ele>1371.2</ele>
        <time>2022-09-18T10:38:03Z</time>
      </trkpt>
      <trkpt lat="44.62959" lon="6.20657">
        <ele>1371.2</ele>
        <time>2022-09-18T10:38:04Z</time>
      </trkpt>
      <trkpt lat="44.62963" lon="6.20655">
        <ele>1371.4</ele>
        <time>2022-09-18T10:38:05Z</time>
      </trkpt>
      <trkpt lat="44.62966" lon="6.20653">
        <ele>1371.2</ele>
        <time>2022-09-18T10:38:06Z</time>
      </trkpt>
      <trkpt lat="44.62969" lon="6.20651">
        <ele>1371.4</ele>
        <time>2022-09-18T10:38:07Z</time>
      </trkpt>
      <trkpt lat="44.62973" lon="6.20649">
        <ele>1371.2</ele>
        <time>2022-09-18T10:38:08Z</time>
      </trkpt>
      <trkpt lat="44.62977" lon="6.20647">
        <ele>1371.2</ele>
        <time>2022-09-18T10:38:09Z</time>
      </trkpt>
      <trkpt lat="44.62981" lon="6.20646">
        <ele>1371.2</ele>
        <time>2022-09-18T10:38:10Z</time>
      </trkpt>
      <trkpt lat="44.62984" lon="6.20643">
        <ele>1371.6</ele>
        <time>2022-09-18T10:38:11Z</time>
      </trkpt>
      <trkpt lat="44.62988" lon="6.20641">
        <ele>1371.8</ele>
        <time>2022-09-18T10:38:12Z</time>
      </trkpt>
      <trkpt lat="44.62992" lon="6.20638">
        <ele>1372</ele>
        <time>2022-09-18T10:38:13Z</time>
      </trkpt>
      <trkpt lat="44.62996" lon="6.20636">
        <ele>1372</ele>
        <time>2022-09-18T10:38:14Z</time>
      </trkpt>
      <trkpt lat="44.63" lon="6.20633">
        <ele>1372.2</ele>
        <time>2022-09-18T10:38:15Z</time>
      </trkpt>
      <trkpt lat="44.63004" lon="6.2063">
        <ele>1372.4</ele>
        <time>2022-09-18T10:38:16Z</time>
      </trkpt>
      <trkpt lat="44.63007" lon="6.20627">
        <ele>1372.4</ele>
        <time>2022-09-18T10:38:17Z</time>
      </trkpt>
      <trkpt lat="44.63011" lon="6.20624">
        <ele>1372.8</ele>
        <time>2022-09-18T10:38:18Z</time>
      </trkpt>
      <trkpt lat="44.63015" lon="6.20621">
        <ele>1372.8</ele>
        <time>2022-09-18T10:38:19Z</time>
      </trkpt>
      <trkpt lat="44.63019" lon="6.20618">
        <ele>1373</ele>
        <time>2022-09-18T10:38:20Z</time>
      </trkpt>
      <trkpt lat="44.63023" lon="6.20616">
        <ele>1373.6</ele>
        <time>2022-09-18T10:38:21Z</time>
      </trkpt>
      <trkpt lat="44.63027" lon="6.20614">
        <ele>1373.8</ele>
        <time>2022-09-18T10:38:22Z</time>
      </trkpt>
      <trkpt lat="44.63031" lon="6.20612">
        <ele>1374</ele>
        <time>2022-09-18T10:38:23Z</time>
      </trkpt>
      <trkpt lat="44.63035" lon="6.2061">
        <ele>1374</ele>
        <time>2022-09-18T10:38:24Z</time>
      </trkpt>
      <trkpt lat="44.6304" lon="6.20609">
        <ele>1374.2</ele>
        <time>2022-09-18T10:38:25Z</time>
      </trkpt>
      <trkpt lat="44.63044" lon="6.20608">
        <ele>1374.2</ele>
        <time>2022-09-18T10:38:26Z</time>
      </trkpt>
      <trkpt lat="44.63048" lon="6.20607">
        <ele>1374.4</ele>
        <time>2022-09-18T10:38:27Z</time>
      </trkpt>
      <trkpt lat="44.63051" lon="6.20605">
        <ele>1374.6</ele>
        <time>2022-09-18T10:38:28Z</time>
      </trkpt>
      <trkpt lat="44.63055" lon="6.20603">
        <ele>1374.8</ele>
        <time>2022-09-18T10:38:29Z</time>
      </trkpt>
      <trkpt lat="44.63059" lon="6.20602">
        <ele>1375.2</ele>
        <time>2022-09-18T10:38:30Z</time>
      </trkpt>
      <trkpt lat="44.63062" lon="6.206">
        <ele>1375.4</ele>
        <time>2022-09-18T10:38:31Z</time>
      </trkpt>
      <trkpt lat="44.63064" lon="6.20599">
        <ele>1375.8</ele>
        <time>2022-09-18T10:38:32Z</time>
      </trkpt>
      <trkpt lat="44.63066" lon="6.20599">
        <ele>1376.2</ele>
        <time>2022-09-18T10:38:33Z</time>
      </trkpt>
      <trkpt lat="44.63077" lon="6.20595">
        <ele>1378</ele>
        <time>2022-09-18T10:38:37Z</time>
      </trkpt>
      <trkpt lat="44.63087" lon="6.20593">
        <ele>1379.6</ele>
        <time>2022-09-18T10:38:41Z</time>
      </trkpt>
      <trkpt lat="44.63099" lon="6.20588">
        <ele>1381.2</ele>
        <time>2022-09-18T10:38:45Z</time>
      </trkpt>
      <trkpt lat="44.63102" lon="6.20587">
        <ele>1381.6</ele>
        <time>2022-09-18T10:38:46Z</time>
      </trkpt>
      <trkpt lat="44.63105" lon="6.20586">
        <ele>1382</ele>
        <time>2022-09-18T10:38:47Z</time>
      </trkpt>
      <trkpt lat="44.63108" lon="6.20585">
        <ele>1382.2</ele>
        <time>2022-09-18T10:38:48Z</time>
      </trkpt>
      <trkpt lat="44.6311" lon="6.20585">
        <ele>1382.6</ele>
        <time>2022-09-18T10:38:49Z</time>
      </trkpt>
      <trkpt lat="44.63113" lon="6.20584">
        <ele>1383</ele>
        <time>2022-09-18T10:38:50Z</time>
      </trkpt>
      <trkpt lat="44.63117" lon="6.20583">
        <ele>1383.4</ele>
        <time>2022-09-18T10:38:51Z</time>
      </trkpt>
      <trkpt lat="44.6312" lon="6.20582">
        <ele>1383.6</ele>
        <time>2022-09-18T10:38:52Z</time>
      </trkpt>
      <trkpt lat="44.63124" lon="6.20581">
        <ele>1384</ele>
        <time>2022-09-18T10:38:53Z</time>
      </trkpt>
      <trkpt lat="44.63127" lon="6.20579">
        <ele>1384</ele>
        <time>2022-09-18T10:38:54Z</time>
      </trkpt>
      <trkpt lat="44.6313" lon="6.20578">
        <ele>1384.4</ele>
        <time>2022-09-18T10:38:55Z</time>
      </trkpt>
      <trkpt lat="44.63134" lon="6.20576">
        <ele>1384.6</ele>
        <time>2022-09-18T10:38:56Z</time>
      </trkpt>
      <trkpt lat="44.63137" lon="6.20574">
        <ele>1384.8</ele>
        <time>2022-09-18T10:38:57Z</time>
      </trkpt>
      <trkpt lat="44.6314" lon="6.20572">
        <ele>1385.2</ele>
        <time>2022-09-18T10:38:58Z</time>
      </trkpt>
      <trkpt lat="44.63143" lon="6.20571">
        <ele>1385.4</ele>
        <time>2022-09-18T10:38:59Z</time>
      </trkpt>
      <trkpt lat="44.63147" lon="6.20569">
        <ele>1385.6</ele>
        <time>2022-09-18T10:39:00Z</time>
      </trkpt>
      <trkpt lat="44.6315" lon="6.20567">
        <ele>1385.8</ele>
        <time>2022-09-18T10:39:01Z</time>
      </trkpt>
      <trkpt lat="44.63153" lon="6.20565">
        <ele>1386.2</ele>
        <time>2022-09-18T10:39:02Z</time>
      </trkpt>
      <trkpt lat="44.63156" lon="6.20563">
        <ele>1386.6</ele>
        <time>2022-09-18T10:39:03Z</time>
      </trkpt>
      <trkpt lat="44.63159" lon="6.20561">
        <ele>1386.8</ele>
        <time>2022-09-18T10:39:04Z</time>
      </trkpt>
      <trkpt lat="44.63162" lon="6.20559">
        <ele>1387.2</ele>
        <time>2022-09-18T10:39:05Z</time>
      </trkpt>
      <trkpt lat="44.63165" lon="6.20558">
        <ele>1387.4</ele>
        <time>2022-09-18T10:39:06Z</time>
      </trkpt>
      <trkpt lat="44.63168" lon="6.20556">
        <ele>1388</ele>
        <time>2022-09-18T10:39:07Z</time>
      </trkpt>
      <trkpt lat="44.63171" lon="6.20555">
        <ele>1388.2</ele>
        <time>2022-09-18T10:39:08Z</time>
      </trkpt>
      <trkpt lat="44.63173" lon="6.20553">
        <ele>1388.8</ele>
        <time>2022-09-18T10:39:09Z</time>
      </trkpt>
      <trkpt lat="44.63176" lon="6.20552">
        <ele>1389.2</ele>
        <time>2022-09-18T10:39:10Z</time>
      </trkpt>
      <trkpt lat="44.63179" lon="6.20551">
        <ele>1389.4</ele>
        <time>2022-09-18T10:39:11Z</time>
      </trkpt>
      <trkpt lat="44.63182" lon="6.2055">
        <ele>1389.6</ele>
        <time>2022-09-18T10:39:12Z</time>
      </trkpt>
      <trkpt lat="44.63185" lon="6.20548">
        <ele>1390</ele>
        <time>2022-09-18T10:39:13Z</time>
      </trkpt>
      <trkpt lat="44.63188" lon="6.20547">
        <ele>1390.2</ele>
        <time>2022-09-18T10:39:14Z</time>
      </trkpt>
      <trkpt lat="44.63191" lon="6.20545">
        <ele>1390.4</ele>
        <time>2022-09-18T10:39:15Z</time>
      </trkpt>
      <trkpt lat="44.63193" lon="6.20544">
        <ele>1390.6</ele>
        <time>2022-09-18T10:39:16Z</time>
      </trkpt>
      <trkpt lat="44.63196" lon="6.20542">
        <ele>1391</ele>
        <time>2022-09-18T10:39:17Z</time>
      </trkpt>
      <trkpt lat="44.63199" lon="6.2054">
        <ele>1391.4</ele>
        <time>2022-09-18T10:39:18Z</time>
      </trkpt>
      <trkpt lat="44.63202" lon="6.20538">
        <ele>1391.4</ele>
        <time>2022-09-18T10:39:19Z</time>
      </trkpt>
      <trkpt lat="44.63205" lon="6.20536">
        <ele>1391.6</ele>
        <time>2022-09-18T10:39:20Z</time>
      </trkpt>
      <trkpt lat="44.63208" lon="6.20535">
        <ele>1392.2</ele>
        <time>2022-09-18T10:39:21Z</time>
      </trkpt>
      <trkpt lat="44.6321" lon="6.20533">
        <ele>1392.6</ele>
        <time>2022-09-18T10:39:22Z</time>
      </trkpt>
      <trkpt lat="44.63213" lon="6.20531">
        <ele>1392.6</ele>
        <time>2022-09-18T10:39:23Z</time>
      </trkpt>
      <trkpt lat="44.63215" lon="6.20529">
        <ele>1393</ele>
        <time>2022-09-18T10:39:24Z</time>
      </trkpt>
      <trkpt lat="44.63218" lon="6.20528">
        <ele>1393</ele>
        <time>2022-09-18T10:39:25Z</time>
      </trkpt>
      <trkpt lat="44.63221" lon="6.20526">
        <ele>1393</ele>
        <time>2022-09-18T10:39:26Z</time>
      </trkpt>
      <trkpt lat="44.63223" lon="6.20524">
        <ele>1392.8</ele>
        <time>2022-09-18T10:39:27Z</time>
      </trkpt>
      <trkpt lat="44.63226" lon="6.20523">
        <ele>1393.2</ele>
        <time>2022-09-18T10:39:28Z</time>
      </trkpt>
      <trkpt lat="44.63229" lon="6.20521">
        <ele>1393.6</ele>
        <time>2022-09-18T10:39:29Z</time>
      </trkpt>
      <trkpt lat="44.63232" lon="6.20519">
        <ele>1393.8</ele>
        <time>2022-09-18T10:39:30Z</time>
      </trkpt>
      <trkpt lat="44.63235" lon="6.20517">
        <ele>1393.8</ele>
        <time>2022-09-18T10:39:31Z</time>
      </trkpt>
      <trkpt lat="44.63237" lon="6.20516">
        <ele>1394</ele>
        <time>2022-09-18T10:39:32Z</time>
      </trkpt>
      <trkpt lat="44.6324" lon="6.20514">
        <ele>1394.2</ele>
        <time>2022-09-18T10:39:33Z</time>
      </trkpt>
      <trkpt lat="44.63243" lon="6.20512">
        <ele>1394.4</ele>
        <time>2022-09-18T10:39:34Z</time>
      </trkpt>
      <trkpt lat="44.63245" lon="6.2051">
        <ele>1394.8</ele>
        <time>2022-09-18T10:39:35Z</time>
      </trkpt>
      <trkpt lat="44.63247" lon="6.20508">
        <ele>1395.2</ele>
        <time>2022-09-18T10:39:36Z</time>
      </trkpt>
      <trkpt lat="44.6325" lon="6.20506">
        <ele>1395.6</ele>
        <time>2022-09-18T10:39:37Z</time>
      </trkpt>
      <trkpt lat="44.63252" lon="6.20504">
        <ele>1396</ele>
        <time>2022-09-18T10:39:38Z</time>
      </trkpt>
      <trkpt lat="44.63254" lon="6.20502">
        <ele>1396.2</ele>
        <time>2022-09-18T10:39:39Z</time>
      </trkpt>
      <trkpt lat="44.63256" lon="6.20499">
        <ele>1396.4</ele>
        <time>2022-09-18T10:39:40Z</time>
      </trkpt>
      <trkpt lat="44.63258" lon="6.20497">
        <ele>1396.8</ele>
        <time>2022-09-18T10:39:41Z</time>
      </trkpt>
      <trkpt lat="44.63261" lon="6.20495">
        <ele>1397.2</ele>
        <time>2022-09-18T10:39:42Z</time>
      </trkpt>
      <trkpt lat="44.63263" lon="6.20492">
        <ele>1397.4</ele>
        <time>2022-09-18T10:39:43Z</time>
      </trkpt>
      <trkpt lat="44.63265" lon="6.2049">
        <ele>1397.4</ele>
        <time>2022-09-18T10:39:44Z</time>
      </trkpt>
      <trkpt lat="44.63268" lon="6.20487">
        <ele>1397.6</ele>
        <time>2022-09-18T10:39:45Z</time>
      </trkpt>
      <trkpt lat="44.6327" lon="6.20485">
        <ele>1397.8</ele>
        <time>2022-09-18T10:39:46Z</time>
      </trkpt>
      <trkpt lat="44.63273" lon="6.20482">
        <ele>1397.8</ele>
        <time>2022-09-18T10:39:47Z</time>
      </trkpt>
      <trkpt lat="44.63275" lon="6.2048">
        <ele>1398</ele>
        <time>2022-09-18T10:39:48Z</time>
      </trkpt>
      <trkpt lat="44.63277" lon="6.20477">
        <ele>1398</ele>
        <time>2022-09-18T10:39:49Z</time>
      </trkpt>
      <trkpt lat="44.6328" lon="6.20474">
        <ele>1398</ele>
        <time>2022-09-18T10:39:50Z</time>
      </trkpt>
      <trkpt lat="44.63282" lon="6.20471">
        <ele>1398</ele>
        <time>2022-09-18T10:39:51Z</time>
      </trkpt>
      <trkpt lat="44.63284" lon="6.20469">
        <ele>1398</ele>
        <time>2022-09-18T10:39:52Z</time>
      </trkpt>
      <trkpt lat="44.63287" lon="6.20466">
        <ele>1398.2</ele>
        <time>2022-09-18T10:39:53Z</time>
      </trkpt>
      <trkpt lat="44.63289" lon="6.20463">
        <ele>1398.4</ele>
        <time>2022-09-18T10:39:54Z</time>
      </trkpt>
      <trkpt lat="44.63291" lon="6.20461">
        <ele>1398.6</ele>
        <time>2022-09-18T10:39:55Z</time>
      </trkpt>
      <trkpt lat="44.63294" lon="6.20458">
        <ele>1398.8</ele>
        <time>2022-09-18T10:39:56Z</time>
      </trkpt>
      <trkpt lat="44.63296" lon="6.20455">
        <ele>1399</ele>
        <time>2022-09-18T10:39:57Z</time>
      </trkpt>
      <trkpt lat="44.63299" lon="6.20453">
        <ele>1399.2</ele>
        <time>2022-09-18T10:39:58Z</time>
      </trkpt>
      <trkpt lat="44.63301" lon="6.2045">
        <ele>1399.4</ele>
        <time>2022-09-18T10:39:59Z</time>
      </trkpt>
      <trkpt lat="44.63304" lon="6.20448">
        <ele>1399.4</ele>
        <time>2022-09-18T10:40:00Z</time>
      </trkpt>
      <trkpt lat="44.63307" lon="6.20446">
        <ele>1399.4</ele>
        <time>2022-09-18T10:40:01Z</time>
      </trkpt>
      <trkpt lat="44.6331" lon="6.20444">
        <ele>1399.4</ele>
        <time>2022-09-18T10:40:02Z</time>
      </trkpt>
      <trkpt lat="44.63313" lon="6.20443">
        <ele>1399.6</ele>
        <time>2022-09-18T10:40:03Z</time>
      </trkpt>
      <trkpt lat="44.63316" lon="6.20441">
        <ele>1399.8</ele>
        <time>2022-09-18T10:40:04Z</time>
      </trkpt>
      <trkpt lat="44.6332" lon="6.2044">
        <ele>1399.8</ele>
        <time>2022-09-18T10:40:05Z</time>
      </trkpt>
      <trkpt lat="44.63323" lon="6.2044">
        <ele>1400</ele>
        <time>2022-09-18T10:40:06Z</time>
      </trkpt>
      <trkpt lat="44.63326" lon="6.20439">
        <ele>1400.2</ele>
        <time>2022-09-18T10:40:07Z</time>
      </trkpt>
      <trkpt lat="44.63329" lon="6.20438">
        <ele>1400.2</ele>
        <time>2022-09-18T10:40:08Z</time>
      </trkpt>
      <trkpt lat="44.63333" lon="6.20438">
        <ele>1400.6</ele>
        <time>2022-09-18T10:40:09Z</time>
      </trkpt>
      <trkpt lat="44.63336" lon="6.20437">
        <ele>1400.8</ele>
        <time>2022-09-18T10:40:10Z</time>
      </trkpt>
      <trkpt lat="44.63339" lon="6.20437">
        <ele>1401</ele>
        <time>2022-09-18T10:40:11Z</time>
      </trkpt>
      <trkpt lat="44.63342" lon="6.20436">
        <ele>1401.4</ele>
        <time>2022-09-18T10:40:12Z</time>
      </trkpt>
      <trkpt lat="44.63346" lon="6.20435">
        <ele>1401.8</ele>
        <time>2022-09-18T10:40:13Z</time>
      </trkpt>
      <trkpt lat="44.63349" lon="6.20433">
        <ele>1402</ele>
        <time>2022-09-18T10:40:14Z</time>
      </trkpt>
      <trkpt lat="44.63352" lon="6.20431">
        <ele>1402.4</ele>
        <time>2022-09-18T10:40:15Z</time>
      </trkpt>
      <trkpt lat="44.63356" lon="6.20429">
        <ele>1402.6</ele>
        <time>2022-09-18T10:40:16Z</time>
      </trkpt>
      <trkpt lat="44.63359" lon="6.20427">
        <ele>1402.6</ele>
        <time>2022-09-18T10:40:17Z</time>
      </trkpt>
      <trkpt lat="44.63362" lon="6.20424">
        <ele>1402.6</ele>
        <time>2022-09-18T10:40:18Z</time>
      </trkpt>
      <trkpt lat="44.63365" lon="6.20421">
        <ele>1402.8</ele>
        <time>2022-09-18T10:40:19Z</time>
      </trkpt>
      <trkpt lat="44.63368" lon="6.20417">
        <ele>1403.2</ele>
        <time>2022-09-18T10:40:20Z</time>
      </trkpt>
      <trkpt lat="44.63371" lon="6.20413">
        <ele>1403.2</ele>
        <time>2022-09-18T10:40:21Z</time>
      </trkpt>
      <trkpt lat="44.63374" lon="6.20408">
        <ele>1403</ele>
        <time>2022-09-18T10:40:22Z</time>
      </trkpt>
      <trkpt lat="44.63376" lon="6.20403">
        <ele>1403</ele>
        <time>2022-09-18T10:40:23Z</time>
      </trkpt>
      <trkpt lat="44.63377" lon="6.20398">
        <ele>1403</ele>
        <time>2022-09-18T10:40:24Z</time>
      </trkpt>
      <trkpt lat="44.63379" lon="6.20393">
        <ele>1403</ele>
        <time>2022-09-18T10:40:25Z</time>
      </trkpt>
      <trkpt lat="44.63379" lon="6.20388">
        <ele>1403</ele>
        <time>2022-09-18T10:40:26Z</time>
      </trkpt>
      <trkpt lat="44.6338" lon="6.20382">
        <ele>1403</ele>
        <time>2022-09-18T10:40:27Z</time>
      </trkpt>
      <trkpt lat="44.6338" lon="6.20377">
        <ele>1403.4</ele>
        <time>2022-09-18T10:40:28Z</time>
      </trkpt>
      <trkpt lat="44.6338" lon="6.20371">
        <ele>1403.6</ele>
        <time>2022-09-18T10:40:29Z</time>
      </trkpt>
      <trkpt lat="44.6338" lon="6.20366">
        <ele>1403.6</ele>
        <time>2022-09-18T10:40:30Z</time>
      </trkpt>
      <trkpt lat="44.6338" lon="6.2036">
        <ele>1403.8</ele>
        <time>2022-09-18T10:40:31Z</time>
      </trkpt>
      <trkpt lat="44.63379" lon="6.20355">
        <ele>1403.8</ele>
        <time>2022-09-18T10:40:32Z</time>
      </trkpt>
      <trkpt lat="44.63379" lon="6.20351">
        <ele>1404</ele>
        <time>2022-09-18T10:40:33Z</time>
      </trkpt>
      <trkpt lat="44.63378" lon="6.20346">
        <ele>1404.2</ele>
        <time>2022-09-18T10:40:34Z</time>
      </trkpt>
      <trkpt lat="44.63378" lon="6.20342">
        <ele>1404.4</ele>
        <time>2022-09-18T10:40:35Z</time>
      </trkpt>
      <trkpt lat="44.63377" lon="6.20339">
        <ele>1405</ele>
        <time>2022-09-18T10:40:36Z</time>
      </trkpt>
      <trkpt lat="44.63377" lon="6.20336">
        <ele>1405.6</ele>
        <time>2022-09-18T10:40:37Z</time>
      </trkpt>
      <trkpt lat="44.63378" lon="6.20333">
        <ele>1405.8</ele>
        <time>2022-09-18T10:40:39Z</time>
      </trkpt>
      <trkpt lat="44.63376" lon="6.20336">
        <ele>1404.8</ele>
        <time>2022-09-18T10:40:51Z</time>
      </trkpt>
      <trkpt lat="44.63375" lon="6.20333">
        <ele>1403.2</ele>
        <time>2022-09-18T10:40:56Z</time>
      </trkpt>
      <trkpt lat="44.63375" lon="6.2033">
        <ele>1402.8</ele>
        <time>2022-09-18T10:40:58Z</time>
      </trkpt>
      <trkpt lat="44.63375" lon="6.20327">
        <ele>1402</ele>
        <time>2022-09-18T10:41:00Z</time>
      </trkpt>
      <trkpt lat="44.63374" lon="6.20323">
        <ele>1401</ele>
        <time>2022-09-18T10:41:03Z</time>
      </trkpt>
      <trkpt lat="44.63373" lon="6.20321">
        <ele>1385.4</ele>
        <time>2022-09-18T10:41:48Z</time>
      </trkpt>
      <trkpt lat="44.63372" lon="6.20316">
        <ele>1385</ele>
        <time>2022-09-18T10:41:50Z</time>
      </trkpt>
      <trkpt lat="44.63371" lon="6.20312">
        <ele>1384.8</ele>
        <time>2022-09-18T10:41:52Z</time>
      </trkpt>
      <trkpt lat="44.63371" lon="6.20309">
        <ele>1384.6</ele>
        <time>2022-09-18T10:41:53Z</time>
      </trkpt>
      <trkpt lat="44.63371" lon="6.20306">
        <ele>1384</ele>
        <time>2022-09-18T10:41:54Z</time>
      </trkpt>
      <trkpt lat="44.6337" lon="6.20302">
        <ele>1383.6</ele>
        <time>2022-09-18T10:41:55Z</time>
      </trkpt>
      <trkpt lat="44.6337" lon="6.20298">
        <ele>1383</ele>
        <time>2022-09-18T10:41:56Z</time>
      </trkpt>
      <trkpt lat="44.63371" lon="6.20294">
        <ele>1382.6</ele>
        <time>2022-09-18T10:41:57Z</time>
      </trkpt>
      <trkpt lat="44.63371" lon="6.2029">
        <ele>1382.2</ele>
        <time>2022-09-18T10:41:58Z</time>
      </trkpt>
      <trkpt lat="44.63371" lon="6.20285">
        <ele>1382</ele>
        <time>2022-09-18T10:41:59Z</time>
      </trkpt>
      <trkpt lat="44.63371" lon="6.2028">
        <ele>1381.8</ele>
        <time>2022-09-18T10:42:00Z</time>
      </trkpt>
      <trkpt lat="44.63372" lon="6.20276">
        <ele>1381.4</ele>
        <time>2022-09-18T10:42:01Z</time>
      </trkpt>
      <trkpt lat="44.63372" lon="6.20271">
        <ele>1381</ele>
        <time>2022-09-18T10:42:02Z</time>
      </trkpt>
      <trkpt lat="44.63373" lon="6.20266">
        <ele>1380.4</ele>
        <time>2022-09-18T10:42:03Z</time>
      </trkpt>
      <trkpt lat="44.63374" lon="6.20261">
        <ele>1380</ele>
        <time>2022-09-18T10:42:04Z</time>
      </trkpt>
      <trkpt lat="44.63374" lon="6.20255">
        <ele>1379.6</ele>
        <time>2022-09-18T10:42:05Z</time>
      </trkpt>
      <trkpt lat="44.63375" lon="6.2025">
        <ele>1379.2</ele>
        <time>2022-09-18T10:42:06Z</time>
      </trkpt>
      <trkpt lat="44.63375" lon="6.20244">
        <ele>1378.8</ele>
        <time>2022-09-18T10:42:07Z</time>
      </trkpt>
      <trkpt lat="44.63376" lon="6.20239">
        <ele>1378.6</ele>
        <time>2022-09-18T10:42:08Z</time>
      </trkpt>
      <trkpt lat="44.63377" lon="6.20233">
        <ele>1378.2</ele>
        <time>2022-09-18T10:42:09Z</time>
      </trkpt>
      <trkpt lat="44.63377" lon="6.20227">
        <ele>1377.8</ele>
        <time>2022-09-18T10:42:10Z</time>
      </trkpt>
      <trkpt lat="44.63378" lon="6.20221">
        <ele>1377.8</ele>
        <time>2022-09-18T10:42:11Z</time>
      </trkpt>
      <trkpt lat="44.63379" lon="6.20214">
        <ele>1377.8</ele>
        <time>2022-09-18T10:42:12Z</time>
      </trkpt>
      <trkpt lat="44.6338" lon="6.20208">
        <ele>1377.8</ele>
        <time>2022-09-18T10:42:13Z</time>
      </trkpt>
      <trkpt lat="44.63381" lon="6.20201">
        <ele>1377.4</ele>
        <time>2022-09-18T10:42:14Z</time>
      </trkpt>
      <trkpt lat="44.63382" lon="6.20194">
        <ele>1377</ele>
        <time>2022-09-18T10:42:15Z</time>
      </trkpt>
      <trkpt lat="44.63383" lon="6.20187">
        <ele>1376.6</ele>
        <time>2022-09-18T10:42:16Z</time>
      </trkpt>
      <trkpt lat="44.63385" lon="6.2018">
        <ele>1376.4</ele>
        <time>2022-09-18T10:42:17Z</time>
      </trkpt>
      <trkpt lat="44.63386" lon="6.20174">
        <ele>1376.2</ele>
        <time>2022-09-18T10:42:18Z</time>
      </trkpt>
      <trkpt lat="44.63388" lon="6.20167">
        <ele>1376</ele>
        <time>2022-09-18T10:42:19Z</time>
      </trkpt>
      <trkpt lat="44.6339" lon="6.20161">
        <ele>1376</ele>
        <time>2022-09-18T10:42:20Z</time>
      </trkpt>
      <trkpt lat="44.63393" lon="6.20155">
        <ele>1375.8</ele>
        <time>2022-09-18T10:42:21Z</time>
      </trkpt>
      <trkpt lat="44.63395" lon="6.2015">
        <ele>1375.6</ele>
        <time>2022-09-18T10:42:22Z</time>
      </trkpt>
      <trkpt lat="44.63398" lon="6.20145">
        <ele>1375.6</ele>
        <time>2022-09-18T10:42:23Z</time>
      </trkpt>
      <trkpt lat="44.634" lon="6.20139">
        <ele>1375.4</ele>
        <time>2022-09-18T10:42:24Z</time>
      </trkpt>
      <trkpt lat="44.63403" lon="6.20135">
        <ele>1375.4</ele>
        <time>2022-09-18T10:42:25Z</time>
      </trkpt>
      <trkpt lat="44.63406" lon="6.2013">
        <ele>1375.4</ele>
        <time>2022-09-18T10:42:26Z</time>
      </trkpt>
      <trkpt lat="44.63408" lon="6.20126">
        <ele>1375.2</ele>
        <time>2022-09-18T10:42:27Z</time>
      </trkpt>
      <trkpt lat="44.63411" lon="6.20123">
        <ele>1375.2</ele>
        <time>2022-09-18T10:42:28Z</time>
      </trkpt>
      <trkpt lat="44.63414" lon="6.20119">
        <ele>1375</ele>
        <time>2022-09-18T10:42:29Z</time>
      </trkpt>
      <trkpt lat="44.63417" lon="6.20116">
        <ele>1375</ele>
        <time>2022-09-18T10:42:30Z</time>
      </trkpt>
      <trkpt lat="44.6342" lon="6.20113">
        <ele>1375.2</ele>
        <time>2022-09-18T10:42:31Z</time>
      </trkpt>
      <trkpt lat="44.63423" lon="6.2011">
        <ele>1375.4</ele>
        <time>2022-09-18T10:42:32Z</time>
      </trkpt>
      <trkpt lat="44.63426" lon="6.20108">
        <ele>1375.6</ele>
        <time>2022-09-18T10:42:33Z</time>
      </trkpt>
      <trkpt lat="44.63429" lon="6.20105">
        <ele>1375.6</ele>
        <time>2022-09-18T10:42:34Z</time>
      </trkpt>
      <trkpt lat="44.63432" lon="6.20102">
        <ele>1375.8</ele>
        <time>2022-09-18T10:42:35Z</time>
      </trkpt>
      <trkpt lat="44.63435" lon="6.201">
        <ele>1376</ele>
        <time>2022-09-18T10:42:36Z</time>
      </trkpt>
      <trkpt lat="44.63438" lon="6.20097">
        <ele>1376</ele>
        <time>2022-09-18T10:42:37Z</time>
      </trkpt>
      <trkpt lat="44.63442" lon="6.20095">
        <ele>1376</ele>
        <time>2022-09-18T10:42:38Z</time>
      </trkpt>
      <trkpt lat="44.63445" lon="6.20093">
        <ele>1376</ele>
        <time>2022-09-18T10:42:39Z</time>
      </trkpt>
      <trkpt lat="44.63449" lon="6.20091">
        <ele>1376.2</ele>
        <time>2022-09-18T10:42:40Z</time>
      </trkpt>
      <trkpt lat="44.63453" lon="6.2009">
        <ele>1376.2</ele>
        <time>2022-09-18T10:42:41Z</time>
      </trkpt>
      <trkpt lat="44.63457" lon="6.20088">
        <ele>1376.2</ele>
        <time>2022-09-18T10:42:42Z</time>
      </trkpt>
      <trkpt lat="44.6346" lon="6.20085">
        <ele>1376.4</ele>
        <time>2022-09-18T10:42:43Z</time>
      </trkpt>
      <trkpt lat="44.63464" lon="6.20083">
        <ele>1376</ele>
        <time>2022-09-18T10:42:44Z</time>
      </trkpt>
      <trkpt lat="44.63468" lon="6.20081">
        <ele>1376</ele>
        <time>2022-09-18T10:42:45Z</time>
      </trkpt>
      <trkpt lat="44.63472" lon="6.20078">
        <ele>1376.2</ele>
        <time>2022-09-18T10:42:46Z</time>
      </trkpt>
      <trkpt lat="44.63476" lon="6.20076">
        <ele>1376.2</ele>
        <time>2022-09-18T10:42:47Z</time>
      </trkpt>
      <trkpt lat="44.6348" lon="6.20073">
        <ele>1376.2</ele>
        <time>2022-09-18T10:42:48Z</time>
      </trkpt>
      <trkpt lat="44.63484" lon="6.20071">
        <ele>1376.2</ele>
        <time>2022-09-18T10:42:49Z</time>
      </trkpt>
      <trkpt lat="44.63487" lon="6.20069">
        <ele>1376.4</ele>
        <time>2022-09-18T10:42:50Z</time>
      </trkpt>
      <trkpt lat="44.63491" lon="6.20067">
        <ele>1376.6</ele>
        <time>2022-09-18T10:42:51Z</time>
      </trkpt>
      <trkpt lat="44.63495" lon="6.20064">
        <ele>1376.6</ele>
        <time>2022-09-18T10:42:52Z</time>
      </trkpt>
      <trkpt lat="44.63498" lon="6.20062">
        <ele>1376.6</ele>
        <time>2022-09-18T10:42:53Z</time>
      </trkpt>
      <trkpt lat="44.63502" lon="6.20059">
        <ele>1376.4</ele>
        <time>2022-09-18T10:42:54Z</time>
      </trkpt>
      <trkpt lat="44.63505" lon="6.20057">
        <ele>1376.2</ele>
        <time>2022-09-18T10:42:55Z</time>
      </trkpt>
      <trkpt lat="44.63508" lon="6.20054">
        <ele>1376.2</ele>
        <time>2022-09-18T10:42:56Z</time>
      </trkpt>
      <trkpt lat="44.63511" lon="6.20051">
        <ele>1376.2</ele>
        <time>2022-09-18T10:42:57Z</time>
      </trkpt>
      <trkpt lat="44.63514" lon="6.20047">
        <ele>1376.4</ele>
        <time>2022-09-18T10:42:58Z</time>
      </trkpt>
      <trkpt lat="44.63516" lon="6.20043">
        <ele>1376.6</ele>
        <time>2022-09-18T10:42:59Z</time>
      </trkpt>
      <trkpt lat="44.63518" lon="6.20039">
        <ele>1376.8</ele>
        <time>2022-09-18T10:43:00Z</time>
      </trkpt>
      <trkpt lat="44.6352" lon="6.20035">
        <ele>1377.2</ele>
        <time>2022-09-18T10:43:01Z</time>
      </trkpt>
      <trkpt lat="44.63522" lon="6.20031">
        <ele>1377.4</ele>
        <time>2022-09-18T10:43:02Z</time>
      </trkpt>
      <trkpt lat="44.63523" lon="6.20027">
        <ele>1377.8</ele>
        <time>2022-09-18T10:43:03Z</time>
      </trkpt>
      <trkpt lat="44.63524" lon="6.20022">
        <ele>1378.2</ele>
        <time>2022-09-18T10:43:04Z</time>
      </trkpt>
      <trkpt lat="44.63525" lon="6.20018">
        <ele>1378.4</ele>
        <time>2022-09-18T10:43:05Z</time>
      </trkpt>
      <trkpt lat="44.63526" lon="6.20013">
        <ele>1378.6</ele>
        <time>2022-09-18T10:43:06Z</time>
      </trkpt>
      <trkpt lat="44.63527" lon="6.20009">
        <ele>1378.8</ele>
        <time>2022-09-18T10:43:07Z</time>
      </trkpt>
      <trkpt lat="44.63528" lon="6.20005">
        <ele>1379</ele>
        <time>2022-09-18T10:43:08Z</time>
      </trkpt>
      <trkpt lat="44.63529" lon="6.20001">
        <ele>1379</ele>
        <time>2022-09-18T10:43:09Z</time>
      </trkpt>
      <trkpt lat="44.6353" lon="6.19996">
        <ele>1379</ele>
        <time>2022-09-18T10:43:10Z</time>
      </trkpt>
      <trkpt lat="44.63529" lon="6.19992">
        <ele>1379.2</ele>
        <time>2022-09-18T10:43:11Z</time>
      </trkpt>
      <trkpt lat="44.63528" lon="6.19988">
        <ele>1379.4</ele>
        <time>2022-09-18T10:43:12Z</time>
      </trkpt>
      <trkpt lat="44.63528" lon="6.19984">
        <ele>1379.8</ele>
        <time>2022-09-18T10:43:13Z</time>
      </trkpt>
      <trkpt lat="44.63527" lon="6.19981">
        <ele>1380.2</ele>
        <time>2022-09-18T10:43:14Z</time>
      </trkpt>
      <trkpt lat="44.63527" lon="6.19978">
        <ele>1380.4</ele>
        <time>2022-09-18T10:43:15Z</time>
      </trkpt>
      <trkpt lat="44.63526" lon="6.19974">
        <ele>1380.6</ele>
        <time>2022-09-18T10:43:16Z</time>
      </trkpt>
      <trkpt lat="44.63526" lon="6.19971">
        <ele>1381</ele>
        <time>2022-09-18T10:43:17Z</time>
      </trkpt>
      <trkpt lat="44.63526" lon="6.19967">
        <ele>1381.4</ele>
        <time>2022-09-18T10:43:18Z</time>
      </trkpt>
      <trkpt lat="44.63526" lon="6.19964">
        <ele>1381.8</ele>
        <time>2022-09-18T10:43:19Z</time>
      </trkpt>
      <trkpt lat="44.63527" lon="6.1996">
        <ele>1382</ele>
        <time>2022-09-18T10:43:20Z</time>
      </trkpt>
      <trkpt lat="44.63527" lon="6.19957">
        <ele>1382.4</ele>
        <time>2022-09-18T10:43:21Z</time>
      </trkpt>
      <trkpt lat="44.63526" lon="6.19953">
        <ele>1382.6</ele>
        <time>2022-09-18T10:43:22Z</time>
      </trkpt>
      <trkpt lat="44.63527" lon="6.1995">
        <ele>1382.6</ele>
        <time>2022-09-18T10:43:23Z</time>
      </trkpt>
      <trkpt lat="44.63527" lon="6.19947">
        <ele>1383.2</ele>
        <time>2022-09-18T10:43:24Z</time>
      </trkpt>
      <trkpt lat="44.63528" lon="6.19943">
        <ele>1383.4</ele>
        <time>2022-09-18T10:43:25Z</time>
      </trkpt>
      <trkpt lat="44.63528" lon="6.1994">
        <ele>1383.6</ele>
        <time>2022-09-18T10:43:26Z</time>
      </trkpt>
      <trkpt lat="44.63529" lon="6.19936">
        <ele>1384</ele>
        <time>2022-09-18T10:43:27Z</time>
      </trkpt>
      <trkpt lat="44.6353" lon="6.19933">
        <ele>1384.4</ele>
        <time>2022-09-18T10:43:28Z</time>
      </trkpt>
      <trkpt lat="44.63531" lon="6.19929">
        <ele>1384.6</ele>
        <time>2022-09-18T10:43:29Z</time>
      </trkpt>
      <trkpt lat="44.63531" lon="6.19925">
        <ele>1384.6</ele>
        <time>2022-09-18T10:43:30Z</time>
      </trkpt>
      <trkpt lat="44.63532" lon="6.19921">
        <ele>1384.8</ele>
        <time>2022-09-18T10:43:31Z</time>
      </trkpt>
      <trkpt lat="44.63533" lon="6.19917">
        <ele>1385</ele>
        <time>2022-09-18T10:43:32Z</time>
      </trkpt>
      <trkpt lat="44.63534" lon="6.19913">
        <ele>1385</ele>
        <time>2022-09-18T10:43:33Z</time>
      </trkpt>
      <trkpt lat="44.63535" lon="6.19909">
        <ele>1385.2</ele>
        <time>2022-09-18T10:43:34Z</time>
      </trkpt>
      <trkpt lat="44.63536" lon="6.19904">
        <ele>1385.6</ele>
        <time>2022-09-18T10:43:35Z</time>
      </trkpt>
      <trkpt lat="44.63537" lon="6.199">
        <ele>1386</ele>
        <time>2022-09-18T10:43:36Z</time>
      </trkpt>
      <trkpt lat="44.63538" lon="6.19896">
        <ele>1386.2</ele>
        <time>2022-09-18T10:43:37Z</time>
      </trkpt>
      <trkpt lat="44.63539" lon="6.19892">
        <ele>1386.6</ele>
        <time>2022-09-18T10:43:38Z</time>
      </trkpt>
      <trkpt lat="44.6354" lon="6.19887">
        <ele>1386.8</ele>
        <time>2022-09-18T10:43:39Z</time>
      </trkpt>
      <trkpt lat="44.63541" lon="6.19883">
        <ele>1387.2</ele>
        <time>2022-09-18T10:43:40Z</time>
      </trkpt>
      <trkpt lat="44.63542" lon="6.19879">
        <ele>1387.4</ele>
        <time>2022-09-18T10:43:41Z</time>
      </trkpt>
      <trkpt lat="44.63543" lon="6.19875">
        <ele>1387.6</ele>
        <time>2022-09-18T10:43:42Z</time>
      </trkpt>
      <trkpt lat="44.63544" lon="6.1987">
        <ele>1387.6</ele>
        <time>2022-09-18T10:43:43Z</time>
      </trkpt>
      <trkpt lat="44.63545" lon="6.19866">
        <ele>1388</ele>
        <time>2022-09-18T10:43:44Z</time>
      </trkpt>
      <trkpt lat="44.63546" lon="6.19861">
        <ele>1388.4</ele>
        <time>2022-09-18T10:43:45Z</time>
      </trkpt>
      <trkpt lat="44.63547" lon="6.19857">
        <ele>1388.8</ele>
        <time>2022-09-18T10:43:46Z</time>
      </trkpt>
      <trkpt lat="44.63548" lon="6.19852">
        <ele>1389.2</ele>
        <time>2022-09-18T10:43:47Z</time>
      </trkpt>
      <trkpt lat="44.63549" lon="6.19848">
        <ele>1389.6</ele>
        <time>2022-09-18T10:43:48Z</time>
      </trkpt>
      <trkpt lat="44.6355" lon="6.19843">
        <ele>1389.8</ele>
        <time>2022-09-18T10:43:49Z</time>
      </trkpt>
      <trkpt lat="44.63551" lon="6.19838">
        <ele>1390</ele>
        <time>2022-09-18T10:43:50Z</time>
      </trkpt>
      <trkpt lat="44.63553" lon="6.19833">
        <ele>1390</ele>
        <time>2022-09-18T10:43:51Z</time>
      </trkpt>
      <trkpt lat="44.63554" lon="6.19828">
        <ele>1390.8</ele>
        <time>2022-09-18T10:43:52Z</time>
      </trkpt>
      <trkpt lat="44.63555" lon="6.19822">
        <ele>1390.8</ele>
        <time>2022-09-18T10:43:53Z</time>
      </trkpt>
      <trkpt lat="44.63557" lon="6.19817">
        <ele>1391.2</ele>
        <time>2022-09-18T10:43:54Z</time>
      </trkpt>
      <trkpt lat="44.63558" lon="6.19812">
        <ele>1391.2</ele>
        <time>2022-09-18T10:43:55Z</time>
      </trkpt>
      <trkpt lat="44.63559" lon="6.19806">
        <ele>1391.2</ele>
        <time>2022-09-18T10:43:56Z</time>
      </trkpt>
      <trkpt lat="44.6356" lon="6.198">
        <ele>1391.4</ele>
        <time>2022-09-18T10:43:57Z</time>
      </trkpt>
      <trkpt lat="44.63562" lon="6.19795">
        <ele>1391.8</ele>
        <time>2022-09-18T10:43:58Z</time>
      </trkpt>
      <trkpt lat="44.63563" lon="6.19789">
        <ele>1392</ele>
        <time>2022-09-18T10:43:59Z</time>
      </trkpt>
      <trkpt lat="44.63565" lon="6.19782">
        <ele>1392.4</ele>
        <time>2022-09-18T10:44:00Z</time>
      </trkpt>
      <trkpt lat="44.63566" lon="6.19776">
        <ele>1392.6</ele>
        <time>2022-09-18T10:44:01Z</time>
      </trkpt>
      <trkpt lat="44.63568" lon="6.19769">
        <ele>1392.8</ele>
        <time>2022-09-18T10:44:02Z</time>
      </trkpt>
      <trkpt lat="44.63569" lon="6.19762">
        <ele>1393</ele>
        <time>2022-09-18T10:44:03Z</time>
      </trkpt>
      <trkpt lat="44.63571" lon="6.19755">
        <ele>1393</ele>
        <time>2022-09-18T10:44:04Z</time>
      </trkpt>
      <trkpt lat="44.63573" lon="6.19747">
        <ele>1393.4</ele>
        <time>2022-09-18T10:44:05Z</time>
      </trkpt>
      <trkpt lat="44.63574" lon="6.1974">
        <ele>1393.2</ele>
        <time>2022-09-18T10:44:06Z</time>
      </trkpt>
      <trkpt lat="44.63576" lon="6.19732">
        <ele>1393.2</ele>
        <time>2022-09-18T10:44:07Z</time>
      </trkpt>
      <trkpt lat="44.63578" lon="6.19724">
        <ele>1392.8</ele>
        <time>2022-09-18T10:44:08Z</time>
      </trkpt>
      <trkpt lat="44.6358" lon="6.19715">
        <ele>1392.8</ele>
        <time>2022-09-18T10:44:09Z</time>
      </trkpt>
      <trkpt lat="44.63582" lon="6.19706">
        <ele>1392.8</ele>
        <time>2022-09-18T10:44:10Z</time>
      </trkpt>
      <trkpt lat="44.63584" lon="6.19697">
        <ele>1392.8</ele>
        <time>2022-09-18T10:44:11Z</time>
      </trkpt>
      <trkpt lat="44.63586" lon="6.19688">
        <ele>1393.2</ele>
        <time>2022-09-18T10:44:12Z</time>
      </trkpt>
      <trkpt lat="44.63588" lon="6.19679">
        <ele>1393.6</ele>
        <time>2022-09-18T10:44:13Z</time>
      </trkpt>
      <trkpt lat="44.6359" lon="6.1967">
        <ele>1393.8</ele>
        <time>2022-09-18T10:44:14Z</time>
      </trkpt>
      <trkpt lat="44.63592" lon="6.1966">
        <ele>1394</ele>
        <time>2022-09-18T10:44:15Z</time>
      </trkpt>
      <trkpt lat="44.63594" lon="6.1965">
        <ele>1394</ele>
        <time>2022-09-18T10:44:16Z</time>
      </trkpt>
      <trkpt lat="44.63596" lon="6.19639">
        <ele>1393.8</ele>
        <time>2022-09-18T10:44:17Z</time>
      </trkpt>
      <trkpt lat="44.63597" lon="6.19627">
        <ele>1393.6</ele>
        <time>2022-09-18T10:44:18Z</time>
      </trkpt>
      <trkpt lat="44.63597" lon="6.19616">
        <ele>1393.4</ele>
        <time>2022-09-18T10:44:19Z</time>
      </trkpt>
      <trkpt lat="44.63598" lon="6.19605">
        <ele>1393</ele>
        <time>2022-09-18T10:44:20Z</time>
      </trkpt>
      <trkpt lat="44.63597" lon="6.19594">
        <ele>1392.8</ele>
        <time>2022-09-18T10:44:21Z</time>
      </trkpt>
      <trkpt lat="44.63596" lon="6.19584">
        <ele>1392.6</ele>
        <time>2022-09-18T10:44:22Z</time>
      </trkpt>
      <trkpt lat="44.63594" lon="6.19575">
        <ele>1392.8</ele>
        <time>2022-09-18T10:44:23Z</time>
      </trkpt>
      <trkpt lat="44.63592" lon="6.19567">
        <ele>1393.2</ele>
        <time>2022-09-18T10:44:24Z</time>
      </trkpt>
      <trkpt lat="44.63589" lon="6.19558">
        <ele>1393</ele>
        <time>2022-09-18T10:44:25Z</time>
      </trkpt>
      <trkpt lat="44.63587" lon="6.1955">
        <ele>1393.2</ele>
        <time>2022-09-18T10:44:26Z</time>
      </trkpt>
      <trkpt lat="44.63584" lon="6.19542">
        <ele>1393.6</ele>
        <time>2022-09-18T10:44:27Z</time>
      </trkpt>
      <trkpt lat="44.63582" lon="6.19533">
        <ele>1393.8</ele>
        <time>2022-09-18T10:44:28Z</time>
      </trkpt>
      <trkpt lat="44.6358" lon="6.19525">
        <ele>1393.8</ele>
        <time>2022-09-18T10:44:29Z</time>
      </trkpt>
      <trkpt lat="44.63578" lon="6.19517">
        <ele>1393.8</ele>
        <time>2022-09-18T10:44:30Z</time>
      </trkpt>
      <trkpt lat="44.63576" lon="6.19508">
        <ele>1393.6</ele>
        <time>2022-09-18T10:44:31Z</time>
      </trkpt>
      <trkpt lat="44.63574" lon="6.19499">
        <ele>1393.4</ele>
        <time>2022-09-18T10:44:32Z</time>
      </trkpt>
      <trkpt lat="44.63572" lon="6.19491">
        <ele>1393.4</ele>
        <time>2022-09-18T10:44:33Z</time>
      </trkpt>
      <trkpt lat="44.63569" lon="6.19481">
        <ele>1393.2</ele>
        <time>2022-09-18T10:44:34Z</time>
      </trkpt>
      <trkpt lat="44.63567" lon="6.19472">
        <ele>1393.2</ele>
        <time>2022-09-18T10:44:35Z</time>
      </trkpt>
      <trkpt lat="44.63564" lon="6.19463">
        <ele>1393.2</ele>
        <time>2022-09-18T10:44:36Z</time>
      </trkpt>
      <trkpt lat="44.63562" lon="6.19453">
        <ele>1393.2</ele>
        <time>2022-09-18T10:44:37Z</time>
      </trkpt>
      <trkpt lat="44.63559" lon="6.19444">
        <ele>1393.2</ele>
        <time>2022-09-18T10:44:38Z</time>
      </trkpt>
      <trkpt lat="44.63557" lon="6.19434">
        <ele>1393</ele>
        <time>2022-09-18T10:44:39Z</time>
      </trkpt>
      <trkpt lat="44.63555" lon="6.19424">
        <ele>1392.8</ele>
        <time>2022-09-18T10:44:40Z</time>
      </trkpt>
      <trkpt lat="44.63552" lon="6.19415">
        <ele>1392.8</ele>
        <time>2022-09-18T10:44:41Z</time>
      </trkpt>
      <trkpt lat="44.6355" lon="6.19405">
        <ele>1392.4</ele>
        <time>2022-09-18T10:44:42Z</time>
      </trkpt>
      <trkpt lat="44.63548" lon="6.19395">
        <ele>1392</ele>
        <time>2022-09-18T10:44:43Z</time>
      </trkpt>
      <trkpt lat="44.63546" lon="6.19386">
        <ele>1391.4</ele>
        <time>2022-09-18T10:44:44Z</time>
      </trkpt>
      <trkpt lat="44.63543" lon="6.19376">
        <ele>1391</ele>
        <time>2022-09-18T10:44:45Z</time>
      </trkpt>
      <trkpt lat="44.63541" lon="6.19366">
        <ele>1390.4</ele>
        <time>2022-09-18T10:44:46Z</time>
      </trkpt>
      <trkpt lat="44.63538" lon="6.19357">
        <ele>1389.8</ele>
        <time>2022-09-18T10:44:47Z</time>
      </trkpt>
      <trkpt lat="44.63535" lon="6.19347">
        <ele>1389.2</ele>
        <time>2022-09-18T10:44:48Z</time>
      </trkpt>
      <trkpt lat="44.63532" lon="6.19338">
        <ele>1389</ele>
        <time>2022-09-18T10:44:49Z</time>
      </trkpt>
      <trkpt lat="44.63529" lon="6.1933">
        <ele>1389</ele>
        <time>2022-09-18T10:44:50Z</time>
      </trkpt>
      <trkpt lat="44.63526" lon="6.19322">
        <ele>1388.4</ele>
        <time>2022-09-18T10:44:51Z</time>
      </trkpt>
      <trkpt lat="44.63523" lon="6.19314">
        <ele>1388.4</ele>
        <time>2022-09-18T10:44:52Z</time>
      </trkpt>
      <trkpt lat="44.6352" lon="6.19306">
        <ele>1388</ele>
        <time>2022-09-18T10:44:53Z</time>
      </trkpt>
      <trkpt lat="44.63517" lon="6.19298">
        <ele>1388</ele>
        <time>2022-09-18T10:44:54Z</time>
      </trkpt>
      <trkpt lat="44.63514" lon="6.1929">
        <ele>1387.8</ele>
        <time>2022-09-18T10:44:55Z</time>
      </trkpt>
      <trkpt lat="44.63511" lon="6.19282">
        <ele>1387.6</ele>
        <time>2022-09-18T10:44:56Z</time>
      </trkpt>
      <trkpt lat="44.63508" lon="6.19274">
        <ele>1387.2</ele>
        <time>2022-09-18T10:44:57Z</time>
      </trkpt>
      <trkpt lat="44.63505" lon="6.19266">
        <ele>1387</ele>
        <time>2022-09-18T10:44:58Z</time>
      </trkpt>
      <trkpt lat="44.63502" lon="6.19258">
        <ele>1386.8</ele>
        <time>2022-09-18T10:44:59Z</time>
      </trkpt>
      <trkpt lat="44.63498" lon="6.1925">
        <ele>1386.6</ele>
        <time>2022-09-18T10:45:00Z</time>
      </trkpt>
      <trkpt lat="44.63495" lon="6.19242">
        <ele>1386.4</ele>
        <time>2022-09-18T10:45:01Z</time>
      </trkpt>
      <trkpt lat="44.63491" lon="6.19233">
        <ele>1386</ele>
        <time>2022-09-18T10:45:02Z</time>
      </trkpt>
      <trkpt lat="44.63488" lon="6.19225">
        <ele>1385.8</ele>
        <time>2022-09-18T10:45:03Z</time>
      </trkpt>
      <trkpt lat="44.63484" lon="6.19217">
        <ele>1385.6</ele>
        <time>2022-09-18T10:45:04Z</time>
      </trkpt>
      <trkpt lat="44.63479" lon="6.19209">
        <ele>1385.4</ele>
        <time>2022-09-18T10:45:05Z</time>
      </trkpt>
      <trkpt lat="44.63475" lon="6.19201">
        <ele>1385.4</ele>
        <time>2022-09-18T10:45:06Z</time>
      </trkpt>
      <trkpt lat="44.6347" lon="6.19194">
        <ele>1384.8</ele>
        <time>2022-09-18T10:45:07Z</time>
      </trkpt>
      <trkpt lat="44.63465" lon="6.19186">
        <ele>1384.2</ele>
        <time>2022-09-18T10:45:08Z</time>
      </trkpt>
      <trkpt lat="44.63461" lon="6.19178">
        <ele>1383.6</ele>
        <time>2022-09-18T10:45:09Z</time>
      </trkpt>
      <trkpt lat="44.63456" lon="6.19171">
        <ele>1382.8</ele>
        <time>2022-09-18T10:45:10Z</time>
      </trkpt>
      <trkpt lat="44.63451" lon="6.19164">
        <ele>1383.4</ele>
        <time>2022-09-18T10:45:11Z</time>
      </trkpt>
      <trkpt lat="44.63447" lon="6.19157">
        <ele>1383</ele>
        <time>2022-09-18T10:45:12Z</time>
      </trkpt>
      <trkpt lat="44.63443" lon="6.1915">
        <ele>1382.6</ele>
        <time>2022-09-18T10:45:13Z</time>
      </trkpt>
      <trkpt lat="44.63438" lon="6.19144">
        <ele>1382.2</ele>
        <time>2022-09-18T10:45:14Z</time>
      </trkpt>
      <trkpt lat="44.63433" lon="6.19138">
        <ele>1382.2</ele>
        <time>2022-09-18T10:45:15Z</time>
      </trkpt>
      <trkpt lat="44.63428" lon="6.19132">
        <ele>1381.8</ele>
        <time>2022-09-18T10:45:16Z</time>
      </trkpt>
      <trkpt lat="44.63424" lon="6.19126">
        <ele>1381.6</ele>
        <time>2022-09-18T10:45:17Z</time>
      </trkpt>
      <trkpt lat="44.63419" lon="6.1912">
        <ele>1381.2</ele>
        <time>2022-09-18T10:45:18Z</time>
      </trkpt>
      <trkpt lat="44.63415" lon="6.19115">
        <ele>1381</ele>
        <time>2022-09-18T10:45:19Z</time>
      </trkpt>
      <trkpt lat="44.6341" lon="6.19109">
        <ele>1381</ele>
        <time>2022-09-18T10:45:20Z</time>
      </trkpt>
      <trkpt lat="44.63406" lon="6.19105">
        <ele>1381</ele>
        <time>2022-09-18T10:45:21Z</time>
      </trkpt>
      <trkpt lat="44.63402" lon="6.19101">
        <ele>1380.6</ele>
        <time>2022-09-18T10:45:22Z</time>
      </trkpt>
      <trkpt lat="44.63397" lon="6.19096">
        <ele>1380.8</ele>
        <time>2022-09-18T10:45:23Z</time>
      </trkpt>
      <trkpt lat="44.63393" lon="6.19092">
        <ele>1380.8</ele>
        <time>2022-09-18T10:45:24Z</time>
      </trkpt>
      <trkpt lat="44.63389" lon="6.19088">
        <ele>1381.2</ele>
        <time>2022-09-18T10:45:25Z</time>
      </trkpt>
      <trkpt lat="44.63385" lon="6.19084">
        <ele>1381.2</ele>
        <time>2022-09-18T10:45:26Z</time>
      </trkpt>
      <trkpt lat="44.6338" lon="6.19079">
        <ele>1381.4</ele>
        <time>2022-09-18T10:45:27Z</time>
      </trkpt>
      <trkpt lat="44.63376" lon="6.19075">
        <ele>1381</ele>
        <time>2022-09-18T10:45:28Z</time>
      </trkpt>
      <trkpt lat="44.63372" lon="6.1907">
        <ele>1380.8</ele>
        <time>2022-09-18T10:45:29Z</time>
      </trkpt>
      <trkpt lat="44.63368" lon="6.19065">
        <ele>1380</ele>
        <time>2022-09-18T10:45:30Z</time>
      </trkpt>
      <trkpt lat="44.63365" lon="6.1906">
        <ele>1379.2</ele>
        <time>2022-09-18T10:45:31Z</time>
      </trkpt>
      <trkpt lat="44.63361" lon="6.19055">
        <ele>1378.8</ele>
        <time>2022-09-18T10:45:32Z</time>
      </trkpt>
      <trkpt lat="44.63358" lon="6.1905">
        <ele>1378.4</ele>
        <time>2022-09-18T10:45:33Z</time>
      </trkpt>
      <trkpt lat="44.63356" lon="6.19043">
        <ele>1378.2</ele>
        <time>2022-09-18T10:45:34Z</time>
      </trkpt>
      <trkpt lat="44.63354" lon="6.19036">
        <ele>1378.2</ele>
        <time>2022-09-18T10:45:35Z</time>
      </trkpt>
      <trkpt lat="44.63354" lon="6.19028">
        <ele>1378.4</ele>
        <time>2022-09-18T10:45:36Z</time>
      </trkpt>
      <trkpt lat="44.63354" lon="6.1902">
        <ele>1378.2</ele>
        <time>2022-09-18T10:45:37Z</time>
      </trkpt>
      <trkpt lat="44.63354" lon="6.19011">
        <ele>1378</ele>
        <time>2022-09-18T10:45:38Z</time>
      </trkpt>
      <trkpt lat="44.63355" lon="6.19003">
        <ele>1378</ele>
        <time>2022-09-18T10:45:39Z</time>
      </trkpt>
      <trkpt lat="44.63356" lon="6.18994">
        <ele>1377.8</ele>
        <time>2022-09-18T10:45:40Z</time>
      </trkpt>
      <trkpt lat="44.63358" lon="6.18986">
        <ele>1377.8</ele>
        <time>2022-09-18T10:45:41Z</time>
      </trkpt>
      <trkpt lat="44.63359" lon="6.18977">
        <ele>1377.4</ele>
        <time>2022-09-18T10:45:42Z</time>
      </trkpt>
      <trkpt lat="44.6336" lon="6.18968">
        <ele>1376.8</ele>
        <time>2022-09-18T10:45:43Z</time>
      </trkpt>
      <trkpt lat="44.63361" lon="6.18959">
        <ele>1376.4</ele>
        <time>2022-09-18T10:45:44Z</time>
      </trkpt>
      <trkpt lat="44.63361" lon="6.1895">
        <ele>1376</ele>
        <time>2022-09-18T10:45:45Z</time>
      </trkpt>
      <trkpt lat="44.63361" lon="6.1894">
        <ele>1375.8</ele>
        <time>2022-09-18T10:45:46Z</time>
      </trkpt>
      <trkpt lat="44.63361" lon="6.18931">
        <ele>1375.6</ele>
        <time>2022-09-18T10:45:47Z</time>
      </trkpt>
      <trkpt lat="44.63361" lon="6.18923">
        <ele>1375.2</ele>
        <time>2022-09-18T10:45:48Z</time>
      </trkpt>
      <trkpt lat="44.63362" lon="6.18914">
        <ele>1375.4</ele>
        <time>2022-09-18T10:45:49Z</time>
      </trkpt>
      <trkpt lat="44.63363" lon="6.18906">
        <ele>1375.2</ele>
        <time>2022-09-18T10:45:50Z</time>
      </trkpt>
      <trkpt lat="44.63366" lon="6.18898">
        <ele>1374.8</ele>
        <time>2022-09-18T10:45:51Z</time>
      </trkpt>
      <trkpt lat="44.63369" lon="6.18891">
        <ele>1374.4</ele>
        <time>2022-09-18T10:45:52Z</time>
      </trkpt>
      <trkpt lat="44.63373" lon="6.18884">
        <ele>1374</ele>
        <time>2022-09-18T10:45:53Z</time>
      </trkpt>
      <trkpt lat="44.63378" lon="6.18878">
        <ele>1373.6</ele>
        <time>2022-09-18T10:45:54Z</time>
      </trkpt>
      <trkpt lat="44.63384" lon="6.18872">
        <ele>1373.4</ele>
        <time>2022-09-18T10:45:55Z</time>
      </trkpt>
      <trkpt lat="44.6339" lon="6.18867">
        <ele>1373.2</ele>
        <time>2022-09-18T10:45:56Z</time>
      </trkpt>
      <trkpt lat="44.63397" lon="6.18863">
        <ele>1373</ele>
        <time>2022-09-18T10:45:57Z</time>
      </trkpt>
      <trkpt lat="44.63405" lon="6.1886">
        <ele>1372.6</ele>
        <time>2022-09-18T10:45:58Z</time>
      </trkpt>
      <trkpt lat="44.63412" lon="6.18856">
        <ele>1372.4</ele>
        <time>2022-09-18T10:45:59Z</time>
      </trkpt>
      <trkpt lat="44.6342" lon="6.18853">
        <ele>1371.8</ele>
        <time>2022-09-18T10:46:00Z</time>
      </trkpt>
      <trkpt lat="44.63428" lon="6.1885">
        <ele>1371.2</ele>
        <time>2022-09-18T10:46:01Z</time>
      </trkpt>
      <trkpt lat="44.63435" lon="6.18847">
        <ele>1370.4</ele>
        <time>2022-09-18T10:46:02Z</time>
      </trkpt>
      <trkpt lat="44.63444" lon="6.18844">
        <ele>1369.2</ele>
        <time>2022-09-18T10:46:03Z</time>
      </trkpt>
      <trkpt lat="44.63452" lon="6.18841">
        <ele>1368.2</ele>
        <time>2022-09-18T10:46:04Z</time>
      </trkpt>
      <trkpt lat="44.6346" lon="6.18837">
        <ele>1367.6</ele>
        <time>2022-09-18T10:46:05Z</time>
      </trkpt>
      <trkpt lat="44.63469" lon="6.18834">
        <ele>1367.2</ele>
        <time>2022-09-18T10:46:06Z</time>
      </trkpt>
      <trkpt lat="44.63478" lon="6.1883">
        <ele>1367</ele>
        <time>2022-09-18T10:46:07Z</time>
      </trkpt>
      <trkpt lat="44.63487" lon="6.18826">
        <ele>1366.4</ele>
        <time>2022-09-18T10:46:08Z</time>
      </trkpt>
      <trkpt lat="44.63497" lon="6.18822">
        <ele>1365.8</ele>
        <time>2022-09-18T10:46:09Z</time>
      </trkpt>
      <trkpt lat="44.63506" lon="6.18818">
        <ele>1365.2</ele>
        <time>2022-09-18T10:46:10Z</time>
      </trkpt>
      <trkpt lat="44.63515" lon="6.18814">
        <ele>1364.4</ele>
        <time>2022-09-18T10:46:11Z</time>
      </trkpt>
      <trkpt lat="44.63525" lon="6.1881">
        <ele>1364</ele>
        <time>2022-09-18T10:46:12Z</time>
      </trkpt>
      <trkpt lat="44.63534" lon="6.18805">
        <ele>1363.2</ele>
        <time>2022-09-18T10:46:13Z</time>
      </trkpt>
      <trkpt lat="44.63544" lon="6.18801">
        <ele>1362.8</ele>
        <time>2022-09-18T10:46:14Z</time>
      </trkpt>
      <trkpt lat="44.63555" lon="6.18796">
        <ele>1363</ele>
        <time>2022-09-18T10:46:15Z</time>
      </trkpt>
      <trkpt lat="44.63565" lon="6.18791">
        <ele>1362.6</ele>
        <time>2022-09-18T10:46:16Z</time>
      </trkpt>
      <trkpt lat="44.63575" lon="6.18786">
        <ele>1362</ele>
        <time>2022-09-18T10:46:17Z</time>
      </trkpt>
      <trkpt lat="44.63586" lon="6.18782">
        <ele>1361.2</ele>
        <time>2022-09-18T10:46:18Z</time>
      </trkpt>
      <trkpt lat="44.63596" lon="6.18777">
        <ele>1360.2</ele>
        <time>2022-09-18T10:46:19Z</time>
      </trkpt>
      <trkpt lat="44.63607" lon="6.18773">
        <ele>1360.4</ele>
        <time>2022-09-18T10:46:20Z</time>
      </trkpt>
      <trkpt lat="44.63617" lon="6.18768">
        <ele>1360.6</ele>
        <time>2022-09-18T10:46:21Z</time>
      </trkpt>
      <trkpt lat="44.63627" lon="6.18764">
        <ele>1360.2</ele>
        <time>2022-09-18T10:46:22Z</time>
      </trkpt>
      <trkpt lat="44.63638" lon="6.1876">
        <ele>1359.4</ele>
        <time>2022-09-18T10:46:23Z</time>
      </trkpt>
      <trkpt lat="44.63648" lon="6.18756">
        <ele>1358.8</ele>
        <time>2022-09-18T10:46:24Z</time>
      </trkpt>
      <trkpt lat="44.63658" lon="6.18752">
        <ele>1358.4</ele>
        <time>2022-09-18T10:46:25Z</time>
      </trkpt>
      <trkpt lat="44.63668" lon="6.18748">
        <ele>1358.4</ele>
        <time>2022-09-18T10:46:26Z</time>
      </trkpt>
      <trkpt lat="44.63676" lon="6.18744">
        <ele>1358.6</ele>
        <time>2022-09-18T10:46:27Z</time>
      </trkpt>
      <trkpt lat="44.63685" lon="6.1874">
        <ele>1358</ele>
        <time>2022-09-18T10:46:28Z</time>
      </trkpt>
      <trkpt lat="44.63693" lon="6.18737">
        <ele>1358</ele>
        <time>2022-09-18T10:46:29Z</time>
      </trkpt>
      <trkpt lat="44.63701" lon="6.18734">
        <ele>1358</ele>
        <time>2022-09-18T10:46:30Z</time>
      </trkpt>
      <trkpt lat="44.63709" lon="6.18732">
        <ele>1357.6</ele>
        <time>2022-09-18T10:46:31Z</time>
      </trkpt>
      <trkpt lat="44.63718" lon="6.18732">
        <ele>1357.6</ele>
        <time>2022-09-18T10:46:32Z</time>
      </trkpt>
      <trkpt lat="44.63727" lon="6.18734">
        <ele>1357.4</ele>
        <time>2022-09-18T10:46:33Z</time>
      </trkpt>
      <trkpt lat="44.63735" lon="6.18739">
        <ele>1357.4</ele>
        <time>2022-09-18T10:46:34Z</time>
      </trkpt>
      <trkpt lat="44.63743" lon="6.18747">
        <ele>1357</ele>
        <time>2022-09-18T10:46:35Z</time>
      </trkpt>
      <trkpt lat="44.6375" lon="6.18755">
        <ele>1356.6</ele>
        <time>2022-09-18T10:46:36Z</time>
      </trkpt>
      <trkpt lat="44.63756" lon="6.18765">
        <ele>1356.6</ele>
        <time>2022-09-18T10:46:37Z</time>
      </trkpt>
      <trkpt lat="44.63761" lon="6.18777">
        <ele>1356.4</ele>
        <time>2022-09-18T10:46:38Z</time>
      </trkpt>
      <trkpt lat="44.63765" lon="6.1879">
        <ele>1356.2</ele>
        <time>2022-09-18T10:46:39Z</time>
      </trkpt>
      <trkpt lat="44.63769" lon="6.18803">
        <ele>1356</ele>
        <time>2022-09-18T10:46:40Z</time>
      </trkpt>
      <trkpt lat="44.63772" lon="6.18817">
        <ele>1355.6</ele>
        <time>2022-09-18T10:46:41Z</time>
      </trkpt>
      <trkpt lat="44.63775" lon="6.1883">
        <ele>1355.4</ele>
        <time>2022-09-18T10:46:42Z</time>
      </trkpt>
      <trkpt lat="44.63777" lon="6.18844">
        <ele>1355.2</ele>
        <time>2022-09-18T10:46:43Z</time>
      </trkpt>
      <trkpt lat="44.6378" lon="6.18858">
        <ele>1355</ele>
        <time>2022-09-18T10:46:44Z</time>
      </trkpt>
      <trkpt lat="44.63782" lon="6.18873">
        <ele>1354.4</ele>
        <time>2022-09-18T10:46:45Z</time>
      </trkpt>
      <trkpt lat="44.63786" lon="6.18888">
        <ele>1353.8</ele>
        <time>2022-09-18T10:46:46Z</time>
      </trkpt>
      <trkpt lat="44.63789" lon="6.18902">
        <ele>1352.8</ele>
        <time>2022-09-18T10:46:47Z</time>
      </trkpt>
      <trkpt lat="44.63793" lon="6.18915">
        <ele>1352</ele>
        <time>2022-09-18T10:46:48Z</time>
      </trkpt>
      <trkpt lat="44.63796" lon="6.18929">
        <ele>1352</ele>
        <time>2022-09-18T10:46:49Z</time>
      </trkpt>
      <trkpt lat="44.638" lon="6.18942">
        <ele>1351.4</ele>
        <time>2022-09-18T10:46:50Z</time>
      </trkpt>
      <trkpt lat="44.63805" lon="6.18955">
        <ele>1350.8</ele>
        <time>2022-09-18T10:46:51Z</time>
      </trkpt>
      <trkpt lat="44.6381" lon="6.18967">
        <ele>1349.8</ele>
        <time>2022-09-18T10:46:52Z</time>
      </trkpt>
      <trkpt lat="44.63814" lon="6.1898">
        <ele>1349.4</ele>
        <time>2022-09-18T10:46:53Z</time>
      </trkpt>
      <trkpt lat="44.63818" lon="6.18994">
        <ele>1348.8</ele>
        <time>2022-09-18T10:46:54Z</time>
      </trkpt>
      <trkpt lat="44.6382" lon="6.19008">
        <ele>1348.4</ele>
        <time>2022-09-18T10:46:55Z</time>
      </trkpt>
      <trkpt lat="44.63823" lon="6.19021">
        <ele>1348.2</ele>
        <time>2022-09-18T10:46:56Z</time>
      </trkpt>
      <trkpt lat="44.63825" lon="6.19035">
        <ele>1347.6</ele>
        <time>2022-09-18T10:46:57Z</time>
      </trkpt>
      <trkpt lat="44.63829" lon="6.19049">
        <ele>1346.8</ele>
        <time>2022-09-18T10:46:58Z</time>
      </trkpt>
      <trkpt lat="44.63831" lon="6.19064">
        <ele>1345.8</ele>
        <time>2022-09-18T10:46:59Z</time>
      </trkpt>
      <trkpt lat="44.63835" lon="6.19077">
        <ele>1345</ele>
        <time>2022-09-18T10:47:00Z</time>
      </trkpt>
      <trkpt lat="44.63839" lon="6.1909">
        <ele>1344.4</ele>
        <time>2022-09-18T10:47:01Z</time>
      </trkpt>
      <trkpt lat="44.63843" lon="6.19101">
        <ele>1343.8</ele>
        <time>2022-09-18T10:47:02Z</time>
      </trkpt>
      <trkpt lat="44.63848" lon="6.19112">
        <ele>1343</ele>
        <time>2022-09-18T10:47:03Z</time>
      </trkpt>
      <trkpt lat="44.63855" lon="6.19124">
        <ele>1342.4</ele>
        <time>2022-09-18T10:47:04Z</time>
      </trkpt>
      <trkpt lat="44.63862" lon="6.19134">
        <ele>1342</ele>
        <time>2022-09-18T10:47:05Z</time>
      </trkpt>
      <trkpt lat="44.6387" lon="6.19144">
        <ele>1341.8</ele>
        <time>2022-09-18T10:47:06Z</time>
      </trkpt>
      <trkpt lat="44.63877" lon="6.19155">
        <ele>1341</ele>
        <time>2022-09-18T10:47:07Z</time>
      </trkpt>
      <trkpt lat="44.63884" lon="6.19169">
        <ele>1340</ele>
        <time>2022-09-18T10:47:08Z</time>
      </trkpt>
      <trkpt lat="44.6389" lon="6.19182">
        <ele>1338.8</ele>
        <time>2022-09-18T10:47:09Z</time>
      </trkpt>
      <trkpt lat="44.63896" lon="6.19195">
        <ele>1337.8</ele>
        <time>2022-09-18T10:47:10Z</time>
      </trkpt>
      <trkpt lat="44.63903" lon="6.19206">
        <ele>1337.2</ele>
        <time>2022-09-18T10:47:11Z</time>
      </trkpt>
      <trkpt lat="44.63909" lon="6.19218">
        <ele>1336.4</ele>
        <time>2022-09-18T10:47:12Z</time>
      </trkpt>
      <trkpt lat="44.63915" lon="6.19231">
        <ele>1335.8</ele>
        <time>2022-09-18T10:47:13Z</time>
      </trkpt>
      <trkpt lat="44.6392" lon="6.19245">
        <ele>1335.2</ele>
        <time>2022-09-18T10:47:14Z</time>
      </trkpt>
      <trkpt lat="44.63926" lon="6.19258">
        <ele>1334</ele>
        <time>2022-09-18T10:47:15Z</time>
      </trkpt>
      <trkpt lat="44.63932" lon="6.19271">
        <ele>1333.4</ele>
        <time>2022-09-18T10:47:16Z</time>
      </trkpt>
      <trkpt lat="44.63937" lon="6.19285">
        <ele>1332.8</ele>
        <time>2022-09-18T10:47:17Z</time>
      </trkpt>
      <trkpt lat="44.63941" lon="6.19298">
        <ele>1332.4</ele>
        <time>2022-09-18T10:47:18Z</time>
      </trkpt>
      <trkpt lat="44.63945" lon="6.1931">
        <ele>1331.8</ele>
        <time>2022-09-18T10:47:19Z</time>
      </trkpt>
      <trkpt lat="44.63949" lon="6.19322">
        <ele>1331.2</ele>
        <time>2022-09-18T10:47:20Z</time>
      </trkpt>
      <trkpt lat="44.63954" lon="6.19345">
        <ele>1329.6</ele>
        <time>2022-09-18T10:47:22Z</time>
      </trkpt>
      <trkpt lat="44.6396" lon="6.19367">
        <ele>1328.4</ele>
        <time>2022-09-18T10:47:24Z</time>
      </trkpt>
      <trkpt lat="44.63965" lon="6.1938">
        <ele>1328</ele>
        <time>2022-09-18T10:47:25Z</time>
      </trkpt>
      <trkpt lat="44.6397" lon="6.19395">
        <ele>1327.4</ele>
        <time>2022-09-18T10:47:26Z</time>
      </trkpt>
      <trkpt lat="44.63971" lon="6.19409">
        <ele>1327</ele>
        <time>2022-09-18T10:47:27Z</time>
      </trkpt>
      <trkpt lat="44.63972" lon="6.19424">
        <ele>1326.2</ele>
        <time>2022-09-18T10:47:28Z</time>
      </trkpt>
      <trkpt lat="44.63974" lon="6.19439">
        <ele>1326</ele>
        <time>2022-09-18T10:47:29Z</time>
      </trkpt>
      <trkpt lat="44.63976" lon="6.19455">
        <ele>1325.4</ele>
        <time>2022-09-18T10:47:30Z</time>
      </trkpt>
      <trkpt lat="44.63979" lon="6.1947">
        <ele>1324.6</ele>
        <time>2022-09-18T10:47:31Z</time>
      </trkpt>
      <trkpt lat="44.63982" lon="6.19486">
        <ele>1324</ele>
        <time>2022-09-18T10:47:32Z</time>
      </trkpt>
      <trkpt lat="44.63986" lon="6.19501">
        <ele>1323.2</ele>
        <time>2022-09-18T10:47:33Z</time>
      </trkpt>
      <trkpt lat="44.63989" lon="6.19517">
        <ele>1322.2</ele>
        <time>2022-09-18T10:47:34Z</time>
      </trkpt>
      <trkpt lat="44.63992" lon="6.19532">
        <ele>1321.4</ele>
        <time>2022-09-18T10:47:35Z</time>
      </trkpt>
      <trkpt lat="44.63994" lon="6.19546">
        <ele>1320.8</ele>
        <time>2022-09-18T10:47:36Z</time>
      </trkpt>
      <trkpt lat="44.63997" lon="6.19559">
        <ele>1320</ele>
        <time>2022-09-18T10:47:37Z</time>
      </trkpt>
      <trkpt lat="44.64002" lon="6.19571">
        <ele>1319.4</ele>
        <time>2022-09-18T10:47:38Z</time>
      </trkpt>
      <trkpt lat="44.64009" lon="6.19582">
        <ele>1318.4</ele>
        <time>2022-09-18T10:47:39Z</time>
      </trkpt>
      <trkpt lat="44.64018" lon="6.19591">
        <ele>1317.4</ele>
        <time>2022-09-18T10:47:40Z</time>
      </trkpt>
      <trkpt lat="44.6403" lon="6.196">
        <ele>1316</ele>
        <time>2022-09-18T10:47:41Z</time>
      </trkpt>
      <trkpt lat="44.6404" lon="6.1961">
        <ele>1315</ele>
        <time>2022-09-18T10:47:42Z</time>
      </trkpt>
      <trkpt lat="44.6405" lon="6.1962">
        <ele>1314</ele>
        <time>2022-09-18T10:47:43Z</time>
      </trkpt>
      <trkpt lat="44.6406" lon="6.19629">
        <ele>1313.6</ele>
        <time>2022-09-18T10:47:44Z</time>
      </trkpt>
      <trkpt lat="44.6407" lon="6.1964">
        <ele>1313.2</ele>
        <time>2022-09-18T10:47:45Z</time>
      </trkpt>
      <trkpt lat="44.64079" lon="6.1965">
        <ele>1312.4</ele>
        <time>2022-09-18T10:47:46Z</time>
      </trkpt>
      <trkpt lat="44.64089" lon="6.19659">
        <ele>1311.4</ele>
        <time>2022-09-18T10:47:47Z</time>
      </trkpt>
      <trkpt lat="44.64098" lon="6.19667">
        <ele>1311</ele>
        <time>2022-09-18T10:47:48Z</time>
      </trkpt>
      <trkpt lat="44.64112" lon="6.1968">
        <ele>1309</ele>
        <time>2022-09-18T10:47:50Z</time>
      </trkpt>
      <trkpt lat="44.64128" lon="6.19689">
        <ele>1308.2</ele>
        <time>2022-09-18T10:47:52Z</time>
      </trkpt>
      <trkpt lat="44.64137" lon="6.19692">
        <ele>1307.4</ele>
        <time>2022-09-18T10:47:53Z</time>
      </trkpt>
      <trkpt lat="44.64145" lon="6.19696">
        <ele>1306.6</ele>
        <time>2022-09-18T10:47:54Z</time>
      </trkpt>
      <trkpt lat="44.64154" lon="6.19699">
        <ele>1306</ele>
        <time>2022-09-18T10:47:55Z</time>
      </trkpt>
      <trkpt lat="44.64162" lon="6.19702">
        <ele>1305.4</ele>
        <time>2022-09-18T10:47:56Z</time>
      </trkpt>
      <trkpt lat="44.6417" lon="6.19706">
        <ele>1305.2</ele>
        <time>2022-09-18T10:47:57Z</time>
      </trkpt>
      <trkpt lat="44.64178" lon="6.1971">
        <ele>1304.8</ele>
        <time>2022-09-18T10:47:58Z</time>
      </trkpt>
      <trkpt lat="44.64186" lon="6.19715">
        <ele>1304.4</ele>
        <time>2022-09-18T10:47:59Z</time>
      </trkpt>
      <trkpt lat="44.64194" lon="6.19721">
        <ele>1304</ele>
        <time>2022-09-18T10:48:00Z</time>
      </trkpt>
      <trkpt lat="44.64202" lon="6.19728">
        <ele>1303.4</ele>
        <time>2022-09-18T10:48:01Z</time>
      </trkpt>
      <trkpt lat="44.64209" lon="6.19735">
        <ele>1303.4</ele>
        <time>2022-09-18T10:48:02Z</time>
      </trkpt>
      <trkpt lat="44.64215" lon="6.19741">
        <ele>1303</ele>
        <time>2022-09-18T10:48:03Z</time>
      </trkpt>
      <trkpt lat="44.64221" lon="6.19747">
        <ele>1303</ele>
        <time>2022-09-18T10:48:04Z</time>
      </trkpt>
      <trkpt lat="44.64227" lon="6.19751">
        <ele>1302.8</ele>
        <time>2022-09-18T10:48:05Z</time>
      </trkpt>
      <trkpt lat="44.64233" lon="6.19755">
        <ele>1302.6</ele>
        <time>2022-09-18T10:48:06Z</time>
      </trkpt>
      <trkpt lat="44.64239" lon="6.19758">
        <ele>1302.4</ele>
        <time>2022-09-18T10:48:07Z</time>
      </trkpt>
      <trkpt lat="44.64246" lon="6.19761">
        <ele>1302</ele>
        <time>2022-09-18T10:48:08Z</time>
      </trkpt>
      <trkpt lat="44.64252" lon="6.19763">
        <ele>1301.8</ele>
        <time>2022-09-18T10:48:09Z</time>
      </trkpt>
      <trkpt lat="44.64259" lon="6.19764">
        <ele>1301.2</ele>
        <time>2022-09-18T10:48:10Z</time>
      </trkpt>
      <trkpt lat="44.64266" lon="6.19764">
        <ele>1301.2</ele>
        <time>2022-09-18T10:48:11Z</time>
      </trkpt>
      <trkpt lat="44.64273" lon="6.19765">
        <ele>1301</ele>
        <time>2022-09-18T10:48:12Z</time>
      </trkpt>
      <trkpt lat="44.6428" lon="6.19766">
        <ele>1300.8</ele>
        <time>2022-09-18T10:48:13Z</time>
      </trkpt>
      <trkpt lat="44.64286" lon="6.19767">
        <ele>1300.8</ele>
        <time>2022-09-18T10:48:14Z</time>
      </trkpt>
      <trkpt lat="44.64292" lon="6.1977">
        <ele>1300.8</ele>
        <time>2022-09-18T10:48:15Z</time>
      </trkpt>
      <trkpt lat="44.64299" lon="6.19775">
        <ele>1300.6</ele>
        <time>2022-09-18T10:48:16Z</time>
      </trkpt>
      <trkpt lat="44.64304" lon="6.1978">
        <ele>1300.2</ele>
        <time>2022-09-18T10:48:17Z</time>
      </trkpt>
      <trkpt lat="44.6431" lon="6.19786">
        <ele>1299.8</ele>
        <time>2022-09-18T10:48:18Z</time>
      </trkpt>
      <trkpt lat="44.64315" lon="6.19793">
        <ele>1299.6</ele>
        <time>2022-09-18T10:48:19Z</time>
      </trkpt>
      <trkpt lat="44.6432" lon="6.198">
        <ele>1299.6</ele>
        <time>2022-09-18T10:48:20Z</time>
      </trkpt>
      <trkpt lat="44.64325" lon="6.19808">
        <ele>1299.6</ele>
        <time>2022-09-18T10:48:21Z</time>
      </trkpt>
      <trkpt lat="44.64329" lon="6.19816">
        <ele>1299.4</ele>
        <time>2022-09-18T10:48:22Z</time>
      </trkpt>
      <trkpt lat="44.64333" lon="6.19824">
        <ele>1299.4</ele>
        <time>2022-09-18T10:48:23Z</time>
      </trkpt>
      <trkpt lat="44.64337" lon="6.19833">
        <ele>1299.4</ele>
        <time>2022-09-18T10:48:24Z</time>
      </trkpt>
      <trkpt lat="44.64341" lon="6.19841">
        <ele>1299.4</ele>
        <time>2022-09-18T10:48:25Z</time>
      </trkpt>
      <trkpt lat="44.64345" lon="6.19851">
        <ele>1299</ele>
        <time>2022-09-18T10:48:26Z</time>
      </trkpt>
      <trkpt lat="44.64349" lon="6.19861">
        <ele>1298.6</ele>
        <time>2022-09-18T10:48:27Z</time>
      </trkpt>
      <trkpt lat="44.64353" lon="6.19871">
        <ele>1298</ele>
        <time>2022-09-18T10:48:28Z</time>
      </trkpt>
      <trkpt lat="44.64357" lon="6.19881">
        <ele>1297.6</ele>
        <time>2022-09-18T10:48:29Z</time>
      </trkpt>
      <trkpt lat="44.6436" lon="6.19892">
        <ele>1297.2</ele>
        <time>2022-09-18T10:48:30Z</time>
      </trkpt>
      <trkpt lat="44.64362" lon="6.19902">
        <ele>1296.6</ele>
        <time>2022-09-18T10:48:31Z</time>
      </trkpt>
      <trkpt lat="44.64364" lon="6.19912">
        <ele>1296</ele>
        <time>2022-09-18T10:48:32Z</time>
      </trkpt>
      <trkpt lat="44.64366" lon="6.19922">
        <ele>1295.4</ele>
        <time>2022-09-18T10:48:33Z</time>
      </trkpt>
      <trkpt lat="44.64367" lon="6.19932">
        <ele>1294.4</ele>
        <time>2022-09-18T10:48:34Z</time>
      </trkpt>
      <trkpt lat="44.64368" lon="6.1994">
        <ele>1293.8</ele>
        <time>2022-09-18T10:48:35Z</time>
      </trkpt>
      <trkpt lat="44.64367" lon="6.19949">
        <ele>1292.6</ele>
        <time>2022-09-18T10:48:36Z</time>
      </trkpt>
      <trkpt lat="44.64366" lon="6.19958">
        <ele>1291.8</ele>
        <time>2022-09-18T10:48:37Z</time>
      </trkpt>
      <trkpt lat="44.64366" lon="6.19966">
        <ele>1291.2</ele>
        <time>2022-09-18T10:48:38Z</time>
      </trkpt>
      <trkpt lat="44.64365" lon="6.19976">
        <ele>1290.8</ele>
        <time>2022-09-18T10:48:39Z</time>
      </trkpt>
      <trkpt lat="44.64366" lon="6.19986">
        <ele>1290.4</ele>
        <time>2022-09-18T10:48:40Z</time>
      </trkpt>
      <trkpt lat="44.64366" lon="6.19997">
        <ele>1289.6</ele>
        <time>2022-09-18T10:48:41Z</time>
      </trkpt>
      <trkpt lat="44.64367" lon="6.20007">
        <ele>1289</ele>
        <time>2022-09-18T10:48:42Z</time>
      </trkpt>
      <trkpt lat="44.64368" lon="6.20017">
        <ele>1288.6</ele>
        <time>2022-09-18T10:48:43Z</time>
      </trkpt>
      <trkpt lat="44.64371" lon="6.20026">
        <ele>1288.2</ele>
        <time>2022-09-18T10:48:44Z</time>
      </trkpt>
      <trkpt lat="44.64375" lon="6.20032">
        <ele>1287.4</ele>
        <time>2022-09-18T10:48:45Z</time>
      </trkpt>
      <trkpt lat="44.6438" lon="6.20037">
        <ele>1286.8</ele>
        <time>2022-09-18T10:48:46Z</time>
      </trkpt>
      <trkpt lat="44.64385" lon="6.2004">
        <ele>1286</ele>
        <time>2022-09-18T10:48:47Z</time>
      </trkpt>
      <trkpt lat="44.64391" lon="6.20043">
        <ele>1285.4</ele>
        <time>2022-09-18T10:48:48Z</time>
      </trkpt>
      <trkpt lat="44.64396" lon="6.20043">
        <ele>1284.8</ele>
        <time>2022-09-18T10:48:49Z</time>
      </trkpt>
      <trkpt lat="44.64403" lon="6.20043">
        <ele>1284</ele>
        <time>2022-09-18T10:48:50Z</time>
      </trkpt>
      <trkpt lat="44.64409" lon="6.20042">
        <ele>1283</ele>
        <time>2022-09-18T10:48:51Z</time>
      </trkpt>
      <trkpt lat="44.64415" lon="6.2004">
        <ele>1282.6</ele>
        <time>2022-09-18T10:48:52Z</time>
      </trkpt>
      <trkpt lat="44.64421" lon="6.20039">
        <ele>1282</ele>
        <time>2022-09-18T10:48:53Z</time>
      </trkpt>
      <trkpt lat="44.64426" lon="6.20037">
        <ele>1281.2</ele>
        <time>2022-09-18T10:48:54Z</time>
      </trkpt>
      <trkpt lat="44.64431" lon="6.20035">
        <ele>1280.6</ele>
        <time>2022-09-18T10:48:55Z</time>
      </trkpt>
      <trkpt lat="44.64435" lon="6.20033">
        <ele>1280</ele>
        <time>2022-09-18T10:48:56Z</time>
      </trkpt>
      <trkpt lat="44.64439" lon="6.20032">
        <ele>1279.4</ele>
        <time>2022-09-18T10:48:57Z</time>
      </trkpt>
      <trkpt lat="44.64442" lon="6.20031">
        <ele>1278.8</ele>
        <time>2022-09-18T10:48:58Z</time>
      </trkpt>
      <trkpt lat="44.64445" lon="6.20031">
        <ele>1278.2</ele>
        <time>2022-09-18T10:48:59Z</time>
      </trkpt>
      <trkpt lat="44.64448" lon="6.20031">
        <ele>1277.8</ele>
        <time>2022-09-18T10:49:00Z</time>
      </trkpt>
      <trkpt lat="44.64451" lon="6.20031">
        <ele>1277.4</ele>
        <time>2022-09-18T10:49:01Z</time>
      </trkpt>
      <trkpt lat="44.64454" lon="6.20031">
        <ele>1276.8</ele>
        <time>2022-09-18T10:49:02Z</time>
      </trkpt>
      <trkpt lat="44.64456" lon="6.20029">
        <ele>1276.4</ele>
        <time>2022-09-18T10:49:03Z</time>
      </trkpt>
      <trkpt lat="44.64458" lon="6.20027">
        <ele>1276.4</ele>
        <time>2022-09-18T10:49:04Z</time>
      </trkpt>
      <trkpt lat="44.64457" lon="6.20024">
        <ele>1276</ele>
        <time>2022-09-18T10:49:05Z</time>
      </trkpt>
      <trkpt lat="44.64457" lon="6.20022">
        <ele>1276</ele>
        <time>2022-09-18T10:49:06Z</time>
      </trkpt>
      <trkpt lat="44.64456" lon="6.20019">
        <ele>1275.8</ele>
        <time>2022-09-18T10:49:07Z</time>
      </trkpt>
      <trkpt lat="44.64455" lon="6.20016">
        <ele>1275.8</ele>
        <time>2022-09-18T10:49:08Z</time>
      </trkpt>
      <trkpt lat="44.64453" lon="6.20013">
        <ele>1275.6</ele>
        <time>2022-09-18T10:49:09Z</time>
      </trkpt>
      <trkpt lat="44.64452" lon="6.20009">
        <ele>1275.6</ele>
        <time>2022-09-18T10:49:10Z</time>
      </trkpt>
      <trkpt lat="44.64452" lon="6.20005">
        <ele>1275.6</ele>
        <time>2022-09-18T10:49:11Z</time>
      </trkpt>
      <trkpt lat="44.64453" lon="6.20001">
        <ele>1275.4</ele>
        <time>2022-09-18T10:49:12Z</time>
      </trkpt>
      <trkpt lat="44.64454" lon="6.19998">
        <ele>1275.4</ele>
        <time>2022-09-18T10:49:13Z</time>
      </trkpt>
      <trkpt lat="44.64455" lon="6.19995">
        <ele>1275.2</ele>
        <time>2022-09-18T10:49:14Z</time>
      </trkpt>
      <trkpt lat="44.64454" lon="6.19998">
        <ele>1273.6</ele>
        <time>2022-09-18T10:49:18Z</time>
      </trkpt>
      <trkpt lat="44.64454" lon="6.20002">
        <ele>1273.2</ele>
        <time>2022-09-18T10:49:19Z</time>
      </trkpt>
      <trkpt lat="44.64454" lon="6.20006">
        <ele>1273</ele>
        <time>2022-09-18T10:49:20Z</time>
      </trkpt>
      <trkpt lat="44.64454" lon="6.2001">
        <ele>1272.8</ele>
        <time>2022-09-18T10:49:21Z</time>
      </trkpt>
      <trkpt lat="44.64454" lon="6.20014">
        <ele>1272.6</ele>
        <time>2022-09-18T10:49:22Z</time>
      </trkpt>
      <trkpt lat="44.64455" lon="6.20016">
        <ele>1272.6</ele>
        <time>2022-09-18T10:49:23Z</time>
      </trkpt>
      <trkpt lat="44.64456" lon="6.20019">
        <ele>1272.4</ele>
        <time>2022-09-18T10:49:24Z</time>
      </trkpt>
      <trkpt lat="44.64459" lon="6.2002">
        <ele>1272.2</ele>
        <time>2022-09-18T10:49:25Z</time>
      </trkpt>
      <trkpt lat="44.64461" lon="6.20019">
        <ele>1271.8</ele>
        <time>2022-09-18T10:49:26Z</time>
      </trkpt>
      <trkpt lat="44.64463" lon="6.20018">
        <ele>1271.6</ele>
        <time>2022-09-18T10:49:27Z</time>
      </trkpt>
      <trkpt lat="44.64465" lon="6.20016">
        <ele>1271.6</ele>
        <time>2022-09-18T10:49:28Z</time>
      </trkpt>
      <trkpt lat="44.64467" lon="6.20014">
        <ele>1271.6</ele>
        <time>2022-09-18T10:49:29Z</time>
      </trkpt>
      <trkpt lat="44.6447" lon="6.20011">
        <ele>1271.6</ele>
        <time>2022-09-18T10:49:30Z</time>
      </trkpt>
      <trkpt lat="44.64472" lon="6.20009">
        <ele>1271.6</ele>
        <time>2022-09-18T10:49:31Z</time>
      </trkpt>
      <trkpt lat="44.64475" lon="6.20006">
        <ele>1271.4</ele>
        <time>2022-09-18T10:49:32Z</time>
      </trkpt>
      <trkpt lat="44.64477" lon="6.20003">
        <ele>1271.4</ele>
        <time>2022-09-18T10:49:33Z</time>
      </trkpt>
      <trkpt lat="44.6448" lon="6.2">
        <ele>1271.2</ele>
        <time>2022-09-18T10:49:34Z</time>
      </trkpt>
      <trkpt lat="44.64482" lon="6.19996">
        <ele>1270.8</ele>
        <time>2022-09-18T10:49:35Z</time>
      </trkpt>
      <trkpt lat="44.64486" lon="6.19993">
        <ele>1270.8</ele>
        <time>2022-09-18T10:49:36Z</time>
      </trkpt>
      <trkpt lat="44.64489" lon="6.1999">
        <ele>1270.4</ele>
        <time>2022-09-18T10:49:37Z</time>
      </trkpt>
      <trkpt lat="44.64493" lon="6.19988">
        <ele>1270.4</ele>
        <time>2022-09-18T10:49:38Z</time>
      </trkpt>
      <trkpt lat="44.64497" lon="6.19986">
        <ele>1269.8</ele>
        <time>2022-09-18T10:49:39Z</time>
      </trkpt>
      <trkpt lat="44.64502" lon="6.19984">
        <ele>1269.8</ele>
        <time>2022-09-18T10:49:40Z</time>
      </trkpt>
      <trkpt lat="44.64507" lon="6.19983">
        <ele>1269.4</ele>
        <time>2022-09-18T10:49:41Z</time>
      </trkpt>
      <trkpt lat="44.64512" lon="6.19983">
        <ele>1269.2</ele>
        <time>2022-09-18T10:49:42Z</time>
      </trkpt>
      <trkpt lat="44.64517" lon="6.19982">
        <ele>1268.6</ele>
        <time>2022-09-18T10:49:43Z</time>
      </trkpt>
      <trkpt lat="44.64522" lon="6.19983">
        <ele>1268.2</ele>
        <time>2022-09-18T10:49:44Z</time>
      </trkpt>
      <trkpt lat="44.64527" lon="6.19984">
        <ele>1267.8</ele>
        <time>2022-09-18T10:49:45Z</time>
      </trkpt>
      <trkpt lat="44.64532" lon="6.19986">
        <ele>1267.4</ele>
        <time>2022-09-18T10:49:46Z</time>
      </trkpt>
      <trkpt lat="44.64537" lon="6.19988">
        <ele>1267.2</ele>
        <time>2022-09-18T10:49:47Z</time>
      </trkpt>
      <trkpt lat="44.64543" lon="6.19992">
        <ele>1267.2</ele>
        <time>2022-09-18T10:49:48Z</time>
      </trkpt>
      <trkpt lat="44.64548" lon="6.19996">
        <ele>1267</ele>
        <time>2022-09-18T10:49:49Z</time>
      </trkpt>
      <trkpt lat="44.64553" lon="6.20001">
        <ele>1266.8</ele>
        <time>2022-09-18T10:49:50Z</time>
      </trkpt>
      <trkpt lat="44.64558" lon="6.20007">
        <ele>1266.2</ele>
        <time>2022-09-18T10:49:51Z</time>
      </trkpt>
      <trkpt lat="44.64562" lon="6.20014">
        <ele>1265.8</ele>
        <time>2022-09-18T10:49:52Z</time>
      </trkpt>
      <trkpt lat="44.64565" lon="6.20021">
        <ele>1265.2</ele>
        <time>2022-09-18T10:49:53Z</time>
      </trkpt>
      <trkpt lat="44.64568" lon="6.2003">
        <ele>1264.8</ele>
        <time>2022-09-18T10:49:54Z</time>
      </trkpt>
      <trkpt lat="44.64571" lon="6.20038">
        <ele>1264.6</ele>
        <time>2022-09-18T10:49:55Z</time>
      </trkpt>
      <trkpt lat="44.64572" lon="6.20047">
        <ele>1264.4</ele>
        <time>2022-09-18T10:49:56Z</time>
      </trkpt>
      <trkpt lat="44.64574" lon="6.20057">
        <ele>1264.2</ele>
        <time>2022-09-18T10:49:57Z</time>
      </trkpt>
      <trkpt lat="44.64575" lon="6.20066">
        <ele>1263.6</ele>
        <time>2022-09-18T10:49:58Z</time>
      </trkpt>
      <trkpt lat="44.64575" lon="6.20075">
        <ele>1263.2</ele>
        <time>2022-09-18T10:49:59Z</time>
      </trkpt>
      <trkpt lat="44.64575" lon="6.20084">
        <ele>1263.2</ele>
        <time>2022-09-18T10:50:00Z</time>
      </trkpt>
      <trkpt lat="44.64575" lon="6.20094">
        <ele>1262.4</ele>
        <time>2022-09-18T10:50:01Z</time>
      </trkpt>
      <trkpt lat="44.64575" lon="6.20104">
        <ele>1262</ele>
        <time>2022-09-18T10:50:02Z</time>
      </trkpt>
      <trkpt lat="44.64576" lon="6.20113">
        <ele>1261.8</ele>
        <time>2022-09-18T10:50:03Z</time>
      </trkpt>
      <trkpt lat="44.64576" lon="6.20123">
        <ele>1261.6</ele>
        <time>2022-09-18T10:50:04Z</time>
      </trkpt>
      <trkpt lat="44.64575" lon="6.20134">
        <ele>1261.2</ele>
        <time>2022-09-18T10:50:05Z</time>
      </trkpt>
      <trkpt lat="44.64575" lon="6.20144">
        <ele>1260.8</ele>
        <time>2022-09-18T10:50:06Z</time>
      </trkpt>
      <trkpt lat="44.64574" lon="6.20154">
        <ele>1260.6</ele>
        <time>2022-09-18T10:50:07Z</time>
      </trkpt>
      <trkpt lat="44.64573" lon="6.20165">
        <ele>1260.4</ele>
        <time>2022-09-18T10:50:08Z</time>
      </trkpt>
      <trkpt lat="44.64571" lon="6.20176">
        <ele>1260.2</ele>
        <time>2022-09-18T10:50:09Z</time>
      </trkpt>
      <trkpt lat="44.6457" lon="6.20187">
        <ele>1260</ele>
        <time>2022-09-18T10:50:10Z</time>
      </trkpt>
      <trkpt lat="44.64569" lon="6.20198">
        <ele>1259.6</ele>
        <time>2022-09-18T10:50:11Z</time>
      </trkpt>
      <trkpt lat="44.64568" lon="6.2021">
        <ele>1259.2</ele>
        <time>2022-09-18T10:50:12Z</time>
      </trkpt>
      <trkpt lat="44.64568" lon="6.20222">
        <ele>1259</ele>
        <time>2022-09-18T10:50:13Z</time>
      </trkpt>
      <trkpt lat="44.64568" lon="6.20233">
        <ele>1258.6</ele>
        <time>2022-09-18T10:50:14Z</time>
      </trkpt>
      <trkpt lat="44.64571" lon="6.20245">
        <ele>1258.4</ele>
        <time>2022-09-18T10:50:15Z</time>
      </trkpt>
      <trkpt lat="44.64575" lon="6.20255">
        <ele>1257.8</ele>
        <time>2022-09-18T10:50:16Z</time>
      </trkpt>
      <trkpt lat="44.64582" lon="6.20263">
        <ele>1257.4</ele>
        <time>2022-09-18T10:50:17Z</time>
      </trkpt>
      <trkpt lat="44.6459" lon="6.2027">
        <ele>1257.2</ele>
        <time>2022-09-18T10:50:18Z</time>
      </trkpt>
      <trkpt lat="44.64598" lon="6.20276">
        <ele>1257</ele>
        <time>2022-09-18T10:50:19Z</time>
      </trkpt>
      <trkpt lat="44.64607" lon="6.20281">
        <ele>1256.4</ele>
        <time>2022-09-18T10:50:20Z</time>
      </trkpt>
      <trkpt lat="44.64615" lon="6.20285">
        <ele>1256.2</ele>
        <time>2022-09-18T10:50:21Z</time>
      </trkpt>
      <trkpt lat="44.64624" lon="6.2029">
        <ele>1255.8</ele>
        <time>2022-09-18T10:50:22Z</time>
      </trkpt>
      <trkpt lat="44.64633" lon="6.20296">
        <ele>1255.4</ele>
        <time>2022-09-18T10:50:23Z</time>
      </trkpt>
      <trkpt lat="44.64641" lon="6.20302">
        <ele>1255</ele>
        <time>2022-09-18T10:50:24Z</time>
      </trkpt>
      <trkpt lat="44.64649" lon="6.2031">
        <ele>1254.4</ele>
        <time>2022-09-18T10:50:25Z</time>
      </trkpt>
      <trkpt lat="44.64657" lon="6.20319">
        <ele>1253.8</ele>
        <time>2022-09-18T10:50:26Z</time>
      </trkpt>
      <trkpt lat="44.64665" lon="6.20329">
        <ele>1253</ele>
        <time>2022-09-18T10:50:27Z</time>
      </trkpt>
      <trkpt lat="44.64672" lon="6.20339">
        <ele>1252.4</ele>
        <time>2022-09-18T10:50:28Z</time>
      </trkpt>
      <trkpt lat="44.64678" lon="6.20349">
        <ele>1252</ele>
        <time>2022-09-18T10:50:29Z</time>
      </trkpt>
      <trkpt lat="44.64684" lon="6.20358">
        <ele>1251.4</ele>
        <time>2022-09-18T10:50:30Z</time>
      </trkpt>
      <trkpt lat="44.64689" lon="6.20366">
        <ele>1251</ele>
        <time>2022-09-18T10:50:31Z</time>
      </trkpt>
      <trkpt lat="44.64695" lon="6.20375">
        <ele>1250.6</ele>
        <time>2022-09-18T10:50:32Z</time>
      </trkpt>
      <trkpt lat="44.647" lon="6.20383">
        <ele>1250.2</ele>
        <time>2022-09-18T10:50:33Z</time>
      </trkpt>
      <trkpt lat="44.64706" lon="6.20392">
        <ele>1249.8</ele>
        <time>2022-09-18T10:50:34Z</time>
      </trkpt>
      <trkpt lat="44.64711" lon="6.204">
        <ele>1249.6</ele>
        <time>2022-09-18T10:50:35Z</time>
      </trkpt>
      <trkpt lat="44.64716" lon="6.20409">
        <ele>1248.8</ele>
        <time>2022-09-18T10:50:36Z</time>
      </trkpt>
      <trkpt lat="44.64721" lon="6.20417">
        <ele>1248.6</ele>
        <time>2022-09-18T10:50:37Z</time>
      </trkpt>
      <trkpt lat="44.64726" lon="6.20426">
        <ele>1248.2</ele>
        <time>2022-09-18T10:50:38Z</time>
      </trkpt>
      <trkpt lat="44.64732" lon="6.20434">
        <ele>1247.6</ele>
        <time>2022-09-18T10:50:39Z</time>
      </trkpt>
      <trkpt lat="44.64738" lon="6.20442">
        <ele>1247.4</ele>
        <time>2022-09-18T10:50:40Z</time>
      </trkpt>
      <trkpt lat="44.64744" lon="6.20449">
        <ele>1246.8</ele>
        <time>2022-09-18T10:50:41Z</time>
      </trkpt>
      <trkpt lat="44.6475" lon="6.20456">
        <ele>1246.6</ele>
        <time>2022-09-18T10:50:42Z</time>
      </trkpt>
      <trkpt lat="44.64755" lon="6.20462">
        <ele>1246</ele>
        <time>2022-09-18T10:50:43Z</time>
      </trkpt>
      <trkpt lat="44.64773" lon="6.20475">
        <ele>1245.4</ele>
        <time>2022-09-18T10:50:45Z</time>
      </trkpt>
      <trkpt lat="44.64782" lon="6.20483">
        <ele>1245.2</ele>
        <time>2022-09-18T10:50:46Z</time>
      </trkpt>
      <trkpt lat="44.6479" lon="6.20492">
        <ele>1244.6</ele>
        <time>2022-09-18T10:50:47Z</time>
      </trkpt>
      <trkpt lat="44.64797" lon="6.20502">
        <ele>1244</ele>
        <time>2022-09-18T10:50:48Z</time>
      </trkpt>
      <trkpt lat="44.64802" lon="6.20515">
        <ele>1243.2</ele>
        <time>2022-09-18T10:50:49Z</time>
      </trkpt>
      <trkpt lat="44.64805" lon="6.2053">
        <ele>1242.6</ele>
        <time>2022-09-18T10:50:50Z</time>
      </trkpt>
      <trkpt lat="44.64809" lon="6.20544">
        <ele>1242.2</ele>
        <time>2022-09-18T10:50:51Z</time>
      </trkpt>
      <trkpt lat="44.64813" lon="6.20559">
        <ele>1241.6</ele>
        <time>2022-09-18T10:50:52Z</time>
      </trkpt>
      <trkpt lat="44.64819" lon="6.20572">
        <ele>1240.6</ele>
        <time>2022-09-18T10:50:53Z</time>
      </trkpt>
      <trkpt lat="44.64826" lon="6.20583">
        <ele>1240</ele>
        <time>2022-09-18T10:50:54Z</time>
      </trkpt>
      <trkpt lat="44.64833" lon="6.20594">
        <ele>1239.4</ele>
        <time>2022-09-18T10:50:55Z</time>
      </trkpt>
      <trkpt lat="44.64841" lon="6.20604">
        <ele>1238.8</ele>
        <time>2022-09-18T10:50:56Z</time>
      </trkpt>
      <trkpt lat="44.64849" lon="6.20615">
        <ele>1237.2</ele>
        <time>2022-09-18T10:50:57Z</time>
      </trkpt>
      <trkpt lat="44.64856" lon="6.20625">
        <ele>1236.8</ele>
        <time>2022-09-18T10:50:58Z</time>
      </trkpt>
      <trkpt lat="44.64864" lon="6.20635">
        <ele>1236.6</ele>
        <time>2022-09-18T10:50:59Z</time>
      </trkpt>
      <trkpt lat="44.64872" lon="6.20645">
        <ele>1236</ele>
        <time>2022-09-18T10:51:00Z</time>
      </trkpt>
      <trkpt lat="44.64881" lon="6.20654">
        <ele>1235.6</ele>
        <time>2022-09-18T10:51:01Z</time>
      </trkpt>
      <trkpt lat="44.6489" lon="6.20663">
        <ele>1235</ele>
        <time>2022-09-18T10:51:02Z</time>
      </trkpt>
      <trkpt lat="44.64899" lon="6.20671">
        <ele>1234.2</ele>
        <time>2022-09-18T10:51:03Z</time>
      </trkpt>
      <trkpt lat="44.64908" lon="6.20678">
        <ele>1233.6</ele>
        <time>2022-09-18T10:51:04Z</time>
      </trkpt>
      <trkpt lat="44.64916" lon="6.20686">
        <ele>1232.8</ele>
        <time>2022-09-18T10:51:05Z</time>
      </trkpt>
      <trkpt lat="44.64924" lon="6.20693">
        <ele>1232.2</ele>
        <time>2022-09-18T10:51:06Z</time>
      </trkpt>
      <trkpt lat="44.64932" lon="6.20698">
        <ele>1231.2</ele>
        <time>2022-09-18T10:51:07Z</time>
      </trkpt>
      <trkpt lat="44.64942" lon="6.20705">
        <ele>1230.4</ele>
        <time>2022-09-18T10:51:08Z</time>
      </trkpt>
      <trkpt lat="44.64953" lon="6.20711">
        <ele>1229.8</ele>
        <time>2022-09-18T10:51:09Z</time>
      </trkpt>
      <trkpt lat="44.64966" lon="6.2072">
        <ele>1229.2</ele>
        <time>2022-09-18T10:51:10Z</time>
      </trkpt>
      <trkpt lat="44.64977" lon="6.20729">
        <ele>1228.4</ele>
        <time>2022-09-18T10:51:11Z</time>
      </trkpt>
      <trkpt lat="44.64986" lon="6.20739">
        <ele>1227.8</ele>
        <time>2022-09-18T10:51:12Z</time>
      </trkpt>
      <trkpt lat="44.64992" lon="6.2075">
        <ele>1226.8</ele>
        <time>2022-09-18T10:51:13Z</time>
      </trkpt>
      <trkpt lat="44.64997" lon="6.20762">
        <ele>1226</ele>
        <time>2022-09-18T10:51:14Z</time>
      </trkpt>
      <trkpt lat="44.65002" lon="6.20775">
        <ele>1225</ele>
        <time>2022-09-18T10:51:15Z</time>
      </trkpt>
      <trkpt lat="44.65006" lon="6.20791">
        <ele>1224.2</ele>
        <time>2022-09-18T10:51:16Z</time>
      </trkpt>
      <trkpt lat="44.65009" lon="6.20806">
        <ele>1223.4</ele>
        <time>2022-09-18T10:51:17Z</time>
      </trkpt>
      <trkpt lat="44.65013" lon="6.2082">
        <ele>1223</ele>
        <time>2022-09-18T10:51:18Z</time>
      </trkpt>
      <trkpt lat="44.65017" lon="6.20834">
        <ele>1222.2</ele>
        <time>2022-09-18T10:51:19Z</time>
      </trkpt>
      <trkpt lat="44.65025" lon="6.20854">
        <ele>1221</ele>
        <time>2022-09-18T10:51:21Z</time>
      </trkpt>
      <trkpt lat="44.65032" lon="6.20871">
        <ele>1220.4</ele>
        <time>2022-09-18T10:51:23Z</time>
      </trkpt>
      <trkpt lat="44.65039" lon="6.20886">
        <ele>1220.6</ele>
        <time>2022-09-18T10:51:25Z</time>
      </trkpt>
      <trkpt lat="44.65047" lon="6.20901">
        <ele>1221.4</ele>
        <time>2022-09-18T10:51:27Z</time>
      </trkpt>
      <trkpt lat="44.65056" lon="6.20919">
        <ele>1221.6</ele>
        <time>2022-09-18T10:51:29Z</time>
      </trkpt>
      <trkpt lat="44.65064" lon="6.20934">
        <ele>1222.2</ele>
        <time>2022-09-18T10:51:31Z</time>
      </trkpt>
      <trkpt lat="44.65071" lon="6.20948">
        <ele>1222.4</ele>
        <time>2022-09-18T10:51:33Z</time>
      </trkpt>
      <trkpt lat="44.65078" lon="6.20961">
        <ele>1223.2</ele>
        <time>2022-09-18T10:51:35Z</time>
      </trkpt>
      <trkpt lat="44.65084" lon="6.20973">
        <ele>1223.6</ele>
        <time>2022-09-18T10:51:37Z</time>
      </trkpt>
      <trkpt lat="44.6509" lon="6.20986">
        <ele>1224.4</ele>
        <time>2022-09-18T10:51:39Z</time>
      </trkpt>
      <trkpt lat="44.65094" lon="6.20999">
        <ele>1224.4</ele>
        <time>2022-09-18T10:51:41Z</time>
      </trkpt>
      <trkpt lat="44.65096" lon="6.21006">
        <ele>1224.4</ele>
        <time>2022-09-18T10:51:42Z</time>
      </trkpt>
      <trkpt lat="44.65099" lon="6.21012">
        <ele>1224.6</ele>
        <time>2022-09-18T10:51:43Z</time>
      </trkpt>
      <trkpt lat="44.65102" lon="6.21018">
        <ele>1224.6</ele>
        <time>2022-09-18T10:51:44Z</time>
      </trkpt>
      <trkpt lat="44.65105" lon="6.21024">
        <ele>1224.6</ele>
        <time>2022-09-18T10:51:45Z</time>
      </trkpt>
      <trkpt lat="44.65108" lon="6.21029">
        <ele>1224.6</ele>
        <time>2022-09-18T10:51:46Z</time>
      </trkpt>
      <trkpt lat="44.65111" lon="6.21035">
        <ele>1224.8</ele>
        <time>2022-09-18T10:51:47Z</time>
      </trkpt>
      <trkpt lat="44.65113" lon="6.21041">
        <ele>1225</ele>
        <time>2022-09-18T10:51:48Z</time>
      </trkpt>
      <trkpt lat="44.65116" lon="6.21047">
        <ele>1225</ele>
        <time>2022-09-18T10:51:49Z</time>
      </trkpt>
      <trkpt lat="44.6512" lon="6.21058">
        <ele>1225</ele>
        <time>2022-09-18T10:51:51Z</time>
      </trkpt>
      <trkpt lat="44.65122" lon="6.21064">
        <ele>1225</ele>
        <time>2022-09-18T10:51:52Z</time>
      </trkpt>
      <trkpt lat="44.65127" lon="6.21076">
        <ele>1225</ele>
        <time>2022-09-18T10:51:54Z</time>
      </trkpt>
      <trkpt lat="44.65128" lon="6.21082">
        <ele>1224.6</ele>
        <time>2022-09-18T10:51:55Z</time>
      </trkpt>
      <trkpt lat="44.65132" lon="6.21087">
        <ele>1224.4</ele>
        <time>2022-09-18T10:51:56Z</time>
      </trkpt>
      <trkpt lat="44.65135" lon="6.21091">
        <ele>1224.4</ele>
        <time>2022-09-18T10:51:57Z</time>
      </trkpt>
      <trkpt lat="44.65138" lon="6.21096">
        <ele>1224.4</ele>
        <time>2022-09-18T10:51:58Z</time>
      </trkpt>
      <trkpt lat="44.65142" lon="6.21099">
        <ele>1224.4</ele>
        <time>2022-09-18T10:51:59Z</time>
      </trkpt>
      <trkpt lat="44.65146" lon="6.21102">
        <ele>1224.4</ele>
        <time>2022-09-18T10:52:00Z</time>
      </trkpt>
      <trkpt lat="44.6515" lon="6.21104">
        <ele>1224.4</ele>
        <time>2022-09-18T10:52:01Z</time>
      </trkpt>
      <trkpt lat="44.65154" lon="6.21106">
        <ele>1224.4</ele>
        <time>2022-09-18T10:52:02Z</time>
      </trkpt>
      <trkpt lat="44.65158" lon="6.21108">
        <ele>1224.4</ele>
        <time>2022-09-18T10:52:03Z</time>
      </trkpt>
      <trkpt lat="44.65162" lon="6.2111">
        <ele>1224.6</ele>
        <time>2022-09-18T10:52:04Z</time>
      </trkpt>
      <trkpt lat="44.65166" lon="6.21112">
        <ele>1224.6</ele>
        <time>2022-09-18T10:52:05Z</time>
      </trkpt>
      <trkpt lat="44.65171" lon="6.21114">
        <ele>1224.4</ele>
        <time>2022-09-18T10:52:06Z</time>
      </trkpt>
      <trkpt lat="44.65175" lon="6.21115">
        <ele>1224.4</ele>
        <time>2022-09-18T10:52:07Z</time>
      </trkpt>
      <trkpt lat="44.65179" lon="6.21116">
        <ele>1224.4</ele>
        <time>2022-09-18T10:52:08Z</time>
      </trkpt>
      <trkpt lat="44.65183" lon="6.21118">
        <ele>1224.2</ele>
        <time>2022-09-18T10:52:09Z</time>
      </trkpt>
      <trkpt lat="44.65187" lon="6.2112">
        <ele>1224.4</ele>
        <time>2022-09-18T10:52:10Z</time>
      </trkpt>
      <trkpt lat="44.65191" lon="6.21122">
        <ele>1224.6</ele>
        <time>2022-09-18T10:52:11Z</time>
      </trkpt>
      <trkpt lat="44.65195" lon="6.21124">
        <ele>1224.6</ele>
        <time>2022-09-18T10:52:12Z</time>
      </trkpt>
      <trkpt lat="44.65199" lon="6.21125">
        <ele>1224.8</ele>
        <time>2022-09-18T10:52:13Z</time>
      </trkpt>
      <trkpt lat="44.65203" lon="6.21127">
        <ele>1224.8</ele>
        <time>2022-09-18T10:52:14Z</time>
      </trkpt>
      <trkpt lat="44.65206" lon="6.21129">
        <ele>1224.8</ele>
        <time>2022-09-18T10:52:15Z</time>
      </trkpt>
      <trkpt lat="44.6521" lon="6.21132">
        <ele>1224.8</ele>
        <time>2022-09-18T10:52:16Z</time>
      </trkpt>
      <trkpt lat="44.65213" lon="6.21135">
        <ele>1225.2</ele>
        <time>2022-09-18T10:52:17Z</time>
      </trkpt>
      <trkpt lat="44.65216" lon="6.21138">
        <ele>1225.4</ele>
        <time>2022-09-18T10:52:18Z</time>
      </trkpt>
      <trkpt lat="44.65219" lon="6.21142">
        <ele>1225.4</ele>
        <time>2022-09-18T10:52:19Z</time>
      </trkpt>
      <trkpt lat="44.65223" lon="6.21146">
        <ele>1225.4</ele>
        <time>2022-09-18T10:52:20Z</time>
      </trkpt>
      <trkpt lat="44.65226" lon="6.2115">
        <ele>1225.6</ele>
        <time>2022-09-18T10:52:21Z</time>
      </trkpt>
      <trkpt lat="44.65229" lon="6.21156">
        <ele>1225.8</ele>
        <time>2022-09-18T10:52:22Z</time>
      </trkpt>
      <trkpt lat="44.65232" lon="6.21162">
        <ele>1226</ele>
        <time>2022-09-18T10:52:23Z</time>
      </trkpt>
      <trkpt lat="44.65235" lon="6.21168">
        <ele>1225.8</ele>
        <time>2022-09-18T10:52:24Z</time>
      </trkpt>
      <trkpt lat="44.65238" lon="6.21174">
        <ele>1225.6</ele>
        <time>2022-09-18T10:52:25Z</time>
      </trkpt>
      <trkpt lat="44.65241" lon="6.21181">
        <ele>1225.4</ele>
        <time>2022-09-18T10:52:26Z</time>
      </trkpt>
      <trkpt lat="44.65243" lon="6.21189">
        <ele>1225.2</ele>
        <time>2022-09-18T10:52:27Z</time>
      </trkpt>
      <trkpt lat="44.65245" lon="6.21197">
        <ele>1225</ele>
        <time>2022-09-18T10:52:28Z</time>
      </trkpt>
      <trkpt lat="44.65247" lon="6.21205">
        <ele>1224.8</ele>
        <time>2022-09-18T10:52:29Z</time>
      </trkpt>
      <trkpt lat="44.65249" lon="6.21214">
        <ele>1224.4</ele>
        <time>2022-09-18T10:52:30Z</time>
      </trkpt>
      <trkpt lat="44.65251" lon="6.21223">
        <ele>1224</ele>
        <time>2022-09-18T10:52:31Z</time>
      </trkpt>
      <trkpt lat="44.65253" lon="6.21232">
        <ele>1223.8</ele>
        <time>2022-09-18T10:52:32Z</time>
      </trkpt>
      <trkpt lat="44.65256" lon="6.21241">
        <ele>1223.4</ele>
        <time>2022-09-18T10:52:33Z</time>
      </trkpt>
      <trkpt lat="44.65259" lon="6.2125">
        <ele>1223.2</ele>
        <time>2022-09-18T10:52:34Z</time>
      </trkpt>
      <trkpt lat="44.65263" lon="6.21259">
        <ele>1222.8</ele>
        <time>2022-09-18T10:52:35Z</time>
      </trkpt>
      <trkpt lat="44.65267" lon="6.21268">
        <ele>1222.4</ele>
        <time>2022-09-18T10:52:36Z</time>
      </trkpt>
      <trkpt lat="44.65272" lon="6.21276">
        <ele>1222.2</ele>
        <time>2022-09-18T10:52:37Z</time>
      </trkpt>
      <trkpt lat="44.65276" lon="6.21285">
        <ele>1221.6</ele>
        <time>2022-09-18T10:52:38Z</time>
      </trkpt>
      <trkpt lat="44.65281" lon="6.21294">
        <ele>1221.2</ele>
        <time>2022-09-18T10:52:39Z</time>
      </trkpt>
      <trkpt lat="44.65286" lon="6.21302">
        <ele>1220.6</ele>
        <time>2022-09-18T10:52:40Z</time>
      </trkpt>
      <trkpt lat="44.65291" lon="6.2131">
        <ele>1220.4</ele>
        <time>2022-09-18T10:52:41Z</time>
      </trkpt>
      <trkpt lat="44.65296" lon="6.21319">
        <ele>1220.2</ele>
        <time>2022-09-18T10:52:42Z</time>
      </trkpt>
      <trkpt lat="44.65302" lon="6.21326">
        <ele>1220.2</ele>
        <time>2022-09-18T10:52:43Z</time>
      </trkpt>
      <trkpt lat="44.65309" lon="6.21333">
        <ele>1219.6</ele>
        <time>2022-09-18T10:52:44Z</time>
      </trkpt>
      <trkpt lat="44.65316" lon="6.2134">
        <ele>1219.4</ele>
        <time>2022-09-18T10:52:45Z</time>
      </trkpt>
      <trkpt lat="44.65323" lon="6.21346">
        <ele>1219.2</ele>
        <time>2022-09-18T10:52:46Z</time>
      </trkpt>
      <trkpt lat="44.6533" lon="6.21351">
        <ele>1218.8</ele>
        <time>2022-09-18T10:52:47Z</time>
      </trkpt>
      <trkpt lat="44.65338" lon="6.21356">
        <ele>1218.6</ele>
        <time>2022-09-18T10:52:48Z</time>
      </trkpt>
      <trkpt lat="44.65346" lon="6.2136">
        <ele>1218.4</ele>
        <time>2022-09-18T10:52:49Z</time>
      </trkpt>
      <trkpt lat="44.65354" lon="6.21365">
        <ele>1218</ele>
        <time>2022-09-18T10:52:50Z</time>
      </trkpt>
      <trkpt lat="44.65363" lon="6.2137">
        <ele>1218</ele>
        <time>2022-09-18T10:52:51Z</time>
      </trkpt>
      <trkpt lat="44.65371" lon="6.21374">
        <ele>1217.4</ele>
        <time>2022-09-18T10:52:52Z</time>
      </trkpt>
      <trkpt lat="44.6538" lon="6.21379">
        <ele>1216.8</ele>
        <time>2022-09-18T10:52:53Z</time>
      </trkpt>
      <trkpt lat="44.65388" lon="6.21384">
        <ele>1216.2</ele>
        <time>2022-09-18T10:52:54Z</time>
      </trkpt>
      <trkpt lat="44.65397" lon="6.21388">
        <ele>1215.6</ele>
        <time>2022-09-18T10:52:55Z</time>
      </trkpt>
      <trkpt lat="44.65405" lon="6.21393">
        <ele>1215</ele>
        <time>2022-09-18T10:52:56Z</time>
      </trkpt>
      <trkpt lat="44.65414" lon="6.21398">
        <ele>1214.6</ele>
        <time>2022-09-18T10:52:57Z</time>
      </trkpt>
      <trkpt lat="44.65423" lon="6.21403">
        <ele>1214</ele>
        <time>2022-09-18T10:52:58Z</time>
      </trkpt>
      <trkpt lat="44.65432" lon="6.21408">
        <ele>1213.6</ele>
        <time>2022-09-18T10:52:59Z</time>
      </trkpt>
      <trkpt lat="44.65441" lon="6.21413">
        <ele>1213.2</ele>
        <time>2022-09-18T10:53:00Z</time>
      </trkpt>
      <trkpt lat="44.6545" lon="6.21418">
        <ele>1212.6</ele>
        <time>2022-09-18T10:53:01Z</time>
      </trkpt>
      <trkpt lat="44.65459" lon="6.21423">
        <ele>1212.8</ele>
        <time>2022-09-18T10:53:02Z</time>
      </trkpt>
      <trkpt lat="44.65468" lon="6.21428">
        <ele>1212.2</ele>
        <time>2022-09-18T10:53:03Z</time>
      </trkpt>
      <trkpt lat="44.65477" lon="6.21433">
        <ele>1212.2</ele>
        <time>2022-09-18T10:53:04Z</time>
      </trkpt>
      <trkpt lat="44.65487" lon="6.21439">
        <ele>1211.6</ele>
        <time>2022-09-18T10:53:05Z</time>
      </trkpt>
      <trkpt lat="44.65496" lon="6.21443">
        <ele>1211.2</ele>
        <time>2022-09-18T10:53:06Z</time>
      </trkpt>
      <trkpt lat="44.65505" lon="6.21449">
        <ele>1210.8</ele>
        <time>2022-09-18T10:53:07Z</time>
      </trkpt>
      <trkpt lat="44.65514" lon="6.21454">
        <ele>1210.2</ele>
        <time>2022-09-18T10:53:08Z</time>
      </trkpt>
      <trkpt lat="44.65524" lon="6.21459">
        <ele>1210.4</ele>
        <time>2022-09-18T10:53:09Z</time>
      </trkpt>
      <trkpt lat="44.65533" lon="6.21465">
        <ele>1209.8</ele>
        <time>2022-09-18T10:53:10Z</time>
      </trkpt>
      <trkpt lat="44.65542" lon="6.21471">
        <ele>1209.8</ele>
        <time>2022-09-18T10:53:11Z</time>
      </trkpt>
      <trkpt lat="44.65551" lon="6.21477">
        <ele>1209.4</ele>
        <time>2022-09-18T10:53:12Z</time>
      </trkpt>
      <trkpt lat="44.6556" lon="6.21485">
        <ele>1209.4</ele>
        <time>2022-09-18T10:53:13Z</time>
      </trkpt>
      <trkpt lat="44.6557" lon="6.21493">
        <ele>1209</ele>
        <time>2022-09-18T10:53:14Z</time>
      </trkpt>
      <trkpt lat="44.65579" lon="6.21501">
        <ele>1208.6</ele>
        <time>2022-09-18T10:53:15Z</time>
      </trkpt>
      <trkpt lat="44.65589" lon="6.21511">
        <ele>1208.6</ele>
        <time>2022-09-18T10:53:16Z</time>
      </trkpt>
      <trkpt lat="44.65599" lon="6.21521">
        <ele>1207.8</ele>
        <time>2022-09-18T10:53:17Z</time>
      </trkpt>
      <trkpt lat="44.65608" lon="6.2153">
        <ele>1207.2</ele>
        <time>2022-09-18T10:53:18Z</time>
      </trkpt>
      <trkpt lat="44.65616" lon="6.21541">
        <ele>1206.4</ele>
        <time>2022-09-18T10:53:19Z</time>
      </trkpt>
      <trkpt lat="44.65622" lon="6.21555">
        <ele>1205.6</ele>
        <time>2022-09-18T10:53:20Z</time>
      </trkpt>
      <trkpt lat="44.65626" lon="6.2157">
        <ele>1204.4</ele>
        <time>2022-09-18T10:53:21Z</time>
      </trkpt>
      <trkpt lat="44.65628" lon="6.21585">
        <ele>1203.4</ele>
        <time>2022-09-18T10:53:22Z</time>
      </trkpt>
      <trkpt lat="44.65631" lon="6.21599">
        <ele>1202.6</ele>
        <time>2022-09-18T10:53:23Z</time>
      </trkpt>
      <trkpt lat="44.65635" lon="6.21613">
        <ele>1201.8</ele>
        <time>2022-09-18T10:53:24Z</time>
      </trkpt>
      <trkpt lat="44.6564" lon="6.21623">
        <ele>1200.6</ele>
        <time>2022-09-18T10:53:25Z</time>
      </trkpt>
      <trkpt lat="44.65649" lon="6.21628">
        <ele>1199.8</ele>
        <time>2022-09-18T10:53:26Z</time>
      </trkpt>
      <trkpt lat="44.6566" lon="6.21629">
        <ele>1198.4</ele>
        <time>2022-09-18T10:53:27Z</time>
      </trkpt>
      <trkpt lat="44.65671" lon="6.2163">
        <ele>1197.6</ele>
        <time>2022-09-18T10:53:28Z</time>
      </trkpt>
      <trkpt lat="44.65682" lon="6.2163">
        <ele>1196.4</ele>
        <time>2022-09-18T10:53:29Z</time>
      </trkpt>
      <trkpt lat="44.65693" lon="6.2163">
        <ele>1195.2</ele>
        <time>2022-09-18T10:53:30Z</time>
      </trkpt>
      <trkpt lat="44.65702" lon="6.21632">
        <ele>1194</ele>
        <time>2022-09-18T10:53:31Z</time>
      </trkpt>
      <trkpt lat="44.6571" lon="6.21638">
        <ele>1193.8</ele>
        <time>2022-09-18T10:53:32Z</time>
      </trkpt>
      <trkpt lat="44.65717" lon="6.21646">
        <ele>1193.6</ele>
        <time>2022-09-18T10:53:33Z</time>
      </trkpt>
      <trkpt lat="44.65724" lon="6.21657">
        <ele>1192.8</ele>
        <time>2022-09-18T10:53:34Z</time>
      </trkpt>
      <trkpt lat="44.65729" lon="6.21668">
        <ele>1192.4</ele>
        <time>2022-09-18T10:53:35Z</time>
      </trkpt>
      <trkpt lat="44.65735" lon="6.2168">
        <ele>1191.8</ele>
        <time>2022-09-18T10:53:36Z</time>
      </trkpt>
      <trkpt lat="44.6574" lon="6.21693">
        <ele>1191.6</ele>
        <time>2022-09-18T10:53:37Z</time>
      </trkpt>
      <trkpt lat="44.65744" lon="6.21706">
        <ele>1190.6</ele>
        <time>2022-09-18T10:53:38Z</time>
      </trkpt>
      <trkpt lat="44.65749" lon="6.2172">
        <ele>1189.8</ele>
        <time>2022-09-18T10:53:39Z</time>
      </trkpt>
      <trkpt lat="44.65755" lon="6.21733">
        <ele>1189</ele>
        <time>2022-09-18T10:53:40Z</time>
      </trkpt>
      <trkpt lat="44.65762" lon="6.21747">
        <ele>1188.6</ele>
        <time>2022-09-18T10:53:41Z</time>
      </trkpt>
      <trkpt lat="44.65768" lon="6.2176">
        <ele>1187.6</ele>
        <time>2022-09-18T10:53:42Z</time>
      </trkpt>
      <trkpt lat="44.65775" lon="6.21773">
        <ele>1186.4</ele>
        <time>2022-09-18T10:53:43Z</time>
      </trkpt>
      <trkpt lat="44.65782" lon="6.21785">
        <ele>1186</ele>
        <time>2022-09-18T10:53:44Z</time>
      </trkpt>
      <trkpt lat="44.65789" lon="6.21798">
        <ele>1185.2</ele>
        <time>2022-09-18T10:53:45Z</time>
      </trkpt>
      <trkpt lat="44.65796" lon="6.2181">
        <ele>1184.4</ele>
        <time>2022-09-18T10:53:46Z</time>
      </trkpt>
      <trkpt lat="44.65802" lon="6.21822">
        <ele>1183.8</ele>
        <time>2022-09-18T10:53:47Z</time>
      </trkpt>
      <trkpt lat="44.65808" lon="6.21834">
        <ele>1182.8</ele>
        <time>2022-09-18T10:53:48Z</time>
      </trkpt>
      <trkpt lat="44.65815" lon="6.21846">
        <ele>1181.6</ele>
        <time>2022-09-18T10:53:49Z</time>
      </trkpt>
      <trkpt lat="44.65821" lon="6.21858">
        <ele>1180.8</ele>
        <time>2022-09-18T10:53:50Z</time>
      </trkpt>
      <trkpt lat="44.65828" lon="6.21869">
        <ele>1180</ele>
        <time>2022-09-18T10:53:51Z</time>
      </trkpt>
      <trkpt lat="44.65836" lon="6.2188">
        <ele>1179.4</ele>
        <time>2022-09-18T10:53:52Z</time>
      </trkpt>
      <trkpt lat="44.65843" lon="6.21892">
        <ele>1178.6</ele>
        <time>2022-09-18T10:53:53Z</time>
      </trkpt>
      <trkpt lat="44.6585" lon="6.21904">
        <ele>1177.6</ele>
        <time>2022-09-18T10:53:54Z</time>
      </trkpt>
      <trkpt lat="44.65857" lon="6.21916">
        <ele>1177.2</ele>
        <time>2022-09-18T10:53:55Z</time>
      </trkpt>
      <trkpt lat="44.65865" lon="6.21929">
        <ele>1176.8</ele>
        <time>2022-09-18T10:53:56Z</time>
      </trkpt>
      <trkpt lat="44.65872" lon="6.21941">
        <ele>1176.6</ele>
        <time>2022-09-18T10:53:57Z</time>
      </trkpt>
      <trkpt lat="44.65879" lon="6.21953">
        <ele>1176.2</ele>
        <time>2022-09-18T10:53:58Z</time>
      </trkpt>
      <trkpt lat="44.65886" lon="6.21966">
        <ele>1175.2</ele>
        <time>2022-09-18T10:53:59Z</time>
      </trkpt>
      <trkpt lat="44.65894" lon="6.21978">
        <ele>1174.6</ele>
        <time>2022-09-18T10:54:00Z</time>
      </trkpt>
      <trkpt lat="44.65901" lon="6.21991">
        <ele>1173.8</ele>
        <time>2022-09-18T10:54:01Z</time>
      </trkpt>
      <trkpt lat="44.65908" lon="6.22005">
        <ele>1173</ele>
        <time>2022-09-18T10:54:02Z</time>
      </trkpt>
      <trkpt lat="44.65915" lon="6.22018">
        <ele>1172.4</ele>
        <time>2022-09-18T10:54:03Z</time>
      </trkpt>
      <trkpt lat="44.65922" lon="6.22032">
        <ele>1171.2</ele>
        <time>2022-09-18T10:54:04Z</time>
      </trkpt>
      <trkpt lat="44.6593" lon="6.22045">
        <ele>1170.6</ele>
        <time>2022-09-18T10:54:05Z</time>
      </trkpt>
      <trkpt lat="44.65937" lon="6.22058">
        <ele>1169.2</ele>
        <time>2022-09-18T10:54:06Z</time>
      </trkpt>
      <trkpt lat="44.65945" lon="6.2207">
        <ele>1168.4</ele>
        <time>2022-09-18T10:54:07Z</time>
      </trkpt>
      <trkpt lat="44.65953" lon="6.22082">
        <ele>1167.6</ele>
        <time>2022-09-18T10:54:08Z</time>
      </trkpt>
      <trkpt lat="44.65962" lon="6.22094">
        <ele>1167</ele>
        <time>2022-09-18T10:54:09Z</time>
      </trkpt>
      <trkpt lat="44.6597" lon="6.22106">
        <ele>1166.8</ele>
        <time>2022-09-18T10:54:10Z</time>
      </trkpt>
      <trkpt lat="44.65978" lon="6.22118">
        <ele>1166.2</ele>
        <time>2022-09-18T10:54:11Z</time>
      </trkpt>
      <trkpt lat="44.65987" lon="6.22129">
        <ele>1165</ele>
        <time>2022-09-18T10:54:12Z</time>
      </trkpt>
      <trkpt lat="44.65995" lon="6.22141">
        <ele>1164.8</ele>
        <time>2022-09-18T10:54:13Z</time>
      </trkpt>
      <trkpt lat="44.66003" lon="6.22153">
        <ele>1164.2</ele>
        <time>2022-09-18T10:54:14Z</time>
      </trkpt>
      <trkpt lat="44.66011" lon="6.22165">
        <ele>1163.2</ele>
        <time>2022-09-18T10:54:15Z</time>
      </trkpt>
      <trkpt lat="44.66019" lon="6.22177">
        <ele>1162.6</ele>
        <time>2022-09-18T10:54:16Z</time>
      </trkpt>
      <trkpt lat="44.66027" lon="6.22188">
        <ele>1162</ele>
        <time>2022-09-18T10:54:17Z</time>
      </trkpt>
      <trkpt lat="44.66034" lon="6.222">
        <ele>1161.6</ele>
        <time>2022-09-18T10:54:18Z</time>
      </trkpt>
      <trkpt lat="44.66042" lon="6.2221">
        <ele>1161.6</ele>
        <time>2022-09-18T10:54:19Z</time>
      </trkpt>
      <trkpt lat="44.6605" lon="6.2222">
        <ele>1161.8</ele>
        <time>2022-09-18T10:54:20Z</time>
      </trkpt>
      <trkpt lat="44.66058" lon="6.22229">
        <ele>1161.6</ele>
        <time>2022-09-18T10:54:21Z</time>
      </trkpt>
      <trkpt lat="44.66067" lon="6.22236">
        <ele>1161.2</ele>
        <time>2022-09-18T10:54:22Z</time>
      </trkpt>
      <trkpt lat="44.66077" lon="6.22242">
        <ele>1160.6</ele>
        <time>2022-09-18T10:54:23Z</time>
      </trkpt>
      <trkpt lat="44.66086" lon="6.22247">
        <ele>1160</ele>
        <time>2022-09-18T10:54:24Z</time>
      </trkpt>
      <trkpt lat="44.66096" lon="6.22253">
        <ele>1160</ele>
        <time>2022-09-18T10:54:25Z</time>
      </trkpt>
      <trkpt lat="44.66105" lon="6.22259">
        <ele>1160</ele>
        <time>2022-09-18T10:54:26Z</time>
      </trkpt>
      <trkpt lat="44.66115" lon="6.22265">
        <ele>1159.8</ele>
        <time>2022-09-18T10:54:27Z</time>
      </trkpt>
      <trkpt lat="44.66125" lon="6.22271">
        <ele>1159.2</ele>
        <time>2022-09-18T10:54:28Z</time>
      </trkpt>
      <trkpt lat="44.66135" lon="6.22277">
        <ele>1158.6</ele>
        <time>2022-09-18T10:54:29Z</time>
      </trkpt>
      <trkpt lat="44.66145" lon="6.22283">
        <ele>1158</ele>
        <time>2022-09-18T10:54:30Z</time>
      </trkpt>
      <trkpt lat="44.66156" lon="6.22289">
        <ele>1157.2</ele>
        <time>2022-09-18T10:54:31Z</time>
      </trkpt>
      <trkpt lat="44.66166" lon="6.22296">
        <ele>1156.4</ele>
        <time>2022-09-18T10:54:32Z</time>
      </trkpt>
      <trkpt lat="44.66176" lon="6.22305">
        <ele>1155.8</ele>
        <time>2022-09-18T10:54:33Z</time>
      </trkpt>
      <trkpt lat="44.66186" lon="6.22317">
        <ele>1155.2</ele>
        <time>2022-09-18T10:54:34Z</time>
      </trkpt>
      <trkpt lat="44.66194" lon="6.22329">
        <ele>1154.4</ele>
        <time>2022-09-18T10:54:35Z</time>
      </trkpt>
      <trkpt lat="44.66202" lon="6.22343">
        <ele>1153.8</ele>
        <time>2022-09-18T10:54:36Z</time>
      </trkpt>
      <trkpt lat="44.66209" lon="6.22357">
        <ele>1152.6</ele>
        <time>2022-09-18T10:54:37Z</time>
      </trkpt>
      <trkpt lat="44.66215" lon="6.22372">
        <ele>1152</ele>
        <time>2022-09-18T10:54:38Z</time>
      </trkpt>
      <trkpt lat="44.66221" lon="6.22387">
        <ele>1151.2</ele>
        <time>2022-09-18T10:54:39Z</time>
      </trkpt>
      <trkpt lat="44.66227" lon="6.22402">
        <ele>1150.6</ele>
        <time>2022-09-18T10:54:40Z</time>
      </trkpt>
      <trkpt lat="44.66232" lon="6.22417">
        <ele>1150</ele>
        <time>2022-09-18T10:54:41Z</time>
      </trkpt>
      <trkpt lat="44.66238" lon="6.22433">
        <ele>1149.2</ele>
        <time>2022-09-18T10:54:42Z</time>
      </trkpt>
      <trkpt lat="44.66244" lon="6.22448">
        <ele>1148.6</ele>
        <time>2022-09-18T10:54:43Z</time>
      </trkpt>
      <trkpt lat="44.6625" lon="6.22463">
        <ele>1147.8</ele>
        <time>2022-09-18T10:54:44Z</time>
      </trkpt>
      <trkpt lat="44.66257" lon="6.22477">
        <ele>1147</ele>
        <time>2022-09-18T10:54:45Z</time>
      </trkpt>
      <trkpt lat="44.66265" lon="6.2249">
        <ele>1146.2</ele>
        <time>2022-09-18T10:54:46Z</time>
      </trkpt>
      <trkpt lat="44.66274" lon="6.225">
        <ele>1145.6</ele>
        <time>2022-09-18T10:54:47Z</time>
      </trkpt>
      <trkpt lat="44.66283" lon="6.22508">
        <ele>1144.8</ele>
        <time>2022-09-18T10:54:48Z</time>
      </trkpt>
      <trkpt lat="44.66292" lon="6.22514">
        <ele>1144.2</ele>
        <time>2022-09-18T10:54:49Z</time>
      </trkpt>
      <trkpt lat="44.66301" lon="6.22518">
        <ele>1143.8</ele>
        <time>2022-09-18T10:54:50Z</time>
      </trkpt>
      <trkpt lat="44.6631" lon="6.22523">
        <ele>1143.4</ele>
        <time>2022-09-18T10:54:51Z</time>
      </trkpt>
      <trkpt lat="44.6632" lon="6.22526">
        <ele>1144.4</ele>
        <time>2022-09-18T10:54:52Z</time>
      </trkpt>
      <trkpt lat="44.66329" lon="6.22529">
        <ele>1144.8</ele>
        <time>2022-09-18T10:54:53Z</time>
      </trkpt>
      <trkpt lat="44.66338" lon="6.22532">
        <ele>1145.2</ele>
        <time>2022-09-18T10:54:54Z</time>
      </trkpt>
      <trkpt lat="44.66347" lon="6.22534">
        <ele>1145.2</ele>
        <time>2022-09-18T10:54:55Z</time>
      </trkpt>
      <trkpt lat="44.66355" lon="6.22536">
        <ele>1145.4</ele>
        <time>2022-09-18T10:54:56Z</time>
      </trkpt>
      <trkpt lat="44.66363" lon="6.22538">
        <ele>1143.8</ele>
        <time>2022-09-18T10:54:57Z</time>
      </trkpt>
      <trkpt lat="44.66371" lon="6.2254">
        <ele>1142.6</ele>
        <time>2022-09-18T10:54:58Z</time>
      </trkpt>
      <trkpt lat="44.66379" lon="6.22541">
        <ele>1141.8</ele>
        <time>2022-09-18T10:54:59Z</time>
      </trkpt>
      <trkpt lat="44.66386" lon="6.22543">
        <ele>1141.4</ele>
        <time>2022-09-18T10:55:00Z</time>
      </trkpt>
      <trkpt lat="44.66393" lon="6.22544">
        <ele>1141</ele>
        <time>2022-09-18T10:55:01Z</time>
      </trkpt>
      <trkpt lat="44.664" lon="6.22545">
        <ele>1140.6</ele>
        <time>2022-09-18T10:55:02Z</time>
      </trkpt>
      <trkpt lat="44.66407" lon="6.22547">
        <ele>1140.6</ele>
        <time>2022-09-18T10:55:03Z</time>
      </trkpt>
      <trkpt lat="44.66413" lon="6.22549">
        <ele>1140.8</ele>
        <time>2022-09-18T10:55:04Z</time>
      </trkpt>
      <trkpt lat="44.6642" lon="6.2255">
        <ele>1141.2</ele>
        <time>2022-09-18T10:55:05Z</time>
      </trkpt>
      <trkpt lat="44.66426" lon="6.22552">
        <ele>1141</ele>
        <time>2022-09-18T10:55:06Z</time>
      </trkpt>
      <trkpt lat="44.66432" lon="6.22553">
        <ele>1141</ele>
        <time>2022-09-18T10:55:07Z</time>
      </trkpt>
      <trkpt lat="44.66438" lon="6.22554">
        <ele>1141.2</ele>
        <time>2022-09-18T10:55:08Z</time>
      </trkpt>
      <trkpt lat="44.66444" lon="6.22555">
        <ele>1141.2</ele>
        <time>2022-09-18T10:55:09Z</time>
      </trkpt>
      <trkpt lat="44.6645" lon="6.22555">
        <ele>1141</ele>
        <time>2022-09-18T10:55:10Z</time>
      </trkpt>
      <trkpt lat="44.66455" lon="6.22555">
        <ele>1141.2</ele>
        <time>2022-09-18T10:55:11Z</time>
      </trkpt>
      <trkpt lat="44.66461" lon="6.22555">
        <ele>1141</ele>
        <time>2022-09-18T10:55:12Z</time>
      </trkpt>
      <trkpt lat="44.66466" lon="6.22556">
        <ele>1141</ele>
        <time>2022-09-18T10:55:13Z</time>
      </trkpt>
      <trkpt lat="44.66472" lon="6.22557">
        <ele>1141.2</ele>
        <time>2022-09-18T10:55:14Z</time>
      </trkpt>
      <trkpt lat="44.66478" lon="6.22557">
        <ele>1141.2</ele>
        <time>2022-09-18T10:55:15Z</time>
      </trkpt>
      <trkpt lat="44.66484" lon="6.22557">
        <ele>1141.2</ele>
        <time>2022-09-18T10:55:16Z</time>
      </trkpt>
      <trkpt lat="44.66489" lon="6.22557">
        <ele>1141.2</ele>
        <time>2022-09-18T10:55:17Z</time>
      </trkpt>
      <trkpt lat="44.66495" lon="6.22557">
        <ele>1141.4</ele>
        <time>2022-09-18T10:55:18Z</time>
      </trkpt>
      <trkpt lat="44.66501" lon="6.22557">
        <ele>1141.4</ele>
        <time>2022-09-18T10:55:19Z</time>
      </trkpt>
      <trkpt lat="44.66507" lon="6.22557">
        <ele>1141.4</ele>
        <time>2022-09-18T10:55:20Z</time>
      </trkpt>
      <trkpt lat="44.66512" lon="6.22558">
        <ele>1141.6</ele>
        <time>2022-09-18T10:55:21Z</time>
      </trkpt>
      <trkpt lat="44.66518" lon="6.2256">
        <ele>1141.4</ele>
        <time>2022-09-18T10:55:22Z</time>
      </trkpt>
      <trkpt lat="44.66524" lon="6.22563">
        <ele>1141.6</ele>
        <time>2022-09-18T10:55:23Z</time>
      </trkpt>
      <trkpt lat="44.66529" lon="6.22566">
        <ele>1141.8</ele>
        <time>2022-09-18T10:55:24Z</time>
      </trkpt>
      <trkpt lat="44.66535" lon="6.22571">
        <ele>1141.8</ele>
        <time>2022-09-18T10:55:25Z</time>
      </trkpt>
      <trkpt lat="44.6654" lon="6.22577">
        <ele>1141.8</ele>
        <time>2022-09-18T10:55:26Z</time>
      </trkpt>
      <trkpt lat="44.66545" lon="6.22582">
        <ele>1141.8</ele>
        <time>2022-09-18T10:55:27Z</time>
      </trkpt>
      <trkpt lat="44.66549" lon="6.22588">
        <ele>1142</ele>
        <time>2022-09-18T10:55:28Z</time>
      </trkpt>
      <trkpt lat="44.66553" lon="6.22595">
        <ele>1141.8</ele>
        <time>2022-09-18T10:55:29Z</time>
      </trkpt>
      <trkpt lat="44.66557" lon="6.22601">
        <ele>1141.4</ele>
        <time>2022-09-18T10:55:30Z</time>
      </trkpt>
      <trkpt lat="44.66561" lon="6.22608">
        <ele>1141.2</ele>
        <time>2022-09-18T10:55:31Z</time>
      </trkpt>
      <trkpt lat="44.66565" lon="6.22614">
        <ele>1141</ele>
        <time>2022-09-18T10:55:32Z</time>
      </trkpt>
      <trkpt lat="44.66569" lon="6.2262">
        <ele>1141.2</ele>
        <time>2022-09-18T10:55:33Z</time>
      </trkpt>
      <trkpt lat="44.66573" lon="6.22626">
        <ele>1141</ele>
        <time>2022-09-18T10:55:34Z</time>
      </trkpt>
      <trkpt lat="44.66577" lon="6.22632">
        <ele>1140.8</ele>
        <time>2022-09-18T10:55:35Z</time>
      </trkpt>
      <trkpt lat="44.6658" lon="6.22638">
        <ele>1141</ele>
        <time>2022-09-18T10:55:36Z</time>
      </trkpt>
      <trkpt lat="44.66584" lon="6.22644">
        <ele>1140.8</ele>
        <time>2022-09-18T10:55:37Z</time>
      </trkpt>
      <trkpt lat="44.66588" lon="6.2265">
        <ele>1140.4</ele>
        <time>2022-09-18T10:55:38Z</time>
      </trkpt>
      <trkpt lat="44.66592" lon="6.22656">
        <ele>1140.4</ele>
        <time>2022-09-18T10:55:39Z</time>
      </trkpt>
      <trkpt lat="44.66597" lon="6.22661">
        <ele>1140.4</ele>
        <time>2022-09-18T10:55:40Z</time>
      </trkpt>
      <trkpt lat="44.66602" lon="6.22665">
        <ele>1140.4</ele>
        <time>2022-09-18T10:55:41Z</time>
      </trkpt>
      <trkpt lat="44.66607" lon="6.22668">
        <ele>1140.8</ele>
        <time>2022-09-18T10:55:42Z</time>
      </trkpt>
      <trkpt lat="44.66611" lon="6.22671">
        <ele>1141</ele>
        <time>2022-09-18T10:55:43Z</time>
      </trkpt>
      <trkpt lat="44.66616" lon="6.22672">
        <ele>1141.4</ele>
        <time>2022-09-18T10:55:44Z</time>
      </trkpt>
      <trkpt lat="44.6662" lon="6.22673">
        <ele>1141.4</ele>
        <time>2022-09-18T10:55:45Z</time>
      </trkpt>
      <trkpt lat="44.66623" lon="6.22673">
        <ele>1141.8</ele>
        <time>2022-09-18T10:55:46Z</time>
      </trkpt>
      <trkpt lat="44.66626" lon="6.22674">
        <ele>1141.6</ele>
        <time>2022-09-18T10:55:47Z</time>
      </trkpt>
      <trkpt lat="44.66629" lon="6.22676">
        <ele>1141.6</ele>
        <time>2022-09-18T10:55:48Z</time>
      </trkpt>
      <trkpt lat="44.6663" lon="6.22678">
        <ele>1141.6</ele>
        <time>2022-09-18T10:55:49Z</time>
      </trkpt>
      <trkpt lat="44.66632" lon="6.22681">
        <ele>1141.6</ele>
        <time>2022-09-18T10:55:50Z</time>
      </trkpt>
      <trkpt lat="44.66633" lon="6.22684">
        <ele>1141.4</ele>
        <time>2022-09-18T10:55:51Z</time>
      </trkpt>
      <trkpt lat="44.66634" lon="6.22688">
        <ele>1141.6</ele>
        <time>2022-09-18T10:55:52Z</time>
      </trkpt>
      <trkpt lat="44.66635" lon="6.22692">
        <ele>1141.6</ele>
        <time>2022-09-18T10:55:53Z</time>
      </trkpt>
      <trkpt lat="44.66636" lon="6.22696">
        <ele>1141.4</ele>
        <time>2022-09-18T10:55:54Z</time>
      </trkpt>
      <trkpt lat="44.66637" lon="6.227">
        <ele>1141.4</ele>
        <time>2022-09-18T10:55:55Z</time>
      </trkpt>
      <trkpt lat="44.66638" lon="6.22704">
        <ele>1141</ele>
        <time>2022-09-18T10:55:56Z</time>
      </trkpt>
      <trkpt lat="44.66638" lon="6.22708">
        <ele>1141.2</ele>
        <time>2022-09-18T10:55:57Z</time>
      </trkpt>
      <trkpt lat="44.6664" lon="6.22713">
        <ele>1141.4</ele>
        <time>2022-09-18T10:55:58Z</time>
      </trkpt>
      <trkpt lat="44.66641" lon="6.22717">
        <ele>1141.2</ele>
        <time>2022-09-18T10:55:59Z</time>
      </trkpt>
      <trkpt lat="44.66642" lon="6.22722">
        <ele>1141.4</ele>
        <time>2022-09-18T10:56:00Z</time>
      </trkpt>
      <trkpt lat="44.66642" lon="6.22726">
        <ele>1141.4</ele>
        <time>2022-09-18T10:56:01Z</time>
      </trkpt>
      <trkpt lat="44.66643" lon="6.22731">
        <ele>1141.4</ele>
        <time>2022-09-18T10:56:02Z</time>
      </trkpt>
      <trkpt lat="44.66643" lon="6.22736">
        <ele>1141</ele>
        <time>2022-09-18T10:56:03Z</time>
      </trkpt>
      <trkpt lat="44.66644" lon="6.22741">
        <ele>1141</ele>
        <time>2022-09-18T10:56:04Z</time>
      </trkpt>
      <trkpt lat="44.66645" lon="6.22745">
        <ele>1141</ele>
        <time>2022-09-18T10:56:05Z</time>
      </trkpt>
      <trkpt lat="44.66646" lon="6.2275">
        <ele>1141</ele>
        <time>2022-09-18T10:56:06Z</time>
      </trkpt>
      <trkpt lat="44.66648" lon="6.22754">
        <ele>1140.8</ele>
        <time>2022-09-18T10:56:07Z</time>
      </trkpt>
      <trkpt lat="44.66648" lon="6.22759">
        <ele>1140.8</ele>
        <time>2022-09-18T10:56:08Z</time>
      </trkpt>
      <trkpt lat="44.66649" lon="6.22764">
        <ele>1140.6</ele>
        <time>2022-09-18T10:56:09Z</time>
      </trkpt>
      <trkpt lat="44.6665" lon="6.22768">
        <ele>1140.6</ele>
        <time>2022-09-18T10:56:10Z</time>
      </trkpt>
      <trkpt lat="44.66651" lon="6.22772">
        <ele>1140.8</ele>
        <time>2022-09-18T10:56:11Z</time>
      </trkpt>
      <trkpt lat="44.66652" lon="6.22776">
        <ele>1140.6</ele>
        <time>2022-09-18T10:56:12Z</time>
      </trkpt>
      <trkpt lat="44.66653" lon="6.2278">
        <ele>1140.6</ele>
        <time>2022-09-18T10:56:13Z</time>
      </trkpt>
      <trkpt lat="44.66654" lon="6.22784">
        <ele>1140.6</ele>
        <time>2022-09-18T10:56:14Z</time>
      </trkpt>
      <trkpt lat="44.66656" lon="6.22787">
        <ele>1140.8</ele>
        <time>2022-09-18T10:56:15Z</time>
      </trkpt>
      <trkpt lat="44.66657" lon="6.22791">
        <ele>1140.8</ele>
        <time>2022-09-18T10:56:16Z</time>
      </trkpt>
      <trkpt lat="44.66658" lon="6.22794">
        <ele>1140.6</ele>
        <time>2022-09-18T10:56:17Z</time>
      </trkpt>
      <trkpt lat="44.66659" lon="6.22797">
        <ele>1140.8</ele>
        <time>2022-09-18T10:56:18Z</time>
      </trkpt>
      <trkpt lat="44.66661" lon="6.22801">
        <ele>1140.6</ele>
        <time>2022-09-18T10:56:19Z</time>
      </trkpt>
      <trkpt lat="44.66662" lon="6.22805">
        <ele>1140.4</ele>
        <time>2022-09-18T10:56:20Z</time>
      </trkpt>
      <trkpt lat="44.66664" lon="6.22808">
        <ele>1140.6</ele>
        <time>2022-09-18T10:56:21Z</time>
      </trkpt>
      <trkpt lat="44.66666" lon="6.22811">
        <ele>1140.4</ele>
        <time>2022-09-18T10:56:22Z</time>
      </trkpt>
      <trkpt lat="44.66668" lon="6.22815">
        <ele>1140.4</ele>
        <time>2022-09-18T10:56:23Z</time>
      </trkpt>
      <trkpt lat="44.6667" lon="6.22819">
        <ele>1140.2</ele>
        <time>2022-09-18T10:56:24Z</time>
      </trkpt>
      <trkpt lat="44.66671" lon="6.22823">
        <ele>1140</ele>
        <time>2022-09-18T10:56:25Z</time>
      </trkpt>
      <trkpt lat="44.66673" lon="6.22827">
        <ele>1139.8</ele>
        <time>2022-09-18T10:56:26Z</time>
      </trkpt>
      <trkpt lat="44.66675" lon="6.22832">
        <ele>1139.6</ele>
        <time>2022-09-18T10:56:27Z</time>
      </trkpt>
      <trkpt lat="44.66677" lon="6.22836">
        <ele>1139.6</ele>
        <time>2022-09-18T10:56:28Z</time>
      </trkpt>
      <trkpt lat="44.66678" lon="6.2284">
        <ele>1139.6</ele>
        <time>2022-09-18T10:56:29Z</time>
      </trkpt>
      <trkpt lat="44.6668" lon="6.22843">
        <ele>1139.6</ele>
        <time>2022-09-18T10:56:30Z</time>
      </trkpt>
      <trkpt lat="44.66682" lon="6.22847">
        <ele>1139.6</ele>
        <time>2022-09-18T10:56:31Z</time>
      </trkpt>
      <trkpt lat="44.66684" lon="6.22851">
        <ele>1139.4</ele>
        <time>2022-09-18T10:56:32Z</time>
      </trkpt>
      <trkpt lat="44.66686" lon="6.22855">
        <ele>1139.2</ele>
        <time>2022-09-18T10:56:33Z</time>
      </trkpt>
      <trkpt lat="44.66688" lon="6.2286">
        <ele>1139</ele>
        <time>2022-09-18T10:56:34Z</time>
      </trkpt>
      <trkpt lat="44.6669" lon="6.22863">
        <ele>1138.8</ele>
        <time>2022-09-18T10:56:35Z</time>
      </trkpt>
      <trkpt lat="44.66692" lon="6.22867">
        <ele>1138.6</ele>
        <time>2022-09-18T10:56:36Z</time>
      </trkpt>
      <trkpt lat="44.66693" lon="6.22871">
        <ele>1138.4</ele>
        <time>2022-09-18T10:56:37Z</time>
      </trkpt>
      <trkpt lat="44.66695" lon="6.22874">
        <ele>1138.2</ele>
        <time>2022-09-18T10:56:38Z</time>
      </trkpt>
      <trkpt lat="44.66694" lon="6.22878">
        <ele>1138</ele>
        <time>2022-09-18T10:56:39Z</time>
      </trkpt>
      <trkpt lat="44.66692" lon="6.22881">
        <ele>1137.6</ele>
        <time>2022-09-18T10:56:40Z</time>
      </trkpt>
      <trkpt lat="44.66691" lon="6.22884">
        <ele>1137.2</ele>
        <time>2022-09-18T10:56:42Z</time>
      </trkpt>
      <trkpt lat="44.66692" lon="6.22882">
        <ele>1135.4</ele>
        <time>2022-09-18T10:56:59Z</time>
      </trkpt>
      <trkpt lat="44.6669" lon="6.22882">
        <ele>1132.2</ele>
        <time>2022-09-18T10:57:33Z</time>
      </trkpt>
      <trkpt lat="44.66689" lon="6.2288">
        <ele>1132.2</ele>
        <time>2022-09-18T10:57:40Z</time>
      </trkpt>
      <trkpt lat="44.66689" lon="6.22877">
        <ele>1131.6</ele>
        <time>2022-09-18T10:57:47Z</time>
      </trkpt>
      <trkpt lat="44.66689" lon="6.22874">
        <ele>1131.4</ele>
        <time>2022-09-18T10:57:49Z</time>
      </trkpt>
      <trkpt lat="44.66689" lon="6.2287">
        <ele>1128.6</ele>
        <time>2022-09-18T10:58:12Z</time>
      </trkpt>
      <trkpt lat="44.6669" lon="6.22864">
        <ele>1128.4</ele>
        <time>2022-09-18T10:58:14Z</time>
      </trkpt>
      <trkpt lat="44.66692" lon="6.22861">
        <ele>1128.4</ele>
        <time>2022-09-18T10:58:15Z</time>
      </trkpt>
      <trkpt lat="44.66694" lon="6.22857">
        <ele>1128.6</ele>
        <time>2022-09-18T10:58:16Z</time>
      </trkpt>
      <trkpt lat="44.66696" lon="6.22854">
        <ele>1128.2</ele>
        <time>2022-09-18T10:58:17Z</time>
      </trkpt>
      <trkpt lat="44.66698" lon="6.2285">
        <ele>1128</ele>
        <time>2022-09-18T10:58:18Z</time>
      </trkpt>
      <trkpt lat="44.66701" lon="6.22846">
        <ele>1127.8</ele>
        <time>2022-09-18T10:58:19Z</time>
      </trkpt>
      <trkpt lat="44.66704" lon="6.22843">
        <ele>1127.6</ele>
        <time>2022-09-18T10:58:20Z</time>
      </trkpt>
      <trkpt lat="44.66708" lon="6.22841">
        <ele>1127.2</ele>
        <time>2022-09-18T10:58:21Z</time>
      </trkpt>
      <trkpt lat="44.66712" lon="6.22838">
        <ele>1127</ele>
        <time>2022-09-18T10:58:22Z</time>
      </trkpt>
      <trkpt lat="44.66715" lon="6.22835">
        <ele>1127</ele>
        <time>2022-09-18T10:58:23Z</time>
      </trkpt>
      <trkpt lat="44.66718" lon="6.22832">
        <ele>1126.6</ele>
        <time>2022-09-18T10:58:24Z</time>
      </trkpt>
      <trkpt lat="44.66722" lon="6.22829">
        <ele>1126.8</ele>
        <time>2022-09-18T10:58:25Z</time>
      </trkpt>
      <trkpt lat="44.66725" lon="6.22826">
        <ele>1126.6</ele>
        <time>2022-09-18T10:58:26Z</time>
      </trkpt>
      <trkpt lat="44.66728" lon="6.22822">
        <ele>1126.4</ele>
        <time>2022-09-18T10:58:27Z</time>
      </trkpt>
      <trkpt lat="44.6673" lon="6.22818">
        <ele>1126</ele>
        <time>2022-09-18T10:58:28Z</time>
      </trkpt>
      <trkpt lat="44.66733" lon="6.22813">
        <ele>1125.8</ele>
        <time>2022-09-18T10:58:29Z</time>
      </trkpt>
      <trkpt lat="44.66736" lon="6.22809">
        <ele>1125.4</ele>
        <time>2022-09-18T10:58:30Z</time>
      </trkpt>
      <trkpt lat="44.66738" lon="6.22804">
        <ele>1125.2</ele>
        <time>2022-09-18T10:58:31Z</time>
      </trkpt>
      <trkpt lat="44.66741" lon="6.228">
        <ele>1125.4</ele>
        <time>2022-09-18T10:58:32Z</time>
      </trkpt>
      <trkpt lat="44.66744" lon="6.22796">
        <ele>1125</ele>
        <time>2022-09-18T10:58:33Z</time>
      </trkpt>
      <trkpt lat="44.66746" lon="6.22791">
        <ele>1125</ele>
        <time>2022-09-18T10:58:34Z</time>
      </trkpt>
      <trkpt lat="44.66748" lon="6.22786">
        <ele>1124.6</ele>
        <time>2022-09-18T10:58:35Z</time>
      </trkpt>
      <trkpt lat="44.6675" lon="6.22782">
        <ele>1124.2</ele>
        <time>2022-09-18T10:58:36Z</time>
      </trkpt>
      <trkpt lat="44.66753" lon="6.22777">
        <ele>1124.2</ele>
        <time>2022-09-18T10:58:37Z</time>
      </trkpt>
      <trkpt lat="44.66756" lon="6.22772">
        <ele>1123.6</ele>
        <time>2022-09-18T10:58:38Z</time>
      </trkpt>
      <trkpt lat="44.66758" lon="6.22767">
        <ele>1123.4</ele>
        <time>2022-09-18T10:58:39Z</time>
      </trkpt>
      <trkpt lat="44.66761" lon="6.22763">
        <ele>1123.2</ele>
        <time>2022-09-18T10:58:40Z</time>
      </trkpt>
      <trkpt lat="44.66764" lon="6.22758">
        <ele>1123.2</ele>
        <time>2022-09-18T10:58:41Z</time>
      </trkpt>
      <trkpt lat="44.66767" lon="6.22753">
        <ele>1123.2</ele>
        <time>2022-09-18T10:58:42Z</time>
      </trkpt>
      <trkpt lat="44.66771" lon="6.22748">
        <ele>1123.4</ele>
        <time>2022-09-18T10:58:43Z</time>
      </trkpt>
      <trkpt lat="44.66774" lon="6.22742">
        <ele>1123.6</ele>
        <time>2022-09-18T10:58:44Z</time>
      </trkpt>
      <trkpt lat="44.66777" lon="6.22737">
        <ele>1123.6</ele>
        <time>2022-09-18T10:58:45Z</time>
      </trkpt>
      <trkpt lat="44.6678" lon="6.22732">
        <ele>1123.2</ele>
        <time>2022-09-18T10:58:46Z</time>
      </trkpt>
      <trkpt lat="44.66783" lon="6.22726">
        <ele>1123.2</ele>
        <time>2022-09-18T10:58:47Z</time>
      </trkpt>
      <trkpt lat="44.66787" lon="6.2272">
        <ele>1123.4</ele>
        <time>2022-09-18T10:58:48Z</time>
      </trkpt>
      <trkpt lat="44.6679" lon="6.22715">
        <ele>1123.2</ele>
        <time>2022-09-18T10:58:49Z</time>
      </trkpt>
      <trkpt lat="44.66793" lon="6.22709">
        <ele>1123.2</ele>
        <time>2022-09-18T10:58:50Z</time>
      </trkpt>
      <trkpt lat="44.66796" lon="6.22703">
        <ele>1122.6</ele>
        <time>2022-09-18T10:58:51Z</time>
      </trkpt>
      <trkpt lat="44.668" lon="6.22697">
        <ele>1122.2</ele>
        <time>2022-09-18T10:58:52Z</time>
      </trkpt>
      <trkpt lat="44.66803" lon="6.22692">
        <ele>1122</ele>
        <time>2022-09-18T10:58:53Z</time>
      </trkpt>
      <trkpt lat="44.66806" lon="6.22686">
        <ele>1122</ele>
        <time>2022-09-18T10:58:54Z</time>
      </trkpt>
      <trkpt lat="44.6681" lon="6.2268">
        <ele>1122.2</ele>
        <time>2022-09-18T10:58:55Z</time>
      </trkpt>
      <trkpt lat="44.66814" lon="6.22675">
        <ele>1122.2</ele>
        <time>2022-09-18T10:58:56Z</time>
      </trkpt>
      <trkpt lat="44.66817" lon="6.22669">
        <ele>1122.4</ele>
        <time>2022-09-18T10:58:57Z</time>
      </trkpt>
      <trkpt lat="44.66821" lon="6.22663">
        <ele>1122.8</ele>
        <time>2022-09-18T10:58:58Z</time>
      </trkpt>
      <trkpt lat="44.66824" lon="6.22658">
        <ele>1123</ele>
        <time>2022-09-18T10:58:59Z</time>
      </trkpt>
      <trkpt lat="44.66827" lon="6.22652">
        <ele>1123</ele>
        <time>2022-09-18T10:59:00Z</time>
      </trkpt>
      <trkpt lat="44.66831" lon="6.22646">
        <ele>1123.2</ele>
        <time>2022-09-18T10:59:01Z</time>
      </trkpt>
      <trkpt lat="44.66834" lon="6.22641">
        <ele>1123.4</ele>
        <time>2022-09-18T10:59:02Z</time>
      </trkpt>
      <trkpt lat="44.66838" lon="6.22635">
        <ele>1123.4</ele>
        <time>2022-09-18T10:59:03Z</time>
      </trkpt>
      <trkpt lat="44.66841" lon="6.22629">
        <ele>1123.4</ele>
        <time>2022-09-18T10:59:04Z</time>
      </trkpt>
      <trkpt lat="44.66845" lon="6.22624">
        <ele>1123.4</ele>
        <time>2022-09-18T10:59:05Z</time>
      </trkpt>
      <trkpt lat="44.66849" lon="6.22618">
        <ele>1123.4</ele>
        <time>2022-09-18T10:59:06Z</time>
      </trkpt>
      <trkpt lat="44.66852" lon="6.22612">
        <ele>1123.6</ele>
        <time>2022-09-18T10:59:07Z</time>
      </trkpt>
      <trkpt lat="44.66856" lon="6.22607">
        <ele>1123.6</ele>
        <time>2022-09-18T10:59:08Z</time>
      </trkpt>
      <trkpt lat="44.66859" lon="6.22602">
        <ele>1123.4</ele>
        <time>2022-09-18T10:59:09Z</time>
      </trkpt>
      <trkpt lat="44.66862" lon="6.22597">
        <ele>1123.4</ele>
        <time>2022-09-18T10:59:10Z</time>
      </trkpt>
      <trkpt lat="44.66865" lon="6.22592">
        <ele>1123.4</ele>
        <time>2022-09-18T10:59:11Z</time>
      </trkpt>
      <trkpt lat="44.66868" lon="6.22588">
        <ele>1123.8</ele>
        <time>2022-09-18T10:59:12Z</time>
      </trkpt>
      <trkpt lat="44.6687" lon="6.22584">
        <ele>1124.2</ele>
        <time>2022-09-18T10:59:13Z</time>
      </trkpt>
      <trkpt lat="44.66872" lon="6.22581">
        <ele>1124.4</ele>
        <time>2022-09-18T10:59:14Z</time>
      </trkpt>
      <trkpt lat="44.66874" lon="6.22578">
        <ele>1124.8</ele>
        <time>2022-09-18T10:59:15Z</time>
      </trkpt>
      <trkpt lat="44.66876" lon="6.22575">
        <ele>1125</ele>
        <time>2022-09-18T10:59:16Z</time>
      </trkpt>
      <trkpt lat="44.66879" lon="6.22572">
        <ele>1125.2</ele>
        <time>2022-09-18T10:59:17Z</time>
      </trkpt>
      <trkpt lat="44.66881" lon="6.22569">
        <ele>1125.4</ele>
        <time>2022-09-18T10:59:18Z</time>
      </trkpt>
      <trkpt lat="44.66883" lon="6.22565">
        <ele>1125.4</ele>
        <time>2022-09-18T10:59:19Z</time>
      </trkpt>
      <trkpt lat="44.66885" lon="6.22562">
        <ele>1125.6</ele>
        <time>2022-09-18T10:59:20Z</time>
      </trkpt>
      <trkpt lat="44.66887" lon="6.22558">
        <ele>1125.8</ele>
        <time>2022-09-18T10:59:21Z</time>
      </trkpt>
      <trkpt lat="44.6689" lon="6.22554">
        <ele>1126</ele>
        <time>2022-09-18T10:59:22Z</time>
      </trkpt>
      <trkpt lat="44.66892" lon="6.2255">
        <ele>1126</ele>
        <time>2022-09-18T10:59:23Z</time>
      </trkpt>
      <trkpt lat="44.66895" lon="6.22546">
        <ele>1126.2</ele>
        <time>2022-09-18T10:59:24Z</time>
      </trkpt>
      <trkpt lat="44.66897" lon="6.22543">
        <ele>1126.2</ele>
        <time>2022-09-18T10:59:25Z</time>
      </trkpt>
      <trkpt lat="44.669" lon="6.22539">
        <ele>1126.4</ele>
        <time>2022-09-18T10:59:26Z</time>
      </trkpt>
      <trkpt lat="44.66902" lon="6.22535">
        <ele>1126.6</ele>
        <time>2022-09-18T10:59:27Z</time>
      </trkpt>
      <trkpt lat="44.66905" lon="6.22532">
        <ele>1126.6</ele>
        <time>2022-09-18T10:59:28Z</time>
      </trkpt>
      <trkpt lat="44.66907" lon="6.22528">
        <ele>1126.6</ele>
        <time>2022-09-18T10:59:29Z</time>
      </trkpt>
      <trkpt lat="44.6691" lon="6.22525">
        <ele>1126.8</ele>
        <time>2022-09-18T10:59:30Z</time>
      </trkpt>
      <trkpt lat="44.66912" lon="6.22521">
        <ele>1127</ele>
        <time>2022-09-18T10:59:31Z</time>
      </trkpt>
      <trkpt lat="44.66915" lon="6.22518">
        <ele>1127.2</ele>
        <time>2022-09-18T10:59:32Z</time>
      </trkpt>
      <trkpt lat="44.66917" lon="6.22516">
        <ele>1127.4</ele>
        <time>2022-09-18T10:59:33Z</time>
      </trkpt>
      <trkpt lat="44.66919" lon="6.22513">
        <ele>1127.8</ele>
        <time>2022-09-18T10:59:34Z</time>
      </trkpt>
      <trkpt lat="44.66922" lon="6.22511">
        <ele>1128</ele>
        <time>2022-09-18T10:59:35Z</time>
      </trkpt>
      <trkpt lat="44.66924" lon="6.22508">
        <ele>1128.2</ele>
        <time>2022-09-18T10:59:36Z</time>
      </trkpt>
      <trkpt lat="44.66925" lon="6.22506">
        <ele>1128.2</ele>
        <time>2022-09-18T10:59:37Z</time>
      </trkpt>
      <trkpt lat="44.66927" lon="6.22502">
        <ele>1128.4</ele>
        <time>2022-09-18T10:59:38Z</time>
      </trkpt>
      <trkpt lat="44.66928" lon="6.225">
        <ele>1128.6</ele>
        <time>2022-09-18T10:59:39Z</time>
      </trkpt>
      <trkpt lat="44.66931" lon="6.22497">
        <ele>1128.8</ele>
        <time>2022-09-18T10:59:40Z</time>
      </trkpt>
      <trkpt lat="44.66932" lon="6.22495">
        <ele>1128.6</ele>
        <time>2022-09-18T10:59:41Z</time>
      </trkpt>
      <trkpt lat="44.66934" lon="6.22493">
        <ele>1128.8</ele>
        <time>2022-09-18T10:59:42Z</time>
      </trkpt>
      <trkpt lat="44.66935" lon="6.2249">
        <ele>1129</ele>
        <time>2022-09-18T10:59:43Z</time>
      </trkpt>
      <trkpt lat="44.66937" lon="6.22488">
        <ele>1129</ele>
        <time>2022-09-18T10:59:44Z</time>
      </trkpt>
      <trkpt lat="44.66938" lon="6.22486">
        <ele>1129</ele>
        <time>2022-09-18T10:59:45Z</time>
      </trkpt>
      <trkpt lat="44.6694" lon="6.22484">
        <ele>1129.2</ele>
        <time>2022-09-18T10:59:46Z</time>
      </trkpt>
      <trkpt lat="44.66942" lon="6.22482">
        <ele>1129.2</ele>
        <time>2022-09-18T10:59:47Z</time>
      </trkpt>
      <trkpt lat="44.66943" lon="6.2248">
        <ele>1129.2</ele>
        <time>2022-09-18T10:59:48Z</time>
      </trkpt>
      <trkpt lat="44.66945" lon="6.22478">
        <ele>1129.4</ele>
        <time>2022-09-18T10:59:49Z</time>
      </trkpt>
      <trkpt lat="44.66947" lon="6.22476">
        <ele>1129.6</ele>
        <time>2022-09-18T10:59:50Z</time>
      </trkpt>
      <trkpt lat="44.66948" lon="6.22473">
        <ele>1129.6</ele>
        <time>2022-09-18T10:59:51Z</time>
      </trkpt>
      <trkpt lat="44.6695" lon="6.22471">
        <ele>1129.4</ele>
        <time>2022-09-18T10:59:52Z</time>
      </trkpt>
      <trkpt lat="44.66952" lon="6.22469">
        <ele>1129.6</ele>
        <time>2022-09-18T10:59:53Z</time>
      </trkpt>
      <trkpt lat="44.66954" lon="6.22466">
        <ele>1129.8</ele>
        <time>2022-09-18T10:59:54Z</time>
      </trkpt>
      <trkpt lat="44.66956" lon="6.22464">
        <ele>1129.8</ele>
        <time>2022-09-18T10:59:55Z</time>
      </trkpt>
      <trkpt lat="44.66958" lon="6.22461">
        <ele>1129.8</ele>
        <time>2022-09-18T10:59:56Z</time>
      </trkpt>
      <trkpt lat="44.6696" lon="6.22458">
        <ele>1129.8</ele>
        <time>2022-09-18T10:59:57Z</time>
      </trkpt>
      <trkpt lat="44.66963" lon="6.22456">
        <ele>1129.6</ele>
        <time>2022-09-18T10:59:58Z</time>
      </trkpt>
      <trkpt lat="44.66966" lon="6.22453">
        <ele>1129.6</ele>
        <time>2022-09-18T10:59:59Z</time>
      </trkpt>
      <trkpt lat="44.66968" lon="6.2245">
        <ele>1129.6</ele>
        <time>2022-09-18T11:00:00Z</time>
      </trkpt>
      <trkpt lat="44.66971" lon="6.22448">
        <ele>1129.4</ele>
        <time>2022-09-18T11:00:01Z</time>
      </trkpt>
      <trkpt lat="44.66973" lon="6.22445">
        <ele>1129.6</ele>
        <time>2022-09-18T11:00:02Z</time>
      </trkpt>
      <trkpt lat="44.66975" lon="6.22442">
        <ele>1129.6</ele>
        <time>2022-09-18T11:00:03Z</time>
      </trkpt>
      <trkpt lat="44.66977" lon="6.22438">
        <ele>1129.6</ele>
        <time>2022-09-18T11:00:04Z</time>
      </trkpt>
      <trkpt lat="44.6698" lon="6.22436">
        <ele>1129.8</ele>
        <time>2022-09-18T11:00:05Z</time>
      </trkpt>
      <trkpt lat="44.66982" lon="6.22433">
        <ele>1129.6</ele>
        <time>2022-09-18T11:00:06Z</time>
      </trkpt>
      <trkpt lat="44.66984" lon="6.2243">
        <ele>1129.6</ele>
        <time>2022-09-18T11:00:07Z</time>
      </trkpt>
      <trkpt lat="44.66987" lon="6.22427">
        <ele>1130</ele>
        <time>2022-09-18T11:00:08Z</time>
      </trkpt>
      <trkpt lat="44.66989" lon="6.22424">
        <ele>1130</ele>
        <time>2022-09-18T11:00:09Z</time>
      </trkpt>
      <trkpt lat="44.66991" lon="6.22422">
        <ele>1130.2</ele>
        <time>2022-09-18T11:00:10Z</time>
      </trkpt>
      <trkpt lat="44.66993" lon="6.22419">
        <ele>1130.4</ele>
        <time>2022-09-18T11:00:11Z</time>
      </trkpt>
      <trkpt lat="44.66995" lon="6.22417">
        <ele>1130.4</ele>
        <time>2022-09-18T11:00:12Z</time>
      </trkpt>
      <trkpt lat="44.66997" lon="6.22415">
        <ele>1130.8</ele>
        <time>2022-09-18T11:00:13Z</time>
      </trkpt>
      <trkpt lat="44.67" lon="6.22413">
        <ele>1130.8</ele>
        <time>2022-09-18T11:00:14Z</time>
      </trkpt>
      <trkpt lat="44.67002" lon="6.2241">
        <ele>1131</ele>
        <time>2022-09-18T11:00:15Z</time>
      </trkpt>
      <trkpt lat="44.67004" lon="6.22408">
        <ele>1131.2</ele>
        <time>2022-09-18T11:00:16Z</time>
      </trkpt>
      <trkpt lat="44.67006" lon="6.22405">
        <ele>1131.4</ele>
        <time>2022-09-18T11:00:17Z</time>
      </trkpt>
      <trkpt lat="44.67008" lon="6.22402">
        <ele>1131.4</ele>
        <time>2022-09-18T11:00:18Z</time>
      </trkpt>
      <trkpt lat="44.67011" lon="6.224">
        <ele>1132</ele>
        <time>2022-09-18T11:00:19Z</time>
      </trkpt>
      <trkpt lat="44.67013" lon="6.22397">
        <ele>1132.2</ele>
        <time>2022-09-18T11:00:20Z</time>
      </trkpt>
      <trkpt lat="44.67015" lon="6.22395">
        <ele>1132.6</ele>
        <time>2022-09-18T11:00:21Z</time>
      </trkpt>
      <trkpt lat="44.67017" lon="6.22393">
        <ele>1132.8</ele>
        <time>2022-09-18T11:00:22Z</time>
      </trkpt>
      <trkpt lat="44.67018" lon="6.2239">
        <ele>1133</ele>
        <time>2022-09-18T11:00:23Z</time>
      </trkpt>
      <trkpt lat="44.6702" lon="6.22388">
        <ele>1133.4</ele>
        <time>2022-09-18T11:00:24Z</time>
      </trkpt>
      <trkpt lat="44.67022" lon="6.22386">
        <ele>1133.6</ele>
        <time>2022-09-18T11:00:25Z</time>
      </trkpt>
      <trkpt lat="44.67024" lon="6.22383">
        <ele>1133.8</ele>
        <time>2022-09-18T11:00:26Z</time>
      </trkpt>
      <trkpt lat="44.67026" lon="6.22381">
        <ele>1134</ele>
        <time>2022-09-18T11:00:27Z</time>
      </trkpt>
      <trkpt lat="44.67027" lon="6.22379">
        <ele>1134.2</ele>
        <time>2022-09-18T11:00:28Z</time>
      </trkpt>
      <trkpt lat="44.67029" lon="6.22377">
        <ele>1134.6</ele>
        <time>2022-09-18T11:00:29Z</time>
      </trkpt>
      <trkpt lat="44.67031" lon="6.22374">
        <ele>1134.8</ele>
        <time>2022-09-18T11:00:30Z</time>
      </trkpt>
      <trkpt lat="44.67032" lon="6.22372">
        <ele>1135.4</ele>
        <time>2022-09-18T11:00:31Z</time>
      </trkpt>
      <trkpt lat="44.67033" lon="6.22369">
        <ele>1135.6</ele>
        <time>2022-09-18T11:00:32Z</time>
      </trkpt>
      <trkpt lat="44.67035" lon="6.22366">
        <ele>1136</ele>
        <time>2022-09-18T11:00:33Z</time>
      </trkpt>
      <trkpt lat="44.67036" lon="6.22363">
        <ele>1136.2</ele>
        <time>2022-09-18T11:00:34Z</time>
      </trkpt>
      <trkpt lat="44.67037" lon="6.2236">
        <ele>1136.4</ele>
        <time>2022-09-18T11:00:35Z</time>
      </trkpt>
      <trkpt lat="44.67038" lon="6.22357">
        <ele>1136.6</ele>
        <time>2022-09-18T11:00:36Z</time>
      </trkpt>
      <trkpt lat="44.67039" lon="6.22354">
        <ele>1137</ele>
        <time>2022-09-18T11:00:37Z</time>
      </trkpt>
      <trkpt lat="44.6704" lon="6.22351">
        <ele>1137.4</ele>
        <time>2022-09-18T11:00:38Z</time>
      </trkpt>
      <trkpt lat="44.6704" lon="6.22348">
        <ele>1137.8</ele>
        <time>2022-09-18T11:00:39Z</time>
      </trkpt>
      <trkpt lat="44.6704" lon="6.22345">
        <ele>1138</ele>
        <time>2022-09-18T11:00:40Z</time>
      </trkpt>
      <trkpt lat="44.67041" lon="6.22342">
        <ele>1138.4</ele>
        <time>2022-09-18T11:00:41Z</time>
      </trkpt>
      <trkpt lat="44.67041" lon="6.22339">
        <ele>1138.4</ele>
        <time>2022-09-18T11:00:42Z</time>
      </trkpt>
      <trkpt lat="44.67041" lon="6.22336">
        <ele>1138.6</ele>
        <time>2022-09-18T11:00:43Z</time>
      </trkpt>
      <trkpt lat="44.67041" lon="6.22333">
        <ele>1138.8</ele>
        <time>2022-09-18T11:00:44Z</time>
      </trkpt>
      <trkpt lat="44.6704" lon="6.22331">
        <ele>1139.2</ele>
        <time>2022-09-18T11:00:45Z</time>
      </trkpt>
      <trkpt lat="44.67039" lon="6.22328">
        <ele>1139.6</ele>
        <time>2022-09-18T11:00:46Z</time>
      </trkpt>
      <trkpt lat="44.67039" lon="6.22325">
        <ele>1139.8</ele>
        <time>2022-09-18T11:00:47Z</time>
      </trkpt>
      <trkpt lat="44.67038" lon="6.22322">
        <ele>1140</ele>
        <time>2022-09-18T11:00:48Z</time>
      </trkpt>
      <trkpt lat="44.67037" lon="6.2232">
        <ele>1140</ele>
        <time>2022-09-18T11:00:49Z</time>
      </trkpt>
      <trkpt lat="44.67036" lon="6.22317">
        <ele>1140.2</ele>
        <time>2022-09-18T11:00:50Z</time>
      </trkpt>
      <trkpt lat="44.67035" lon="6.22314">
        <ele>1140.4</ele>
        <time>2022-09-18T11:00:51Z</time>
      </trkpt>
      <trkpt lat="44.67035" lon="6.22312">
        <ele>1140.6</ele>
        <time>2022-09-18T11:00:52Z</time>
      </trkpt>
      <trkpt lat="44.67034" lon="6.22309">
        <ele>1140.8</ele>
        <time>2022-09-18T11:00:53Z</time>
      </trkpt>
      <trkpt lat="44.67034" lon="6.22306">
        <ele>1141</ele>
        <time>2022-09-18T11:00:54Z</time>
      </trkpt>
      <trkpt lat="44.67033" lon="6.22304">
        <ele>1141</ele>
        <time>2022-09-18T11:00:55Z</time>
      </trkpt>
      <trkpt lat="44.67032" lon="6.22299">
        <ele>1141.4</ele>
        <time>2022-09-18T11:00:57Z</time>
      </trkpt>
      <trkpt lat="44.67032" lon="6.22296">
        <ele>1141.4</ele>
        <time>2022-09-18T11:00:58Z</time>
      </trkpt>
      <trkpt lat="44.67031" lon="6.22293">
        <ele>1141.4</ele>
        <time>2022-09-18T11:00:59Z</time>
      </trkpt>
      <trkpt lat="44.67031" lon="6.2229">
        <ele>1141.6</ele>
        <time>2022-09-18T11:01:00Z</time>
      </trkpt>
      <trkpt lat="44.6703" lon="6.22288">
        <ele>1141.6</ele>
        <time>2022-09-18T11:01:01Z</time>
      </trkpt>
      <trkpt lat="44.67029" lon="6.22285">
        <ele>1141.6</ele>
        <time>2022-09-18T11:01:02Z</time>
      </trkpt>
      <trkpt lat="44.67028" lon="6.22282">
        <ele>1141.8</ele>
        <time>2022-09-18T11:01:03Z</time>
      </trkpt>
      <trkpt lat="44.67027" lon="6.22279">
        <ele>1142</ele>
        <time>2022-09-18T11:01:04Z</time>
      </trkpt>
      <trkpt lat="44.67027" lon="6.22277">
        <ele>1142.2</ele>
        <time>2022-09-18T11:01:05Z</time>
      </trkpt>
      <trkpt lat="44.67027" lon="6.22274">
        <ele>1142.2</ele>
        <time>2022-09-18T11:01:06Z</time>
      </trkpt>
      <trkpt lat="44.67027" lon="6.22271">
        <ele>1142.2</ele>
        <time>2022-09-18T11:01:07Z</time>
      </trkpt>
      <trkpt lat="44.67027" lon="6.22268">
        <ele>1142.2</ele>
        <time>2022-09-18T11:01:08Z</time>
      </trkpt>
      <trkpt lat="44.67027" lon="6.22265">
        <ele>1142.4</ele>
        <time>2022-09-18T11:01:09Z</time>
      </trkpt>
      <trkpt lat="44.67027" lon="6.22262">
        <ele>1142.4</ele>
        <time>2022-09-18T11:01:10Z</time>
      </trkpt>
      <trkpt lat="44.67026" lon="6.22259">
        <ele>1142.2</ele>
        <time>2022-09-18T11:01:11Z</time>
      </trkpt>
      <trkpt lat="44.67025" lon="6.22256">
        <ele>1142.2</ele>
        <time>2022-09-18T11:01:12Z</time>
      </trkpt>
      <trkpt lat="44.67024" lon="6.22253">
        <ele>1142.2</ele>
        <time>2022-09-18T11:01:13Z</time>
      </trkpt>
      <trkpt lat="44.67022" lon="6.2225">
        <ele>1142.4</ele>
        <time>2022-09-18T11:01:14Z</time>
      </trkpt>
      <trkpt lat="44.67021" lon="6.22247">
        <ele>1142.4</ele>
        <time>2022-09-18T11:01:15Z</time>
      </trkpt>
      <trkpt lat="44.6702" lon="6.22244">
        <ele>1142.4</ele>
        <time>2022-09-18T11:01:16Z</time>
      </trkpt>
      <trkpt lat="44.6702" lon="6.22242">
        <ele>1142.4</ele>
        <time>2022-09-18T11:01:17Z</time>
      </trkpt>
      <trkpt lat="44.67019" lon="6.22239">
        <ele>1142.6</ele>
        <time>2022-09-18T11:01:18Z</time>
      </trkpt>
      <trkpt lat="44.67017" lon="6.22236">
        <ele>1142.4</ele>
        <time>2022-09-18T11:01:19Z</time>
      </trkpt>
      <trkpt lat="44.67016" lon="6.22233">
        <ele>1142.6</ele>
        <time>2022-09-18T11:01:20Z</time>
      </trkpt>
      <trkpt lat="44.67015" lon="6.2223">
        <ele>1142.4</ele>
        <time>2022-09-18T11:01:21Z</time>
      </trkpt>
      <trkpt lat="44.67013" lon="6.22227">
        <ele>1142.6</ele>
        <time>2022-09-18T11:01:22Z</time>
      </trkpt>
      <trkpt lat="44.67012" lon="6.22224">
        <ele>1142.6</ele>
        <time>2022-09-18T11:01:23Z</time>
      </trkpt>
      <trkpt lat="44.67011" lon="6.22221">
        <ele>1142.6</ele>
        <time>2022-09-18T11:01:24Z</time>
      </trkpt>
      <trkpt lat="44.6701" lon="6.22218">
        <ele>1142.4</ele>
        <time>2022-09-18T11:01:25Z</time>
      </trkpt>
      <trkpt lat="44.67009" lon="6.22214">
        <ele>1142.6</ele>
        <time>2022-09-18T11:01:26Z</time>
      </trkpt>
      <trkpt lat="44.67009" lon="6.22211">
        <ele>1142.6</ele>
        <time>2022-09-18T11:01:27Z</time>
      </trkpt>
      <trkpt lat="44.67008" lon="6.22208">
        <ele>1142.8</ele>
        <time>2022-09-18T11:01:28Z</time>
      </trkpt>
      <trkpt lat="44.67007" lon="6.22205">
        <ele>1142.8</ele>
        <time>2022-09-18T11:01:29Z</time>
      </trkpt>
      <trkpt lat="44.67006" lon="6.22201">
        <ele>1142.8</ele>
        <time>2022-09-18T11:01:30Z</time>
      </trkpt>
      <trkpt lat="44.67005" lon="6.22198">
        <ele>1142.8</ele>
        <time>2022-09-18T11:01:31Z</time>
      </trkpt>
      <trkpt lat="44.67004" lon="6.22194">
        <ele>1143</ele>
        <time>2022-09-18T11:01:32Z</time>
      </trkpt>
      <trkpt lat="44.67003" lon="6.22191">
        <ele>1143</ele>
        <time>2022-09-18T11:01:33Z</time>
      </trkpt>
      <trkpt lat="44.67002" lon="6.22187">
        <ele>1142.8</ele>
        <time>2022-09-18T11:01:34Z</time>
      </trkpt>
      <trkpt lat="44.67001" lon="6.22183">
        <ele>1142.8</ele>
        <time>2022-09-18T11:01:35Z</time>
      </trkpt>
      <trkpt lat="44.67001" lon="6.2218">
        <ele>1143</ele>
        <time>2022-09-18T11:01:36Z</time>
      </trkpt>
      <trkpt lat="44.67" lon="6.22176">
        <ele>1143.2</ele>
        <time>2022-09-18T11:01:37Z</time>
      </trkpt>
      <trkpt lat="44.67" lon="6.22172">
        <ele>1143.4</ele>
        <time>2022-09-18T11:01:38Z</time>
      </trkpt>
      <trkpt lat="44.66999" lon="6.22168">
        <ele>1143.6</ele>
        <time>2022-09-18T11:01:39Z</time>
      </trkpt>
      <trkpt lat="44.66999" lon="6.22164">
        <ele>1143.6</ele>
        <time>2022-09-18T11:01:40Z</time>
      </trkpt>
      <trkpt lat="44.66999" lon="6.22161">
        <ele>1143.4</ele>
        <time>2022-09-18T11:01:41Z</time>
      </trkpt>
      <trkpt lat="44.66999" lon="6.22157">
        <ele>1143.6</ele>
        <time>2022-09-18T11:01:42Z</time>
      </trkpt>
      <trkpt lat="44.66998" lon="6.22154">
        <ele>1143.6</ele>
        <time>2022-09-18T11:01:43Z</time>
      </trkpt>
      <trkpt lat="44.66998" lon="6.2215">
        <ele>1143.8</ele>
        <time>2022-09-18T11:01:44Z</time>
      </trkpt>
      <trkpt lat="44.66997" lon="6.22146">
        <ele>1143.8</ele>
        <time>2022-09-18T11:01:45Z</time>
      </trkpt>
      <trkpt lat="44.66997" lon="6.22143">
        <ele>1144.2</ele>
        <time>2022-09-18T11:01:46Z</time>
      </trkpt>
      <trkpt lat="44.66997" lon="6.2214">
        <ele>1144</ele>
        <time>2022-09-18T11:01:47Z</time>
      </trkpt>
      <trkpt lat="44.66996" lon="6.22136">
        <ele>1144.2</ele>
        <time>2022-09-18T11:01:48Z</time>
      </trkpt>
      <trkpt lat="44.66996" lon="6.22133">
        <ele>1144.4</ele>
        <time>2022-09-18T11:01:49Z</time>
      </trkpt>
      <trkpt lat="44.66995" lon="6.2213">
        <ele>1144.6</ele>
        <time>2022-09-18T11:01:50Z</time>
      </trkpt>
      <trkpt lat="44.66995" lon="6.22127">
        <ele>1144.8</ele>
        <time>2022-09-18T11:01:51Z</time>
      </trkpt>
      <trkpt lat="44.66995" lon="6.22124">
        <ele>1144.8</ele>
        <time>2022-09-18T11:01:52Z</time>
      </trkpt>
      <trkpt lat="44.66995" lon="6.22121">
        <ele>1144.8</ele>
        <time>2022-09-18T11:01:53Z</time>
      </trkpt>
      <trkpt lat="44.66995" lon="6.22118">
        <ele>1144.8</ele>
        <time>2022-09-18T11:01:54Z</time>
      </trkpt>
      <trkpt lat="44.66995" lon="6.22115">
        <ele>1145.2</ele>
        <time>2022-09-18T11:01:55Z</time>
      </trkpt>
      <trkpt lat="44.66995" lon="6.22112">
        <ele>1145</ele>
        <time>2022-09-18T11:01:56Z</time>
      </trkpt>
      <trkpt lat="44.66995" lon="6.22108">
        <ele>1145</ele>
        <time>2022-09-18T11:01:57Z</time>
      </trkpt>
      <trkpt lat="44.66995" lon="6.22105">
        <ele>1145</ele>
        <time>2022-09-18T11:01:58Z</time>
      </trkpt>
      <trkpt lat="44.66995" lon="6.22102">
        <ele>1145</ele>
        <time>2022-09-18T11:01:59Z</time>
      </trkpt>
      <trkpt lat="44.66995" lon="6.22099">
        <ele>1145</ele>
        <time>2022-09-18T11:02:00Z</time>
      </trkpt>
      <trkpt lat="44.66995" lon="6.22095">
        <ele>1145.2</ele>
        <time>2022-09-18T11:02:01Z</time>
      </trkpt>
      <trkpt lat="44.66994" lon="6.22092">
        <ele>1145.4</ele>
        <time>2022-09-18T11:02:02Z</time>
      </trkpt>
      <trkpt lat="44.66994" lon="6.22087">
        <ele>1145.8</ele>
        <time>2022-09-18T11:02:04Z</time>
      </trkpt>
      <trkpt lat="44.66995" lon="6.22084">
        <ele>1145.8</ele>
        <time>2022-09-18T11:02:05Z</time>
      </trkpt>
      <trkpt lat="44.66995" lon="6.22081">
        <ele>1145.8</ele>
        <time>2022-09-18T11:02:06Z</time>
      </trkpt>
      <trkpt lat="44.66993" lon="6.22078">
        <ele>1146.2</ele>
        <time>2022-09-18T11:02:08Z</time>
      </trkpt>
      <trkpt lat="44.66992" lon="6.22073">
        <ele>1146.6</ele>
        <time>2022-09-18T11:02:10Z</time>
      </trkpt>
      <trkpt lat="44.66991" lon="6.2207">
        <ele>1146.8</ele>
        <time>2022-09-18T11:02:11Z</time>
      </trkpt>
      <trkpt lat="44.66989" lon="6.22066">
        <ele>1147</ele>
        <time>2022-09-18T11:02:12Z</time>
      </trkpt>
      <trkpt lat="44.66988" lon="6.22062">
        <ele>1147.2</ele>
        <time>2022-09-18T11:02:13Z</time>
      </trkpt>
      <trkpt lat="44.66987" lon="6.22058">
        <ele>1147.4</ele>
        <time>2022-09-18T11:02:14Z</time>
      </trkpt>
      <trkpt lat="44.66986" lon="6.22054">
        <ele>1147.6</ele>
        <time>2022-09-18T11:02:15Z</time>
      </trkpt>
      <trkpt lat="44.66986" lon="6.2205">
        <ele>1147.8</ele>
        <time>2022-09-18T11:02:16Z</time>
      </trkpt>
      <trkpt lat="44.66985" lon="6.22047">
        <ele>1147.8</ele>
        <time>2022-09-18T11:02:17Z</time>
      </trkpt>
      <trkpt lat="44.66985" lon="6.22044">
        <ele>1148</ele>
        <time>2022-09-18T11:02:18Z</time>
      </trkpt>
      <trkpt lat="44.66984" lon="6.2204">
        <ele>1148</ele>
        <time>2022-09-18T11:02:19Z</time>
      </trkpt>
      <trkpt lat="44.66983" lon="6.22037">
        <ele>1148</ele>
        <time>2022-09-18T11:02:20Z</time>
      </trkpt>
      <trkpt lat="44.66983" lon="6.22034">
        <ele>1148.2</ele>
        <time>2022-09-18T11:02:21Z</time>
      </trkpt>
      <trkpt lat="44.66982" lon="6.22031">
        <ele>1148.2</ele>
        <time>2022-09-18T11:02:22Z</time>
      </trkpt>
      <trkpt lat="44.66981" lon="6.22028">
        <ele>1148.4</ele>
        <time>2022-09-18T11:02:23Z</time>
      </trkpt>
      <trkpt lat="44.6698" lon="6.22025">
        <ele>1148.6</ele>
        <time>2022-09-18T11:02:24Z</time>
      </trkpt>
      <trkpt lat="44.66979" lon="6.22022">
        <ele>1148.6</ele>
        <time>2022-09-18T11:02:25Z</time>
      </trkpt>
      <trkpt lat="44.66978" lon="6.22018">
        <ele>1149</ele>
        <time>2022-09-18T11:02:26Z</time>
      </trkpt>
      <trkpt lat="44.66977" lon="6.22015">
        <ele>1149</ele>
        <time>2022-09-18T11:02:27Z</time>
      </trkpt>
      <trkpt lat="44.66976" lon="6.22012">
        <ele>1149</ele>
        <time>2022-09-18T11:02:28Z</time>
      </trkpt>
      <trkpt lat="44.66975" lon="6.22009">
        <ele>1149.2</ele>
        <time>2022-09-18T11:02:29Z</time>
      </trkpt>
      <trkpt lat="44.66974" lon="6.22006">
        <ele>1149.2</ele>
        <time>2022-09-18T11:02:30Z</time>
      </trkpt>
      <trkpt lat="44.66972" lon="6.22003">
        <ele>1149.2</ele>
        <time>2022-09-18T11:02:31Z</time>
      </trkpt>
      <trkpt lat="44.66971" lon="6.22">
        <ele>1149.4</ele>
        <time>2022-09-18T11:02:32Z</time>
      </trkpt>
      <trkpt lat="44.6697" lon="6.21997">
        <ele>1149.4</ele>
        <time>2022-09-18T11:02:33Z</time>
      </trkpt>
      <trkpt lat="44.66969" lon="6.21995">
        <ele>1149.6</ele>
        <time>2022-09-18T11:02:34Z</time>
      </trkpt>
      <trkpt lat="44.66967" lon="6.21992">
        <ele>1149.8</ele>
        <time>2022-09-18T11:02:35Z</time>
      </trkpt>
      <trkpt lat="44.66966" lon="6.2199">
        <ele>1149.8</ele>
        <time>2022-09-18T11:02:36Z</time>
      </trkpt>
      <trkpt lat="44.66965" lon="6.21987">
        <ele>1150</ele>
        <time>2022-09-18T11:02:37Z</time>
      </trkpt>
      <trkpt lat="44.66963" lon="6.21984">
        <ele>1150</ele>
        <time>2022-09-18T11:02:38Z</time>
      </trkpt>
      <trkpt lat="44.66963" lon="6.21981">
        <ele>1150.2</ele>
        <time>2022-09-18T11:02:39Z</time>
      </trkpt>
      <trkpt lat="44.66962" lon="6.21978">
        <ele>1150.4</ele>
        <time>2022-09-18T11:02:40Z</time>
      </trkpt>
      <trkpt lat="44.66961" lon="6.21975">
        <ele>1150.8</ele>
        <time>2022-09-18T11:02:41Z</time>
      </trkpt>
      <trkpt lat="44.6696" lon="6.21973">
        <ele>1151</ele>
        <time>2022-09-18T11:02:42Z</time>
      </trkpt>
      <trkpt lat="44.66959" lon="6.2197">
        <ele>1151.2</ele>
        <time>2022-09-18T11:02:43Z</time>
      </trkpt>
      <trkpt lat="44.66958" lon="6.21967">
        <ele>1151.2</ele>
        <time>2022-09-18T11:02:44Z</time>
      </trkpt>
      <trkpt lat="44.66956" lon="6.21964">
        <ele>1151.4</ele>
        <time>2022-09-18T11:02:45Z</time>
      </trkpt>
      <trkpt lat="44.66956" lon="6.21962">
        <ele>1151.6</ele>
        <time>2022-09-18T11:02:46Z</time>
      </trkpt>
      <trkpt lat="44.66955" lon="6.21959">
        <ele>1152</ele>
        <time>2022-09-18T11:02:47Z</time>
      </trkpt>
      <trkpt lat="44.66954" lon="6.21956">
        <ele>1152.2</ele>
        <time>2022-09-18T11:02:48Z</time>
      </trkpt>
      <trkpt lat="44.66953" lon="6.21952">
        <ele>1152.2</ele>
        <time>2022-09-18T11:02:49Z</time>
      </trkpt>
      <trkpt lat="44.66952" lon="6.21949">
        <ele>1152.6</ele>
        <time>2022-09-18T11:02:50Z</time>
      </trkpt>
      <trkpt lat="44.66951" lon="6.21946">
        <ele>1153</ele>
        <time>2022-09-18T11:02:51Z</time>
      </trkpt>
      <trkpt lat="44.66951" lon="6.21943">
        <ele>1153</ele>
        <time>2022-09-18T11:02:52Z</time>
      </trkpt>
      <trkpt lat="44.6695" lon="6.2194">
        <ele>1153.2</ele>
        <time>2022-09-18T11:02:53Z</time>
      </trkpt>
      <trkpt lat="44.66949" lon="6.21937">
        <ele>1153.4</ele>
        <time>2022-09-18T11:02:54Z</time>
      </trkpt>
      <trkpt lat="44.66949" lon="6.21933">
        <ele>1153.6</ele>
        <time>2022-09-18T11:02:55Z</time>
      </trkpt>
      <trkpt lat="44.66948" lon="6.2193">
        <ele>1153.8</ele>
        <time>2022-09-18T11:02:56Z</time>
      </trkpt>
      <trkpt lat="44.66948" lon="6.21927">
        <ele>1154</ele>
        <time>2022-09-18T11:02:57Z</time>
      </trkpt>
      <trkpt lat="44.66947" lon="6.21924">
        <ele>1154.2</ele>
        <time>2022-09-18T11:02:58Z</time>
      </trkpt>
      <trkpt lat="44.66947" lon="6.21921">
        <ele>1154.4</ele>
        <time>2022-09-18T11:02:59Z</time>
      </trkpt>
      <trkpt lat="44.66946" lon="6.21917">
        <ele>1154.4</ele>
        <time>2022-09-18T11:03:00Z</time>
      </trkpt>
      <trkpt lat="44.66946" lon="6.21914">
        <ele>1154.4</ele>
        <time>2022-09-18T11:03:01Z</time>
      </trkpt>
      <trkpt lat="44.66945" lon="6.21911">
        <ele>1154.6</ele>
        <time>2022-09-18T11:03:02Z</time>
      </trkpt>
      <trkpt lat="44.66944" lon="6.21908">
        <ele>1154.8</ele>
        <time>2022-09-18T11:03:03Z</time>
      </trkpt>
      <trkpt lat="44.66944" lon="6.21905">
        <ele>1155</ele>
        <time>2022-09-18T11:03:04Z</time>
      </trkpt>
      <trkpt lat="44.66943" lon="6.21902">
        <ele>1155</ele>
        <time>2022-09-18T11:03:05Z</time>
      </trkpt>
      <trkpt lat="44.66943" lon="6.21899">
        <ele>1155.2</ele>
        <time>2022-09-18T11:03:06Z</time>
      </trkpt>
      <trkpt lat="44.66942" lon="6.21896">
        <ele>1155.4</ele>
        <time>2022-09-18T11:03:07Z</time>
      </trkpt>
      <trkpt lat="44.66942" lon="6.21893">
        <ele>1155.4</ele>
        <time>2022-09-18T11:03:08Z</time>
      </trkpt>
      <trkpt lat="44.66941" lon="6.2189">
        <ele>1155.6</ele>
        <time>2022-09-18T11:03:09Z</time>
      </trkpt>
      <trkpt lat="44.66941" lon="6.21887">
        <ele>1155.8</ele>
        <time>2022-09-18T11:03:10Z</time>
      </trkpt>
      <trkpt lat="44.6694" lon="6.21884">
        <ele>1156</ele>
        <time>2022-09-18T11:03:11Z</time>
      </trkpt>
      <trkpt lat="44.6694" lon="6.21881">
        <ele>1156</ele>
        <time>2022-09-18T11:03:12Z</time>
      </trkpt>
      <trkpt lat="44.66939" lon="6.21878">
        <ele>1155.8</ele>
        <time>2022-09-18T11:03:13Z</time>
      </trkpt>
      <trkpt lat="44.66938" lon="6.21874">
        <ele>1155.6</ele>
        <time>2022-09-18T11:03:14Z</time>
      </trkpt>
      <trkpt lat="44.66937" lon="6.21871">
        <ele>1155.8</ele>
        <time>2022-09-18T11:03:15Z</time>
      </trkpt>
      <trkpt lat="44.66937" lon="6.21868">
        <ele>1155.8</ele>
        <time>2022-09-18T11:03:16Z</time>
      </trkpt>
      <trkpt lat="44.66936" lon="6.21864">
        <ele>1155.8</ele>
        <time>2022-09-18T11:03:17Z</time>
      </trkpt>
      <trkpt lat="44.66936" lon="6.2186">
        <ele>1155.8</ele>
        <time>2022-09-18T11:03:18Z</time>
      </trkpt>
      <trkpt lat="44.66935" lon="6.21856">
        <ele>1155.6</ele>
        <time>2022-09-18T11:03:19Z</time>
      </trkpt>
      <trkpt lat="44.66934" lon="6.21852">
        <ele>1155.6</ele>
        <time>2022-09-18T11:03:20Z</time>
      </trkpt>
      <trkpt lat="44.66934" lon="6.21848">
        <ele>1155.4</ele>
        <time>2022-09-18T11:03:21Z</time>
      </trkpt>
      <trkpt lat="44.66933" lon="6.21844">
        <ele>1155.4</ele>
        <time>2022-09-18T11:03:22Z</time>
      </trkpt>
      <trkpt lat="44.66932" lon="6.21839">
        <ele>1155.2</ele>
        <time>2022-09-18T11:03:23Z</time>
      </trkpt>
      <trkpt lat="44.66932" lon="6.21834">
        <ele>1154.8</ele>
        <time>2022-09-18T11:03:24Z</time>
      </trkpt>
      <trkpt lat="44.66931" lon="6.2183">
        <ele>1154.4</ele>
        <time>2022-09-18T11:03:25Z</time>
      </trkpt>
      <trkpt lat="44.6693" lon="6.21825">
        <ele>1154.4</ele>
        <time>2022-09-18T11:03:26Z</time>
      </trkpt>
      <trkpt lat="44.66929" lon="6.2182">
        <ele>1154.2</ele>
        <time>2022-09-18T11:03:27Z</time>
      </trkpt>
      <trkpt lat="44.66928" lon="6.21815">
        <ele>1154</ele>
        <time>2022-09-18T11:03:28Z</time>
      </trkpt>
      <trkpt lat="44.66928" lon="6.2181">
        <ele>1154</ele>
        <time>2022-09-18T11:03:29Z</time>
      </trkpt>
      <trkpt lat="44.66927" lon="6.21805">
        <ele>1153.8</ele>
        <time>2022-09-18T11:03:30Z</time>
      </trkpt>
      <trkpt lat="44.66926" lon="6.218">
        <ele>1153.6</ele>
        <time>2022-09-18T11:03:31Z</time>
      </trkpt>
      <trkpt lat="44.66925" lon="6.21796">
        <ele>1153.4</ele>
        <time>2022-09-18T11:03:32Z</time>
      </trkpt>
      <trkpt lat="44.66924" lon="6.21792">
        <ele>1153.6</ele>
        <time>2022-09-18T11:03:33Z</time>
      </trkpt>
      <trkpt lat="44.66924" lon="6.21788">
        <ele>1153.6</ele>
        <time>2022-09-18T11:03:34Z</time>
      </trkpt>
      <trkpt lat="44.66923" lon="6.21784">
        <ele>1153.8</ele>
        <time>2022-09-18T11:03:35Z</time>
      </trkpt>
      <trkpt lat="44.66923" lon="6.21781">
        <ele>1154</ele>
        <time>2022-09-18T11:03:36Z</time>
      </trkpt>
      <trkpt lat="44.66922" lon="6.21777">
        <ele>1154.2</ele>
        <time>2022-09-18T11:03:37Z</time>
      </trkpt>
      <trkpt lat="44.66922" lon="6.21773">
        <ele>1154.6</ele>
        <time>2022-09-18T11:03:38Z</time>
      </trkpt>
      <trkpt lat="44.66921" lon="6.21769">
        <ele>1155</ele>
        <time>2022-09-18T11:03:39Z</time>
      </trkpt>
      <trkpt lat="44.6692" lon="6.21765">
        <ele>1155</ele>
        <time>2022-09-18T11:03:40Z</time>
      </trkpt>
      <trkpt lat="44.6692" lon="6.21761">
        <ele>1155.2</ele>
        <time>2022-09-18T11:03:41Z</time>
      </trkpt>
      <trkpt lat="44.66919" lon="6.21757">
        <ele>1155.4</ele>
        <time>2022-09-18T11:03:42Z</time>
      </trkpt>
      <trkpt lat="44.66918" lon="6.21753">
        <ele>1155.8</ele>
        <time>2022-09-18T11:03:43Z</time>
      </trkpt>
      <trkpt lat="44.66918" lon="6.2175">
        <ele>1156.2</ele>
        <time>2022-09-18T11:03:44Z</time>
      </trkpt>
      <trkpt lat="44.66917" lon="6.21746">
        <ele>1156.4</ele>
        <time>2022-09-18T11:03:45Z</time>
      </trkpt>
      <trkpt lat="44.66917" lon="6.21743">
        <ele>1156.6</ele>
        <time>2022-09-18T11:03:46Z</time>
      </trkpt>
      <trkpt lat="44.66916" lon="6.2174">
        <ele>1156.6</ele>
        <time>2022-09-18T11:03:47Z</time>
      </trkpt>
      <trkpt lat="44.66916" lon="6.21736">
        <ele>1156.8</ele>
        <time>2022-09-18T11:03:48Z</time>
      </trkpt>
      <trkpt lat="44.66915" lon="6.21733">
        <ele>1157</ele>
        <time>2022-09-18T11:03:49Z</time>
      </trkpt>
      <trkpt lat="44.66914" lon="6.2173">
        <ele>1157.2</ele>
        <time>2022-09-18T11:03:50Z</time>
      </trkpt>
      <trkpt lat="44.66914" lon="6.21727">
        <ele>1157.6</ele>
        <time>2022-09-18T11:03:51Z</time>
      </trkpt>
      <trkpt lat="44.66914" lon="6.21724">
        <ele>1157.8</ele>
        <time>2022-09-18T11:03:52Z</time>
      </trkpt>
      <trkpt lat="44.66913" lon="6.2172">
        <ele>1158</ele>
        <time>2022-09-18T11:03:53Z</time>
      </trkpt>
      <trkpt lat="44.66913" lon="6.21717">
        <ele>1158.2</ele>
        <time>2022-09-18T11:03:54Z</time>
      </trkpt>
      <trkpt lat="44.66912" lon="6.21713">
        <ele>1158.2</ele>
        <time>2022-09-18T11:03:55Z</time>
      </trkpt>
      <trkpt lat="44.66912" lon="6.2171">
        <ele>1158.4</ele>
        <time>2022-09-18T11:03:56Z</time>
      </trkpt>
      <trkpt lat="44.66911" lon="6.21706">
        <ele>1158.2</ele>
        <time>2022-09-18T11:03:57Z</time>
      </trkpt>
      <trkpt lat="44.6691" lon="6.21703">
        <ele>1158.4</ele>
        <time>2022-09-18T11:03:58Z</time>
      </trkpt>
      <trkpt lat="44.66909" lon="6.217">
        <ele>1158.6</ele>
        <time>2022-09-18T11:03:59Z</time>
      </trkpt>
      <trkpt lat="44.66909" lon="6.21697">
        <ele>1158.8</ele>
        <time>2022-09-18T11:04:00Z</time>
      </trkpt>
      <trkpt lat="44.66908" lon="6.21693">
        <ele>1159</ele>
        <time>2022-09-18T11:04:01Z</time>
      </trkpt>
      <trkpt lat="44.66908" lon="6.2169">
        <ele>1159.2</ele>
        <time>2022-09-18T11:04:02Z</time>
      </trkpt>
      <trkpt lat="44.66908" lon="6.21687">
        <ele>1159.2</ele>
        <time>2022-09-18T11:04:03Z</time>
      </trkpt>
      <trkpt lat="44.66908" lon="6.21683">
        <ele>1159.2</ele>
        <time>2022-09-18T11:04:04Z</time>
      </trkpt>
      <trkpt lat="44.66908" lon="6.2168">
        <ele>1159.4</ele>
        <time>2022-09-18T11:04:05Z</time>
      </trkpt>
      <trkpt lat="44.66908" lon="6.21677">
        <ele>1159.4</ele>
        <time>2022-09-18T11:04:06Z</time>
      </trkpt>
      <trkpt lat="44.66908" lon="6.21674">
        <ele>1159.8</ele>
        <time>2022-09-18T11:04:07Z</time>
      </trkpt>
      <trkpt lat="44.66908" lon="6.21672">
        <ele>1159.8</ele>
        <time>2022-09-18T11:04:08Z</time>
      </trkpt>
      <trkpt lat="44.66908" lon="6.21668">
        <ele>1159.8</ele>
        <time>2022-09-18T11:04:10Z</time>
      </trkpt>
      <trkpt lat="44.66907" lon="6.21663">
        <ele>1160.2</ele>
        <time>2022-09-18T11:04:12Z</time>
      </trkpt>
      <trkpt lat="44.66905" lon="6.2166">
        <ele>1160.2</ele>
        <time>2022-09-18T11:04:14Z</time>
      </trkpt>
      <trkpt lat="44.66903" lon="6.21657">
        <ele>1160.4</ele>
        <time>2022-09-18T11:04:16Z</time>
      </trkpt>
      <trkpt lat="44.66901" lon="6.21653">
        <ele>1160.6</ele>
        <time>2022-09-18T11:04:18Z</time>
      </trkpt>
      <trkpt lat="44.66899" lon="6.2165">
        <ele>1160.4</ele>
        <time>2022-09-18T11:04:20Z</time>
      </trkpt>
      <trkpt lat="44.66898" lon="6.21646">
        <ele>1160.4</ele>
        <time>2022-09-18T11:04:22Z</time>
      </trkpt>
      <trkpt lat="44.66896" lon="6.21642">
        <ele>1160</ele>
        <time>2022-09-18T11:04:24Z</time>
      </trkpt>
      <trkpt lat="44.66894" lon="6.21639">
        <ele>1159.6</ele>
        <time>2022-09-18T11:04:26Z</time>
      </trkpt>
      <trkpt lat="44.66892" lon="6.21637">
        <ele>1157.2</ele>
        <time>2022-09-18T11:04:55Z</time>
      </trkpt>
      <trkpt lat="44.66889" lon="6.21634">
        <ele>1157</ele>
        <time>2022-09-18T11:04:57Z</time>
      </trkpt>
      <trkpt lat="44.66887" lon="6.21631">
        <ele>1156.6</ele>
        <time>2022-09-18T11:04:59Z</time>
      </trkpt>
      <trkpt lat="44.66889" lon="6.21634">
        <ele>1155.2</ele>
        <time>2022-09-18T11:05:11Z</time>
      </trkpt>
      <trkpt lat="44.66891" lon="6.21635">
        <ele>1154.8</ele>
        <time>2022-09-18T11:05:13Z</time>
      </trkpt>
      <trkpt lat="44.66892" lon="6.21638">
        <ele>1154.6</ele>
        <time>2022-09-18T11:05:15Z</time>
      </trkpt>
      <trkpt lat="44.66893" lon="6.21642">
        <ele>1154.4</ele>
        <time>2022-09-18T11:05:17Z</time>
      </trkpt>
      <trkpt lat="44.66894" lon="6.21647">
        <ele>1154.4</ele>
        <time>2022-09-18T11:05:19Z</time>
      </trkpt>
      <trkpt lat="44.66895" lon="6.21649">
        <ele>1154.4</ele>
        <time>2022-09-18T11:05:20Z</time>
      </trkpt>
      <trkpt lat="44.66895" lon="6.21652">
        <ele>1154.4</ele>
        <time>2022-09-18T11:05:21Z</time>
      </trkpt>
      <trkpt lat="44.66895" lon="6.21655">
        <ele>1154.2</ele>
        <time>2022-09-18T11:05:22Z</time>
      </trkpt>
      <trkpt lat="44.66895" lon="6.21658">
        <ele>1154.4</ele>
        <time>2022-09-18T11:05:23Z</time>
      </trkpt>
      <trkpt lat="44.66895" lon="6.21661">
        <ele>1154.4</ele>
        <time>2022-09-18T11:05:24Z</time>
      </trkpt>
      <trkpt lat="44.66895" lon="6.21664">
        <ele>1154.6</ele>
        <time>2022-09-18T11:05:25Z</time>
      </trkpt>
      <trkpt lat="44.66895" lon="6.21667">
        <ele>1154.6</ele>
        <time>2022-09-18T11:05:26Z</time>
      </trkpt>
      <trkpt lat="44.66896" lon="6.21671">
        <ele>1154.4</ele>
        <time>2022-09-18T11:05:27Z</time>
      </trkpt>
      <trkpt lat="44.66896" lon="6.21673">
        <ele>1154.4</ele>
        <time>2022-09-18T11:05:28Z</time>
      </trkpt>
      <trkpt lat="44.66897" lon="6.21678">
        <ele>1154</ele>
        <time>2022-09-18T11:05:30Z</time>
      </trkpt>
      <trkpt lat="44.66898" lon="6.21682">
        <ele>1153.8</ele>
        <time>2022-09-18T11:05:32Z</time>
      </trkpt>
      <trkpt lat="44.66898" lon="6.21685">
        <ele>1153.8</ele>
        <time>2022-09-18T11:05:34Z</time>
      </trkpt>
      <trkpt lat="44.66894" lon="6.21677">
        <ele>1164.4</ele>
        <time>2022-09-18T11:46:05Z</time>
      </trkpt>
      <trkpt lat="44.66892" lon="6.21673">
        <ele>1164.4</ele>
        <time>2022-09-18T11:46:07Z</time>
      </trkpt>
      <trkpt lat="44.66891" lon="6.2167">
        <ele>1164.4</ele>
        <time>2022-09-18T11:46:08Z</time>
      </trkpt>
      <trkpt lat="44.66891" lon="6.21667">
        <ele>1164.2</ele>
        <time>2022-09-18T11:46:09Z</time>
      </trkpt>
      <trkpt lat="44.66891" lon="6.21664">
        <ele>1164</ele>
        <time>2022-09-18T11:46:10Z</time>
      </trkpt>
      <trkpt lat="44.66891" lon="6.21661">
        <ele>1164</ele>
        <time>2022-09-18T11:46:11Z</time>
      </trkpt>
      <trkpt lat="44.66891" lon="6.21658">
        <ele>1164</ele>
        <time>2022-09-18T11:46:12Z</time>
      </trkpt>
      <trkpt lat="44.66892" lon="6.21654">
        <ele>1163.8</ele>
        <time>2022-09-18T11:46:13Z</time>
      </trkpt>
      <trkpt lat="44.66892" lon="6.2165">
        <ele>1163.6</ele>
        <time>2022-09-18T11:46:14Z</time>
      </trkpt>
      <trkpt lat="44.66892" lon="6.21646">
        <ele>1163.8</ele>
        <time>2022-09-18T11:46:15Z</time>
      </trkpt>
      <trkpt lat="44.66892" lon="6.21642">
        <ele>1163.8</ele>
        <time>2022-09-18T11:46:16Z</time>
      </trkpt>
      <trkpt lat="44.66891" lon="6.21638">
        <ele>1163.6</ele>
        <time>2022-09-18T11:46:17Z</time>
      </trkpt>
      <trkpt lat="44.66889" lon="6.21634">
        <ele>1163.4</ele>
        <time>2022-09-18T11:46:18Z</time>
      </trkpt>
      <trkpt lat="44.66887" lon="6.21629">
        <ele>1163.6</ele>
        <time>2022-09-18T11:46:19Z</time>
      </trkpt>
      <trkpt lat="44.66884" lon="6.21625">
        <ele>1163.8</ele>
        <time>2022-09-18T11:46:20Z</time>
      </trkpt>
      <trkpt lat="44.66881" lon="6.21619">
        <ele>1163.8</ele>
        <time>2022-09-18T11:46:21Z</time>
      </trkpt>
      <trkpt lat="44.66877" lon="6.21613">
        <ele>1163.6</ele>
        <time>2022-09-18T11:46:22Z</time>
      </trkpt>
      <trkpt lat="44.66874" lon="6.21607">
        <ele>1163.4</ele>
        <time>2022-09-18T11:46:23Z</time>
      </trkpt>
      <trkpt lat="44.6687" lon="6.216">
        <ele>1163.2</ele>
        <time>2022-09-18T11:46:24Z</time>
      </trkpt>
      <trkpt lat="44.66867" lon="6.21593">
        <ele>1163</ele>
        <time>2022-09-18T11:46:25Z</time>
      </trkpt>
      <trkpt lat="44.66863" lon="6.21586">
        <ele>1162.8</ele>
        <time>2022-09-18T11:46:26Z</time>
      </trkpt>
      <trkpt lat="44.66859" lon="6.21577">
        <ele>1162.8</ele>
        <time>2022-09-18T11:46:27Z</time>
      </trkpt>
      <trkpt lat="44.66855" lon="6.21568">
        <ele>1162.8</ele>
        <time>2022-09-18T11:46:28Z</time>
      </trkpt>
      <trkpt lat="44.66851" lon="6.21558">
        <ele>1162.8</ele>
        <time>2022-09-18T11:46:29Z</time>
      </trkpt>
      <trkpt lat="44.66846" lon="6.21548">
        <ele>1162</ele>
        <time>2022-09-18T11:46:30Z</time>
      </trkpt>
      <trkpt lat="44.66842" lon="6.21537">
        <ele>1161.4</ele>
        <time>2022-09-18T11:46:31Z</time>
      </trkpt>
      <trkpt lat="44.66839" lon="6.21526">
        <ele>1161.4</ele>
        <time>2022-09-18T11:46:32Z</time>
      </trkpt>
      <trkpt lat="44.66837" lon="6.21514">
        <ele>1161</ele>
        <time>2022-09-18T11:46:33Z</time>
      </trkpt>
      <trkpt lat="44.66835" lon="6.21502">
        <ele>1160.6</ele>
        <time>2022-09-18T11:46:34Z</time>
      </trkpt>
      <trkpt lat="44.66834" lon="6.21491">
        <ele>1160.2</ele>
        <time>2022-09-18T11:46:35Z</time>
      </trkpt>
      <trkpt lat="44.66834" lon="6.2148">
        <ele>1160</ele>
        <time>2022-09-18T11:46:36Z</time>
      </trkpt>
      <trkpt lat="44.66834" lon="6.21469">
        <ele>1159.6</ele>
        <time>2022-09-18T11:46:37Z</time>
      </trkpt>
      <trkpt lat="44.66835" lon="6.21458">
        <ele>1159.4</ele>
        <time>2022-09-18T11:46:38Z</time>
      </trkpt>
      <trkpt lat="44.66835" lon="6.21447">
        <ele>1159.4</ele>
        <time>2022-09-18T11:46:39Z</time>
      </trkpt>
      <trkpt lat="44.66835" lon="6.21436">
        <ele>1159.4</ele>
        <time>2022-09-18T11:46:40Z</time>
      </trkpt>
      <trkpt lat="44.66835" lon="6.21425">
        <ele>1159.2</ele>
        <time>2022-09-18T11:46:41Z</time>
      </trkpt>
      <trkpt lat="44.66835" lon="6.21415">
        <ele>1159</ele>
        <time>2022-09-18T11:46:42Z</time>
      </trkpt>
      <trkpt lat="44.66836" lon="6.21404">
        <ele>1159.2</ele>
        <time>2022-09-18T11:46:43Z</time>
      </trkpt>
      <trkpt lat="44.66837" lon="6.21392">
        <ele>1159.4</ele>
        <time>2022-09-18T11:46:44Z</time>
      </trkpt>
      <trkpt lat="44.66838" lon="6.21381">
        <ele>1159.8</ele>
        <time>2022-09-18T11:46:45Z</time>
      </trkpt>
      <trkpt lat="44.66839" lon="6.21369">
        <ele>1160</ele>
        <time>2022-09-18T11:46:46Z</time>
      </trkpt>
      <trkpt lat="44.66839" lon="6.21357">
        <ele>1160</ele>
        <time>2022-09-18T11:46:47Z</time>
      </trkpt>
      <trkpt lat="44.66837" lon="6.21346">
        <ele>1159.4</ele>
        <time>2022-09-18T11:46:48Z</time>
      </trkpt>
      <trkpt lat="44.66833" lon="6.21336">
        <ele>1159</ele>
        <time>2022-09-18T11:46:49Z</time>
      </trkpt>
      <trkpt lat="44.66827" lon="6.21328">
        <ele>1158.4</ele>
        <time>2022-09-18T11:46:50Z</time>
      </trkpt>
      <trkpt lat="44.66821" lon="6.2132">
        <ele>1157.6</ele>
        <time>2022-09-18T11:46:51Z</time>
      </trkpt>
      <trkpt lat="44.66815" lon="6.21313">
        <ele>1157.2</ele>
        <time>2022-09-18T11:46:52Z</time>
      </trkpt>
      <trkpt lat="44.66809" lon="6.21305">
        <ele>1156.6</ele>
        <time>2022-09-18T11:46:53Z</time>
      </trkpt>
      <trkpt lat="44.66804" lon="6.21296">
        <ele>1156.2</ele>
        <time>2022-09-18T11:46:54Z</time>
      </trkpt>
      <trkpt lat="44.66799" lon="6.21287">
        <ele>1155.8</ele>
        <time>2022-09-18T11:46:55Z</time>
      </trkpt>
      <trkpt lat="44.66794" lon="6.21279">
        <ele>1155.8</ele>
        <time>2022-09-18T11:46:56Z</time>
      </trkpt>
      <trkpt lat="44.6679" lon="6.2127">
        <ele>1155.4</ele>
        <time>2022-09-18T11:46:57Z</time>
      </trkpt>
      <trkpt lat="44.66786" lon="6.2126">
        <ele>1155</ele>
        <time>2022-09-18T11:46:58Z</time>
      </trkpt>
      <trkpt lat="44.66782" lon="6.21251">
        <ele>1155</ele>
        <time>2022-09-18T11:46:59Z</time>
      </trkpt>
      <trkpt lat="44.66778" lon="6.21242">
        <ele>1154.8</ele>
        <time>2022-09-18T11:47:00Z</time>
      </trkpt>
      <trkpt lat="44.66774" lon="6.21232">
        <ele>1154.8</ele>
        <time>2022-09-18T11:47:01Z</time>
      </trkpt>
      <trkpt lat="44.66771" lon="6.21222">
        <ele>1154.8</ele>
        <time>2022-09-18T11:47:02Z</time>
      </trkpt>
      <trkpt lat="44.66767" lon="6.21211">
        <ele>1154.6</ele>
        <time>2022-09-18T11:47:03Z</time>
      </trkpt>
      <trkpt lat="44.66764" lon="6.21199">
        <ele>1154.4</ele>
        <time>2022-09-18T11:47:04Z</time>
      </trkpt>
      <trkpt lat="44.6676" lon="6.21187">
        <ele>1154.4</ele>
        <time>2022-09-18T11:47:05Z</time>
      </trkpt>
      <trkpt lat="44.66757" lon="6.21175">
        <ele>1154.2</ele>
        <time>2022-09-18T11:47:06Z</time>
      </trkpt>
      <trkpt lat="44.66753" lon="6.21162">
        <ele>1154.2</ele>
        <time>2022-09-18T11:47:07Z</time>
      </trkpt>
      <trkpt lat="44.66749" lon="6.2115">
        <ele>1154</ele>
        <time>2022-09-18T11:47:08Z</time>
      </trkpt>
      <trkpt lat="44.66744" lon="6.21138">
        <ele>1153.8</ele>
        <time>2022-09-18T11:47:09Z</time>
      </trkpt>
      <trkpt lat="44.6674" lon="6.21126">
        <ele>1153.4</ele>
        <time>2022-09-18T11:47:10Z</time>
      </trkpt>
      <trkpt lat="44.66737" lon="6.21114">
        <ele>1152.8</ele>
        <time>2022-09-18T11:47:11Z</time>
      </trkpt>
      <trkpt lat="44.66733" lon="6.21101">
        <ele>1152.6</ele>
        <time>2022-09-18T11:47:12Z</time>
      </trkpt>
      <trkpt lat="44.6673" lon="6.21088">
        <ele>1152</ele>
        <time>2022-09-18T11:47:13Z</time>
      </trkpt>
      <trkpt lat="44.66727" lon="6.21075">
        <ele>1152.2</ele>
        <time>2022-09-18T11:47:14Z</time>
      </trkpt>
      <trkpt lat="44.66724" lon="6.21062">
        <ele>1152</ele>
        <time>2022-09-18T11:47:15Z</time>
      </trkpt>
      <trkpt lat="44.66721" lon="6.2105">
        <ele>1151.8</ele>
        <time>2022-09-18T11:47:16Z</time>
      </trkpt>
      <trkpt lat="44.66718" lon="6.21037">
        <ele>1151.4</ele>
        <time>2022-09-18T11:47:17Z</time>
      </trkpt>
      <trkpt lat="44.66716" lon="6.21025">
        <ele>1151.2</ele>
        <time>2022-09-18T11:47:18Z</time>
      </trkpt>
      <trkpt lat="44.66714" lon="6.21012">
        <ele>1151.2</ele>
        <time>2022-09-18T11:47:19Z</time>
      </trkpt>
      <trkpt lat="44.66712" lon="6.20999">
        <ele>1150.8</ele>
        <time>2022-09-18T11:47:20Z</time>
      </trkpt>
      <trkpt lat="44.6671" lon="6.20987">
        <ele>1150.4</ele>
        <time>2022-09-18T11:47:21Z</time>
      </trkpt>
      <trkpt lat="44.66708" lon="6.20975">
        <ele>1149.8</ele>
        <time>2022-09-18T11:47:22Z</time>
      </trkpt>
      <trkpt lat="44.66704" lon="6.20964">
        <ele>1149.4</ele>
        <time>2022-09-18T11:47:23Z</time>
      </trkpt>
      <trkpt lat="44.66699" lon="6.20955">
        <ele>1148.8</ele>
        <time>2022-09-18T11:47:24Z</time>
      </trkpt>
      <trkpt lat="44.66692" lon="6.20947">
        <ele>1148.6</ele>
        <time>2022-09-18T11:47:25Z</time>
      </trkpt>
      <trkpt lat="44.66686" lon="6.20939">
        <ele>1148</ele>
        <time>2022-09-18T11:47:26Z</time>
      </trkpt>
      <trkpt lat="44.66678" lon="6.20933">
        <ele>1147.6</ele>
        <time>2022-09-18T11:47:27Z</time>
      </trkpt>
      <trkpt lat="44.6667" lon="6.20928">
        <ele>1147</ele>
        <time>2022-09-18T11:47:28Z</time>
      </trkpt>
      <trkpt lat="44.66661" lon="6.20925">
        <ele>1146.6</ele>
        <time>2022-09-18T11:47:29Z</time>
      </trkpt>
      <trkpt lat="44.66651" lon="6.20924">
        <ele>1146.8</ele>
        <time>2022-09-18T11:47:30Z</time>
      </trkpt>
      <trkpt lat="44.66642" lon="6.20923">
        <ele>1146.4</ele>
        <time>2022-09-18T11:47:31Z</time>
      </trkpt>
      <trkpt lat="44.66632" lon="6.20922">
        <ele>1146</ele>
        <time>2022-09-18T11:47:32Z</time>
      </trkpt>
      <trkpt lat="44.66622" lon="6.2092">
        <ele>1145.4</ele>
        <time>2022-09-18T11:47:33Z</time>
      </trkpt>
      <trkpt lat="44.66613" lon="6.20917">
        <ele>1145</ele>
        <time>2022-09-18T11:47:34Z</time>
      </trkpt>
      <trkpt lat="44.66604" lon="6.20913">
        <ele>1145</ele>
        <time>2022-09-18T11:47:35Z</time>
      </trkpt>
      <trkpt lat="44.66596" lon="6.20905">
        <ele>1144.6</ele>
        <time>2022-09-18T11:47:36Z</time>
      </trkpt>
      <trkpt lat="44.6659" lon="6.20896">
        <ele>1144.6</ele>
        <time>2022-09-18T11:47:37Z</time>
      </trkpt>
      <trkpt lat="44.66583" lon="6.20886">
        <ele>1144.4</ele>
        <time>2022-09-18T11:47:38Z</time>
      </trkpt>
      <trkpt lat="44.66578" lon="6.20875">
        <ele>1144</ele>
        <time>2022-09-18T11:47:39Z</time>
      </trkpt>
      <trkpt lat="44.66572" lon="6.20865">
        <ele>1143.6</ele>
        <time>2022-09-18T11:47:40Z</time>
      </trkpt>
      <trkpt lat="44.66567" lon="6.20854">
        <ele>1143.2</ele>
        <time>2022-09-18T11:47:41Z</time>
      </trkpt>
      <trkpt lat="44.66561" lon="6.20845">
        <ele>1143</ele>
        <time>2022-09-18T11:47:42Z</time>
      </trkpt>
      <trkpt lat="44.66556" lon="6.20835">
        <ele>1142.8</ele>
        <time>2022-09-18T11:47:43Z</time>
      </trkpt>
      <trkpt lat="44.66551" lon="6.20825">
        <ele>1142.6</ele>
        <time>2022-09-18T11:47:44Z</time>
      </trkpt>
      <trkpt lat="44.66547" lon="6.20816">
        <ele>1142</ele>
        <time>2022-09-18T11:47:45Z</time>
      </trkpt>
      <trkpt lat="44.66543" lon="6.20806">
        <ele>1142.2</ele>
        <time>2022-09-18T11:47:46Z</time>
      </trkpt>
      <trkpt lat="44.66538" lon="6.20797">
        <ele>1142.4</ele>
        <time>2022-09-18T11:47:47Z</time>
      </trkpt>
      <trkpt lat="44.66533" lon="6.20788">
        <ele>1142</ele>
        <time>2022-09-18T11:47:48Z</time>
      </trkpt>
      <trkpt lat="44.66527" lon="6.20779">
        <ele>1142.2</ele>
        <time>2022-09-18T11:47:49Z</time>
      </trkpt>
      <trkpt lat="44.66521" lon="6.2077">
        <ele>1142.4</ele>
        <time>2022-09-18T11:47:50Z</time>
      </trkpt>
      <trkpt lat="44.66515" lon="6.2076">
        <ele>1142.4</ele>
        <time>2022-09-18T11:47:51Z</time>
      </trkpt>
      <trkpt lat="44.6651" lon="6.20749">
        <ele>1142.4</ele>
        <time>2022-09-18T11:47:52Z</time>
      </trkpt>
      <trkpt lat="44.66508" lon="6.20737">
        <ele>1142.4</ele>
        <time>2022-09-18T11:47:53Z</time>
      </trkpt>
      <trkpt lat="44.66507" lon="6.20725">
        <ele>1142.2</ele>
        <time>2022-09-18T11:47:54Z</time>
      </trkpt>
      <trkpt lat="44.66507" lon="6.20712">
        <ele>1142.2</ele>
        <time>2022-09-18T11:47:55Z</time>
      </trkpt>
      <trkpt lat="44.66507" lon="6.207">
        <ele>1141.8</ele>
        <time>2022-09-18T11:47:56Z</time>
      </trkpt>
      <trkpt lat="44.66506" lon="6.20688">
        <ele>1141.4</ele>
        <time>2022-09-18T11:47:57Z</time>
      </trkpt>
      <trkpt lat="44.66504" lon="6.20676">
        <ele>1141.2</ele>
        <time>2022-09-18T11:47:58Z</time>
      </trkpt>
      <trkpt lat="44.66502" lon="6.20664">
        <ele>1141.2</ele>
        <time>2022-09-18T11:47:59Z</time>
      </trkpt>
      <trkpt lat="44.66499" lon="6.20653">
        <ele>1141.4</ele>
        <time>2022-09-18T11:48:00Z</time>
      </trkpt>
      <trkpt lat="44.66496" lon="6.20642">
        <ele>1141</ele>
        <time>2022-09-18T11:48:01Z</time>
      </trkpt>
      <trkpt lat="44.66492" lon="6.20631">
        <ele>1141</ele>
        <time>2022-09-18T11:48:02Z</time>
      </trkpt>
      <trkpt lat="44.66488" lon="6.20621">
        <ele>1141</ele>
        <time>2022-09-18T11:48:03Z</time>
      </trkpt>
      <trkpt lat="44.66484" lon="6.20609">
        <ele>1141</ele>
        <time>2022-09-18T11:48:04Z</time>
      </trkpt>
      <trkpt lat="44.66481" lon="6.20598">
        <ele>1141</ele>
        <time>2022-09-18T11:48:05Z</time>
      </trkpt>
      <trkpt lat="44.66478" lon="6.20586">
        <ele>1140.8</ele>
        <time>2022-09-18T11:48:06Z</time>
      </trkpt>
      <trkpt lat="44.66475" lon="6.20574">
        <ele>1140.8</ele>
        <time>2022-09-18T11:48:07Z</time>
      </trkpt>
      <trkpt lat="44.66473" lon="6.20561">
        <ele>1140.6</ele>
        <time>2022-09-18T11:48:08Z</time>
      </trkpt>
      <trkpt lat="44.6647" lon="6.20549">
        <ele>1140.6</ele>
        <time>2022-09-18T11:48:09Z</time>
      </trkpt>
      <trkpt lat="44.66468" lon="6.20537">
        <ele>1140.2</ele>
        <time>2022-09-18T11:48:10Z</time>
      </trkpt>
      <trkpt lat="44.66467" lon="6.20525">
        <ele>1140.2</ele>
        <time>2022-09-18T11:48:11Z</time>
      </trkpt>
      <trkpt lat="44.66465" lon="6.20513">
        <ele>1140</ele>
        <time>2022-09-18T11:48:12Z</time>
      </trkpt>
      <trkpt lat="44.66465" lon="6.20501">
        <ele>1139.8</ele>
        <time>2022-09-18T11:48:13Z</time>
      </trkpt>
      <trkpt lat="44.66464" lon="6.20488">
        <ele>1139.8</ele>
        <time>2022-09-18T11:48:14Z</time>
      </trkpt>
      <trkpt lat="44.66463" lon="6.20476">
        <ele>1139.6</ele>
        <time>2022-09-18T11:48:15Z</time>
      </trkpt>
      <trkpt lat="44.66463" lon="6.20464">
        <ele>1139.2</ele>
        <time>2022-09-18T11:48:16Z</time>
      </trkpt>
      <trkpt lat="44.66462" lon="6.20452">
        <ele>1139</ele>
        <time>2022-09-18T11:48:17Z</time>
      </trkpt>
      <trkpt lat="44.66461" lon="6.2044">
        <ele>1139</ele>
        <time>2022-09-18T11:48:18Z</time>
      </trkpt>
      <trkpt lat="44.6646" lon="6.20428">
        <ele>1138.8</ele>
        <time>2022-09-18T11:48:19Z</time>
      </trkpt>
      <trkpt lat="44.66459" lon="6.20416">
        <ele>1138.2</ele>
        <time>2022-09-18T11:48:20Z</time>
      </trkpt>
      <trkpt lat="44.66457" lon="6.20403">
        <ele>1138.2</ele>
        <time>2022-09-18T11:48:21Z</time>
      </trkpt>
      <trkpt lat="44.66455" lon="6.20391">
        <ele>1137.6</ele>
        <time>2022-09-18T11:48:22Z</time>
      </trkpt>
      <trkpt lat="44.66452" lon="6.20379">
        <ele>1137.2</ele>
        <time>2022-09-18T11:48:23Z</time>
      </trkpt>
      <trkpt lat="44.66449" lon="6.20366">
        <ele>1136.8</ele>
        <time>2022-09-18T11:48:24Z</time>
      </trkpt>
      <trkpt lat="44.66446" lon="6.20354">
        <ele>1136.8</ele>
        <time>2022-09-18T11:48:25Z</time>
      </trkpt>
      <trkpt lat="44.66443" lon="6.20341">
        <ele>1136.8</ele>
        <time>2022-09-18T11:48:26Z</time>
      </trkpt>
      <trkpt lat="44.6644" lon="6.20328">
        <ele>1136.4</ele>
        <time>2022-09-18T11:48:27Z</time>
      </trkpt>
      <trkpt lat="44.66438" lon="6.20315">
        <ele>1136.2</ele>
        <time>2022-09-18T11:48:28Z</time>
      </trkpt>
      <trkpt lat="44.66435" lon="6.20303">
        <ele>1135.8</ele>
        <time>2022-09-18T11:48:29Z</time>
      </trkpt>
      <trkpt lat="44.66433" lon="6.20291">
        <ele>1135.6</ele>
        <time>2022-09-18T11:48:30Z</time>
      </trkpt>
      <trkpt lat="44.6643" lon="6.20281">
        <ele>1135.4</ele>
        <time>2022-09-18T11:48:31Z</time>
      </trkpt>
      <trkpt lat="44.66428" lon="6.20272">
        <ele>1135.4</ele>
        <time>2022-09-18T11:48:32Z</time>
      </trkpt>
      <trkpt lat="44.66425" lon="6.20264">
        <ele>1135.4</ele>
        <time>2022-09-18T11:48:33Z</time>
      </trkpt>
      <trkpt lat="44.66422" lon="6.20257">
        <ele>1135.6</ele>
        <time>2022-09-18T11:48:34Z</time>
      </trkpt>
      <trkpt lat="44.66417" lon="6.20246">
        <ele>1136.8</ele>
        <time>2022-09-18T11:48:36Z</time>
      </trkpt>
      <trkpt lat="44.66414" lon="6.20241">
        <ele>1137.4</ele>
        <time>2022-09-18T11:48:37Z</time>
      </trkpt>
      <trkpt lat="44.66411" lon="6.20237">
        <ele>1137.8</ele>
        <time>2022-09-18T11:48:38Z</time>
      </trkpt>
      <trkpt lat="44.66407" lon="6.20234">
        <ele>1138.4</ele>
        <time>2022-09-18T11:48:39Z</time>
      </trkpt>
      <trkpt lat="44.66403" lon="6.20231">
        <ele>1138.8</ele>
        <time>2022-09-18T11:48:40Z</time>
      </trkpt>
      <trkpt lat="44.664" lon="6.20227">
        <ele>1139.2</ele>
        <time>2022-09-18T11:48:41Z</time>
      </trkpt>
      <trkpt lat="44.66396" lon="6.20224">
        <ele>1139.4</ele>
        <time>2022-09-18T11:48:42Z</time>
      </trkpt>
      <trkpt lat="44.66393" lon="6.2022">
        <ele>1139.8</ele>
        <time>2022-09-18T11:48:43Z</time>
      </trkpt>
      <trkpt lat="44.66388" lon="6.20216">
        <ele>1139.6</ele>
        <time>2022-09-18T11:48:44Z</time>
      </trkpt>
      <trkpt lat="44.66384" lon="6.20213">
        <ele>1139.8</ele>
        <time>2022-09-18T11:48:45Z</time>
      </trkpt>
      <trkpt lat="44.6638" lon="6.20208">
        <ele>1140</ele>
        <time>2022-09-18T11:48:46Z</time>
      </trkpt>
      <trkpt lat="44.66376" lon="6.20204">
        <ele>1140.2</ele>
        <time>2022-09-18T11:48:47Z</time>
      </trkpt>
      <trkpt lat="44.66371" lon="6.202">
        <ele>1140.2</ele>
        <time>2022-09-18T11:48:48Z</time>
      </trkpt>
      <trkpt lat="44.66367" lon="6.20196">
        <ele>1140.2</ele>
        <time>2022-09-18T11:48:49Z</time>
      </trkpt>
      <trkpt lat="44.66363" lon="6.20191">
        <ele>1140.6</ele>
        <time>2022-09-18T11:48:50Z</time>
      </trkpt>
      <trkpt lat="44.66359" lon="6.20187">
        <ele>1140.4</ele>
        <time>2022-09-18T11:48:51Z</time>
      </trkpt>
      <trkpt lat="44.66351" lon="6.2018">
        <ele>1140.6</ele>
        <time>2022-09-18T11:48:53Z</time>
      </trkpt>
      <trkpt lat="44.66348" lon="6.20176">
        <ele>1140.6</ele>
        <time>2022-09-18T11:48:54Z</time>
      </trkpt>
      <trkpt lat="44.66345" lon="6.20172">
        <ele>1140.6</ele>
        <time>2022-09-18T11:48:55Z</time>
      </trkpt>
      <trkpt lat="44.66336" lon="6.20159">
        <ele>1140.8</ele>
        <time>2022-09-18T11:48:58Z</time>
      </trkpt>
      <trkpt lat="44.6633" lon="6.20149">
        <ele>1141.2</ele>
        <time>2022-09-18T11:49:00Z</time>
      </trkpt>
      <trkpt lat="44.66324" lon="6.20138">
        <ele>1141.4</ele>
        <time>2022-09-18T11:49:02Z</time>
      </trkpt>
      <trkpt lat="44.66318" lon="6.20127">
        <ele>1141.8</ele>
        <time>2022-09-18T11:49:04Z</time>
      </trkpt>
      <trkpt lat="44.6631" lon="6.20115">
        <ele>1141.8</ele>
        <time>2022-09-18T11:49:06Z</time>
      </trkpt>
      <trkpt lat="44.66307" lon="6.20108">
        <ele>1141.8</ele>
        <time>2022-09-18T11:49:07Z</time>
      </trkpt>
      <trkpt lat="44.66303" lon="6.20102">
        <ele>1141.8</ele>
        <time>2022-09-18T11:49:08Z</time>
      </trkpt>
      <trkpt lat="44.66299" lon="6.20095">
        <ele>1141.8</ele>
        <time>2022-09-18T11:49:09Z</time>
      </trkpt>
      <trkpt lat="44.66295" lon="6.20089">
        <ele>1141.6</ele>
        <time>2022-09-18T11:49:10Z</time>
      </trkpt>
      <trkpt lat="44.66291" lon="6.20083">
        <ele>1141.8</ele>
        <time>2022-09-18T11:49:11Z</time>
      </trkpt>
      <trkpt lat="44.66287" lon="6.20076">
        <ele>1141.2</ele>
        <time>2022-09-18T11:49:12Z</time>
      </trkpt>
      <trkpt lat="44.66283" lon="6.2007">
        <ele>1141.2</ele>
        <time>2022-09-18T11:49:13Z</time>
      </trkpt>
      <trkpt lat="44.66279" lon="6.20064">
        <ele>1141.2</ele>
        <time>2022-09-18T11:49:14Z</time>
      </trkpt>
      <trkpt lat="44.66274" lon="6.20052">
        <ele>1141.2</ele>
        <time>2022-09-18T11:49:16Z</time>
      </trkpt>
      <trkpt lat="44.66271" lon="6.20047">
        <ele>1141.2</ele>
        <time>2022-09-18T11:49:17Z</time>
      </trkpt>
      <trkpt lat="44.66268" lon="6.2004">
        <ele>1141</ele>
        <time>2022-09-18T11:49:18Z</time>
      </trkpt>
      <trkpt lat="44.66265" lon="6.20034">
        <ele>1141.2</ele>
        <time>2022-09-18T11:49:19Z</time>
      </trkpt>
      <trkpt lat="44.66262" lon="6.20027">
        <ele>1141.2</ele>
        <time>2022-09-18T11:49:20Z</time>
      </trkpt>
      <trkpt lat="44.66258" lon="6.2002">
        <ele>1141.2</ele>
        <time>2022-09-18T11:49:21Z</time>
      </trkpt>
      <trkpt lat="44.66255" lon="6.20013">
        <ele>1141.4</ele>
        <time>2022-09-18T11:49:22Z</time>
      </trkpt>
      <trkpt lat="44.66251" lon="6.20006">
        <ele>1141</ele>
        <time>2022-09-18T11:49:23Z</time>
      </trkpt>
      <trkpt lat="44.66247" lon="6.19999">
        <ele>1140.6</ele>
        <time>2022-09-18T11:49:24Z</time>
      </trkpt>
      <trkpt lat="44.66243" lon="6.19992">
        <ele>1140.4</ele>
        <time>2022-09-18T11:49:25Z</time>
      </trkpt>
      <trkpt lat="44.66239" lon="6.19985">
        <ele>1140</ele>
        <time>2022-09-18T11:49:26Z</time>
      </trkpt>
      <trkpt lat="44.66236" lon="6.19979">
        <ele>1139.8</ele>
        <time>2022-09-18T11:49:27Z</time>
      </trkpt>
      <trkpt lat="44.66232" lon="6.19972">
        <ele>1139.4</ele>
        <time>2022-09-18T11:49:28Z</time>
      </trkpt>
      <trkpt lat="44.66227" lon="6.19965">
        <ele>1139.4</ele>
        <time>2022-09-18T11:49:29Z</time>
      </trkpt>
      <trkpt lat="44.66223" lon="6.19958">
        <ele>1139</ele>
        <time>2022-09-18T11:49:30Z</time>
      </trkpt>
      <trkpt lat="44.66218" lon="6.1995">
        <ele>1138.8</ele>
        <time>2022-09-18T11:49:31Z</time>
      </trkpt>
      <trkpt lat="44.66214" lon="6.19943">
        <ele>1138.6</ele>
        <time>2022-09-18T11:49:32Z</time>
      </trkpt>
      <trkpt lat="44.6621" lon="6.19934">
        <ele>1138.2</ele>
        <time>2022-09-18T11:49:33Z</time>
      </trkpt>
      <trkpt lat="44.66206" lon="6.19926">
        <ele>1137.6</ele>
        <time>2022-09-18T11:49:34Z</time>
      </trkpt>
      <trkpt lat="44.66203" lon="6.19917">
        <ele>1137.4</ele>
        <time>2022-09-18T11:49:35Z</time>
      </trkpt>
      <trkpt lat="44.66201" lon="6.19908">
        <ele>1137</ele>
        <time>2022-09-18T11:49:36Z</time>
      </trkpt>
      <trkpt lat="44.662" lon="6.199">
        <ele>1136.8</ele>
        <time>2022-09-18T11:49:37Z</time>
      </trkpt>
      <trkpt lat="44.66198" lon="6.19891">
        <ele>1136.2</ele>
        <time>2022-09-18T11:49:38Z</time>
      </trkpt>
      <trkpt lat="44.66197" lon="6.19882">
        <ele>1136.2</ele>
        <time>2022-09-18T11:49:39Z</time>
      </trkpt>
      <trkpt lat="44.66196" lon="6.19874">
        <ele>1135.8</ele>
        <time>2022-09-18T11:49:40Z</time>
      </trkpt>
      <trkpt lat="44.66195" lon="6.19866">
        <ele>1135.8</ele>
        <time>2022-09-18T11:49:41Z</time>
      </trkpt>
      <trkpt lat="44.66193" lon="6.19857">
        <ele>1136</ele>
        <time>2022-09-18T11:49:42Z</time>
      </trkpt>
      <trkpt lat="44.66192" lon="6.19849">
        <ele>1135.8</ele>
        <time>2022-09-18T11:49:43Z</time>
      </trkpt>
      <trkpt lat="44.66191" lon="6.19842">
        <ele>1135.6</ele>
        <time>2022-09-18T11:49:44Z</time>
      </trkpt>
      <trkpt lat="44.66191" lon="6.19834">
        <ele>1135.8</ele>
        <time>2022-09-18T11:49:45Z</time>
      </trkpt>
      <trkpt lat="44.6619" lon="6.19827">
        <ele>1135.8</ele>
        <time>2022-09-18T11:49:46Z</time>
      </trkpt>
      <trkpt lat="44.66189" lon="6.19821">
        <ele>1136</ele>
        <time>2022-09-18T11:49:47Z</time>
      </trkpt>
      <trkpt lat="44.66188" lon="6.19814">
        <ele>1136</ele>
        <time>2022-09-18T11:49:48Z</time>
      </trkpt>
      <trkpt lat="44.66187" lon="6.19807">
        <ele>1136.2</ele>
        <time>2022-09-18T11:49:49Z</time>
      </trkpt>
      <trkpt lat="44.66186" lon="6.198">
        <ele>1136.4</ele>
        <time>2022-09-18T11:49:50Z</time>
      </trkpt>
      <trkpt lat="44.66185" lon="6.19794">
        <ele>1136.6</ele>
        <time>2022-09-18T11:49:51Z</time>
      </trkpt>
      <trkpt lat="44.66185" lon="6.19787">
        <ele>1136.8</ele>
        <time>2022-09-18T11:49:52Z</time>
      </trkpt>
      <trkpt lat="44.66183" lon="6.1978">
        <ele>1137</ele>
        <time>2022-09-18T11:49:53Z</time>
      </trkpt>
      <trkpt lat="44.66182" lon="6.19774">
        <ele>1137</ele>
        <time>2022-09-18T11:49:54Z</time>
      </trkpt>
      <trkpt lat="44.66181" lon="6.19767">
        <ele>1137.2</ele>
        <time>2022-09-18T11:49:55Z</time>
      </trkpt>
      <trkpt lat="44.66179" lon="6.19761">
        <ele>1137.4</ele>
        <time>2022-09-18T11:49:56Z</time>
      </trkpt>
      <trkpt lat="44.66178" lon="6.19755">
        <ele>1137.6</ele>
        <time>2022-09-18T11:49:57Z</time>
      </trkpt>
      <trkpt lat="44.66177" lon="6.19749">
        <ele>1137.8</ele>
        <time>2022-09-18T11:49:58Z</time>
      </trkpt>
      <trkpt lat="44.66177" lon="6.19743">
        <ele>1137.8</ele>
        <time>2022-09-18T11:49:59Z</time>
      </trkpt>
      <trkpt lat="44.66176" lon="6.19737">
        <ele>1137.8</ele>
        <time>2022-09-18T11:50:00Z</time>
      </trkpt>
      <trkpt lat="44.66175" lon="6.19731">
        <ele>1138.2</ele>
        <time>2022-09-18T11:50:01Z</time>
      </trkpt>
      <trkpt lat="44.66174" lon="6.19726">
        <ele>1138.6</ele>
        <time>2022-09-18T11:50:02Z</time>
      </trkpt>
      <trkpt lat="44.66174" lon="6.1972">
        <ele>1138.8</ele>
        <time>2022-09-18T11:50:03Z</time>
      </trkpt>
      <trkpt lat="44.66173" lon="6.19715">
        <ele>1139.2</ele>
        <time>2022-09-18T11:50:04Z</time>
      </trkpt>
      <trkpt lat="44.66173" lon="6.19709">
        <ele>1139.6</ele>
        <time>2022-09-18T11:50:05Z</time>
      </trkpt>
      <trkpt lat="44.66173" lon="6.19703">
        <ele>1139.8</ele>
        <time>2022-09-18T11:50:06Z</time>
      </trkpt>
      <trkpt lat="44.66173" lon="6.19697">
        <ele>1140</ele>
        <time>2022-09-18T11:50:07Z</time>
      </trkpt>
      <trkpt lat="44.66172" lon="6.1969">
        <ele>1140</ele>
        <time>2022-09-18T11:50:08Z</time>
      </trkpt>
      <trkpt lat="44.66172" lon="6.19683">
        <ele>1140.2</ele>
        <time>2022-09-18T11:50:09Z</time>
      </trkpt>
      <trkpt lat="44.66172" lon="6.19675">
        <ele>1140.2</ele>
        <time>2022-09-18T11:50:10Z</time>
      </trkpt>
      <trkpt lat="44.66172" lon="6.19668">
        <ele>1140</ele>
        <time>2022-09-18T11:50:11Z</time>
      </trkpt>
      <trkpt lat="44.66172" lon="6.1966">
        <ele>1140</ele>
        <time>2022-09-18T11:50:12Z</time>
      </trkpt>
      <trkpt lat="44.66171" lon="6.19653">
        <ele>1139.4</ele>
        <time>2022-09-18T11:50:13Z</time>
      </trkpt>
      <trkpt lat="44.6617" lon="6.19646">
        <ele>1139.4</ele>
        <time>2022-09-18T11:50:14Z</time>
      </trkpt>
      <trkpt lat="44.66169" lon="6.1964">
        <ele>1139.2</ele>
        <time>2022-09-18T11:50:15Z</time>
      </trkpt>
      <trkpt lat="44.66168" lon="6.19634">
        <ele>1139.4</ele>
        <time>2022-09-18T11:50:16Z</time>
      </trkpt>
      <trkpt lat="44.66166" lon="6.19628">
        <ele>1139.2</ele>
        <time>2022-09-18T11:50:17Z</time>
      </trkpt>
      <trkpt lat="44.66164" lon="6.19622">
        <ele>1139.2</ele>
        <time>2022-09-18T11:50:18Z</time>
      </trkpt>
      <trkpt lat="44.66163" lon="6.19616">
        <ele>1139</ele>
        <time>2022-09-18T11:50:19Z</time>
      </trkpt>
      <trkpt lat="44.66162" lon="6.19609">
        <ele>1138.8</ele>
        <time>2022-09-18T11:50:20Z</time>
      </trkpt>
      <trkpt lat="44.6616" lon="6.19602">
        <ele>1138.8</ele>
        <time>2022-09-18T11:50:21Z</time>
      </trkpt>
      <trkpt lat="44.66158" lon="6.19596">
        <ele>1138.6</ele>
        <time>2022-09-18T11:50:22Z</time>
      </trkpt>
      <trkpt lat="44.66156" lon="6.19589">
        <ele>1138.4</ele>
        <time>2022-09-18T11:50:23Z</time>
      </trkpt>
      <trkpt lat="44.66154" lon="6.19583">
        <ele>1138</ele>
        <time>2022-09-18T11:50:24Z</time>
      </trkpt>
      <trkpt lat="44.66152" lon="6.19576">
        <ele>1137.6</ele>
        <time>2022-09-18T11:50:25Z</time>
      </trkpt>
      <trkpt lat="44.66151" lon="6.19568">
        <ele>1137.6</ele>
        <time>2022-09-18T11:50:26Z</time>
      </trkpt>
      <trkpt lat="44.66149" lon="6.19561">
        <ele>1137.4</ele>
        <time>2022-09-18T11:50:27Z</time>
      </trkpt>
      <trkpt lat="44.66147" lon="6.19554">
        <ele>1137</ele>
        <time>2022-09-18T11:50:28Z</time>
      </trkpt>
      <trkpt lat="44.66145" lon="6.19546">
        <ele>1137</ele>
        <time>2022-09-18T11:50:29Z</time>
      </trkpt>
      <trkpt lat="44.66144" lon="6.19539">
        <ele>1136.6</ele>
        <time>2022-09-18T11:50:30Z</time>
      </trkpt>
      <trkpt lat="44.66142" lon="6.19531">
        <ele>1136.4</ele>
        <time>2022-09-18T11:50:31Z</time>
      </trkpt>
      <trkpt lat="44.66141" lon="6.19524">
        <ele>1136.2</ele>
        <time>2022-09-18T11:50:32Z</time>
      </trkpt>
      <trkpt lat="44.66139" lon="6.19516">
        <ele>1136.4</ele>
        <time>2022-09-18T11:50:33Z</time>
      </trkpt>
      <trkpt lat="44.66138" lon="6.19508">
        <ele>1136.4</ele>
        <time>2022-09-18T11:50:34Z</time>
      </trkpt>
      <trkpt lat="44.66137" lon="6.195">
        <ele>1136.6</ele>
        <time>2022-09-18T11:50:35Z</time>
      </trkpt>
      <trkpt lat="44.66136" lon="6.19492">
        <ele>1137</ele>
        <time>2022-09-18T11:50:36Z</time>
      </trkpt>
      <trkpt lat="44.66136" lon="6.19484">
        <ele>1137</ele>
        <time>2022-09-18T11:50:37Z</time>
      </trkpt>
      <trkpt lat="44.66135" lon="6.19476">
        <ele>1137.2</ele>
        <time>2022-09-18T11:50:38Z</time>
      </trkpt>
      <trkpt lat="44.66134" lon="6.19468">
        <ele>1137.2</ele>
        <time>2022-09-18T11:50:39Z</time>
      </trkpt>
      <trkpt lat="44.66131" lon="6.19459">
        <ele>1137.6</ele>
        <time>2022-09-18T11:50:40Z</time>
      </trkpt>
      <trkpt lat="44.66128" lon="6.19451">
        <ele>1137.8</ele>
        <time>2022-09-18T11:50:41Z</time>
      </trkpt>
      <trkpt lat="44.66126" lon="6.19441">
        <ele>1138.2</ele>
        <time>2022-09-18T11:50:42Z</time>
      </trkpt>
      <trkpt lat="44.66123" lon="6.19432">
        <ele>1138.2</ele>
        <time>2022-09-18T11:50:43Z</time>
      </trkpt>
      <trkpt lat="44.6612" lon="6.19422">
        <ele>1138.2</ele>
        <time>2022-09-18T11:50:44Z</time>
      </trkpt>
      <trkpt lat="44.66117" lon="6.19411">
        <ele>1138.2</ele>
        <time>2022-09-18T11:50:45Z</time>
      </trkpt>
      <trkpt lat="44.66115" lon="6.19401">
        <ele>1138</ele>
        <time>2022-09-18T11:50:46Z</time>
      </trkpt>
      <trkpt lat="44.66112" lon="6.19391">
        <ele>1137.6</ele>
        <time>2022-09-18T11:50:47Z</time>
      </trkpt>
      <trkpt lat="44.66109" lon="6.19381">
        <ele>1137.2</ele>
        <time>2022-09-18T11:50:48Z</time>
      </trkpt>
      <trkpt lat="44.66105" lon="6.19372">
        <ele>1136.6</ele>
        <time>2022-09-18T11:50:49Z</time>
      </trkpt>
      <trkpt lat="44.66097" lon="6.19358">
        <ele>1136.2</ele>
        <time>2022-09-18T11:50:51Z</time>
      </trkpt>
      <trkpt lat="44.66089" lon="6.19346">
        <ele>1136.4</ele>
        <time>2022-09-18T11:50:53Z</time>
      </trkpt>
      <trkpt lat="44.66081" lon="6.19334">
        <ele>1137.4</ele>
        <time>2022-09-18T11:50:56Z</time>
      </trkpt>
      <trkpt lat="44.66075" lon="6.19322">
        <ele>1140</ele>
        <time>2022-09-18T11:51:01Z</time>
      </trkpt>
      <trkpt lat="44.66074" lon="6.19318">
        <ele>1140.2</ele>
        <time>2022-09-18T11:51:02Z</time>
      </trkpt>
      <trkpt lat="44.66073" lon="6.19315">
        <ele>1140.6</ele>
        <time>2022-09-18T11:51:03Z</time>
      </trkpt>
      <trkpt lat="44.66073" lon="6.19311">
        <ele>1141</ele>
        <time>2022-09-18T11:51:04Z</time>
      </trkpt>
      <trkpt lat="44.66072" lon="6.19307">
        <ele>1141.4</ele>
        <time>2022-09-18T11:51:05Z</time>
      </trkpt>
      <trkpt lat="44.66071" lon="6.19303">
        <ele>1142</ele>
        <time>2022-09-18T11:51:06Z</time>
      </trkpt>
      <trkpt lat="44.66071" lon="6.19299">
        <ele>1142.2</ele>
        <time>2022-09-18T11:51:07Z</time>
      </trkpt>
      <trkpt lat="44.6607" lon="6.19295">
        <ele>1142.8</ele>
        <time>2022-09-18T11:51:08Z</time>
      </trkpt>
      <trkpt lat="44.66071" lon="6.19291">
        <ele>1143</ele>
        <time>2022-09-18T11:51:09Z</time>
      </trkpt>
      <trkpt lat="44.66071" lon="6.19288">
        <ele>1143.6</ele>
        <time>2022-09-18T11:51:10Z</time>
      </trkpt>
      <trkpt lat="44.66071" lon="6.19286">
        <ele>1143.6</ele>
        <time>2022-09-18T11:51:11Z</time>
      </trkpt>
      <trkpt lat="44.66072" lon="6.19283">
        <ele>1144</ele>
        <time>2022-09-18T11:51:12Z</time>
      </trkpt>
      <trkpt lat="44.66072" lon="6.1928">
        <ele>1144.4</ele>
        <time>2022-09-18T11:51:13Z</time>
      </trkpt>
      <trkpt lat="44.66073" lon="6.19277">
        <ele>1144.6</ele>
        <time>2022-09-18T11:51:14Z</time>
      </trkpt>
      <trkpt lat="44.66074" lon="6.19274">
        <ele>1145</ele>
        <time>2022-09-18T11:51:15Z</time>
      </trkpt>
      <trkpt lat="44.66075" lon="6.19272">
        <ele>1145</ele>
        <time>2022-09-18T11:51:16Z</time>
      </trkpt>
      <trkpt lat="44.66077" lon="6.19268">
        <ele>1145.4</ele>
        <time>2022-09-18T11:51:18Z</time>
      </trkpt>
      <trkpt lat="44.66077" lon="6.19265">
        <ele>1145.8</ele>
        <time>2022-09-18T11:51:19Z</time>
      </trkpt>
      <trkpt lat="44.66078" lon="6.19263">
        <ele>1146</ele>
        <time>2022-09-18T11:51:20Z</time>
      </trkpt>
      <trkpt lat="44.66079" lon="6.19259">
        <ele>1146</ele>
        <time>2022-09-18T11:51:21Z</time>
      </trkpt>
      <trkpt lat="44.6608" lon="6.19256">
        <ele>1146.2</ele>
        <time>2022-09-18T11:51:22Z</time>
      </trkpt>
      <trkpt lat="44.6608" lon="6.19253">
        <ele>1146.6</ele>
        <time>2022-09-18T11:51:23Z</time>
      </trkpt>
      <trkpt lat="44.6608" lon="6.1925">
        <ele>1147</ele>
        <time>2022-09-18T11:51:24Z</time>
      </trkpt>
      <trkpt lat="44.6608" lon="6.19247">
        <ele>1147.2</ele>
        <time>2022-09-18T11:51:25Z</time>
      </trkpt>
      <trkpt lat="44.6608" lon="6.19244">
        <ele>1147.4</ele>
        <time>2022-09-18T11:51:26Z</time>
      </trkpt>
      <trkpt lat="44.6608" lon="6.19241">
        <ele>1147.6</ele>
        <time>2022-09-18T11:51:27Z</time>
      </trkpt>
      <trkpt lat="44.6608" lon="6.19238">
        <ele>1148</ele>
        <time>2022-09-18T11:51:28Z</time>
      </trkpt>
      <trkpt lat="44.6608" lon="6.19235">
        <ele>1148</ele>
        <time>2022-09-18T11:51:29Z</time>
      </trkpt>
      <trkpt lat="44.6608" lon="6.19232">
        <ele>1148.2</ele>
        <time>2022-09-18T11:51:30Z</time>
      </trkpt>
      <trkpt lat="44.6608" lon="6.19229">
        <ele>1148.4</ele>
        <time>2022-09-18T11:51:31Z</time>
      </trkpt>
      <trkpt lat="44.6608" lon="6.19225">
        <ele>1148.6</ele>
        <time>2022-09-18T11:51:32Z</time>
      </trkpt>
      <trkpt lat="44.66079" lon="6.19222">
        <ele>1148.8</ele>
        <time>2022-09-18T11:51:33Z</time>
      </trkpt>
      <trkpt lat="44.66079" lon="6.19219">
        <ele>1148.8</ele>
        <time>2022-09-18T11:51:34Z</time>
      </trkpt>
      <trkpt lat="44.66078" lon="6.19216">
        <ele>1149.2</ele>
        <time>2022-09-18T11:51:35Z</time>
      </trkpt>
      <trkpt lat="44.66078" lon="6.19213">
        <ele>1149.4</ele>
        <time>2022-09-18T11:51:36Z</time>
      </trkpt>
      <trkpt lat="44.66077" lon="6.1921">
        <ele>1149.6</ele>
        <time>2022-09-18T11:51:37Z</time>
      </trkpt>
      <trkpt lat="44.66077" lon="6.19207">
        <ele>1150</ele>
        <time>2022-09-18T11:51:38Z</time>
      </trkpt>
      <trkpt lat="44.66076" lon="6.19204">
        <ele>1150.2</ele>
        <time>2022-09-18T11:51:39Z</time>
      </trkpt>
      <trkpt lat="44.66074" lon="6.19201">
        <ele>1150.2</ele>
        <time>2022-09-18T11:51:40Z</time>
      </trkpt>
      <trkpt lat="44.66072" lon="6.19199">
        <ele>1150.6</ele>
        <time>2022-09-18T11:51:41Z</time>
      </trkpt>
      <trkpt lat="44.6607" lon="6.19197">
        <ele>1150.6</ele>
        <time>2022-09-18T11:51:42Z</time>
      </trkpt>
      <trkpt lat="44.66068" lon="6.19194">
        <ele>1150.6</ele>
        <time>2022-09-18T11:51:43Z</time>
      </trkpt>
      <trkpt lat="44.66067" lon="6.19191">
        <ele>1150.8</ele>
        <time>2022-09-18T11:51:44Z</time>
      </trkpt>
      <trkpt lat="44.66065" lon="6.19189">
        <ele>1150.8</ele>
        <time>2022-09-18T11:51:45Z</time>
      </trkpt>
      <trkpt lat="44.66063" lon="6.19186">
        <ele>1150.6</ele>
        <time>2022-09-18T11:51:46Z</time>
      </trkpt>
      <trkpt lat="44.6606" lon="6.19181">
        <ele>1150.8</ele>
        <time>2022-09-18T11:51:48Z</time>
      </trkpt>
      <trkpt lat="44.66059" lon="6.19179">
        <ele>1150.6</ele>
        <time>2022-09-18T11:51:49Z</time>
      </trkpt>
      <trkpt lat="44.66058" lon="6.19176">
        <ele>1150.8</ele>
        <time>2022-09-18T11:51:50Z</time>
      </trkpt>
      <trkpt lat="44.66056" lon="6.19174">
        <ele>1150.8</ele>
        <time>2022-09-18T11:51:51Z</time>
      </trkpt>
      <trkpt lat="44.66055" lon="6.19172">
        <ele>1150.8</ele>
        <time>2022-09-18T11:51:52Z</time>
      </trkpt>
      <trkpt lat="44.66053" lon="6.19169">
        <ele>1150.8</ele>
        <time>2022-09-18T11:51:53Z</time>
      </trkpt>
      <trkpt lat="44.66052" lon="6.19166">
        <ele>1150.6</ele>
        <time>2022-09-18T11:51:54Z</time>
      </trkpt>
      <trkpt lat="44.6605" lon="6.19162">
        <ele>1150.8</ele>
        <time>2022-09-18T11:51:55Z</time>
      </trkpt>
      <trkpt lat="44.66049" lon="6.19159">
        <ele>1150.8</ele>
        <time>2022-09-18T11:51:56Z</time>
      </trkpt>
      <trkpt lat="44.66048" lon="6.19155">
        <ele>1150.8</ele>
        <time>2022-09-18T11:51:57Z</time>
      </trkpt>
      <trkpt lat="44.66046" lon="6.19151">
        <ele>1150.8</ele>
        <time>2022-09-18T11:51:58Z</time>
      </trkpt>
      <trkpt lat="44.66045" lon="6.19148">
        <ele>1150.8</ele>
        <time>2022-09-18T11:51:59Z</time>
      </trkpt>
      <trkpt lat="44.66043" lon="6.19144">
        <ele>1150.8</ele>
        <time>2022-09-18T11:52:00Z</time>
      </trkpt>
      <trkpt lat="44.66042" lon="6.1914">
        <ele>1150.8</ele>
        <time>2022-09-18T11:52:01Z</time>
      </trkpt>
      <trkpt lat="44.66041" lon="6.19137">
        <ele>1150.8</ele>
        <time>2022-09-18T11:52:02Z</time>
      </trkpt>
      <trkpt lat="44.6604" lon="6.19133">
        <ele>1150.8</ele>
        <time>2022-09-18T11:52:03Z</time>
      </trkpt>
      <trkpt lat="44.66039" lon="6.1913">
        <ele>1150.8</ele>
        <time>2022-09-18T11:52:04Z</time>
      </trkpt>
      <trkpt lat="44.66038" lon="6.19126">
        <ele>1150.8</ele>
        <time>2022-09-18T11:52:05Z</time>
      </trkpt>
      <trkpt lat="44.66037" lon="6.19123">
        <ele>1151</ele>
        <time>2022-09-18T11:52:06Z</time>
      </trkpt>
      <trkpt lat="44.66037" lon="6.19119">
        <ele>1151</ele>
        <time>2022-09-18T11:52:07Z</time>
      </trkpt>
      <trkpt lat="44.66036" lon="6.19115">
        <ele>1151</ele>
        <time>2022-09-18T11:52:08Z</time>
      </trkpt>
      <trkpt lat="44.66035" lon="6.19111">
        <ele>1151</ele>
        <time>2022-09-18T11:52:09Z</time>
      </trkpt>
      <trkpt lat="44.66034" lon="6.19108">
        <ele>1151</ele>
        <time>2022-09-18T11:52:10Z</time>
      </trkpt>
      <trkpt lat="44.66032" lon="6.19105">
        <ele>1150.8</ele>
        <time>2022-09-18T11:52:11Z</time>
      </trkpt>
      <trkpt lat="44.6603" lon="6.19101">
        <ele>1150.8</ele>
        <time>2022-09-18T11:52:12Z</time>
      </trkpt>
      <trkpt lat="44.66029" lon="6.19098">
        <ele>1150.6</ele>
        <time>2022-09-18T11:52:13Z</time>
      </trkpt>
      <trkpt lat="44.66028" lon="6.19094">
        <ele>1150.8</ele>
        <time>2022-09-18T11:52:14Z</time>
      </trkpt>
      <trkpt lat="44.66027" lon="6.19091">
        <ele>1150.6</ele>
        <time>2022-09-18T11:52:15Z</time>
      </trkpt>
      <trkpt lat="44.66026" lon="6.19087">
        <ele>1150.6</ele>
        <time>2022-09-18T11:52:16Z</time>
      </trkpt>
      <trkpt lat="44.66025" lon="6.19084">
        <ele>1150.6</ele>
        <time>2022-09-18T11:52:17Z</time>
      </trkpt>
      <trkpt lat="44.66024" lon="6.1908">
        <ele>1150.6</ele>
        <time>2022-09-18T11:52:18Z</time>
      </trkpt>
      <trkpt lat="44.66023" lon="6.19076">
        <ele>1150.6</ele>
        <time>2022-09-18T11:52:19Z</time>
      </trkpt>
      <trkpt lat="44.66022" lon="6.19073">
        <ele>1150.6</ele>
        <time>2022-09-18T11:52:20Z</time>
      </trkpt>
      <trkpt lat="44.66022" lon="6.19069">
        <ele>1150.6</ele>
        <time>2022-09-18T11:52:21Z</time>
      </trkpt>
      <trkpt lat="44.66021" lon="6.19065">
        <ele>1150.4</ele>
        <time>2022-09-18T11:52:22Z</time>
      </trkpt>
      <trkpt lat="44.66019" lon="6.19061">
        <ele>1150.4</ele>
        <time>2022-09-18T11:52:23Z</time>
      </trkpt>
      <trkpt lat="44.66018" lon="6.19057">
        <ele>1150.2</ele>
        <time>2022-09-18T11:52:24Z</time>
      </trkpt>
      <trkpt lat="44.66017" lon="6.19053">
        <ele>1150.2</ele>
        <time>2022-09-18T11:52:25Z</time>
      </trkpt>
      <trkpt lat="44.66017" lon="6.19049">
        <ele>1149.8</ele>
        <time>2022-09-18T11:52:26Z</time>
      </trkpt>
      <trkpt lat="44.66016" lon="6.19044">
        <ele>1149.8</ele>
        <time>2022-09-18T11:52:27Z</time>
      </trkpt>
      <trkpt lat="44.66015" lon="6.1904">
        <ele>1149.8</ele>
        <time>2022-09-18T11:52:28Z</time>
      </trkpt>
      <trkpt lat="44.66014" lon="6.19036">
        <ele>1149.8</ele>
        <time>2022-09-18T11:52:29Z</time>
      </trkpt>
      <trkpt lat="44.66013" lon="6.19031">
        <ele>1149.8</ele>
        <time>2022-09-18T11:52:30Z</time>
      </trkpt>
      <trkpt lat="44.66012" lon="6.19027">
        <ele>1149.8</ele>
        <time>2022-09-18T11:52:31Z</time>
      </trkpt>
      <trkpt lat="44.66011" lon="6.19023">
        <ele>1149.6</ele>
        <time>2022-09-18T11:52:32Z</time>
      </trkpt>
      <trkpt lat="44.66011" lon="6.19019">
        <ele>1149.4</ele>
        <time>2022-09-18T11:52:33Z</time>
      </trkpt>
      <trkpt lat="44.6601" lon="6.19014">
        <ele>1149.2</ele>
        <time>2022-09-18T11:52:34Z</time>
      </trkpt>
      <trkpt lat="44.66009" lon="6.1901">
        <ele>1148.8</ele>
        <time>2022-09-18T11:52:35Z</time>
      </trkpt>
      <trkpt lat="44.66008" lon="6.19006">
        <ele>1148.6</ele>
        <time>2022-09-18T11:52:36Z</time>
      </trkpt>
      <trkpt lat="44.66007" lon="6.19002">
        <ele>1148.6</ele>
        <time>2022-09-18T11:52:37Z</time>
      </trkpt>
      <trkpt lat="44.66006" lon="6.18997">
        <ele>1148.4</ele>
        <time>2022-09-18T11:52:38Z</time>
      </trkpt>
      <trkpt lat="44.66005" lon="6.18993">
        <ele>1148.4</ele>
        <time>2022-09-18T11:52:39Z</time>
      </trkpt>
      <trkpt lat="44.66004" lon="6.18988">
        <ele>1148.4</ele>
        <time>2022-09-18T11:52:40Z</time>
      </trkpt>
      <trkpt lat="44.66003" lon="6.18984">
        <ele>1148.4</ele>
        <time>2022-09-18T11:52:41Z</time>
      </trkpt>
      <trkpt lat="44.66001" lon="6.18979">
        <ele>1148.4</ele>
        <time>2022-09-18T11:52:42Z</time>
      </trkpt>
      <trkpt lat="44.66" lon="6.18974">
        <ele>1148.4</ele>
        <time>2022-09-18T11:52:43Z</time>
      </trkpt>
      <trkpt lat="44.65999" lon="6.18969">
        <ele>1148.4</ele>
        <time>2022-09-18T11:52:44Z</time>
      </trkpt>
      <trkpt lat="44.65998" lon="6.18965">
        <ele>1148.6</ele>
        <time>2022-09-18T11:52:45Z</time>
      </trkpt>
      <trkpt lat="44.65997" lon="6.1896">
        <ele>1148.4</ele>
        <time>2022-09-18T11:52:46Z</time>
      </trkpt>
      <trkpt lat="44.65995" lon="6.18955">
        <ele>1148.4</ele>
        <time>2022-09-18T11:52:47Z</time>
      </trkpt>
      <trkpt lat="44.65993" lon="6.18951">
        <ele>1148.2</ele>
        <time>2022-09-18T11:52:48Z</time>
      </trkpt>
      <trkpt lat="44.65992" lon="6.18946">
        <ele>1148.2</ele>
        <time>2022-09-18T11:52:49Z</time>
      </trkpt>
      <trkpt lat="44.6599" lon="6.18941">
        <ele>1148.2</ele>
        <time>2022-09-18T11:52:50Z</time>
      </trkpt>
      <trkpt lat="44.65989" lon="6.18937">
        <ele>1148.2</ele>
        <time>2022-09-18T11:52:51Z</time>
      </trkpt>
      <trkpt lat="44.65987" lon="6.18932">
        <ele>1148.2</ele>
        <time>2022-09-18T11:52:52Z</time>
      </trkpt>
      <trkpt lat="44.65985" lon="6.18927">
        <ele>1148</ele>
        <time>2022-09-18T11:52:53Z</time>
      </trkpt>
      <trkpt lat="44.65984" lon="6.18923">
        <ele>1148</ele>
        <time>2022-09-18T11:52:54Z</time>
      </trkpt>
      <trkpt lat="44.65982" lon="6.18918">
        <ele>1148</ele>
        <time>2022-09-18T11:52:55Z</time>
      </trkpt>
      <trkpt lat="44.6598" lon="6.18914">
        <ele>1148.2</ele>
        <time>2022-09-18T11:52:56Z</time>
      </trkpt>
      <trkpt lat="44.65979" lon="6.18909">
        <ele>1148</ele>
        <time>2022-09-18T11:52:57Z</time>
      </trkpt>
      <trkpt lat="44.65977" lon="6.18905">
        <ele>1148</ele>
        <time>2022-09-18T11:52:58Z</time>
      </trkpt>
      <trkpt lat="44.65975" lon="6.189">
        <ele>1148</ele>
        <time>2022-09-18T11:52:59Z</time>
      </trkpt>
      <trkpt lat="44.65974" lon="6.18896">
        <ele>1148</ele>
        <time>2022-09-18T11:53:00Z</time>
      </trkpt>
      <trkpt lat="44.65972" lon="6.18892">
        <ele>1148</ele>
        <time>2022-09-18T11:53:01Z</time>
      </trkpt>
      <trkpt lat="44.6597" lon="6.18888">
        <ele>1148</ele>
        <time>2022-09-18T11:53:02Z</time>
      </trkpt>
      <trkpt lat="44.65968" lon="6.18884">
        <ele>1147.8</ele>
        <time>2022-09-18T11:53:03Z</time>
      </trkpt>
      <trkpt lat="44.65967" lon="6.1888">
        <ele>1147.8</ele>
        <time>2022-09-18T11:53:04Z</time>
      </trkpt>
      <trkpt lat="44.65964" lon="6.18876">
        <ele>1147.8</ele>
        <time>2022-09-18T11:53:05Z</time>
      </trkpt>
      <trkpt lat="44.65962" lon="6.18873">
        <ele>1148</ele>
        <time>2022-09-18T11:53:06Z</time>
      </trkpt>
      <trkpt lat="44.6596" lon="6.18869">
        <ele>1147.8</ele>
        <time>2022-09-18T11:53:07Z</time>
      </trkpt>
      <trkpt lat="44.65958" lon="6.18865">
        <ele>1147.8</ele>
        <time>2022-09-18T11:53:08Z</time>
      </trkpt>
      <trkpt lat="44.65956" lon="6.18861">
        <ele>1147.8</ele>
        <time>2022-09-18T11:53:09Z</time>
      </trkpt>
      <trkpt lat="44.65954" lon="6.18857">
        <ele>1147.8</ele>
        <time>2022-09-18T11:53:10Z</time>
      </trkpt>
      <trkpt lat="44.65951" lon="6.18853">
        <ele>1147.8</ele>
        <time>2022-09-18T11:53:11Z</time>
      </trkpt>
      <trkpt lat="44.65949" lon="6.18849">
        <ele>1148</ele>
        <time>2022-09-18T11:53:12Z</time>
      </trkpt>
      <trkpt lat="44.65946" lon="6.18845">
        <ele>1147.8</ele>
        <time>2022-09-18T11:53:13Z</time>
      </trkpt>
      <trkpt lat="44.65944" lon="6.18841">
        <ele>1147.8</ele>
        <time>2022-09-18T11:53:14Z</time>
      </trkpt>
      <trkpt lat="44.65941" lon="6.18836">
        <ele>1147.6</ele>
        <time>2022-09-18T11:53:15Z</time>
      </trkpt>
      <trkpt lat="44.65939" lon="6.18832">
        <ele>1147.6</ele>
        <time>2022-09-18T11:53:16Z</time>
      </trkpt>
      <trkpt lat="44.65937" lon="6.18827">
        <ele>1147.8</ele>
        <time>2022-09-18T11:53:17Z</time>
      </trkpt>
      <trkpt lat="44.65935" lon="6.18822">
        <ele>1147.8</ele>
        <time>2022-09-18T11:53:18Z</time>
      </trkpt>
      <trkpt lat="44.65933" lon="6.18817">
        <ele>1147.8</ele>
        <time>2022-09-18T11:53:19Z</time>
      </trkpt>
      <trkpt lat="44.6593" lon="6.18812">
        <ele>1147.8</ele>
        <time>2022-09-18T11:53:20Z</time>
      </trkpt>
      <trkpt lat="44.65928" lon="6.18808">
        <ele>1147.6</ele>
        <time>2022-09-18T11:53:21Z</time>
      </trkpt>
      <trkpt lat="44.65926" lon="6.18803">
        <ele>1147.4</ele>
        <time>2022-09-18T11:53:22Z</time>
      </trkpt>
      <trkpt lat="44.65924" lon="6.18798">
        <ele>1147.4</ele>
        <time>2022-09-18T11:53:23Z</time>
      </trkpt>
      <trkpt lat="44.65921" lon="6.18793">
        <ele>1147.2</ele>
        <time>2022-09-18T11:53:24Z</time>
      </trkpt>
      <trkpt lat="44.65919" lon="6.18788">
        <ele>1147</ele>
        <time>2022-09-18T11:53:25Z</time>
      </trkpt>
      <trkpt lat="44.65917" lon="6.18783">
        <ele>1147</ele>
        <time>2022-09-18T11:53:26Z</time>
      </trkpt>
      <trkpt lat="44.65914" lon="6.18777">
        <ele>1147</ele>
        <time>2022-09-18T11:53:27Z</time>
      </trkpt>
      <trkpt lat="44.65912" lon="6.18772">
        <ele>1147</ele>
        <time>2022-09-18T11:53:28Z</time>
      </trkpt>
      <trkpt lat="44.6591" lon="6.18767">
        <ele>1147.2</ele>
        <time>2022-09-18T11:53:29Z</time>
      </trkpt>
      <trkpt lat="44.65908" lon="6.18761">
        <ele>1147</ele>
        <time>2022-09-18T11:53:30Z</time>
      </trkpt>
      <trkpt lat="44.65906" lon="6.18756">
        <ele>1146.8</ele>
        <time>2022-09-18T11:53:31Z</time>
      </trkpt>
      <trkpt lat="44.65904" lon="6.18751">
        <ele>1146.6</ele>
        <time>2022-09-18T11:53:32Z</time>
      </trkpt>
      <trkpt lat="44.65902" lon="6.18745">
        <ele>1146.4</ele>
        <time>2022-09-18T11:53:33Z</time>
      </trkpt>
      <trkpt lat="44.659" lon="6.1874">
        <ele>1146.4</ele>
        <time>2022-09-18T11:53:34Z</time>
      </trkpt>
      <trkpt lat="44.65898" lon="6.18735">
        <ele>1146.2</ele>
        <time>2022-09-18T11:53:35Z</time>
      </trkpt>
      <trkpt lat="44.65896" lon="6.18729">
        <ele>1146.2</ele>
        <time>2022-09-18T11:53:36Z</time>
      </trkpt>
      <trkpt lat="44.65894" lon="6.18724">
        <ele>1146.2</ele>
        <time>2022-09-18T11:53:37Z</time>
      </trkpt>
      <trkpt lat="44.65892" lon="6.18718">
        <ele>1146.2</ele>
        <time>2022-09-18T11:53:38Z</time>
      </trkpt>
      <trkpt lat="44.65891" lon="6.18712">
        <ele>1146.2</ele>
        <time>2022-09-18T11:53:39Z</time>
      </trkpt>
      <trkpt lat="44.65889" lon="6.18707">
        <ele>1146.2</ele>
        <time>2022-09-18T11:53:40Z</time>
      </trkpt>
      <trkpt lat="44.65888" lon="6.18701">
        <ele>1146</ele>
        <time>2022-09-18T11:53:41Z</time>
      </trkpt>
      <trkpt lat="44.65887" lon="6.18695">
        <ele>1146.2</ele>
        <time>2022-09-18T11:53:42Z</time>
      </trkpt>
      <trkpt lat="44.65886" lon="6.18689">
        <ele>1146.4</ele>
        <time>2022-09-18T11:53:43Z</time>
      </trkpt>
      <trkpt lat="44.65885" lon="6.18683">
        <ele>1146.4</ele>
        <time>2022-09-18T11:53:44Z</time>
      </trkpt>
      <trkpt lat="44.65884" lon="6.18677">
        <ele>1146.4</ele>
        <time>2022-09-18T11:53:45Z</time>
      </trkpt>
      <trkpt lat="44.65884" lon="6.1867">
        <ele>1146.2</ele>
        <time>2022-09-18T11:53:46Z</time>
      </trkpt>
      <trkpt lat="44.65884" lon="6.18664">
        <ele>1146.2</ele>
        <time>2022-09-18T11:53:47Z</time>
      </trkpt>
      <trkpt lat="44.65884" lon="6.18658">
        <ele>1146.2</ele>
        <time>2022-09-18T11:53:48Z</time>
      </trkpt>
      <trkpt lat="44.65884" lon="6.18651">
        <ele>1146</ele>
        <time>2022-09-18T11:53:49Z</time>
      </trkpt>
      <trkpt lat="44.65884" lon="6.18645">
        <ele>1146</ele>
        <time>2022-09-18T11:53:50Z</time>
      </trkpt>
      <trkpt lat="44.65883" lon="6.18638">
        <ele>1145.8</ele>
        <time>2022-09-18T11:53:51Z</time>
      </trkpt>
      <trkpt lat="44.65883" lon="6.18631">
        <ele>1145.6</ele>
        <time>2022-09-18T11:53:52Z</time>
      </trkpt>
      <trkpt lat="44.65882" lon="6.18624">
        <ele>1145.6</ele>
        <time>2022-09-18T11:53:53Z</time>
      </trkpt>
      <trkpt lat="44.65882" lon="6.18618">
        <ele>1145.6</ele>
        <time>2022-09-18T11:53:54Z</time>
      </trkpt>
      <trkpt lat="44.65881" lon="6.18611">
        <ele>1145.8</ele>
        <time>2022-09-18T11:53:55Z</time>
      </trkpt>
      <trkpt lat="44.65881" lon="6.18604">
        <ele>1145.8</ele>
        <time>2022-09-18T11:53:56Z</time>
      </trkpt>
      <trkpt lat="44.6588" lon="6.18597">
        <ele>1145.8</ele>
        <time>2022-09-18T11:53:57Z</time>
      </trkpt>
      <trkpt lat="44.65879" lon="6.18591">
        <ele>1145.8</ele>
        <time>2022-09-18T11:53:58Z</time>
      </trkpt>
      <trkpt lat="44.65878" lon="6.18584">
        <ele>1145.8</ele>
        <time>2022-09-18T11:53:59Z</time>
      </trkpt>
      <trkpt lat="44.65877" lon="6.18578">
        <ele>1145.6</ele>
        <time>2022-09-18T11:54:00Z</time>
      </trkpt>
      <trkpt lat="44.65875" lon="6.18572">
        <ele>1145.4</ele>
        <time>2022-09-18T11:54:01Z</time>
      </trkpt>
      <trkpt lat="44.65874" lon="6.18565">
        <ele>1145.4</ele>
        <time>2022-09-18T11:54:02Z</time>
      </trkpt>
      <trkpt lat="44.65873" lon="6.18559">
        <ele>1145.2</ele>
        <time>2022-09-18T11:54:03Z</time>
      </trkpt>
      <trkpt lat="44.65871" lon="6.18552">
        <ele>1145.2</ele>
        <time>2022-09-18T11:54:04Z</time>
      </trkpt>
      <trkpt lat="44.6587" lon="6.18545">
        <ele>1145.2</ele>
        <time>2022-09-18T11:54:05Z</time>
      </trkpt>
      <trkpt lat="44.65868" lon="6.18539">
        <ele>1145.4</ele>
        <time>2022-09-18T11:54:06Z</time>
      </trkpt>
      <trkpt lat="44.65866" lon="6.18533">
        <ele>1145.4</ele>
        <time>2022-09-18T11:54:07Z</time>
      </trkpt>
      <trkpt lat="44.65862" lon="6.18529">
        <ele>1145.2</ele>
        <time>2022-09-18T11:54:08Z</time>
      </trkpt>
      <trkpt lat="44.65858" lon="6.18526">
        <ele>1145.2</ele>
        <time>2022-09-18T11:54:09Z</time>
      </trkpt>
      <trkpt lat="44.65853" lon="6.18524">
        <ele>1145.4</ele>
        <time>2022-09-18T11:54:10Z</time>
      </trkpt>
      <trkpt lat="44.65849" lon="6.18522">
        <ele>1145.2</ele>
        <time>2022-09-18T11:54:11Z</time>
      </trkpt>
      <trkpt lat="44.65844" lon="6.18522">
        <ele>1145.2</ele>
        <time>2022-09-18T11:54:12Z</time>
      </trkpt>
      <trkpt lat="44.6584" lon="6.18522">
        <ele>1145</ele>
        <time>2022-09-18T11:54:13Z</time>
      </trkpt>
      <trkpt lat="44.65835" lon="6.18521">
        <ele>1145</ele>
        <time>2022-09-18T11:54:14Z</time>
      </trkpt>
      <trkpt lat="44.65831" lon="6.1852">
        <ele>1145</ele>
        <time>2022-09-18T11:54:15Z</time>
      </trkpt>
      <trkpt lat="44.65826" lon="6.18519">
        <ele>1145</ele>
        <time>2022-09-18T11:54:16Z</time>
      </trkpt>
      <trkpt lat="44.65822" lon="6.18517">
        <ele>1145.2</ele>
        <time>2022-09-18T11:54:17Z</time>
      </trkpt>
      <trkpt lat="44.65818" lon="6.18514">
        <ele>1145.2</ele>
        <time>2022-09-18T11:54:18Z</time>
      </trkpt>
      <trkpt lat="44.65815" lon="6.18511">
        <ele>1145.2</ele>
        <time>2022-09-18T11:54:19Z</time>
      </trkpt>
      <trkpt lat="44.65811" lon="6.18506">
        <ele>1145.2</ele>
        <time>2022-09-18T11:54:20Z</time>
      </trkpt>
      <trkpt lat="44.65808" lon="6.18501">
        <ele>1145.2</ele>
        <time>2022-09-18T11:54:21Z</time>
      </trkpt>
      <trkpt lat="44.65803" lon="6.1849">
        <ele>1144.8</ele>
        <time>2022-09-18T11:54:23Z</time>
      </trkpt>
      <trkpt lat="44.65801" lon="6.18484">
        <ele>1144.8</ele>
        <time>2022-09-18T11:54:24Z</time>
      </trkpt>
      <trkpt lat="44.65799" lon="6.18477">
        <ele>1144.6</ele>
        <time>2022-09-18T11:54:25Z</time>
      </trkpt>
      <trkpt lat="44.65797" lon="6.18471">
        <ele>1144.4</ele>
        <time>2022-09-18T11:54:26Z</time>
      </trkpt>
      <trkpt lat="44.65795" lon="6.18464">
        <ele>1144.2</ele>
        <time>2022-09-18T11:54:27Z</time>
      </trkpt>
      <trkpt lat="44.65793" lon="6.18458">
        <ele>1144.4</ele>
        <time>2022-09-18T11:54:28Z</time>
      </trkpt>
      <trkpt lat="44.65792" lon="6.18451">
        <ele>1144.4</ele>
        <time>2022-09-18T11:54:29Z</time>
      </trkpt>
      <trkpt lat="44.6579" lon="6.18445">
        <ele>1144.2</ele>
        <time>2022-09-18T11:54:30Z</time>
      </trkpt>
      <trkpt lat="44.65788" lon="6.18438">
        <ele>1144.2</ele>
        <time>2022-09-18T11:54:31Z</time>
      </trkpt>
      <trkpt lat="44.65787" lon="6.18431">
        <ele>1144.2</ele>
        <time>2022-09-18T11:54:32Z</time>
      </trkpt>
      <trkpt lat="44.65785" lon="6.18423">
        <ele>1144</ele>
        <time>2022-09-18T11:54:33Z</time>
      </trkpt>
      <trkpt lat="44.65784" lon="6.18416">
        <ele>1144.2</ele>
        <time>2022-09-18T11:54:34Z</time>
      </trkpt>
      <trkpt lat="44.65782" lon="6.18408">
        <ele>1144</ele>
        <time>2022-09-18T11:54:35Z</time>
      </trkpt>
      <trkpt lat="44.6578" lon="6.184">
        <ele>1143.8</ele>
        <time>2022-09-18T11:54:36Z</time>
      </trkpt>
      <trkpt lat="44.65779" lon="6.18393">
        <ele>1144</ele>
        <time>2022-09-18T11:54:37Z</time>
      </trkpt>
      <trkpt lat="44.65777" lon="6.18386">
        <ele>1144</ele>
        <time>2022-09-18T11:54:38Z</time>
      </trkpt>
      <trkpt lat="44.65775" lon="6.18379">
        <ele>1144</ele>
        <time>2022-09-18T11:54:39Z</time>
      </trkpt>
      <trkpt lat="44.65774" lon="6.18372">
        <ele>1143.6</ele>
        <time>2022-09-18T11:54:40Z</time>
      </trkpt>
      <trkpt lat="44.65772" lon="6.18364">
        <ele>1143.4</ele>
        <time>2022-09-18T11:54:41Z</time>
      </trkpt>
      <trkpt lat="44.6577" lon="6.18356">
        <ele>1143.2</ele>
        <time>2022-09-18T11:54:42Z</time>
      </trkpt>
      <trkpt lat="44.65768" lon="6.18347">
        <ele>1143</ele>
        <time>2022-09-18T11:54:43Z</time>
      </trkpt>
      <trkpt lat="44.65766" lon="6.18339">
        <ele>1143</ele>
        <time>2022-09-18T11:54:44Z</time>
      </trkpt>
      <trkpt lat="44.65764" lon="6.18331">
        <ele>1143</ele>
        <time>2022-09-18T11:54:45Z</time>
      </trkpt>
      <trkpt lat="44.65761" lon="6.18322">
        <ele>1142.8</ele>
        <time>2022-09-18T11:54:46Z</time>
      </trkpt>
      <trkpt lat="44.65759" lon="6.18314">
        <ele>1142.8</ele>
        <time>2022-09-18T11:54:47Z</time>
      </trkpt>
      <trkpt lat="44.65757" lon="6.18305">
        <ele>1142.6</ele>
        <time>2022-09-18T11:54:48Z</time>
      </trkpt>
      <trkpt lat="44.65754" lon="6.18296">
        <ele>1142.4</ele>
        <time>2022-09-18T11:54:49Z</time>
      </trkpt>
      <trkpt lat="44.65752" lon="6.18287">
        <ele>1142.6</ele>
        <time>2022-09-18T11:54:50Z</time>
      </trkpt>
      <trkpt lat="44.65749" lon="6.18278">
        <ele>1142.2</ele>
        <time>2022-09-18T11:54:51Z</time>
      </trkpt>
      <trkpt lat="44.65746" lon="6.18269">
        <ele>1141.8</ele>
        <time>2022-09-18T11:54:52Z</time>
      </trkpt>
      <trkpt lat="44.65744" lon="6.1826">
        <ele>1141.4</ele>
        <time>2022-09-18T11:54:53Z</time>
      </trkpt>
      <trkpt lat="44.65741" lon="6.18251">
        <ele>1141.4</ele>
        <time>2022-09-18T11:54:54Z</time>
      </trkpt>
      <trkpt lat="44.65737" lon="6.18241">
        <ele>1141.4</ele>
        <time>2022-09-18T11:54:55Z</time>
      </trkpt>
      <trkpt lat="44.65734" lon="6.18232">
        <ele>1141.2</ele>
        <time>2022-09-18T11:54:56Z</time>
      </trkpt>
      <trkpt lat="44.6573" lon="6.18222">
        <ele>1140.8</ele>
        <time>2022-09-18T11:54:57Z</time>
      </trkpt>
      <trkpt lat="44.65726" lon="6.18213">
        <ele>1140.4</ele>
        <time>2022-09-18T11:54:58Z</time>
      </trkpt>
      <trkpt lat="44.65722" lon="6.18204">
        <ele>1140.2</ele>
        <time>2022-09-18T11:54:59Z</time>
      </trkpt>
      <trkpt lat="44.65718" lon="6.18195">
        <ele>1140</ele>
        <time>2022-09-18T11:55:00Z</time>
      </trkpt>
      <trkpt lat="44.65714" lon="6.18186">
        <ele>1139.8</ele>
        <time>2022-09-18T11:55:01Z</time>
      </trkpt>
      <trkpt lat="44.6571" lon="6.18176">
        <ele>1139</ele>
        <time>2022-09-18T11:55:02Z</time>
      </trkpt>
      <trkpt lat="44.65707" lon="6.18166">
        <ele>1138.8</ele>
        <time>2022-09-18T11:55:03Z</time>
      </trkpt>
      <trkpt lat="44.65704" lon="6.18154">
        <ele>1138.6</ele>
        <time>2022-09-18T11:55:04Z</time>
      </trkpt>
      <trkpt lat="44.65702" lon="6.18142">
        <ele>1138.2</ele>
        <time>2022-09-18T11:55:05Z</time>
      </trkpt>
      <trkpt lat="44.65702" lon="6.18129">
        <ele>1137.8</ele>
        <time>2022-09-18T11:55:06Z</time>
      </trkpt>
      <trkpt lat="44.65701" lon="6.18116">
        <ele>1137.2</ele>
        <time>2022-09-18T11:55:07Z</time>
      </trkpt>
      <trkpt lat="44.657" lon="6.18104">
        <ele>1136.6</ele>
        <time>2022-09-18T11:55:08Z</time>
      </trkpt>
      <trkpt lat="44.65697" lon="6.18093">
        <ele>1136.2</ele>
        <time>2022-09-18T11:55:09Z</time>
      </trkpt>
      <trkpt lat="44.65691" lon="6.18085">
        <ele>1135.2</ele>
        <time>2022-09-18T11:55:10Z</time>
      </trkpt>
      <trkpt lat="44.65684" lon="6.1808">
        <ele>1134.6</ele>
        <time>2022-09-18T11:55:11Z</time>
      </trkpt>
      <trkpt lat="44.65676" lon="6.18077">
        <ele>1134.4</ele>
        <time>2022-09-18T11:55:12Z</time>
      </trkpt>
      <trkpt lat="44.65667" lon="6.18073">
        <ele>1134</ele>
        <time>2022-09-18T11:55:13Z</time>
      </trkpt>
      <trkpt lat="44.6566" lon="6.18067">
        <ele>1133.8</ele>
        <time>2022-09-18T11:55:14Z</time>
      </trkpt>
      <trkpt lat="44.65652" lon="6.1806">
        <ele>1133.6</ele>
        <time>2022-09-18T11:55:15Z</time>
      </trkpt>
      <trkpt lat="44.65647" lon="6.1805">
        <ele>1133.4</ele>
        <time>2022-09-18T11:55:16Z</time>
      </trkpt>
      <trkpt lat="44.65643" lon="6.1804">
        <ele>1133.2</ele>
        <time>2022-09-18T11:55:17Z</time>
      </trkpt>
      <trkpt lat="44.65639" lon="6.1803">
        <ele>1132.6</ele>
        <time>2022-09-18T11:55:18Z</time>
      </trkpt>
      <trkpt lat="44.65635" lon="6.18021">
        <ele>1132.2</ele>
        <time>2022-09-18T11:55:19Z</time>
      </trkpt>
      <trkpt lat="44.65631" lon="6.18012">
        <ele>1131.6</ele>
        <time>2022-09-18T11:55:20Z</time>
      </trkpt>
      <trkpt lat="44.65627" lon="6.18004">
        <ele>1131.6</ele>
        <time>2022-09-18T11:55:21Z</time>
      </trkpt>
      <trkpt lat="44.65621" lon="6.17997">
        <ele>1131.4</ele>
        <time>2022-09-18T11:55:22Z</time>
      </trkpt>
      <trkpt lat="44.65615" lon="6.1799">
        <ele>1131.8</ele>
        <time>2022-09-18T11:55:23Z</time>
      </trkpt>
      <trkpt lat="44.65608" lon="6.17983">
        <ele>1131.4</ele>
        <time>2022-09-18T11:55:24Z</time>
      </trkpt>
      <trkpt lat="44.65602" lon="6.17976">
        <ele>1131.6</ele>
        <time>2022-09-18T11:55:25Z</time>
      </trkpt>
      <trkpt lat="44.65595" lon="6.17969">
        <ele>1131.4</ele>
        <time>2022-09-18T11:55:26Z</time>
      </trkpt>
      <trkpt lat="44.65589" lon="6.17961">
        <ele>1131.2</ele>
        <time>2022-09-18T11:55:27Z</time>
      </trkpt>
      <trkpt lat="44.65582" lon="6.17952">
        <ele>1130.6</ele>
        <time>2022-09-18T11:55:28Z</time>
      </trkpt>
      <trkpt lat="44.65576" lon="6.17943">
        <ele>1129.8</ele>
        <time>2022-09-18T11:55:29Z</time>
      </trkpt>
      <trkpt lat="44.65571" lon="6.17933">
        <ele>1129.6</ele>
        <time>2022-09-18T11:55:30Z</time>
      </trkpt>
      <trkpt lat="44.65567" lon="6.17921">
        <ele>1129.4</ele>
        <time>2022-09-18T11:55:31Z</time>
      </trkpt>
      <trkpt lat="44.65564" lon="6.1791">
        <ele>1129.2</ele>
        <time>2022-09-18T11:55:32Z</time>
      </trkpt>
      <trkpt lat="44.65561" lon="6.17898">
        <ele>1129.2</ele>
        <time>2022-09-18T11:55:33Z</time>
      </trkpt>
      <trkpt lat="44.6556" lon="6.17886">
        <ele>1128.4</ele>
        <time>2022-09-18T11:55:34Z</time>
      </trkpt>
      <trkpt lat="44.65558" lon="6.17873">
        <ele>1128.4</ele>
        <time>2022-09-18T11:55:35Z</time>
      </trkpt>
      <trkpt lat="44.65555" lon="6.17861">
        <ele>1128</ele>
        <time>2022-09-18T11:55:36Z</time>
      </trkpt>
      <trkpt lat="44.65553" lon="6.17849">
        <ele>1127.6</ele>
        <time>2022-09-18T11:55:37Z</time>
      </trkpt>
      <trkpt lat="44.6555" lon="6.17837">
        <ele>1127</ele>
        <time>2022-09-18T11:55:38Z</time>
      </trkpt>
      <trkpt lat="44.65547" lon="6.17824">
        <ele>1126.6</ele>
        <time>2022-09-18T11:55:39Z</time>
      </trkpt>
      <trkpt lat="44.65543" lon="6.17812">
        <ele>1126.2</ele>
        <time>2022-09-18T11:55:40Z</time>
      </trkpt>
      <trkpt lat="44.65538" lon="6.17801">
        <ele>1125.8</ele>
        <time>2022-09-18T11:55:41Z</time>
      </trkpt>
      <trkpt lat="44.65533" lon="6.17791">
        <ele>1125</ele>
        <time>2022-09-18T11:55:42Z</time>
      </trkpt>
      <trkpt lat="44.65526" lon="6.17783">
        <ele>1124.4</ele>
        <time>2022-09-18T11:55:43Z</time>
      </trkpt>
      <trkpt lat="44.65519" lon="6.17777">
        <ele>1123.8</ele>
        <time>2022-09-18T11:55:44Z</time>
      </trkpt>
      <trkpt lat="44.65513" lon="6.17772">
        <ele>1123.2</ele>
        <time>2022-09-18T11:55:45Z</time>
      </trkpt>
      <trkpt lat="44.65507" lon="6.17768">
        <ele>1122.8</ele>
        <time>2022-09-18T11:55:46Z</time>
      </trkpt>
      <trkpt lat="44.65501" lon="6.17764">
        <ele>1122</ele>
        <time>2022-09-18T11:55:47Z</time>
      </trkpt>
      <trkpt lat="44.65498" lon="6.17761">
        <ele>1121.2</ele>
        <time>2022-09-18T11:55:48Z</time>
      </trkpt>
      <trkpt lat="44.65496" lon="6.17758">
        <ele>1120.4</ele>
        <time>2022-09-18T11:55:49Z</time>
      </trkpt>
      <trkpt lat="44.65495" lon="6.17756">
        <ele>1119</ele>
        <time>2022-09-18T11:56:14Z</time>
      </trkpt>
      <trkpt lat="44.65495" lon="6.17753">
        <ele>1119.2</ele>
        <time>2022-09-18T11:56:15Z</time>
      </trkpt>
      <trkpt lat="44.65495" lon="6.1775">
        <ele>1119.2</ele>
        <time>2022-09-18T11:56:16Z</time>
      </trkpt>
      <trkpt lat="44.65496" lon="6.17747">
        <ele>1119.2</ele>
        <time>2022-09-18T11:56:17Z</time>
      </trkpt>
      <trkpt lat="44.65496" lon="6.17745">
        <ele>1119.4</ele>
        <time>2022-09-18T11:56:18Z</time>
      </trkpt>
      <trkpt lat="44.65496" lon="6.17741">
        <ele>1119.6</ele>
        <time>2022-09-18T11:56:19Z</time>
      </trkpt>
      <trkpt lat="44.65496" lon="6.17738">
        <ele>1119.8</ele>
        <time>2022-09-18T11:56:20Z</time>
      </trkpt>
      <trkpt lat="44.65496" lon="6.17734">
        <ele>1120</ele>
        <time>2022-09-18T11:56:21Z</time>
      </trkpt>
      <trkpt lat="44.65495" lon="6.1773">
        <ele>1119.6</ele>
        <time>2022-09-18T11:56:22Z</time>
      </trkpt>
      <trkpt lat="44.65494" lon="6.17726">
        <ele>1120</ele>
        <time>2022-09-18T11:56:23Z</time>
      </trkpt>
      <trkpt lat="44.65493" lon="6.17721">
        <ele>1120.4</ele>
        <time>2022-09-18T11:56:24Z</time>
      </trkpt>
      <trkpt lat="44.65492" lon="6.17717">
        <ele>1120.6</ele>
        <time>2022-09-18T11:56:25Z</time>
      </trkpt>
      <trkpt lat="44.65491" lon="6.17712">
        <ele>1121</ele>
        <time>2022-09-18T11:56:26Z</time>
      </trkpt>
      <trkpt lat="44.6549" lon="6.17708">
        <ele>1121.4</ele>
        <time>2022-09-18T11:56:27Z</time>
      </trkpt>
      <trkpt lat="44.6549" lon="6.17704">
        <ele>1121.6</ele>
        <time>2022-09-18T11:56:28Z</time>
      </trkpt>
      <trkpt lat="44.6549" lon="6.17699">
        <ele>1121.8</ele>
        <time>2022-09-18T11:56:29Z</time>
      </trkpt>
      <trkpt lat="44.6549" lon="6.17694">
        <ele>1122.2</ele>
        <time>2022-09-18T11:56:30Z</time>
      </trkpt>
      <trkpt lat="44.6549" lon="6.17689">
        <ele>1122.6</ele>
        <time>2022-09-18T11:56:31Z</time>
      </trkpt>
      <trkpt lat="44.65491" lon="6.17685">
        <ele>1122.6</ele>
        <time>2022-09-18T11:56:32Z</time>
      </trkpt>
      <trkpt lat="44.65491" lon="6.1768">
        <ele>1122.4</ele>
        <time>2022-09-18T11:56:33Z</time>
      </trkpt>
      <trkpt lat="44.65492" lon="6.17675">
        <ele>1122.4</ele>
        <time>2022-09-18T11:56:34Z</time>
      </trkpt>
      <trkpt lat="44.65493" lon="6.17671">
        <ele>1122.6</ele>
        <time>2022-09-18T11:56:35Z</time>
      </trkpt>
      <trkpt lat="44.65494" lon="6.17667">
        <ele>1122.6</ele>
        <time>2022-09-18T11:56:36Z</time>
      </trkpt>
      <trkpt lat="44.65495" lon="6.17663">
        <ele>1122.8</ele>
        <time>2022-09-18T11:56:37Z</time>
      </trkpt>
      <trkpt lat="44.65496" lon="6.1766">
        <ele>1123</ele>
        <time>2022-09-18T11:56:38Z</time>
      </trkpt>
      <trkpt lat="44.65497" lon="6.17656">
        <ele>1123</ele>
        <time>2022-09-18T11:56:39Z</time>
      </trkpt>
      <trkpt lat="44.65498" lon="6.17653">
        <ele>1123.2</ele>
        <time>2022-09-18T11:56:40Z</time>
      </trkpt>
      <trkpt lat="44.65499" lon="6.17649">
        <ele>1123.2</ele>
        <time>2022-09-18T11:56:41Z</time>
      </trkpt>
      <trkpt lat="44.655" lon="6.17644">
        <ele>1123.6</ele>
        <time>2022-09-18T11:56:42Z</time>
      </trkpt>
      <trkpt lat="44.65501" lon="6.1764">
        <ele>1123.4</ele>
        <time>2022-09-18T11:56:43Z</time>
      </trkpt>
      <trkpt lat="44.65503" lon="6.17636">
        <ele>1123.2</ele>
        <time>2022-09-18T11:56:44Z</time>
      </trkpt>
      <trkpt lat="44.65505" lon="6.17632">
        <ele>1123.2</ele>
        <time>2022-09-18T11:56:45Z</time>
      </trkpt>
      <trkpt lat="44.65507" lon="6.17628">
        <ele>1123.2</ele>
        <time>2022-09-18T11:56:46Z</time>
      </trkpt>
      <trkpt lat="44.65509" lon="6.17625">
        <ele>1123</ele>
        <time>2022-09-18T11:56:47Z</time>
      </trkpt>
      <trkpt lat="44.65512" lon="6.17621">
        <ele>1122.8</ele>
        <time>2022-09-18T11:56:48Z</time>
      </trkpt>
      <trkpt lat="44.65515" lon="6.17617">
        <ele>1122.8</ele>
        <time>2022-09-18T11:56:49Z</time>
      </trkpt>
      <trkpt lat="44.65519" lon="6.17614">
        <ele>1122.8</ele>
        <time>2022-09-18T11:56:50Z</time>
      </trkpt>
      <trkpt lat="44.65522" lon="6.17612">
        <ele>1123</ele>
        <time>2022-09-18T11:56:51Z</time>
      </trkpt>
      <trkpt lat="44.65526" lon="6.17609">
        <ele>1122.8</ele>
        <time>2022-09-18T11:56:52Z</time>
      </trkpt>
      <trkpt lat="44.65529" lon="6.17607">
        <ele>1123</ele>
        <time>2022-09-18T11:56:53Z</time>
      </trkpt>
      <trkpt lat="44.65532" lon="6.17605">
        <ele>1122.8</ele>
        <time>2022-09-18T11:56:54Z</time>
      </trkpt>
      <trkpt lat="44.65535" lon="6.17603">
        <ele>1122.6</ele>
        <time>2022-09-18T11:56:55Z</time>
      </trkpt>
      <trkpt lat="44.65538" lon="6.17602">
        <ele>1123</ele>
        <time>2022-09-18T11:56:56Z</time>
      </trkpt>
      <trkpt lat="44.65541" lon="6.17601">
        <ele>1123</ele>
        <time>2022-09-18T11:56:57Z</time>
      </trkpt>
      <trkpt lat="44.65543" lon="6.176">
        <ele>1123</ele>
        <time>2022-09-18T11:56:58Z</time>
      </trkpt>
      <trkpt lat="44.65545" lon="6.17598">
        <ele>1123.2</ele>
        <time>2022-09-18T11:56:59Z</time>
      </trkpt>
      <trkpt lat="44.65546" lon="6.17595">
        <ele>1123.6</ele>
        <time>2022-09-18T11:57:00Z</time>
      </trkpt>
      <trkpt lat="44.65548" lon="6.17591">
        <ele>1123.4</ele>
        <time>2022-09-18T11:57:01Z</time>
      </trkpt>
      <trkpt lat="44.65549" lon="6.17588">
        <ele>1123.6</ele>
        <time>2022-09-18T11:57:02Z</time>
      </trkpt>
      <trkpt lat="44.65551" lon="6.17584">
        <ele>1123.4</ele>
        <time>2022-09-18T11:57:03Z</time>
      </trkpt>
      <trkpt lat="44.65553" lon="6.1758">
        <ele>1123.6</ele>
        <time>2022-09-18T11:57:04Z</time>
      </trkpt>
      <trkpt lat="44.65555" lon="6.17576">
        <ele>1123.8</ele>
        <time>2022-09-18T11:57:05Z</time>
      </trkpt>
      <trkpt lat="44.65557" lon="6.17572">
        <ele>1123.6</ele>
        <time>2022-09-18T11:57:06Z</time>
      </trkpt>
      <trkpt lat="44.65559" lon="6.17568">
        <ele>1123.8</ele>
        <time>2022-09-18T11:57:07Z</time>
      </trkpt>
      <trkpt lat="44.65562" lon="6.17564">
        <ele>1123.4</ele>
        <time>2022-09-18T11:57:08Z</time>
      </trkpt>
      <trkpt lat="44.65565" lon="6.17561">
        <ele>1123.4</ele>
        <time>2022-09-18T11:57:09Z</time>
      </trkpt>
      <trkpt lat="44.65568" lon="6.17558">
        <ele>1123.6</ele>
        <time>2022-09-18T11:57:10Z</time>
      </trkpt>
      <trkpt lat="44.65571" lon="6.17556">
        <ele>1123.6</ele>
        <time>2022-09-18T11:57:11Z</time>
      </trkpt>
      <trkpt lat="44.65574" lon="6.17554">
        <ele>1123.8</ele>
        <time>2022-09-18T11:57:12Z</time>
      </trkpt>
      <trkpt lat="44.65577" lon="6.17552">
        <ele>1124</ele>
        <time>2022-09-18T11:57:13Z</time>
      </trkpt>
      <trkpt lat="44.6558" lon="6.17551">
        <ele>1124</ele>
        <time>2022-09-18T11:57:14Z</time>
      </trkpt>
      <trkpt lat="44.65583" lon="6.17551">
        <ele>1124</ele>
        <time>2022-09-18T11:57:15Z</time>
      </trkpt>
      <trkpt lat="44.65586" lon="6.1755">
        <ele>1124</ele>
        <time>2022-09-18T11:57:16Z</time>
      </trkpt>
      <trkpt lat="44.65589" lon="6.1755">
        <ele>1124</ele>
        <time>2022-09-18T11:57:17Z</time>
      </trkpt>
      <trkpt lat="44.65592" lon="6.1755">
        <ele>1124</ele>
        <time>2022-09-18T11:57:18Z</time>
      </trkpt>
      <trkpt lat="44.65595" lon="6.1755">
        <ele>1124.2</ele>
        <time>2022-09-18T11:57:19Z</time>
      </trkpt>
      <trkpt lat="44.65598" lon="6.17549">
        <ele>1124.4</ele>
        <time>2022-09-18T11:57:20Z</time>
      </trkpt>
      <trkpt lat="44.65602" lon="6.17549">
        <ele>1124.4</ele>
        <time>2022-09-18T11:57:21Z</time>
      </trkpt>
      <trkpt lat="44.65605" lon="6.17548">
        <ele>1124.6</ele>
        <time>2022-09-18T11:57:22Z</time>
      </trkpt>
      <trkpt lat="44.65608" lon="6.17547">
        <ele>1124.8</ele>
        <time>2022-09-18T11:57:23Z</time>
      </trkpt>
      <trkpt lat="44.65611" lon="6.17546">
        <ele>1125.4</ele>
        <time>2022-09-18T11:57:24Z</time>
      </trkpt>
      <trkpt lat="44.65614" lon="6.17544">
        <ele>1125.6</ele>
        <time>2022-09-18T11:57:25Z</time>
      </trkpt>
      <trkpt lat="44.65617" lon="6.17542">
        <ele>1125.8</ele>
        <time>2022-09-18T11:57:26Z</time>
      </trkpt>
      <trkpt lat="44.65619" lon="6.1754">
        <ele>1126</ele>
        <time>2022-09-18T11:57:27Z</time>
      </trkpt>
      <trkpt lat="44.65622" lon="6.17538">
        <ele>1126.4</ele>
        <time>2022-09-18T11:57:28Z</time>
      </trkpt>
      <trkpt lat="44.65625" lon="6.17536">
        <ele>1126.6</ele>
        <time>2022-09-18T11:57:29Z</time>
      </trkpt>
      <trkpt lat="44.65628" lon="6.17534">
        <ele>1127.2</ele>
        <time>2022-09-18T11:57:30Z</time>
      </trkpt>
      <trkpt lat="44.6563" lon="6.17532">
        <ele>1127.6</ele>
        <time>2022-09-18T11:57:31Z</time>
      </trkpt>
      <trkpt lat="44.65633" lon="6.1753">
        <ele>1128</ele>
        <time>2022-09-18T11:57:32Z</time>
      </trkpt>
      <trkpt lat="44.65636" lon="6.17528">
        <ele>1128.4</ele>
        <time>2022-09-18T11:57:33Z</time>
      </trkpt>
      <trkpt lat="44.65638" lon="6.17526">
        <ele>1129</ele>
        <time>2022-09-18T11:57:34Z</time>
      </trkpt>
      <trkpt lat="44.6564" lon="6.17524">
        <ele>1129.2</ele>
        <time>2022-09-18T11:57:35Z</time>
      </trkpt>
      <trkpt lat="44.65643" lon="6.17521">
        <ele>1129.6</ele>
        <time>2022-09-18T11:57:36Z</time>
      </trkpt>
      <trkpt lat="44.65645" lon="6.17518">
        <ele>1130</ele>
        <time>2022-09-18T11:57:37Z</time>
      </trkpt>
      <trkpt lat="44.65647" lon="6.17516">
        <ele>1130.2</ele>
        <time>2022-09-18T11:57:38Z</time>
      </trkpt>
      <trkpt lat="44.65649" lon="6.17513">
        <ele>1130.6</ele>
        <time>2022-09-18T11:57:39Z</time>
      </trkpt>
      <trkpt lat="44.65651" lon="6.17511">
        <ele>1131</ele>
        <time>2022-09-18T11:57:40Z</time>
      </trkpt>
      <trkpt lat="44.65653" lon="6.17508">
        <ele>1131.4</ele>
        <time>2022-09-18T11:57:41Z</time>
      </trkpt>
      <trkpt lat="44.65655" lon="6.17505">
        <ele>1131.8</ele>
        <time>2022-09-18T11:57:42Z</time>
      </trkpt>
      <trkpt lat="44.65657" lon="6.17503">
        <ele>1132.2</ele>
        <time>2022-09-18T11:57:43Z</time>
      </trkpt>
      <trkpt lat="44.65659" lon="6.175">
        <ele>1132.6</ele>
        <time>2022-09-18T11:57:44Z</time>
      </trkpt>
      <trkpt lat="44.65661" lon="6.17498">
        <ele>1132.8</ele>
        <time>2022-09-18T11:57:45Z</time>
      </trkpt>
      <trkpt lat="44.65663" lon="6.17496">
        <ele>1133</ele>
        <time>2022-09-18T11:57:46Z</time>
      </trkpt>
      <trkpt lat="44.65665" lon="6.17493">
        <ele>1133.4</ele>
        <time>2022-09-18T11:57:47Z</time>
      </trkpt>
      <trkpt lat="44.65667" lon="6.17491">
        <ele>1133.8</ele>
        <time>2022-09-18T11:57:48Z</time>
      </trkpt>
      <trkpt lat="44.65669" lon="6.17489">
        <ele>1134</ele>
        <time>2022-09-18T11:57:49Z</time>
      </trkpt>
      <trkpt lat="44.65671" lon="6.17486">
        <ele>1134.4</ele>
        <time>2022-09-18T11:57:50Z</time>
      </trkpt>
      <trkpt lat="44.65673" lon="6.17483">
        <ele>1134.6</ele>
        <time>2022-09-18T11:57:51Z</time>
      </trkpt>
      <trkpt lat="44.65674" lon="6.17481">
        <ele>1134.8</ele>
        <time>2022-09-18T11:57:52Z</time>
      </trkpt>
      <trkpt lat="44.65676" lon="6.17479">
        <ele>1135.2</ele>
        <time>2022-09-18T11:57:53Z</time>
      </trkpt>
      <trkpt lat="44.65678" lon="6.17476">
        <ele>1135.4</ele>
        <time>2022-09-18T11:57:54Z</time>
      </trkpt>
      <trkpt lat="44.6568" lon="6.17474">
        <ele>1135.8</ele>
        <time>2022-09-18T11:57:55Z</time>
      </trkpt>
      <trkpt lat="44.65682" lon="6.17471">
        <ele>1136</ele>
        <time>2022-09-18T11:57:56Z</time>
      </trkpt>
      <trkpt lat="44.65684" lon="6.17468">
        <ele>1136.2</ele>
        <time>2022-09-18T11:57:57Z</time>
      </trkpt>
      <trkpt lat="44.65685" lon="6.17466">
        <ele>1136.4</ele>
        <time>2022-09-18T11:57:58Z</time>
      </trkpt>
      <trkpt lat="44.65687" lon="6.17463">
        <ele>1136.4</ele>
        <time>2022-09-18T11:57:59Z</time>
      </trkpt>
      <trkpt lat="44.65688" lon="6.1746">
        <ele>1136.8</ele>
        <time>2022-09-18T11:58:00Z</time>
      </trkpt>
      <trkpt lat="44.65688" lon="6.17457">
        <ele>1137.2</ele>
        <time>2022-09-18T11:58:01Z</time>
      </trkpt>
      <trkpt lat="44.65689" lon="6.17453">
        <ele>1137.4</ele>
        <time>2022-09-18T11:58:02Z</time>
      </trkpt>
      <trkpt lat="44.6569" lon="6.1745">
        <ele>1137.4</ele>
        <time>2022-09-18T11:58:03Z</time>
      </trkpt>
      <trkpt lat="44.6569" lon="6.17447">
        <ele>1137.6</ele>
        <time>2022-09-18T11:58:04Z</time>
      </trkpt>
      <trkpt lat="44.65691" lon="6.17443">
        <ele>1138</ele>
        <time>2022-09-18T11:58:05Z</time>
      </trkpt>
      <trkpt lat="44.65692" lon="6.1744">
        <ele>1138.2</ele>
        <time>2022-09-18T11:58:06Z</time>
      </trkpt>
      <trkpt lat="44.65692" lon="6.17437">
        <ele>1138.2</ele>
        <time>2022-09-18T11:58:07Z</time>
      </trkpt>
      <trkpt lat="44.65693" lon="6.17434">
        <ele>1138.6</ele>
        <time>2022-09-18T11:58:08Z</time>
      </trkpt>
      <trkpt lat="44.65693" lon="6.17431">
        <ele>1138.6</ele>
        <time>2022-09-18T11:58:09Z</time>
      </trkpt>
      <trkpt lat="44.65693" lon="6.17427">
        <ele>1139.2</ele>
        <time>2022-09-18T11:58:10Z</time>
      </trkpt>
      <trkpt lat="44.65694" lon="6.17424">
        <ele>1139.2</ele>
        <time>2022-09-18T11:58:11Z</time>
      </trkpt>
      <trkpt lat="44.65694" lon="6.1742">
        <ele>1139.4</ele>
        <time>2022-09-18T11:58:12Z</time>
      </trkpt>
      <trkpt lat="44.65694" lon="6.17417">
        <ele>1139.8</ele>
        <time>2022-09-18T11:58:13Z</time>
      </trkpt>
      <trkpt lat="44.65694" lon="6.17413">
        <ele>1140</ele>
        <time>2022-09-18T11:58:14Z</time>
      </trkpt>
      <trkpt lat="44.65694" lon="6.1741">
        <ele>1140.2</ele>
        <time>2022-09-18T11:58:15Z</time>
      </trkpt>
      <trkpt lat="44.65694" lon="6.17406">
        <ele>1140.4</ele>
        <time>2022-09-18T11:58:16Z</time>
      </trkpt>
      <trkpt lat="44.65694" lon="6.17403">
        <ele>1140.6</ele>
        <time>2022-09-18T11:58:17Z</time>
      </trkpt>
      <trkpt lat="44.65694" lon="6.17399">
        <ele>1141.2</ele>
        <time>2022-09-18T11:58:18Z</time>
      </trkpt>
      <trkpt lat="44.65694" lon="6.17395">
        <ele>1141.4</ele>
        <time>2022-09-18T11:58:19Z</time>
      </trkpt>
      <trkpt lat="44.65694" lon="6.17391">
        <ele>1141.6</ele>
        <time>2022-09-18T11:58:20Z</time>
      </trkpt>
      <trkpt lat="44.65693" lon="6.17388">
        <ele>1141.8</ele>
        <time>2022-09-18T11:58:21Z</time>
      </trkpt>
      <trkpt lat="44.65693" lon="6.17384">
        <ele>1142</ele>
        <time>2022-09-18T11:58:22Z</time>
      </trkpt>
      <trkpt lat="44.65693" lon="6.17381">
        <ele>1142.2</ele>
        <time>2022-09-18T11:58:23Z</time>
      </trkpt>
      <trkpt lat="44.65693" lon="6.17377">
        <ele>1142.4</ele>
        <time>2022-09-18T11:58:24Z</time>
      </trkpt>
      <trkpt lat="44.65693" lon="6.17374">
        <ele>1142.4</ele>
        <time>2022-09-18T11:58:25Z</time>
      </trkpt>
      <trkpt lat="44.65693" lon="6.1737">
        <ele>1142.6</ele>
        <time>2022-09-18T11:58:26Z</time>
      </trkpt>
      <trkpt lat="44.65693" lon="6.17367">
        <ele>1142.6</ele>
        <time>2022-09-18T11:58:27Z</time>
      </trkpt>
      <trkpt lat="44.65693" lon="6.17364">
        <ele>1143</ele>
        <time>2022-09-18T11:58:28Z</time>
      </trkpt>
      <trkpt lat="44.65693" lon="6.1736">
        <ele>1143.2</ele>
        <time>2022-09-18T11:58:29Z</time>
      </trkpt>
      <trkpt lat="44.65693" lon="6.17356">
        <ele>1143.4</ele>
        <time>2022-09-18T11:58:30Z</time>
      </trkpt>
      <trkpt lat="44.65693" lon="6.17352">
        <ele>1143.6</ele>
        <time>2022-09-18T11:58:31Z</time>
      </trkpt>
      <trkpt lat="44.65693" lon="6.17348">
        <ele>1143.6</ele>
        <time>2022-09-18T11:58:32Z</time>
      </trkpt>
      <trkpt lat="44.65693" lon="6.17344">
        <ele>1143.4</ele>
        <time>2022-09-18T11:58:33Z</time>
      </trkpt>
      <trkpt lat="44.65693" lon="6.1734">
        <ele>1143.4</ele>
        <time>2022-09-18T11:58:34Z</time>
      </trkpt>
      <trkpt lat="44.65693" lon="6.17336">
        <ele>1143.4</ele>
        <time>2022-09-18T11:58:35Z</time>
      </trkpt>
      <trkpt lat="44.65693" lon="6.17332">
        <ele>1143.4</ele>
        <time>2022-09-18T11:58:36Z</time>
      </trkpt>
      <trkpt lat="44.65693" lon="6.17329">
        <ele>1143.2</ele>
        <time>2022-09-18T11:58:37Z</time>
      </trkpt>
      <trkpt lat="44.65693" lon="6.17325">
        <ele>1143</ele>
        <time>2022-09-18T11:58:38Z</time>
      </trkpt>
      <trkpt lat="44.65692" lon="6.17321">
        <ele>1143.2</ele>
        <time>2022-09-18T11:58:39Z</time>
      </trkpt>
      <trkpt lat="44.65692" lon="6.17317">
        <ele>1143</ele>
        <time>2022-09-18T11:58:40Z</time>
      </trkpt>
      <trkpt lat="44.65692" lon="6.17313">
        <ele>1143</ele>
        <time>2022-09-18T11:58:41Z</time>
      </trkpt>
      <trkpt lat="44.65692" lon="6.17309">
        <ele>1143</ele>
        <time>2022-09-18T11:58:42Z</time>
      </trkpt>
      <trkpt lat="44.65692" lon="6.17305">
        <ele>1142.8</ele>
        <time>2022-09-18T11:58:43Z</time>
      </trkpt>
      <trkpt lat="44.65692" lon="6.17302">
        <ele>1142.8</ele>
        <time>2022-09-18T11:58:44Z</time>
      </trkpt>
      <trkpt lat="44.65692" lon="6.17298">
        <ele>1142.8</ele>
        <time>2022-09-18T11:58:45Z</time>
      </trkpt>
      <trkpt lat="44.65692" lon="6.17294">
        <ele>1142.6</ele>
        <time>2022-09-18T11:58:46Z</time>
      </trkpt>
      <trkpt lat="44.65692" lon="6.1729">
        <ele>1142.6</ele>
        <time>2022-09-18T11:58:47Z</time>
      </trkpt>
      <trkpt lat="44.65692" lon="6.17287">
        <ele>1142.4</ele>
        <time>2022-09-18T11:58:48Z</time>
      </trkpt>
      <trkpt lat="44.65692" lon="6.17283">
        <ele>1142.4</ele>
        <time>2022-09-18T11:58:49Z</time>
      </trkpt>
      <trkpt lat="44.65691" lon="6.17278">
        <ele>1142.4</ele>
        <time>2022-09-18T11:58:50Z</time>
      </trkpt>
      <trkpt lat="44.65691" lon="6.17274">
        <ele>1142.2</ele>
        <time>2022-09-18T11:58:51Z</time>
      </trkpt>
      <trkpt lat="44.65691" lon="6.1727">
        <ele>1142.2</ele>
        <time>2022-09-18T11:58:52Z</time>
      </trkpt>
      <trkpt lat="44.6569" lon="6.17266">
        <ele>1142.4</ele>
        <time>2022-09-18T11:58:53Z</time>
      </trkpt>
      <trkpt lat="44.6569" lon="6.17262">
        <ele>1142.4</ele>
        <time>2022-09-18T11:58:54Z</time>
      </trkpt>
      <trkpt lat="44.65689" lon="6.17258">
        <ele>1142.4</ele>
        <time>2022-09-18T11:58:55Z</time>
      </trkpt>
      <trkpt lat="44.65689" lon="6.17253">
        <ele>1142.2</ele>
        <time>2022-09-18T11:58:56Z</time>
      </trkpt>
      <trkpt lat="44.65689" lon="6.17249">
        <ele>1142.2</ele>
        <time>2022-09-18T11:58:57Z</time>
      </trkpt>
      <trkpt lat="44.65688" lon="6.17245">
        <ele>1142.2</ele>
        <time>2022-09-18T11:58:58Z</time>
      </trkpt>
      <trkpt lat="44.65688" lon="6.17241">
        <ele>1142.2</ele>
        <time>2022-09-18T11:58:59Z</time>
      </trkpt>
      <trkpt lat="44.65687" lon="6.17237">
        <ele>1142.4</ele>
        <time>2022-09-18T11:59:00Z</time>
      </trkpt>
      <trkpt lat="44.65687" lon="6.17232">
        <ele>1142.2</ele>
        <time>2022-09-18T11:59:01Z</time>
      </trkpt>
      <trkpt lat="44.65687" lon="6.17228">
        <ele>1142.4</ele>
        <time>2022-09-18T11:59:02Z</time>
      </trkpt>
      <trkpt lat="44.65687" lon="6.17224">
        <ele>1142.6</ele>
        <time>2022-09-18T11:59:03Z</time>
      </trkpt>
      <trkpt lat="44.65687" lon="6.1722">
        <ele>1142.6</ele>
        <time>2022-09-18T11:59:04Z</time>
      </trkpt>
      <trkpt lat="44.65687" lon="6.17215">
        <ele>1142.6</ele>
        <time>2022-09-18T11:59:05Z</time>
      </trkpt>
      <trkpt lat="44.65688" lon="6.17211">
        <ele>1142.8</ele>
        <time>2022-09-18T11:59:06Z</time>
      </trkpt>
      <trkpt lat="44.65688" lon="6.17207">
        <ele>1142.6</ele>
        <time>2022-09-18T11:59:07Z</time>
      </trkpt>
      <trkpt lat="44.65689" lon="6.17202">
        <ele>1142.6</ele>
        <time>2022-09-18T11:59:08Z</time>
      </trkpt>
      <trkpt lat="44.6569" lon="6.17198">
        <ele>1143</ele>
        <time>2022-09-18T11:59:09Z</time>
      </trkpt>
      <trkpt lat="44.65691" lon="6.17194">
        <ele>1143.2</ele>
        <time>2022-09-18T11:59:10Z</time>
      </trkpt>
      <trkpt lat="44.65693" lon="6.17191">
        <ele>1143.4</ele>
        <time>2022-09-18T11:59:11Z</time>
      </trkpt>
      <trkpt lat="44.65694" lon="6.17187">
        <ele>1143.8</ele>
        <time>2022-09-18T11:59:12Z</time>
      </trkpt>
      <trkpt lat="44.65696" lon="6.17185">
        <ele>1144</ele>
        <time>2022-09-18T11:59:13Z</time>
      </trkpt>
      <trkpt lat="44.65698" lon="6.17182">
        <ele>1144</ele>
        <time>2022-09-18T11:59:14Z</time>
      </trkpt>
      <trkpt lat="44.65701" lon="6.1718">
        <ele>1144.2</ele>
        <time>2022-09-18T11:59:15Z</time>
      </trkpt>
      <trkpt lat="44.65703" lon="6.17178">
        <ele>1144.6</ele>
        <time>2022-09-18T11:59:16Z</time>
      </trkpt>
      <trkpt lat="44.65706" lon="6.17176">
        <ele>1144.8</ele>
        <time>2022-09-18T11:59:17Z</time>
      </trkpt>
      <trkpt lat="44.65709" lon="6.17174">
        <ele>1144.8</ele>
        <time>2022-09-18T11:59:18Z</time>
      </trkpt>
      <trkpt lat="44.65711" lon="6.17173">
        <ele>1145</ele>
        <time>2022-09-18T11:59:19Z</time>
      </trkpt>
      <trkpt lat="44.65714" lon="6.17172">
        <ele>1145</ele>
        <time>2022-09-18T11:59:20Z</time>
      </trkpt>
      <trkpt lat="44.65716" lon="6.17171">
        <ele>1145.4</ele>
        <time>2022-09-18T11:59:21Z</time>
      </trkpt>
      <trkpt lat="44.65719" lon="6.17171">
        <ele>1145.6</ele>
        <time>2022-09-18T11:59:22Z</time>
      </trkpt>
      <trkpt lat="44.65721" lon="6.1717">
        <ele>1145.6</ele>
        <time>2022-09-18T11:59:23Z</time>
      </trkpt>
      <trkpt lat="44.65724" lon="6.1717">
        <ele>1145.8</ele>
        <time>2022-09-18T11:59:24Z</time>
      </trkpt>
      <trkpt lat="44.65726" lon="6.17169">
        <ele>1145.8</ele>
        <time>2022-09-18T11:59:25Z</time>
      </trkpt>
      <trkpt lat="44.65729" lon="6.17168">
        <ele>1146</ele>
        <time>2022-09-18T11:59:26Z</time>
      </trkpt>
      <trkpt lat="44.65731" lon="6.17167">
        <ele>1146.4</ele>
        <time>2022-09-18T11:59:27Z</time>
      </trkpt>
      <trkpt lat="44.65733" lon="6.17166">
        <ele>1146.6</ele>
        <time>2022-09-18T11:59:28Z</time>
      </trkpt>
      <trkpt lat="44.65736" lon="6.17165">
        <ele>1147</ele>
        <time>2022-09-18T11:59:29Z</time>
      </trkpt>
      <trkpt lat="44.65738" lon="6.17163">
        <ele>1147</ele>
        <time>2022-09-18T11:59:30Z</time>
      </trkpt>
      <trkpt lat="44.65741" lon="6.17162">
        <ele>1147.4</ele>
        <time>2022-09-18T11:59:31Z</time>
      </trkpt>
      <trkpt lat="44.65744" lon="6.17161">
        <ele>1147.4</ele>
        <time>2022-09-18T11:59:32Z</time>
      </trkpt>
      <trkpt lat="44.65746" lon="6.1716">
        <ele>1147.6</ele>
        <time>2022-09-18T11:59:33Z</time>
      </trkpt>
      <trkpt lat="44.65749" lon="6.17158">
        <ele>1147.8</ele>
        <time>2022-09-18T11:59:34Z</time>
      </trkpt>
      <trkpt lat="44.65751" lon="6.17157">
        <ele>1148</ele>
        <time>2022-09-18T11:59:35Z</time>
      </trkpt>
      <trkpt lat="44.65754" lon="6.17156">
        <ele>1148.2</ele>
        <time>2022-09-18T11:59:36Z</time>
      </trkpt>
      <trkpt lat="44.65756" lon="6.17154">
        <ele>1148.2</ele>
        <time>2022-09-18T11:59:37Z</time>
      </trkpt>
      <trkpt lat="44.65759" lon="6.17153">
        <ele>1148.4</ele>
        <time>2022-09-18T11:59:38Z</time>
      </trkpt>
      <trkpt lat="44.65761" lon="6.17151">
        <ele>1148.4</ele>
        <time>2022-09-18T11:59:39Z</time>
      </trkpt>
      <trkpt lat="44.65763" lon="6.1715">
        <ele>1148.6</ele>
        <time>2022-09-18T11:59:40Z</time>
      </trkpt>
      <trkpt lat="44.65765" lon="6.17148">
        <ele>1148.8</ele>
        <time>2022-09-18T11:59:41Z</time>
      </trkpt>
      <trkpt lat="44.65767" lon="6.17146">
        <ele>1149</ele>
        <time>2022-09-18T11:59:42Z</time>
      </trkpt>
      <trkpt lat="44.6577" lon="6.17145">
        <ele>1149.2</ele>
        <time>2022-09-18T11:59:43Z</time>
      </trkpt>
      <trkpt lat="44.65772" lon="6.17143">
        <ele>1149.4</ele>
        <time>2022-09-18T11:59:44Z</time>
      </trkpt>
      <trkpt lat="44.65774" lon="6.17141">
        <ele>1149.8</ele>
        <time>2022-09-18T11:59:45Z</time>
      </trkpt>
      <trkpt lat="44.65776" lon="6.17139">
        <ele>1150</ele>
        <time>2022-09-18T11:59:46Z</time>
      </trkpt>
      <trkpt lat="44.65778" lon="6.17137">
        <ele>1150.2</ele>
        <time>2022-09-18T11:59:47Z</time>
      </trkpt>
      <trkpt lat="44.6578" lon="6.17135">
        <ele>1150.8</ele>
        <time>2022-09-18T11:59:48Z</time>
      </trkpt>
      <trkpt lat="44.65782" lon="6.17133">
        <ele>1151.2</ele>
        <time>2022-09-18T11:59:49Z</time>
      </trkpt>
      <trkpt lat="44.65784" lon="6.17131">
        <ele>1151.4</ele>
        <time>2022-09-18T11:59:50Z</time>
      </trkpt>
      <trkpt lat="44.65786" lon="6.17129">
        <ele>1151.8</ele>
        <time>2022-09-18T11:59:51Z</time>
      </trkpt>
      <trkpt lat="44.65789" lon="6.17127">
        <ele>1152.4</ele>
        <time>2022-09-18T11:59:52Z</time>
      </trkpt>
      <trkpt lat="44.6579" lon="6.17125">
        <ele>1152.6</ele>
        <time>2022-09-18T11:59:53Z</time>
      </trkpt>
      <trkpt lat="44.65792" lon="6.17122">
        <ele>1153</ele>
        <time>2022-09-18T11:59:54Z</time>
      </trkpt>
      <trkpt lat="44.65794" lon="6.1712">
        <ele>1153.2</ele>
        <time>2022-09-18T11:59:55Z</time>
      </trkpt>
      <trkpt lat="44.65796" lon="6.17118">
        <ele>1153.6</ele>
        <time>2022-09-18T11:59:56Z</time>
      </trkpt>
      <trkpt lat="44.65798" lon="6.17116">
        <ele>1154</ele>
        <time>2022-09-18T11:59:57Z</time>
      </trkpt>
      <trkpt lat="44.658" lon="6.17114">
        <ele>1154.6</ele>
        <time>2022-09-18T11:59:58Z</time>
      </trkpt>
      <trkpt lat="44.65802" lon="6.17112">
        <ele>1155.2</ele>
        <time>2022-09-18T11:59:59Z</time>
      </trkpt>
      <trkpt lat="44.65804" lon="6.1711">
        <ele>1155.2</ele>
        <time>2022-09-18T12:00:00Z</time>
      </trkpt>
      <trkpt lat="44.65807" lon="6.17108">
        <ele>1156.2</ele>
        <time>2022-09-18T12:00:01Z</time>
      </trkpt>
      <trkpt lat="44.65809" lon="6.17106">
        <ele>1156.6</ele>
        <time>2022-09-18T12:00:02Z</time>
      </trkpt>
      <trkpt lat="44.65811" lon="6.17104">
        <ele>1157</ele>
        <time>2022-09-18T12:00:03Z</time>
      </trkpt>
      <trkpt lat="44.65813" lon="6.17102">
        <ele>1157.6</ele>
        <time>2022-09-18T12:00:04Z</time>
      </trkpt>
      <trkpt lat="44.65815" lon="6.17099">
        <ele>1158</ele>
        <time>2022-09-18T12:00:05Z</time>
      </trkpt>
      <trkpt lat="44.65817" lon="6.17097">
        <ele>1158.6</ele>
        <time>2022-09-18T12:00:06Z</time>
      </trkpt>
      <trkpt lat="44.65818" lon="6.17095">
        <ele>1159</ele>
        <time>2022-09-18T12:00:07Z</time>
      </trkpt>
      <trkpt lat="44.6582" lon="6.17093">
        <ele>1159.6</ele>
        <time>2022-09-18T12:00:08Z</time>
      </trkpt>
      <trkpt lat="44.65822" lon="6.17091">
        <ele>1160.2</ele>
        <time>2022-09-18T12:00:09Z</time>
      </trkpt>
      <trkpt lat="44.65825" lon="6.17089">
        <ele>1160.6</ele>
        <time>2022-09-18T12:00:10Z</time>
      </trkpt>
      <trkpt lat="44.65827" lon="6.17087">
        <ele>1161</ele>
        <time>2022-09-18T12:00:11Z</time>
      </trkpt>
      <trkpt lat="44.65828" lon="6.17085">
        <ele>1161</ele>
        <time>2022-09-18T12:00:12Z</time>
      </trkpt>
      <trkpt lat="44.6583" lon="6.17083">
        <ele>1161.8</ele>
        <time>2022-09-18T12:00:13Z</time>
      </trkpt>
      <trkpt lat="44.65832" lon="6.17081">
        <ele>1162.2</ele>
        <time>2022-09-18T12:00:14Z</time>
      </trkpt>
      <trkpt lat="44.65834" lon="6.17078">
        <ele>1162.6</ele>
        <time>2022-09-18T12:00:15Z</time>
      </trkpt>
      <trkpt lat="44.65836" lon="6.17076">
        <ele>1163.2</ele>
        <time>2022-09-18T12:00:16Z</time>
      </trkpt>
      <trkpt lat="44.65837" lon="6.17073">
        <ele>1163.6</ele>
        <time>2022-09-18T12:00:17Z</time>
      </trkpt>
      <trkpt lat="44.65839" lon="6.17071">
        <ele>1163.8</ele>
        <time>2022-09-18T12:00:18Z</time>
      </trkpt>
      <trkpt lat="44.65841" lon="6.17068">
        <ele>1164.4</ele>
        <time>2022-09-18T12:00:19Z</time>
      </trkpt>
      <trkpt lat="44.65842" lon="6.17066">
        <ele>1164.6</ele>
        <time>2022-09-18T12:00:20Z</time>
      </trkpt>
      <trkpt lat="44.65844" lon="6.17064">
        <ele>1165.2</ele>
        <time>2022-09-18T12:00:21Z</time>
      </trkpt>
      <trkpt lat="44.65846" lon="6.17062">
        <ele>1165.4</ele>
        <time>2022-09-18T12:00:22Z</time>
      </trkpt>
      <trkpt lat="44.65847" lon="6.1706">
        <ele>1166</ele>
        <time>2022-09-18T12:00:23Z</time>
      </trkpt>
      <trkpt lat="44.65849" lon="6.17058">
        <ele>1166.6</ele>
        <time>2022-09-18T12:00:24Z</time>
      </trkpt>
      <trkpt lat="44.65851" lon="6.17055">
        <ele>1167</ele>
        <time>2022-09-18T12:00:25Z</time>
      </trkpt>
      <trkpt lat="44.65853" lon="6.17053">
        <ele>1167.4</ele>
        <time>2022-09-18T12:00:26Z</time>
      </trkpt>
      <trkpt lat="44.65855" lon="6.1705">
        <ele>1167.8</ele>
        <time>2022-09-18T12:00:27Z</time>
      </trkpt>
      <trkpt lat="44.65856" lon="6.17047">
        <ele>1168.2</ele>
        <time>2022-09-18T12:00:28Z</time>
      </trkpt>
      <trkpt lat="44.65858" lon="6.17044">
        <ele>1168.4</ele>
        <time>2022-09-18T12:00:29Z</time>
      </trkpt>
      <trkpt lat="44.6586" lon="6.17041">
        <ele>1168.6</ele>
        <time>2022-09-18T12:00:30Z</time>
      </trkpt>
      <trkpt lat="44.65861" lon="6.17039">
        <ele>1168.8</ele>
        <time>2022-09-18T12:00:31Z</time>
      </trkpt>
      <trkpt lat="44.65863" lon="6.17036">
        <ele>1169.2</ele>
        <time>2022-09-18T12:00:32Z</time>
      </trkpt>
      <trkpt lat="44.65865" lon="6.17033">
        <ele>1169.4</ele>
        <time>2022-09-18T12:00:33Z</time>
      </trkpt>
      <trkpt lat="44.65866" lon="6.1703">
        <ele>1169.6</ele>
        <time>2022-09-18T12:00:34Z</time>
      </trkpt>
      <trkpt lat="44.65868" lon="6.17027">
        <ele>1170</ele>
        <time>2022-09-18T12:00:35Z</time>
      </trkpt>
      <trkpt lat="44.6587" lon="6.17025">
        <ele>1170.4</ele>
        <time>2022-09-18T12:00:36Z</time>
      </trkpt>
      <trkpt lat="44.65871" lon="6.17022">
        <ele>1170.6</ele>
        <time>2022-09-18T12:00:37Z</time>
      </trkpt>
      <trkpt lat="44.65873" lon="6.17018">
        <ele>1170.8</ele>
        <time>2022-09-18T12:00:38Z</time>
      </trkpt>
      <trkpt lat="44.65875" lon="6.17015">
        <ele>1171.2</ele>
        <time>2022-09-18T12:00:39Z</time>
      </trkpt>
      <trkpt lat="44.65876" lon="6.17012">
        <ele>1171.4</ele>
        <time>2022-09-18T12:00:40Z</time>
      </trkpt>
      <trkpt lat="44.65878" lon="6.17009">
        <ele>1171.6</ele>
        <time>2022-09-18T12:00:41Z</time>
      </trkpt>
      <trkpt lat="44.65879" lon="6.17006">
        <ele>1171.8</ele>
        <time>2022-09-18T12:00:42Z</time>
      </trkpt>
      <trkpt lat="44.65881" lon="6.17003">
        <ele>1172.2</ele>
        <time>2022-09-18T12:00:43Z</time>
      </trkpt>
      <trkpt lat="44.65882" lon="6.17">
        <ele>1172.4</ele>
        <time>2022-09-18T12:00:44Z</time>
      </trkpt>
      <trkpt lat="44.65884" lon="6.16997">
        <ele>1172.6</ele>
        <time>2022-09-18T12:00:45Z</time>
      </trkpt>
      <trkpt lat="44.65885" lon="6.16994">
        <ele>1172.8</ele>
        <time>2022-09-18T12:00:46Z</time>
      </trkpt>
      <trkpt lat="44.65887" lon="6.16991">
        <ele>1173</ele>
        <time>2022-09-18T12:00:47Z</time>
      </trkpt>
      <trkpt lat="44.65888" lon="6.16988">
        <ele>1173.2</ele>
        <time>2022-09-18T12:00:48Z</time>
      </trkpt>
      <trkpt lat="44.65889" lon="6.16985">
        <ele>1173.4</ele>
        <time>2022-09-18T12:00:49Z</time>
      </trkpt>
      <trkpt lat="44.65891" lon="6.16981">
        <ele>1173.6</ele>
        <time>2022-09-18T12:00:50Z</time>
      </trkpt>
      <trkpt lat="44.65892" lon="6.16978">
        <ele>1173.8</ele>
        <time>2022-09-18T12:00:51Z</time>
      </trkpt>
      <trkpt lat="44.65894" lon="6.16975">
        <ele>1174.2</ele>
        <time>2022-09-18T12:00:52Z</time>
      </trkpt>
      <trkpt lat="44.65895" lon="6.16972">
        <ele>1174.4</ele>
        <time>2022-09-18T12:00:53Z</time>
      </trkpt>
      <trkpt lat="44.65896" lon="6.16969">
        <ele>1174.6</ele>
        <time>2022-09-18T12:00:54Z</time>
      </trkpt>
      <trkpt lat="44.65898" lon="6.16966">
        <ele>1175</ele>
        <time>2022-09-18T12:00:55Z</time>
      </trkpt>
      <trkpt lat="44.65899" lon="6.16963">
        <ele>1175.2</ele>
        <time>2022-09-18T12:00:56Z</time>
      </trkpt>
      <trkpt lat="44.659" lon="6.1696">
        <ele>1175.4</ele>
        <time>2022-09-18T12:00:57Z</time>
      </trkpt>
      <trkpt lat="44.65902" lon="6.16957">
        <ele>1175.6</ele>
        <time>2022-09-18T12:00:58Z</time>
      </trkpt>
      <trkpt lat="44.65904" lon="6.16954">
        <ele>1175.8</ele>
        <time>2022-09-18T12:00:59Z</time>
      </trkpt>
      <trkpt lat="44.65905" lon="6.16951">
        <ele>1176.2</ele>
        <time>2022-09-18T12:01:00Z</time>
      </trkpt>
      <trkpt lat="44.65907" lon="6.16948">
        <ele>1176.4</ele>
        <time>2022-09-18T12:01:01Z</time>
      </trkpt>
      <trkpt lat="44.65909" lon="6.16946">
        <ele>1176.6</ele>
        <time>2022-09-18T12:01:02Z</time>
      </trkpt>
      <trkpt lat="44.6591" lon="6.16943">
        <ele>1177</ele>
        <time>2022-09-18T12:01:03Z</time>
      </trkpt>
      <trkpt lat="44.65912" lon="6.1694">
        <ele>1177.4</ele>
        <time>2022-09-18T12:01:04Z</time>
      </trkpt>
      <trkpt lat="44.65913" lon="6.16937">
        <ele>1177.8</ele>
        <time>2022-09-18T12:01:05Z</time>
      </trkpt>
      <trkpt lat="44.65914" lon="6.16934">
        <ele>1177.8</ele>
        <time>2022-09-18T12:01:06Z</time>
      </trkpt>
      <trkpt lat="44.65916" lon="6.16931">
        <ele>1178.4</ele>
        <time>2022-09-18T12:01:07Z</time>
      </trkpt>
      <trkpt lat="44.65918" lon="6.16928">
        <ele>1178.6</ele>
        <time>2022-09-18T12:01:08Z</time>
      </trkpt>
      <trkpt lat="44.6592" lon="6.16926">
        <ele>1178.8</ele>
        <time>2022-09-18T12:01:09Z</time>
      </trkpt>
      <trkpt lat="44.65921" lon="6.16923">
        <ele>1179.2</ele>
        <time>2022-09-18T12:01:10Z</time>
      </trkpt>
      <trkpt lat="44.65923" lon="6.16921">
        <ele>1179.4</ele>
        <time>2022-09-18T12:01:11Z</time>
      </trkpt>
      <trkpt lat="44.65925" lon="6.16918">
        <ele>1179.4</ele>
        <time>2022-09-18T12:01:12Z</time>
      </trkpt>
      <trkpt lat="44.65927" lon="6.16916">
        <ele>1179.8</ele>
        <time>2022-09-18T12:01:13Z</time>
      </trkpt>
      <trkpt lat="44.65929" lon="6.16914">
        <ele>1180</ele>
        <time>2022-09-18T12:01:14Z</time>
      </trkpt>
      <trkpt lat="44.6593" lon="6.16912">
        <ele>1180.2</ele>
        <time>2022-09-18T12:01:15Z</time>
      </trkpt>
      <trkpt lat="44.65932" lon="6.16909">
        <ele>1180.4</ele>
        <time>2022-09-18T12:01:16Z</time>
      </trkpt>
      <trkpt lat="44.65934" lon="6.16907">
        <ele>1180.6</ele>
        <time>2022-09-18T12:01:17Z</time>
      </trkpt>
      <trkpt lat="44.65936" lon="6.16905">
        <ele>1181</ele>
        <time>2022-09-18T12:01:18Z</time>
      </trkpt>
      <trkpt lat="44.65937" lon="6.16902">
        <ele>1181.6</ele>
        <time>2022-09-18T12:01:19Z</time>
      </trkpt>
      <trkpt lat="44.65939" lon="6.169">
        <ele>1181.8</ele>
        <time>2022-09-18T12:01:20Z</time>
      </trkpt>
      <trkpt lat="44.65942" lon="6.16898">
        <ele>1182</ele>
        <time>2022-09-18T12:01:21Z</time>
      </trkpt>
      <trkpt lat="44.65944" lon="6.16896">
        <ele>1182.2</ele>
        <time>2022-09-18T12:01:22Z</time>
      </trkpt>
      <trkpt lat="44.65946" lon="6.16894">
        <ele>1182.6</ele>
        <time>2022-09-18T12:01:23Z</time>
      </trkpt>
      <trkpt lat="44.65948" lon="6.16892">
        <ele>1182.8</ele>
        <time>2022-09-18T12:01:24Z</time>
      </trkpt>
      <trkpt lat="44.6595" lon="6.1689">
        <ele>1183</ele>
        <time>2022-09-18T12:01:25Z</time>
      </trkpt>
      <trkpt lat="44.65952" lon="6.16887">
        <ele>1183.2</ele>
        <time>2022-09-18T12:01:26Z</time>
      </trkpt>
      <trkpt lat="44.65954" lon="6.16885">
        <ele>1183.6</ele>
        <time>2022-09-18T12:01:27Z</time>
      </trkpt>
      <trkpt lat="44.65956" lon="6.16883">
        <ele>1183.8</ele>
        <time>2022-09-18T12:01:28Z</time>
      </trkpt>
      <trkpt lat="44.65958" lon="6.16881">
        <ele>1184.2</ele>
        <time>2022-09-18T12:01:29Z</time>
      </trkpt>
      <trkpt lat="44.6596" lon="6.16878">
        <ele>1184.6</ele>
        <time>2022-09-18T12:01:30Z</time>
      </trkpt>
      <trkpt lat="44.65962" lon="6.16876">
        <ele>1184.8</ele>
        <time>2022-09-18T12:01:31Z</time>
      </trkpt>
      <trkpt lat="44.65964" lon="6.16873">
        <ele>1185</ele>
        <time>2022-09-18T12:01:32Z</time>
      </trkpt>
      <trkpt lat="44.65966" lon="6.16871">
        <ele>1185.4</ele>
        <time>2022-09-18T12:01:33Z</time>
      </trkpt>
      <trkpt lat="44.65967" lon="6.16869">
        <ele>1185.6</ele>
        <time>2022-09-18T12:01:34Z</time>
      </trkpt>
      <trkpt lat="44.6597" lon="6.16866">
        <ele>1186</ele>
        <time>2022-09-18T12:01:35Z</time>
      </trkpt>
      <trkpt lat="44.65972" lon="6.16864">
        <ele>1186.2</ele>
        <time>2022-09-18T12:01:36Z</time>
      </trkpt>
      <trkpt lat="44.65974" lon="6.16862">
        <ele>1186.4</ele>
        <time>2022-09-18T12:01:37Z</time>
      </trkpt>
      <trkpt lat="44.65976" lon="6.1686">
        <ele>1186.6</ele>
        <time>2022-09-18T12:01:38Z</time>
      </trkpt>
      <trkpt lat="44.65978" lon="6.16857">
        <ele>1186.8</ele>
        <time>2022-09-18T12:01:39Z</time>
      </trkpt>
      <trkpt lat="44.6598" lon="6.16855">
        <ele>1187.2</ele>
        <time>2022-09-18T12:01:40Z</time>
      </trkpt>
      <trkpt lat="44.65982" lon="6.16852">
        <ele>1187.4</ele>
        <time>2022-09-18T12:01:41Z</time>
      </trkpt>
      <trkpt lat="44.65984" lon="6.1685">
        <ele>1187.6</ele>
        <time>2022-09-18T12:01:42Z</time>
      </trkpt>
      <trkpt lat="44.65986" lon="6.16847">
        <ele>1188</ele>
        <time>2022-09-18T12:01:43Z</time>
      </trkpt>
      <trkpt lat="44.65988" lon="6.16845">
        <ele>1188</ele>
        <time>2022-09-18T12:01:44Z</time>
      </trkpt>
      <trkpt lat="44.6599" lon="6.16842">
        <ele>1188</ele>
        <time>2022-09-18T12:01:45Z</time>
      </trkpt>
      <trkpt lat="44.65991" lon="6.1684">
        <ele>1188.2</ele>
        <time>2022-09-18T12:01:46Z</time>
      </trkpt>
      <trkpt lat="44.65993" lon="6.16837">
        <ele>1188.6</ele>
        <time>2022-09-18T12:01:47Z</time>
      </trkpt>
      <trkpt lat="44.65995" lon="6.16834">
        <ele>1188.8</ele>
        <time>2022-09-18T12:01:48Z</time>
      </trkpt>
      <trkpt lat="44.65997" lon="6.16831">
        <ele>1188.8</ele>
        <time>2022-09-18T12:01:49Z</time>
      </trkpt>
      <trkpt lat="44.65999" lon="6.16828">
        <ele>1189</ele>
        <time>2022-09-18T12:01:50Z</time>
      </trkpt>
      <trkpt lat="44.66001" lon="6.16825">
        <ele>1189</ele>
        <time>2022-09-18T12:01:51Z</time>
      </trkpt>
      <trkpt lat="44.66002" lon="6.16822">
        <ele>1189</ele>
        <time>2022-09-18T12:01:52Z</time>
      </trkpt>
      <trkpt lat="44.66003" lon="6.16819">
        <ele>1189.2</ele>
        <time>2022-09-18T12:01:53Z</time>
      </trkpt>
      <trkpt lat="44.66004" lon="6.16815">
        <ele>1189.2</ele>
        <time>2022-09-18T12:01:54Z</time>
      </trkpt>
      <trkpt lat="44.66005" lon="6.16812">
        <ele>1189.4</ele>
        <time>2022-09-18T12:01:55Z</time>
      </trkpt>
      <trkpt lat="44.66006" lon="6.16809">
        <ele>1189.6</ele>
        <time>2022-09-18T12:01:56Z</time>
      </trkpt>
      <trkpt lat="44.66006" lon="6.16806">
        <ele>1189.6</ele>
        <time>2022-09-18T12:01:57Z</time>
      </trkpt>
      <trkpt lat="44.66007" lon="6.16802">
        <ele>1189.6</ele>
        <time>2022-09-18T12:01:58Z</time>
      </trkpt>
      <trkpt lat="44.66007" lon="6.16798">
        <ele>1189.6</ele>
        <time>2022-09-18T12:01:59Z</time>
      </trkpt>
      <trkpt lat="44.66007" lon="6.16795">
        <ele>1189.8</ele>
        <time>2022-09-18T12:02:00Z</time>
      </trkpt>
      <trkpt lat="44.66007" lon="6.16791">
        <ele>1190</ele>
        <time>2022-09-18T12:02:01Z</time>
      </trkpt>
      <trkpt lat="44.66007" lon="6.16787">
        <ele>1190.2</ele>
        <time>2022-09-18T12:02:02Z</time>
      </trkpt>
      <trkpt lat="44.66007" lon="6.16783">
        <ele>1190.2</ele>
        <time>2022-09-18T12:02:03Z</time>
      </trkpt>
      <trkpt lat="44.66007" lon="6.16779">
        <ele>1190</ele>
        <time>2022-09-18T12:02:04Z</time>
      </trkpt>
      <trkpt lat="44.66007" lon="6.16776">
        <ele>1190.2</ele>
        <time>2022-09-18T12:02:05Z</time>
      </trkpt>
      <trkpt lat="44.66006" lon="6.16772">
        <ele>1190.2</ele>
        <time>2022-09-18T12:02:06Z</time>
      </trkpt>
      <trkpt lat="44.66006" lon="6.16769">
        <ele>1190.2</ele>
        <time>2022-09-18T12:02:07Z</time>
      </trkpt>
      <trkpt lat="44.66005" lon="6.16765">
        <ele>1190.6</ele>
        <time>2022-09-18T12:02:08Z</time>
      </trkpt>
      <trkpt lat="44.66004" lon="6.16762">
        <ele>1190.6</ele>
        <time>2022-09-18T12:02:09Z</time>
      </trkpt>
      <trkpt lat="44.66003" lon="6.16758">
        <ele>1190.6</ele>
        <time>2022-09-18T12:02:10Z</time>
      </trkpt>
      <trkpt lat="44.66002" lon="6.16755">
        <ele>1190.8</ele>
        <time>2022-09-18T12:02:11Z</time>
      </trkpt>
      <trkpt lat="44.66001" lon="6.16751">
        <ele>1190.8</ele>
        <time>2022-09-18T12:02:12Z</time>
      </trkpt>
      <trkpt lat="44.66" lon="6.16748">
        <ele>1190.8</ele>
        <time>2022-09-18T12:02:13Z</time>
      </trkpt>
      <trkpt lat="44.65999" lon="6.16745">
        <ele>1190.8</ele>
        <time>2022-09-18T12:02:14Z</time>
      </trkpt>
      <trkpt lat="44.65998" lon="6.16741">
        <ele>1190.8</ele>
        <time>2022-09-18T12:02:15Z</time>
      </trkpt>
      <trkpt lat="44.65997" lon="6.16738">
        <ele>1190.8</ele>
        <time>2022-09-18T12:02:16Z</time>
      </trkpt>
      <trkpt lat="44.65996" lon="6.16735">
        <ele>1190.8</ele>
        <time>2022-09-18T12:02:17Z</time>
      </trkpt>
      <trkpt lat="44.65994" lon="6.16732">
        <ele>1190.8</ele>
        <time>2022-09-18T12:02:18Z</time>
      </trkpt>
      <trkpt lat="44.65993" lon="6.16728">
        <ele>1191</ele>
        <time>2022-09-18T12:02:19Z</time>
      </trkpt>
      <trkpt lat="44.65992" lon="6.16725">
        <ele>1190.8</ele>
        <time>2022-09-18T12:02:20Z</time>
      </trkpt>
      <trkpt lat="44.65991" lon="6.16722">
        <ele>1191</ele>
        <time>2022-09-18T12:02:21Z</time>
      </trkpt>
      <trkpt lat="44.65991" lon="6.16718">
        <ele>1191</ele>
        <time>2022-09-18T12:02:22Z</time>
      </trkpt>
      <trkpt lat="44.65991" lon="6.16714">
        <ele>1191</ele>
        <time>2022-09-18T12:02:23Z</time>
      </trkpt>
      <trkpt lat="44.65991" lon="6.1671">
        <ele>1191.2</ele>
        <time>2022-09-18T12:02:24Z</time>
      </trkpt>
      <trkpt lat="44.65992" lon="6.16707">
        <ele>1191.4</ele>
        <time>2022-09-18T12:02:25Z</time>
      </trkpt>
      <trkpt lat="44.65993" lon="6.16704">
        <ele>1191.6</ele>
        <time>2022-09-18T12:02:26Z</time>
      </trkpt>
      <trkpt lat="44.65995" lon="6.16701">
        <ele>1191.6</ele>
        <time>2022-09-18T12:02:27Z</time>
      </trkpt>
      <trkpt lat="44.65998" lon="6.167">
        <ele>1191.8</ele>
        <time>2022-09-18T12:02:28Z</time>
      </trkpt>
      <trkpt lat="44.66" lon="6.16699">
        <ele>1192.4</ele>
        <time>2022-09-18T12:02:29Z</time>
      </trkpt>
      <trkpt lat="44.66003" lon="6.16699">
        <ele>1192.4</ele>
        <time>2022-09-18T12:02:30Z</time>
      </trkpt>
      <trkpt lat="44.66005" lon="6.16699">
        <ele>1192.4</ele>
        <time>2022-09-18T12:02:31Z</time>
      </trkpt>
      <trkpt lat="44.66008" lon="6.167">
        <ele>1192.6</ele>
        <time>2022-09-18T12:02:32Z</time>
      </trkpt>
      <trkpt lat="44.66011" lon="6.16702">
        <ele>1192.6</ele>
        <time>2022-09-18T12:02:33Z</time>
      </trkpt>
      <trkpt lat="44.66013" lon="6.16704">
        <ele>1192.4</ele>
        <time>2022-09-18T12:02:34Z</time>
      </trkpt>
      <trkpt lat="44.66015" lon="6.16706">
        <ele>1192.8</ele>
        <time>2022-09-18T12:02:35Z</time>
      </trkpt>
      <trkpt lat="44.66017" lon="6.1671">
        <ele>1192.8</ele>
        <time>2022-09-18T12:02:36Z</time>
      </trkpt>
      <trkpt lat="44.66019" lon="6.16713">
        <ele>1193.2</ele>
        <time>2022-09-18T12:02:37Z</time>
      </trkpt>
      <trkpt lat="44.6602" lon="6.16716">
        <ele>1193</ele>
        <time>2022-09-18T12:02:38Z</time>
      </trkpt>
      <trkpt lat="44.66021" lon="6.16719">
        <ele>1193.2</ele>
        <time>2022-09-18T12:02:39Z</time>
      </trkpt>
      <trkpt lat="44.66023" lon="6.16722">
        <ele>1193.2</ele>
        <time>2022-09-18T12:02:40Z</time>
      </trkpt>
      <trkpt lat="44.66024" lon="6.16725">
        <ele>1193</ele>
        <time>2022-09-18T12:02:41Z</time>
      </trkpt>
      <trkpt lat="44.66026" lon="6.16729">
        <ele>1193.2</ele>
        <time>2022-09-18T12:02:42Z</time>
      </trkpt>
      <trkpt lat="44.66027" lon="6.16732">
        <ele>1192.8</ele>
        <time>2022-09-18T12:02:43Z</time>
      </trkpt>
      <trkpt lat="44.66029" lon="6.16735">
        <ele>1192.8</ele>
        <time>2022-09-18T12:02:44Z</time>
      </trkpt>
      <trkpt lat="44.6603" lon="6.16738">
        <ele>1192.8</ele>
        <time>2022-09-18T12:02:45Z</time>
      </trkpt>
      <trkpt lat="44.66032" lon="6.16742">
        <ele>1193</ele>
        <time>2022-09-18T12:02:46Z</time>
      </trkpt>
      <trkpt lat="44.66033" lon="6.16745">
        <ele>1192.8</ele>
        <time>2022-09-18T12:02:47Z</time>
      </trkpt>
      <trkpt lat="44.66035" lon="6.16748">
        <ele>1193.2</ele>
        <time>2022-09-18T12:02:48Z</time>
      </trkpt>
      <trkpt lat="44.66036" lon="6.16751">
        <ele>1193.2</ele>
        <time>2022-09-18T12:02:49Z</time>
      </trkpt>
      <trkpt lat="44.66038" lon="6.16754">
        <ele>1193.4</ele>
        <time>2022-09-18T12:02:50Z</time>
      </trkpt>
      <trkpt lat="44.66039" lon="6.16757">
        <ele>1193.6</ele>
        <time>2022-09-18T12:02:51Z</time>
      </trkpt>
      <trkpt lat="44.6604" lon="6.1676">
        <ele>1193.6</ele>
        <time>2022-09-18T12:02:52Z</time>
      </trkpt>
      <trkpt lat="44.66042" lon="6.16763">
        <ele>1193.8</ele>
        <time>2022-09-18T12:02:53Z</time>
      </trkpt>
      <trkpt lat="44.66043" lon="6.16766">
        <ele>1193.8</ele>
        <time>2022-09-18T12:02:54Z</time>
      </trkpt>
      <trkpt lat="44.66045" lon="6.16769">
        <ele>1194</ele>
        <time>2022-09-18T12:02:55Z</time>
      </trkpt>
      <trkpt lat="44.66046" lon="6.16772">
        <ele>1193.8</ele>
        <time>2022-09-18T12:02:56Z</time>
      </trkpt>
      <trkpt lat="44.66048" lon="6.16775">
        <ele>1194.2</ele>
        <time>2022-09-18T12:02:57Z</time>
      </trkpt>
      <trkpt lat="44.66049" lon="6.16778">
        <ele>1194.6</ele>
        <time>2022-09-18T12:02:58Z</time>
      </trkpt>
      <trkpt lat="44.66051" lon="6.16781">
        <ele>1194.6</ele>
        <time>2022-09-18T12:02:59Z</time>
      </trkpt>
      <trkpt lat="44.66052" lon="6.16784">
        <ele>1194.8</ele>
        <time>2022-09-18T12:03:00Z</time>
      </trkpt>
      <trkpt lat="44.66054" lon="6.16788">
        <ele>1195</ele>
        <time>2022-09-18T12:03:01Z</time>
      </trkpt>
      <trkpt lat="44.66055" lon="6.16791">
        <ele>1194.8</ele>
        <time>2022-09-18T12:03:02Z</time>
      </trkpt>
      <trkpt lat="44.66056" lon="6.16795">
        <ele>1195</ele>
        <time>2022-09-18T12:03:03Z</time>
      </trkpt>
      <trkpt lat="44.66057" lon="6.16798">
        <ele>1195.2</ele>
        <time>2022-09-18T12:03:04Z</time>
      </trkpt>
      <trkpt lat="44.66059" lon="6.16802">
        <ele>1195.4</ele>
        <time>2022-09-18T12:03:05Z</time>
      </trkpt>
      <trkpt lat="44.6606" lon="6.16805">
        <ele>1195.6</ele>
        <time>2022-09-18T12:03:06Z</time>
      </trkpt>
      <trkpt lat="44.66061" lon="6.16809">
        <ele>1195.8</ele>
        <time>2022-09-18T12:03:07Z</time>
      </trkpt>
      <trkpt lat="44.66061" lon="6.16812">
        <ele>1195.8</ele>
        <time>2022-09-18T12:03:08Z</time>
      </trkpt>
      <trkpt lat="44.66062" lon="6.16816">
        <ele>1196</ele>
        <time>2022-09-18T12:03:09Z</time>
      </trkpt>
      <trkpt lat="44.66062" lon="6.16819">
        <ele>1196.4</ele>
        <time>2022-09-18T12:03:10Z</time>
      </trkpt>
      <trkpt lat="44.66062" lon="6.16823">
        <ele>1196.6</ele>
        <time>2022-09-18T12:03:11Z</time>
      </trkpt>
      <trkpt lat="44.66063" lon="6.16826">
        <ele>1196.8</ele>
        <time>2022-09-18T12:03:12Z</time>
      </trkpt>
      <trkpt lat="44.66063" lon="6.1683">
        <ele>1196.8</ele>
        <time>2022-09-18T12:03:13Z</time>
      </trkpt>
      <trkpt lat="44.66063" lon="6.16833">
        <ele>1197.2</ele>
        <time>2022-09-18T12:03:14Z</time>
      </trkpt>
      <trkpt lat="44.66063" lon="6.16837">
        <ele>1197.2</ele>
        <time>2022-09-18T12:03:15Z</time>
      </trkpt>
      <trkpt lat="44.66064" lon="6.1684">
        <ele>1197.4</ele>
        <time>2022-09-18T12:03:16Z</time>
      </trkpt>
      <trkpt lat="44.66064" lon="6.16844">
        <ele>1197.8</ele>
        <time>2022-09-18T12:03:17Z</time>
      </trkpt>
      <trkpt lat="44.66064" lon="6.16847">
        <ele>1198.2</ele>
        <time>2022-09-18T12:03:18Z</time>
      </trkpt>
      <trkpt lat="44.66064" lon="6.1685">
        <ele>1198.4</ele>
        <time>2022-09-18T12:03:19Z</time>
      </trkpt>
      <trkpt lat="44.66064" lon="6.16854">
        <ele>1198.8</ele>
        <time>2022-09-18T12:03:20Z</time>
      </trkpt>
      <trkpt lat="44.66064" lon="6.16857">
        <ele>1199</ele>
        <time>2022-09-18T12:03:21Z</time>
      </trkpt>
      <trkpt lat="44.66064" lon="6.1686">
        <ele>1199.2</ele>
        <time>2022-09-18T12:03:22Z</time>
      </trkpt>
      <trkpt lat="44.66064" lon="6.16864">
        <ele>1199.4</ele>
        <time>2022-09-18T12:03:23Z</time>
      </trkpt>
      <trkpt lat="44.66064" lon="6.16867">
        <ele>1199.8</ele>
        <time>2022-09-18T12:03:24Z</time>
      </trkpt>
      <trkpt lat="44.66065" lon="6.16871">
        <ele>1200.2</ele>
        <time>2022-09-18T12:03:25Z</time>
      </trkpt>
      <trkpt lat="44.66065" lon="6.16874">
        <ele>1200.6</ele>
        <time>2022-09-18T12:03:26Z</time>
      </trkpt>
      <trkpt lat="44.66065" lon="6.16877">
        <ele>1201</ele>
        <time>2022-09-18T12:03:27Z</time>
      </trkpt>
      <trkpt lat="44.66065" lon="6.1688">
        <ele>1201.2</ele>
        <time>2022-09-18T12:03:28Z</time>
      </trkpt>
      <trkpt lat="44.66066" lon="6.16884">
        <ele>1201.4</ele>
        <time>2022-09-18T12:03:29Z</time>
      </trkpt>
      <trkpt lat="44.66066" lon="6.16887">
        <ele>1201.8</ele>
        <time>2022-09-18T12:03:30Z</time>
      </trkpt>
      <trkpt lat="44.66067" lon="6.1689">
        <ele>1202.2</ele>
        <time>2022-09-18T12:03:31Z</time>
      </trkpt>
      <trkpt lat="44.66067" lon="6.16894">
        <ele>1202.4</ele>
        <time>2022-09-18T12:03:32Z</time>
      </trkpt>
      <trkpt lat="44.66067" lon="6.16897">
        <ele>1202.8</ele>
        <time>2022-09-18T12:03:33Z</time>
      </trkpt>
      <trkpt lat="44.66068" lon="6.16901">
        <ele>1203</ele>
        <time>2022-09-18T12:03:34Z</time>
      </trkpt>
      <trkpt lat="44.66068" lon="6.16904">
        <ele>1203.2</ele>
        <time>2022-09-18T12:03:35Z</time>
      </trkpt>
      <trkpt lat="44.66068" lon="6.16908">
        <ele>1203.6</ele>
        <time>2022-09-18T12:03:36Z</time>
      </trkpt>
      <trkpt lat="44.66068" lon="6.16912">
        <ele>1203.8</ele>
        <time>2022-09-18T12:03:37Z</time>
      </trkpt>
      <trkpt lat="44.66068" lon="6.16915">
        <ele>1204</ele>
        <time>2022-09-18T12:03:38Z</time>
      </trkpt>
      <trkpt lat="44.66069" lon="6.16919">
        <ele>1204.4</ele>
        <time>2022-09-18T12:03:39Z</time>
      </trkpt>
      <trkpt lat="44.66069" lon="6.16923">
        <ele>1204.6</ele>
        <time>2022-09-18T12:03:40Z</time>
      </trkpt>
      <trkpt lat="44.66069" lon="6.16927">
        <ele>1205</ele>
        <time>2022-09-18T12:03:41Z</time>
      </trkpt>
      <trkpt lat="44.6607" lon="6.16931">
        <ele>1205.4</ele>
        <time>2022-09-18T12:03:42Z</time>
      </trkpt>
      <trkpt lat="44.6607" lon="6.16934">
        <ele>1205.6</ele>
        <time>2022-09-18T12:03:43Z</time>
      </trkpt>
      <trkpt lat="44.66071" lon="6.16938">
        <ele>1205.8</ele>
        <time>2022-09-18T12:03:44Z</time>
      </trkpt>
      <trkpt lat="44.66071" lon="6.16942">
        <ele>1206</ele>
        <time>2022-09-18T12:03:45Z</time>
      </trkpt>
      <trkpt lat="44.66071" lon="6.16945">
        <ele>1206.2</ele>
        <time>2022-09-18T12:03:46Z</time>
      </trkpt>
      <trkpt lat="44.66072" lon="6.16949">
        <ele>1206.4</ele>
        <time>2022-09-18T12:03:47Z</time>
      </trkpt>
      <trkpt lat="44.66072" lon="6.16952">
        <ele>1206.8</ele>
        <time>2022-09-18T12:03:48Z</time>
      </trkpt>
      <trkpt lat="44.66072" lon="6.16956">
        <ele>1207</ele>
        <time>2022-09-18T12:03:49Z</time>
      </trkpt>
      <trkpt lat="44.66072" lon="6.1696">
        <ele>1207.2</ele>
        <time>2022-09-18T12:03:50Z</time>
      </trkpt>
      <trkpt lat="44.66072" lon="6.16964">
        <ele>1207.4</ele>
        <time>2022-09-18T12:03:51Z</time>
      </trkpt>
      <trkpt lat="44.66072" lon="6.16967">
        <ele>1207.8</ele>
        <time>2022-09-18T12:03:52Z</time>
      </trkpt>
      <trkpt lat="44.66072" lon="6.16971">
        <ele>1208</ele>
        <time>2022-09-18T12:03:53Z</time>
      </trkpt>
      <trkpt lat="44.66072" lon="6.16974">
        <ele>1208</ele>
        <time>2022-09-18T12:03:54Z</time>
      </trkpt>
      <trkpt lat="44.66073" lon="6.16978">
        <ele>1208.2</ele>
        <time>2022-09-18T12:03:55Z</time>
      </trkpt>
      <trkpt lat="44.66073" lon="6.16981">
        <ele>1208.2</ele>
        <time>2022-09-18T12:03:56Z</time>
      </trkpt>
      <trkpt lat="44.66073" lon="6.16985">
        <ele>1208.6</ele>
        <time>2022-09-18T12:03:57Z</time>
      </trkpt>
      <trkpt lat="44.66074" lon="6.16989">
        <ele>1209</ele>
        <time>2022-09-18T12:03:58Z</time>
      </trkpt>
      <trkpt lat="44.66074" lon="6.16993">
        <ele>1209.4</ele>
        <time>2022-09-18T12:03:59Z</time>
      </trkpt>
      <trkpt lat="44.66074" lon="6.16996">
        <ele>1209.6</ele>
        <time>2022-09-18T12:04:00Z</time>
      </trkpt>
      <trkpt lat="44.66074" lon="6.17">
        <ele>1209.8</ele>
        <time>2022-09-18T12:04:01Z</time>
      </trkpt>
      <trkpt lat="44.66074" lon="6.17004">
        <ele>1210</ele>
        <time>2022-09-18T12:04:02Z</time>
      </trkpt>
      <trkpt lat="44.66074" lon="6.17008">
        <ele>1210.2</ele>
        <time>2022-09-18T12:04:03Z</time>
      </trkpt>
      <trkpt lat="44.66074" lon="6.17012">
        <ele>1210.4</ele>
        <time>2022-09-18T12:04:04Z</time>
      </trkpt>
      <trkpt lat="44.66074" lon="6.17016">
        <ele>1210.6</ele>
        <time>2022-09-18T12:04:05Z</time>
      </trkpt>
      <trkpt lat="44.66074" lon="6.17019">
        <ele>1210.6</ele>
        <time>2022-09-18T12:04:06Z</time>
      </trkpt>
      <trkpt lat="44.66074" lon="6.17023">
        <ele>1210.8</ele>
        <time>2022-09-18T12:04:07Z</time>
      </trkpt>
      <trkpt lat="44.66075" lon="6.17027">
        <ele>1211</ele>
        <time>2022-09-18T12:04:08Z</time>
      </trkpt>
      <trkpt lat="44.66075" lon="6.1703">
        <ele>1211.4</ele>
        <time>2022-09-18T12:04:09Z</time>
      </trkpt>
      <trkpt lat="44.66076" lon="6.17034">
        <ele>1211.6</ele>
        <time>2022-09-18T12:04:10Z</time>
      </trkpt>
      <trkpt lat="44.66076" lon="6.17038">
        <ele>1211.8</ele>
        <time>2022-09-18T12:04:11Z</time>
      </trkpt>
      <trkpt lat="44.66076" lon="6.17042">
        <ele>1212</ele>
        <time>2022-09-18T12:04:12Z</time>
      </trkpt>
      <trkpt lat="44.66076" lon="6.17046">
        <ele>1212.2</ele>
        <time>2022-09-18T12:04:13Z</time>
      </trkpt>
      <trkpt lat="44.66076" lon="6.1705">
        <ele>1212.4</ele>
        <time>2022-09-18T12:04:14Z</time>
      </trkpt>
      <trkpt lat="44.66076" lon="6.17053">
        <ele>1212.8</ele>
        <time>2022-09-18T12:04:15Z</time>
      </trkpt>
      <trkpt lat="44.66076" lon="6.17057">
        <ele>1212.8</ele>
        <time>2022-09-18T12:04:16Z</time>
      </trkpt>
      <trkpt lat="44.66076" lon="6.17061">
        <ele>1213</ele>
        <time>2022-09-18T12:04:17Z</time>
      </trkpt>
      <trkpt lat="44.66077" lon="6.17064">
        <ele>1213</ele>
        <time>2022-09-18T12:04:18Z</time>
      </trkpt>
      <trkpt lat="44.66077" lon="6.17068">
        <ele>1213.2</ele>
        <time>2022-09-18T12:04:19Z</time>
      </trkpt>
      <trkpt lat="44.66077" lon="6.17071">
        <ele>1213.4</ele>
        <time>2022-09-18T12:04:20Z</time>
      </trkpt>
      <trkpt lat="44.66077" lon="6.17075">
        <ele>1213.8</ele>
        <time>2022-09-18T12:04:21Z</time>
      </trkpt>
      <trkpt lat="44.66077" lon="6.17078">
        <ele>1214</ele>
        <time>2022-09-18T12:04:22Z</time>
      </trkpt>
      <trkpt lat="44.66078" lon="6.17081">
        <ele>1214.2</ele>
        <time>2022-09-18T12:04:23Z</time>
      </trkpt>
      <trkpt lat="44.66078" lon="6.17085">
        <ele>1214.6</ele>
        <time>2022-09-18T12:04:24Z</time>
      </trkpt>
      <trkpt lat="44.66078" lon="6.17088">
        <ele>1214.8</ele>
        <time>2022-09-18T12:04:25Z</time>
      </trkpt>
      <trkpt lat="44.66078" lon="6.17091">
        <ele>1215.2</ele>
        <time>2022-09-18T12:04:26Z</time>
      </trkpt>
      <trkpt lat="44.66078" lon="6.17095">
        <ele>1215.4</ele>
        <time>2022-09-18T12:04:27Z</time>
      </trkpt>
      <trkpt lat="44.66078" lon="6.17098">
        <ele>1215.6</ele>
        <time>2022-09-18T12:04:28Z</time>
      </trkpt>
      <trkpt lat="44.66078" lon="6.17102">
        <ele>1215.8</ele>
        <time>2022-09-18T12:04:29Z</time>
      </trkpt>
      <trkpt lat="44.66078" lon="6.17105">
        <ele>1215.8</ele>
        <time>2022-09-18T12:04:30Z</time>
      </trkpt>
      <trkpt lat="44.66078" lon="6.17108">
        <ele>1215.8</ele>
        <time>2022-09-18T12:04:31Z</time>
      </trkpt>
      <trkpt lat="44.66078" lon="6.17111">
        <ele>1216</ele>
        <time>2022-09-18T12:04:32Z</time>
      </trkpt>
      <trkpt lat="44.66079" lon="6.17115">
        <ele>1216.2</ele>
        <time>2022-09-18T12:04:33Z</time>
      </trkpt>
      <trkpt lat="44.66079" lon="6.17118">
        <ele>1216.6</ele>
        <time>2022-09-18T12:04:34Z</time>
      </trkpt>
      <trkpt lat="44.66079" lon="6.17122">
        <ele>1216.8</ele>
        <time>2022-09-18T12:04:35Z</time>
      </trkpt>
      <trkpt lat="44.66079" lon="6.17125">
        <ele>1217</ele>
        <time>2022-09-18T12:04:36Z</time>
      </trkpt>
      <trkpt lat="44.66079" lon="6.17128">
        <ele>1217.2</ele>
        <time>2022-09-18T12:04:37Z</time>
      </trkpt>
      <trkpt lat="44.66079" lon="6.17132">
        <ele>1217.4</ele>
        <time>2022-09-18T12:04:38Z</time>
      </trkpt>
      <trkpt lat="44.6608" lon="6.17135">
        <ele>1217.8</ele>
        <time>2022-09-18T12:04:39Z</time>
      </trkpt>
      <trkpt lat="44.6608" lon="6.17138">
        <ele>1218.2</ele>
        <time>2022-09-18T12:04:40Z</time>
      </trkpt>
      <trkpt lat="44.66081" lon="6.17142">
        <ele>1218.4</ele>
        <time>2022-09-18T12:04:41Z</time>
      </trkpt>
      <trkpt lat="44.66082" lon="6.17145">
        <ele>1218.4</ele>
        <time>2022-09-18T12:04:42Z</time>
      </trkpt>
      <trkpt lat="44.66082" lon="6.17148">
        <ele>1218.8</ele>
        <time>2022-09-18T12:04:43Z</time>
      </trkpt>
      <trkpt lat="44.66083" lon="6.17151">
        <ele>1219.2</ele>
        <time>2022-09-18T12:04:44Z</time>
      </trkpt>
      <trkpt lat="44.66084" lon="6.17154">
        <ele>1219.4</ele>
        <time>2022-09-18T12:04:45Z</time>
      </trkpt>
      <trkpt lat="44.66085" lon="6.17157">
        <ele>1219.4</ele>
        <time>2022-09-18T12:04:46Z</time>
      </trkpt>
      <trkpt lat="44.66086" lon="6.1716">
        <ele>1219.6</ele>
        <time>2022-09-18T12:04:47Z</time>
      </trkpt>
      <trkpt lat="44.66087" lon="6.17163">
        <ele>1219.8</ele>
        <time>2022-09-18T12:04:48Z</time>
      </trkpt>
      <trkpt lat="44.66088" lon="6.17165">
        <ele>1220</ele>
        <time>2022-09-18T12:04:49Z</time>
      </trkpt>
      <trkpt lat="44.66089" lon="6.17168">
        <ele>1220.4</ele>
        <time>2022-09-18T12:04:51Z</time>
      </trkpt>
      <trkpt lat="44.66091" lon="6.17166">
        <ele>1220.8</ele>
        <time>2022-09-18T12:04:56Z</time>
      </trkpt>
      <trkpt lat="44.66091" lon="6.17169">
        <ele>1219.2</ele>
        <time>2022-09-18T12:05:20Z</time>
      </trkpt>
      <trkpt lat="44.66093" lon="6.17169">
        <ele>1217.4</ele>
        <time>2022-09-18T12:05:34Z</time>
      </trkpt>
      <trkpt lat="44.66091" lon="6.17166">
        <ele>1217</ele>
        <time>2022-09-18T12:05:55Z</time>
      </trkpt>
      <trkpt lat="44.66094" lon="6.17169">
        <ele>1207.4</ele>
        <time>2022-09-18T12:06:53Z</time>
      </trkpt>
      <trkpt lat="44.66096" lon="6.1717">
        <ele>1207.4</ele>
        <time>2022-09-18T12:06:54Z</time>
      </trkpt>
      <trkpt lat="44.66098" lon="6.17171">
        <ele>1207.2</ele>
        <time>2022-09-18T12:06:55Z</time>
      </trkpt>
      <trkpt lat="44.661" lon="6.17172">
        <ele>1207.2</ele>
        <time>2022-09-18T12:06:56Z</time>
      </trkpt>
      <trkpt lat="44.66102" lon="6.17174">
        <ele>1207</ele>
        <time>2022-09-18T12:06:57Z</time>
      </trkpt>
      <trkpt lat="44.66105" lon="6.17175">
        <ele>1206.8</ele>
        <time>2022-09-18T12:06:58Z</time>
      </trkpt>
      <trkpt lat="44.66107" lon="6.17176">
        <ele>1206.6</ele>
        <time>2022-09-18T12:06:59Z</time>
      </trkpt>
      <trkpt lat="44.6611" lon="6.17178">
        <ele>1206.6</ele>
        <time>2022-09-18T12:07:00Z</time>
      </trkpt>
      <trkpt lat="44.66112" lon="6.17178">
        <ele>1206.6</ele>
        <time>2022-09-18T12:07:01Z</time>
      </trkpt>
      <trkpt lat="44.66115" lon="6.17179">
        <ele>1206.4</ele>
        <time>2022-09-18T12:07:02Z</time>
      </trkpt>
      <trkpt lat="44.66117" lon="6.1718">
        <ele>1206.4</ele>
        <time>2022-09-18T12:07:03Z</time>
      </trkpt>
      <trkpt lat="44.6612" lon="6.1718">
        <ele>1206.2</ele>
        <time>2022-09-18T12:07:04Z</time>
      </trkpt>
      <trkpt lat="44.66122" lon="6.17181">
        <ele>1206</ele>
        <time>2022-09-18T12:07:05Z</time>
      </trkpt>
      <trkpt lat="44.66124" lon="6.17182">
        <ele>1206</ele>
        <time>2022-09-18T12:07:06Z</time>
      </trkpt>
      <trkpt lat="44.66127" lon="6.17183">
        <ele>1206</ele>
        <time>2022-09-18T12:07:07Z</time>
      </trkpt>
      <trkpt lat="44.66129" lon="6.17184">
        <ele>1205.8</ele>
        <time>2022-09-18T12:07:08Z</time>
      </trkpt>
      <trkpt lat="44.66131" lon="6.17185">
        <ele>1206</ele>
        <time>2022-09-18T12:07:09Z</time>
      </trkpt>
      <trkpt lat="44.66133" lon="6.17186">
        <ele>1206.2</ele>
        <time>2022-09-18T12:07:10Z</time>
      </trkpt>
      <trkpt lat="44.66135" lon="6.17187">
        <ele>1206.2</ele>
        <time>2022-09-18T12:07:11Z</time>
      </trkpt>
      <trkpt lat="44.66138" lon="6.17187">
        <ele>1206.4</ele>
        <time>2022-09-18T12:07:12Z</time>
      </trkpt>
      <trkpt lat="44.6614" lon="6.17188">
        <ele>1206.4</ele>
        <time>2022-09-18T12:07:13Z</time>
      </trkpt>
      <trkpt lat="44.66142" lon="6.17189">
        <ele>1206.6</ele>
        <time>2022-09-18T12:07:14Z</time>
      </trkpt>
      <trkpt lat="44.66144" lon="6.1719">
        <ele>1206.6</ele>
        <time>2022-09-18T12:07:15Z</time>
      </trkpt>
      <trkpt lat="44.66146" lon="6.17191">
        <ele>1206.8</ele>
        <time>2022-09-18T12:07:16Z</time>
      </trkpt>
      <trkpt lat="44.66148" lon="6.17192">
        <ele>1207</ele>
        <time>2022-09-18T12:07:17Z</time>
      </trkpt>
      <trkpt lat="44.66149" lon="6.17193">
        <ele>1207</ele>
        <time>2022-09-18T12:07:18Z</time>
      </trkpt>
      <trkpt lat="44.66151" lon="6.17195">
        <ele>1207.2</ele>
        <time>2022-09-18T12:07:19Z</time>
      </trkpt>
      <trkpt lat="44.66153" lon="6.17196">
        <ele>1207.2</ele>
        <time>2022-09-18T12:07:20Z</time>
      </trkpt>
      <trkpt lat="44.66154" lon="6.17198">
        <ele>1207.4</ele>
        <time>2022-09-18T12:07:21Z</time>
      </trkpt>
      <trkpt lat="44.66156" lon="6.17199">
        <ele>1207.6</ele>
        <time>2022-09-18T12:07:22Z</time>
      </trkpt>
      <trkpt lat="44.66158" lon="6.17201">
        <ele>1207.8</ele>
        <time>2022-09-18T12:07:23Z</time>
      </trkpt>
      <trkpt lat="44.6616" lon="6.17202">
        <ele>1207.8</ele>
        <time>2022-09-18T12:07:24Z</time>
      </trkpt>
      <trkpt lat="44.66162" lon="6.17203">
        <ele>1208</ele>
        <time>2022-09-18T12:07:25Z</time>
      </trkpt>
      <trkpt lat="44.66164" lon="6.17205">
        <ele>1208.4</ele>
        <time>2022-09-18T12:07:26Z</time>
      </trkpt>
      <trkpt lat="44.66166" lon="6.17207">
        <ele>1208.6</ele>
        <time>2022-09-18T12:07:27Z</time>
      </trkpt>
      <trkpt lat="44.66167" lon="6.17209">
        <ele>1208.8</ele>
        <time>2022-09-18T12:07:28Z</time>
      </trkpt>
      <trkpt lat="44.66169" lon="6.17211">
        <ele>1209</ele>
        <time>2022-09-18T12:07:29Z</time>
      </trkpt>
      <trkpt lat="44.66171" lon="6.17213">
        <ele>1209.4</ele>
        <time>2022-09-18T12:07:30Z</time>
      </trkpt>
      <trkpt lat="44.66173" lon="6.17215">
        <ele>1209.6</ele>
        <time>2022-09-18T12:07:31Z</time>
      </trkpt>
      <trkpt lat="44.66174" lon="6.17217">
        <ele>1209.8</ele>
        <time>2022-09-18T12:07:32Z</time>
      </trkpt>
      <trkpt lat="44.66176" lon="6.17219">
        <ele>1210</ele>
        <time>2022-09-18T12:07:33Z</time>
      </trkpt>
      <trkpt lat="44.66178" lon="6.17222">
        <ele>1210.2</ele>
        <time>2022-09-18T12:07:34Z</time>
      </trkpt>
      <trkpt lat="44.66179" lon="6.17224">
        <ele>1210.4</ele>
        <time>2022-09-18T12:07:35Z</time>
      </trkpt>
      <trkpt lat="44.6618" lon="6.17227">
        <ele>1210.6</ele>
        <time>2022-09-18T12:07:36Z</time>
      </trkpt>
      <trkpt lat="44.66181" lon="6.1723">
        <ele>1210.8</ele>
        <time>2022-09-18T12:07:37Z</time>
      </trkpt>
      <trkpt lat="44.66183" lon="6.17232">
        <ele>1211.2</ele>
        <time>2022-09-18T12:07:38Z</time>
      </trkpt>
      <trkpt lat="44.66184" lon="6.17235">
        <ele>1211.8</ele>
        <time>2022-09-18T12:07:39Z</time>
      </trkpt>
      <trkpt lat="44.66185" lon="6.17238">
        <ele>1212</ele>
        <time>2022-09-18T12:07:40Z</time>
      </trkpt>
      <trkpt lat="44.66186" lon="6.17241">
        <ele>1212.2</ele>
        <time>2022-09-18T12:07:41Z</time>
      </trkpt>
      <trkpt lat="44.66187" lon="6.17244">
        <ele>1212.6</ele>
        <time>2022-09-18T12:07:42Z</time>
      </trkpt>
      <trkpt lat="44.66188" lon="6.17247">
        <ele>1213</ele>
        <time>2022-09-18T12:07:43Z</time>
      </trkpt>
      <trkpt lat="44.66189" lon="6.1725">
        <ele>1213.6</ele>
        <time>2022-09-18T12:07:44Z</time>
      </trkpt>
      <trkpt lat="44.6619" lon="6.17253">
        <ele>1213.8</ele>
        <time>2022-09-18T12:07:45Z</time>
      </trkpt>
      <trkpt lat="44.66191" lon="6.17256">
        <ele>1214.2</ele>
        <time>2022-09-18T12:07:46Z</time>
      </trkpt>
      <trkpt lat="44.66193" lon="6.17258">
        <ele>1214.8</ele>
        <time>2022-09-18T12:07:47Z</time>
      </trkpt>
      <trkpt lat="44.66194" lon="6.17261">
        <ele>1215.2</ele>
        <time>2022-09-18T12:07:48Z</time>
      </trkpt>
      <trkpt lat="44.66195" lon="6.17264">
        <ele>1215.8</ele>
        <time>2022-09-18T12:07:49Z</time>
      </trkpt>
      <trkpt lat="44.66196" lon="6.17267">
        <ele>1216.2</ele>
        <time>2022-09-18T12:07:50Z</time>
      </trkpt>
      <trkpt lat="44.66197" lon="6.1727">
        <ele>1216.8</ele>
        <time>2022-09-18T12:07:51Z</time>
      </trkpt>
      <trkpt lat="44.66198" lon="6.17273">
        <ele>1217</ele>
        <time>2022-09-18T12:07:52Z</time>
      </trkpt>
      <trkpt lat="44.66199" lon="6.17276">
        <ele>1217.4</ele>
        <time>2022-09-18T12:07:53Z</time>
      </trkpt>
      <trkpt lat="44.662" lon="6.17278">
        <ele>1217.8</ele>
        <time>2022-09-18T12:07:54Z</time>
      </trkpt>
      <trkpt lat="44.66201" lon="6.17281">
        <ele>1218.4</ele>
        <time>2022-09-18T12:07:55Z</time>
      </trkpt>
      <trkpt lat="44.66201" lon="6.17284">
        <ele>1218.8</ele>
        <time>2022-09-18T12:07:56Z</time>
      </trkpt>
      <trkpt lat="44.66202" lon="6.17287">
        <ele>1219.2</ele>
        <time>2022-09-18T12:07:57Z</time>
      </trkpt>
      <trkpt lat="44.66203" lon="6.1729">
        <ele>1219.6</ele>
        <time>2022-09-18T12:07:58Z</time>
      </trkpt>
      <trkpt lat="44.66204" lon="6.17293">
        <ele>1220</ele>
        <time>2022-09-18T12:07:59Z</time>
      </trkpt>
      <trkpt lat="44.66205" lon="6.17296">
        <ele>1220.6</ele>
        <time>2022-09-18T12:08:00Z</time>
      </trkpt>
      <trkpt lat="44.66205" lon="6.17299">
        <ele>1221</ele>
        <time>2022-09-18T12:08:01Z</time>
      </trkpt>
      <trkpt lat="44.66206" lon="6.17301">
        <ele>1221.4</ele>
        <time>2022-09-18T12:08:02Z</time>
      </trkpt>
      <trkpt lat="44.66208" lon="6.17304">
        <ele>1221.8</ele>
        <time>2022-09-18T12:08:03Z</time>
      </trkpt>
      <trkpt lat="44.66209" lon="6.17307">
        <ele>1222.2</ele>
        <time>2022-09-18T12:08:04Z</time>
      </trkpt>
      <trkpt lat="44.6621" lon="6.17309">
        <ele>1222.4</ele>
        <time>2022-09-18T12:08:05Z</time>
      </trkpt>
      <trkpt lat="44.66211" lon="6.17312">
        <ele>1222.8</ele>
        <time>2022-09-18T12:08:06Z</time>
      </trkpt>
      <trkpt lat="44.66212" lon="6.17315">
        <ele>1223</ele>
        <time>2022-09-18T12:08:07Z</time>
      </trkpt>
      <trkpt lat="44.66213" lon="6.17317">
        <ele>1223.4</ele>
        <time>2022-09-18T12:08:08Z</time>
      </trkpt>
      <trkpt lat="44.66214" lon="6.1732">
        <ele>1223.6</ele>
        <time>2022-09-18T12:08:09Z</time>
      </trkpt>
      <trkpt lat="44.66215" lon="6.17323">
        <ele>1223.8</ele>
        <time>2022-09-18T12:08:10Z</time>
      </trkpt>
      <trkpt lat="44.66216" lon="6.17326">
        <ele>1224.2</ele>
        <time>2022-09-18T12:08:11Z</time>
      </trkpt>
      <trkpt lat="44.66217" lon="6.17329">
        <ele>1224.4</ele>
        <time>2022-09-18T12:08:12Z</time>
      </trkpt>
      <trkpt lat="44.66218" lon="6.17331">
        <ele>1224.8</ele>
        <time>2022-09-18T12:08:13Z</time>
      </trkpt>
      <trkpt lat="44.66219" lon="6.17334">
        <ele>1225.2</ele>
        <time>2022-09-18T12:08:14Z</time>
      </trkpt>
      <trkpt lat="44.6622" lon="6.17337">
        <ele>1225.6</ele>
        <time>2022-09-18T12:08:15Z</time>
      </trkpt>
      <trkpt lat="44.66222" lon="6.17339">
        <ele>1225.8</ele>
        <time>2022-09-18T12:08:16Z</time>
      </trkpt>
      <trkpt lat="44.66223" lon="6.17342">
        <ele>1226.2</ele>
        <time>2022-09-18T12:08:17Z</time>
      </trkpt>
      <trkpt lat="44.66224" lon="6.17345">
        <ele>1226.6</ele>
        <time>2022-09-18T12:08:18Z</time>
      </trkpt>
      <trkpt lat="44.66225" lon="6.17347">
        <ele>1227</ele>
        <time>2022-09-18T12:08:19Z</time>
      </trkpt>
      <trkpt lat="44.66227" lon="6.1735">
        <ele>1227.2</ele>
        <time>2022-09-18T12:08:20Z</time>
      </trkpt>
      <trkpt lat="44.66228" lon="6.17352">
        <ele>1227.6</ele>
        <time>2022-09-18T12:08:21Z</time>
      </trkpt>
      <trkpt lat="44.66229" lon="6.17355">
        <ele>1228</ele>
        <time>2022-09-18T12:08:22Z</time>
      </trkpt>
      <trkpt lat="44.66231" lon="6.17357">
        <ele>1228</ele>
        <time>2022-09-18T12:08:23Z</time>
      </trkpt>
      <trkpt lat="44.66232" lon="6.17359">
        <ele>1228</ele>
        <time>2022-09-18T12:08:24Z</time>
      </trkpt>
      <trkpt lat="44.66234" lon="6.17362">
        <ele>1228.2</ele>
        <time>2022-09-18T12:08:25Z</time>
      </trkpt>
      <trkpt lat="44.66235" lon="6.17364">
        <ele>1228.4</ele>
        <time>2022-09-18T12:08:26Z</time>
      </trkpt>
      <trkpt lat="44.66237" lon="6.17366">
        <ele>1228.4</ele>
        <time>2022-09-18T12:08:27Z</time>
      </trkpt>
      <trkpt lat="44.66238" lon="6.17369">
        <ele>1228.6</ele>
        <time>2022-09-18T12:08:28Z</time>
      </trkpt>
      <trkpt lat="44.6624" lon="6.17371">
        <ele>1228.6</ele>
        <time>2022-09-18T12:08:29Z</time>
      </trkpt>
      <trkpt lat="44.66241" lon="6.17374">
        <ele>1228.8</ele>
        <time>2022-09-18T12:08:30Z</time>
      </trkpt>
      <trkpt lat="44.66242" lon="6.17377">
        <ele>1228.8</ele>
        <time>2022-09-18T12:08:31Z</time>
      </trkpt>
      <trkpt lat="44.66243" lon="6.17379">
        <ele>1229</ele>
        <time>2022-09-18T12:08:32Z</time>
      </trkpt>
      <trkpt lat="44.66245" lon="6.17382">
        <ele>1229.2</ele>
        <time>2022-09-18T12:08:33Z</time>
      </trkpt>
      <trkpt lat="44.66246" lon="6.17384">
        <ele>1229.4</ele>
        <time>2022-09-18T12:08:34Z</time>
      </trkpt>
      <trkpt lat="44.66247" lon="6.17387">
        <ele>1229.4</ele>
        <time>2022-09-18T12:08:35Z</time>
      </trkpt>
      <trkpt lat="44.66249" lon="6.17389">
        <ele>1229.4</ele>
        <time>2022-09-18T12:08:36Z</time>
      </trkpt>
      <trkpt lat="44.6625" lon="6.17391">
        <ele>1229.6</ele>
        <time>2022-09-18T12:08:37Z</time>
      </trkpt>
      <trkpt lat="44.66252" lon="6.17394">
        <ele>1229.6</ele>
        <time>2022-09-18T12:08:38Z</time>
      </trkpt>
      <trkpt lat="44.66253" lon="6.17396">
        <ele>1229.6</ele>
        <time>2022-09-18T12:08:39Z</time>
      </trkpt>
      <trkpt lat="44.66255" lon="6.17398">
        <ele>1229.6</ele>
        <time>2022-09-18T12:08:40Z</time>
      </trkpt>
      <trkpt lat="44.66257" lon="6.174">
        <ele>1229.8</ele>
        <time>2022-09-18T12:08:41Z</time>
      </trkpt>
      <trkpt lat="44.66258" lon="6.17402">
        <ele>1229.8</ele>
        <time>2022-09-18T12:08:42Z</time>
      </trkpt>
      <trkpt lat="44.6626" lon="6.17404">
        <ele>1229.8</ele>
        <time>2022-09-18T12:08:43Z</time>
      </trkpt>
      <trkpt lat="44.66262" lon="6.17406">
        <ele>1229.8</ele>
        <time>2022-09-18T12:08:44Z</time>
      </trkpt>
      <trkpt lat="44.66264" lon="6.17408">
        <ele>1229.8</ele>
        <time>2022-09-18T12:08:45Z</time>
      </trkpt>
      <trkpt lat="44.66266" lon="6.1741">
        <ele>1229.8</ele>
        <time>2022-09-18T12:08:46Z</time>
      </trkpt>
      <trkpt lat="44.66267" lon="6.17412">
        <ele>1229.8</ele>
        <time>2022-09-18T12:08:47Z</time>
      </trkpt>
      <trkpt lat="44.66269" lon="6.17415">
        <ele>1230</ele>
        <time>2022-09-18T12:08:48Z</time>
      </trkpt>
      <trkpt lat="44.66271" lon="6.17416">
        <ele>1230</ele>
        <time>2022-09-18T12:08:49Z</time>
      </trkpt>
      <trkpt lat="44.66273" lon="6.17418">
        <ele>1230.2</ele>
        <time>2022-09-18T12:08:50Z</time>
      </trkpt>
      <trkpt lat="44.66275" lon="6.1742">
        <ele>1230.2</ele>
        <time>2022-09-18T12:08:51Z</time>
      </trkpt>
      <trkpt lat="44.66277" lon="6.17422">
        <ele>1230.4</ele>
        <time>2022-09-18T12:08:52Z</time>
      </trkpt>
      <trkpt lat="44.66278" lon="6.17424">
        <ele>1230.4</ele>
        <time>2022-09-18T12:08:53Z</time>
      </trkpt>
      <trkpt lat="44.6628" lon="6.17426">
        <ele>1230.6</ele>
        <time>2022-09-18T12:08:54Z</time>
      </trkpt>
      <trkpt lat="44.66282" lon="6.17428">
        <ele>1230.8</ele>
        <time>2022-09-18T12:08:55Z</time>
      </trkpt>
      <trkpt lat="44.66283" lon="6.17431">
        <ele>1230.8</ele>
        <time>2022-09-18T12:08:56Z</time>
      </trkpt>
      <trkpt lat="44.66285" lon="6.17433">
        <ele>1231</ele>
        <time>2022-09-18T12:08:57Z</time>
      </trkpt>
      <trkpt lat="44.66287" lon="6.17435">
        <ele>1231.2</ele>
        <time>2022-09-18T12:08:58Z</time>
      </trkpt>
      <trkpt lat="44.66288" lon="6.17437">
        <ele>1231.4</ele>
        <time>2022-09-18T12:08:59Z</time>
      </trkpt>
      <trkpt lat="44.6629" lon="6.17439">
        <ele>1231.6</ele>
        <time>2022-09-18T12:09:00Z</time>
      </trkpt>
      <trkpt lat="44.66291" lon="6.17441">
        <ele>1231.6</ele>
        <time>2022-09-18T12:09:01Z</time>
      </trkpt>
      <trkpt lat="44.66293" lon="6.17444">
        <ele>1231.8</ele>
        <time>2022-09-18T12:09:02Z</time>
      </trkpt>
      <trkpt lat="44.66294" lon="6.17446">
        <ele>1232</ele>
        <time>2022-09-18T12:09:03Z</time>
      </trkpt>
      <trkpt lat="44.66296" lon="6.17449">
        <ele>1232.2</ele>
        <time>2022-09-18T12:09:04Z</time>
      </trkpt>
      <trkpt lat="44.66298" lon="6.17451">
        <ele>1232.2</ele>
        <time>2022-09-18T12:09:05Z</time>
      </trkpt>
      <trkpt lat="44.66299" lon="6.17453">
        <ele>1232</ele>
        <time>2022-09-18T12:09:06Z</time>
      </trkpt>
      <trkpt lat="44.66301" lon="6.17456">
        <ele>1232.4</ele>
        <time>2022-09-18T12:09:07Z</time>
      </trkpt>
      <trkpt lat="44.66302" lon="6.17458">
        <ele>1232.4</ele>
        <time>2022-09-18T12:09:08Z</time>
      </trkpt>
      <trkpt lat="44.66304" lon="6.1746">
        <ele>1232.6</ele>
        <time>2022-09-18T12:09:09Z</time>
      </trkpt>
      <trkpt lat="44.66305" lon="6.17463">
        <ele>1233</ele>
        <time>2022-09-18T12:09:10Z</time>
      </trkpt>
      <trkpt lat="44.66307" lon="6.17465">
        <ele>1233</ele>
        <time>2022-09-18T12:09:11Z</time>
      </trkpt>
      <trkpt lat="44.66309" lon="6.17467">
        <ele>1233.2</ele>
        <time>2022-09-18T12:09:12Z</time>
      </trkpt>
      <trkpt lat="44.6631" lon="6.1747">
        <ele>1233.4</ele>
        <time>2022-09-18T12:09:13Z</time>
      </trkpt>
      <trkpt lat="44.66311" lon="6.17472">
        <ele>1233.6</ele>
        <time>2022-09-18T12:09:14Z</time>
      </trkpt>
      <trkpt lat="44.66313" lon="6.17475">
        <ele>1233.8</ele>
        <time>2022-09-18T12:09:15Z</time>
      </trkpt>
      <trkpt lat="44.66314" lon="6.17477">
        <ele>1234</ele>
        <time>2022-09-18T12:09:16Z</time>
      </trkpt>
      <trkpt lat="44.66315" lon="6.1748">
        <ele>1234.2</ele>
        <time>2022-09-18T12:09:17Z</time>
      </trkpt>
      <trkpt lat="44.66317" lon="6.17483">
        <ele>1234.4</ele>
        <time>2022-09-18T12:09:18Z</time>
      </trkpt>
      <trkpt lat="44.66318" lon="6.17485">
        <ele>1234.6</ele>
        <time>2022-09-18T12:09:19Z</time>
      </trkpt>
      <trkpt lat="44.66319" lon="6.17488">
        <ele>1234.8</ele>
        <time>2022-09-18T12:09:20Z</time>
      </trkpt>
      <trkpt lat="44.6632" lon="6.17491">
        <ele>1235.2</ele>
        <time>2022-09-18T12:09:21Z</time>
      </trkpt>
      <trkpt lat="44.66321" lon="6.17494">
        <ele>1235.2</ele>
        <time>2022-09-18T12:09:22Z</time>
      </trkpt>
      <trkpt lat="44.66323" lon="6.17497">
        <ele>1235.4</ele>
        <time>2022-09-18T12:09:23Z</time>
      </trkpt>
      <trkpt lat="44.66324" lon="6.17499">
        <ele>1235.6</ele>
        <time>2022-09-18T12:09:24Z</time>
      </trkpt>
      <trkpt lat="44.66325" lon="6.17502">
        <ele>1235.6</ele>
        <time>2022-09-18T12:09:25Z</time>
      </trkpt>
      <trkpt lat="44.66326" lon="6.17505">
        <ele>1235.8</ele>
        <time>2022-09-18T12:09:26Z</time>
      </trkpt>
      <trkpt lat="44.66328" lon="6.17508">
        <ele>1236.2</ele>
        <time>2022-09-18T12:09:27Z</time>
      </trkpt>
      <trkpt lat="44.66329" lon="6.17511">
        <ele>1236.2</ele>
        <time>2022-09-18T12:09:28Z</time>
      </trkpt>
      <trkpt lat="44.6633" lon="6.17514">
        <ele>1236.6</ele>
        <time>2022-09-18T12:09:29Z</time>
      </trkpt>
      <trkpt lat="44.66331" lon="6.17517">
        <ele>1236.6</ele>
        <time>2022-09-18T12:09:30Z</time>
      </trkpt>
      <trkpt lat="44.66331" lon="6.1752">
        <ele>1236.8</ele>
        <time>2022-09-18T12:09:31Z</time>
      </trkpt>
      <trkpt lat="44.66332" lon="6.17523">
        <ele>1236.8</ele>
        <time>2022-09-18T12:09:32Z</time>
      </trkpt>
      <trkpt lat="44.66333" lon="6.17526">
        <ele>1237</ele>
        <time>2022-09-18T12:09:33Z</time>
      </trkpt>
      <trkpt lat="44.66334" lon="6.17529">
        <ele>1237.2</ele>
        <time>2022-09-18T12:09:34Z</time>
      </trkpt>
      <trkpt lat="44.66334" lon="6.17532">
        <ele>1237.4</ele>
        <time>2022-09-18T12:09:35Z</time>
      </trkpt>
      <trkpt lat="44.66335" lon="6.17535">
        <ele>1237.8</ele>
        <time>2022-09-18T12:09:36Z</time>
      </trkpt>
      <trkpt lat="44.66336" lon="6.17538">
        <ele>1238</ele>
        <time>2022-09-18T12:09:37Z</time>
      </trkpt>
      <trkpt lat="44.66337" lon="6.17541">
        <ele>1238.4</ele>
        <time>2022-09-18T12:09:38Z</time>
      </trkpt>
      <trkpt lat="44.66337" lon="6.17544">
        <ele>1238.6</ele>
        <time>2022-09-18T12:09:39Z</time>
      </trkpt>
      <trkpt lat="44.66338" lon="6.17547">
        <ele>1238.8</ele>
        <time>2022-09-18T12:09:40Z</time>
      </trkpt>
      <trkpt lat="44.66339" lon="6.1755">
        <ele>1239.2</ele>
        <time>2022-09-18T12:09:41Z</time>
      </trkpt>
      <trkpt lat="44.6634" lon="6.17553">
        <ele>1239.4</ele>
        <time>2022-09-18T12:09:42Z</time>
      </trkpt>
      <trkpt lat="44.6634" lon="6.17556">
        <ele>1239.6</ele>
        <time>2022-09-18T12:09:43Z</time>
      </trkpt>
      <trkpt lat="44.66342" lon="6.17559">
        <ele>1240</ele>
        <time>2022-09-18T12:09:44Z</time>
      </trkpt>
      <trkpt lat="44.66342" lon="6.17562">
        <ele>1240.2</ele>
        <time>2022-09-18T12:09:45Z</time>
      </trkpt>
      <trkpt lat="44.66343" lon="6.17565">
        <ele>1240.4</ele>
        <time>2022-09-18T12:09:46Z</time>
      </trkpt>
      <trkpt lat="44.66344" lon="6.17568">
        <ele>1240.8</ele>
        <time>2022-09-18T12:09:47Z</time>
      </trkpt>
      <trkpt lat="44.66345" lon="6.1757">
        <ele>1241</ele>
        <time>2022-09-18T12:09:48Z</time>
      </trkpt>
      <trkpt lat="44.66346" lon="6.17573">
        <ele>1241.6</ele>
        <time>2022-09-18T12:09:49Z</time>
      </trkpt>
      <trkpt lat="44.66347" lon="6.17576">
        <ele>1241.8</ele>
        <time>2022-09-18T12:09:50Z</time>
      </trkpt>
      <trkpt lat="44.66348" lon="6.17579">
        <ele>1242</ele>
        <time>2022-09-18T12:09:51Z</time>
      </trkpt>
      <trkpt lat="44.66348" lon="6.17582">
        <ele>1242.4</ele>
        <time>2022-09-18T12:09:52Z</time>
      </trkpt>
      <trkpt lat="44.66349" lon="6.17585">
        <ele>1242.6</ele>
        <time>2022-09-18T12:09:53Z</time>
      </trkpt>
      <trkpt lat="44.66349" lon="6.17588">
        <ele>1243</ele>
        <time>2022-09-18T12:09:54Z</time>
      </trkpt>
      <trkpt lat="44.6635" lon="6.17591">
        <ele>1243</ele>
        <time>2022-09-18T12:09:55Z</time>
      </trkpt>
      <trkpt lat="44.66351" lon="6.17593">
        <ele>1243.2</ele>
        <time>2022-09-18T12:09:56Z</time>
      </trkpt>
      <trkpt lat="44.66353" lon="6.17596">
        <ele>1243.4</ele>
        <time>2022-09-18T12:09:57Z</time>
      </trkpt>
      <trkpt lat="44.66354" lon="6.17599">
        <ele>1243.6</ele>
        <time>2022-09-18T12:09:58Z</time>
      </trkpt>
      <trkpt lat="44.66355" lon="6.17602">
        <ele>1243.6</ele>
        <time>2022-09-18T12:09:59Z</time>
      </trkpt>
      <trkpt lat="44.66357" lon="6.17604">
        <ele>1243.6</ele>
        <time>2022-09-18T12:10:00Z</time>
      </trkpt>
      <trkpt lat="44.66358" lon="6.17607">
        <ele>1243.6</ele>
        <time>2022-09-18T12:10:01Z</time>
      </trkpt>
      <trkpt lat="44.66359" lon="6.1761">
        <ele>1243.6</ele>
        <time>2022-09-18T12:10:02Z</time>
      </trkpt>
      <trkpt lat="44.66361" lon="6.17612">
        <ele>1243.6</ele>
        <time>2022-09-18T12:10:03Z</time>
      </trkpt>
      <trkpt lat="44.66363" lon="6.17614">
        <ele>1243.8</ele>
        <time>2022-09-18T12:10:04Z</time>
      </trkpt>
      <trkpt lat="44.66365" lon="6.17615">
        <ele>1243.8</ele>
        <time>2022-09-18T12:10:05Z</time>
      </trkpt>
      <trkpt lat="44.66367" lon="6.17616">
        <ele>1243.8</ele>
        <time>2022-09-18T12:10:06Z</time>
      </trkpt>
      <trkpt lat="44.6637" lon="6.17617">
        <ele>1244</ele>
        <time>2022-09-18T12:10:07Z</time>
      </trkpt>
      <trkpt lat="44.66372" lon="6.17617">
        <ele>1243.8</ele>
        <time>2022-09-18T12:10:08Z</time>
      </trkpt>
      <trkpt lat="44.66374" lon="6.17617">
        <ele>1243.8</ele>
        <time>2022-09-18T12:10:09Z</time>
      </trkpt>
      <trkpt lat="44.66377" lon="6.17617">
        <ele>1244</ele>
        <time>2022-09-18T12:10:10Z</time>
      </trkpt>
      <trkpt lat="44.66379" lon="6.17616">
        <ele>1244.2</ele>
        <time>2022-09-18T12:10:11Z</time>
      </trkpt>
      <trkpt lat="44.66381" lon="6.17615">
        <ele>1244.4</ele>
        <time>2022-09-18T12:10:12Z</time>
      </trkpt>
      <trkpt lat="44.66384" lon="6.17613">
        <ele>1244.4</ele>
        <time>2022-09-18T12:10:13Z</time>
      </trkpt>
      <trkpt lat="44.66386" lon="6.17611">
        <ele>1244.6</ele>
        <time>2022-09-18T12:10:14Z</time>
      </trkpt>
      <trkpt lat="44.66388" lon="6.17609">
        <ele>1244.6</ele>
        <time>2022-09-18T12:10:15Z</time>
      </trkpt>
      <trkpt lat="44.66389" lon="6.17607">
        <ele>1244.8</ele>
        <time>2022-09-18T12:10:16Z</time>
      </trkpt>
      <trkpt lat="44.66391" lon="6.17604">
        <ele>1245</ele>
        <time>2022-09-18T12:10:17Z</time>
      </trkpt>
      <trkpt lat="44.66392" lon="6.17601">
        <ele>1245.2</ele>
        <time>2022-09-18T12:10:18Z</time>
      </trkpt>
      <trkpt lat="44.66393" lon="6.17598">
        <ele>1245.6</ele>
        <time>2022-09-18T12:10:19Z</time>
      </trkpt>
      <trkpt lat="44.66394" lon="6.17595">
        <ele>1245.8</ele>
        <time>2022-09-18T12:10:20Z</time>
      </trkpt>
      <trkpt lat="44.66394" lon="6.17591">
        <ele>1246</ele>
        <time>2022-09-18T12:10:21Z</time>
      </trkpt>
      <trkpt lat="44.66395" lon="6.17588">
        <ele>1246.2</ele>
        <time>2022-09-18T12:10:22Z</time>
      </trkpt>
      <trkpt lat="44.66395" lon="6.17585">
        <ele>1246.4</ele>
        <time>2022-09-18T12:10:23Z</time>
      </trkpt>
      <trkpt lat="44.66395" lon="6.17581">
        <ele>1246.8</ele>
        <time>2022-09-18T12:10:24Z</time>
      </trkpt>
      <trkpt lat="44.66395" lon="6.17578">
        <ele>1247</ele>
        <time>2022-09-18T12:10:25Z</time>
      </trkpt>
      <trkpt lat="44.66395" lon="6.17574">
        <ele>1247.2</ele>
        <time>2022-09-18T12:10:26Z</time>
      </trkpt>
      <trkpt lat="44.66395" lon="6.17571">
        <ele>1247.4</ele>
        <time>2022-09-18T12:10:27Z</time>
      </trkpt>
      <trkpt lat="44.66395" lon="6.17568">
        <ele>1247.6</ele>
        <time>2022-09-18T12:10:28Z</time>
      </trkpt>
      <trkpt lat="44.66395" lon="6.17564">
        <ele>1248</ele>
        <time>2022-09-18T12:10:29Z</time>
      </trkpt>
      <trkpt lat="44.66395" lon="6.17561">
        <ele>1248.2</ele>
        <time>2022-09-18T12:10:30Z</time>
      </trkpt>
      <trkpt lat="44.66394" lon="6.17558">
        <ele>1248.4</ele>
        <time>2022-09-18T12:10:31Z</time>
      </trkpt>
      <trkpt lat="44.66394" lon="6.17554">
        <ele>1248.6</ele>
        <time>2022-09-18T12:10:32Z</time>
      </trkpt>
      <trkpt lat="44.66394" lon="6.17551">
        <ele>1248.8</ele>
        <time>2022-09-18T12:10:33Z</time>
      </trkpt>
      <trkpt lat="44.66393" lon="6.17548">
        <ele>1249</ele>
        <time>2022-09-18T12:10:34Z</time>
      </trkpt>
      <trkpt lat="44.66393" lon="6.17544">
        <ele>1249</ele>
        <time>2022-09-18T12:10:35Z</time>
      </trkpt>
      <trkpt lat="44.66392" lon="6.17541">
        <ele>1249.2</ele>
        <time>2022-09-18T12:10:36Z</time>
      </trkpt>
      <trkpt lat="44.66392" lon="6.17537">
        <ele>1249.4</ele>
        <time>2022-09-18T12:10:37Z</time>
      </trkpt>
      <trkpt lat="44.66391" lon="6.17534">
        <ele>1249.6</ele>
        <time>2022-09-18T12:10:38Z</time>
      </trkpt>
      <trkpt lat="44.66391" lon="6.1753">
        <ele>1249.8</ele>
        <time>2022-09-18T12:10:39Z</time>
      </trkpt>
      <trkpt lat="44.66391" lon="6.17527">
        <ele>1250</ele>
        <time>2022-09-18T12:10:40Z</time>
      </trkpt>
      <trkpt lat="44.66391" lon="6.17523">
        <ele>1250</ele>
        <time>2022-09-18T12:10:41Z</time>
      </trkpt>
      <trkpt lat="44.6639" lon="6.17519">
        <ele>1250.4</ele>
        <time>2022-09-18T12:10:42Z</time>
      </trkpt>
      <trkpt lat="44.6639" lon="6.17516">
        <ele>1250.6</ele>
        <time>2022-09-18T12:10:43Z</time>
      </trkpt>
      <trkpt lat="44.6639" lon="6.17513">
        <ele>1250.8</ele>
        <time>2022-09-18T12:10:44Z</time>
      </trkpt>
      <trkpt lat="44.6639" lon="6.17509">
        <ele>1250.8</ele>
        <time>2022-09-18T12:10:45Z</time>
      </trkpt>
      <trkpt lat="44.6639" lon="6.17506">
        <ele>1251</ele>
        <time>2022-09-18T12:10:46Z</time>
      </trkpt>
      <trkpt lat="44.6639" lon="6.17503">
        <ele>1251.2</ele>
        <time>2022-09-18T12:10:47Z</time>
      </trkpt>
      <trkpt lat="44.66389" lon="6.17499">
        <ele>1251.2</ele>
        <time>2022-09-18T12:10:48Z</time>
      </trkpt>
      <trkpt lat="44.66389" lon="6.17496">
        <ele>1251.2</ele>
        <time>2022-09-18T12:10:49Z</time>
      </trkpt>
      <trkpt lat="44.66388" lon="6.17492">
        <ele>1251.4</ele>
        <time>2022-09-18T12:10:50Z</time>
      </trkpt>
      <trkpt lat="44.66388" lon="6.17489">
        <ele>1251.6</ele>
        <time>2022-09-18T12:10:51Z</time>
      </trkpt>
      <trkpt lat="44.66387" lon="6.17486">
        <ele>1251.6</ele>
        <time>2022-09-18T12:10:52Z</time>
      </trkpt>
      <trkpt lat="44.66387" lon="6.17482">
        <ele>1251.8</ele>
        <time>2022-09-18T12:10:53Z</time>
      </trkpt>
      <trkpt lat="44.66387" lon="6.17479">
        <ele>1251.8</ele>
        <time>2022-09-18T12:10:54Z</time>
      </trkpt>
      <trkpt lat="44.66387" lon="6.17476">
        <ele>1251.8</ele>
        <time>2022-09-18T12:10:55Z</time>
      </trkpt>
      <trkpt lat="44.66387" lon="6.17472">
        <ele>1252</ele>
        <time>2022-09-18T12:10:56Z</time>
      </trkpt>
      <trkpt lat="44.66387" lon="6.17469">
        <ele>1252</ele>
        <time>2022-09-18T12:10:57Z</time>
      </trkpt>
      <trkpt lat="44.66386" lon="6.17466">
        <ele>1251.8</ele>
        <time>2022-09-18T12:10:58Z</time>
      </trkpt>
      <trkpt lat="44.66386" lon="6.17463">
        <ele>1252</ele>
        <time>2022-09-18T12:10:59Z</time>
      </trkpt>
      <trkpt lat="44.66386" lon="6.17459">
        <ele>1252</ele>
        <time>2022-09-18T12:11:00Z</time>
      </trkpt>
      <trkpt lat="44.66386" lon="6.17456">
        <ele>1251.8</ele>
        <time>2022-09-18T12:11:01Z</time>
      </trkpt>
      <trkpt lat="44.66385" lon="6.17453">
        <ele>1251.8</ele>
        <time>2022-09-18T12:11:02Z</time>
      </trkpt>
      <trkpt lat="44.66385" lon="6.1745">
        <ele>1251.6</ele>
        <time>2022-09-18T12:11:03Z</time>
      </trkpt>
      <trkpt lat="44.66385" lon="6.17446">
        <ele>1251.6</ele>
        <time>2022-09-18T12:11:04Z</time>
      </trkpt>
      <trkpt lat="44.66384" lon="6.17443">
        <ele>1251.6</ele>
        <time>2022-09-18T12:11:05Z</time>
      </trkpt>
      <trkpt lat="44.66384" lon="6.1744">
        <ele>1251.6</ele>
        <time>2022-09-18T12:11:06Z</time>
      </trkpt>
      <trkpt lat="44.66384" lon="6.17437">
        <ele>1251.6</ele>
        <time>2022-09-18T12:11:07Z</time>
      </trkpt>
      <trkpt lat="44.66383" lon="6.17434">
        <ele>1251.8</ele>
        <time>2022-09-18T12:11:08Z</time>
      </trkpt>
      <trkpt lat="44.66383" lon="6.17431">
        <ele>1251.8</ele>
        <time>2022-09-18T12:11:09Z</time>
      </trkpt>
      <trkpt lat="44.66382" lon="6.17428">
        <ele>1251.6</ele>
        <time>2022-09-18T12:11:10Z</time>
      </trkpt>
      <trkpt lat="44.66382" lon="6.17424">
        <ele>1251.4</ele>
        <time>2022-09-18T12:11:11Z</time>
      </trkpt>
      <trkpt lat="44.66381" lon="6.17421">
        <ele>1251.4</ele>
        <time>2022-09-18T12:11:12Z</time>
      </trkpt>
      <trkpt lat="44.66381" lon="6.17418">
        <ele>1251.6</ele>
        <time>2022-09-18T12:11:13Z</time>
      </trkpt>
      <trkpt lat="44.66381" lon="6.17415">
        <ele>1251.6</ele>
        <time>2022-09-18T12:11:14Z</time>
      </trkpt>
      <trkpt lat="44.6638" lon="6.17411">
        <ele>1251.8</ele>
        <time>2022-09-18T12:11:15Z</time>
      </trkpt>
      <trkpt lat="44.6638" lon="6.17408">
        <ele>1251.6</ele>
        <time>2022-09-18T12:11:16Z</time>
      </trkpt>
      <trkpt lat="44.6638" lon="6.17405">
        <ele>1251.6</ele>
        <time>2022-09-18T12:11:17Z</time>
      </trkpt>
      <trkpt lat="44.6638" lon="6.17402">
        <ele>1251.6</ele>
        <time>2022-09-18T12:11:18Z</time>
      </trkpt>
      <trkpt lat="44.66379" lon="6.17398">
        <ele>1251.6</ele>
        <time>2022-09-18T12:11:19Z</time>
      </trkpt>
      <trkpt lat="44.66379" lon="6.17395">
        <ele>1251.6</ele>
        <time>2022-09-18T12:11:20Z</time>
      </trkpt>
      <trkpt lat="44.66379" lon="6.17392">
        <ele>1251.6</ele>
        <time>2022-09-18T12:11:21Z</time>
      </trkpt>
      <trkpt lat="44.66378" lon="6.17389">
        <ele>1251.6</ele>
        <time>2022-09-18T12:11:22Z</time>
      </trkpt>
      <trkpt lat="44.66378" lon="6.17386">
        <ele>1251.8</ele>
        <time>2022-09-18T12:11:23Z</time>
      </trkpt>
      <trkpt lat="44.66378" lon="6.17383">
        <ele>1251.8</ele>
        <time>2022-09-18T12:11:24Z</time>
      </trkpt>
      <trkpt lat="44.66377" lon="6.1738">
        <ele>1251.6</ele>
        <time>2022-09-18T12:11:25Z</time>
      </trkpt>
      <trkpt lat="44.66377" lon="6.17377">
        <ele>1251.6</ele>
        <time>2022-09-18T12:11:26Z</time>
      </trkpt>
      <trkpt lat="44.66377" lon="6.17374">
        <ele>1251.6</ele>
        <time>2022-09-18T12:11:27Z</time>
      </trkpt>
      <trkpt lat="44.66376" lon="6.1737">
        <ele>1251.8</ele>
        <time>2022-09-18T12:11:28Z</time>
      </trkpt>
      <trkpt lat="44.66376" lon="6.17367">
        <ele>1251.8</ele>
        <time>2022-09-18T12:11:29Z</time>
      </trkpt>
      <trkpt lat="44.66376" lon="6.17364">
        <ele>1251.8</ele>
        <time>2022-09-18T12:11:30Z</time>
      </trkpt>
      <trkpt lat="44.66375" lon="6.17361">
        <ele>1252</ele>
        <time>2022-09-18T12:11:31Z</time>
      </trkpt>
      <trkpt lat="44.66375" lon="6.17358">
        <ele>1252.2</ele>
        <time>2022-09-18T12:11:32Z</time>
      </trkpt>
      <trkpt lat="44.66375" lon="6.17355">
        <ele>1252.2</ele>
        <time>2022-09-18T12:11:33Z</time>
      </trkpt>
      <trkpt lat="44.66375" lon="6.17352">
        <ele>1252.4</ele>
        <time>2022-09-18T12:11:34Z</time>
      </trkpt>
      <trkpt lat="44.66374" lon="6.17349">
        <ele>1252.4</ele>
        <time>2022-09-18T12:11:35Z</time>
      </trkpt>
      <trkpt lat="44.66374" lon="6.17346">
        <ele>1252.4</ele>
        <time>2022-09-18T12:11:36Z</time>
      </trkpt>
      <trkpt lat="44.66374" lon="6.17343">
        <ele>1252.4</ele>
        <time>2022-09-18T12:11:37Z</time>
      </trkpt>
      <trkpt lat="44.66373" lon="6.1734">
        <ele>1252.4</ele>
        <time>2022-09-18T12:11:38Z</time>
      </trkpt>
      <trkpt lat="44.66373" lon="6.17336">
        <ele>1252.4</ele>
        <time>2022-09-18T12:11:39Z</time>
      </trkpt>
      <trkpt lat="44.66373" lon="6.17333">
        <ele>1252.4</ele>
        <time>2022-09-18T12:11:40Z</time>
      </trkpt>
      <trkpt lat="44.66372" lon="6.1733">
        <ele>1252.4</ele>
        <time>2022-09-18T12:11:41Z</time>
      </trkpt>
      <trkpt lat="44.66372" lon="6.17327">
        <ele>1252.4</ele>
        <time>2022-09-18T12:11:42Z</time>
      </trkpt>
      <trkpt lat="44.66372" lon="6.17324">
        <ele>1252.6</ele>
        <time>2022-09-18T12:11:43Z</time>
      </trkpt>
      <trkpt lat="44.66372" lon="6.17321">
        <ele>1252.8</ele>
        <time>2022-09-18T12:11:44Z</time>
      </trkpt>
      <trkpt lat="44.66372" lon="6.17318">
        <ele>1252.8</ele>
        <time>2022-09-18T12:11:45Z</time>
      </trkpt>
      <trkpt lat="44.66371" lon="6.17314">
        <ele>1252.8</ele>
        <time>2022-09-18T12:11:46Z</time>
      </trkpt>
      <trkpt lat="44.66371" lon="6.17311">
        <ele>1252.8</ele>
        <time>2022-09-18T12:11:47Z</time>
      </trkpt>
      <trkpt lat="44.66371" lon="6.17308">
        <ele>1252.8</ele>
        <time>2022-09-18T12:11:48Z</time>
      </trkpt>
      <trkpt lat="44.66371" lon="6.17305">
        <ele>1253</ele>
        <time>2022-09-18T12:11:49Z</time>
      </trkpt>
      <trkpt lat="44.66371" lon="6.17302">
        <ele>1253</ele>
        <time>2022-09-18T12:11:50Z</time>
      </trkpt>
      <trkpt lat="44.66371" lon="6.17298">
        <ele>1253</ele>
        <time>2022-09-18T12:11:51Z</time>
      </trkpt>
      <trkpt lat="44.66371" lon="6.17295">
        <ele>1253</ele>
        <time>2022-09-18T12:11:52Z</time>
      </trkpt>
      <trkpt lat="44.66371" lon="6.17292">
        <ele>1253</ele>
        <time>2022-09-18T12:11:53Z</time>
      </trkpt>
      <trkpt lat="44.6637" lon="6.17289">
        <ele>1253</ele>
        <time>2022-09-18T12:11:54Z</time>
      </trkpt>
      <trkpt lat="44.6637" lon="6.17287">
        <ele>1253</ele>
        <time>2022-09-18T12:11:55Z</time>
      </trkpt>
      <trkpt lat="44.6637" lon="6.17283">
        <ele>1253.2</ele>
        <time>2022-09-18T12:11:56Z</time>
      </trkpt>
      <trkpt lat="44.6637" lon="6.1728">
        <ele>1253</ele>
        <time>2022-09-18T12:11:57Z</time>
      </trkpt>
      <trkpt lat="44.6637" lon="6.17277">
        <ele>1253.4</ele>
        <time>2022-09-18T12:11:58Z</time>
      </trkpt>
      <trkpt lat="44.6637" lon="6.17274">
        <ele>1253.6</ele>
        <time>2022-09-18T12:11:59Z</time>
      </trkpt>
      <trkpt lat="44.66369" lon="6.17271">
        <ele>1253.8</ele>
        <time>2022-09-18T12:12:00Z</time>
      </trkpt>
      <trkpt lat="44.66369" lon="6.17268">
        <ele>1254.2</ele>
        <time>2022-09-18T12:12:01Z</time>
      </trkpt>
      <trkpt lat="44.66369" lon="6.17265">
        <ele>1254.4</ele>
        <time>2022-09-18T12:12:02Z</time>
      </trkpt>
      <trkpt lat="44.66369" lon="6.17262">
        <ele>1254.6</ele>
        <time>2022-09-18T12:12:03Z</time>
      </trkpt>
      <trkpt lat="44.66369" lon="6.17259">
        <ele>1254.8</ele>
        <time>2022-09-18T12:12:04Z</time>
      </trkpt>
      <trkpt lat="44.66369" lon="6.17256">
        <ele>1255</ele>
        <time>2022-09-18T12:12:05Z</time>
      </trkpt>
      <trkpt lat="44.66368" lon="6.17253">
        <ele>1255.4</ele>
        <time>2022-09-18T12:12:06Z</time>
      </trkpt>
      <trkpt lat="44.66368" lon="6.1725">
        <ele>1255.8</ele>
        <time>2022-09-18T12:12:07Z</time>
      </trkpt>
      <trkpt lat="44.66368" lon="6.17247">
        <ele>1256</ele>
        <time>2022-09-18T12:12:08Z</time>
      </trkpt>
      <trkpt lat="44.66368" lon="6.17244">
        <ele>1256.4</ele>
        <time>2022-09-18T12:12:09Z</time>
      </trkpt>
      <trkpt lat="44.66368" lon="6.17241">
        <ele>1256.6</ele>
        <time>2022-09-18T12:12:10Z</time>
      </trkpt>
      <trkpt lat="44.66368" lon="6.17238">
        <ele>1256.8</ele>
        <time>2022-09-18T12:12:11Z</time>
      </trkpt>
      <trkpt lat="44.66368" lon="6.17235">
        <ele>1257.2</ele>
        <time>2022-09-18T12:12:12Z</time>
      </trkpt>
      <trkpt lat="44.66368" lon="6.17233">
        <ele>1257.4</ele>
        <time>2022-09-18T12:12:13Z</time>
      </trkpt>
      <trkpt lat="44.66368" lon="6.1723">
        <ele>1257.6</ele>
        <time>2022-09-18T12:12:14Z</time>
      </trkpt>
      <trkpt lat="44.66368" lon="6.17227">
        <ele>1257.8</ele>
        <time>2022-09-18T12:12:15Z</time>
      </trkpt>
      <trkpt lat="44.66368" lon="6.17224">
        <ele>1258.2</ele>
        <time>2022-09-18T12:12:16Z</time>
      </trkpt>
      <trkpt lat="44.66368" lon="6.17221">
        <ele>1258.6</ele>
        <time>2022-09-18T12:12:17Z</time>
      </trkpt>
      <trkpt lat="44.66367" lon="6.17217">
        <ele>1259</ele>
        <time>2022-09-18T12:12:18Z</time>
      </trkpt>
      <trkpt lat="44.66367" lon="6.17215">
        <ele>1259.6</ele>
        <time>2022-09-18T12:12:19Z</time>
      </trkpt>
      <trkpt lat="44.66367" lon="6.17212">
        <ele>1260</ele>
        <time>2022-09-18T12:12:20Z</time>
      </trkpt>
      <trkpt lat="44.66368" lon="6.17209">
        <ele>1260.2</ele>
        <time>2022-09-18T12:12:21Z</time>
      </trkpt>
      <trkpt lat="44.66368" lon="6.17206">
        <ele>1260.6</ele>
        <time>2022-09-18T12:12:22Z</time>
      </trkpt>
      <trkpt lat="44.66368" lon="6.17203">
        <ele>1261</ele>
        <time>2022-09-18T12:12:23Z</time>
      </trkpt>
      <trkpt lat="44.66368" lon="6.17201">
        <ele>1261.4</ele>
        <time>2022-09-18T12:12:24Z</time>
      </trkpt>
      <trkpt lat="44.66368" lon="6.17198">
        <ele>1261.6</ele>
        <time>2022-09-18T12:12:25Z</time>
      </trkpt>
      <trkpt lat="44.66368" lon="6.17195">
        <ele>1262</ele>
        <time>2022-09-18T12:12:26Z</time>
      </trkpt>
      <trkpt lat="44.66369" lon="6.17192">
        <ele>1262.6</ele>
        <time>2022-09-18T12:12:27Z</time>
      </trkpt>
      <trkpt lat="44.66369" lon="6.1719">
        <ele>1262.8</ele>
        <time>2022-09-18T12:12:28Z</time>
      </trkpt>
      <trkpt lat="44.6637" lon="6.17187">
        <ele>1263.2</ele>
        <time>2022-09-18T12:12:29Z</time>
      </trkpt>
      <trkpt lat="44.6637" lon="6.17184">
        <ele>1263.6</ele>
        <time>2022-09-18T12:12:30Z</time>
      </trkpt>
      <trkpt lat="44.6637" lon="6.17181">
        <ele>1264</ele>
        <time>2022-09-18T12:12:31Z</time>
      </trkpt>
      <trkpt lat="44.66371" lon="6.17178">
        <ele>1264.6</ele>
        <time>2022-09-18T12:12:32Z</time>
      </trkpt>
      <trkpt lat="44.66371" lon="6.17175">
        <ele>1265</ele>
        <time>2022-09-18T12:12:33Z</time>
      </trkpt>
      <trkpt lat="44.66371" lon="6.17172">
        <ele>1265.2</ele>
        <time>2022-09-18T12:12:34Z</time>
      </trkpt>
      <trkpt lat="44.66372" lon="6.1717">
        <ele>1265.6</ele>
        <time>2022-09-18T12:12:35Z</time>
      </trkpt>
      <trkpt lat="44.66372" lon="6.17167">
        <ele>1265.8</ele>
        <time>2022-09-18T12:12:36Z</time>
      </trkpt>
      <trkpt lat="44.66372" lon="6.17164">
        <ele>1266.2</ele>
        <time>2022-09-18T12:12:37Z</time>
      </trkpt>
      <trkpt lat="44.66373" lon="6.17161">
        <ele>1266.6</ele>
        <time>2022-09-18T12:12:38Z</time>
      </trkpt>
      <trkpt lat="44.66373" lon="6.17158">
        <ele>1266.8</ele>
        <time>2022-09-18T12:12:39Z</time>
      </trkpt>
      <trkpt lat="44.66373" lon="6.17155">
        <ele>1267.2</ele>
        <time>2022-09-18T12:12:40Z</time>
      </trkpt>
      <trkpt lat="44.66373" lon="6.17152">
        <ele>1267.6</ele>
        <time>2022-09-18T12:12:41Z</time>
      </trkpt>
      <trkpt lat="44.66373" lon="6.17148">
        <ele>1268</ele>
        <time>2022-09-18T12:12:42Z</time>
      </trkpt>
      <trkpt lat="44.66373" lon="6.17145">
        <ele>1268.4</ele>
        <time>2022-09-18T12:12:43Z</time>
      </trkpt>
      <trkpt lat="44.66373" lon="6.17142">
        <ele>1268.8</ele>
        <time>2022-09-18T12:12:44Z</time>
      </trkpt>
      <trkpt lat="44.66372" lon="6.17139">
        <ele>1269</ele>
        <time>2022-09-18T12:12:45Z</time>
      </trkpt>
      <trkpt lat="44.66372" lon="6.17136">
        <ele>1269.2</ele>
        <time>2022-09-18T12:12:46Z</time>
      </trkpt>
      <trkpt lat="44.66372" lon="6.17133">
        <ele>1269.4</ele>
        <time>2022-09-18T12:12:47Z</time>
      </trkpt>
      <trkpt lat="44.66371" lon="6.1713">
        <ele>1269.8</ele>
        <time>2022-09-18T12:12:48Z</time>
      </trkpt>
      <trkpt lat="44.66371" lon="6.17126">
        <ele>1270.2</ele>
        <time>2022-09-18T12:12:49Z</time>
      </trkpt>
      <trkpt lat="44.66371" lon="6.17123">
        <ele>1270.8</ele>
        <time>2022-09-18T12:12:50Z</time>
      </trkpt>
      <trkpt lat="44.6637" lon="6.1712">
        <ele>1271</ele>
        <time>2022-09-18T12:12:51Z</time>
      </trkpt>
      <trkpt lat="44.6637" lon="6.17117">
        <ele>1271.4</ele>
        <time>2022-09-18T12:12:52Z</time>
      </trkpt>
      <trkpt lat="44.66369" lon="6.17114">
        <ele>1271.6</ele>
        <time>2022-09-18T12:12:53Z</time>
      </trkpt>
      <trkpt lat="44.66368" lon="6.17111">
        <ele>1271.8</ele>
        <time>2022-09-18T12:12:54Z</time>
      </trkpt>
      <trkpt lat="44.66367" lon="6.17108">
        <ele>1272</ele>
        <time>2022-09-18T12:12:55Z</time>
      </trkpt>
      <trkpt lat="44.66367" lon="6.17105">
        <ele>1272.4</ele>
        <time>2022-09-18T12:12:56Z</time>
      </trkpt>
      <trkpt lat="44.66366" lon="6.17103">
        <ele>1272.6</ele>
        <time>2022-09-18T12:12:57Z</time>
      </trkpt>
      <trkpt lat="44.66365" lon="6.171">
        <ele>1272.8</ele>
        <time>2022-09-18T12:12:58Z</time>
      </trkpt>
      <trkpt lat="44.66364" lon="6.17097">
        <ele>1273.2</ele>
        <time>2022-09-18T12:12:59Z</time>
      </trkpt>
      <trkpt lat="44.66362" lon="6.17095">
        <ele>1273.6</ele>
        <time>2022-09-18T12:13:00Z</time>
      </trkpt>
      <trkpt lat="44.66361" lon="6.17092">
        <ele>1274</ele>
        <time>2022-09-18T12:13:01Z</time>
      </trkpt>
      <trkpt lat="44.66359" lon="6.1709">
        <ele>1274.2</ele>
        <time>2022-09-18T12:13:02Z</time>
      </trkpt>
      <trkpt lat="44.66358" lon="6.17088">
        <ele>1274.4</ele>
        <time>2022-09-18T12:13:03Z</time>
      </trkpt>
      <trkpt lat="44.66356" lon="6.17086">
        <ele>1274.6</ele>
        <time>2022-09-18T12:13:04Z</time>
      </trkpt>
      <trkpt lat="44.66354" lon="6.17084">
        <ele>1275</ele>
        <time>2022-09-18T12:13:05Z</time>
      </trkpt>
      <trkpt lat="44.66352" lon="6.17082">
        <ele>1275.4</ele>
        <time>2022-09-18T12:13:06Z</time>
      </trkpt>
      <trkpt lat="44.66351" lon="6.1708">
        <ele>1275.8</ele>
        <time>2022-09-18T12:13:07Z</time>
      </trkpt>
      <trkpt lat="44.66349" lon="6.17078">
        <ele>1276</ele>
        <time>2022-09-18T12:13:08Z</time>
      </trkpt>
      <trkpt lat="44.66347" lon="6.17076">
        <ele>1276.4</ele>
        <time>2022-09-18T12:13:09Z</time>
      </trkpt>
      <trkpt lat="44.66345" lon="6.17074">
        <ele>1276.6</ele>
        <time>2022-09-18T12:13:10Z</time>
      </trkpt>
      <trkpt lat="44.66344" lon="6.17072">
        <ele>1276.8</ele>
        <time>2022-09-18T12:13:11Z</time>
      </trkpt>
      <trkpt lat="44.66342" lon="6.1707">
        <ele>1277</ele>
        <time>2022-09-18T12:13:12Z</time>
      </trkpt>
      <trkpt lat="44.6634" lon="6.17069">
        <ele>1277.2</ele>
        <time>2022-09-18T12:13:13Z</time>
      </trkpt>
      <trkpt lat="44.66338" lon="6.17067">
        <ele>1277.4</ele>
        <time>2022-09-18T12:13:14Z</time>
      </trkpt>
      <trkpt lat="44.66336" lon="6.17066">
        <ele>1277.6</ele>
        <time>2022-09-18T12:13:15Z</time>
      </trkpt>
      <trkpt lat="44.66334" lon="6.17064">
        <ele>1277.6</ele>
        <time>2022-09-18T12:13:16Z</time>
      </trkpt>
      <trkpt lat="44.66332" lon="6.17063">
        <ele>1278</ele>
        <time>2022-09-18T12:13:17Z</time>
      </trkpt>
      <trkpt lat="44.6633" lon="6.17062">
        <ele>1278.4</ele>
        <time>2022-09-18T12:13:18Z</time>
      </trkpt>
      <trkpt lat="44.66328" lon="6.1706">
        <ele>1278.4</ele>
        <time>2022-09-18T12:13:19Z</time>
      </trkpt>
      <trkpt lat="44.66326" lon="6.17059">
        <ele>1278.8</ele>
        <time>2022-09-18T12:13:20Z</time>
      </trkpt>
      <trkpt lat="44.66324" lon="6.17058">
        <ele>1279.2</ele>
        <time>2022-09-18T12:13:21Z</time>
      </trkpt>
      <trkpt lat="44.66322" lon="6.17056">
        <ele>1279.4</ele>
        <time>2022-09-18T12:13:22Z</time>
      </trkpt>
      <trkpt lat="44.6632" lon="6.17055">
        <ele>1279.8</ele>
        <time>2022-09-18T12:13:23Z</time>
      </trkpt>
      <trkpt lat="44.66319" lon="6.17054">
        <ele>1280</ele>
        <time>2022-09-18T12:13:24Z</time>
      </trkpt>
      <trkpt lat="44.66317" lon="6.17052">
        <ele>1280.2</ele>
        <time>2022-09-18T12:13:25Z</time>
      </trkpt>
      <trkpt lat="44.66315" lon="6.17051">
        <ele>1280.4</ele>
        <time>2022-09-18T12:13:26Z</time>
      </trkpt>
      <trkpt lat="44.66313" lon="6.17049">
        <ele>1280.6</ele>
        <time>2022-09-18T12:13:27Z</time>
      </trkpt>
      <trkpt lat="44.66311" lon="6.17048">
        <ele>1281</ele>
        <time>2022-09-18T12:13:28Z</time>
      </trkpt>
      <trkpt lat="44.66309" lon="6.17046">
        <ele>1281</ele>
        <time>2022-09-18T12:13:29Z</time>
      </trkpt>
      <trkpt lat="44.66307" lon="6.17044">
        <ele>1281.2</ele>
        <time>2022-09-18T12:13:30Z</time>
      </trkpt>
      <trkpt lat="44.66305" lon="6.17043">
        <ele>1281.4</ele>
        <time>2022-09-18T12:13:31Z</time>
      </trkpt>
      <trkpt lat="44.66303" lon="6.17041">
        <ele>1281.4</ele>
        <time>2022-09-18T12:13:32Z</time>
      </trkpt>
      <trkpt lat="44.66301" lon="6.1704">
        <ele>1281.8</ele>
        <time>2022-09-18T12:13:33Z</time>
      </trkpt>
      <trkpt lat="44.66299" lon="6.17038">
        <ele>1282</ele>
        <time>2022-09-18T12:13:34Z</time>
      </trkpt>
      <trkpt lat="44.66298" lon="6.17036">
        <ele>1282.2</ele>
        <time>2022-09-18T12:13:35Z</time>
      </trkpt>
      <trkpt lat="44.66296" lon="6.17034">
        <ele>1282.6</ele>
        <time>2022-09-18T12:13:36Z</time>
      </trkpt>
      <trkpt lat="44.66294" lon="6.17032">
        <ele>1282.6</ele>
        <time>2022-09-18T12:13:37Z</time>
      </trkpt>
      <trkpt lat="44.66293" lon="6.1703">
        <ele>1282.8</ele>
        <time>2022-09-18T12:13:38Z</time>
      </trkpt>
      <trkpt lat="44.66291" lon="6.17027">
        <ele>1283</ele>
        <time>2022-09-18T12:13:39Z</time>
      </trkpt>
      <trkpt lat="44.6629" lon="6.17025">
        <ele>1283.2</ele>
        <time>2022-09-18T12:13:40Z</time>
      </trkpt>
      <trkpt lat="44.66288" lon="6.17023">
        <ele>1283.4</ele>
        <time>2022-09-18T12:13:41Z</time>
      </trkpt>
      <trkpt lat="44.66287" lon="6.1702">
        <ele>1283.6</ele>
        <time>2022-09-18T12:13:42Z</time>
      </trkpt>
      <trkpt lat="44.66286" lon="6.17018">
        <ele>1283.8</ele>
        <time>2022-09-18T12:13:43Z</time>
      </trkpt>
      <trkpt lat="44.66285" lon="6.17016">
        <ele>1284</ele>
        <time>2022-09-18T12:13:44Z</time>
      </trkpt>
      <trkpt lat="44.66284" lon="6.17013">
        <ele>1284.2</ele>
        <time>2022-09-18T12:13:45Z</time>
      </trkpt>
      <trkpt lat="44.66283" lon="6.17011">
        <ele>1284.2</ele>
        <time>2022-09-18T12:13:46Z</time>
      </trkpt>
      <trkpt lat="44.66282" lon="6.17008">
        <ele>1284.4</ele>
        <time>2022-09-18T12:13:47Z</time>
      </trkpt>
      <trkpt lat="44.66282" lon="6.17005">
        <ele>1284.8</ele>
        <time>2022-09-18T12:13:48Z</time>
      </trkpt>
      <trkpt lat="44.66282" lon="6.17002">
        <ele>1284.8</ele>
        <time>2022-09-18T12:13:49Z</time>
      </trkpt>
      <trkpt lat="44.66281" lon="6.16999">
        <ele>1285</ele>
        <time>2022-09-18T12:13:50Z</time>
      </trkpt>
      <trkpt lat="44.66281" lon="6.16996">
        <ele>1285</ele>
        <time>2022-09-18T12:13:51Z</time>
      </trkpt>
      <trkpt lat="44.66281" lon="6.16993">
        <ele>1285.2</ele>
        <time>2022-09-18T12:13:52Z</time>
      </trkpt>
      <trkpt lat="44.66282" lon="6.1699">
        <ele>1285.4</ele>
        <time>2022-09-18T12:13:53Z</time>
      </trkpt>
      <trkpt lat="44.66282" lon="6.16987">
        <ele>1285.6</ele>
        <time>2022-09-18T12:13:54Z</time>
      </trkpt>
      <trkpt lat="44.66282" lon="6.16984">
        <ele>1286</ele>
        <time>2022-09-18T12:13:55Z</time>
      </trkpt>
      <trkpt lat="44.66283" lon="6.16981">
        <ele>1286.4</ele>
        <time>2022-09-18T12:13:56Z</time>
      </trkpt>
      <trkpt lat="44.66283" lon="6.16978">
        <ele>1286.6</ele>
        <time>2022-09-18T12:13:57Z</time>
      </trkpt>
      <trkpt lat="44.66284" lon="6.16975">
        <ele>1286.6</ele>
        <time>2022-09-18T12:13:58Z</time>
      </trkpt>
      <trkpt lat="44.66285" lon="6.16972">
        <ele>1286.8</ele>
        <time>2022-09-18T12:13:59Z</time>
      </trkpt>
      <trkpt lat="44.66286" lon="6.16969">
        <ele>1287</ele>
        <time>2022-09-18T12:14:00Z</time>
      </trkpt>
      <trkpt lat="44.66287" lon="6.16966">
        <ele>1287</ele>
        <time>2022-09-18T12:14:01Z</time>
      </trkpt>
      <trkpt lat="44.66288" lon="6.16964">
        <ele>1287.2</ele>
        <time>2022-09-18T12:14:02Z</time>
      </trkpt>
      <trkpt lat="44.66289" lon="6.16961">
        <ele>1287.6</ele>
        <time>2022-09-18T12:14:03Z</time>
      </trkpt>
      <trkpt lat="44.66291" lon="6.16959">
        <ele>1287.8</ele>
        <time>2022-09-18T12:14:04Z</time>
      </trkpt>
      <trkpt lat="44.66292" lon="6.16956">
        <ele>1287.8</ele>
        <time>2022-09-18T12:14:05Z</time>
      </trkpt>
      <trkpt lat="44.66294" lon="6.16954">
        <ele>1288</ele>
        <time>2022-09-18T12:14:06Z</time>
      </trkpt>
      <trkpt lat="44.66295" lon="6.16951">
        <ele>1288</ele>
        <time>2022-09-18T12:14:07Z</time>
      </trkpt>
      <trkpt lat="44.66297" lon="6.16949">
        <ele>1288.2</ele>
        <time>2022-09-18T12:14:08Z</time>
      </trkpt>
      <trkpt lat="44.66299" lon="6.16947">
        <ele>1288.2</ele>
        <time>2022-09-18T12:14:09Z</time>
      </trkpt>
      <trkpt lat="44.663" lon="6.16946">
        <ele>1288.4</ele>
        <time>2022-09-18T12:14:10Z</time>
      </trkpt>
      <trkpt lat="44.66302" lon="6.16944">
        <ele>1288.6</ele>
        <time>2022-09-18T12:14:11Z</time>
      </trkpt>
      <trkpt lat="44.66304" lon="6.16942">
        <ele>1288.6</ele>
        <time>2022-09-18T12:14:12Z</time>
      </trkpt>
      <trkpt lat="44.66306" lon="6.16941">
        <ele>1288.8</ele>
        <time>2022-09-18T12:14:13Z</time>
      </trkpt>
      <trkpt lat="44.66308" lon="6.1694">
        <ele>1288.8</ele>
        <time>2022-09-18T12:14:14Z</time>
      </trkpt>
      <trkpt lat="44.6631" lon="6.16938">
        <ele>1288.8</ele>
        <time>2022-09-18T12:14:15Z</time>
      </trkpt>
      <trkpt lat="44.66312" lon="6.16938">
        <ele>1288.8</ele>
        <time>2022-09-18T12:14:16Z</time>
      </trkpt>
      <trkpt lat="44.66314" lon="6.16937">
        <ele>1288.6</ele>
        <time>2022-09-18T12:14:17Z</time>
      </trkpt>
      <trkpt lat="44.66316" lon="6.16937">
        <ele>1288.6</ele>
        <time>2022-09-18T12:14:18Z</time>
      </trkpt>
      <trkpt lat="44.66318" lon="6.16936">
        <ele>1288.8</ele>
        <time>2022-09-18T12:14:19Z</time>
      </trkpt>
      <trkpt lat="44.6632" lon="6.16936">
        <ele>1288.6</ele>
        <time>2022-09-18T12:14:20Z</time>
      </trkpt>
      <trkpt lat="44.66323" lon="6.16936">
        <ele>1288.6</ele>
        <time>2022-09-18T12:14:21Z</time>
      </trkpt>
      <trkpt lat="44.66325" lon="6.16936">
        <ele>1288.6</ele>
        <time>2022-09-18T12:14:22Z</time>
      </trkpt>
      <trkpt lat="44.66327" lon="6.16936">
        <ele>1288.6</ele>
        <time>2022-09-18T12:14:23Z</time>
      </trkpt>
      <trkpt lat="44.66329" lon="6.16936">
        <ele>1288.8</ele>
        <time>2022-09-18T12:14:24Z</time>
      </trkpt>
      <trkpt lat="44.66331" lon="6.16936">
        <ele>1288.6</ele>
        <time>2022-09-18T12:14:25Z</time>
      </trkpt>
      <trkpt lat="44.66333" lon="6.16935">
        <ele>1288.6</ele>
        <time>2022-09-18T12:14:26Z</time>
      </trkpt>
      <trkpt lat="44.66336" lon="6.16935">
        <ele>1288.4</ele>
        <time>2022-09-18T12:14:27Z</time>
      </trkpt>
      <trkpt lat="44.66338" lon="6.16935">
        <ele>1288.6</ele>
        <time>2022-09-18T12:14:28Z</time>
      </trkpt>
      <trkpt lat="44.6634" lon="6.16936">
        <ele>1288.6</ele>
        <time>2022-09-18T12:14:29Z</time>
      </trkpt>
      <trkpt lat="44.66342" lon="6.16936">
        <ele>1288.4</ele>
        <time>2022-09-18T12:14:30Z</time>
      </trkpt>
      <trkpt lat="44.66345" lon="6.16936">
        <ele>1288.8</ele>
        <time>2022-09-18T12:14:31Z</time>
      </trkpt>
      <trkpt lat="44.66347" lon="6.16936">
        <ele>1288.8</ele>
        <time>2022-09-18T12:14:32Z</time>
      </trkpt>
      <trkpt lat="44.66349" lon="6.16937">
        <ele>1289</ele>
        <time>2022-09-18T12:14:33Z</time>
      </trkpt>
      <trkpt lat="44.66351" lon="6.16937">
        <ele>1289</ele>
        <time>2022-09-18T12:14:34Z</time>
      </trkpt>
      <trkpt lat="44.66353" lon="6.16938">
        <ele>1289.2</ele>
        <time>2022-09-18T12:14:35Z</time>
      </trkpt>
      <trkpt lat="44.66356" lon="6.16938">
        <ele>1289.2</ele>
        <time>2022-09-18T12:14:36Z</time>
      </trkpt>
      <trkpt lat="44.66358" lon="6.16939">
        <ele>1289.2</ele>
        <time>2022-09-18T12:14:37Z</time>
      </trkpt>
      <trkpt lat="44.6636" lon="6.16939">
        <ele>1289.2</ele>
        <time>2022-09-18T12:14:38Z</time>
      </trkpt>
      <trkpt lat="44.66363" lon="6.16939">
        <ele>1289.2</ele>
        <time>2022-09-18T12:14:39Z</time>
      </trkpt>
      <trkpt lat="44.66365" lon="6.16939">
        <ele>1289.2</ele>
        <time>2022-09-18T12:14:40Z</time>
      </trkpt>
      <trkpt lat="44.66368" lon="6.16939">
        <ele>1289.4</ele>
        <time>2022-09-18T12:14:41Z</time>
      </trkpt>
      <trkpt lat="44.6637" lon="6.1694">
        <ele>1289.4</ele>
        <time>2022-09-18T12:14:42Z</time>
      </trkpt>
      <trkpt lat="44.66373" lon="6.1694">
        <ele>1289.4</ele>
        <time>2022-09-18T12:14:43Z</time>
      </trkpt>
      <trkpt lat="44.66375" lon="6.16941">
        <ele>1289.4</ele>
        <time>2022-09-18T12:14:44Z</time>
      </trkpt>
      <trkpt lat="44.66378" lon="6.16942">
        <ele>1289.4</ele>
        <time>2022-09-18T12:14:45Z</time>
      </trkpt>
      <trkpt lat="44.6638" lon="6.16942">
        <ele>1289.6</ele>
        <time>2022-09-18T12:14:46Z</time>
      </trkpt>
      <trkpt lat="44.66382" lon="6.16942">
        <ele>1289.6</ele>
        <time>2022-09-18T12:14:47Z</time>
      </trkpt>
      <trkpt lat="44.66385" lon="6.16942">
        <ele>1289.8</ele>
        <time>2022-09-18T12:14:48Z</time>
      </trkpt>
      <trkpt lat="44.66387" lon="6.16943">
        <ele>1289.8</ele>
        <time>2022-09-18T12:14:49Z</time>
      </trkpt>
      <trkpt lat="44.66389" lon="6.16942">
        <ele>1290</ele>
        <time>2022-09-18T12:14:50Z</time>
      </trkpt>
      <trkpt lat="44.66391" lon="6.16943">
        <ele>1290.4</ele>
        <time>2022-09-18T12:14:51Z</time>
      </trkpt>
      <trkpt lat="44.66394" lon="6.16943">
        <ele>1290.6</ele>
        <time>2022-09-18T12:14:52Z</time>
      </trkpt>
      <trkpt lat="44.66396" lon="6.16943">
        <ele>1290.8</ele>
        <time>2022-09-18T12:14:53Z</time>
      </trkpt>
      <trkpt lat="44.66398" lon="6.16943">
        <ele>1291</ele>
        <time>2022-09-18T12:14:54Z</time>
      </trkpt>
      <trkpt lat="44.664" lon="6.16944">
        <ele>1291.2</ele>
        <time>2022-09-18T12:14:55Z</time>
      </trkpt>
      <trkpt lat="44.66402" lon="6.16944">
        <ele>1291</ele>
        <time>2022-09-18T12:14:56Z</time>
      </trkpt>
      <trkpt lat="44.66404" lon="6.16945">
        <ele>1291.2</ele>
        <time>2022-09-18T12:14:57Z</time>
      </trkpt>
      <trkpt lat="44.66407" lon="6.16945">
        <ele>1291.2</ele>
        <time>2022-09-18T12:14:58Z</time>
      </trkpt>
      <trkpt lat="44.66409" lon="6.16945">
        <ele>1291.4</ele>
        <time>2022-09-18T12:14:59Z</time>
      </trkpt>
      <trkpt lat="44.66412" lon="6.16945">
        <ele>1291.8</ele>
        <time>2022-09-18T12:15:00Z</time>
      </trkpt>
      <trkpt lat="44.66414" lon="6.16945">
        <ele>1291.8</ele>
        <time>2022-09-18T12:15:01Z</time>
      </trkpt>
      <trkpt lat="44.66416" lon="6.16946">
        <ele>1292.2</ele>
        <time>2022-09-18T12:15:02Z</time>
      </trkpt>
      <trkpt lat="44.66419" lon="6.16946">
        <ele>1292.4</ele>
        <time>2022-09-18T12:15:03Z</time>
      </trkpt>
      <trkpt lat="44.66421" lon="6.16946">
        <ele>1292.4</ele>
        <time>2022-09-18T12:15:04Z</time>
      </trkpt>
      <trkpt lat="44.66424" lon="6.16946">
        <ele>1292.4</ele>
        <time>2022-09-18T12:15:05Z</time>
      </trkpt>
      <trkpt lat="44.66426" lon="6.16946">
        <ele>1292.6</ele>
        <time>2022-09-18T12:15:06Z</time>
      </trkpt>
      <trkpt lat="44.66428" lon="6.16946">
        <ele>1292.8</ele>
        <time>2022-09-18T12:15:07Z</time>
      </trkpt>
      <trkpt lat="44.6643" lon="6.16946">
        <ele>1293.2</ele>
        <time>2022-09-18T12:15:08Z</time>
      </trkpt>
      <trkpt lat="44.66433" lon="6.16945">
        <ele>1293.2</ele>
        <time>2022-09-18T12:15:09Z</time>
      </trkpt>
      <trkpt lat="44.66435" lon="6.16945">
        <ele>1293.4</ele>
        <time>2022-09-18T12:15:10Z</time>
      </trkpt>
      <trkpt lat="44.66437" lon="6.16945">
        <ele>1293.6</ele>
        <time>2022-09-18T12:15:11Z</time>
      </trkpt>
      <trkpt lat="44.6644" lon="6.16945">
        <ele>1294</ele>
        <time>2022-09-18T12:15:12Z</time>
      </trkpt>
      <trkpt lat="44.66442" lon="6.16945">
        <ele>1294.2</ele>
        <time>2022-09-18T12:15:13Z</time>
      </trkpt>
      <trkpt lat="44.66444" lon="6.16944">
        <ele>1294.4</ele>
        <time>2022-09-18T12:15:14Z</time>
      </trkpt>
      <trkpt lat="44.66447" lon="6.16944">
        <ele>1294.8</ele>
        <time>2022-09-18T12:15:15Z</time>
      </trkpt>
      <trkpt lat="44.66449" lon="6.16944">
        <ele>1295.2</ele>
        <time>2022-09-18T12:15:16Z</time>
      </trkpt>
      <trkpt lat="44.66451" lon="6.16943">
        <ele>1295.6</ele>
        <time>2022-09-18T12:15:17Z</time>
      </trkpt>
      <trkpt lat="44.66453" lon="6.16943">
        <ele>1296</ele>
        <time>2022-09-18T12:15:18Z</time>
      </trkpt>
      <trkpt lat="44.66455" lon="6.16942">
        <ele>1296.4</ele>
        <time>2022-09-18T12:15:19Z</time>
      </trkpt>
      <trkpt lat="44.66458" lon="6.16942">
        <ele>1296.6</ele>
        <time>2022-09-18T12:15:20Z</time>
      </trkpt>
      <trkpt lat="44.6646" lon="6.16942">
        <ele>1297.2</ele>
        <time>2022-09-18T12:15:21Z</time>
      </trkpt>
      <trkpt lat="44.66462" lon="6.16941">
        <ele>1297.6</ele>
        <time>2022-09-18T12:15:22Z</time>
      </trkpt>
      <trkpt lat="44.66464" lon="6.16941">
        <ele>1298</ele>
        <time>2022-09-18T12:15:23Z</time>
      </trkpt>
      <trkpt lat="44.66466" lon="6.1694">
        <ele>1298.6</ele>
        <time>2022-09-18T12:15:24Z</time>
      </trkpt>
      <trkpt lat="44.66468" lon="6.1694">
        <ele>1299</ele>
        <time>2022-09-18T12:15:25Z</time>
      </trkpt>
      <trkpt lat="44.6647" lon="6.16939">
        <ele>1299.6</ele>
        <time>2022-09-18T12:15:26Z</time>
      </trkpt>
      <trkpt lat="44.66472" lon="6.16938">
        <ele>1300.2</ele>
        <time>2022-09-18T12:15:27Z</time>
      </trkpt>
      <trkpt lat="44.66474" lon="6.16937">
        <ele>1300.6</ele>
        <time>2022-09-18T12:15:28Z</time>
      </trkpt>
      <trkpt lat="44.66476" lon="6.16936">
        <ele>1301</ele>
        <time>2022-09-18T12:15:29Z</time>
      </trkpt>
      <trkpt lat="44.66478" lon="6.16936">
        <ele>1301.4</ele>
        <time>2022-09-18T12:15:30Z</time>
      </trkpt>
      <trkpt lat="44.6648" lon="6.16935">
        <ele>1301.8</ele>
        <time>2022-09-18T12:15:31Z</time>
      </trkpt>
      <trkpt lat="44.66483" lon="6.16934">
        <ele>1302.4</ele>
        <time>2022-09-18T12:15:32Z</time>
      </trkpt>
      <trkpt lat="44.66485" lon="6.16933">
        <ele>1303</ele>
        <time>2022-09-18T12:15:33Z</time>
      </trkpt>
      <trkpt lat="44.66487" lon="6.16933">
        <ele>1303.4</ele>
        <time>2022-09-18T12:15:34Z</time>
      </trkpt>
      <trkpt lat="44.66489" lon="6.16932">
        <ele>1303.6</ele>
        <time>2022-09-18T12:15:35Z</time>
      </trkpt>
      <trkpt lat="44.66491" lon="6.16932">
        <ele>1303.8</ele>
        <time>2022-09-18T12:15:36Z</time>
      </trkpt>
      <trkpt lat="44.66494" lon="6.16931">
        <ele>1304.2</ele>
        <time>2022-09-18T12:15:37Z</time>
      </trkpt>
      <trkpt lat="44.66496" lon="6.16931">
        <ele>1304.8</ele>
        <time>2022-09-18T12:15:38Z</time>
      </trkpt>
      <trkpt lat="44.66498" lon="6.1693">
        <ele>1305.2</ele>
        <time>2022-09-18T12:15:39Z</time>
      </trkpt>
      <trkpt lat="44.665" lon="6.16929">
        <ele>1305.8</ele>
        <time>2022-09-18T12:15:40Z</time>
      </trkpt>
      <trkpt lat="44.66502" lon="6.16928">
        <ele>1306.2</ele>
        <time>2022-09-18T12:15:41Z</time>
      </trkpt>
      <trkpt lat="44.66504" lon="6.16927">
        <ele>1306.4</ele>
        <time>2022-09-18T12:15:42Z</time>
      </trkpt>
      <trkpt lat="44.66506" lon="6.16926">
        <ele>1307</ele>
        <time>2022-09-18T12:15:43Z</time>
      </trkpt>
      <trkpt lat="44.66509" lon="6.16926">
        <ele>1307.4</ele>
        <time>2022-09-18T12:15:44Z</time>
      </trkpt>
      <trkpt lat="44.66511" lon="6.16925">
        <ele>1308</ele>
        <time>2022-09-18T12:15:45Z</time>
      </trkpt>
      <trkpt lat="44.66513" lon="6.16923">
        <ele>1308.6</ele>
        <time>2022-09-18T12:15:46Z</time>
      </trkpt>
      <trkpt lat="44.66515" lon="6.16922">
        <ele>1308.8</ele>
        <time>2022-09-18T12:15:47Z</time>
      </trkpt>
      <trkpt lat="44.66517" lon="6.16921">
        <ele>1309.2</ele>
        <time>2022-09-18T12:15:48Z</time>
      </trkpt>
      <trkpt lat="44.66519" lon="6.1692">
        <ele>1309.4</ele>
        <time>2022-09-18T12:15:49Z</time>
      </trkpt>
      <trkpt lat="44.66521" lon="6.16919">
        <ele>1309.6</ele>
        <time>2022-09-18T12:15:50Z</time>
      </trkpt>
      <trkpt lat="44.66524" lon="6.16918">
        <ele>1309.8</ele>
        <time>2022-09-18T12:15:51Z</time>
      </trkpt>
      <trkpt lat="44.66526" lon="6.16918">
        <ele>1310.2</ele>
        <time>2022-09-18T12:15:52Z</time>
      </trkpt>
      <trkpt lat="44.66528" lon="6.16917">
        <ele>1310.4</ele>
        <time>2022-09-18T12:15:53Z</time>
      </trkpt>
      <trkpt lat="44.66531" lon="6.16916">
        <ele>1310.6</ele>
        <time>2022-09-18T12:15:54Z</time>
      </trkpt>
      <trkpt lat="44.66533" lon="6.16915">
        <ele>1310.8</ele>
        <time>2022-09-18T12:15:55Z</time>
      </trkpt>
      <trkpt lat="44.66536" lon="6.16914">
        <ele>1311.2</ele>
        <time>2022-09-18T12:15:56Z</time>
      </trkpt>
      <trkpt lat="44.66538" lon="6.16913">
        <ele>1311.4</ele>
        <time>2022-09-18T12:15:57Z</time>
      </trkpt>
      <trkpt lat="44.6654" lon="6.16912">
        <ele>1311.6</ele>
        <time>2022-09-18T12:15:58Z</time>
      </trkpt>
      <trkpt lat="44.66542" lon="6.16911">
        <ele>1312</ele>
        <time>2022-09-18T12:15:59Z</time>
      </trkpt>
      <trkpt lat="44.66544" lon="6.1691">
        <ele>1312.2</ele>
        <time>2022-09-18T12:16:00Z</time>
      </trkpt>
      <trkpt lat="44.66546" lon="6.16909">
        <ele>1312.4</ele>
        <time>2022-09-18T12:16:01Z</time>
      </trkpt>
      <trkpt lat="44.66549" lon="6.16908">
        <ele>1312.8</ele>
        <time>2022-09-18T12:16:02Z</time>
      </trkpt>
      <trkpt lat="44.66551" lon="6.16907">
        <ele>1313.2</ele>
        <time>2022-09-18T12:16:03Z</time>
      </trkpt>
      <trkpt lat="44.66553" lon="6.16906">
        <ele>1313.6</ele>
        <time>2022-09-18T12:16:04Z</time>
      </trkpt>
      <trkpt lat="44.66556" lon="6.16904">
        <ele>1313.8</ele>
        <time>2022-09-18T12:16:05Z</time>
      </trkpt>
      <trkpt lat="44.66558" lon="6.16903">
        <ele>1313.8</ele>
        <time>2022-09-18T12:16:06Z</time>
      </trkpt>
      <trkpt lat="44.6656" lon="6.16902">
        <ele>1314</ele>
        <time>2022-09-18T12:16:07Z</time>
      </trkpt>
      <trkpt lat="44.66563" lon="6.16901">
        <ele>1314.2</ele>
        <time>2022-09-18T12:16:08Z</time>
      </trkpt>
      <trkpt lat="44.66565" lon="6.169">
        <ele>1314.4</ele>
        <time>2022-09-18T12:16:09Z</time>
      </trkpt>
      <trkpt lat="44.66567" lon="6.16898">
        <ele>1314.8</ele>
        <time>2022-09-18T12:16:10Z</time>
      </trkpt>
      <trkpt lat="44.66569" lon="6.16896">
        <ele>1315</ele>
        <time>2022-09-18T12:16:11Z</time>
      </trkpt>
      <trkpt lat="44.66572" lon="6.16895">
        <ele>1315.2</ele>
        <time>2022-09-18T12:16:12Z</time>
      </trkpt>
      <trkpt lat="44.66574" lon="6.16893">
        <ele>1315.4</ele>
        <time>2022-09-18T12:16:13Z</time>
      </trkpt>
      <trkpt lat="44.66576" lon="6.16891">
        <ele>1315.8</ele>
        <time>2022-09-18T12:16:14Z</time>
      </trkpt>
      <trkpt lat="44.66578" lon="6.1689">
        <ele>1316</ele>
        <time>2022-09-18T12:16:15Z</time>
      </trkpt>
      <trkpt lat="44.6658" lon="6.16888">
        <ele>1316.4</ele>
        <time>2022-09-18T12:16:16Z</time>
      </trkpt>
      <trkpt lat="44.66582" lon="6.16887">
        <ele>1316.6</ele>
        <time>2022-09-18T12:16:17Z</time>
      </trkpt>
      <trkpt lat="44.66584" lon="6.16886">
        <ele>1316.8</ele>
        <time>2022-09-18T12:16:18Z</time>
      </trkpt>
      <trkpt lat="44.66586" lon="6.16884">
        <ele>1317.2</ele>
        <time>2022-09-18T12:16:19Z</time>
      </trkpt>
      <trkpt lat="44.66588" lon="6.16882">
        <ele>1317.4</ele>
        <time>2022-09-18T12:16:20Z</time>
      </trkpt>
      <trkpt lat="44.6659" lon="6.16881">
        <ele>1317.6</ele>
        <time>2022-09-18T12:16:21Z</time>
      </trkpt>
      <trkpt lat="44.66592" lon="6.16879">
        <ele>1317.6</ele>
        <time>2022-09-18T12:16:22Z</time>
      </trkpt>
      <trkpt lat="44.66594" lon="6.16878">
        <ele>1317.8</ele>
        <time>2022-09-18T12:16:23Z</time>
      </trkpt>
      <trkpt lat="44.66597" lon="6.16877">
        <ele>1317.8</ele>
        <time>2022-09-18T12:16:24Z</time>
      </trkpt>
      <trkpt lat="44.66599" lon="6.16875">
        <ele>1317.8</ele>
        <time>2022-09-18T12:16:25Z</time>
      </trkpt>
      <trkpt lat="44.66601" lon="6.16874">
        <ele>1317.8</ele>
        <time>2022-09-18T12:16:26Z</time>
      </trkpt>
      <trkpt lat="44.66603" lon="6.16873">
        <ele>1317.8</ele>
        <time>2022-09-18T12:16:27Z</time>
      </trkpt>
      <trkpt lat="44.66605" lon="6.16871">
        <ele>1318</ele>
        <time>2022-09-18T12:16:28Z</time>
      </trkpt>
      <trkpt lat="44.66607" lon="6.1687">
        <ele>1318</ele>
        <time>2022-09-18T12:16:29Z</time>
      </trkpt>
      <trkpt lat="44.66609" lon="6.16868">
        <ele>1318</ele>
        <time>2022-09-18T12:16:30Z</time>
      </trkpt>
      <trkpt lat="44.66611" lon="6.16867">
        <ele>1317.8</ele>
        <time>2022-09-18T12:16:31Z</time>
      </trkpt>
      <trkpt lat="44.66613" lon="6.16866">
        <ele>1318</ele>
        <time>2022-09-18T12:16:32Z</time>
      </trkpt>
      <trkpt lat="44.66616" lon="6.16865">
        <ele>1317.8</ele>
        <time>2022-09-18T12:16:33Z</time>
      </trkpt>
      <trkpt lat="44.66618" lon="6.16864">
        <ele>1317.8</ele>
        <time>2022-09-18T12:16:34Z</time>
      </trkpt>
      <trkpt lat="44.6662" lon="6.16862">
        <ele>1318</ele>
        <time>2022-09-18T12:16:35Z</time>
      </trkpt>
      <trkpt lat="44.66622" lon="6.16861">
        <ele>1317.8</ele>
        <time>2022-09-18T12:16:36Z</time>
      </trkpt>
      <trkpt lat="44.66624" lon="6.16859">
        <ele>1317.8</ele>
        <time>2022-09-18T12:16:37Z</time>
      </trkpt>
      <trkpt lat="44.66627" lon="6.16858">
        <ele>1317.6</ele>
        <time>2022-09-18T12:16:38Z</time>
      </trkpt>
      <trkpt lat="44.66629" lon="6.16857">
        <ele>1317.4</ele>
        <time>2022-09-18T12:16:39Z</time>
      </trkpt>
      <trkpt lat="44.66631" lon="6.16855">
        <ele>1317.6</ele>
        <time>2022-09-18T12:16:40Z</time>
      </trkpt>
      <trkpt lat="44.66633" lon="6.16855">
        <ele>1317.4</ele>
        <time>2022-09-18T12:16:41Z</time>
      </trkpt>
      <trkpt lat="44.66636" lon="6.16854">
        <ele>1317.6</ele>
        <time>2022-09-18T12:16:42Z</time>
      </trkpt>
      <trkpt lat="44.66638" lon="6.16853">
        <ele>1317.6</ele>
        <time>2022-09-18T12:16:43Z</time>
      </trkpt>
      <trkpt lat="44.66641" lon="6.16851">
        <ele>1317.4</ele>
        <time>2022-09-18T12:16:44Z</time>
      </trkpt>
      <trkpt lat="44.66643" lon="6.1685">
        <ele>1317.6</ele>
        <time>2022-09-18T12:16:45Z</time>
      </trkpt>
      <trkpt lat="44.66646" lon="6.16849">
        <ele>1317.4</ele>
        <time>2022-09-18T12:16:46Z</time>
      </trkpt>
      <trkpt lat="44.66648" lon="6.16848">
        <ele>1317.6</ele>
        <time>2022-09-18T12:16:47Z</time>
      </trkpt>
      <trkpt lat="44.66651" lon="6.16847">
        <ele>1317.6</ele>
        <time>2022-09-18T12:16:48Z</time>
      </trkpt>
      <trkpt lat="44.66653" lon="6.16846">
        <ele>1317.6</ele>
        <time>2022-09-18T12:16:49Z</time>
      </trkpt>
      <trkpt lat="44.66655" lon="6.16844">
        <ele>1317.6</ele>
        <time>2022-09-18T12:16:50Z</time>
      </trkpt>
      <trkpt lat="44.66657" lon="6.16843">
        <ele>1317.8</ele>
        <time>2022-09-18T12:16:51Z</time>
      </trkpt>
      <trkpt lat="44.6666" lon="6.16841">
        <ele>1318</ele>
        <time>2022-09-18T12:16:52Z</time>
      </trkpt>
      <trkpt lat="44.66662" lon="6.1684">
        <ele>1318.2</ele>
        <time>2022-09-18T12:16:53Z</time>
      </trkpt>
      <trkpt lat="44.66665" lon="6.16838">
        <ele>1318.4</ele>
        <time>2022-09-18T12:16:54Z</time>
      </trkpt>
      <trkpt lat="44.66667" lon="6.16837">
        <ele>1318.4</ele>
        <time>2022-09-18T12:16:55Z</time>
      </trkpt>
      <trkpt lat="44.6667" lon="6.16836">
        <ele>1318.6</ele>
        <time>2022-09-18T12:16:56Z</time>
      </trkpt>
      <trkpt lat="44.66672" lon="6.16834">
        <ele>1318.6</ele>
        <time>2022-09-18T12:16:57Z</time>
      </trkpt>
      <trkpt lat="44.66675" lon="6.16833">
        <ele>1318.8</ele>
        <time>2022-09-18T12:16:58Z</time>
      </trkpt>
      <trkpt lat="44.66677" lon="6.16832">
        <ele>1318.8</ele>
        <time>2022-09-18T12:16:59Z</time>
      </trkpt>
      <trkpt lat="44.6668" lon="6.1683">
        <ele>1319</ele>
        <time>2022-09-18T12:17:00Z</time>
      </trkpt>
      <trkpt lat="44.66683" lon="6.16829">
        <ele>1319</ele>
        <time>2022-09-18T12:17:01Z</time>
      </trkpt>
      <trkpt lat="44.66685" lon="6.16827">
        <ele>1319</ele>
        <time>2022-09-18T12:17:02Z</time>
      </trkpt>
      <trkpt lat="44.66688" lon="6.16826">
        <ele>1319</ele>
        <time>2022-09-18T12:17:03Z</time>
      </trkpt>
      <trkpt lat="44.66691" lon="6.16825">
        <ele>1319.2</ele>
        <time>2022-09-18T12:17:04Z</time>
      </trkpt>
      <trkpt lat="44.66693" lon="6.16823">
        <ele>1319.2</ele>
        <time>2022-09-18T12:17:05Z</time>
      </trkpt>
      <trkpt lat="44.66696" lon="6.16821">
        <ele>1319.2</ele>
        <time>2022-09-18T12:17:06Z</time>
      </trkpt>
      <trkpt lat="44.66699" lon="6.1682">
        <ele>1319.2</ele>
        <time>2022-09-18T12:17:07Z</time>
      </trkpt>
      <trkpt lat="44.66702" lon="6.16818">
        <ele>1319.4</ele>
        <time>2022-09-18T12:17:08Z</time>
      </trkpt>
      <trkpt lat="44.66704" lon="6.16816">
        <ele>1319.4</ele>
        <time>2022-09-18T12:17:09Z</time>
      </trkpt>
      <trkpt lat="44.66707" lon="6.16814">
        <ele>1319.6</ele>
        <time>2022-09-18T12:17:10Z</time>
      </trkpt>
      <trkpt lat="44.6671" lon="6.16812">
        <ele>1319.8</ele>
        <time>2022-09-18T12:17:11Z</time>
      </trkpt>
      <trkpt lat="44.66713" lon="6.1681">
        <ele>1319.8</ele>
        <time>2022-09-18T12:17:12Z</time>
      </trkpt>
      <trkpt lat="44.66716" lon="6.16809">
        <ele>1320</ele>
        <time>2022-09-18T12:17:13Z</time>
      </trkpt>
      <trkpt lat="44.66719" lon="6.16808">
        <ele>1320.2</ele>
        <time>2022-09-18T12:17:14Z</time>
      </trkpt>
      <trkpt lat="44.66722" lon="6.16806">
        <ele>1320.4</ele>
        <time>2022-09-18T12:17:15Z</time>
      </trkpt>
      <trkpt lat="44.66724" lon="6.16805">
        <ele>1320.6</ele>
        <time>2022-09-18T12:17:16Z</time>
      </trkpt>
      <trkpt lat="44.66727" lon="6.16803">
        <ele>1320.6</ele>
        <time>2022-09-18T12:17:17Z</time>
      </trkpt>
      <trkpt lat="44.6673" lon="6.16802">
        <ele>1320.4</ele>
        <time>2022-09-18T12:17:18Z</time>
      </trkpt>
      <trkpt lat="44.66733" lon="6.168">
        <ele>1320.6</ele>
        <time>2022-09-18T12:17:19Z</time>
      </trkpt>
      <trkpt lat="44.66736" lon="6.16798">
        <ele>1320.6</ele>
        <time>2022-09-18T12:17:20Z</time>
      </trkpt>
      <trkpt lat="44.66739" lon="6.16797">
        <ele>1320.8</ele>
        <time>2022-09-18T12:17:21Z</time>
      </trkpt>
      <trkpt lat="44.66742" lon="6.16795">
        <ele>1320.8</ele>
        <time>2022-09-18T12:17:22Z</time>
      </trkpt>
      <trkpt lat="44.66745" lon="6.16793">
        <ele>1320.8</ele>
        <time>2022-09-18T12:17:23Z</time>
      </trkpt>
      <trkpt lat="44.66747" lon="6.16791">
        <ele>1320.6</ele>
        <time>2022-09-18T12:17:24Z</time>
      </trkpt>
      <trkpt lat="44.6675" lon="6.16789">
        <ele>1320.8</ele>
        <time>2022-09-18T12:17:25Z</time>
      </trkpt>
      <trkpt lat="44.66754" lon="6.16788">
        <ele>1321</ele>
        <time>2022-09-18T12:17:26Z</time>
      </trkpt>
      <trkpt lat="44.66757" lon="6.16786">
        <ele>1320.8</ele>
        <time>2022-09-18T12:17:27Z</time>
      </trkpt>
      <trkpt lat="44.6676" lon="6.16784">
        <ele>1320.6</ele>
        <time>2022-09-18T12:17:28Z</time>
      </trkpt>
      <trkpt lat="44.66763" lon="6.16782">
        <ele>1320.4</ele>
        <time>2022-09-18T12:17:29Z</time>
      </trkpt>
      <trkpt lat="44.66766" lon="6.16781">
        <ele>1320.2</ele>
        <time>2022-09-18T12:17:30Z</time>
      </trkpt>
      <trkpt lat="44.66769" lon="6.16779">
        <ele>1320.2</ele>
        <time>2022-09-18T12:17:31Z</time>
      </trkpt>
      <trkpt lat="44.66773" lon="6.16778">
        <ele>1320</ele>
        <time>2022-09-18T12:17:32Z</time>
      </trkpt>
      <trkpt lat="44.66776" lon="6.16776">
        <ele>1319.8</ele>
        <time>2022-09-18T12:17:33Z</time>
      </trkpt>
      <trkpt lat="44.66779" lon="6.16775">
        <ele>1319.8</ele>
        <time>2022-09-18T12:17:34Z</time>
      </trkpt>
      <trkpt lat="44.66782" lon="6.16774">
        <ele>1319.6</ele>
        <time>2022-09-18T12:17:35Z</time>
      </trkpt>
      <trkpt lat="44.66785" lon="6.16772">
        <ele>1319.4</ele>
        <time>2022-09-18T12:17:36Z</time>
      </trkpt>
      <trkpt lat="44.66788" lon="6.16771">
        <ele>1319</ele>
        <time>2022-09-18T12:17:37Z</time>
      </trkpt>
      <trkpt lat="44.66791" lon="6.16769">
        <ele>1319</ele>
        <time>2022-09-18T12:17:38Z</time>
      </trkpt>
      <trkpt lat="44.66794" lon="6.16767">
        <ele>1319</ele>
        <time>2022-09-18T12:17:39Z</time>
      </trkpt>
      <trkpt lat="44.66797" lon="6.16765">
        <ele>1319</ele>
        <time>2022-09-18T12:17:40Z</time>
      </trkpt>
      <trkpt lat="44.66799" lon="6.16763">
        <ele>1318.8</ele>
        <time>2022-09-18T12:17:41Z</time>
      </trkpt>
      <trkpt lat="44.66802" lon="6.16761">
        <ele>1318.6</ele>
        <time>2022-09-18T12:17:42Z</time>
      </trkpt>
      <trkpt lat="44.66805" lon="6.1676">
        <ele>1318.6</ele>
        <time>2022-09-18T12:17:43Z</time>
      </trkpt>
      <trkpt lat="44.66808" lon="6.16758">
        <ele>1318.4</ele>
        <time>2022-09-18T12:17:44Z</time>
      </trkpt>
      <trkpt lat="44.6681" lon="6.16757">
        <ele>1318.4</ele>
        <time>2022-09-18T12:17:45Z</time>
      </trkpt>
      <trkpt lat="44.66813" lon="6.16757">
        <ele>1318.2</ele>
        <time>2022-09-18T12:17:46Z</time>
      </trkpt>
      <trkpt lat="44.66816" lon="6.16755">
        <ele>1318.2</ele>
        <time>2022-09-18T12:17:47Z</time>
      </trkpt>
      <trkpt lat="44.66819" lon="6.16754">
        <ele>1318</ele>
        <time>2022-09-18T12:17:48Z</time>
      </trkpt>
      <trkpt lat="44.66821" lon="6.16753">
        <ele>1318</ele>
        <time>2022-09-18T12:17:49Z</time>
      </trkpt>
      <trkpt lat="44.66824" lon="6.16752">
        <ele>1318</ele>
        <time>2022-09-18T12:17:50Z</time>
      </trkpt>
      <trkpt lat="44.66827" lon="6.16751">
        <ele>1318</ele>
        <time>2022-09-18T12:17:51Z</time>
      </trkpt>
      <trkpt lat="44.6683" lon="6.1675">
        <ele>1318</ele>
        <time>2022-09-18T12:17:52Z</time>
      </trkpt>
      <trkpt lat="44.66832" lon="6.16749">
        <ele>1318</ele>
        <time>2022-09-18T12:17:53Z</time>
      </trkpt>
      <trkpt lat="44.66835" lon="6.16748">
        <ele>1318</ele>
        <time>2022-09-18T12:17:54Z</time>
      </trkpt>
      <trkpt lat="44.66838" lon="6.16747">
        <ele>1317.8</ele>
        <time>2022-09-18T12:17:55Z</time>
      </trkpt>
      <trkpt lat="44.66841" lon="6.16745">
        <ele>1317.8</ele>
        <time>2022-09-18T12:17:56Z</time>
      </trkpt>
      <trkpt lat="44.66843" lon="6.16744">
        <ele>1317.8</ele>
        <time>2022-09-18T12:17:57Z</time>
      </trkpt>
      <trkpt lat="44.66846" lon="6.16743">
        <ele>1317.8</ele>
        <time>2022-09-18T12:17:58Z</time>
      </trkpt>
      <trkpt lat="44.66849" lon="6.16741">
        <ele>1317.8</ele>
        <time>2022-09-18T12:17:59Z</time>
      </trkpt>
      <trkpt lat="44.66851" lon="6.16741">
        <ele>1317.8</ele>
        <time>2022-09-18T12:18:00Z</time>
      </trkpt>
      <trkpt lat="44.66854" lon="6.1674">
        <ele>1317.8</ele>
        <time>2022-09-18T12:18:01Z</time>
      </trkpt>
      <trkpt lat="44.66857" lon="6.16739">
        <ele>1317.8</ele>
        <time>2022-09-18T12:18:02Z</time>
      </trkpt>
      <trkpt lat="44.66859" lon="6.16739">
        <ele>1317.8</ele>
        <time>2022-09-18T12:18:03Z</time>
      </trkpt>
      <trkpt lat="44.66861" lon="6.16739">
        <ele>1318</ele>
        <time>2022-09-18T12:18:04Z</time>
      </trkpt>
      <trkpt lat="44.66864" lon="6.16738">
        <ele>1318</ele>
        <time>2022-09-18T12:18:05Z</time>
      </trkpt>
      <trkpt lat="44.66866" lon="6.16737">
        <ele>1318.2</ele>
        <time>2022-09-18T12:18:06Z</time>
      </trkpt>
      <trkpt lat="44.66868" lon="6.16736">
        <ele>1318.2</ele>
        <time>2022-09-18T12:18:07Z</time>
      </trkpt>
      <trkpt lat="44.6687" lon="6.16736">
        <ele>1318.2</ele>
        <time>2022-09-18T12:18:08Z</time>
      </trkpt>
      <trkpt lat="44.66873" lon="6.16735">
        <ele>1318.4</ele>
        <time>2022-09-18T12:18:09Z</time>
      </trkpt>
      <trkpt lat="44.66875" lon="6.16734">
        <ele>1318.4</ele>
        <time>2022-09-18T12:18:10Z</time>
      </trkpt>
      <trkpt lat="44.66877" lon="6.16733">
        <ele>1318.6</ele>
        <time>2022-09-18T12:18:11Z</time>
      </trkpt>
      <trkpt lat="44.66879" lon="6.16732">
        <ele>1318.8</ele>
        <time>2022-09-18T12:18:12Z</time>
      </trkpt>
      <trkpt lat="44.66882" lon="6.16731">
        <ele>1319</ele>
        <time>2022-09-18T12:18:13Z</time>
      </trkpt>
      <trkpt lat="44.66884" lon="6.16731">
        <ele>1319.2</ele>
        <time>2022-09-18T12:18:14Z</time>
      </trkpt>
      <trkpt lat="44.66886" lon="6.1673">
        <ele>1319.4</ele>
        <time>2022-09-18T12:18:15Z</time>
      </trkpt>
      <trkpt lat="44.66889" lon="6.1673">
        <ele>1319.6</ele>
        <time>2022-09-18T12:18:16Z</time>
      </trkpt>
      <trkpt lat="44.66891" lon="6.1673">
        <ele>1319.6</ele>
        <time>2022-09-18T12:18:17Z</time>
      </trkpt>
      <trkpt lat="44.66894" lon="6.1673">
        <ele>1319.6</ele>
        <time>2022-09-18T12:18:18Z</time>
      </trkpt>
      <trkpt lat="44.66896" lon="6.1673">
        <ele>1319.8</ele>
        <time>2022-09-18T12:18:19Z</time>
      </trkpt>
      <trkpt lat="44.66899" lon="6.1673">
        <ele>1320</ele>
        <time>2022-09-18T12:18:20Z</time>
      </trkpt>
      <trkpt lat="44.66901" lon="6.16729">
        <ele>1320.2</ele>
        <time>2022-09-18T12:18:21Z</time>
      </trkpt>
      <trkpt lat="44.66903" lon="6.16729">
        <ele>1320.4</ele>
        <time>2022-09-18T12:18:22Z</time>
      </trkpt>
      <trkpt lat="44.66906" lon="6.16729">
        <ele>1320.6</ele>
        <time>2022-09-18T12:18:23Z</time>
      </trkpt>
      <trkpt lat="44.66908" lon="6.16728">
        <ele>1320.8</ele>
        <time>2022-09-18T12:18:24Z</time>
      </trkpt>
      <trkpt lat="44.6691" lon="6.16728">
        <ele>1320.8</ele>
        <time>2022-09-18T12:18:25Z</time>
      </trkpt>
      <trkpt lat="44.66913" lon="6.16727">
        <ele>1320.8</ele>
        <time>2022-09-18T12:18:26Z</time>
      </trkpt>
      <trkpt lat="44.66915" lon="6.16726">
        <ele>1321</ele>
        <time>2022-09-18T12:18:27Z</time>
      </trkpt>
      <trkpt lat="44.66917" lon="6.16725">
        <ele>1321.2</ele>
        <time>2022-09-18T12:18:28Z</time>
      </trkpt>
      <trkpt lat="44.66919" lon="6.16725">
        <ele>1321.6</ele>
        <time>2022-09-18T12:18:29Z</time>
      </trkpt>
      <trkpt lat="44.66922" lon="6.16725">
        <ele>1321.6</ele>
        <time>2022-09-18T12:18:30Z</time>
      </trkpt>
      <trkpt lat="44.66924" lon="6.16724">
        <ele>1321.8</ele>
        <time>2022-09-18T12:18:31Z</time>
      </trkpt>
      <trkpt lat="44.66927" lon="6.16724">
        <ele>1321.8</ele>
        <time>2022-09-18T12:18:32Z</time>
      </trkpt>
      <trkpt lat="44.66929" lon="6.16724">
        <ele>1322</ele>
        <time>2022-09-18T12:18:33Z</time>
      </trkpt>
      <trkpt lat="44.66931" lon="6.16724">
        <ele>1322.2</ele>
        <time>2022-09-18T12:18:34Z</time>
      </trkpt>
      <trkpt lat="44.66934" lon="6.16723">
        <ele>1322.2</ele>
        <time>2022-09-18T12:18:35Z</time>
      </trkpt>
      <trkpt lat="44.66936" lon="6.16723">
        <ele>1322.2</ele>
        <time>2022-09-18T12:18:36Z</time>
      </trkpt>
      <trkpt lat="44.66938" lon="6.16722">
        <ele>1322.2</ele>
        <time>2022-09-18T12:18:37Z</time>
      </trkpt>
      <trkpt lat="44.6694" lon="6.16722">
        <ele>1322.4</ele>
        <time>2022-09-18T12:18:38Z</time>
      </trkpt>
      <trkpt lat="44.66943" lon="6.16721">
        <ele>1322.4</ele>
        <time>2022-09-18T12:18:39Z</time>
      </trkpt>
      <trkpt lat="44.66945" lon="6.16721">
        <ele>1322.6</ele>
        <time>2022-09-18T12:18:40Z</time>
      </trkpt>
      <trkpt lat="44.66947" lon="6.1672">
        <ele>1322.8</ele>
        <time>2022-09-18T12:18:41Z</time>
      </trkpt>
      <trkpt lat="44.6695" lon="6.16719">
        <ele>1322.8</ele>
        <time>2022-09-18T12:18:42Z</time>
      </trkpt>
      <trkpt lat="44.66952" lon="6.16719">
        <ele>1323.2</ele>
        <time>2022-09-18T12:18:43Z</time>
      </trkpt>
      <trkpt lat="44.66954" lon="6.16718">
        <ele>1323.4</ele>
        <time>2022-09-18T12:18:44Z</time>
      </trkpt>
      <trkpt lat="44.66956" lon="6.16718">
        <ele>1323.4</ele>
        <time>2022-09-18T12:18:45Z</time>
      </trkpt>
      <trkpt lat="44.66959" lon="6.16717">
        <ele>1323.4</ele>
        <time>2022-09-18T12:18:46Z</time>
      </trkpt>
      <trkpt lat="44.66961" lon="6.16716">
        <ele>1323.4</ele>
        <time>2022-09-18T12:18:47Z</time>
      </trkpt>
      <trkpt lat="44.66963" lon="6.16715">
        <ele>1323.6</ele>
        <time>2022-09-18T12:18:48Z</time>
      </trkpt>
      <trkpt lat="44.66965" lon="6.16715">
        <ele>1323.6</ele>
        <time>2022-09-18T12:18:49Z</time>
      </trkpt>
      <trkpt lat="44.66967" lon="6.16715">
        <ele>1323.6</ele>
        <time>2022-09-18T12:18:50Z</time>
      </trkpt>
      <trkpt lat="44.66969" lon="6.16714">
        <ele>1323.6</ele>
        <time>2022-09-18T12:18:51Z</time>
      </trkpt>
      <trkpt lat="44.66972" lon="6.16714">
        <ele>1323.8</ele>
        <time>2022-09-18T12:18:52Z</time>
      </trkpt>
      <trkpt lat="44.66974" lon="6.16713">
        <ele>1323.8</ele>
        <time>2022-09-18T12:18:53Z</time>
      </trkpt>
      <trkpt lat="44.66976" lon="6.16713">
        <ele>1324</ele>
        <time>2022-09-18T12:18:54Z</time>
      </trkpt>
      <trkpt lat="44.66978" lon="6.16713">
        <ele>1324</ele>
        <time>2022-09-18T12:18:55Z</time>
      </trkpt>
      <trkpt lat="44.66981" lon="6.16712">
        <ele>1324</ele>
        <time>2022-09-18T12:18:56Z</time>
      </trkpt>
      <trkpt lat="44.66983" lon="6.16711">
        <ele>1324</ele>
        <time>2022-09-18T12:18:57Z</time>
      </trkpt>
      <trkpt lat="44.66985" lon="6.1671">
        <ele>1324.2</ele>
        <time>2022-09-18T12:18:58Z</time>
      </trkpt>
      <trkpt lat="44.66988" lon="6.16708">
        <ele>1324.2</ele>
        <time>2022-09-18T12:18:59Z</time>
      </trkpt>
      <trkpt lat="44.6699" lon="6.16707">
        <ele>1324.2</ele>
        <time>2022-09-18T12:19:00Z</time>
      </trkpt>
      <trkpt lat="44.66992" lon="6.16705">
        <ele>1324.2</ele>
        <time>2022-09-18T12:19:01Z</time>
      </trkpt>
      <trkpt lat="44.66994" lon="6.16703">
        <ele>1324.2</ele>
        <time>2022-09-18T12:19:02Z</time>
      </trkpt>
      <trkpt lat="44.66997" lon="6.16701">
        <ele>1324.2</ele>
        <time>2022-09-18T12:19:03Z</time>
      </trkpt>
      <trkpt lat="44.66999" lon="6.167">
        <ele>1324.2</ele>
        <time>2022-09-18T12:19:04Z</time>
      </trkpt>
      <trkpt lat="44.67001" lon="6.16698">
        <ele>1324.2</ele>
        <time>2022-09-18T12:19:05Z</time>
      </trkpt>
      <trkpt lat="44.67003" lon="6.16697">
        <ele>1324.2</ele>
        <time>2022-09-18T12:19:06Z</time>
      </trkpt>
      <trkpt lat="44.67005" lon="6.16695">
        <ele>1324.2</ele>
        <time>2022-09-18T12:19:07Z</time>
      </trkpt>
      <trkpt lat="44.67008" lon="6.16694">
        <ele>1324.2</ele>
        <time>2022-09-18T12:19:08Z</time>
      </trkpt>
      <trkpt lat="44.6701" lon="6.16693">
        <ele>1324.2</ele>
        <time>2022-09-18T12:19:09Z</time>
      </trkpt>
      <trkpt lat="44.67012" lon="6.16692">
        <ele>1324.2</ele>
        <time>2022-09-18T12:19:10Z</time>
      </trkpt>
      <trkpt lat="44.67014" lon="6.1669">
        <ele>1324.2</ele>
        <time>2022-09-18T12:19:11Z</time>
      </trkpt>
      <trkpt lat="44.67017" lon="6.16688">
        <ele>1324.2</ele>
        <time>2022-09-18T12:19:12Z</time>
      </trkpt>
      <trkpt lat="44.67019" lon="6.16686">
        <ele>1324.4</ele>
        <time>2022-09-18T12:19:13Z</time>
      </trkpt>
      <trkpt lat="44.67021" lon="6.16683">
        <ele>1324.4</ele>
        <time>2022-09-18T12:19:14Z</time>
      </trkpt>
      <trkpt lat="44.67023" lon="6.16681">
        <ele>1324.2</ele>
        <time>2022-09-18T12:19:15Z</time>
      </trkpt>
      <trkpt lat="44.67025" lon="6.16678">
        <ele>1324.2</ele>
        <time>2022-09-18T12:19:16Z</time>
      </trkpt>
      <trkpt lat="44.67027" lon="6.16676">
        <ele>1324.2</ele>
        <time>2022-09-18T12:19:17Z</time>
      </trkpt>
      <trkpt lat="44.67028" lon="6.16673">
        <ele>1324.2</ele>
        <time>2022-09-18T12:19:18Z</time>
      </trkpt>
      <trkpt lat="44.6703" lon="6.1667">
        <ele>1324</ele>
        <time>2022-09-18T12:19:19Z</time>
      </trkpt>
      <trkpt lat="44.67032" lon="6.16668">
        <ele>1324.2</ele>
        <time>2022-09-18T12:19:20Z</time>
      </trkpt>
      <trkpt lat="44.67034" lon="6.16665">
        <ele>1324</ele>
        <time>2022-09-18T12:19:21Z</time>
      </trkpt>
      <trkpt lat="44.67036" lon="6.16662">
        <ele>1324</ele>
        <time>2022-09-18T12:19:22Z</time>
      </trkpt>
      <trkpt lat="44.67038" lon="6.16659">
        <ele>1324.2</ele>
        <time>2022-09-18T12:19:23Z</time>
      </trkpt>
      <trkpt lat="44.6704" lon="6.16656">
        <ele>1324.2</ele>
        <time>2022-09-18T12:19:24Z</time>
      </trkpt>
      <trkpt lat="44.67043" lon="6.16653">
        <ele>1324.6</ele>
        <time>2022-09-18T12:19:25Z</time>
      </trkpt>
      <trkpt lat="44.67045" lon="6.1665">
        <ele>1324.8</ele>
        <time>2022-09-18T12:19:26Z</time>
      </trkpt>
      <trkpt lat="44.67047" lon="6.16647">
        <ele>1324.8</ele>
        <time>2022-09-18T12:19:27Z</time>
      </trkpt>
      <trkpt lat="44.67049" lon="6.16644">
        <ele>1325</ele>
        <time>2022-09-18T12:19:28Z</time>
      </trkpt>
      <trkpt lat="44.67051" lon="6.16642">
        <ele>1325.2</ele>
        <time>2022-09-18T12:19:29Z</time>
      </trkpt>
      <trkpt lat="44.67053" lon="6.16639">
        <ele>1325.2</ele>
        <time>2022-09-18T12:19:30Z</time>
      </trkpt>
      <trkpt lat="44.67055" lon="6.16636">
        <ele>1325.4</ele>
        <time>2022-09-18T12:19:31Z</time>
      </trkpt>
      <trkpt lat="44.67057" lon="6.16633">
        <ele>1325.4</ele>
        <time>2022-09-18T12:19:32Z</time>
      </trkpt>
      <trkpt lat="44.67059" lon="6.16631">
        <ele>1325.4</ele>
        <time>2022-09-18T12:19:33Z</time>
      </trkpt>
      <trkpt lat="44.67061" lon="6.16628">
        <ele>1325.6</ele>
        <time>2022-09-18T12:19:34Z</time>
      </trkpt>
      <trkpt lat="44.67063" lon="6.16625">
        <ele>1325.8</ele>
        <time>2022-09-18T12:19:35Z</time>
      </trkpt>
      <trkpt lat="44.67065" lon="6.16622">
        <ele>1326</ele>
        <time>2022-09-18T12:19:36Z</time>
      </trkpt>
      <trkpt lat="44.67067" lon="6.16619">
        <ele>1326</ele>
        <time>2022-09-18T12:19:37Z</time>
      </trkpt>
      <trkpt lat="44.67069" lon="6.16616">
        <ele>1326.2</ele>
        <time>2022-09-18T12:19:38Z</time>
      </trkpt>
      <trkpt lat="44.67071" lon="6.16613">
        <ele>1326.2</ele>
        <time>2022-09-18T12:19:39Z</time>
      </trkpt>
      <trkpt lat="44.67073" lon="6.1661">
        <ele>1326.2</ele>
        <time>2022-09-18T12:19:40Z</time>
      </trkpt>
      <trkpt lat="44.67075" lon="6.16607">
        <ele>1326.4</ele>
        <time>2022-09-18T12:19:41Z</time>
      </trkpt>
      <trkpt lat="44.67077" lon="6.16604">
        <ele>1326.4</ele>
        <time>2022-09-18T12:19:42Z</time>
      </trkpt>
      <trkpt lat="44.67079" lon="6.16601">
        <ele>1326.4</ele>
        <time>2022-09-18T12:19:43Z</time>
      </trkpt>
      <trkpt lat="44.67081" lon="6.16598">
        <ele>1326.4</ele>
        <time>2022-09-18T12:19:44Z</time>
      </trkpt>
      <trkpt lat="44.67083" lon="6.16595">
        <ele>1326.4</ele>
        <time>2022-09-18T12:19:45Z</time>
      </trkpt>
      <trkpt lat="44.67085" lon="6.16592">
        <ele>1326.4</ele>
        <time>2022-09-18T12:19:46Z</time>
      </trkpt>
      <trkpt lat="44.67086" lon="6.1659">
        <ele>1326.4</ele>
        <time>2022-09-18T12:19:47Z</time>
      </trkpt>
      <trkpt lat="44.67088" lon="6.16587">
        <ele>1326.4</ele>
        <time>2022-09-18T12:19:48Z</time>
      </trkpt>
      <trkpt lat="44.6709" lon="6.16584">
        <ele>1326.6</ele>
        <time>2022-09-18T12:19:49Z</time>
      </trkpt>
      <trkpt lat="44.67092" lon="6.16581">
        <ele>1326.6</ele>
        <time>2022-09-18T12:19:50Z</time>
      </trkpt>
      <trkpt lat="44.67093" lon="6.16579">
        <ele>1326.6</ele>
        <time>2022-09-18T12:19:51Z</time>
      </trkpt>
      <trkpt lat="44.67095" lon="6.16576">
        <ele>1326.6</ele>
        <time>2022-09-18T12:19:52Z</time>
      </trkpt>
      <trkpt lat="44.67097" lon="6.16573">
        <ele>1326.8</ele>
        <time>2022-09-18T12:19:53Z</time>
      </trkpt>
      <trkpt lat="44.67099" lon="6.16571">
        <ele>1327</ele>
        <time>2022-09-18T12:19:54Z</time>
      </trkpt>
      <trkpt lat="44.67101" lon="6.16568">
        <ele>1327.2</ele>
        <time>2022-09-18T12:19:55Z</time>
      </trkpt>
      <trkpt lat="44.67102" lon="6.16565">
        <ele>1327.2</ele>
        <time>2022-09-18T12:19:56Z</time>
      </trkpt>
      <trkpt lat="44.67104" lon="6.16563">
        <ele>1327.2</ele>
        <time>2022-09-18T12:19:57Z</time>
      </trkpt>
      <trkpt lat="44.67106" lon="6.1656">
        <ele>1327.4</ele>
        <time>2022-09-18T12:19:58Z</time>
      </trkpt>
      <trkpt lat="44.67107" lon="6.16557">
        <ele>1327.6</ele>
        <time>2022-09-18T12:19:59Z</time>
      </trkpt>
      <trkpt lat="44.67109" lon="6.16555">
        <ele>1327.6</ele>
        <time>2022-09-18T12:20:00Z</time>
      </trkpt>
      <trkpt lat="44.67118" lon="6.16551">
        <ele>1328.4</ele>
        <time>2022-09-18T12:20:03Z</time>
      </trkpt>
      <trkpt lat="44.67127" lon="6.1655">
        <ele>1329</ele>
        <time>2022-09-18T12:20:06Z</time>
      </trkpt>
      <trkpt lat="44.67136" lon="6.16549">
        <ele>1329.4</ele>
        <time>2022-09-18T12:20:09Z</time>
      </trkpt>
      <trkpt lat="44.67144" lon="6.16552">
        <ele>1329.6</ele>
        <time>2022-09-18T12:20:12Z</time>
      </trkpt>
      <trkpt lat="44.67153" lon="6.16563">
        <ele>1330.4</ele>
        <time>2022-09-18T12:20:16Z</time>
      </trkpt>
      <trkpt lat="44.67156" lon="6.16566">
        <ele>1330.6</ele>
        <time>2022-09-18T12:20:17Z</time>
      </trkpt>
      <trkpt lat="44.67159" lon="6.16569">
        <ele>1330.8</ele>
        <time>2022-09-18T12:20:18Z</time>
      </trkpt>
      <trkpt lat="44.67162" lon="6.16571">
        <ele>1331</ele>
        <time>2022-09-18T12:20:19Z</time>
      </trkpt>
      <trkpt lat="44.67164" lon="6.16574">
        <ele>1331</ele>
        <time>2022-09-18T12:20:20Z</time>
      </trkpt>
      <trkpt lat="44.67166" lon="6.16577">
        <ele>1331.4</ele>
        <time>2022-09-18T12:20:21Z</time>
      </trkpt>
      <trkpt lat="44.67169" lon="6.1658">
        <ele>1331.6</ele>
        <time>2022-09-18T12:20:22Z</time>
      </trkpt>
      <trkpt lat="44.67171" lon="6.16583">
        <ele>1331.8</ele>
        <time>2022-09-18T12:20:23Z</time>
      </trkpt>
      <trkpt lat="44.67173" lon="6.16585">
        <ele>1331.8</ele>
        <time>2022-09-18T12:20:24Z</time>
      </trkpt>
      <trkpt lat="44.67175" lon="6.16588">
        <ele>1332.2</ele>
        <time>2022-09-18T12:20:25Z</time>
      </trkpt>
      <trkpt lat="44.67178" lon="6.1659">
        <ele>1332.6</ele>
        <time>2022-09-18T12:20:26Z</time>
      </trkpt>
      <trkpt lat="44.6718" lon="6.16593">
        <ele>1332.8</ele>
        <time>2022-09-18T12:20:27Z</time>
      </trkpt>
      <trkpt lat="44.67183" lon="6.16595">
        <ele>1332.8</ele>
        <time>2022-09-18T12:20:28Z</time>
      </trkpt>
      <trkpt lat="44.67186" lon="6.16597">
        <ele>1333</ele>
        <time>2022-09-18T12:20:29Z</time>
      </trkpt>
      <trkpt lat="44.67188" lon="6.16599">
        <ele>1333.4</ele>
        <time>2022-09-18T12:20:30Z</time>
      </trkpt>
      <trkpt lat="44.67191" lon="6.166">
        <ele>1333.6</ele>
        <time>2022-09-18T12:20:31Z</time>
      </trkpt>
      <trkpt lat="44.67194" lon="6.16602">
        <ele>1334</ele>
        <time>2022-09-18T12:20:32Z</time>
      </trkpt>
      <trkpt lat="44.67196" lon="6.16603">
        <ele>1334.2</ele>
        <time>2022-09-18T12:20:33Z</time>
      </trkpt>
      <trkpt lat="44.67199" lon="6.16604">
        <ele>1334.6</ele>
        <time>2022-09-18T12:20:34Z</time>
      </trkpt>
      <trkpt lat="44.67202" lon="6.16605">
        <ele>1334.8</ele>
        <time>2022-09-18T12:20:35Z</time>
      </trkpt>
      <trkpt lat="44.67205" lon="6.16605">
        <ele>1335</ele>
        <time>2022-09-18T12:20:36Z</time>
      </trkpt>
      <trkpt lat="44.67208" lon="6.16606">
        <ele>1335.4</ele>
        <time>2022-09-18T12:20:37Z</time>
      </trkpt>
      <trkpt lat="44.6721" lon="6.16606">
        <ele>1335.8</ele>
        <time>2022-09-18T12:20:38Z</time>
      </trkpt>
      <trkpt lat="44.67213" lon="6.16605">
        <ele>1336.2</ele>
        <time>2022-09-18T12:20:39Z</time>
      </trkpt>
      <trkpt lat="44.67216" lon="6.16605">
        <ele>1336.4</ele>
        <time>2022-09-18T12:20:40Z</time>
      </trkpt>
      <trkpt lat="44.67218" lon="6.16605">
        <ele>1336.8</ele>
        <time>2022-09-18T12:20:41Z</time>
      </trkpt>
      <trkpt lat="44.67221" lon="6.16604">
        <ele>1337</ele>
        <time>2022-09-18T12:20:42Z</time>
      </trkpt>
      <trkpt lat="44.67224" lon="6.16603">
        <ele>1337.4</ele>
        <time>2022-09-18T12:20:43Z</time>
      </trkpt>
      <trkpt lat="44.67227" lon="6.16601">
        <ele>1337.8</ele>
        <time>2022-09-18T12:20:44Z</time>
      </trkpt>
      <trkpt lat="44.67229" lon="6.16599">
        <ele>1338</ele>
        <time>2022-09-18T12:20:45Z</time>
      </trkpt>
      <trkpt lat="44.67232" lon="6.16596">
        <ele>1338.2</ele>
        <time>2022-09-18T12:20:46Z</time>
      </trkpt>
      <trkpt lat="44.67234" lon="6.16593">
        <ele>1338.4</ele>
        <time>2022-09-18T12:20:47Z</time>
      </trkpt>
      <trkpt lat="44.67236" lon="6.1659">
        <ele>1338.8</ele>
        <time>2022-09-18T12:20:48Z</time>
      </trkpt>
      <trkpt lat="44.67238" lon="6.16587">
        <ele>1339</ele>
        <time>2022-09-18T12:20:49Z</time>
      </trkpt>
      <trkpt lat="44.6724" lon="6.16584">
        <ele>1339.2</ele>
        <time>2022-09-18T12:20:50Z</time>
      </trkpt>
      <trkpt lat="44.67243" lon="6.16581">
        <ele>1339.6</ele>
        <time>2022-09-18T12:20:51Z</time>
      </trkpt>
      <trkpt lat="44.67245" lon="6.16578">
        <ele>1339.8</ele>
        <time>2022-09-18T12:20:52Z</time>
      </trkpt>
      <trkpt lat="44.67246" lon="6.16574">
        <ele>1340</ele>
        <time>2022-09-18T12:20:53Z</time>
      </trkpt>
      <trkpt lat="44.67248" lon="6.16571">
        <ele>1340</ele>
        <time>2022-09-18T12:20:54Z</time>
      </trkpt>
      <trkpt lat="44.6725" lon="6.16568">
        <ele>1340</ele>
        <time>2022-09-18T12:20:55Z</time>
      </trkpt>
      <trkpt lat="44.67252" lon="6.16564">
        <ele>1340.2</ele>
        <time>2022-09-18T12:20:56Z</time>
      </trkpt>
      <trkpt lat="44.67253" lon="6.16561">
        <ele>1340.4</ele>
        <time>2022-09-18T12:20:57Z</time>
      </trkpt>
      <trkpt lat="44.67255" lon="6.16558">
        <ele>1340.4</ele>
        <time>2022-09-18T12:20:58Z</time>
      </trkpt>
      <trkpt lat="44.67257" lon="6.16554">
        <ele>1340.6</ele>
        <time>2022-09-18T12:20:59Z</time>
      </trkpt>
      <trkpt lat="44.67259" lon="6.16551">
        <ele>1340.6</ele>
        <time>2022-09-18T12:21:00Z</time>
      </trkpt>
      <trkpt lat="44.67261" lon="6.16548">
        <ele>1340.6</ele>
        <time>2022-09-18T12:21:01Z</time>
      </trkpt>
      <trkpt lat="44.67263" lon="6.16545">
        <ele>1340.6</ele>
        <time>2022-09-18T12:21:02Z</time>
      </trkpt>
      <trkpt lat="44.67265" lon="6.16542">
        <ele>1340.8</ele>
        <time>2022-09-18T12:21:03Z</time>
      </trkpt>
      <trkpt lat="44.67267" lon="6.16539">
        <ele>1340.6</ele>
        <time>2022-09-18T12:21:04Z</time>
      </trkpt>
      <trkpt lat="44.67269" lon="6.16536">
        <ele>1340.8</ele>
        <time>2022-09-18T12:21:05Z</time>
      </trkpt>
      <trkpt lat="44.67271" lon="6.16533">
        <ele>1340.8</ele>
        <time>2022-09-18T12:21:06Z</time>
      </trkpt>
      <trkpt lat="44.67273" lon="6.1653">
        <ele>1340.6</ele>
        <time>2022-09-18T12:21:07Z</time>
      </trkpt>
      <trkpt lat="44.67274" lon="6.16527">
        <ele>1340.8</ele>
        <time>2022-09-18T12:21:08Z</time>
      </trkpt>
      <trkpt lat="44.67276" lon="6.16523">
        <ele>1340.8</ele>
        <time>2022-09-18T12:21:09Z</time>
      </trkpt>
      <trkpt lat="44.67277" lon="6.1652">
        <ele>1341</ele>
        <time>2022-09-18T12:21:10Z</time>
      </trkpt>
      <trkpt lat="44.67278" lon="6.16516">
        <ele>1341</ele>
        <time>2022-09-18T12:21:11Z</time>
      </trkpt>
      <trkpt lat="44.67279" lon="6.16513">
        <ele>1341</ele>
        <time>2022-09-18T12:21:12Z</time>
      </trkpt>
      <trkpt lat="44.67281" lon="6.1651">
        <ele>1340.8</ele>
        <time>2022-09-18T12:21:13Z</time>
      </trkpt>
      <trkpt lat="44.67281" lon="6.16507">
        <ele>1340.8</ele>
        <time>2022-09-18T12:21:14Z</time>
      </trkpt>
      <trkpt lat="44.67282" lon="6.16505">
        <ele>1340.8</ele>
        <time>2022-09-18T12:21:15Z</time>
      </trkpt>
      <trkpt lat="44.67283" lon="6.16501">
        <ele>1341</ele>
        <time>2022-09-18T12:21:17Z</time>
      </trkpt>
      <trkpt lat="44.67282" lon="6.16498">
        <ele>1341.8</ele>
        <time>2022-09-18T12:21:24Z</time>
      </trkpt>
      <trkpt lat="44.67281" lon="6.16496">
        <ele>1342.6</ele>
        <time>2022-09-18T12:21:28Z</time>
      </trkpt>
      <trkpt lat="44.67279" lon="6.16495">
        <ele>1348.8</ele>
        <time>2022-09-18T12:22:23Z</time>
      </trkpt>
      <trkpt lat="44.67281" lon="6.16496">
        <ele>1349.8</ele>
        <time>2022-09-18T12:22:32Z</time>
      </trkpt>
      <trkpt lat="44.67281" lon="6.16499">
        <ele>1348.6</ele>
        <time>2022-09-18T12:22:37Z</time>
      </trkpt>
      <trkpt lat="44.67283" lon="6.165">
        <ele>1348.8</ele>
        <time>2022-09-18T12:22:39Z</time>
      </trkpt>
      <trkpt lat="44.67285" lon="6.16499">
        <ele>1354.6</ele>
        <time>2022-09-18T12:23:52Z</time>
      </trkpt>
      <trkpt lat="44.67285" lon="6.16496">
        <ele>1352</ele>
        <time>2022-09-18T12:24:19Z</time>
      </trkpt>
      <trkpt lat="44.67286" lon="6.16493">
        <ele>1345</ele>
        <time>2022-09-18T12:25:18Z</time>
      </trkpt>
      <trkpt lat="44.67287" lon="6.16492">
        <ele>1344.8</ele>
        <time>2022-09-18T12:25:20Z</time>
      </trkpt>
      <trkpt lat="44.67289" lon="6.16491">
        <ele>1344.8</ele>
        <time>2022-09-18T12:25:22Z</time>
      </trkpt>
      <trkpt lat="44.67292" lon="6.16491">
        <ele>1345</ele>
        <time>2022-09-18T12:25:24Z</time>
      </trkpt>
      <trkpt lat="44.67295" lon="6.16489">
        <ele>1345.4</ele>
        <time>2022-09-18T12:25:26Z</time>
      </trkpt>
      <trkpt lat="44.67298" lon="6.16486">
        <ele>1345.6</ele>
        <time>2022-09-18T12:25:28Z</time>
      </trkpt>
      <trkpt lat="44.673" lon="6.16482">
        <ele>1346</ele>
        <time>2022-09-18T12:25:30Z</time>
      </trkpt>
      <trkpt lat="44.67302" lon="6.1648">
        <ele>1346</ele>
        <time>2022-09-18T12:25:31Z</time>
      </trkpt>
      <trkpt lat="44.67304" lon="6.16478">
        <ele>1346.4</ele>
        <time>2022-09-18T12:25:32Z</time>
      </trkpt>
      <trkpt lat="44.67306" lon="6.16476">
        <ele>1346.6</ele>
        <time>2022-09-18T12:25:33Z</time>
      </trkpt>
      <trkpt lat="44.67308" lon="6.16474">
        <ele>1347</ele>
        <time>2022-09-18T12:25:34Z</time>
      </trkpt>
      <trkpt lat="44.6731" lon="6.16471">
        <ele>1347</ele>
        <time>2022-09-18T12:25:35Z</time>
      </trkpt>
      <trkpt lat="44.67313" lon="6.16468">
        <ele>1347.2</ele>
        <time>2022-09-18T12:25:36Z</time>
      </trkpt>
      <trkpt lat="44.67315" lon="6.16465">
        <ele>1347.4</ele>
        <time>2022-09-18T12:25:37Z</time>
      </trkpt>
      <trkpt lat="44.67318" lon="6.16462">
        <ele>1347.6</ele>
        <time>2022-09-18T12:25:38Z</time>
      </trkpt>
      <trkpt lat="44.67321" lon="6.16459">
        <ele>1348</ele>
        <time>2022-09-18T12:25:39Z</time>
      </trkpt>
      <trkpt lat="44.67324" lon="6.16456">
        <ele>1348.4</ele>
        <time>2022-09-18T12:25:40Z</time>
      </trkpt>
      <trkpt lat="44.67327" lon="6.16453">
        <ele>1348.8</ele>
        <time>2022-09-18T12:25:41Z</time>
      </trkpt>
      <trkpt lat="44.6733" lon="6.1645">
        <ele>1349</ele>
        <time>2022-09-18T12:25:42Z</time>
      </trkpt>
      <trkpt lat="44.67333" lon="6.16447">
        <ele>1349.2</ele>
        <time>2022-09-18T12:25:43Z</time>
      </trkpt>
      <trkpt lat="44.67336" lon="6.16444">
        <ele>1349.4</ele>
        <time>2022-09-18T12:25:44Z</time>
      </trkpt>
      <trkpt lat="44.6734" lon="6.16441">
        <ele>1349.6</ele>
        <time>2022-09-18T12:25:45Z</time>
      </trkpt>
      <trkpt lat="44.67343" lon="6.16438">
        <ele>1350</ele>
        <time>2022-09-18T12:25:46Z</time>
      </trkpt>
      <trkpt lat="44.67347" lon="6.16435">
        <ele>1350.2</ele>
        <time>2022-09-18T12:25:47Z</time>
      </trkpt>
      <trkpt lat="44.6735" lon="6.16432">
        <ele>1350.4</ele>
        <time>2022-09-18T12:25:48Z</time>
      </trkpt>
      <trkpt lat="44.67353" lon="6.16429">
        <ele>1350.6</ele>
        <time>2022-09-18T12:25:49Z</time>
      </trkpt>
      <trkpt lat="44.67357" lon="6.16426">
        <ele>1350.8</ele>
        <time>2022-09-18T12:25:50Z</time>
      </trkpt>
      <trkpt lat="44.67361" lon="6.16423">
        <ele>1351.2</ele>
        <time>2022-09-18T12:25:51Z</time>
      </trkpt>
      <trkpt lat="44.67364" lon="6.16421">
        <ele>1351.2</ele>
        <time>2022-09-18T12:25:52Z</time>
      </trkpt>
      <trkpt lat="44.67368" lon="6.16419">
        <ele>1351.2</ele>
        <time>2022-09-18T12:25:53Z</time>
      </trkpt>
      <trkpt lat="44.67372" lon="6.16417">
        <ele>1351.2</ele>
        <time>2022-09-18T12:25:54Z</time>
      </trkpt>
      <trkpt lat="44.67375" lon="6.16415">
        <ele>1351.4</ele>
        <time>2022-09-18T12:25:55Z</time>
      </trkpt>
      <trkpt lat="44.67379" lon="6.16413">
        <ele>1351.4</ele>
        <time>2022-09-18T12:25:56Z</time>
      </trkpt>
      <trkpt lat="44.67382" lon="6.16411">
        <ele>1351.4</ele>
        <time>2022-09-18T12:25:57Z</time>
      </trkpt>
      <trkpt lat="44.67386" lon="6.16409">
        <ele>1351.4</ele>
        <time>2022-09-18T12:25:58Z</time>
      </trkpt>
      <trkpt lat="44.67389" lon="6.16407">
        <ele>1351.2</ele>
        <time>2022-09-18T12:25:59Z</time>
      </trkpt>
      <trkpt lat="44.67392" lon="6.16406">
        <ele>1351</ele>
        <time>2022-09-18T12:26:00Z</time>
      </trkpt>
      <trkpt lat="44.67395" lon="6.16404">
        <ele>1350.8</ele>
        <time>2022-09-18T12:26:01Z</time>
      </trkpt>
      <trkpt lat="44.67398" lon="6.16402">
        <ele>1350.8</ele>
        <time>2022-09-18T12:26:02Z</time>
      </trkpt>
      <trkpt lat="44.67401" lon="6.164">
        <ele>1350.8</ele>
        <time>2022-09-18T12:26:03Z</time>
      </trkpt>
      <trkpt lat="44.67404" lon="6.16399">
        <ele>1350.6</ele>
        <time>2022-09-18T12:26:04Z</time>
      </trkpt>
      <trkpt lat="44.67407" lon="6.16397">
        <ele>1350.8</ele>
        <time>2022-09-18T12:26:05Z</time>
      </trkpt>
      <trkpt lat="44.67411" lon="6.16396">
        <ele>1350.8</ele>
        <time>2022-09-18T12:26:06Z</time>
      </trkpt>
      <trkpt lat="44.67414" lon="6.16395">
        <ele>1350.8</ele>
        <time>2022-09-18T12:26:07Z</time>
      </trkpt>
      <trkpt lat="44.67417" lon="6.16393">
        <ele>1350.8</ele>
        <time>2022-09-18T12:26:08Z</time>
      </trkpt>
      <trkpt lat="44.6742" lon="6.16392">
        <ele>1350.8</ele>
        <time>2022-09-18T12:26:09Z</time>
      </trkpt>
      <trkpt lat="44.67423" lon="6.16391">
        <ele>1351</ele>
        <time>2022-09-18T12:26:10Z</time>
      </trkpt>
      <trkpt lat="44.67426" lon="6.1639">
        <ele>1351.2</ele>
        <time>2022-09-18T12:26:11Z</time>
      </trkpt>
      <trkpt lat="44.67429" lon="6.16388">
        <ele>1351.2</ele>
        <time>2022-09-18T12:26:12Z</time>
      </trkpt>
      <trkpt lat="44.67432" lon="6.16387">
        <ele>1351.2</ele>
        <time>2022-09-18T12:26:13Z</time>
      </trkpt>
      <trkpt lat="44.67435" lon="6.16386">
        <ele>1351.2</ele>
        <time>2022-09-18T12:26:14Z</time>
      </trkpt>
      <trkpt lat="44.67438" lon="6.16385">
        <ele>1351.4</ele>
        <time>2022-09-18T12:26:15Z</time>
      </trkpt>
      <trkpt lat="44.67441" lon="6.16384">
        <ele>1351.8</ele>
        <time>2022-09-18T12:26:16Z</time>
      </trkpt>
      <trkpt lat="44.67444" lon="6.16383">
        <ele>1351.8</ele>
        <time>2022-09-18T12:26:17Z</time>
      </trkpt>
      <trkpt lat="44.67447" lon="6.16381">
        <ele>1352</ele>
        <time>2022-09-18T12:26:18Z</time>
      </trkpt>
      <trkpt lat="44.6745" lon="6.1638">
        <ele>1352.4</ele>
        <time>2022-09-18T12:26:19Z</time>
      </trkpt>
      <trkpt lat="44.67453" lon="6.16379">
        <ele>1352.6</ele>
        <time>2022-09-18T12:26:20Z</time>
      </trkpt>
      <trkpt lat="44.67456" lon="6.16377">
        <ele>1352.8</ele>
        <time>2022-09-18T12:26:21Z</time>
      </trkpt>
      <trkpt lat="44.67459" lon="6.16376">
        <ele>1353</ele>
        <time>2022-09-18T12:26:22Z</time>
      </trkpt>
      <trkpt lat="44.67461" lon="6.16375">
        <ele>1353</ele>
        <time>2022-09-18T12:26:23Z</time>
      </trkpt>
      <trkpt lat="44.67464" lon="6.16374">
        <ele>1353.4</ele>
        <time>2022-09-18T12:26:24Z</time>
      </trkpt>
      <trkpt lat="44.67467" lon="6.16373">
        <ele>1353.8</ele>
        <time>2022-09-18T12:26:25Z</time>
      </trkpt>
      <trkpt lat="44.6747" lon="6.16372">
        <ele>1354.2</ele>
        <time>2022-09-18T12:26:26Z</time>
      </trkpt>
      <trkpt lat="44.67472" lon="6.16371">
        <ele>1354.4</ele>
        <time>2022-09-18T12:26:27Z</time>
      </trkpt>
      <trkpt lat="44.67475" lon="6.1637">
        <ele>1354.6</ele>
        <time>2022-09-18T12:26:28Z</time>
      </trkpt>
      <trkpt lat="44.67478" lon="6.16368">
        <ele>1355</ele>
        <time>2022-09-18T12:26:29Z</time>
      </trkpt>
      <trkpt lat="44.67482" lon="6.16368">
        <ele>1355.2</ele>
        <time>2022-09-18T12:26:30Z</time>
      </trkpt>
      <trkpt lat="44.67485" lon="6.16367">
        <ele>1355.4</ele>
        <time>2022-09-18T12:26:31Z</time>
      </trkpt>
      <trkpt lat="44.67488" lon="6.16366">
        <ele>1355.8</ele>
        <time>2022-09-18T12:26:32Z</time>
      </trkpt>
      <trkpt lat="44.67491" lon="6.16365">
        <ele>1356.2</ele>
        <time>2022-09-18T12:26:33Z</time>
      </trkpt>
      <trkpt lat="44.67494" lon="6.16365">
        <ele>1356.6</ele>
        <time>2022-09-18T12:26:34Z</time>
      </trkpt>
      <trkpt lat="44.67497" lon="6.16364">
        <ele>1357</ele>
        <time>2022-09-18T12:26:35Z</time>
      </trkpt>
      <trkpt lat="44.675" lon="6.16362">
        <ele>1357.6</ele>
        <time>2022-09-18T12:26:36Z</time>
      </trkpt>
      <trkpt lat="44.67503" lon="6.16361">
        <ele>1358</ele>
        <time>2022-09-18T12:26:37Z</time>
      </trkpt>
      <trkpt lat="44.67506" lon="6.1636">
        <ele>1358.4</ele>
        <time>2022-09-18T12:26:38Z</time>
      </trkpt>
      <trkpt lat="44.67508" lon="6.16359">
        <ele>1358.8</ele>
        <time>2022-09-18T12:26:39Z</time>
      </trkpt>
      <trkpt lat="44.67511" lon="6.16358">
        <ele>1359.2</ele>
        <time>2022-09-18T12:26:40Z</time>
      </trkpt>
      <trkpt lat="44.67514" lon="6.16357">
        <ele>1359.8</ele>
        <time>2022-09-18T12:26:41Z</time>
      </trkpt>
      <trkpt lat="44.67517" lon="6.16355">
        <ele>1360.2</ele>
        <time>2022-09-18T12:26:42Z</time>
      </trkpt>
      <trkpt lat="44.6752" lon="6.16354">
        <ele>1360.6</ele>
        <time>2022-09-18T12:26:43Z</time>
      </trkpt>
      <trkpt lat="44.67522" lon="6.16353">
        <ele>1360.8</ele>
        <time>2022-09-18T12:26:44Z</time>
      </trkpt>
      <trkpt lat="44.67525" lon="6.16352">
        <ele>1361.2</ele>
        <time>2022-09-18T12:26:45Z</time>
      </trkpt>
      <trkpt lat="44.67528" lon="6.1635">
        <ele>1361.6</ele>
        <time>2022-09-18T12:26:46Z</time>
      </trkpt>
      <trkpt lat="44.6753" lon="6.16349">
        <ele>1361.8</ele>
        <time>2022-09-18T12:26:47Z</time>
      </trkpt>
      <trkpt lat="44.67533" lon="6.16347">
        <ele>1362.2</ele>
        <time>2022-09-18T12:26:48Z</time>
      </trkpt>
      <trkpt lat="44.67536" lon="6.16345">
        <ele>1362.2</ele>
        <time>2022-09-18T12:26:49Z</time>
      </trkpt>
      <trkpt lat="44.67538" lon="6.16343">
        <ele>1362.2</ele>
        <time>2022-09-18T12:26:50Z</time>
      </trkpt>
      <trkpt lat="44.67541" lon="6.16341">
        <ele>1362.4</ele>
        <time>2022-09-18T12:26:51Z</time>
      </trkpt>
      <trkpt lat="44.67544" lon="6.16339">
        <ele>1362.6</ele>
        <time>2022-09-18T12:26:52Z</time>
      </trkpt>
      <trkpt lat="44.67547" lon="6.16338">
        <ele>1362.6</ele>
        <time>2022-09-18T12:26:53Z</time>
      </trkpt>
      <trkpt lat="44.6755" lon="6.16336">
        <ele>1362.6</ele>
        <time>2022-09-18T12:26:54Z</time>
      </trkpt>
      <trkpt lat="44.67552" lon="6.16334">
        <ele>1362.8</ele>
        <time>2022-09-18T12:26:55Z</time>
      </trkpt>
      <trkpt lat="44.67555" lon="6.16332">
        <ele>1362.8</ele>
        <time>2022-09-18T12:26:56Z</time>
      </trkpt>
      <trkpt lat="44.67558" lon="6.16329">
        <ele>1363</ele>
        <time>2022-09-18T12:26:57Z</time>
      </trkpt>
      <trkpt lat="44.6756" lon="6.16327">
        <ele>1363.2</ele>
        <time>2022-09-18T12:26:58Z</time>
      </trkpt>
      <trkpt lat="44.67563" lon="6.16324">
        <ele>1363.2</ele>
        <time>2022-09-18T12:26:59Z</time>
      </trkpt>
      <trkpt lat="44.67565" lon="6.16322">
        <ele>1363.6</ele>
        <time>2022-09-18T12:27:00Z</time>
      </trkpt>
      <trkpt lat="44.67567" lon="6.16319">
        <ele>1363.6</ele>
        <time>2022-09-18T12:27:01Z</time>
      </trkpt>
      <trkpt lat="44.67569" lon="6.16316">
        <ele>1363.6</ele>
        <time>2022-09-18T12:27:02Z</time>
      </trkpt>
      <trkpt lat="44.67571" lon="6.16313">
        <ele>1363.8</ele>
        <time>2022-09-18T12:27:03Z</time>
      </trkpt>
      <trkpt lat="44.67573" lon="6.1631">
        <ele>1364</ele>
        <time>2022-09-18T12:27:04Z</time>
      </trkpt>
      <trkpt lat="44.67575" lon="6.16307">
        <ele>1364.4</ele>
        <time>2022-09-18T12:27:05Z</time>
      </trkpt>
      <trkpt lat="44.67576" lon="6.16304">
        <ele>1364.8</ele>
        <time>2022-09-18T12:27:06Z</time>
      </trkpt>
      <trkpt lat="44.67578" lon="6.16301">
        <ele>1365.2</ele>
        <time>2022-09-18T12:27:07Z</time>
      </trkpt>
      <trkpt lat="44.6758" lon="6.16297">
        <ele>1365.4</ele>
        <time>2022-09-18T12:27:08Z</time>
      </trkpt>
      <trkpt lat="44.67581" lon="6.16294">
        <ele>1365.8</ele>
        <time>2022-09-18T12:27:09Z</time>
      </trkpt>
      <trkpt lat="44.67583" lon="6.16291">
        <ele>1366</ele>
        <time>2022-09-18T12:27:10Z</time>
      </trkpt>
      <trkpt lat="44.67585" lon="6.16288">
        <ele>1366.4</ele>
        <time>2022-09-18T12:27:11Z</time>
      </trkpt>
      <trkpt lat="44.67586" lon="6.16286">
        <ele>1367</ele>
        <time>2022-09-18T12:27:12Z</time>
      </trkpt>
      <trkpt lat="44.67588" lon="6.16283">
        <ele>1367.2</ele>
        <time>2022-09-18T12:27:13Z</time>
      </trkpt>
      <trkpt lat="44.6759" lon="6.16282">
        <ele>1367.4</ele>
        <time>2022-09-18T12:27:14Z</time>
      </trkpt>
      <trkpt lat="44.67592" lon="6.16282">
        <ele>1367.8</ele>
        <time>2022-09-18T12:27:15Z</time>
      </trkpt>
      <trkpt lat="44.67594" lon="6.16283">
        <ele>1368</ele>
        <time>2022-09-18T12:27:16Z</time>
      </trkpt>
      <trkpt lat="44.67596" lon="6.16283">
        <ele>1368.8</ele>
        <time>2022-09-18T12:27:17Z</time>
      </trkpt>
      <trkpt lat="44.67598" lon="6.16284">
        <ele>1369.2</ele>
        <time>2022-09-18T12:27:18Z</time>
      </trkpt>
      <trkpt lat="44.676" lon="6.16285">
        <ele>1369.6</ele>
        <time>2022-09-18T12:27:19Z</time>
      </trkpt>
      <trkpt lat="44.67602" lon="6.16286">
        <ele>1370</ele>
        <time>2022-09-18T12:27:20Z</time>
      </trkpt>
      <trkpt lat="44.67605" lon="6.16288">
        <ele>1370.8</ele>
        <time>2022-09-18T12:27:22Z</time>
      </trkpt>
      <trkpt lat="44.67606" lon="6.16289">
        <ele>1371.2</ele>
        <time>2022-09-18T12:27:24Z</time>
      </trkpt>
      <trkpt lat="44.67609" lon="6.1629">
        <ele>1372</ele>
        <time>2022-09-18T12:27:26Z</time>
      </trkpt>
      <trkpt lat="44.67611" lon="6.16292">
        <ele>1372.6</ele>
        <time>2022-09-18T12:27:28Z</time>
      </trkpt>
      <trkpt lat="44.67613" lon="6.16294">
        <ele>1373</ele>
        <time>2022-09-18T12:27:30Z</time>
      </trkpt>
      <trkpt lat="44.67615" lon="6.16295">
        <ele>1373.4</ele>
        <time>2022-09-18T12:27:31Z</time>
      </trkpt>
      <trkpt lat="44.67617" lon="6.16296">
        <ele>1373.6</ele>
        <time>2022-09-18T12:27:32Z</time>
      </trkpt>
      <trkpt lat="44.6762" lon="6.16298">
        <ele>1374</ele>
        <time>2022-09-18T12:27:34Z</time>
      </trkpt>
      <trkpt lat="44.67622" lon="6.16299">
        <ele>1374.4</ele>
        <time>2022-09-18T12:27:35Z</time>
      </trkpt>
      <trkpt lat="44.67624" lon="6.163">
        <ele>1374.8</ele>
        <time>2022-09-18T12:27:36Z</time>
      </trkpt>
      <trkpt lat="44.67626" lon="6.16302">
        <ele>1375</ele>
        <time>2022-09-18T12:27:37Z</time>
      </trkpt>
      <trkpt lat="44.67627" lon="6.16304">
        <ele>1375.2</ele>
        <time>2022-09-18T12:27:38Z</time>
      </trkpt>
      <trkpt lat="44.67629" lon="6.16305">
        <ele>1375.2</ele>
        <time>2022-09-18T12:27:39Z</time>
      </trkpt>
      <trkpt lat="44.67631" lon="6.16306">
        <ele>1375.6</ele>
        <time>2022-09-18T12:27:40Z</time>
      </trkpt>
      <trkpt lat="44.67634" lon="6.16307">
        <ele>1375.8</ele>
        <time>2022-09-18T12:27:41Z</time>
      </trkpt>
      <trkpt lat="44.67636" lon="6.16308">
        <ele>1376</ele>
        <time>2022-09-18T12:27:42Z</time>
      </trkpt>
      <trkpt lat="44.67638" lon="6.16309">
        <ele>1376</ele>
        <time>2022-09-18T12:27:43Z</time>
      </trkpt>
      <trkpt lat="44.67641" lon="6.16311">
        <ele>1376</ele>
        <time>2022-09-18T12:27:44Z</time>
      </trkpt>
      <trkpt lat="44.67644" lon="6.16312">
        <ele>1376.4</ele>
        <time>2022-09-18T12:27:45Z</time>
      </trkpt>
      <trkpt lat="44.67646" lon="6.16313">
        <ele>1376.6</ele>
        <time>2022-09-18T12:27:46Z</time>
      </trkpt>
      <trkpt lat="44.67649" lon="6.16315">
        <ele>1377</ele>
        <time>2022-09-18T12:27:47Z</time>
      </trkpt>
      <trkpt lat="44.67651" lon="6.16316">
        <ele>1377.4</ele>
        <time>2022-09-18T12:27:48Z</time>
      </trkpt>
      <trkpt lat="44.67654" lon="6.16318">
        <ele>1377.4</ele>
        <time>2022-09-18T12:27:49Z</time>
      </trkpt>
      <trkpt lat="44.67656" lon="6.16319">
        <ele>1377.6</ele>
        <time>2022-09-18T12:27:50Z</time>
      </trkpt>
      <trkpt lat="44.67658" lon="6.1632">
        <ele>1377.6</ele>
        <time>2022-09-18T12:27:51Z</time>
      </trkpt>
      <trkpt lat="44.6766" lon="6.16322">
        <ele>1377.8</ele>
        <time>2022-09-18T12:27:52Z</time>
      </trkpt>
      <trkpt lat="44.67662" lon="6.16323">
        <ele>1378.2</ele>
        <time>2022-09-18T12:27:53Z</time>
      </trkpt>
      <trkpt lat="44.67664" lon="6.16324">
        <ele>1378.2</ele>
        <time>2022-09-18T12:27:54Z</time>
      </trkpt>
      <trkpt lat="44.67666" lon="6.16325">
        <ele>1378.6</ele>
        <time>2022-09-18T12:27:55Z</time>
      </trkpt>
      <trkpt lat="44.67668" lon="6.16326">
        <ele>1379.2</ele>
        <time>2022-09-18T12:27:56Z</time>
      </trkpt>
      <trkpt lat="44.67671" lon="6.16327">
        <ele>1379.6</ele>
        <time>2022-09-18T12:27:57Z</time>
      </trkpt>
      <trkpt lat="44.67672" lon="6.16328">
        <ele>1380</ele>
        <time>2022-09-18T12:27:58Z</time>
      </trkpt>
      <trkpt lat="44.67675" lon="6.16329">
        <ele>1380.4</ele>
        <time>2022-09-18T12:27:59Z</time>
      </trkpt>
      <trkpt lat="44.67677" lon="6.1633">
        <ele>1380.6</ele>
        <time>2022-09-18T12:28:00Z</time>
      </trkpt>
      <trkpt lat="44.67678" lon="6.1633">
        <ele>1381</ele>
        <time>2022-09-18T12:28:01Z</time>
      </trkpt>
      <trkpt lat="44.6768" lon="6.1633">
        <ele>1381</ele>
        <time>2022-09-18T12:28:02Z</time>
      </trkpt>
      <trkpt lat="44.67682" lon="6.16331">
        <ele>1381.2</ele>
        <time>2022-09-18T12:28:03Z</time>
      </trkpt>
      <trkpt lat="44.67685" lon="6.16332">
        <ele>1381.6</ele>
        <time>2022-09-18T12:28:04Z</time>
      </trkpt>
      <trkpt lat="44.67687" lon="6.16333">
        <ele>1382.2</ele>
        <time>2022-09-18T12:28:05Z</time>
      </trkpt>
      <trkpt lat="44.67689" lon="6.16334">
        <ele>1382.8</ele>
        <time>2022-09-18T12:28:06Z</time>
      </trkpt>
      <trkpt lat="44.67692" lon="6.16335">
        <ele>1383.2</ele>
        <time>2022-09-18T12:28:07Z</time>
      </trkpt>
      <trkpt lat="44.67694" lon="6.16336">
        <ele>1383.6</ele>
        <time>2022-09-18T12:28:08Z</time>
      </trkpt>
      <trkpt lat="44.67697" lon="6.16336">
        <ele>1383.8</ele>
        <time>2022-09-18T12:28:09Z</time>
      </trkpt>
      <trkpt lat="44.67699" lon="6.16337">
        <ele>1384.2</ele>
        <time>2022-09-18T12:28:10Z</time>
      </trkpt>
      <trkpt lat="44.67702" lon="6.16338">
        <ele>1384.8</ele>
        <time>2022-09-18T12:28:11Z</time>
      </trkpt>
      <trkpt lat="44.67704" lon="6.16339">
        <ele>1385</ele>
        <time>2022-09-18T12:28:12Z</time>
      </trkpt>
      <trkpt lat="44.67707" lon="6.16339">
        <ele>1385.4</ele>
        <time>2022-09-18T12:28:13Z</time>
      </trkpt>
      <trkpt lat="44.67709" lon="6.1634">
        <ele>1385.8</ele>
        <time>2022-09-18T12:28:14Z</time>
      </trkpt>
      <trkpt lat="44.67711" lon="6.16341">
        <ele>1386</ele>
        <time>2022-09-18T12:28:15Z</time>
      </trkpt>
      <trkpt lat="44.67713" lon="6.16341">
        <ele>1386.4</ele>
        <time>2022-09-18T12:28:16Z</time>
      </trkpt>
      <trkpt lat="44.67716" lon="6.16341">
        <ele>1386.8</ele>
        <time>2022-09-18T12:28:17Z</time>
      </trkpt>
      <trkpt lat="44.67718" lon="6.16342">
        <ele>1387.2</ele>
        <time>2022-09-18T12:28:18Z</time>
      </trkpt>
      <trkpt lat="44.6772" lon="6.16342">
        <ele>1387.4</ele>
        <time>2022-09-18T12:28:19Z</time>
      </trkpt>
      <trkpt lat="44.67722" lon="6.16344">
        <ele>1387.6</ele>
        <time>2022-09-18T12:28:20Z</time>
      </trkpt>
      <trkpt lat="44.67724" lon="6.16345">
        <ele>1388</ele>
        <time>2022-09-18T12:28:21Z</time>
      </trkpt>
      <trkpt lat="44.67726" lon="6.16347">
        <ele>1388.2</ele>
        <time>2022-09-18T12:28:22Z</time>
      </trkpt>
      <trkpt lat="44.67728" lon="6.16348">
        <ele>1388.4</ele>
        <time>2022-09-18T12:28:23Z</time>
      </trkpt>
      <trkpt lat="44.6773" lon="6.1635">
        <ele>1388.6</ele>
        <time>2022-09-18T12:28:24Z</time>
      </trkpt>
      <trkpt lat="44.67732" lon="6.16351">
        <ele>1389</ele>
        <time>2022-09-18T12:28:25Z</time>
      </trkpt>
      <trkpt lat="44.67734" lon="6.16353">
        <ele>1389.2</ele>
        <time>2022-09-18T12:28:26Z</time>
      </trkpt>
      <trkpt lat="44.67736" lon="6.16354">
        <ele>1389.4</ele>
        <time>2022-09-18T12:28:27Z</time>
      </trkpt>
      <trkpt lat="44.67738" lon="6.16356">
        <ele>1389.8</ele>
        <time>2022-09-18T12:28:28Z</time>
      </trkpt>
      <trkpt lat="44.67739" lon="6.16358">
        <ele>1389.8</ele>
        <time>2022-09-18T12:28:29Z</time>
      </trkpt>
      <trkpt lat="44.67741" lon="6.1636">
        <ele>1390.2</ele>
        <time>2022-09-18T12:28:30Z</time>
      </trkpt>
      <trkpt lat="44.67742" lon="6.16362">
        <ele>1390.2</ele>
        <time>2022-09-18T12:28:31Z</time>
      </trkpt>
      <trkpt lat="44.67744" lon="6.16364">
        <ele>1390.4</ele>
        <time>2022-09-18T12:28:32Z</time>
      </trkpt>
      <trkpt lat="44.67745" lon="6.16366">
        <ele>1390.6</ele>
        <time>2022-09-18T12:28:33Z</time>
      </trkpt>
      <trkpt lat="44.67747" lon="6.16368">
        <ele>1390.8</ele>
        <time>2022-09-18T12:28:34Z</time>
      </trkpt>
      <trkpt lat="44.67748" lon="6.1637">
        <ele>1391</ele>
        <time>2022-09-18T12:28:35Z</time>
      </trkpt>
      <trkpt lat="44.6775" lon="6.16372">
        <ele>1391.2</ele>
        <time>2022-09-18T12:28:36Z</time>
      </trkpt>
      <trkpt lat="44.67752" lon="6.16374">
        <ele>1391.2</ele>
        <time>2022-09-18T12:28:37Z</time>
      </trkpt>
      <trkpt lat="44.67753" lon="6.16376">
        <ele>1391.6</ele>
        <time>2022-09-18T12:28:38Z</time>
      </trkpt>
      <trkpt lat="44.67755" lon="6.16378">
        <ele>1391.6</ele>
        <time>2022-09-18T12:28:39Z</time>
      </trkpt>
      <trkpt lat="44.67757" lon="6.1638">
        <ele>1391.6</ele>
        <time>2022-09-18T12:28:40Z</time>
      </trkpt>
      <trkpt lat="44.67759" lon="6.16382">
        <ele>1391.6</ele>
        <time>2022-09-18T12:28:41Z</time>
      </trkpt>
      <trkpt lat="44.67761" lon="6.16384">
        <ele>1392</ele>
        <time>2022-09-18T12:28:42Z</time>
      </trkpt>
      <trkpt lat="44.67763" lon="6.16386">
        <ele>1392.2</ele>
        <time>2022-09-18T12:28:43Z</time>
      </trkpt>
      <trkpt lat="44.67765" lon="6.16389">
        <ele>1392.6</ele>
        <time>2022-09-18T12:28:44Z</time>
      </trkpt>
      <trkpt lat="44.67767" lon="6.16391">
        <ele>1392.8</ele>
        <time>2022-09-18T12:28:45Z</time>
      </trkpt>
      <trkpt lat="44.67769" lon="6.16393">
        <ele>1393</ele>
        <time>2022-09-18T12:28:46Z</time>
      </trkpt>
      <trkpt lat="44.67771" lon="6.16395">
        <ele>1393.4</ele>
        <time>2022-09-18T12:28:47Z</time>
      </trkpt>
      <trkpt lat="44.67773" lon="6.16396">
        <ele>1393.6</ele>
        <time>2022-09-18T12:28:48Z</time>
      </trkpt>
      <trkpt lat="44.67774" lon="6.16398">
        <ele>1393.8</ele>
        <time>2022-09-18T12:28:49Z</time>
      </trkpt>
      <trkpt lat="44.67776" lon="6.16399">
        <ele>1394</ele>
        <time>2022-09-18T12:28:50Z</time>
      </trkpt>
      <trkpt lat="44.67778" lon="6.16401">
        <ele>1394.4</ele>
        <time>2022-09-18T12:28:51Z</time>
      </trkpt>
      <trkpt lat="44.6778" lon="6.16402">
        <ele>1394.8</ele>
        <time>2022-09-18T12:28:52Z</time>
      </trkpt>
      <trkpt lat="44.67782" lon="6.16404">
        <ele>1395.2</ele>
        <time>2022-09-18T12:28:53Z</time>
      </trkpt>
      <trkpt lat="44.67785" lon="6.16405">
        <ele>1395.4</ele>
        <time>2022-09-18T12:28:54Z</time>
      </trkpt>
      <trkpt lat="44.67787" lon="6.16407">
        <ele>1395.8</ele>
        <time>2022-09-18T12:28:55Z</time>
      </trkpt>
      <trkpt lat="44.67789" lon="6.16408">
        <ele>1396</ele>
        <time>2022-09-18T12:28:56Z</time>
      </trkpt>
      <trkpt lat="44.67791" lon="6.16409">
        <ele>1396.4</ele>
        <time>2022-09-18T12:28:57Z</time>
      </trkpt>
      <trkpt lat="44.67793" lon="6.1641">
        <ele>1396.6</ele>
        <time>2022-09-18T12:28:58Z</time>
      </trkpt>
      <trkpt lat="44.67795" lon="6.16411">
        <ele>1396.8</ele>
        <time>2022-09-18T12:28:59Z</time>
      </trkpt>
      <trkpt lat="44.67798" lon="6.16412">
        <ele>1397.2</ele>
        <time>2022-09-18T12:29:00Z</time>
      </trkpt>
      <trkpt lat="44.678" lon="6.16413">
        <ele>1397.4</ele>
        <time>2022-09-18T12:29:01Z</time>
      </trkpt>
      <trkpt lat="44.67802" lon="6.16413">
        <ele>1397.6</ele>
        <time>2022-09-18T12:29:02Z</time>
      </trkpt>
      <trkpt lat="44.67804" lon="6.16413">
        <ele>1397.8</ele>
        <time>2022-09-18T12:29:03Z</time>
      </trkpt>
      <trkpt lat="44.67806" lon="6.16413">
        <ele>1398</ele>
        <time>2022-09-18T12:29:04Z</time>
      </trkpt>
      <trkpt lat="44.67808" lon="6.16413">
        <ele>1398.2</ele>
        <time>2022-09-18T12:29:05Z</time>
      </trkpt>
      <trkpt lat="44.67811" lon="6.16414">
        <ele>1398.4</ele>
        <time>2022-09-18T12:29:06Z</time>
      </trkpt>
      <trkpt lat="44.67813" lon="6.16414">
        <ele>1398.6</ele>
        <time>2022-09-18T12:29:07Z</time>
      </trkpt>
      <trkpt lat="44.67815" lon="6.16414">
        <ele>1398.8</ele>
        <time>2022-09-18T12:29:08Z</time>
      </trkpt>
      <trkpt lat="44.67817" lon="6.16414">
        <ele>1399</ele>
        <time>2022-09-18T12:29:09Z</time>
      </trkpt>
      <trkpt lat="44.67819" lon="6.16414">
        <ele>1399.2</ele>
        <time>2022-09-18T12:29:10Z</time>
      </trkpt>
      <trkpt lat="44.67821" lon="6.16413">
        <ele>1399.6</ele>
        <time>2022-09-18T12:29:11Z</time>
      </trkpt>
      <trkpt lat="44.67823" lon="6.16413">
        <ele>1399.6</ele>
        <time>2022-09-18T12:29:12Z</time>
      </trkpt>
      <trkpt lat="44.67825" lon="6.16413">
        <ele>1399.8</ele>
        <time>2022-09-18T12:29:13Z</time>
      </trkpt>
      <trkpt lat="44.67827" lon="6.16413">
        <ele>1400</ele>
        <time>2022-09-18T12:29:14Z</time>
      </trkpt>
      <trkpt lat="44.67829" lon="6.16413">
        <ele>1400</ele>
        <time>2022-09-18T12:29:15Z</time>
      </trkpt>
      <trkpt lat="44.67831" lon="6.16414">
        <ele>1400.2</ele>
        <time>2022-09-18T12:29:16Z</time>
      </trkpt>
      <trkpt lat="44.67834" lon="6.16414">
        <ele>1400.2</ele>
        <time>2022-09-18T12:29:17Z</time>
      </trkpt>
      <trkpt lat="44.67836" lon="6.16414">
        <ele>1400.6</ele>
        <time>2022-09-18T12:29:18Z</time>
      </trkpt>
      <trkpt lat="44.67838" lon="6.16414">
        <ele>1400.8</ele>
        <time>2022-09-18T12:29:19Z</time>
      </trkpt>
      <trkpt lat="44.6784" lon="6.16414">
        <ele>1401</ele>
        <time>2022-09-18T12:29:20Z</time>
      </trkpt>
      <trkpt lat="44.67843" lon="6.16415">
        <ele>1401.2</ele>
        <time>2022-09-18T12:29:21Z</time>
      </trkpt>
      <trkpt lat="44.67845" lon="6.16415">
        <ele>1401.4</ele>
        <time>2022-09-18T12:29:22Z</time>
      </trkpt>
      <trkpt lat="44.67847" lon="6.16415">
        <ele>1401.6</ele>
        <time>2022-09-18T12:29:23Z</time>
      </trkpt>
      <trkpt lat="44.6785" lon="6.16416">
        <ele>1402</ele>
        <time>2022-09-18T12:29:24Z</time>
      </trkpt>
      <trkpt lat="44.67852" lon="6.16416">
        <ele>1402</ele>
        <time>2022-09-18T12:29:25Z</time>
      </trkpt>
      <trkpt lat="44.67855" lon="6.16417">
        <ele>1402.2</ele>
        <time>2022-09-18T12:29:26Z</time>
      </trkpt>
      <trkpt lat="44.67857" lon="6.16417">
        <ele>1402.2</ele>
        <time>2022-09-18T12:29:27Z</time>
      </trkpt>
      <trkpt lat="44.6786" lon="6.16417">
        <ele>1402.4</ele>
        <time>2022-09-18T12:29:28Z</time>
      </trkpt>
      <trkpt lat="44.67862" lon="6.16417">
        <ele>1402.8</ele>
        <time>2022-09-18T12:29:29Z</time>
      </trkpt>
      <trkpt lat="44.67864" lon="6.16418">
        <ele>1403</ele>
        <time>2022-09-18T12:29:30Z</time>
      </trkpt>
      <trkpt lat="44.67867" lon="6.16418">
        <ele>1403.4</ele>
        <time>2022-09-18T12:29:31Z</time>
      </trkpt>
      <trkpt lat="44.67869" lon="6.16418">
        <ele>1403.4</ele>
        <time>2022-09-18T12:29:32Z</time>
      </trkpt>
      <trkpt lat="44.67872" lon="6.16419">
        <ele>1403.8</ele>
        <time>2022-09-18T12:29:33Z</time>
      </trkpt>
      <trkpt lat="44.67874" lon="6.1642">
        <ele>1403.8</ele>
        <time>2022-09-18T12:29:34Z</time>
      </trkpt>
      <trkpt lat="44.67876" lon="6.1642">
        <ele>1403.8</ele>
        <time>2022-09-18T12:29:35Z</time>
      </trkpt>
      <trkpt lat="44.6788" lon="6.1642">
        <ele>1404</ele>
        <time>2022-09-18T12:29:37Z</time>
      </trkpt>
      <trkpt lat="44.67882" lon="6.1642">
        <ele>1404.2</ele>
        <time>2022-09-18T12:29:38Z</time>
      </trkpt>
      <trkpt lat="44.67884" lon="6.16421">
        <ele>1404.4</ele>
        <time>2022-09-18T12:29:39Z</time>
      </trkpt>
      <trkpt lat="44.67887" lon="6.16423">
        <ele>1404.6</ele>
        <time>2022-09-18T12:29:40Z</time>
      </trkpt>
      <trkpt lat="44.6789" lon="6.16424">
        <ele>1404.8</ele>
        <time>2022-09-18T12:29:41Z</time>
      </trkpt>
      <trkpt lat="44.67893" lon="6.16426">
        <ele>1404.8</ele>
        <time>2022-09-18T12:29:42Z</time>
      </trkpt>
      <trkpt lat="44.67895" lon="6.16427">
        <ele>1405.2</ele>
        <time>2022-09-18T12:29:43Z</time>
      </trkpt>
      <trkpt lat="44.67897" lon="6.16428">
        <ele>1405.2</ele>
        <time>2022-09-18T12:29:44Z</time>
      </trkpt>
      <trkpt lat="44.679" lon="6.16429">
        <ele>1405.6</ele>
        <time>2022-09-18T12:29:45Z</time>
      </trkpt>
      <trkpt lat="44.67902" lon="6.1643">
        <ele>1406</ele>
        <time>2022-09-18T12:29:46Z</time>
      </trkpt>
      <trkpt lat="44.67904" lon="6.16431">
        <ele>1406.4</ele>
        <time>2022-09-18T12:29:47Z</time>
      </trkpt>
      <trkpt lat="44.67908" lon="6.16433">
        <ele>1407.2</ele>
        <time>2022-09-18T12:29:49Z</time>
      </trkpt>
      <trkpt lat="44.67915" lon="6.16435">
        <ele>1408.2</ele>
        <time>2022-09-18T12:29:52Z</time>
      </trkpt>
      <trkpt lat="44.6792" lon="6.16437">
        <ele>1409.2</ele>
        <time>2022-09-18T12:29:54Z</time>
      </trkpt>
      <trkpt lat="44.67922" lon="6.16438">
        <ele>1409.6</ele>
        <time>2022-09-18T12:29:55Z</time>
      </trkpt>
      <trkpt lat="44.67925" lon="6.16439">
        <ele>1410</ele>
        <time>2022-09-18T12:29:56Z</time>
      </trkpt>
      <trkpt lat="44.67928" lon="6.16441">
        <ele>1410.6</ele>
        <time>2022-09-18T12:29:57Z</time>
      </trkpt>
      <trkpt lat="44.6793" lon="6.16442">
        <ele>1411</ele>
        <time>2022-09-18T12:29:58Z</time>
      </trkpt>
      <trkpt lat="44.67932" lon="6.16443">
        <ele>1411.4</ele>
        <time>2022-09-18T12:29:59Z</time>
      </trkpt>
      <trkpt lat="44.67934" lon="6.16445">
        <ele>1411.4</ele>
        <time>2022-09-18T12:30:00Z</time>
      </trkpt>
      <trkpt lat="44.67936" lon="6.16446">
        <ele>1412.4</ele>
        <time>2022-09-18T12:30:01Z</time>
      </trkpt>
      <trkpt lat="44.67938" lon="6.16448">
        <ele>1413</ele>
        <time>2022-09-18T12:30:02Z</time>
      </trkpt>
      <trkpt lat="44.6794" lon="6.16449">
        <ele>1413.4</ele>
        <time>2022-09-18T12:30:03Z</time>
      </trkpt>
      <trkpt lat="44.67942" lon="6.16451">
        <ele>1413.6</ele>
        <time>2022-09-18T12:30:04Z</time>
      </trkpt>
      <trkpt lat="44.67944" lon="6.16452">
        <ele>1414</ele>
        <time>2022-09-18T12:30:05Z</time>
      </trkpt>
      <trkpt lat="44.67946" lon="6.16453">
        <ele>1414.6</ele>
        <time>2022-09-18T12:30:06Z</time>
      </trkpt>
      <trkpt lat="44.67948" lon="6.16455">
        <ele>1415</ele>
        <time>2022-09-18T12:30:07Z</time>
      </trkpt>
      <trkpt lat="44.6795" lon="6.16455">
        <ele>1415.4</ele>
        <time>2022-09-18T12:30:08Z</time>
      </trkpt>
      <trkpt lat="44.67952" lon="6.16456">
        <ele>1415.8</ele>
        <time>2022-09-18T12:30:09Z</time>
      </trkpt>
      <trkpt lat="44.67954" lon="6.16457">
        <ele>1416</ele>
        <time>2022-09-18T12:30:10Z</time>
      </trkpt>
      <trkpt lat="44.67956" lon="6.16458">
        <ele>1416.4</ele>
        <time>2022-09-18T12:30:11Z</time>
      </trkpt>
      <trkpt lat="44.67959" lon="6.16459">
        <ele>1417</ele>
        <time>2022-09-18T12:30:12Z</time>
      </trkpt>
      <trkpt lat="44.67961" lon="6.1646">
        <ele>1417.2</ele>
        <time>2022-09-18T12:30:13Z</time>
      </trkpt>
      <trkpt lat="44.67963" lon="6.16461">
        <ele>1417.4</ele>
        <time>2022-09-18T12:30:14Z</time>
      </trkpt>
      <trkpt lat="44.67965" lon="6.16463">
        <ele>1418</ele>
        <time>2022-09-18T12:30:15Z</time>
      </trkpt>
      <trkpt lat="44.67968" lon="6.16464">
        <ele>1418.4</ele>
        <time>2022-09-18T12:30:16Z</time>
      </trkpt>
      <trkpt lat="44.6797" lon="6.16465">
        <ele>1418.8</ele>
        <time>2022-09-18T12:30:17Z</time>
      </trkpt>
      <trkpt lat="44.67972" lon="6.16466">
        <ele>1419.2</ele>
        <time>2022-09-18T12:30:18Z</time>
      </trkpt>
      <trkpt lat="44.67975" lon="6.16468">
        <ele>1419.6</ele>
        <time>2022-09-18T12:30:19Z</time>
      </trkpt>
      <trkpt lat="44.67977" lon="6.16469">
        <ele>1420.2</ele>
        <time>2022-09-18T12:30:20Z</time>
      </trkpt>
      <trkpt lat="44.67979" lon="6.1647">
        <ele>1420.8</ele>
        <time>2022-09-18T12:30:21Z</time>
      </trkpt>
      <trkpt lat="44.67981" lon="6.16471">
        <ele>1421</ele>
        <time>2022-09-18T12:30:22Z</time>
      </trkpt>
      <trkpt lat="44.67982" lon="6.16472">
        <ele>1421.4</ele>
        <time>2022-09-18T12:30:23Z</time>
      </trkpt>
      <trkpt lat="44.67984" lon="6.16472">
        <ele>1421.8</ele>
        <time>2022-09-18T12:30:24Z</time>
      </trkpt>
      <trkpt lat="44.67986" lon="6.16472">
        <ele>1422.2</ele>
        <time>2022-09-18T12:30:25Z</time>
      </trkpt>
      <trkpt lat="44.67988" lon="6.16473">
        <ele>1422.6</ele>
        <time>2022-09-18T12:30:26Z</time>
      </trkpt>
      <trkpt lat="44.6799" lon="6.16474">
        <ele>1422.8</ele>
        <time>2022-09-18T12:30:27Z</time>
      </trkpt>
      <trkpt lat="44.67992" lon="6.16474">
        <ele>1423.4</ele>
        <time>2022-09-18T12:30:28Z</time>
      </trkpt>
      <trkpt lat="44.67995" lon="6.16475">
        <ele>1423.8</ele>
        <time>2022-09-18T12:30:29Z</time>
      </trkpt>
      <trkpt lat="44.67997" lon="6.16475">
        <ele>1424.2</ele>
        <time>2022-09-18T12:30:30Z</time>
      </trkpt>
      <trkpt lat="44.68" lon="6.16476">
        <ele>1424.6</ele>
        <time>2022-09-18T12:30:31Z</time>
      </trkpt>
      <trkpt lat="44.68002" lon="6.16477">
        <ele>1424.8</ele>
        <time>2022-09-18T12:30:32Z</time>
      </trkpt>
      <trkpt lat="44.68005" lon="6.16479">
        <ele>1425.2</ele>
        <time>2022-09-18T12:30:33Z</time>
      </trkpt>
      <trkpt lat="44.68007" lon="6.1648">
        <ele>1425.2</ele>
        <time>2022-09-18T12:30:34Z</time>
      </trkpt>
      <trkpt lat="44.68009" lon="6.16482">
        <ele>1425.6</ele>
        <time>2022-09-18T12:30:35Z</time>
      </trkpt>
      <trkpt lat="44.68011" lon="6.16484">
        <ele>1426</ele>
        <time>2022-09-18T12:30:36Z</time>
      </trkpt>
      <trkpt lat="44.68013" lon="6.16486">
        <ele>1426.2</ele>
        <time>2022-09-18T12:30:37Z</time>
      </trkpt>
      <trkpt lat="44.68014" lon="6.16488">
        <ele>1426.6</ele>
        <time>2022-09-18T12:30:38Z</time>
      </trkpt>
      <trkpt lat="44.68016" lon="6.1649">
        <ele>1427</ele>
        <time>2022-09-18T12:30:39Z</time>
      </trkpt>
      <trkpt lat="44.68018" lon="6.16492">
        <ele>1427.2</ele>
        <time>2022-09-18T12:30:40Z</time>
      </trkpt>
      <trkpt lat="44.6802" lon="6.16494">
        <ele>1427.4</ele>
        <time>2022-09-18T12:30:41Z</time>
      </trkpt>
      <trkpt lat="44.68021" lon="6.16496">
        <ele>1427.6</ele>
        <time>2022-09-18T12:30:42Z</time>
      </trkpt>
      <trkpt lat="44.68023" lon="6.16499">
        <ele>1428</ele>
        <time>2022-09-18T12:30:43Z</time>
      </trkpt>
      <trkpt lat="44.68024" lon="6.16502">
        <ele>1428.4</ele>
        <time>2022-09-18T12:30:44Z</time>
      </trkpt>
      <trkpt lat="44.68025" lon="6.16505">
        <ele>1428.8</ele>
        <time>2022-09-18T12:30:45Z</time>
      </trkpt>
      <trkpt lat="44.68026" lon="6.16508">
        <ele>1429.2</ele>
        <time>2022-09-18T12:30:46Z</time>
      </trkpt>
      <trkpt lat="44.68027" lon="6.1651">
        <ele>1429.4</ele>
        <time>2022-09-18T12:30:47Z</time>
      </trkpt>
      <trkpt lat="44.68028" lon="6.16513">
        <ele>1429.6</ele>
        <time>2022-09-18T12:30:48Z</time>
      </trkpt>
      <trkpt lat="44.68029" lon="6.16516">
        <ele>1430.2</ele>
        <time>2022-09-18T12:30:49Z</time>
      </trkpt>
      <trkpt lat="44.68029" lon="6.1652">
        <ele>1430.4</ele>
        <time>2022-09-18T12:30:50Z</time>
      </trkpt>
      <trkpt lat="44.6803" lon="6.16523">
        <ele>1430.8</ele>
        <time>2022-09-18T12:30:51Z</time>
      </trkpt>
      <trkpt lat="44.6803" lon="6.16526">
        <ele>1430.8</ele>
        <time>2022-09-18T12:30:52Z</time>
      </trkpt>
      <trkpt lat="44.68031" lon="6.16529">
        <ele>1431.6</ele>
        <time>2022-09-18T12:30:53Z</time>
      </trkpt>
      <trkpt lat="44.68032" lon="6.16532">
        <ele>1432</ele>
        <time>2022-09-18T12:30:54Z</time>
      </trkpt>
      <trkpt lat="44.68032" lon="6.16535">
        <ele>1432.4</ele>
        <time>2022-09-18T12:30:55Z</time>
      </trkpt>
      <trkpt lat="44.68033" lon="6.16539">
        <ele>1432.6</ele>
        <time>2022-09-18T12:30:56Z</time>
      </trkpt>
      <trkpt lat="44.68033" lon="6.16542">
        <ele>1433</ele>
        <time>2022-09-18T12:30:57Z</time>
      </trkpt>
      <trkpt lat="44.68034" lon="6.16545">
        <ele>1433.2</ele>
        <time>2022-09-18T12:30:58Z</time>
      </trkpt>
      <trkpt lat="44.68034" lon="6.16548">
        <ele>1433.6</ele>
        <time>2022-09-18T12:30:59Z</time>
      </trkpt>
      <trkpt lat="44.68034" lon="6.16551">
        <ele>1433.8</ele>
        <time>2022-09-18T12:31:00Z</time>
      </trkpt>
      <trkpt lat="44.68035" lon="6.16554">
        <ele>1434.2</ele>
        <time>2022-09-18T12:31:01Z</time>
      </trkpt>
      <trkpt lat="44.68035" lon="6.16557">
        <ele>1434.6</ele>
        <time>2022-09-18T12:31:02Z</time>
      </trkpt>
      <trkpt lat="44.68036" lon="6.1656">
        <ele>1435.2</ele>
        <time>2022-09-18T12:31:03Z</time>
      </trkpt>
      <trkpt lat="44.68036" lon="6.16563">
        <ele>1435.4</ele>
        <time>2022-09-18T12:31:04Z</time>
      </trkpt>
      <trkpt lat="44.68037" lon="6.1657">
        <ele>1436</ele>
        <time>2022-09-18T12:31:06Z</time>
      </trkpt>
      <trkpt lat="44.68038" lon="6.16573">
        <ele>1436.2</ele>
        <time>2022-09-18T12:31:07Z</time>
      </trkpt>
      <trkpt lat="44.68038" lon="6.16576">
        <ele>1436.4</ele>
        <time>2022-09-18T12:31:08Z</time>
      </trkpt>
      <trkpt lat="44.68038" lon="6.16579">
        <ele>1436.6</ele>
        <time>2022-09-18T12:31:09Z</time>
      </trkpt>
      <trkpt lat="44.68039" lon="6.16582">
        <ele>1437</ele>
        <time>2022-09-18T12:31:10Z</time>
      </trkpt>
      <trkpt lat="44.68039" lon="6.16585">
        <ele>1437.2</ele>
        <time>2022-09-18T12:31:11Z</time>
      </trkpt>
      <trkpt lat="44.6804" lon="6.16588">
        <ele>1437.4</ele>
        <time>2022-09-18T12:31:12Z</time>
      </trkpt>
      <trkpt lat="44.6804" lon="6.16591">
        <ele>1437.8</ele>
        <time>2022-09-18T12:31:13Z</time>
      </trkpt>
      <trkpt lat="44.68041" lon="6.16594">
        <ele>1437.8</ele>
        <time>2022-09-18T12:31:14Z</time>
      </trkpt>
      <trkpt lat="44.68042" lon="6.16597">
        <ele>1438</ele>
        <time>2022-09-18T12:31:15Z</time>
      </trkpt>
      <trkpt lat="44.68043" lon="6.166">
        <ele>1438</ele>
        <time>2022-09-18T12:31:16Z</time>
      </trkpt>
      <trkpt lat="44.68044" lon="6.16603">
        <ele>1438.2</ele>
        <time>2022-09-18T12:31:17Z</time>
      </trkpt>
      <trkpt lat="44.68045" lon="6.16605">
        <ele>1438.4</ele>
        <time>2022-09-18T12:31:18Z</time>
      </trkpt>
      <trkpt lat="44.68046" lon="6.16608">
        <ele>1438.6</ele>
        <time>2022-09-18T12:31:19Z</time>
      </trkpt>
      <trkpt lat="44.68047" lon="6.16611">
        <ele>1438.6</ele>
        <time>2022-09-18T12:31:20Z</time>
      </trkpt>
      <trkpt lat="44.68048" lon="6.16613">
        <ele>1438.6</ele>
        <time>2022-09-18T12:31:21Z</time>
      </trkpt>
      <trkpt lat="44.6805" lon="6.16615">
        <ele>1438.6</ele>
        <time>2022-09-18T12:31:22Z</time>
      </trkpt>
      <trkpt lat="44.68052" lon="6.16618">
        <ele>1438.8</ele>
        <time>2022-09-18T12:31:23Z</time>
      </trkpt>
      <trkpt lat="44.68054" lon="6.1662">
        <ele>1438.8</ele>
        <time>2022-09-18T12:31:24Z</time>
      </trkpt>
      <trkpt lat="44.68056" lon="6.16622">
        <ele>1438.6</ele>
        <time>2022-09-18T12:31:25Z</time>
      </trkpt>
      <trkpt lat="44.68057" lon="6.16623">
        <ele>1438.8</ele>
        <time>2022-09-18T12:31:26Z</time>
      </trkpt>
      <trkpt lat="44.68059" lon="6.16625">
        <ele>1438.6</ele>
        <time>2022-09-18T12:31:27Z</time>
      </trkpt>
      <trkpt lat="44.68062" lon="6.16626">
        <ele>1438.6</ele>
        <time>2022-09-18T12:31:28Z</time>
      </trkpt>
      <trkpt lat="44.68064" lon="6.16627">
        <ele>1438.8</ele>
        <time>2022-09-18T12:31:29Z</time>
      </trkpt>
      <trkpt lat="44.68067" lon="6.16628">
        <ele>1439</ele>
        <time>2022-09-18T12:31:30Z</time>
      </trkpt>
      <trkpt lat="44.68069" lon="6.16628">
        <ele>1439</ele>
        <time>2022-09-18T12:31:31Z</time>
      </trkpt>
      <trkpt lat="44.68071" lon="6.16627">
        <ele>1439</ele>
        <time>2022-09-18T12:31:32Z</time>
      </trkpt>
      <trkpt lat="44.68076" lon="6.16626">
        <ele>1439.4</ele>
        <time>2022-09-18T12:31:34Z</time>
      </trkpt>
      <trkpt lat="44.68078" lon="6.16625">
        <ele>1439.6</ele>
        <time>2022-09-18T12:31:35Z</time>
      </trkpt>
      <trkpt lat="44.6808" lon="6.16623">
        <ele>1439.8</ele>
        <time>2022-09-18T12:31:36Z</time>
      </trkpt>
      <trkpt lat="44.68082" lon="6.16621">
        <ele>1440.2</ele>
        <time>2022-09-18T12:31:37Z</time>
      </trkpt>
      <trkpt lat="44.68083" lon="6.16619">
        <ele>1440.4</ele>
        <time>2022-09-18T12:31:38Z</time>
      </trkpt>
      <trkpt lat="44.68085" lon="6.16616">
        <ele>1440.6</ele>
        <time>2022-09-18T12:31:39Z</time>
      </trkpt>
      <trkpt lat="44.68086" lon="6.16613">
        <ele>1440.6</ele>
        <time>2022-09-18T12:31:40Z</time>
      </trkpt>
      <trkpt lat="44.68088" lon="6.16611">
        <ele>1440.8</ele>
        <time>2022-09-18T12:31:41Z</time>
      </trkpt>
      <trkpt lat="44.68089" lon="6.16608">
        <ele>1440.8</ele>
        <time>2022-09-18T12:31:42Z</time>
      </trkpt>
      <trkpt lat="44.6809" lon="6.16605">
        <ele>1441.4</ele>
        <time>2022-09-18T12:31:43Z</time>
      </trkpt>
      <trkpt lat="44.68091" lon="6.16602">
        <ele>1441.6</ele>
        <time>2022-09-18T12:31:44Z</time>
      </trkpt>
      <trkpt lat="44.68092" lon="6.16598">
        <ele>1441.8</ele>
        <time>2022-09-18T12:31:45Z</time>
      </trkpt>
      <trkpt lat="44.68092" lon="6.16595">
        <ele>1442</ele>
        <time>2022-09-18T12:31:46Z</time>
      </trkpt>
      <trkpt lat="44.68093" lon="6.16592">
        <ele>1442.2</ele>
        <time>2022-09-18T12:31:47Z</time>
      </trkpt>
      <trkpt lat="44.68094" lon="6.16588">
        <ele>1442.4</ele>
        <time>2022-09-18T12:31:48Z</time>
      </trkpt>
      <trkpt lat="44.68094" lon="6.16584">
        <ele>1442.6</ele>
        <time>2022-09-18T12:31:49Z</time>
      </trkpt>
      <trkpt lat="44.68095" lon="6.16581">
        <ele>1442.6</ele>
        <time>2022-09-18T12:31:50Z</time>
      </trkpt>
      <trkpt lat="44.68096" lon="6.16574">
        <ele>1442.6</ele>
        <time>2022-09-18T12:31:52Z</time>
      </trkpt>
      <trkpt lat="44.68096" lon="6.1657">
        <ele>1442.6</ele>
        <time>2022-09-18T12:31:53Z</time>
      </trkpt>
      <trkpt lat="44.68097" lon="6.16567">
        <ele>1442.6</ele>
        <time>2022-09-18T12:31:54Z</time>
      </trkpt>
      <trkpt lat="44.68097" lon="6.16563">
        <ele>1442.8</ele>
        <time>2022-09-18T12:31:55Z</time>
      </trkpt>
      <trkpt lat="44.68098" lon="6.1656">
        <ele>1442.8</ele>
        <time>2022-09-18T12:31:56Z</time>
      </trkpt>
      <trkpt lat="44.68098" lon="6.16556">
        <ele>1443</ele>
        <time>2022-09-18T12:31:57Z</time>
      </trkpt>
      <trkpt lat="44.68098" lon="6.16552">
        <ele>1443</ele>
        <time>2022-09-18T12:31:58Z</time>
      </trkpt>
      <trkpt lat="44.68098" lon="6.16549">
        <ele>1443.2</ele>
        <time>2022-09-18T12:31:59Z</time>
      </trkpt>
      <trkpt lat="44.68099" lon="6.16546">
        <ele>1443.2</ele>
        <time>2022-09-18T12:32:00Z</time>
      </trkpt>
      <trkpt lat="44.68099" lon="6.16542">
        <ele>1443</ele>
        <time>2022-09-18T12:32:01Z</time>
      </trkpt>
      <trkpt lat="44.68099" lon="6.16539">
        <ele>1443</ele>
        <time>2022-09-18T12:32:02Z</time>
      </trkpt>
      <trkpt lat="44.681" lon="6.16536">
        <ele>1443.2</ele>
        <time>2022-09-18T12:32:03Z</time>
      </trkpt>
      <trkpt lat="44.68101" lon="6.16533">
        <ele>1443.4</ele>
        <time>2022-09-18T12:32:04Z</time>
      </trkpt>
      <trkpt lat="44.68101" lon="6.16529">
        <ele>1443.6</ele>
        <time>2022-09-18T12:32:05Z</time>
      </trkpt>
      <trkpt lat="44.68102" lon="6.16525">
        <ele>1443.6</ele>
        <time>2022-09-18T12:32:06Z</time>
      </trkpt>
      <trkpt lat="44.68103" lon="6.16522">
        <ele>1443.8</ele>
        <time>2022-09-18T12:32:07Z</time>
      </trkpt>
      <trkpt lat="44.68103" lon="6.16519">
        <ele>1443.8</ele>
        <time>2022-09-18T12:32:08Z</time>
      </trkpt>
      <trkpt lat="44.68104" lon="6.16516">
        <ele>1444</ele>
        <time>2022-09-18T12:32:09Z</time>
      </trkpt>
      <trkpt lat="44.68105" lon="6.16512">
        <ele>1444</ele>
        <time>2022-09-18T12:32:10Z</time>
      </trkpt>
      <trkpt lat="44.68106" lon="6.16509">
        <ele>1444.2</ele>
        <time>2022-09-18T12:32:11Z</time>
      </trkpt>
      <trkpt lat="44.68107" lon="6.16506">
        <ele>1444.4</ele>
        <time>2022-09-18T12:32:12Z</time>
      </trkpt>
      <trkpt lat="44.68108" lon="6.16503">
        <ele>1444.4</ele>
        <time>2022-09-18T12:32:13Z</time>
      </trkpt>
      <trkpt lat="44.68109" lon="6.165">
        <ele>1444.4</ele>
        <time>2022-09-18T12:32:14Z</time>
      </trkpt>
      <trkpt lat="44.6811" lon="6.16497">
        <ele>1444.6</ele>
        <time>2022-09-18T12:32:15Z</time>
      </trkpt>
      <trkpt lat="44.68111" lon="6.16494">
        <ele>1444.6</ele>
        <time>2022-09-18T12:32:16Z</time>
      </trkpt>
      <trkpt lat="44.68113" lon="6.16491">
        <ele>1444.8</ele>
        <time>2022-09-18T12:32:17Z</time>
      </trkpt>
      <trkpt lat="44.68114" lon="6.16489">
        <ele>1445</ele>
        <time>2022-09-18T12:32:18Z</time>
      </trkpt>
      <trkpt lat="44.68115" lon="6.16486">
        <ele>1445</ele>
        <time>2022-09-18T12:32:19Z</time>
      </trkpt>
      <trkpt lat="44.68117" lon="6.16483">
        <ele>1445.2</ele>
        <time>2022-09-18T12:32:20Z</time>
      </trkpt>
      <trkpt lat="44.68118" lon="6.1648">
        <ele>1445.4</ele>
        <time>2022-09-18T12:32:21Z</time>
      </trkpt>
      <trkpt lat="44.68119" lon="6.16478">
        <ele>1445.4</ele>
        <time>2022-09-18T12:32:22Z</time>
      </trkpt>
      <trkpt lat="44.68121" lon="6.16475">
        <ele>1445.6</ele>
        <time>2022-09-18T12:32:23Z</time>
      </trkpt>
      <trkpt lat="44.68122" lon="6.16472">
        <ele>1445.4</ele>
        <time>2022-09-18T12:32:24Z</time>
      </trkpt>
      <trkpt lat="44.68123" lon="6.16469">
        <ele>1445.8</ele>
        <time>2022-09-18T12:32:25Z</time>
      </trkpt>
      <trkpt lat="44.68125" lon="6.16467">
        <ele>1445.8</ele>
        <time>2022-09-18T12:32:26Z</time>
      </trkpt>
      <trkpt lat="44.68126" lon="6.16464">
        <ele>1445.6</ele>
        <time>2022-09-18T12:32:27Z</time>
      </trkpt>
      <trkpt lat="44.68128" lon="6.16462">
        <ele>1445.4</ele>
        <time>2022-09-18T12:32:28Z</time>
      </trkpt>
      <trkpt lat="44.6813" lon="6.16461">
        <ele>1445.4</ele>
        <time>2022-09-18T12:32:29Z</time>
      </trkpt>
      <trkpt lat="44.68132" lon="6.1646">
        <ele>1445.4</ele>
        <time>2022-09-18T12:32:30Z</time>
      </trkpt>
      <trkpt lat="44.68135" lon="6.1646">
        <ele>1445.6</ele>
        <time>2022-09-18T12:32:31Z</time>
      </trkpt>
      <trkpt lat="44.68137" lon="6.16462">
        <ele>1445.6</ele>
        <time>2022-09-18T12:32:32Z</time>
      </trkpt>
      <trkpt lat="44.68138" lon="6.16464">
        <ele>1445.6</ele>
        <time>2022-09-18T12:32:33Z</time>
      </trkpt>
      <trkpt lat="44.68139" lon="6.16467">
        <ele>1445.8</ele>
        <time>2022-09-18T12:32:34Z</time>
      </trkpt>
      <trkpt lat="44.6814" lon="6.1647">
        <ele>1445.6</ele>
        <time>2022-09-18T12:32:35Z</time>
      </trkpt>
      <trkpt lat="44.6814" lon="6.16474">
        <ele>1445.4</ele>
        <time>2022-09-18T12:32:36Z</time>
      </trkpt>
      <trkpt lat="44.6814" lon="6.16477">
        <ele>1445</ele>
        <time>2022-09-18T12:32:37Z</time>
      </trkpt>
      <trkpt lat="44.6814" lon="6.1648">
        <ele>1444.8</ele>
        <time>2022-09-18T12:32:38Z</time>
      </trkpt>
      <trkpt lat="44.68139" lon="6.16483">
        <ele>1444.8</ele>
        <time>2022-09-18T12:32:39Z</time>
      </trkpt>
      <trkpt lat="44.68138" lon="6.16485">
        <ele>1444.4</ele>
        <time>2022-09-18T12:32:40Z</time>
      </trkpt>
      <trkpt lat="44.68137" lon="6.16488">
        <ele>1444.6</ele>
        <time>2022-09-18T12:32:41Z</time>
      </trkpt>
      <trkpt lat="44.68135" lon="6.1649">
        <ele>1444.4</ele>
        <time>2022-09-18T12:32:42Z</time>
      </trkpt>
      <trkpt lat="44.68133" lon="6.16496">
        <ele>1444</ele>
        <time>2022-09-18T12:32:44Z</time>
      </trkpt>
      <trkpt lat="44.68132" lon="6.16499">
        <ele>1444</ele>
        <time>2022-09-18T12:32:45Z</time>
      </trkpt>
      <trkpt lat="44.68131" lon="6.16502">
        <ele>1444</ele>
        <time>2022-09-18T12:32:46Z</time>
      </trkpt>
      <trkpt lat="44.68131" lon="6.16506">
        <ele>1444.2</ele>
        <time>2022-09-18T12:32:47Z</time>
      </trkpt>
      <trkpt lat="44.6813" lon="6.16509">
        <ele>1444.2</ele>
        <time>2022-09-18T12:32:48Z</time>
      </trkpt>
      <trkpt lat="44.68129" lon="6.16513">
        <ele>1444.4</ele>
        <time>2022-09-18T12:32:49Z</time>
      </trkpt>
      <trkpt lat="44.68129" lon="6.16516">
        <ele>1444.6</ele>
        <time>2022-09-18T12:32:50Z</time>
      </trkpt>
      <trkpt lat="44.68129" lon="6.16519">
        <ele>1444.6</ele>
        <time>2022-09-18T12:32:51Z</time>
      </trkpt>
      <trkpt lat="44.68129" lon="6.16523">
        <ele>1444.8</ele>
        <time>2022-09-18T12:32:52Z</time>
      </trkpt>
      <trkpt lat="44.68129" lon="6.16526">
        <ele>1444.8</ele>
        <time>2022-09-18T12:32:53Z</time>
      </trkpt>
      <trkpt lat="44.6813" lon="6.1653">
        <ele>1444.8</ele>
        <time>2022-09-18T12:32:54Z</time>
      </trkpt>
      <trkpt lat="44.6813" lon="6.16533">
        <ele>1444.8</ele>
        <time>2022-09-18T12:32:55Z</time>
      </trkpt>
      <trkpt lat="44.68131" lon="6.16536">
        <ele>1444.8</ele>
        <time>2022-09-18T12:32:56Z</time>
      </trkpt>
      <trkpt lat="44.68131" lon="6.1654">
        <ele>1445</ele>
        <time>2022-09-18T12:32:57Z</time>
      </trkpt>
      <trkpt lat="44.68132" lon="6.16543">
        <ele>1445.2</ele>
        <time>2022-09-18T12:32:58Z</time>
      </trkpt>
      <trkpt lat="44.68133" lon="6.16546">
        <ele>1445.2</ele>
        <time>2022-09-18T12:32:59Z</time>
      </trkpt>
      <trkpt lat="44.68134" lon="6.16549">
        <ele>1445.4</ele>
        <time>2022-09-18T12:33:00Z</time>
      </trkpt>
      <trkpt lat="44.68135" lon="6.16553">
        <ele>1445.4</ele>
        <time>2022-09-18T12:33:01Z</time>
      </trkpt>
      <trkpt lat="44.68136" lon="6.16556">
        <ele>1445.6</ele>
        <time>2022-09-18T12:33:02Z</time>
      </trkpt>
      <trkpt lat="44.68137" lon="6.16559">
        <ele>1445.6</ele>
        <time>2022-09-18T12:33:03Z</time>
      </trkpt>
      <trkpt lat="44.68138" lon="6.16562">
        <ele>1445.6</ele>
        <time>2022-09-18T12:33:04Z</time>
      </trkpt>
      <trkpt lat="44.68139" lon="6.16565">
        <ele>1445.8</ele>
        <time>2022-09-18T12:33:05Z</time>
      </trkpt>
      <trkpt lat="44.6814" lon="6.16568">
        <ele>1445.8</ele>
        <time>2022-09-18T12:33:06Z</time>
      </trkpt>
      <trkpt lat="44.68141" lon="6.16571">
        <ele>1445.6</ele>
        <time>2022-09-18T12:33:07Z</time>
      </trkpt>
      <trkpt lat="44.68142" lon="6.16574">
        <ele>1445.8</ele>
        <time>2022-09-18T12:33:08Z</time>
      </trkpt>
      <trkpt lat="44.68143" lon="6.16577">
        <ele>1445.8</ele>
        <time>2022-09-18T12:33:09Z</time>
      </trkpt>
      <trkpt lat="44.68144" lon="6.1658">
        <ele>1445.8</ele>
        <time>2022-09-18T12:33:10Z</time>
      </trkpt>
      <trkpt lat="44.68146" lon="6.16583">
        <ele>1446</ele>
        <time>2022-09-18T12:33:11Z</time>
      </trkpt>
      <trkpt lat="44.68147" lon="6.16586">
        <ele>1446</ele>
        <time>2022-09-18T12:33:12Z</time>
      </trkpt>
      <trkpt lat="44.68148" lon="6.16589">
        <ele>1446.2</ele>
        <time>2022-09-18T12:33:13Z</time>
      </trkpt>
      <trkpt lat="44.6815" lon="6.16592">
        <ele>1446.2</ele>
        <time>2022-09-18T12:33:14Z</time>
      </trkpt>
      <trkpt lat="44.68151" lon="6.16596">
        <ele>1446.6</ele>
        <time>2022-09-18T12:33:15Z</time>
      </trkpt>
      <trkpt lat="44.68152" lon="6.16599">
        <ele>1446.8</ele>
        <time>2022-09-18T12:33:16Z</time>
      </trkpt>
      <trkpt lat="44.68154" lon="6.16602">
        <ele>1446.8</ele>
        <time>2022-09-18T12:33:17Z</time>
      </trkpt>
      <trkpt lat="44.68155" lon="6.16605">
        <ele>1447.2</ele>
        <time>2022-09-18T12:33:18Z</time>
      </trkpt>
      <trkpt lat="44.68156" lon="6.16608">
        <ele>1447.2</ele>
        <time>2022-09-18T12:33:19Z</time>
      </trkpt>
      <trkpt lat="44.68157" lon="6.16611">
        <ele>1447.4</ele>
        <time>2022-09-18T12:33:20Z</time>
      </trkpt>
      <trkpt lat="44.68158" lon="6.16614">
        <ele>1447.6</ele>
        <time>2022-09-18T12:33:21Z</time>
      </trkpt>
      <trkpt lat="44.68159" lon="6.16617">
        <ele>1447.6</ele>
        <time>2022-09-18T12:33:22Z</time>
      </trkpt>
      <trkpt lat="44.68161" lon="6.16619">
        <ele>1447.8</ele>
        <time>2022-09-18T12:33:23Z</time>
      </trkpt>
      <trkpt lat="44.68162" lon="6.16622">
        <ele>1447.8</ele>
        <time>2022-09-18T12:33:24Z</time>
      </trkpt>
      <trkpt lat="44.68164" lon="6.16625">
        <ele>1447.8</ele>
        <time>2022-09-18T12:33:25Z</time>
      </trkpt>
      <trkpt lat="44.68166" lon="6.16628">
        <ele>1448</ele>
        <time>2022-09-18T12:33:26Z</time>
      </trkpt>
      <trkpt lat="44.68167" lon="6.16631">
        <ele>1448.4</ele>
        <time>2022-09-18T12:33:27Z</time>
      </trkpt>
      <trkpt lat="44.68169" lon="6.16634">
        <ele>1448.4</ele>
        <time>2022-09-18T12:33:28Z</time>
      </trkpt>
      <trkpt lat="44.6817" lon="6.16636">
        <ele>1448.6</ele>
        <time>2022-09-18T12:33:29Z</time>
      </trkpt>
      <trkpt lat="44.68172" lon="6.16639">
        <ele>1449</ele>
        <time>2022-09-18T12:33:30Z</time>
      </trkpt>
      <trkpt lat="44.68173" lon="6.16641">
        <ele>1449.2</ele>
        <time>2022-09-18T12:33:31Z</time>
      </trkpt>
      <trkpt lat="44.68175" lon="6.16644">
        <ele>1449.4</ele>
        <time>2022-09-18T12:33:32Z</time>
      </trkpt>
      <trkpt lat="44.68177" lon="6.16646">
        <ele>1449.8</ele>
        <time>2022-09-18T12:33:33Z</time>
      </trkpt>
      <trkpt lat="44.68178" lon="6.16649">
        <ele>1450</ele>
        <time>2022-09-18T12:33:34Z</time>
      </trkpt>
      <trkpt lat="44.6818" lon="6.16651">
        <ele>1450.6</ele>
        <time>2022-09-18T12:33:35Z</time>
      </trkpt>
      <trkpt lat="44.68183" lon="6.16653">
        <ele>1451</ele>
        <time>2022-09-18T12:33:36Z</time>
      </trkpt>
      <trkpt lat="44.68185" lon="6.16656">
        <ele>1451.2</ele>
        <time>2022-09-18T12:33:37Z</time>
      </trkpt>
      <trkpt lat="44.68187" lon="6.16657">
        <ele>1451.6</ele>
        <time>2022-09-18T12:33:38Z</time>
      </trkpt>
      <trkpt lat="44.68189" lon="6.16659">
        <ele>1451.8</ele>
        <time>2022-09-18T12:33:39Z</time>
      </trkpt>
      <trkpt lat="44.68191" lon="6.16661">
        <ele>1452</ele>
        <time>2022-09-18T12:33:40Z</time>
      </trkpt>
      <trkpt lat="44.68193" lon="6.16662">
        <ele>1452.4</ele>
        <time>2022-09-18T12:33:41Z</time>
      </trkpt>
      <trkpt lat="44.68196" lon="6.16663">
        <ele>1453</ele>
        <time>2022-09-18T12:33:42Z</time>
      </trkpt>
      <trkpt lat="44.68198" lon="6.16664">
        <ele>1453.2</ele>
        <time>2022-09-18T12:33:43Z</time>
      </trkpt>
      <trkpt lat="44.682" lon="6.16666">
        <ele>1453.6</ele>
        <time>2022-09-18T12:33:44Z</time>
      </trkpt>
      <trkpt lat="44.68202" lon="6.16667">
        <ele>1454.2</ele>
        <time>2022-09-18T12:33:45Z</time>
      </trkpt>
      <trkpt lat="44.68205" lon="6.16668">
        <ele>1454.6</ele>
        <time>2022-09-18T12:33:46Z</time>
      </trkpt>
      <trkpt lat="44.68207" lon="6.16668">
        <ele>1455</ele>
        <time>2022-09-18T12:33:47Z</time>
      </trkpt>
      <trkpt lat="44.68209" lon="6.16669">
        <ele>1455.2</ele>
        <time>2022-09-18T12:33:48Z</time>
      </trkpt>
      <trkpt lat="44.68211" lon="6.1667">
        <ele>1455.8</ele>
        <time>2022-09-18T12:33:49Z</time>
      </trkpt>
      <trkpt lat="44.68214" lon="6.16669">
        <ele>1456</ele>
        <time>2022-09-18T12:33:50Z</time>
      </trkpt>
      <trkpt lat="44.68217" lon="6.16669">
        <ele>1456.4</ele>
        <time>2022-09-18T12:33:51Z</time>
      </trkpt>
      <trkpt lat="44.68219" lon="6.16669">
        <ele>1457.2</ele>
        <time>2022-09-18T12:33:52Z</time>
      </trkpt>
      <trkpt lat="44.68222" lon="6.1667">
        <ele>1457.6</ele>
        <time>2022-09-18T12:33:53Z</time>
      </trkpt>
      <trkpt lat="44.68224" lon="6.1667">
        <ele>1457.8</ele>
        <time>2022-09-18T12:33:54Z</time>
      </trkpt>
      <trkpt lat="44.68227" lon="6.1667">
        <ele>1458</ele>
        <time>2022-09-18T12:33:55Z</time>
      </trkpt>
      <trkpt lat="44.68229" lon="6.1667">
        <ele>1458.4</ele>
        <time>2022-09-18T12:33:56Z</time>
      </trkpt>
      <trkpt lat="44.68232" lon="6.16671">
        <ele>1458.4</ele>
        <time>2022-09-18T12:33:57Z</time>
      </trkpt>
      <trkpt lat="44.68234" lon="6.16671">
        <ele>1458.8</ele>
        <time>2022-09-18T12:33:58Z</time>
      </trkpt>
      <trkpt lat="44.68236" lon="6.16671">
        <ele>1459.2</ele>
        <time>2022-09-18T12:33:59Z</time>
      </trkpt>
      <trkpt lat="44.68238" lon="6.1667">
        <ele>1459.4</ele>
        <time>2022-09-18T12:34:00Z</time>
      </trkpt>
      <trkpt lat="44.6824" lon="6.1667">
        <ele>1459.8</ele>
        <time>2022-09-18T12:34:01Z</time>
      </trkpt>
      <trkpt lat="44.68243" lon="6.1667">
        <ele>1460.2</ele>
        <time>2022-09-18T12:34:02Z</time>
      </trkpt>
      <trkpt lat="44.68245" lon="6.16669">
        <ele>1460.6</ele>
        <time>2022-09-18T12:34:03Z</time>
      </trkpt>
      <trkpt lat="44.68247" lon="6.16668">
        <ele>1460.6</ele>
        <time>2022-09-18T12:34:04Z</time>
      </trkpt>
      <trkpt lat="44.6825" lon="6.16667">
        <ele>1461</ele>
        <time>2022-09-18T12:34:05Z</time>
      </trkpt>
      <trkpt lat="44.68251" lon="6.16665">
        <ele>1461.2</ele>
        <time>2022-09-18T12:34:06Z</time>
      </trkpt>
      <trkpt lat="44.68253" lon="6.16663">
        <ele>1461.4</ele>
        <time>2022-09-18T12:34:07Z</time>
      </trkpt>
      <trkpt lat="44.68255" lon="6.16661">
        <ele>1461.8</ele>
        <time>2022-09-18T12:34:08Z</time>
      </trkpt>
      <trkpt lat="44.68257" lon="6.16659">
        <ele>1461.8</ele>
        <time>2022-09-18T12:34:09Z</time>
      </trkpt>
      <trkpt lat="44.68258" lon="6.16657">
        <ele>1461.8</ele>
        <time>2022-09-18T12:34:10Z</time>
      </trkpt>
      <trkpt lat="44.68259" lon="6.16654">
        <ele>1462</ele>
        <time>2022-09-18T12:34:11Z</time>
      </trkpt>
      <trkpt lat="44.68261" lon="6.16652">
        <ele>1462</ele>
        <time>2022-09-18T12:34:12Z</time>
      </trkpt>
      <trkpt lat="44.68262" lon="6.16649">
        <ele>1462</ele>
        <time>2022-09-18T12:34:13Z</time>
      </trkpt>
      <trkpt lat="44.68263" lon="6.16647">
        <ele>1462.2</ele>
        <time>2022-09-18T12:34:14Z</time>
      </trkpt>
      <trkpt lat="44.68263" lon="6.16644">
        <ele>1462.2</ele>
        <time>2022-09-18T12:34:15Z</time>
      </trkpt>
      <trkpt lat="44.68264" lon="6.16641">
        <ele>1462.2</ele>
        <time>2022-09-18T12:34:16Z</time>
      </trkpt>
      <trkpt lat="44.68265" lon="6.16638">
        <ele>1462.2</ele>
        <time>2022-09-18T12:34:17Z</time>
      </trkpt>
      <trkpt lat="44.68266" lon="6.16635">
        <ele>1462</ele>
        <time>2022-09-18T12:34:18Z</time>
      </trkpt>
      <trkpt lat="44.68267" lon="6.16632">
        <ele>1462</ele>
        <time>2022-09-18T12:34:19Z</time>
      </trkpt>
      <trkpt lat="44.68267" lon="6.16629">
        <ele>1462</ele>
        <time>2022-09-18T12:34:20Z</time>
      </trkpt>
      <trkpt lat="44.68268" lon="6.16626">
        <ele>1461.8</ele>
        <time>2022-09-18T12:34:21Z</time>
      </trkpt>
      <trkpt lat="44.68269" lon="6.16623">
        <ele>1461.8</ele>
        <time>2022-09-18T12:34:22Z</time>
      </trkpt>
      <trkpt lat="44.6827" lon="6.1662">
        <ele>1461.8</ele>
        <time>2022-09-18T12:34:23Z</time>
      </trkpt>
      <trkpt lat="44.68271" lon="6.16617">
        <ele>1461.6</ele>
        <time>2022-09-18T12:34:24Z</time>
      </trkpt>
      <trkpt lat="44.68272" lon="6.16614">
        <ele>1461.8</ele>
        <time>2022-09-18T12:34:25Z</time>
      </trkpt>
      <trkpt lat="44.68273" lon="6.1661">
        <ele>1461.6</ele>
        <time>2022-09-18T12:34:26Z</time>
      </trkpt>
      <trkpt lat="44.68274" lon="6.16607">
        <ele>1461.6</ele>
        <time>2022-09-18T12:34:27Z</time>
      </trkpt>
      <trkpt lat="44.68274" lon="6.16603">
        <ele>1461.4</ele>
        <time>2022-09-18T12:34:28Z</time>
      </trkpt>
      <trkpt lat="44.68275" lon="6.166">
        <ele>1461.4</ele>
        <time>2022-09-18T12:34:29Z</time>
      </trkpt>
      <trkpt lat="44.68276" lon="6.16596">
        <ele>1461.4</ele>
        <time>2022-09-18T12:34:30Z</time>
      </trkpt>
      <trkpt lat="44.68277" lon="6.16593">
        <ele>1461.2</ele>
        <time>2022-09-18T12:34:31Z</time>
      </trkpt>
      <trkpt lat="44.68277" lon="6.16589">
        <ele>1460.8</ele>
        <time>2022-09-18T12:34:32Z</time>
      </trkpt>
      <trkpt lat="44.68278" lon="6.16585">
        <ele>1460.8</ele>
        <time>2022-09-18T12:34:33Z</time>
      </trkpt>
      <trkpt lat="44.68279" lon="6.16582">
        <ele>1460.8</ele>
        <time>2022-09-18T12:34:34Z</time>
      </trkpt>
      <trkpt lat="44.6828" lon="6.16579">
        <ele>1460.8</ele>
        <time>2022-09-18T12:34:35Z</time>
      </trkpt>
      <trkpt lat="44.68281" lon="6.16576">
        <ele>1460.8</ele>
        <time>2022-09-18T12:34:36Z</time>
      </trkpt>
      <trkpt lat="44.68282" lon="6.16573">
        <ele>1461</ele>
        <time>2022-09-18T12:34:37Z</time>
      </trkpt>
      <trkpt lat="44.68283" lon="6.16569">
        <ele>1461.2</ele>
        <time>2022-09-18T12:34:38Z</time>
      </trkpt>
      <trkpt lat="44.68283" lon="6.16566">
        <ele>1461.2</ele>
        <time>2022-09-18T12:34:39Z</time>
      </trkpt>
      <trkpt lat="44.68284" lon="6.16563">
        <ele>1461.2</ele>
        <time>2022-09-18T12:34:40Z</time>
      </trkpt>
      <trkpt lat="44.68285" lon="6.1656">
        <ele>1461</ele>
        <time>2022-09-18T12:34:41Z</time>
      </trkpt>
      <trkpt lat="44.68285" lon="6.16556">
        <ele>1461</ele>
        <time>2022-09-18T12:34:42Z</time>
      </trkpt>
      <trkpt lat="44.68286" lon="6.16553">
        <ele>1461.2</ele>
        <time>2022-09-18T12:34:43Z</time>
      </trkpt>
      <trkpt lat="44.68287" lon="6.16549">
        <ele>1461.2</ele>
        <time>2022-09-18T12:34:44Z</time>
      </trkpt>
      <trkpt lat="44.68288" lon="6.16546">
        <ele>1461</ele>
        <time>2022-09-18T12:34:45Z</time>
      </trkpt>
      <trkpt lat="44.68289" lon="6.16543">
        <ele>1461.4</ele>
        <time>2022-09-18T12:34:46Z</time>
      </trkpt>
      <trkpt lat="44.6829" lon="6.16539">
        <ele>1461.4</ele>
        <time>2022-09-18T12:34:47Z</time>
      </trkpt>
      <trkpt lat="44.68291" lon="6.16536">
        <ele>1461.4</ele>
        <time>2022-09-18T12:34:48Z</time>
      </trkpt>
      <trkpt lat="44.68291" lon="6.16533">
        <ele>1461.4</ele>
        <time>2022-09-18T12:34:49Z</time>
      </trkpt>
      <trkpt lat="44.68292" lon="6.1653">
        <ele>1461.6</ele>
        <time>2022-09-18T12:34:50Z</time>
      </trkpt>
      <trkpt lat="44.68293" lon="6.16527">
        <ele>1461.8</ele>
        <time>2022-09-18T12:34:51Z</time>
      </trkpt>
      <trkpt lat="44.68294" lon="6.16523">
        <ele>1462</ele>
        <time>2022-09-18T12:34:52Z</time>
      </trkpt>
      <trkpt lat="44.68295" lon="6.1652">
        <ele>1462</ele>
        <time>2022-09-18T12:34:53Z</time>
      </trkpt>
      <trkpt lat="44.68295" lon="6.16517">
        <ele>1462</ele>
        <time>2022-09-18T12:34:54Z</time>
      </trkpt>
      <trkpt lat="44.68296" lon="6.16513">
        <ele>1462.2</ele>
        <time>2022-09-18T12:34:55Z</time>
      </trkpt>
      <trkpt lat="44.68297" lon="6.1651">
        <ele>1462</ele>
        <time>2022-09-18T12:34:56Z</time>
      </trkpt>
      <trkpt lat="44.68298" lon="6.16507">
        <ele>1462</ele>
        <time>2022-09-18T12:34:57Z</time>
      </trkpt>
      <trkpt lat="44.68299" lon="6.16504">
        <ele>1461.8</ele>
        <time>2022-09-18T12:34:58Z</time>
      </trkpt>
      <trkpt lat="44.683" lon="6.16501">
        <ele>1461.8</ele>
        <time>2022-09-18T12:34:59Z</time>
      </trkpt>
      <trkpt lat="44.68301" lon="6.16498">
        <ele>1462</ele>
        <time>2022-09-18T12:35:00Z</time>
      </trkpt>
      <trkpt lat="44.68302" lon="6.16495">
        <ele>1462</ele>
        <time>2022-09-18T12:35:01Z</time>
      </trkpt>
      <trkpt lat="44.68302" lon="6.16492">
        <ele>1462</ele>
        <time>2022-09-18T12:35:02Z</time>
      </trkpt>
      <trkpt lat="44.68303" lon="6.16489">
        <ele>1462</ele>
        <time>2022-09-18T12:35:03Z</time>
      </trkpt>
      <trkpt lat="44.68304" lon="6.16486">
        <ele>1462</ele>
        <time>2022-09-18T12:35:04Z</time>
      </trkpt>
      <trkpt lat="44.68304" lon="6.16483">
        <ele>1462</ele>
        <time>2022-09-18T12:35:05Z</time>
      </trkpt>
      <trkpt lat="44.68304" lon="6.1648">
        <ele>1461.8</ele>
        <time>2022-09-18T12:35:06Z</time>
      </trkpt>
      <trkpt lat="44.68305" lon="6.16476">
        <ele>1461.8</ele>
        <time>2022-09-18T12:35:07Z</time>
      </trkpt>
      <trkpt lat="44.68305" lon="6.16473">
        <ele>1461.8</ele>
        <time>2022-09-18T12:35:08Z</time>
      </trkpt>
      <trkpt lat="44.68306" lon="6.1647">
        <ele>1461.8</ele>
        <time>2022-09-18T12:35:09Z</time>
      </trkpt>
      <trkpt lat="44.68307" lon="6.16467">
        <ele>1461.8</ele>
        <time>2022-09-18T12:35:10Z</time>
      </trkpt>
      <trkpt lat="44.68307" lon="6.16464">
        <ele>1461.8</ele>
        <time>2022-09-18T12:35:11Z</time>
      </trkpt>
      <trkpt lat="44.68308" lon="6.16462">
        <ele>1462</ele>
        <time>2022-09-18T12:35:12Z</time>
      </trkpt>
      <trkpt lat="44.68309" lon="6.16459">
        <ele>1462</ele>
        <time>2022-09-18T12:35:13Z</time>
      </trkpt>
      <trkpt lat="44.6831" lon="6.16456">
        <ele>1462</ele>
        <time>2022-09-18T12:35:14Z</time>
      </trkpt>
      <trkpt lat="44.68311" lon="6.16453">
        <ele>1462</ele>
        <time>2022-09-18T12:35:15Z</time>
      </trkpt>
      <trkpt lat="44.68312" lon="6.1645">
        <ele>1461.8</ele>
        <time>2022-09-18T12:35:16Z</time>
      </trkpt>
      <trkpt lat="44.68312" lon="6.16447">
        <ele>1461.6</ele>
        <time>2022-09-18T12:35:17Z</time>
      </trkpt>
      <trkpt lat="44.68313" lon="6.16443">
        <ele>1461.6</ele>
        <time>2022-09-18T12:35:18Z</time>
      </trkpt>
      <trkpt lat="44.68314" lon="6.16441">
        <ele>1461.4</ele>
        <time>2022-09-18T12:35:19Z</time>
      </trkpt>
      <trkpt lat="44.68315" lon="6.16438">
        <ele>1461.2</ele>
        <time>2022-09-18T12:35:20Z</time>
      </trkpt>
      <trkpt lat="44.68316" lon="6.16434">
        <ele>1461</ele>
        <time>2022-09-18T12:35:21Z</time>
      </trkpt>
      <trkpt lat="44.68317" lon="6.16431">
        <ele>1461</ele>
        <time>2022-09-18T12:35:22Z</time>
      </trkpt>
      <trkpt lat="44.68318" lon="6.16428">
        <ele>1460.8</ele>
        <time>2022-09-18T12:35:23Z</time>
      </trkpt>
      <trkpt lat="44.68319" lon="6.16425">
        <ele>1460.8</ele>
        <time>2022-09-18T12:35:24Z</time>
      </trkpt>
      <trkpt lat="44.6832" lon="6.16422">
        <ele>1460.8</ele>
        <time>2022-09-18T12:35:25Z</time>
      </trkpt>
      <trkpt lat="44.68321" lon="6.16418">
        <ele>1460.8</ele>
        <time>2022-09-18T12:35:26Z</time>
      </trkpt>
      <trkpt lat="44.68321" lon="6.16415">
        <ele>1460.8</ele>
        <time>2022-09-18T12:35:27Z</time>
      </trkpt>
      <trkpt lat="44.68322" lon="6.16412">
        <ele>1460.8</ele>
        <time>2022-09-18T12:35:28Z</time>
      </trkpt>
      <trkpt lat="44.68322" lon="6.16409">
        <ele>1460.6</ele>
        <time>2022-09-18T12:35:29Z</time>
      </trkpt>
      <trkpt lat="44.68323" lon="6.16406">
        <ele>1460.8</ele>
        <time>2022-09-18T12:35:30Z</time>
      </trkpt>
      <trkpt lat="44.68324" lon="6.16403">
        <ele>1460.6</ele>
        <time>2022-09-18T12:35:31Z</time>
      </trkpt>
      <trkpt lat="44.68325" lon="6.164">
        <ele>1460.6</ele>
        <time>2022-09-18T12:35:32Z</time>
      </trkpt>
      <trkpt lat="44.68325" lon="6.16397">
        <ele>1460.6</ele>
        <time>2022-09-18T12:35:33Z</time>
      </trkpt>
      <trkpt lat="44.68326" lon="6.16394">
        <ele>1460.6</ele>
        <time>2022-09-18T12:35:34Z</time>
      </trkpt>
      <trkpt lat="44.68327" lon="6.16391">
        <ele>1460.6</ele>
        <time>2022-09-18T12:35:35Z</time>
      </trkpt>
      <trkpt lat="44.68327" lon="6.16388">
        <ele>1460.8</ele>
        <time>2022-09-18T12:35:36Z</time>
      </trkpt>
      <trkpt lat="44.68328" lon="6.16385">
        <ele>1460.8</ele>
        <time>2022-09-18T12:35:37Z</time>
      </trkpt>
      <trkpt lat="44.68329" lon="6.16382">
        <ele>1461</ele>
        <time>2022-09-18T12:35:38Z</time>
      </trkpt>
      <trkpt lat="44.6833" lon="6.16379">
        <ele>1461.2</ele>
        <time>2022-09-18T12:35:39Z</time>
      </trkpt>
      <trkpt lat="44.68331" lon="6.16376">
        <ele>1461.6</ele>
        <time>2022-09-18T12:35:40Z</time>
      </trkpt>
      <trkpt lat="44.68332" lon="6.16373">
        <ele>1461.8</ele>
        <time>2022-09-18T12:35:41Z</time>
      </trkpt>
      <trkpt lat="44.68333" lon="6.1637">
        <ele>1462</ele>
        <time>2022-09-18T12:35:42Z</time>
      </trkpt>
      <trkpt lat="44.68334" lon="6.16368">
        <ele>1462.2</ele>
        <time>2022-09-18T12:35:43Z</time>
      </trkpt>
      <trkpt lat="44.68336" lon="6.16365">
        <ele>1462.4</ele>
        <time>2022-09-18T12:35:44Z</time>
      </trkpt>
      <trkpt lat="44.68337" lon="6.16362">
        <ele>1462.8</ele>
        <time>2022-09-18T12:35:45Z</time>
      </trkpt>
      <trkpt lat="44.68338" lon="6.16359">
        <ele>1463</ele>
        <time>2022-09-18T12:35:46Z</time>
      </trkpt>
      <trkpt lat="44.6834" lon="6.16357">
        <ele>1463.4</ele>
        <time>2022-09-18T12:35:47Z</time>
      </trkpt>
      <trkpt lat="44.68341" lon="6.16354">
        <ele>1463.8</ele>
        <time>2022-09-18T12:35:48Z</time>
      </trkpt>
      <trkpt lat="44.68343" lon="6.16351">
        <ele>1464.2</ele>
        <time>2022-09-18T12:35:49Z</time>
      </trkpt>
      <trkpt lat="44.68344" lon="6.16348">
        <ele>1464.6</ele>
        <time>2022-09-18T12:35:50Z</time>
      </trkpt>
      <trkpt lat="44.68346" lon="6.16345">
        <ele>1465</ele>
        <time>2022-09-18T12:35:51Z</time>
      </trkpt>
      <trkpt lat="44.68347" lon="6.16342">
        <ele>1465.4</ele>
        <time>2022-09-18T12:35:52Z</time>
      </trkpt>
      <trkpt lat="44.68349" lon="6.1634">
        <ele>1465.8</ele>
        <time>2022-09-18T12:35:53Z</time>
      </trkpt>
      <trkpt lat="44.6835" lon="6.16337">
        <ele>1466.2</ele>
        <time>2022-09-18T12:35:54Z</time>
      </trkpt>
      <trkpt lat="44.68351" lon="6.16334">
        <ele>1466.6</ele>
        <time>2022-09-18T12:35:55Z</time>
      </trkpt>
      <trkpt lat="44.68353" lon="6.16332">
        <ele>1467.2</ele>
        <time>2022-09-18T12:35:56Z</time>
      </trkpt>
      <trkpt lat="44.68354" lon="6.16329">
        <ele>1467.4</ele>
        <time>2022-09-18T12:35:57Z</time>
      </trkpt>
      <trkpt lat="44.68356" lon="6.16326">
        <ele>1467.6</ele>
        <time>2022-09-18T12:35:58Z</time>
      </trkpt>
      <trkpt lat="44.68357" lon="6.16324">
        <ele>1467.8</ele>
        <time>2022-09-18T12:35:59Z</time>
      </trkpt>
      <trkpt lat="44.68359" lon="6.16321">
        <ele>1468.4</ele>
        <time>2022-09-18T12:36:00Z</time>
      </trkpt>
      <trkpt lat="44.68361" lon="6.16319">
        <ele>1468.8</ele>
        <time>2022-09-18T12:36:01Z</time>
      </trkpt>
      <trkpt lat="44.68363" lon="6.16317">
        <ele>1469</ele>
        <time>2022-09-18T12:36:02Z</time>
      </trkpt>
      <trkpt lat="44.68364" lon="6.16314">
        <ele>1469.2</ele>
        <time>2022-09-18T12:36:03Z</time>
      </trkpt>
      <trkpt lat="44.68367" lon="6.16311">
        <ele>1469.4</ele>
        <time>2022-09-18T12:36:04Z</time>
      </trkpt>
      <trkpt lat="44.68369" lon="6.16308">
        <ele>1469.6</ele>
        <time>2022-09-18T12:36:05Z</time>
      </trkpt>
      <trkpt lat="44.68371" lon="6.16305">
        <ele>1469.8</ele>
        <time>2022-09-18T12:36:06Z</time>
      </trkpt>
      <trkpt lat="44.68373" lon="6.16303">
        <ele>1470</ele>
        <time>2022-09-18T12:36:07Z</time>
      </trkpt>
      <trkpt lat="44.68375" lon="6.163">
        <ele>1470.4</ele>
        <time>2022-09-18T12:36:08Z</time>
      </trkpt>
      <trkpt lat="44.68377" lon="6.16297">
        <ele>1470.6</ele>
        <time>2022-09-18T12:36:09Z</time>
      </trkpt>
      <trkpt lat="44.68379" lon="6.16294">
        <ele>1471</ele>
        <time>2022-09-18T12:36:10Z</time>
      </trkpt>
      <trkpt lat="44.68381" lon="6.16291">
        <ele>1471.2</ele>
        <time>2022-09-18T12:36:11Z</time>
      </trkpt>
      <trkpt lat="44.68383" lon="6.16288">
        <ele>1471.4</ele>
        <time>2022-09-18T12:36:12Z</time>
      </trkpt>
      <trkpt lat="44.68385" lon="6.16285">
        <ele>1471.6</ele>
        <time>2022-09-18T12:36:13Z</time>
      </trkpt>
      <trkpt lat="44.68387" lon="6.16282">
        <ele>1471.8</ele>
        <time>2022-09-18T12:36:14Z</time>
      </trkpt>
      <trkpt lat="44.6839" lon="6.16279">
        <ele>1472</ele>
        <time>2022-09-18T12:36:15Z</time>
      </trkpt>
      <trkpt lat="44.68392" lon="6.16276">
        <ele>1472.2</ele>
        <time>2022-09-18T12:36:16Z</time>
      </trkpt>
      <trkpt lat="44.68394" lon="6.16273">
        <ele>1472.4</ele>
        <time>2022-09-18T12:36:17Z</time>
      </trkpt>
      <trkpt lat="44.68396" lon="6.16271">
        <ele>1472.6</ele>
        <time>2022-09-18T12:36:18Z</time>
      </trkpt>
      <trkpt lat="44.68398" lon="6.16268">
        <ele>1472.6</ele>
        <time>2022-09-18T12:36:19Z</time>
      </trkpt>
      <trkpt lat="44.68401" lon="6.16265">
        <ele>1472.8</ele>
        <time>2022-09-18T12:36:20Z</time>
      </trkpt>
      <trkpt lat="44.68403" lon="6.16262">
        <ele>1472.8</ele>
        <time>2022-09-18T12:36:21Z</time>
      </trkpt>
      <trkpt lat="44.68405" lon="6.1626">
        <ele>1473</ele>
        <time>2022-09-18T12:36:22Z</time>
      </trkpt>
      <trkpt lat="44.68407" lon="6.16256">
        <ele>1473</ele>
        <time>2022-09-18T12:36:23Z</time>
      </trkpt>
      <trkpt lat="44.68409" lon="6.16253">
        <ele>1473.2</ele>
        <time>2022-09-18T12:36:24Z</time>
      </trkpt>
      <trkpt lat="44.68411" lon="6.1625">
        <ele>1473.4</ele>
        <time>2022-09-18T12:36:25Z</time>
      </trkpt>
      <trkpt lat="44.68413" lon="6.16246">
        <ele>1473.6</ele>
        <time>2022-09-18T12:36:26Z</time>
      </trkpt>
      <trkpt lat="44.68415" lon="6.16242">
        <ele>1473.8</ele>
        <time>2022-09-18T12:36:27Z</time>
      </trkpt>
      <trkpt lat="44.68417" lon="6.16238">
        <ele>1474</ele>
        <time>2022-09-18T12:36:28Z</time>
      </trkpt>
      <trkpt lat="44.68419" lon="6.16234">
        <ele>1474</ele>
        <time>2022-09-18T12:36:29Z</time>
      </trkpt>
      <trkpt lat="44.68421" lon="6.1623">
        <ele>1473.8</ele>
        <time>2022-09-18T12:36:30Z</time>
      </trkpt>
      <trkpt lat="44.68423" lon="6.16225">
        <ele>1473.8</ele>
        <time>2022-09-18T12:36:31Z</time>
      </trkpt>
      <trkpt lat="44.68425" lon="6.16221">
        <ele>1473.8</ele>
        <time>2022-09-18T12:36:32Z</time>
      </trkpt>
      <trkpt lat="44.68427" lon="6.16216">
        <ele>1473.8</ele>
        <time>2022-09-18T12:36:33Z</time>
      </trkpt>
      <trkpt lat="44.68429" lon="6.16212">
        <ele>1473.6</ele>
        <time>2022-09-18T12:36:34Z</time>
      </trkpt>
      <trkpt lat="44.68431" lon="6.16207">
        <ele>1473.6</ele>
        <time>2022-09-18T12:36:35Z</time>
      </trkpt>
      <trkpt lat="44.68433" lon="6.16202">
        <ele>1473.4</ele>
        <time>2022-09-18T12:36:36Z</time>
      </trkpt>
      <trkpt lat="44.68435" lon="6.16197">
        <ele>1473.2</ele>
        <time>2022-09-18T12:36:37Z</time>
      </trkpt>
      <trkpt lat="44.68436" lon="6.16192">
        <ele>1473</ele>
        <time>2022-09-18T12:36:38Z</time>
      </trkpt>
      <trkpt lat="44.68438" lon="6.16186">
        <ele>1472.6</ele>
        <time>2022-09-18T12:36:39Z</time>
      </trkpt>
      <trkpt lat="44.68439" lon="6.16181">
        <ele>1472.4</ele>
        <time>2022-09-18T12:36:40Z</time>
      </trkpt>
      <trkpt lat="44.6844" lon="6.16176">
        <ele>1472</ele>
        <time>2022-09-18T12:36:41Z</time>
      </trkpt>
      <trkpt lat="44.68441" lon="6.1617">
        <ele>1471.6</ele>
        <time>2022-09-18T12:36:42Z</time>
      </trkpt>
      <trkpt lat="44.68442" lon="6.16165">
        <ele>1471.4</ele>
        <time>2022-09-18T12:36:43Z</time>
      </trkpt>
      <trkpt lat="44.68443" lon="6.1616">
        <ele>1471</ele>
        <time>2022-09-18T12:36:44Z</time>
      </trkpt>
      <trkpt lat="44.68443" lon="6.16154">
        <ele>1470.4</ele>
        <time>2022-09-18T12:36:45Z</time>
      </trkpt>
      <trkpt lat="44.68444" lon="6.16149">
        <ele>1470</ele>
        <time>2022-09-18T12:36:46Z</time>
      </trkpt>
      <trkpt lat="44.68444" lon="6.16144">
        <ele>1469.6</ele>
        <time>2022-09-18T12:36:47Z</time>
      </trkpt>
      <trkpt lat="44.68444" lon="6.16138">
        <ele>1469.4</ele>
        <time>2022-09-18T12:36:48Z</time>
      </trkpt>
      <trkpt lat="44.68443" lon="6.16132">
        <ele>1469</ele>
        <time>2022-09-18T12:36:49Z</time>
      </trkpt>
      <trkpt lat="44.68442" lon="6.16127">
        <ele>1468.8</ele>
        <time>2022-09-18T12:36:50Z</time>
      </trkpt>
      <trkpt lat="44.68441" lon="6.16122">
        <ele>1468.4</ele>
        <time>2022-09-18T12:36:51Z</time>
      </trkpt>
      <trkpt lat="44.68439" lon="6.16117">
        <ele>1468.2</ele>
        <time>2022-09-18T12:36:52Z</time>
      </trkpt>
      <trkpt lat="44.68437" lon="6.16112">
        <ele>1468</ele>
        <time>2022-09-18T12:36:53Z</time>
      </trkpt>
      <trkpt lat="44.68435" lon="6.16108">
        <ele>1467.6</ele>
        <time>2022-09-18T12:36:54Z</time>
      </trkpt>
      <trkpt lat="44.68432" lon="6.16105">
        <ele>1467.4</ele>
        <time>2022-09-18T12:36:55Z</time>
      </trkpt>
      <trkpt lat="44.6843" lon="6.16101">
        <ele>1467.2</ele>
        <time>2022-09-18T12:36:56Z</time>
      </trkpt>
      <trkpt lat="44.68427" lon="6.16098">
        <ele>1467</ele>
        <time>2022-09-18T12:36:57Z</time>
      </trkpt>
      <trkpt lat="44.68425" lon="6.16095">
        <ele>1466.8</ele>
        <time>2022-09-18T12:36:58Z</time>
      </trkpt>
      <trkpt lat="44.68422" lon="6.16092">
        <ele>1466.8</ele>
        <time>2022-09-18T12:36:59Z</time>
      </trkpt>
      <trkpt lat="44.68419" lon="6.1609">
        <ele>1466.6</ele>
        <time>2022-09-18T12:37:00Z</time>
      </trkpt>
      <trkpt lat="44.68417" lon="6.16087">
        <ele>1466.2</ele>
        <time>2022-09-18T12:37:01Z</time>
      </trkpt>
      <trkpt lat="44.68414" lon="6.16085">
        <ele>1466</ele>
        <time>2022-09-18T12:37:02Z</time>
      </trkpt>
      <trkpt lat="44.68412" lon="6.16082">
        <ele>1465.8</ele>
        <time>2022-09-18T12:37:03Z</time>
      </trkpt>
      <trkpt lat="44.68409" lon="6.16079">
        <ele>1466</ele>
        <time>2022-09-18T12:37:04Z</time>
      </trkpt>
      <trkpt lat="44.68407" lon="6.16076">
        <ele>1466.2</ele>
        <time>2022-09-18T12:37:05Z</time>
      </trkpt>
      <trkpt lat="44.68405" lon="6.16073">
        <ele>1466.2</ele>
        <time>2022-09-18T12:37:06Z</time>
      </trkpt>
      <trkpt lat="44.68403" lon="6.1607">
        <ele>1466.2</ele>
        <time>2022-09-18T12:37:07Z</time>
      </trkpt>
      <trkpt lat="44.68401" lon="6.16067">
        <ele>1466.2</ele>
        <time>2022-09-18T12:37:08Z</time>
      </trkpt>
      <trkpt lat="44.68399" lon="6.16063">
        <ele>1466.2</ele>
        <time>2022-09-18T12:37:09Z</time>
      </trkpt>
      <trkpt lat="44.68397" lon="6.16059">
        <ele>1466.2</ele>
        <time>2022-09-18T12:37:10Z</time>
      </trkpt>
      <trkpt lat="44.68395" lon="6.16056">
        <ele>1466.2</ele>
        <time>2022-09-18T12:37:11Z</time>
      </trkpt>
      <trkpt lat="44.68393" lon="6.16052">
        <ele>1466</ele>
        <time>2022-09-18T12:37:12Z</time>
      </trkpt>
      <trkpt lat="44.68392" lon="6.16049">
        <ele>1466.2</ele>
        <time>2022-09-18T12:37:13Z</time>
      </trkpt>
      <trkpt lat="44.6839" lon="6.16045">
        <ele>1466.2</ele>
        <time>2022-09-18T12:37:14Z</time>
      </trkpt>
      <trkpt lat="44.68389" lon="6.16041">
        <ele>1466.2</ele>
        <time>2022-09-18T12:37:15Z</time>
      </trkpt>
      <trkpt lat="44.68387" lon="6.16037">
        <ele>1466.2</ele>
        <time>2022-09-18T12:37:16Z</time>
      </trkpt>
      <trkpt lat="44.68386" lon="6.16033">
        <ele>1466.4</ele>
        <time>2022-09-18T12:37:17Z</time>
      </trkpt>
      <trkpt lat="44.68385" lon="6.16029">
        <ele>1466.2</ele>
        <time>2022-09-18T12:37:18Z</time>
      </trkpt>
      <trkpt lat="44.68384" lon="6.16025">
        <ele>1466.2</ele>
        <time>2022-09-18T12:37:19Z</time>
      </trkpt>
      <trkpt lat="44.68383" lon="6.1602">
        <ele>1466.2</ele>
        <time>2022-09-18T12:37:20Z</time>
      </trkpt>
      <trkpt lat="44.68382" lon="6.16016">
        <ele>1465.8</ele>
        <time>2022-09-18T12:37:21Z</time>
      </trkpt>
      <trkpt lat="44.68382" lon="6.16011">
        <ele>1465.8</ele>
        <time>2022-09-18T12:37:22Z</time>
      </trkpt>
      <trkpt lat="44.68382" lon="6.16006">
        <ele>1465.8</ele>
        <time>2022-09-18T12:37:23Z</time>
      </trkpt>
      <trkpt lat="44.68381" lon="6.16002">
        <ele>1465.8</ele>
        <time>2022-09-18T12:37:24Z</time>
      </trkpt>
      <trkpt lat="44.68381" lon="6.15997">
        <ele>1465.6</ele>
        <time>2022-09-18T12:37:25Z</time>
      </trkpt>
      <trkpt lat="44.68381" lon="6.15992">
        <ele>1465.6</ele>
        <time>2022-09-18T12:37:26Z</time>
      </trkpt>
      <trkpt lat="44.68382" lon="6.15987">
        <ele>1465.6</ele>
        <time>2022-09-18T12:37:27Z</time>
      </trkpt>
      <trkpt lat="44.68382" lon="6.15982">
        <ele>1465.6</ele>
        <time>2022-09-18T12:37:28Z</time>
      </trkpt>
      <trkpt lat="44.68382" lon="6.15977">
        <ele>1465.6</ele>
        <time>2022-09-18T12:37:29Z</time>
      </trkpt>
      <trkpt lat="44.68383" lon="6.15972">
        <ele>1465.4</ele>
        <time>2022-09-18T12:37:30Z</time>
      </trkpt>
      <trkpt lat="44.68384" lon="6.15967">
        <ele>1465.4</ele>
        <time>2022-09-18T12:37:31Z</time>
      </trkpt>
      <trkpt lat="44.68385" lon="6.15963">
        <ele>1465.4</ele>
        <time>2022-09-18T12:37:32Z</time>
      </trkpt>
      <trkpt lat="44.68386" lon="6.15958">
        <ele>1465.4</ele>
        <time>2022-09-18T12:37:33Z</time>
      </trkpt>
      <trkpt lat="44.68388" lon="6.15954">
        <ele>1465.4</ele>
        <time>2022-09-18T12:37:34Z</time>
      </trkpt>
      <trkpt lat="44.68389" lon="6.15949">
        <ele>1465.2</ele>
        <time>2022-09-18T12:37:35Z</time>
      </trkpt>
      <trkpt lat="44.68391" lon="6.15945">
        <ele>1465.2</ele>
        <time>2022-09-18T12:37:36Z</time>
      </trkpt>
      <trkpt lat="44.68392" lon="6.15941">
        <ele>1465</ele>
        <time>2022-09-18T12:37:37Z</time>
      </trkpt>
      <trkpt lat="44.68394" lon="6.15937">
        <ele>1465</ele>
        <time>2022-09-18T12:37:38Z</time>
      </trkpt>
      <trkpt lat="44.68396" lon="6.15933">
        <ele>1465.2</ele>
        <time>2022-09-18T12:37:39Z</time>
      </trkpt>
      <trkpt lat="44.68398" lon="6.15929">
        <ele>1465</ele>
        <time>2022-09-18T12:37:40Z</time>
      </trkpt>
      <trkpt lat="44.684" lon="6.15925">
        <ele>1465.2</ele>
        <time>2022-09-18T12:37:41Z</time>
      </trkpt>
      <trkpt lat="44.68402" lon="6.15922">
        <ele>1465.2</ele>
        <time>2022-09-18T12:37:42Z</time>
      </trkpt>
      <trkpt lat="44.68403" lon="6.15918">
        <ele>1465</ele>
        <time>2022-09-18T12:37:43Z</time>
      </trkpt>
      <trkpt lat="44.68405" lon="6.15914">
        <ele>1465</ele>
        <time>2022-09-18T12:37:44Z</time>
      </trkpt>
      <trkpt lat="44.68406" lon="6.1591">
        <ele>1465</ele>
        <time>2022-09-18T12:37:45Z</time>
      </trkpt>
      <trkpt lat="44.68408" lon="6.15906">
        <ele>1465</ele>
        <time>2022-09-18T12:37:46Z</time>
      </trkpt>
      <trkpt lat="44.6841" lon="6.15902">
        <ele>1465.2</ele>
        <time>2022-09-18T12:37:47Z</time>
      </trkpt>
      <trkpt lat="44.68412" lon="6.15899">
        <ele>1465.2</ele>
        <time>2022-09-18T12:37:48Z</time>
      </trkpt>
      <trkpt lat="44.68413" lon="6.15894">
        <ele>1465.4</ele>
        <time>2022-09-18T12:37:49Z</time>
      </trkpt>
      <trkpt lat="44.68415" lon="6.15891">
        <ele>1465.4</ele>
        <time>2022-09-18T12:37:50Z</time>
      </trkpt>
      <trkpt lat="44.68417" lon="6.15886">
        <ele>1465.6</ele>
        <time>2022-09-18T12:37:51Z</time>
      </trkpt>
      <trkpt lat="44.68419" lon="6.15882">
        <ele>1465.8</ele>
        <time>2022-09-18T12:37:52Z</time>
      </trkpt>
      <trkpt lat="44.68421" lon="6.15878">
        <ele>1465.8</ele>
        <time>2022-09-18T12:37:53Z</time>
      </trkpt>
      <trkpt lat="44.68422" lon="6.15873">
        <ele>1466</ele>
        <time>2022-09-18T12:37:54Z</time>
      </trkpt>
      <trkpt lat="44.68424" lon="6.15869">
        <ele>1466</ele>
        <time>2022-09-18T12:37:55Z</time>
      </trkpt>
      <trkpt lat="44.68426" lon="6.15865">
        <ele>1466.2</ele>
        <time>2022-09-18T12:37:56Z</time>
      </trkpt>
      <trkpt lat="44.68428" lon="6.15861">
        <ele>1466.4</ele>
        <time>2022-09-18T12:37:57Z</time>
      </trkpt>
      <trkpt lat="44.68429" lon="6.15857">
        <ele>1466.4</ele>
        <time>2022-09-18T12:37:58Z</time>
      </trkpt>
      <trkpt lat="44.68431" lon="6.15853">
        <ele>1466.4</ele>
        <time>2022-09-18T12:37:59Z</time>
      </trkpt>
      <trkpt lat="44.68433" lon="6.15849">
        <ele>1466.4</ele>
        <time>2022-09-18T12:38:00Z</time>
      </trkpt>
      <trkpt lat="44.68434" lon="6.15846">
        <ele>1466.6</ele>
        <time>2022-09-18T12:38:01Z</time>
      </trkpt>
      <trkpt lat="44.68436" lon="6.15842">
        <ele>1466.8</ele>
        <time>2022-09-18T12:38:02Z</time>
      </trkpt>
      <trkpt lat="44.68438" lon="6.15838">
        <ele>1467</ele>
        <time>2022-09-18T12:38:03Z</time>
      </trkpt>
      <trkpt lat="44.68439" lon="6.15834">
        <ele>1467.2</ele>
        <time>2022-09-18T12:38:04Z</time>
      </trkpt>
      <trkpt lat="44.68441" lon="6.15831">
        <ele>1467.4</ele>
        <time>2022-09-18T12:38:05Z</time>
      </trkpt>
      <trkpt lat="44.68442" lon="6.15827">
        <ele>1467.6</ele>
        <time>2022-09-18T12:38:06Z</time>
      </trkpt>
      <trkpt lat="44.68444" lon="6.15823">
        <ele>1468</ele>
        <time>2022-09-18T12:38:07Z</time>
      </trkpt>
      <trkpt lat="44.68445" lon="6.15819">
        <ele>1468</ele>
        <time>2022-09-18T12:38:08Z</time>
      </trkpt>
      <trkpt lat="44.68447" lon="6.15815">
        <ele>1467.8</ele>
        <time>2022-09-18T12:38:09Z</time>
      </trkpt>
      <trkpt lat="44.68448" lon="6.15812">
        <ele>1468</ele>
        <time>2022-09-18T12:38:10Z</time>
      </trkpt>
      <trkpt lat="44.6845" lon="6.15808">
        <ele>1468.2</ele>
        <time>2022-09-18T12:38:11Z</time>
      </trkpt>
      <trkpt lat="44.68451" lon="6.15804">
        <ele>1468.4</ele>
        <time>2022-09-18T12:38:12Z</time>
      </trkpt>
      <trkpt lat="44.68453" lon="6.158">
        <ele>1468.8</ele>
        <time>2022-09-18T12:38:13Z</time>
      </trkpt>
      <trkpt lat="44.68454" lon="6.15797">
        <ele>1469</ele>
        <time>2022-09-18T12:38:14Z</time>
      </trkpt>
      <trkpt lat="44.68456" lon="6.15793">
        <ele>1469.2</ele>
        <time>2022-09-18T12:38:15Z</time>
      </trkpt>
      <trkpt lat="44.68457" lon="6.15788">
        <ele>1469.6</ele>
        <time>2022-09-18T12:38:16Z</time>
      </trkpt>
      <trkpt lat="44.68458" lon="6.15784">
        <ele>1470</ele>
        <time>2022-09-18T12:38:17Z</time>
      </trkpt>
      <trkpt lat="44.68459" lon="6.1578">
        <ele>1470.6</ele>
        <time>2022-09-18T12:38:18Z</time>
      </trkpt>
      <trkpt lat="44.68459" lon="6.15775">
        <ele>1471</ele>
        <time>2022-09-18T12:38:19Z</time>
      </trkpt>
      <trkpt lat="44.6846" lon="6.1577">
        <ele>1471.2</ele>
        <time>2022-09-18T12:38:20Z</time>
      </trkpt>
      <trkpt lat="44.6846" lon="6.15766">
        <ele>1471.6</ele>
        <time>2022-09-18T12:38:21Z</time>
      </trkpt>
      <trkpt lat="44.6846" lon="6.15761">
        <ele>1472</ele>
        <time>2022-09-18T12:38:22Z</time>
      </trkpt>
      <trkpt lat="44.6846" lon="6.15757">
        <ele>1472.6</ele>
        <time>2022-09-18T12:38:23Z</time>
      </trkpt>
      <trkpt lat="44.6846" lon="6.15752">
        <ele>1472.6</ele>
        <time>2022-09-18T12:38:24Z</time>
      </trkpt>
      <trkpt lat="44.6846" lon="6.15748">
        <ele>1472.6</ele>
        <time>2022-09-18T12:38:25Z</time>
      </trkpt>
      <trkpt lat="44.6846" lon="6.15743">
        <ele>1473</ele>
        <time>2022-09-18T12:38:26Z</time>
      </trkpt>
      <trkpt lat="44.6846" lon="6.15739">
        <ele>1473.2</ele>
        <time>2022-09-18T12:38:27Z</time>
      </trkpt>
      <trkpt lat="44.6846" lon="6.15734">
        <ele>1473.4</ele>
        <time>2022-09-18T12:38:28Z</time>
      </trkpt>
      <trkpt lat="44.68459" lon="6.1573">
        <ele>1473.6</ele>
        <time>2022-09-18T12:38:29Z</time>
      </trkpt>
      <trkpt lat="44.68459" lon="6.15726">
        <ele>1473.6</ele>
        <time>2022-09-18T12:38:30Z</time>
      </trkpt>
      <trkpt lat="44.68458" lon="6.15721">
        <ele>1473.8</ele>
        <time>2022-09-18T12:38:31Z</time>
      </trkpt>
      <trkpt lat="44.68457" lon="6.15717">
        <ele>1474</ele>
        <time>2022-09-18T12:38:32Z</time>
      </trkpt>
      <trkpt lat="44.68457" lon="6.15712">
        <ele>1474.2</ele>
        <time>2022-09-18T12:38:33Z</time>
      </trkpt>
      <trkpt lat="44.68456" lon="6.15708">
        <ele>1474</ele>
        <time>2022-09-18T12:38:34Z</time>
      </trkpt>
      <trkpt lat="44.68455" lon="6.15704">
        <ele>1474</ele>
        <time>2022-09-18T12:38:35Z</time>
      </trkpt>
      <trkpt lat="44.68455" lon="6.15699">
        <ele>1474.2</ele>
        <time>2022-09-18T12:38:36Z</time>
      </trkpt>
      <trkpt lat="44.68454" lon="6.15695">
        <ele>1474.2</ele>
        <time>2022-09-18T12:38:37Z</time>
      </trkpt>
      <trkpt lat="44.68453" lon="6.15691">
        <ele>1474.2</ele>
        <time>2022-09-18T12:38:38Z</time>
      </trkpt>
      <trkpt lat="44.68452" lon="6.15687">
        <ele>1474.2</ele>
        <time>2022-09-18T12:38:39Z</time>
      </trkpt>
      <trkpt lat="44.68452" lon="6.15682">
        <ele>1474.4</ele>
        <time>2022-09-18T12:38:40Z</time>
      </trkpt>
      <trkpt lat="44.68452" lon="6.15678">
        <ele>1474.6</ele>
        <time>2022-09-18T12:38:41Z</time>
      </trkpt>
      <trkpt lat="44.68451" lon="6.15674">
        <ele>1474.8</ele>
        <time>2022-09-18T12:38:42Z</time>
      </trkpt>
      <trkpt lat="44.68451" lon="6.1567">
        <ele>1475</ele>
        <time>2022-09-18T12:38:43Z</time>
      </trkpt>
      <trkpt lat="44.68451" lon="6.15665">
        <ele>1475.2</ele>
        <time>2022-09-18T12:38:44Z</time>
      </trkpt>
      <trkpt lat="44.68451" lon="6.15661">
        <ele>1475.2</ele>
        <time>2022-09-18T12:38:45Z</time>
      </trkpt>
      <trkpt lat="44.68451" lon="6.15656">
        <ele>1475.2</ele>
        <time>2022-09-18T12:38:46Z</time>
      </trkpt>
      <trkpt lat="44.68451" lon="6.15652">
        <ele>1475</ele>
        <time>2022-09-18T12:38:47Z</time>
      </trkpt>
      <trkpt lat="44.68451" lon="6.15647">
        <ele>1475</ele>
        <time>2022-09-18T12:38:48Z</time>
      </trkpt>
      <trkpt lat="44.68452" lon="6.15643">
        <ele>1475</ele>
        <time>2022-09-18T12:38:49Z</time>
      </trkpt>
      <trkpt lat="44.68452" lon="6.15638">
        <ele>1475.2</ele>
        <time>2022-09-18T12:38:50Z</time>
      </trkpt>
      <trkpt lat="44.68453" lon="6.15634">
        <ele>1475.4</ele>
        <time>2022-09-18T12:38:51Z</time>
      </trkpt>
      <trkpt lat="44.68453" lon="6.15629">
        <ele>1475.2</ele>
        <time>2022-09-18T12:38:52Z</time>
      </trkpt>
      <trkpt lat="44.68454" lon="6.15625">
        <ele>1475.2</ele>
        <time>2022-09-18T12:38:53Z</time>
      </trkpt>
      <trkpt lat="44.68455" lon="6.1562">
        <ele>1475.4</ele>
        <time>2022-09-18T12:38:54Z</time>
      </trkpt>
      <trkpt lat="44.68455" lon="6.15615">
        <ele>1475.4</ele>
        <time>2022-09-18T12:38:55Z</time>
      </trkpt>
      <trkpt lat="44.68456" lon="6.1561">
        <ele>1475.6</ele>
        <time>2022-09-18T12:38:56Z</time>
      </trkpt>
      <trkpt lat="44.68457" lon="6.15605">
        <ele>1475.6</ele>
        <time>2022-09-18T12:38:57Z</time>
      </trkpt>
      <trkpt lat="44.68458" lon="6.15601">
        <ele>1475.8</ele>
        <time>2022-09-18T12:38:58Z</time>
      </trkpt>
      <trkpt lat="44.68459" lon="6.15596">
        <ele>1475.8</ele>
        <time>2022-09-18T12:38:59Z</time>
      </trkpt>
      <trkpt lat="44.6846" lon="6.15591">
        <ele>1475.8</ele>
        <time>2022-09-18T12:39:00Z</time>
      </trkpt>
      <trkpt lat="44.68461" lon="6.15586">
        <ele>1475.8</ele>
        <time>2022-09-18T12:39:01Z</time>
      </trkpt>
      <trkpt lat="44.68462" lon="6.15581">
        <ele>1475.8</ele>
        <time>2022-09-18T12:39:02Z</time>
      </trkpt>
      <trkpt lat="44.68463" lon="6.15577">
        <ele>1476</ele>
        <time>2022-09-18T12:39:03Z</time>
      </trkpt>
      <trkpt lat="44.68464" lon="6.15572">
        <ele>1476</ele>
        <time>2022-09-18T12:39:04Z</time>
      </trkpt>
      <trkpt lat="44.68465" lon="6.15567">
        <ele>1476.2</ele>
        <time>2022-09-18T12:39:05Z</time>
      </trkpt>
      <trkpt lat="44.68466" lon="6.15562">
        <ele>1476.2</ele>
        <time>2022-09-18T12:39:06Z</time>
      </trkpt>
      <trkpt lat="44.68467" lon="6.15558">
        <ele>1476</ele>
        <time>2022-09-18T12:39:07Z</time>
      </trkpt>
      <trkpt lat="44.68469" lon="6.15554">
        <ele>1476.4</ele>
        <time>2022-09-18T12:39:08Z</time>
      </trkpt>
      <trkpt lat="44.6847" lon="6.1555">
        <ele>1477</ele>
        <time>2022-09-18T12:39:09Z</time>
      </trkpt>
      <trkpt lat="44.68472" lon="6.15546">
        <ele>1477.4</ele>
        <time>2022-09-18T12:39:10Z</time>
      </trkpt>
      <trkpt lat="44.68473" lon="6.15543">
        <ele>1477.8</ele>
        <time>2022-09-18T12:39:11Z</time>
      </trkpt>
      <trkpt lat="44.68475" lon="6.15539">
        <ele>1478</ele>
        <time>2022-09-18T12:39:12Z</time>
      </trkpt>
      <trkpt lat="44.68476" lon="6.15535">
        <ele>1478.4</ele>
        <time>2022-09-18T12:39:13Z</time>
      </trkpt>
      <trkpt lat="44.68478" lon="6.15532">
        <ele>1478.8</ele>
        <time>2022-09-18T12:39:14Z</time>
      </trkpt>
      <trkpt lat="44.6848" lon="6.15529">
        <ele>1479</ele>
        <time>2022-09-18T12:39:15Z</time>
      </trkpt>
      <trkpt lat="44.68482" lon="6.15526">
        <ele>1479.2</ele>
        <time>2022-09-18T12:39:16Z</time>
      </trkpt>
      <trkpt lat="44.68483" lon="6.15522">
        <ele>1479.6</ele>
        <time>2022-09-18T12:39:17Z</time>
      </trkpt>
      <trkpt lat="44.68485" lon="6.15519">
        <ele>1479.8</ele>
        <time>2022-09-18T12:39:18Z</time>
      </trkpt>
      <trkpt lat="44.68486" lon="6.15516">
        <ele>1480</ele>
        <time>2022-09-18T12:39:19Z</time>
      </trkpt>
      <trkpt lat="44.68488" lon="6.15513">
        <ele>1480.2</ele>
        <time>2022-09-18T12:39:20Z</time>
      </trkpt>
      <trkpt lat="44.68489" lon="6.1551">
        <ele>1480.2</ele>
        <time>2022-09-18T12:39:21Z</time>
      </trkpt>
      <trkpt lat="44.68491" lon="6.15506">
        <ele>1480.4</ele>
        <time>2022-09-18T12:39:22Z</time>
      </trkpt>
      <trkpt lat="44.68492" lon="6.15503">
        <ele>1480.6</ele>
        <time>2022-09-18T12:39:23Z</time>
      </trkpt>
      <trkpt lat="44.68494" lon="6.155">
        <ele>1480.8</ele>
        <time>2022-09-18T12:39:24Z</time>
      </trkpt>
      <trkpt lat="44.68495" lon="6.15497">
        <ele>1480.8</ele>
        <time>2022-09-18T12:39:25Z</time>
      </trkpt>
      <trkpt lat="44.68497" lon="6.15494">
        <ele>1481</ele>
        <time>2022-09-18T12:39:26Z</time>
      </trkpt>
      <trkpt lat="44.68498" lon="6.15491">
        <ele>1481.2</ele>
        <time>2022-09-18T12:39:27Z</time>
      </trkpt>
      <trkpt lat="44.685" lon="6.15488">
        <ele>1481.4</ele>
        <time>2022-09-18T12:39:28Z</time>
      </trkpt>
      <trkpt lat="44.68501" lon="6.15485">
        <ele>1481.6</ele>
        <time>2022-09-18T12:39:29Z</time>
      </trkpt>
      <trkpt lat="44.68503" lon="6.15483">
        <ele>1482</ele>
        <time>2022-09-18T12:39:30Z</time>
      </trkpt>
      <trkpt lat="44.68504" lon="6.1548">
        <ele>1482</ele>
        <time>2022-09-18T12:39:31Z</time>
      </trkpt>
      <trkpt lat="44.68506" lon="6.15477">
        <ele>1482</ele>
        <time>2022-09-18T12:39:32Z</time>
      </trkpt>
      <trkpt lat="44.68507" lon="6.15474">
        <ele>1482.2</ele>
        <time>2022-09-18T12:39:33Z</time>
      </trkpt>
      <trkpt lat="44.68509" lon="6.15472">
        <ele>1482.2</ele>
        <time>2022-09-18T12:39:34Z</time>
      </trkpt>
      <trkpt lat="44.6851" lon="6.15469">
        <ele>1482.4</ele>
        <time>2022-09-18T12:39:35Z</time>
      </trkpt>
      <trkpt lat="44.68512" lon="6.15466">
        <ele>1482.4</ele>
        <time>2022-09-18T12:39:36Z</time>
      </trkpt>
      <trkpt lat="44.68514" lon="6.15463">
        <ele>1482.8</ele>
        <time>2022-09-18T12:39:37Z</time>
      </trkpt>
      <trkpt lat="44.68515" lon="6.1546">
        <ele>1483</ele>
        <time>2022-09-18T12:39:38Z</time>
      </trkpt>
      <trkpt lat="44.68517" lon="6.15457">
        <ele>1483.2</ele>
        <time>2022-09-18T12:39:39Z</time>
      </trkpt>
      <trkpt lat="44.68518" lon="6.15455">
        <ele>1483.6</ele>
        <time>2022-09-18T12:39:40Z</time>
      </trkpt>
      <trkpt lat="44.6852" lon="6.15452">
        <ele>1483.6</ele>
        <time>2022-09-18T12:39:41Z</time>
      </trkpt>
      <trkpt lat="44.68521" lon="6.15449">
        <ele>1483.8</ele>
        <time>2022-09-18T12:39:42Z</time>
      </trkpt>
      <trkpt lat="44.68523" lon="6.15447">
        <ele>1484.2</ele>
        <time>2022-09-18T12:39:43Z</time>
      </trkpt>
      <trkpt lat="44.68525" lon="6.15444">
        <ele>1484.4</ele>
        <time>2022-09-18T12:39:44Z</time>
      </trkpt>
      <trkpt lat="44.68526" lon="6.15442">
        <ele>1484.8</ele>
        <time>2022-09-18T12:39:45Z</time>
      </trkpt>
      <trkpt lat="44.68528" lon="6.15439">
        <ele>1485</ele>
        <time>2022-09-18T12:39:46Z</time>
      </trkpt>
      <trkpt lat="44.6853" lon="6.15437">
        <ele>1485.2</ele>
        <time>2022-09-18T12:39:47Z</time>
      </trkpt>
      <trkpt lat="44.68531" lon="6.15435">
        <ele>1485.2</ele>
        <time>2022-09-18T12:39:48Z</time>
      </trkpt>
      <trkpt lat="44.68533" lon="6.15432">
        <ele>1485.4</ele>
        <time>2022-09-18T12:39:49Z</time>
      </trkpt>
      <trkpt lat="44.68534" lon="6.1543">
        <ele>1485.4</ele>
        <time>2022-09-18T12:39:50Z</time>
      </trkpt>
      <trkpt lat="44.68536" lon="6.15427">
        <ele>1485.8</ele>
        <time>2022-09-18T12:39:51Z</time>
      </trkpt>
      <trkpt lat="44.68537" lon="6.15425">
        <ele>1486</ele>
        <time>2022-09-18T12:39:52Z</time>
      </trkpt>
      <trkpt lat="44.68539" lon="6.15422">
        <ele>1486.2</ele>
        <time>2022-09-18T12:39:53Z</time>
      </trkpt>
      <trkpt lat="44.68541" lon="6.1542">
        <ele>1486.4</ele>
        <time>2022-09-18T12:39:54Z</time>
      </trkpt>
      <trkpt lat="44.68542" lon="6.15417">
        <ele>1487</ele>
        <time>2022-09-18T12:39:55Z</time>
      </trkpt>
      <trkpt lat="44.68544" lon="6.15415">
        <ele>1487.2</ele>
        <time>2022-09-18T12:39:56Z</time>
      </trkpt>
      <trkpt lat="44.68546" lon="6.15413">
        <ele>1487.6</ele>
        <time>2022-09-18T12:39:57Z</time>
      </trkpt>
      <trkpt lat="44.68547" lon="6.15411">
        <ele>1488</ele>
        <time>2022-09-18T12:39:58Z</time>
      </trkpt>
      <trkpt lat="44.68549" lon="6.15409">
        <ele>1488.4</ele>
        <time>2022-09-18T12:39:59Z</time>
      </trkpt>
      <trkpt lat="44.6855" lon="6.15406">
        <ele>1488.4</ele>
        <time>2022-09-18T12:40:00Z</time>
      </trkpt>
      <trkpt lat="44.68552" lon="6.15404">
        <ele>1489</ele>
        <time>2022-09-18T12:40:01Z</time>
      </trkpt>
      <trkpt lat="44.68553" lon="6.15401">
        <ele>1489.4</ele>
        <time>2022-09-18T12:40:02Z</time>
      </trkpt>
      <trkpt lat="44.68554" lon="6.15399">
        <ele>1489.8</ele>
        <time>2022-09-18T12:40:03Z</time>
      </trkpt>
      <trkpt lat="44.68556" lon="6.15396">
        <ele>1490.4</ele>
        <time>2022-09-18T12:40:04Z</time>
      </trkpt>
      <trkpt lat="44.68557" lon="6.15393">
        <ele>1490.8</ele>
        <time>2022-09-18T12:40:05Z</time>
      </trkpt>
      <trkpt lat="44.68558" lon="6.15391">
        <ele>1491.2</ele>
        <time>2022-09-18T12:40:06Z</time>
      </trkpt>
      <trkpt lat="44.6856" lon="6.15388">
        <ele>1491.6</ele>
        <time>2022-09-18T12:40:07Z</time>
      </trkpt>
      <trkpt lat="44.68561" lon="6.15386">
        <ele>1492</ele>
        <time>2022-09-18T12:40:08Z</time>
      </trkpt>
      <trkpt lat="44.68562" lon="6.15383">
        <ele>1492.6</ele>
        <time>2022-09-18T12:40:09Z</time>
      </trkpt>
      <trkpt lat="44.68564" lon="6.15381">
        <ele>1493</ele>
        <time>2022-09-18T12:40:10Z</time>
      </trkpt>
      <trkpt lat="44.68565" lon="6.15378">
        <ele>1493.6</ele>
        <time>2022-09-18T12:40:11Z</time>
      </trkpt>
      <trkpt lat="44.68566" lon="6.15375">
        <ele>1494</ele>
        <time>2022-09-18T12:40:12Z</time>
      </trkpt>
      <trkpt lat="44.68567" lon="6.15372">
        <ele>1494.4</ele>
        <time>2022-09-18T12:40:13Z</time>
      </trkpt>
      <trkpt lat="44.68568" lon="6.15369">
        <ele>1494.8</ele>
        <time>2022-09-18T12:40:14Z</time>
      </trkpt>
      <trkpt lat="44.6857" lon="6.15367">
        <ele>1495.2</ele>
        <time>2022-09-18T12:40:15Z</time>
      </trkpt>
      <trkpt lat="44.68571" lon="6.15364">
        <ele>1495.8</ele>
        <time>2022-09-18T12:40:16Z</time>
      </trkpt>
      <trkpt lat="44.68572" lon="6.15361">
        <ele>1496.2</ele>
        <time>2022-09-18T12:40:17Z</time>
      </trkpt>
      <trkpt lat="44.68573" lon="6.15358">
        <ele>1496.6</ele>
        <time>2022-09-18T12:40:18Z</time>
      </trkpt>
      <trkpt lat="44.68574" lon="6.15356">
        <ele>1497</ele>
        <time>2022-09-18T12:40:19Z</time>
      </trkpt>
      <trkpt lat="44.68576" lon="6.15353">
        <ele>1497.4</ele>
        <time>2022-09-18T12:40:20Z</time>
      </trkpt>
      <trkpt lat="44.68577" lon="6.1535">
        <ele>1497.8</ele>
        <time>2022-09-18T12:40:21Z</time>
      </trkpt>
      <trkpt lat="44.68578" lon="6.15347">
        <ele>1498.2</ele>
        <time>2022-09-18T12:40:22Z</time>
      </trkpt>
      <trkpt lat="44.6858" lon="6.15344">
        <ele>1498.6</ele>
        <time>2022-09-18T12:40:23Z</time>
      </trkpt>
      <trkpt lat="44.68581" lon="6.15341">
        <ele>1499.2</ele>
        <time>2022-09-18T12:40:24Z</time>
      </trkpt>
      <trkpt lat="44.68582" lon="6.15338">
        <ele>1499.6</ele>
        <time>2022-09-18T12:40:25Z</time>
      </trkpt>
      <trkpt lat="44.68583" lon="6.15335">
        <ele>1500.2</ele>
        <time>2022-09-18T12:40:26Z</time>
      </trkpt>
      <trkpt lat="44.68584" lon="6.15332">
        <ele>1500.8</ele>
        <time>2022-09-18T12:40:27Z</time>
      </trkpt>
      <trkpt lat="44.68586" lon="6.1533">
        <ele>1501.4</ele>
        <time>2022-09-18T12:40:28Z</time>
      </trkpt>
      <trkpt lat="44.68587" lon="6.15327">
        <ele>1501.8</ele>
        <time>2022-09-18T12:40:29Z</time>
      </trkpt>
      <trkpt lat="44.68588" lon="6.15324">
        <ele>1502.4</ele>
        <time>2022-09-18T12:40:30Z</time>
      </trkpt>
      <trkpt lat="44.6859" lon="6.15322">
        <ele>1502.8</ele>
        <time>2022-09-18T12:40:31Z</time>
      </trkpt>
      <trkpt lat="44.68591" lon="6.1532">
        <ele>1503.4</ele>
        <time>2022-09-18T12:40:32Z</time>
      </trkpt>
      <trkpt lat="44.68593" lon="6.15318">
        <ele>1504</ele>
        <time>2022-09-18T12:40:33Z</time>
      </trkpt>
      <trkpt lat="44.68595" lon="6.15315">
        <ele>1504.4</ele>
        <time>2022-09-18T12:40:34Z</time>
      </trkpt>
      <trkpt lat="44.68597" lon="6.15314">
        <ele>1505</ele>
        <time>2022-09-18T12:40:35Z</time>
      </trkpt>
      <trkpt lat="44.68599" lon="6.15312">
        <ele>1505.4</ele>
        <time>2022-09-18T12:40:36Z</time>
      </trkpt>
      <trkpt lat="44.68601" lon="6.15311">
        <ele>1506</ele>
        <time>2022-09-18T12:40:37Z</time>
      </trkpt>
      <trkpt lat="44.68603" lon="6.1531">
        <ele>1506.4</ele>
        <time>2022-09-18T12:40:38Z</time>
      </trkpt>
      <trkpt lat="44.68605" lon="6.1531">
        <ele>1507</ele>
        <time>2022-09-18T12:40:39Z</time>
      </trkpt>
      <trkpt lat="44.68607" lon="6.15311">
        <ele>1507.6</ele>
        <time>2022-09-18T12:40:40Z</time>
      </trkpt>
      <trkpt lat="44.6861" lon="6.15313">
        <ele>1508.2</ele>
        <time>2022-09-18T12:40:41Z</time>
      </trkpt>
      <trkpt lat="44.68612" lon="6.15315">
        <ele>1509</ele>
        <time>2022-09-18T12:40:42Z</time>
      </trkpt>
      <trkpt lat="44.68614" lon="6.15317">
        <ele>1509.4</ele>
        <time>2022-09-18T12:40:43Z</time>
      </trkpt>
      <trkpt lat="44.68616" lon="6.1532">
        <ele>1509.4</ele>
        <time>2022-09-18T12:40:44Z</time>
      </trkpt>
      <trkpt lat="44.68617" lon="6.15322">
        <ele>1510.6</ele>
        <time>2022-09-18T12:40:45Z</time>
      </trkpt>
      <trkpt lat="44.68618" lon="6.15325">
        <ele>1511.4</ele>
        <time>2022-09-18T12:40:46Z</time>
      </trkpt>
      <trkpt lat="44.6862" lon="6.15328">
        <ele>1511.8</ele>
        <time>2022-09-18T12:40:47Z</time>
      </trkpt>
      <trkpt lat="44.68621" lon="6.15331">
        <ele>1512.2</ele>
        <time>2022-09-18T12:40:48Z</time>
      </trkpt>
      <trkpt lat="44.68622" lon="6.15334">
        <ele>1512.8</ele>
        <time>2022-09-18T12:40:49Z</time>
      </trkpt>
      <trkpt lat="44.68623" lon="6.15337">
        <ele>1513.2</ele>
        <time>2022-09-18T12:40:50Z</time>
      </trkpt>
      <trkpt lat="44.68624" lon="6.1534">
        <ele>1513.8</ele>
        <time>2022-09-18T12:40:51Z</time>
      </trkpt>
      <trkpt lat="44.68624" lon="6.15343">
        <ele>1514.2</ele>
        <time>2022-09-18T12:40:52Z</time>
      </trkpt>
      <trkpt lat="44.68625" lon="6.15347">
        <ele>1515.2</ele>
        <time>2022-09-18T12:40:54Z</time>
      </trkpt>
      <trkpt lat="44.68625" lon="6.15351">
        <ele>1516.2</ele>
        <time>2022-09-18T12:40:56Z</time>
      </trkpt>
      <trkpt lat="44.68625" lon="6.15355">
        <ele>1516.8</ele>
        <time>2022-09-18T12:40:58Z</time>
      </trkpt>
      <trkpt lat="44.68625" lon="6.15358">
        <ele>1517.4</ele>
        <time>2022-09-18T12:41:00Z</time>
      </trkpt>
      <trkpt lat="44.68625" lon="6.15363">
        <ele>1518</ele>
        <time>2022-09-18T12:41:02Z</time>
      </trkpt>
      <trkpt lat="44.68625" lon="6.15365">
        <ele>1518.2</ele>
        <time>2022-09-18T12:41:03Z</time>
      </trkpt>
      <trkpt lat="44.68626" lon="6.15368">
        <ele>1518.2</ele>
        <time>2022-09-18T12:41:04Z</time>
      </trkpt>
      <trkpt lat="44.68626" lon="6.15371">
        <ele>1518.6</ele>
        <time>2022-09-18T12:41:05Z</time>
      </trkpt>
      <trkpt lat="44.68625" lon="6.15374">
        <ele>1518.8</ele>
        <time>2022-09-18T12:41:06Z</time>
      </trkpt>
      <trkpt lat="44.68625" lon="6.15377">
        <ele>1519.2</ele>
        <time>2022-09-18T12:41:07Z</time>
      </trkpt>
      <trkpt lat="44.68625" lon="6.1538">
        <ele>1519.4</ele>
        <time>2022-09-18T12:41:08Z</time>
      </trkpt>
      <trkpt lat="44.68626" lon="6.15384">
        <ele>1519.6</ele>
        <time>2022-09-18T12:41:09Z</time>
      </trkpt>
      <trkpt lat="44.68626" lon="6.15387">
        <ele>1519.8</ele>
        <time>2022-09-18T12:41:10Z</time>
      </trkpt>
      <trkpt lat="44.68626" lon="6.1539">
        <ele>1520.2</ele>
        <time>2022-09-18T12:41:11Z</time>
      </trkpt>
      <trkpt lat="44.68627" lon="6.15393">
        <ele>1520.2</ele>
        <time>2022-09-18T12:41:12Z</time>
      </trkpt>
      <trkpt lat="44.68627" lon="6.15396">
        <ele>1520.4</ele>
        <time>2022-09-18T12:41:13Z</time>
      </trkpt>
      <trkpt lat="44.68627" lon="6.15399">
        <ele>1521</ele>
        <time>2022-09-18T12:41:14Z</time>
      </trkpt>
      <trkpt lat="44.68627" lon="6.15402">
        <ele>1521.4</ele>
        <time>2022-09-18T12:41:15Z</time>
      </trkpt>
      <trkpt lat="44.68628" lon="6.15405">
        <ele>1521.6</ele>
        <time>2022-09-18T12:41:16Z</time>
      </trkpt>
      <trkpt lat="44.68629" lon="6.15408">
        <ele>1521.8</ele>
        <time>2022-09-18T12:41:17Z</time>
      </trkpt>
      <trkpt lat="44.68631" lon="6.1541">
        <ele>1522.2</ele>
        <time>2022-09-18T12:41:18Z</time>
      </trkpt>
      <trkpt lat="44.68632" lon="6.15413">
        <ele>1522.4</ele>
        <time>2022-09-18T12:41:19Z</time>
      </trkpt>
      <trkpt lat="44.68633" lon="6.15416">
        <ele>1522.6</ele>
        <time>2022-09-18T12:41:20Z</time>
      </trkpt>
      <trkpt lat="44.68634" lon="6.15418">
        <ele>1522.8</ele>
        <time>2022-09-18T12:41:21Z</time>
      </trkpt>
      <trkpt lat="44.68636" lon="6.15421">
        <ele>1523.2</ele>
        <time>2022-09-18T12:41:22Z</time>
      </trkpt>
      <trkpt lat="44.68637" lon="6.15424">
        <ele>1523.4</ele>
        <time>2022-09-18T12:41:23Z</time>
      </trkpt>
      <trkpt lat="44.68639" lon="6.15426">
        <ele>1523.6</ele>
        <time>2022-09-18T12:41:24Z</time>
      </trkpt>
      <trkpt lat="44.68641" lon="6.15428">
        <ele>1523.8</ele>
        <time>2022-09-18T12:41:25Z</time>
      </trkpt>
      <trkpt lat="44.68643" lon="6.1543">
        <ele>1524</ele>
        <time>2022-09-18T12:41:26Z</time>
      </trkpt>
      <trkpt lat="44.68645" lon="6.15432">
        <ele>1524.4</ele>
        <time>2022-09-18T12:41:27Z</time>
      </trkpt>
      <trkpt lat="44.68648" lon="6.15433">
        <ele>1524.6</ele>
        <time>2022-09-18T12:41:28Z</time>
      </trkpt>
      <trkpt lat="44.6865" lon="6.15434">
        <ele>1524.8</ele>
        <time>2022-09-18T12:41:29Z</time>
      </trkpt>
      <trkpt lat="44.68652" lon="6.15436">
        <ele>1525</ele>
        <time>2022-09-18T12:41:30Z</time>
      </trkpt>
      <trkpt lat="44.68654" lon="6.15438">
        <ele>1525.4</ele>
        <time>2022-09-18T12:41:31Z</time>
      </trkpt>
      <trkpt lat="44.68655" lon="6.15439">
        <ele>1525.6</ele>
        <time>2022-09-18T12:41:32Z</time>
      </trkpt>
      <trkpt lat="44.68657" lon="6.1544">
        <ele>1526</ele>
        <time>2022-09-18T12:41:33Z</time>
      </trkpt>
      <trkpt lat="44.6866" lon="6.15442">
        <ele>1526</ele>
        <time>2022-09-18T12:41:34Z</time>
      </trkpt>
      <trkpt lat="44.68662" lon="6.15444">
        <ele>1526.2</ele>
        <time>2022-09-18T12:41:35Z</time>
      </trkpt>
      <trkpt lat="44.68664" lon="6.15447">
        <ele>1526.6</ele>
        <time>2022-09-18T12:41:36Z</time>
      </trkpt>
      <trkpt lat="44.68666" lon="6.15449">
        <ele>1527</ele>
        <time>2022-09-18T12:41:37Z</time>
      </trkpt>
      <trkpt lat="44.68668" lon="6.15451">
        <ele>1527.2</ele>
        <time>2022-09-18T12:41:38Z</time>
      </trkpt>
      <trkpt lat="44.6867" lon="6.15454">
        <ele>1527.2</ele>
        <time>2022-09-18T12:41:39Z</time>
      </trkpt>
      <trkpt lat="44.68671" lon="6.15457">
        <ele>1527.4</ele>
        <time>2022-09-18T12:41:40Z</time>
      </trkpt>
      <trkpt lat="44.68673" lon="6.1546">
        <ele>1527.6</ele>
        <time>2022-09-18T12:41:41Z</time>
      </trkpt>
      <trkpt lat="44.68674" lon="6.15463">
        <ele>1527.6</ele>
        <time>2022-09-18T12:41:42Z</time>
      </trkpt>
      <trkpt lat="44.68676" lon="6.15466">
        <ele>1528</ele>
        <time>2022-09-18T12:41:43Z</time>
      </trkpt>
      <trkpt lat="44.68677" lon="6.15469">
        <ele>1528.2</ele>
        <time>2022-09-18T12:41:44Z</time>
      </trkpt>
      <trkpt lat="44.68678" lon="6.15472">
        <ele>1528.4</ele>
        <time>2022-09-18T12:41:45Z</time>
      </trkpt>
      <trkpt lat="44.68679" lon="6.15476">
        <ele>1528.6</ele>
        <time>2022-09-18T12:41:46Z</time>
      </trkpt>
      <trkpt lat="44.68679" lon="6.15479">
        <ele>1529</ele>
        <time>2022-09-18T12:41:47Z</time>
      </trkpt>
      <trkpt lat="44.6868" lon="6.15483">
        <ele>1529</ele>
        <time>2022-09-18T12:41:48Z</time>
      </trkpt>
      <trkpt lat="44.6868" lon="6.15486">
        <ele>1529.4</ele>
        <time>2022-09-18T12:41:49Z</time>
      </trkpt>
      <trkpt lat="44.68681" lon="6.1549">
        <ele>1529.6</ele>
        <time>2022-09-18T12:41:50Z</time>
      </trkpt>
      <trkpt lat="44.68681" lon="6.15493">
        <ele>1530</ele>
        <time>2022-09-18T12:41:51Z</time>
      </trkpt>
      <trkpt lat="44.68682" lon="6.15496">
        <ele>1530.2</ele>
        <time>2022-09-18T12:41:52Z</time>
      </trkpt>
      <trkpt lat="44.68682" lon="6.155">
        <ele>1530.6</ele>
        <time>2022-09-18T12:41:53Z</time>
      </trkpt>
      <trkpt lat="44.68683" lon="6.15503">
        <ele>1530.6</ele>
        <time>2022-09-18T12:41:54Z</time>
      </trkpt>
      <trkpt lat="44.68684" lon="6.15506">
        <ele>1531</ele>
        <time>2022-09-18T12:41:55Z</time>
      </trkpt>
      <trkpt lat="44.68684" lon="6.1551">
        <ele>1531.4</ele>
        <time>2022-09-18T12:41:56Z</time>
      </trkpt>
      <trkpt lat="44.68685" lon="6.15513">
        <ele>1531.8</ele>
        <time>2022-09-18T12:41:57Z</time>
      </trkpt>
      <trkpt lat="44.68685" lon="6.15517">
        <ele>1532</ele>
        <time>2022-09-18T12:41:58Z</time>
      </trkpt>
      <trkpt lat="44.68686" lon="6.15521">
        <ele>1532.4</ele>
        <time>2022-09-18T12:41:59Z</time>
      </trkpt>
      <trkpt lat="44.68687" lon="6.15524">
        <ele>1532.6</ele>
        <time>2022-09-18T12:42:00Z</time>
      </trkpt>
      <trkpt lat="44.68687" lon="6.15527">
        <ele>1533</ele>
        <time>2022-09-18T12:42:01Z</time>
      </trkpt>
      <trkpt lat="44.68688" lon="6.1553">
        <ele>1533.2</ele>
        <time>2022-09-18T12:42:02Z</time>
      </trkpt>
      <trkpt lat="44.68689" lon="6.15533">
        <ele>1533.6</ele>
        <time>2022-09-18T12:42:03Z</time>
      </trkpt>
      <trkpt lat="44.68689" lon="6.15536">
        <ele>1533.8</ele>
        <time>2022-09-18T12:42:04Z</time>
      </trkpt>
      <trkpt lat="44.6869" lon="6.1554">
        <ele>1534</ele>
        <time>2022-09-18T12:42:05Z</time>
      </trkpt>
      <trkpt lat="44.68691" lon="6.15543">
        <ele>1534.4</ele>
        <time>2022-09-18T12:42:06Z</time>
      </trkpt>
      <trkpt lat="44.68691" lon="6.15546">
        <ele>1534.8</ele>
        <time>2022-09-18T12:42:07Z</time>
      </trkpt>
      <trkpt lat="44.68692" lon="6.15549">
        <ele>1535</ele>
        <time>2022-09-18T12:42:08Z</time>
      </trkpt>
      <trkpt lat="44.68693" lon="6.15552">
        <ele>1535.4</ele>
        <time>2022-09-18T12:42:09Z</time>
      </trkpt>
      <trkpt lat="44.68693" lon="6.15555">
        <ele>1535.8</ele>
        <time>2022-09-18T12:42:10Z</time>
      </trkpt>
      <trkpt lat="44.68694" lon="6.15559">
        <ele>1536</ele>
        <time>2022-09-18T12:42:11Z</time>
      </trkpt>
      <trkpt lat="44.68695" lon="6.15562">
        <ele>1536.6</ele>
        <time>2022-09-18T12:42:12Z</time>
      </trkpt>
      <trkpt lat="44.68696" lon="6.15565">
        <ele>1537.2</ele>
        <time>2022-09-18T12:42:13Z</time>
      </trkpt>
      <trkpt lat="44.68696" lon="6.15569">
        <ele>1537.4</ele>
        <time>2022-09-18T12:42:14Z</time>
      </trkpt>
      <trkpt lat="44.68697" lon="6.15572">
        <ele>1537.8</ele>
        <time>2022-09-18T12:42:15Z</time>
      </trkpt>
      <trkpt lat="44.68698" lon="6.15575">
        <ele>1538</ele>
        <time>2022-09-18T12:42:16Z</time>
      </trkpt>
      <trkpt lat="44.68698" lon="6.15578">
        <ele>1538.2</ele>
        <time>2022-09-18T12:42:17Z</time>
      </trkpt>
      <trkpt lat="44.68699" lon="6.15581">
        <ele>1538.4</ele>
        <time>2022-09-18T12:42:18Z</time>
      </trkpt>
      <trkpt lat="44.687" lon="6.15584">
        <ele>1538.8</ele>
        <time>2022-09-18T12:42:19Z</time>
      </trkpt>
      <trkpt lat="44.68701" lon="6.15588">
        <ele>1539.2</ele>
        <time>2022-09-18T12:42:20Z</time>
      </trkpt>
      <trkpt lat="44.68701" lon="6.15591">
        <ele>1539.4</ele>
        <time>2022-09-18T12:42:21Z</time>
      </trkpt>
      <trkpt lat="44.68702" lon="6.15594">
        <ele>1539.6</ele>
        <time>2022-09-18T12:42:22Z</time>
      </trkpt>
      <trkpt lat="44.68703" lon="6.15597">
        <ele>1540</ele>
        <time>2022-09-18T12:42:23Z</time>
      </trkpt>
      <trkpt lat="44.68703" lon="6.156">
        <ele>1540.2</ele>
        <time>2022-09-18T12:42:24Z</time>
      </trkpt>
      <trkpt lat="44.68703" lon="6.15603">
        <ele>1540.6</ele>
        <time>2022-09-18T12:42:25Z</time>
      </trkpt>
      <trkpt lat="44.68703" lon="6.15606">
        <ele>1540.8</ele>
        <time>2022-09-18T12:42:26Z</time>
      </trkpt>
      <trkpt lat="44.68703" lon="6.15609">
        <ele>1541.2</ele>
        <time>2022-09-18T12:42:27Z</time>
      </trkpt>
      <trkpt lat="44.68703" lon="6.15613">
        <ele>1541.6</ele>
        <time>2022-09-18T12:42:28Z</time>
      </trkpt>
      <trkpt lat="44.68703" lon="6.15616">
        <ele>1542</ele>
        <time>2022-09-18T12:42:29Z</time>
      </trkpt>
      <trkpt lat="44.68703" lon="6.1562">
        <ele>1542.4</ele>
        <time>2022-09-18T12:42:30Z</time>
      </trkpt>
      <trkpt lat="44.68703" lon="6.15623">
        <ele>1542.8</ele>
        <time>2022-09-18T12:42:31Z</time>
      </trkpt>
      <trkpt lat="44.68703" lon="6.15626">
        <ele>1543.2</ele>
        <time>2022-09-18T12:42:32Z</time>
      </trkpt>
      <trkpt lat="44.68702" lon="6.15629">
        <ele>1543.4</ele>
        <time>2022-09-18T12:42:33Z</time>
      </trkpt>
      <trkpt lat="44.68702" lon="6.15633">
        <ele>1543.8</ele>
        <time>2022-09-18T12:42:34Z</time>
      </trkpt>
      <trkpt lat="44.68701" lon="6.15636">
        <ele>1544.4</ele>
        <time>2022-09-18T12:42:35Z</time>
      </trkpt>
      <trkpt lat="44.68701" lon="6.1564">
        <ele>1544.8</ele>
        <time>2022-09-18T12:42:36Z</time>
      </trkpt>
      <trkpt lat="44.68701" lon="6.15643">
        <ele>1545</ele>
        <time>2022-09-18T12:42:37Z</time>
      </trkpt>
      <trkpt lat="44.687" lon="6.15646">
        <ele>1545.4</ele>
        <time>2022-09-18T12:42:38Z</time>
      </trkpt>
      <trkpt lat="44.687" lon="6.15649">
        <ele>1545.8</ele>
        <time>2022-09-18T12:42:39Z</time>
      </trkpt>
      <trkpt lat="44.687" lon="6.15652">
        <ele>1546.2</ele>
        <time>2022-09-18T12:42:40Z</time>
      </trkpt>
      <trkpt lat="44.687" lon="6.15656">
        <ele>1546.8</ele>
        <time>2022-09-18T12:42:41Z</time>
      </trkpt>
      <trkpt lat="44.687" lon="6.15659">
        <ele>1547</ele>
        <time>2022-09-18T12:42:42Z</time>
      </trkpt>
      <trkpt lat="44.687" lon="6.15662">
        <ele>1547.4</ele>
        <time>2022-09-18T12:42:43Z</time>
      </trkpt>
      <trkpt lat="44.687" lon="6.15665">
        <ele>1547.8</ele>
        <time>2022-09-18T12:42:44Z</time>
      </trkpt>
      <trkpt lat="44.687" lon="6.15668">
        <ele>1548</ele>
        <time>2022-09-18T12:42:45Z</time>
      </trkpt>
      <trkpt lat="44.687" lon="6.15672">
        <ele>1548.4</ele>
        <time>2022-09-18T12:42:46Z</time>
      </trkpt>
      <trkpt lat="44.68701" lon="6.15675">
        <ele>1548.6</ele>
        <time>2022-09-18T12:42:47Z</time>
      </trkpt>
      <trkpt lat="44.68702" lon="6.15678">
        <ele>1548.8</ele>
        <time>2022-09-18T12:42:48Z</time>
      </trkpt>
      <trkpt lat="44.68703" lon="6.15681">
        <ele>1549</ele>
        <time>2022-09-18T12:42:49Z</time>
      </trkpt>
      <trkpt lat="44.68704" lon="6.15684">
        <ele>1549.2</ele>
        <time>2022-09-18T12:42:50Z</time>
      </trkpt>
      <trkpt lat="44.68705" lon="6.15687">
        <ele>1549.4</ele>
        <time>2022-09-18T12:42:51Z</time>
      </trkpt>
      <trkpt lat="44.68706" lon="6.1569">
        <ele>1549.6</ele>
        <time>2022-09-18T12:42:52Z</time>
      </trkpt>
      <trkpt lat="44.68707" lon="6.15692">
        <ele>1549.8</ele>
        <time>2022-09-18T12:42:53Z</time>
      </trkpt>
      <trkpt lat="44.68708" lon="6.15695">
        <ele>1550</ele>
        <time>2022-09-18T12:42:54Z</time>
      </trkpt>
      <trkpt lat="44.6871" lon="6.15698">
        <ele>1550</ele>
        <time>2022-09-18T12:42:55Z</time>
      </trkpt>
      <trkpt lat="44.68711" lon="6.157">
        <ele>1550</ele>
        <time>2022-09-18T12:42:56Z</time>
      </trkpt>
      <trkpt lat="44.68713" lon="6.15703">
        <ele>1550.2</ele>
        <time>2022-09-18T12:42:57Z</time>
      </trkpt>
      <trkpt lat="44.68715" lon="6.15705">
        <ele>1550.4</ele>
        <time>2022-09-18T12:42:58Z</time>
      </trkpt>
      <trkpt lat="44.68716" lon="6.15708">
        <ele>1550.6</ele>
        <time>2022-09-18T12:42:59Z</time>
      </trkpt>
      <trkpt lat="44.68718" lon="6.1571">
        <ele>1550.6</ele>
        <time>2022-09-18T12:43:00Z</time>
      </trkpt>
      <trkpt lat="44.68721" lon="6.15712">
        <ele>1550.8</ele>
        <time>2022-09-18T12:43:01Z</time>
      </trkpt>
      <trkpt lat="44.68723" lon="6.15714">
        <ele>1551</ele>
        <time>2022-09-18T12:43:02Z</time>
      </trkpt>
      <trkpt lat="44.68725" lon="6.15716">
        <ele>1551</ele>
        <time>2022-09-18T12:43:03Z</time>
      </trkpt>
      <trkpt lat="44.68727" lon="6.15718">
        <ele>1551.2</ele>
        <time>2022-09-18T12:43:04Z</time>
      </trkpt>
      <trkpt lat="44.68729" lon="6.1572">
        <ele>1551.4</ele>
        <time>2022-09-18T12:43:05Z</time>
      </trkpt>
      <trkpt lat="44.68731" lon="6.15722">
        <ele>1551.4</ele>
        <time>2022-09-18T12:43:06Z</time>
      </trkpt>
      <trkpt lat="44.68734" lon="6.15724">
        <ele>1551.6</ele>
        <time>2022-09-18T12:43:07Z</time>
      </trkpt>
      <trkpt lat="44.68736" lon="6.15726">
        <ele>1551.4</ele>
        <time>2022-09-18T12:43:08Z</time>
      </trkpt>
      <trkpt lat="44.68738" lon="6.15729">
        <ele>1551.8</ele>
        <time>2022-09-18T12:43:09Z</time>
      </trkpt>
      <trkpt lat="44.6874" lon="6.15731">
        <ele>1552</ele>
        <time>2022-09-18T12:43:10Z</time>
      </trkpt>
      <trkpt lat="44.68742" lon="6.15734">
        <ele>1552</ele>
        <time>2022-09-18T12:43:11Z</time>
      </trkpt>
      <trkpt lat="44.68744" lon="6.15736">
        <ele>1552</ele>
        <time>2022-09-18T12:43:12Z</time>
      </trkpt>
      <trkpt lat="44.68745" lon="6.15738">
        <ele>1552.2</ele>
        <time>2022-09-18T12:43:13Z</time>
      </trkpt>
      <trkpt lat="44.68747" lon="6.1574">
        <ele>1552.2</ele>
        <time>2022-09-18T12:43:14Z</time>
      </trkpt>
      <trkpt lat="44.68749" lon="6.15743">
        <ele>1552.2</ele>
        <time>2022-09-18T12:43:15Z</time>
      </trkpt>
      <trkpt lat="44.68751" lon="6.15746">
        <ele>1552.6</ele>
        <time>2022-09-18T12:43:16Z</time>
      </trkpt>
      <trkpt lat="44.68752" lon="6.15748">
        <ele>1552.8</ele>
        <time>2022-09-18T12:43:17Z</time>
      </trkpt>
      <trkpt lat="44.68754" lon="6.15751">
        <ele>1552.8</ele>
        <time>2022-09-18T12:43:18Z</time>
      </trkpt>
      <trkpt lat="44.68756" lon="6.15752">
        <ele>1553.2</ele>
        <time>2022-09-18T12:43:20Z</time>
      </trkpt>
      <trkpt lat="44.68758" lon="6.15749">
        <ele>1553.8</ele>
        <time>2022-09-18T12:43:22Z</time>
      </trkpt>
      <trkpt lat="44.68755" lon="6.15745">
        <ele>1554.2</ele>
        <time>2022-09-18T12:43:24Z</time>
      </trkpt>
      <trkpt lat="44.68753" lon="6.15742">
        <ele>1554.4</ele>
        <time>2022-09-18T12:43:25Z</time>
      </trkpt>
      <trkpt lat="44.6875" lon="6.1574">
        <ele>1554.4</ele>
        <time>2022-09-18T12:43:26Z</time>
      </trkpt>
      <trkpt lat="44.68748" lon="6.15737">
        <ele>1554.6</ele>
        <time>2022-09-18T12:43:27Z</time>
      </trkpt>
      <trkpt lat="44.68745" lon="6.15733">
        <ele>1554.6</ele>
        <time>2022-09-18T12:43:28Z</time>
      </trkpt>
      <trkpt lat="44.68743" lon="6.15729">
        <ele>1554.6</ele>
        <time>2022-09-18T12:43:29Z</time>
      </trkpt>
      <trkpt lat="44.6874" lon="6.15725">
        <ele>1554.8</ele>
        <time>2022-09-18T12:43:30Z</time>
      </trkpt>
      <trkpt lat="44.68737" lon="6.15721">
        <ele>1554.8</ele>
        <time>2022-09-18T12:43:31Z</time>
      </trkpt>
      <trkpt lat="44.68733" lon="6.15718">
        <ele>1554.6</ele>
        <time>2022-09-18T12:43:32Z</time>
      </trkpt>
      <trkpt lat="44.68729" lon="6.15714">
        <ele>1554.4</ele>
        <time>2022-09-18T12:43:33Z</time>
      </trkpt>
      <trkpt lat="44.68725" lon="6.15711">
        <ele>1554.4</ele>
        <time>2022-09-18T12:43:34Z</time>
      </trkpt>
      <trkpt lat="44.68721" lon="6.15707">
        <ele>1554.2</ele>
        <time>2022-09-18T12:43:35Z</time>
      </trkpt>
      <trkpt lat="44.68716" lon="6.15703">
        <ele>1554.2</ele>
        <time>2022-09-18T12:43:36Z</time>
      </trkpt>
      <trkpt lat="44.68712" lon="6.15698">
        <ele>1554</ele>
        <time>2022-09-18T12:43:37Z</time>
      </trkpt>
      <trkpt lat="44.68709" lon="6.15692">
        <ele>1553.6</ele>
        <time>2022-09-18T12:43:38Z</time>
      </trkpt>
      <trkpt lat="44.68705" lon="6.15685">
        <ele>1553.6</ele>
        <time>2022-09-18T12:43:39Z</time>
      </trkpt>
      <trkpt lat="44.68703" lon="6.15678">
        <ele>1553.6</ele>
        <time>2022-09-18T12:43:40Z</time>
      </trkpt>
      <trkpt lat="44.68701" lon="6.1567">
        <ele>1553.2</ele>
        <time>2022-09-18T12:43:41Z</time>
      </trkpt>
      <trkpt lat="44.687" lon="6.15662">
        <ele>1553</ele>
        <time>2022-09-18T12:43:42Z</time>
      </trkpt>
      <trkpt lat="44.687" lon="6.15654">
        <ele>1552.4</ele>
        <time>2022-09-18T12:43:43Z</time>
      </trkpt>
      <trkpt lat="44.68701" lon="6.15645">
        <ele>1552.2</ele>
        <time>2022-09-18T12:43:44Z</time>
      </trkpt>
      <trkpt lat="44.68701" lon="6.15637">
        <ele>1551.8</ele>
        <time>2022-09-18T12:43:45Z</time>
      </trkpt>
      <trkpt lat="44.68702" lon="6.15628">
        <ele>1551.2</ele>
        <time>2022-09-18T12:43:46Z</time>
      </trkpt>
      <trkpt lat="44.68702" lon="6.15619">
        <ele>1550.8</ele>
        <time>2022-09-18T12:43:47Z</time>
      </trkpt>
      <trkpt lat="44.68702" lon="6.15609">
        <ele>1550</ele>
        <time>2022-09-18T12:43:48Z</time>
      </trkpt>
      <trkpt lat="44.68701" lon="6.15599">
        <ele>1549.4</ele>
        <time>2022-09-18T12:43:49Z</time>
      </trkpt>
      <trkpt lat="44.68699" lon="6.15589">
        <ele>1549</ele>
        <time>2022-09-18T12:43:50Z</time>
      </trkpt>
      <trkpt lat="44.68696" lon="6.15578">
        <ele>1548.2</ele>
        <time>2022-09-18T12:43:51Z</time>
      </trkpt>
      <trkpt lat="44.68693" lon="6.15567">
        <ele>1547.8</ele>
        <time>2022-09-18T12:43:52Z</time>
      </trkpt>
      <trkpt lat="44.6869" lon="6.15555">
        <ele>1547.2</ele>
        <time>2022-09-18T12:43:53Z</time>
      </trkpt>
      <trkpt lat="44.68687" lon="6.15544">
        <ele>1546.8</ele>
        <time>2022-09-18T12:43:54Z</time>
      </trkpt>
      <trkpt lat="44.68683" lon="6.15533">
        <ele>1546</ele>
        <time>2022-09-18T12:43:55Z</time>
      </trkpt>
      <trkpt lat="44.6868" lon="6.15523">
        <ele>1545.4</ele>
        <time>2022-09-18T12:43:56Z</time>
      </trkpt>
      <trkpt lat="44.68678" lon="6.15512">
        <ele>1544.6</ele>
        <time>2022-09-18T12:43:57Z</time>
      </trkpt>
      <trkpt lat="44.68675" lon="6.15502">
        <ele>1544</ele>
        <time>2022-09-18T12:43:58Z</time>
      </trkpt>
      <trkpt lat="44.68672" lon="6.15493">
        <ele>1543.2</ele>
        <time>2022-09-18T12:43:59Z</time>
      </trkpt>
      <trkpt lat="44.6867" lon="6.15484">
        <ele>1542.6</ele>
        <time>2022-09-18T12:44:00Z</time>
      </trkpt>
      <trkpt lat="44.68668" lon="6.15476">
        <ele>1542</ele>
        <time>2022-09-18T12:44:01Z</time>
      </trkpt>
      <trkpt lat="44.68666" lon="6.15467">
        <ele>1541.2</ele>
        <time>2022-09-18T12:44:02Z</time>
      </trkpt>
      <trkpt lat="44.68664" lon="6.15459">
        <ele>1540.2</ele>
        <time>2022-09-18T12:44:03Z</time>
      </trkpt>
      <trkpt lat="44.6866" lon="6.15451">
        <ele>1539.4</ele>
        <time>2022-09-18T12:44:04Z</time>
      </trkpt>
      <trkpt lat="44.68657" lon="6.15443">
        <ele>1538.8</ele>
        <time>2022-09-18T12:44:05Z</time>
      </trkpt>
      <trkpt lat="44.68649" lon="6.15431">
        <ele>1537.6</ele>
        <time>2022-09-18T12:44:07Z</time>
      </trkpt>
      <trkpt lat="44.68639" lon="6.1542">
        <ele>1536.6</ele>
        <time>2022-09-18T12:44:09Z</time>
      </trkpt>
      <trkpt lat="44.68634" lon="6.15416">
        <ele>1535.8</ele>
        <time>2022-09-18T12:44:10Z</time>
      </trkpt>
      <trkpt lat="44.68629" lon="6.1541">
        <ele>1535.2</ele>
        <time>2022-09-18T12:44:11Z</time>
      </trkpt>
      <trkpt lat="44.68625" lon="6.15403">
        <ele>1534.4</ele>
        <time>2022-09-18T12:44:12Z</time>
      </trkpt>
      <trkpt lat="44.68622" lon="6.15395">
        <ele>1534</ele>
        <time>2022-09-18T12:44:13Z</time>
      </trkpt>
      <trkpt lat="44.68621" lon="6.15387">
        <ele>1533.2</ele>
        <time>2022-09-18T12:44:14Z</time>
      </trkpt>
      <trkpt lat="44.68621" lon="6.15378">
        <ele>1532.8</ele>
        <time>2022-09-18T12:44:15Z</time>
      </trkpt>
      <trkpt lat="44.68621" lon="6.1537">
        <ele>1532.2</ele>
        <time>2022-09-18T12:44:16Z</time>
      </trkpt>
      <trkpt lat="44.68623" lon="6.15363">
        <ele>1531.6</ele>
        <time>2022-09-18T12:44:17Z</time>
      </trkpt>
      <trkpt lat="44.68625" lon="6.15356">
        <ele>1530.8</ele>
        <time>2022-09-18T12:44:18Z</time>
      </trkpt>
      <trkpt lat="44.68627" lon="6.15351">
        <ele>1530.2</ele>
        <time>2022-09-18T12:44:19Z</time>
      </trkpt>
      <trkpt lat="44.68629" lon="6.15347">
        <ele>1529.4</ele>
        <time>2022-09-18T12:44:20Z</time>
      </trkpt>
      <trkpt lat="44.68631" lon="6.15343">
        <ele>1529</ele>
        <time>2022-09-18T12:44:21Z</time>
      </trkpt>
      <trkpt lat="44.68632" lon="6.1534">
        <ele>1528.6</ele>
        <time>2022-09-18T12:44:22Z</time>
      </trkpt>
      <trkpt lat="44.68632" lon="6.15337">
        <ele>1528.2</ele>
        <time>2022-09-18T12:44:24Z</time>
      </trkpt>
      <trkpt lat="44.68633" lon="6.15339">
        <ele>1493.8</ele>
        <time>2022-09-18T12:47:59Z</time>
      </trkpt>
      <trkpt lat="44.68634" lon="6.15335">
        <ele>1500</ele>
        <time>2022-09-18T12:49:13Z</time>
      </trkpt>
      <trkpt lat="44.68635" lon="6.1533">
        <ele>1500</ele>
        <time>2022-09-18T12:49:15Z</time>
      </trkpt>
      <trkpt lat="44.68636" lon="6.15327">
        <ele>1500.2</ele>
        <time>2022-09-18T12:49:16Z</time>
      </trkpt>
      <trkpt lat="44.68638" lon="6.15324">
        <ele>1500.4</ele>
        <time>2022-09-18T12:49:17Z</time>
      </trkpt>
      <trkpt lat="44.68639" lon="6.15321">
        <ele>1500.4</ele>
        <time>2022-09-18T12:49:18Z</time>
      </trkpt>
      <trkpt lat="44.6864" lon="6.15318">
        <ele>1500.6</ele>
        <time>2022-09-18T12:49:19Z</time>
      </trkpt>
      <trkpt lat="44.68642" lon="6.15316">
        <ele>1500.8</ele>
        <time>2022-09-18T12:49:20Z</time>
      </trkpt>
      <trkpt lat="44.68644" lon="6.15314">
        <ele>1500.8</ele>
        <time>2022-09-18T12:49:21Z</time>
      </trkpt>
      <trkpt lat="44.68645" lon="6.15311">
        <ele>1501</ele>
        <time>2022-09-18T12:49:22Z</time>
      </trkpt>
      <trkpt lat="44.68646" lon="6.15309">
        <ele>1501.6</ele>
        <time>2022-09-18T12:49:23Z</time>
      </trkpt>
      <trkpt lat="44.68648" lon="6.15306">
        <ele>1501.6</ele>
        <time>2022-09-18T12:49:24Z</time>
      </trkpt>
      <trkpt lat="44.68649" lon="6.15303">
        <ele>1501.6</ele>
        <time>2022-09-18T12:49:25Z</time>
      </trkpt>
      <trkpt lat="44.68651" lon="6.153">
        <ele>1502.2</ele>
        <time>2022-09-18T12:49:26Z</time>
      </trkpt>
      <trkpt lat="44.68652" lon="6.15297">
        <ele>1502.2</ele>
        <time>2022-09-18T12:49:27Z</time>
      </trkpt>
      <trkpt lat="44.68654" lon="6.15294">
        <ele>1502</ele>
        <time>2022-09-18T12:49:28Z</time>
      </trkpt>
      <trkpt lat="44.68656" lon="6.15291">
        <ele>1502.2</ele>
        <time>2022-09-18T12:49:29Z</time>
      </trkpt>
      <trkpt lat="44.68657" lon="6.15288">
        <ele>1502</ele>
        <time>2022-09-18T12:49:30Z</time>
      </trkpt>
      <trkpt lat="44.68659" lon="6.15286">
        <ele>1502.4</ele>
        <time>2022-09-18T12:49:31Z</time>
      </trkpt>
      <trkpt lat="44.6866" lon="6.15283">
        <ele>1502.6</ele>
        <time>2022-09-18T12:49:32Z</time>
      </trkpt>
      <trkpt lat="44.68662" lon="6.15281">
        <ele>1502.4</ele>
        <time>2022-09-18T12:49:33Z</time>
      </trkpt>
      <trkpt lat="44.68664" lon="6.15278">
        <ele>1502.6</ele>
        <time>2022-09-18T12:49:34Z</time>
      </trkpt>
      <trkpt lat="44.68666" lon="6.15276">
        <ele>1502.8</ele>
        <time>2022-09-18T12:49:35Z</time>
      </trkpt>
      <trkpt lat="44.68668" lon="6.15274">
        <ele>1503</ele>
        <time>2022-09-18T12:49:36Z</time>
      </trkpt>
      <trkpt lat="44.6867" lon="6.15271">
        <ele>1502.8</ele>
        <time>2022-09-18T12:49:37Z</time>
      </trkpt>
      <trkpt lat="44.68672" lon="6.15269">
        <ele>1503.4</ele>
        <time>2022-09-18T12:49:38Z</time>
      </trkpt>
      <trkpt lat="44.68674" lon="6.15267">
        <ele>1503.4</ele>
        <time>2022-09-18T12:49:39Z</time>
      </trkpt>
      <trkpt lat="44.68676" lon="6.15265">
        <ele>1503.6</ele>
        <time>2022-09-18T12:49:40Z</time>
      </trkpt>
      <trkpt lat="44.68678" lon="6.15262">
        <ele>1503.6</ele>
        <time>2022-09-18T12:49:41Z</time>
      </trkpt>
      <trkpt lat="44.6868" lon="6.1526">
        <ele>1503.6</ele>
        <time>2022-09-18T12:49:42Z</time>
      </trkpt>
      <trkpt lat="44.68682" lon="6.15258">
        <ele>1503.4</ele>
        <time>2022-09-18T12:49:43Z</time>
      </trkpt>
      <trkpt lat="44.68684" lon="6.15255">
        <ele>1503.6</ele>
        <time>2022-09-18T12:49:44Z</time>
      </trkpt>
      <trkpt lat="44.68687" lon="6.15253">
        <ele>1503.6</ele>
        <time>2022-09-18T12:49:45Z</time>
      </trkpt>
      <trkpt lat="44.68689" lon="6.15251">
        <ele>1503.6</ele>
        <time>2022-09-18T12:49:46Z</time>
      </trkpt>
      <trkpt lat="44.68691" lon="6.15249">
        <ele>1503.4</ele>
        <time>2022-09-18T12:49:47Z</time>
      </trkpt>
      <trkpt lat="44.68693" lon="6.15247">
        <ele>1503.4</ele>
        <time>2022-09-18T12:49:48Z</time>
      </trkpt>
      <trkpt lat="44.68695" lon="6.15245">
        <ele>1503.4</ele>
        <time>2022-09-18T12:49:49Z</time>
      </trkpt>
      <trkpt lat="44.68698" lon="6.15243">
        <ele>1503.2</ele>
        <time>2022-09-18T12:49:50Z</time>
      </trkpt>
      <trkpt lat="44.687" lon="6.15242">
        <ele>1503.4</ele>
        <time>2022-09-18T12:49:51Z</time>
      </trkpt>
      <trkpt lat="44.68702" lon="6.15241">
        <ele>1503.4</ele>
        <time>2022-09-18T12:49:52Z</time>
      </trkpt>
      <trkpt lat="44.68704" lon="6.15239">
        <ele>1503.4</ele>
        <time>2022-09-18T12:49:53Z</time>
      </trkpt>
      <trkpt lat="44.68706" lon="6.15238">
        <ele>1503.8</ele>
        <time>2022-09-18T12:49:54Z</time>
      </trkpt>
      <trkpt lat="44.68708" lon="6.15236">
        <ele>1503.8</ele>
        <time>2022-09-18T12:49:55Z</time>
      </trkpt>
      <trkpt lat="44.68709" lon="6.15234">
        <ele>1503.8</ele>
        <time>2022-09-18T12:49:56Z</time>
      </trkpt>
      <trkpt lat="44.68711" lon="6.15232">
        <ele>1504</ele>
        <time>2022-09-18T12:49:57Z</time>
      </trkpt>
      <trkpt lat="44.68712" lon="6.1523">
        <ele>1504.6</ele>
        <time>2022-09-18T12:49:58Z</time>
      </trkpt>
      <trkpt lat="44.68714" lon="6.15228">
        <ele>1504.8</ele>
        <time>2022-09-18T12:49:59Z</time>
      </trkpt>
      <trkpt lat="44.68716" lon="6.15226">
        <ele>1504.8</ele>
        <time>2022-09-18T12:50:00Z</time>
      </trkpt>
      <trkpt lat="44.68718" lon="6.15224">
        <ele>1505.2</ele>
        <time>2022-09-18T12:50:01Z</time>
      </trkpt>
      <trkpt lat="44.68719" lon="6.15222">
        <ele>1505.4</ele>
        <time>2022-09-18T12:50:02Z</time>
      </trkpt>
      <trkpt lat="44.68721" lon="6.1522">
        <ele>1505.6</ele>
        <time>2022-09-18T12:50:03Z</time>
      </trkpt>
      <trkpt lat="44.68723" lon="6.15218">
        <ele>1505.8</ele>
        <time>2022-09-18T12:50:04Z</time>
      </trkpt>
      <trkpt lat="44.68725" lon="6.15216">
        <ele>1506</ele>
        <time>2022-09-18T12:50:05Z</time>
      </trkpt>
      <trkpt lat="44.68727" lon="6.15214">
        <ele>1506.4</ele>
        <time>2022-09-18T12:50:06Z</time>
      </trkpt>
      <trkpt lat="44.68729" lon="6.15212">
        <ele>1506.6</ele>
        <time>2022-09-18T12:50:07Z</time>
      </trkpt>
      <trkpt lat="44.6873" lon="6.1521">
        <ele>1506.8</ele>
        <time>2022-09-18T12:50:08Z</time>
      </trkpt>
      <trkpt lat="44.68732" lon="6.15208">
        <ele>1506.8</ele>
        <time>2022-09-18T12:50:09Z</time>
      </trkpt>
      <trkpt lat="44.68734" lon="6.15206">
        <ele>1507</ele>
        <time>2022-09-18T12:50:10Z</time>
      </trkpt>
      <trkpt lat="44.68736" lon="6.15204">
        <ele>1507.4</ele>
        <time>2022-09-18T12:50:11Z</time>
      </trkpt>
      <trkpt lat="44.68738" lon="6.15202">
        <ele>1507.6</ele>
        <time>2022-09-18T12:50:12Z</time>
      </trkpt>
      <trkpt lat="44.6874" lon="6.152">
        <ele>1508</ele>
        <time>2022-09-18T12:50:13Z</time>
      </trkpt>
      <trkpt lat="44.68741" lon="6.15198">
        <ele>1508.4</ele>
        <time>2022-09-18T12:50:14Z</time>
      </trkpt>
      <trkpt lat="44.68743" lon="6.15196">
        <ele>1508.8</ele>
        <time>2022-09-18T12:50:15Z</time>
      </trkpt>
      <trkpt lat="44.68745" lon="6.15194">
        <ele>1509.2</ele>
        <time>2022-09-18T12:50:16Z</time>
      </trkpt>
      <trkpt lat="44.68747" lon="6.15192">
        <ele>1509.4</ele>
        <time>2022-09-18T12:50:17Z</time>
      </trkpt>
      <trkpt lat="44.68748" lon="6.1519">
        <ele>1510</ele>
        <time>2022-09-18T12:50:18Z</time>
      </trkpt>
      <trkpt lat="44.6875" lon="6.15188">
        <ele>1510.4</ele>
        <time>2022-09-18T12:50:19Z</time>
      </trkpt>
      <trkpt lat="44.68752" lon="6.15186">
        <ele>1510.8</ele>
        <time>2022-09-18T12:50:20Z</time>
      </trkpt>
      <trkpt lat="44.68753" lon="6.15183">
        <ele>1511</ele>
        <time>2022-09-18T12:50:21Z</time>
      </trkpt>
      <trkpt lat="44.68755" lon="6.15181">
        <ele>1511.4</ele>
        <time>2022-09-18T12:50:22Z</time>
      </trkpt>
      <trkpt lat="44.68757" lon="6.15179">
        <ele>1511.8</ele>
        <time>2022-09-18T12:50:23Z</time>
      </trkpt>
      <trkpt lat="44.68758" lon="6.15177">
        <ele>1512.2</ele>
        <time>2022-09-18T12:50:24Z</time>
      </trkpt>
      <trkpt lat="44.6876" lon="6.15174">
        <ele>1512.6</ele>
        <time>2022-09-18T12:50:25Z</time>
      </trkpt>
      <trkpt lat="44.68762" lon="6.15172">
        <ele>1512.8</ele>
        <time>2022-09-18T12:50:26Z</time>
      </trkpt>
      <trkpt lat="44.68764" lon="6.1517">
        <ele>1513.2</ele>
        <time>2022-09-18T12:50:27Z</time>
      </trkpt>
      <trkpt lat="44.68765" lon="6.15167">
        <ele>1513.6</ele>
        <time>2022-09-18T12:50:28Z</time>
      </trkpt>
      <trkpt lat="44.68767" lon="6.15165">
        <ele>1514.2</ele>
        <time>2022-09-18T12:50:29Z</time>
      </trkpt>
      <trkpt lat="44.68769" lon="6.15162">
        <ele>1514.8</ele>
        <time>2022-09-18T12:50:30Z</time>
      </trkpt>
      <trkpt lat="44.68771" lon="6.1516">
        <ele>1515.4</ele>
        <time>2022-09-18T12:50:31Z</time>
      </trkpt>
      <trkpt lat="44.68773" lon="6.15158">
        <ele>1515.8</ele>
        <time>2022-09-18T12:50:32Z</time>
      </trkpt>
      <trkpt lat="44.68775" lon="6.15156">
        <ele>1516.2</ele>
        <time>2022-09-18T12:50:33Z</time>
      </trkpt>
      <trkpt lat="44.68777" lon="6.15155">
        <ele>1516.6</ele>
        <time>2022-09-18T12:50:34Z</time>
      </trkpt>
      <trkpt lat="44.68779" lon="6.15153">
        <ele>1517</ele>
        <time>2022-09-18T12:50:35Z</time>
      </trkpt>
      <trkpt lat="44.6878" lon="6.15151">
        <ele>1517.4</ele>
        <time>2022-09-18T12:50:36Z</time>
      </trkpt>
      <trkpt lat="44.68782" lon="6.15149">
        <ele>1518</ele>
        <time>2022-09-18T12:50:37Z</time>
      </trkpt>
      <trkpt lat="44.68784" lon="6.15147">
        <ele>1518.4</ele>
        <time>2022-09-18T12:50:38Z</time>
      </trkpt>
      <trkpt lat="44.68786" lon="6.15145">
        <ele>1518.6</ele>
        <time>2022-09-18T12:50:39Z</time>
      </trkpt>
      <trkpt lat="44.68788" lon="6.15143">
        <ele>1519.4</ele>
        <time>2022-09-18T12:50:40Z</time>
      </trkpt>
      <trkpt lat="44.68789" lon="6.15141">
        <ele>1520</ele>
        <time>2022-09-18T12:50:41Z</time>
      </trkpt>
      <trkpt lat="44.68791" lon="6.15139">
        <ele>1520.6</ele>
        <time>2022-09-18T12:50:42Z</time>
      </trkpt>
      <trkpt lat="44.68793" lon="6.15136">
        <ele>1520.8</ele>
        <time>2022-09-18T12:50:43Z</time>
      </trkpt>
      <trkpt lat="44.68794" lon="6.15134">
        <ele>1521.4</ele>
        <time>2022-09-18T12:50:44Z</time>
      </trkpt>
      <trkpt lat="44.68796" lon="6.15132">
        <ele>1521.4</ele>
        <time>2022-09-18T12:50:45Z</time>
      </trkpt>
      <trkpt lat="44.68798" lon="6.1513">
        <ele>1522.4</ele>
        <time>2022-09-18T12:50:46Z</time>
      </trkpt>
      <trkpt lat="44.68799" lon="6.15128">
        <ele>1522.8</ele>
        <time>2022-09-18T12:50:47Z</time>
      </trkpt>
      <trkpt lat="44.68801" lon="6.15126">
        <ele>1523.2</ele>
        <time>2022-09-18T12:50:48Z</time>
      </trkpt>
      <trkpt lat="44.68803" lon="6.15124">
        <ele>1523.8</ele>
        <time>2022-09-18T12:50:49Z</time>
      </trkpt>
      <trkpt lat="44.68804" lon="6.15122">
        <ele>1524.2</ele>
        <time>2022-09-18T12:50:50Z</time>
      </trkpt>
      <trkpt lat="44.68806" lon="6.1512">
        <ele>1524.6</ele>
        <time>2022-09-18T12:50:51Z</time>
      </trkpt>
      <trkpt lat="44.68807" lon="6.15118">
        <ele>1525</ele>
        <time>2022-09-18T12:50:52Z</time>
      </trkpt>
      <trkpt lat="44.68809" lon="6.15116">
        <ele>1525.6</ele>
        <time>2022-09-18T12:50:53Z</time>
      </trkpt>
      <trkpt lat="44.68811" lon="6.15114">
        <ele>1526</ele>
        <time>2022-09-18T12:50:54Z</time>
      </trkpt>
      <trkpt lat="44.68813" lon="6.15111">
        <ele>1526.4</ele>
        <time>2022-09-18T12:50:55Z</time>
      </trkpt>
      <trkpt lat="44.68814" lon="6.15109">
        <ele>1526.8</ele>
        <time>2022-09-18T12:50:56Z</time>
      </trkpt>
      <trkpt lat="44.68816" lon="6.15107">
        <ele>1527.4</ele>
        <time>2022-09-18T12:50:57Z</time>
      </trkpt>
      <trkpt lat="44.68818" lon="6.15105">
        <ele>1528</ele>
        <time>2022-09-18T12:50:58Z</time>
      </trkpt>
      <trkpt lat="44.6882" lon="6.15103">
        <ele>1528.4</ele>
        <time>2022-09-18T12:50:59Z</time>
      </trkpt>
      <trkpt lat="44.68822" lon="6.15101">
        <ele>1528.8</ele>
        <time>2022-09-18T12:51:00Z</time>
      </trkpt>
      <trkpt lat="44.68823" lon="6.15099">
        <ele>1529.4</ele>
        <time>2022-09-18T12:51:01Z</time>
      </trkpt>
      <trkpt lat="44.68825" lon="6.15097">
        <ele>1529.8</ele>
        <time>2022-09-18T12:51:02Z</time>
      </trkpt>
      <trkpt lat="44.68827" lon="6.15094">
        <ele>1530.2</ele>
        <time>2022-09-18T12:51:03Z</time>
      </trkpt>
      <trkpt lat="44.68829" lon="6.15092">
        <ele>1530.6</ele>
        <time>2022-09-18T12:51:04Z</time>
      </trkpt>
      <trkpt lat="44.68831" lon="6.1509">
        <ele>1531.2</ele>
        <time>2022-09-18T12:51:05Z</time>
      </trkpt>
      <trkpt lat="44.68833" lon="6.15087">
        <ele>1531.6</ele>
        <time>2022-09-18T12:51:06Z</time>
      </trkpt>
      <trkpt lat="44.68835" lon="6.15085">
        <ele>1532.2</ele>
        <time>2022-09-18T12:51:07Z</time>
      </trkpt>
      <trkpt lat="44.68837" lon="6.15082">
        <ele>1532.8</ele>
        <time>2022-09-18T12:51:08Z</time>
      </trkpt>
      <trkpt lat="44.68839" lon="6.1508">
        <ele>1533.2</ele>
        <time>2022-09-18T12:51:09Z</time>
      </trkpt>
      <trkpt lat="44.68841" lon="6.15077">
        <ele>1533.8</ele>
        <time>2022-09-18T12:51:10Z</time>
      </trkpt>
      <trkpt lat="44.68842" lon="6.15073">
        <ele>1534.2</ele>
        <time>2022-09-18T12:51:11Z</time>
      </trkpt>
      <trkpt lat="44.68844" lon="6.1507">
        <ele>1534.6</ele>
        <time>2022-09-18T12:51:12Z</time>
      </trkpt>
      <trkpt lat="44.68846" lon="6.15067">
        <ele>1534.8</ele>
        <time>2022-09-18T12:51:13Z</time>
      </trkpt>
      <trkpt lat="44.68847" lon="6.15064">
        <ele>1535.2</ele>
        <time>2022-09-18T12:51:14Z</time>
      </trkpt>
      <trkpt lat="44.68848" lon="6.15061">
        <ele>1535.4</ele>
        <time>2022-09-18T12:51:15Z</time>
      </trkpt>
      <trkpt lat="44.68849" lon="6.15058">
        <ele>1536</ele>
        <time>2022-09-18T12:51:17Z</time>
      </trkpt>
      <trkpt lat="44.68848" lon="6.15056">
        <ele>1536.2</ele>
        <time>2022-09-18T12:52:37Z</time>
      </trkpt>
      <trkpt lat="44.68846" lon="6.15053">
        <ele>1535.2</ele>
        <time>2022-09-18T12:53:15Z</time>
      </trkpt>
      <trkpt lat="44.68845" lon="6.1505">
        <ele>1535.2</ele>
        <time>2022-09-18T12:53:16Z</time>
      </trkpt>
      <trkpt lat="44.68845" lon="6.15047">
        <ele>1535</ele>
        <time>2022-09-18T12:53:17Z</time>
      </trkpt>
      <trkpt lat="44.68844" lon="6.15044">
        <ele>1535</ele>
        <time>2022-09-18T12:53:18Z</time>
      </trkpt>
      <trkpt lat="44.68844" lon="6.15041">
        <ele>1534.8</ele>
        <time>2022-09-18T12:53:19Z</time>
      </trkpt>
      <trkpt lat="44.68843" lon="6.15038">
        <ele>1534.8</ele>
        <time>2022-09-18T12:53:20Z</time>
      </trkpt>
      <trkpt lat="44.68841" lon="6.15034">
        <ele>1534.6</ele>
        <time>2022-09-18T12:53:21Z</time>
      </trkpt>
      <trkpt lat="44.6884" lon="6.1503">
        <ele>1534.4</ele>
        <time>2022-09-18T12:53:22Z</time>
      </trkpt>
      <trkpt lat="44.68839" lon="6.15025">
        <ele>1534.2</ele>
        <time>2022-09-18T12:53:23Z</time>
      </trkpt>
      <trkpt lat="44.68837" lon="6.1502">
        <ele>1534.2</ele>
        <time>2022-09-18T12:53:24Z</time>
      </trkpt>
      <trkpt lat="44.68836" lon="6.15014">
        <ele>1534</ele>
        <time>2022-09-18T12:53:25Z</time>
      </trkpt>
      <trkpt lat="44.68833" lon="6.15007">
        <ele>1533.8</ele>
        <time>2022-09-18T12:53:26Z</time>
      </trkpt>
      <trkpt lat="44.68831" lon="6.15">
        <ele>1533.4</ele>
        <time>2022-09-18T12:53:27Z</time>
      </trkpt>
      <trkpt lat="44.68828" lon="6.14993">
        <ele>1533</ele>
        <time>2022-09-18T12:53:28Z</time>
      </trkpt>
      <trkpt lat="44.68825" lon="6.14984">
        <ele>1532.8</ele>
        <time>2022-09-18T12:53:29Z</time>
      </trkpt>
      <trkpt lat="44.68823" lon="6.14975">
        <ele>1532.4</ele>
        <time>2022-09-18T12:53:30Z</time>
      </trkpt>
      <trkpt lat="44.68821" lon="6.14965">
        <ele>1532</ele>
        <time>2022-09-18T12:53:31Z</time>
      </trkpt>
      <trkpt lat="44.68818" lon="6.14956">
        <ele>1531.8</ele>
        <time>2022-09-18T12:53:32Z</time>
      </trkpt>
      <trkpt lat="44.68816" lon="6.14946">
        <ele>1531.6</ele>
        <time>2022-09-18T12:53:33Z</time>
      </trkpt>
      <trkpt lat="44.68814" lon="6.14936">
        <ele>1531.2</ele>
        <time>2022-09-18T12:53:34Z</time>
      </trkpt>
      <trkpt lat="44.68812" lon="6.14926">
        <ele>1531</ele>
        <time>2022-09-18T12:53:35Z</time>
      </trkpt>
      <trkpt lat="44.6881" lon="6.14916">
        <ele>1530.4</ele>
        <time>2022-09-18T12:53:36Z</time>
      </trkpt>
      <trkpt lat="44.68809" lon="6.14906">
        <ele>1530</ele>
        <time>2022-09-18T12:53:37Z</time>
      </trkpt>
      <trkpt lat="44.68808" lon="6.14896">
        <ele>1529.4</ele>
        <time>2022-09-18T12:53:38Z</time>
      </trkpt>
      <trkpt lat="44.68808" lon="6.14887">
        <ele>1529.2</ele>
        <time>2022-09-18T12:53:39Z</time>
      </trkpt>
      <trkpt lat="44.68808" lon="6.14878">
        <ele>1529</ele>
        <time>2022-09-18T12:53:40Z</time>
      </trkpt>
      <trkpt lat="44.68809" lon="6.1487">
        <ele>1528.8</ele>
        <time>2022-09-18T12:53:41Z</time>
      </trkpt>
      <trkpt lat="44.68809" lon="6.14862">
        <ele>1528.8</ele>
        <time>2022-09-18T12:53:42Z</time>
      </trkpt>
      <trkpt lat="44.6881" lon="6.14854">
        <ele>1528.4</ele>
        <time>2022-09-18T12:53:43Z</time>
      </trkpt>
      <trkpt lat="44.68811" lon="6.14847">
        <ele>1528.4</ele>
        <time>2022-09-18T12:53:44Z</time>
      </trkpt>
      <trkpt lat="44.68812" lon="6.1484">
        <ele>1528.6</ele>
        <time>2022-09-18T12:53:45Z</time>
      </trkpt>
      <trkpt lat="44.68813" lon="6.14833">
        <ele>1528.8</ele>
        <time>2022-09-18T12:53:46Z</time>
      </trkpt>
      <trkpt lat="44.68814" lon="6.14827">
        <ele>1529.2</ele>
        <time>2022-09-18T12:53:47Z</time>
      </trkpt>
      <trkpt lat="44.68815" lon="6.1482">
        <ele>1529.2</ele>
        <time>2022-09-18T12:53:48Z</time>
      </trkpt>
      <trkpt lat="44.68816" lon="6.14814">
        <ele>1529.2</ele>
        <time>2022-09-18T12:53:49Z</time>
      </trkpt>
      <trkpt lat="44.68817" lon="6.14808">
        <ele>1529.4</ele>
        <time>2022-09-18T12:53:50Z</time>
      </trkpt>
      <trkpt lat="44.68818" lon="6.14802">
        <ele>1529.6</ele>
        <time>2022-09-18T12:53:51Z</time>
      </trkpt>
      <trkpt lat="44.68818" lon="6.14796">
        <ele>1529.8</ele>
        <time>2022-09-18T12:53:52Z</time>
      </trkpt>
      <trkpt lat="44.68819" lon="6.14789">
        <ele>1529.6</ele>
        <time>2022-09-18T12:53:53Z</time>
      </trkpt>
      <trkpt lat="44.6882" lon="6.14783">
        <ele>1530</ele>
        <time>2022-09-18T12:53:54Z</time>
      </trkpt>
      <trkpt lat="44.6882" lon="6.14777">
        <ele>1530</ele>
        <time>2022-09-18T12:53:55Z</time>
      </trkpt>
      <trkpt lat="44.68821" lon="6.14771">
        <ele>1530.2</ele>
        <time>2022-09-18T12:53:56Z</time>
      </trkpt>
      <trkpt lat="44.68822" lon="6.14765">
        <ele>1530.4</ele>
        <time>2022-09-18T12:53:57Z</time>
      </trkpt>
      <trkpt lat="44.68823" lon="6.14759">
        <ele>1530.6</ele>
        <time>2022-09-18T12:53:58Z</time>
      </trkpt>
      <trkpt lat="44.68823" lon="6.14754">
        <ele>1531.2</ele>
        <time>2022-09-18T12:53:59Z</time>
      </trkpt>
      <trkpt lat="44.68824" lon="6.14749">
        <ele>1531.6</ele>
        <time>2022-09-18T12:54:00Z</time>
      </trkpt>
      <trkpt lat="44.68825" lon="6.14743">
        <ele>1532</ele>
        <time>2022-09-18T12:54:01Z</time>
      </trkpt>
      <trkpt lat="44.68826" lon="6.14738">
        <ele>1532.2</ele>
        <time>2022-09-18T12:54:02Z</time>
      </trkpt>
      <trkpt lat="44.68826" lon="6.14733">
        <ele>1532.6</ele>
        <time>2022-09-18T12:54:03Z</time>
      </trkpt>
      <trkpt lat="44.68827" lon="6.14727">
        <ele>1532.4</ele>
        <time>2022-09-18T12:54:04Z</time>
      </trkpt>
      <trkpt lat="44.68827" lon="6.14722">
        <ele>1533</ele>
        <time>2022-09-18T12:54:05Z</time>
      </trkpt>
      <trkpt lat="44.68828" lon="6.14716">
        <ele>1533.2</ele>
        <time>2022-09-18T12:54:06Z</time>
      </trkpt>
      <trkpt lat="44.68829" lon="6.1471">
        <ele>1533.2</ele>
        <time>2022-09-18T12:54:07Z</time>
      </trkpt>
      <trkpt lat="44.68829" lon="6.14704">
        <ele>1534</ele>
        <time>2022-09-18T12:54:08Z</time>
      </trkpt>
      <trkpt lat="44.6883" lon="6.14698">
        <ele>1533.6</ele>
        <time>2022-09-18T12:54:09Z</time>
      </trkpt>
      <trkpt lat="44.6883" lon="6.14692">
        <ele>1534</ele>
        <time>2022-09-18T12:54:10Z</time>
      </trkpt>
      <trkpt lat="44.68831" lon="6.14686">
        <ele>1534</ele>
        <time>2022-09-18T12:54:11Z</time>
      </trkpt>
      <trkpt lat="44.68831" lon="6.14681">
        <ele>1533.8</ele>
        <time>2022-09-18T12:54:12Z</time>
      </trkpt>
      <trkpt lat="44.68832" lon="6.14675">
        <ele>1534</ele>
        <time>2022-09-18T12:54:13Z</time>
      </trkpt>
      <trkpt lat="44.68832" lon="6.1467">
        <ele>1534.4</ele>
        <time>2022-09-18T12:54:14Z</time>
      </trkpt>
      <trkpt lat="44.68832" lon="6.14664">
        <ele>1534.6</ele>
        <time>2022-09-18T12:54:15Z</time>
      </trkpt>
      <trkpt lat="44.68833" lon="6.14658">
        <ele>1534.8</ele>
        <time>2022-09-18T12:54:16Z</time>
      </trkpt>
      <trkpt lat="44.68834" lon="6.14652">
        <ele>1534.8</ele>
        <time>2022-09-18T12:54:17Z</time>
      </trkpt>
      <trkpt lat="44.68834" lon="6.14645">
        <ele>1534.6</ele>
        <time>2022-09-18T12:54:18Z</time>
      </trkpt>
      <trkpt lat="44.68835" lon="6.14639">
        <ele>1534.4</ele>
        <time>2022-09-18T12:54:19Z</time>
      </trkpt>
      <trkpt lat="44.68835" lon="6.14632">
        <ele>1534.4</ele>
        <time>2022-09-18T12:54:20Z</time>
      </trkpt>
      <trkpt lat="44.68836" lon="6.14624">
        <ele>1534.6</ele>
        <time>2022-09-18T12:54:21Z</time>
      </trkpt>
      <trkpt lat="44.68836" lon="6.14617">
        <ele>1534.8</ele>
        <time>2022-09-18T12:54:22Z</time>
      </trkpt>
      <trkpt lat="44.68836" lon="6.14609">
        <ele>1534.6</ele>
        <time>2022-09-18T12:54:23Z</time>
      </trkpt>
      <trkpt lat="44.68837" lon="6.14601">
        <ele>1534.6</ele>
        <time>2022-09-18T12:54:24Z</time>
      </trkpt>
      <trkpt lat="44.68837" lon="6.14593">
        <ele>1534.6</ele>
        <time>2022-09-18T12:54:25Z</time>
      </trkpt>
      <trkpt lat="44.68836" lon="6.14584">
        <ele>1534.6</ele>
        <time>2022-09-18T12:54:26Z</time>
      </trkpt>
      <trkpt lat="44.68836" lon="6.14575">
        <ele>1534.6</ele>
        <time>2022-09-18T12:54:27Z</time>
      </trkpt>
      <trkpt lat="44.68834" lon="6.14566">
        <ele>1534.4</ele>
        <time>2022-09-18T12:54:28Z</time>
      </trkpt>
      <trkpt lat="44.68831" lon="6.14556">
        <ele>1534.4</ele>
        <time>2022-09-18T12:54:29Z</time>
      </trkpt>
      <trkpt lat="44.68827" lon="6.14547">
        <ele>1534.4</ele>
        <time>2022-09-18T12:54:30Z</time>
      </trkpt>
      <trkpt lat="44.68822" lon="6.14539">
        <ele>1534.4</ele>
        <time>2022-09-18T12:54:31Z</time>
      </trkpt>
      <trkpt lat="44.68816" lon="6.14533">
        <ele>1534</ele>
        <time>2022-09-18T12:54:32Z</time>
      </trkpt>
      <trkpt lat="44.68809" lon="6.14528">
        <ele>1533.8</ele>
        <time>2022-09-18T12:54:33Z</time>
      </trkpt>
      <trkpt lat="44.68802" lon="6.14524">
        <ele>1533.4</ele>
        <time>2022-09-18T12:54:34Z</time>
      </trkpt>
      <trkpt lat="44.68795" lon="6.1452">
        <ele>1533.2</ele>
        <time>2022-09-18T12:54:35Z</time>
      </trkpt>
      <trkpt lat="44.68788" lon="6.14517">
        <ele>1533</ele>
        <time>2022-09-18T12:54:36Z</time>
      </trkpt>
      <trkpt lat="44.68781" lon="6.14513">
        <ele>1532.8</ele>
        <time>2022-09-18T12:54:37Z</time>
      </trkpt>
      <trkpt lat="44.68775" lon="6.14507">
        <ele>1532.8</ele>
        <time>2022-09-18T12:54:38Z</time>
      </trkpt>
      <trkpt lat="44.6877" lon="6.145">
        <ele>1532.6</ele>
        <time>2022-09-18T12:54:39Z</time>
      </trkpt>
      <trkpt lat="44.68765" lon="6.14492">
        <ele>1532.6</ele>
        <time>2022-09-18T12:54:40Z</time>
      </trkpt>
      <trkpt lat="44.68761" lon="6.14482">
        <ele>1532.4</ele>
        <time>2022-09-18T12:54:41Z</time>
      </trkpt>
      <trkpt lat="44.68758" lon="6.14472">
        <ele>1532.2</ele>
        <time>2022-09-18T12:54:42Z</time>
      </trkpt>
      <trkpt lat="44.68756" lon="6.14461">
        <ele>1531.8</ele>
        <time>2022-09-18T12:54:43Z</time>
      </trkpt>
      <trkpt lat="44.68755" lon="6.1445">
        <ele>1532</ele>
        <time>2022-09-18T12:54:44Z</time>
      </trkpt>
      <trkpt lat="44.68756" lon="6.14439">
        <ele>1532</ele>
        <time>2022-09-18T12:54:45Z</time>
      </trkpt>
      <trkpt lat="44.68758" lon="6.14429">
        <ele>1531.4</ele>
        <time>2022-09-18T12:54:46Z</time>
      </trkpt>
      <trkpt lat="44.68761" lon="6.1442">
        <ele>1531.4</ele>
        <time>2022-09-18T12:54:47Z</time>
      </trkpt>
      <trkpt lat="44.68765" lon="6.1441">
        <ele>1531.2</ele>
        <time>2022-09-18T12:54:48Z</time>
      </trkpt>
      <trkpt lat="44.68771" lon="6.14402">
        <ele>1530.8</ele>
        <time>2022-09-18T12:54:49Z</time>
      </trkpt>
      <trkpt lat="44.68777" lon="6.14397">
        <ele>1530.6</ele>
        <time>2022-09-18T12:54:50Z</time>
      </trkpt>
      <trkpt lat="44.68784" lon="6.14393">
        <ele>1530.6</ele>
        <time>2022-09-18T12:54:51Z</time>
      </trkpt>
      <trkpt lat="44.6879" lon="6.14391">
        <ele>1530.6</ele>
        <time>2022-09-18T12:54:52Z</time>
      </trkpt>
      <trkpt lat="44.68804" lon="6.14389">
        <ele>1530.2</ele>
        <time>2022-09-18T12:54:54Z</time>
      </trkpt>
      <trkpt lat="44.6882" lon="6.14391">
        <ele>1529.8</ele>
        <time>2022-09-18T12:54:56Z</time>
      </trkpt>
      <trkpt lat="44.68837" lon="6.14392">
        <ele>1529.4</ele>
        <time>2022-09-18T12:54:58Z</time>
      </trkpt>
      <trkpt lat="44.68855" lon="6.1439">
        <ele>1529</ele>
        <time>2022-09-18T12:55:00Z</time>
      </trkpt>
      <trkpt lat="44.68869" lon="6.14379">
        <ele>1528.8</ele>
        <time>2022-09-18T12:55:02Z</time>
      </trkpt>
      <trkpt lat="44.68875" lon="6.14363">
        <ele>1528.8</ele>
        <time>2022-09-18T12:55:04Z</time>
      </trkpt>
      <trkpt lat="44.68874" lon="6.14342">
        <ele>1528.4</ele>
        <time>2022-09-18T12:55:06Z</time>
      </trkpt>
      <trkpt lat="44.68873" lon="6.1433">
        <ele>1528.4</ele>
        <time>2022-09-18T12:55:07Z</time>
      </trkpt>
      <trkpt lat="44.68872" lon="6.14319">
        <ele>1528.4</ele>
        <time>2022-09-18T12:55:08Z</time>
      </trkpt>
      <trkpt lat="44.68872" lon="6.14308">
        <ele>1528.6</ele>
        <time>2022-09-18T12:55:09Z</time>
      </trkpt>
      <trkpt lat="44.68872" lon="6.14296">
        <ele>1528.4</ele>
        <time>2022-09-18T12:55:10Z</time>
      </trkpt>
      <trkpt lat="44.68871" lon="6.14285">
        <ele>1528.6</ele>
        <time>2022-09-18T12:55:11Z</time>
      </trkpt>
      <trkpt lat="44.68869" lon="6.14273">
        <ele>1528.8</ele>
        <time>2022-09-18T12:55:12Z</time>
      </trkpt>
      <trkpt lat="44.68867" lon="6.14263">
        <ele>1528.6</ele>
        <time>2022-09-18T12:55:13Z</time>
      </trkpt>
      <trkpt lat="44.68865" lon="6.14252">
        <ele>1528.4</ele>
        <time>2022-09-18T12:55:14Z</time>
      </trkpt>
      <trkpt lat="44.68862" lon="6.1424">
        <ele>1528.2</ele>
        <time>2022-09-18T12:55:15Z</time>
      </trkpt>
      <trkpt lat="44.68861" lon="6.14229">
        <ele>1528</ele>
        <time>2022-09-18T12:55:16Z</time>
      </trkpt>
      <trkpt lat="44.6886" lon="6.14217">
        <ele>1527.8</ele>
        <time>2022-09-18T12:55:17Z</time>
      </trkpt>
      <trkpt lat="44.6886" lon="6.14205">
        <ele>1527.8</ele>
        <time>2022-09-18T12:55:18Z</time>
      </trkpt>
      <trkpt lat="44.68862" lon="6.14193">
        <ele>1527.6</ele>
        <time>2022-09-18T12:55:19Z</time>
      </trkpt>
      <trkpt lat="44.68864" lon="6.1418">
        <ele>1527.2</ele>
        <time>2022-09-18T12:55:20Z</time>
      </trkpt>
      <trkpt lat="44.68867" lon="6.14167">
        <ele>1527.2</ele>
        <time>2022-09-18T12:55:21Z</time>
      </trkpt>
      <trkpt lat="44.6887" lon="6.14154">
        <ele>1526.6</ele>
        <time>2022-09-18T12:55:22Z</time>
      </trkpt>
      <trkpt lat="44.68873" lon="6.14141">
        <ele>1525.6</ele>
        <time>2022-09-18T12:55:23Z</time>
      </trkpt>
      <trkpt lat="44.68876" lon="6.14127">
        <ele>1525</ele>
        <time>2022-09-18T12:55:24Z</time>
      </trkpt>
      <trkpt lat="44.68878" lon="6.14113">
        <ele>1524.8</ele>
        <time>2022-09-18T12:55:25Z</time>
      </trkpt>
      <trkpt lat="44.6888" lon="6.14098">
        <ele>1524.6</ele>
        <time>2022-09-18T12:55:26Z</time>
      </trkpt>
      <trkpt lat="44.68882" lon="6.14083">
        <ele>1524.2</ele>
        <time>2022-09-18T12:55:27Z</time>
      </trkpt>
      <trkpt lat="44.68884" lon="6.14069">
        <ele>1523.6</ele>
        <time>2022-09-18T12:55:28Z</time>
      </trkpt>
      <trkpt lat="44.68885" lon="6.14055">
        <ele>1523.2</ele>
        <time>2022-09-18T12:55:29Z</time>
      </trkpt>
      <trkpt lat="44.68885" lon="6.1404">
        <ele>1522.6</ele>
        <time>2022-09-18T12:55:30Z</time>
      </trkpt>
      <trkpt lat="44.68884" lon="6.14026">
        <ele>1521.6</ele>
        <time>2022-09-18T12:55:31Z</time>
      </trkpt>
      <trkpt lat="44.68883" lon="6.14012">
        <ele>1521.2</ele>
        <time>2022-09-18T12:55:32Z</time>
      </trkpt>
      <trkpt lat="44.68883" lon="6.13999">
        <ele>1521</ele>
        <time>2022-09-18T12:55:33Z</time>
      </trkpt>
      <trkpt lat="44.68884" lon="6.13986">
        <ele>1520.6</ele>
        <time>2022-09-18T12:55:34Z</time>
      </trkpt>
      <trkpt lat="44.68886" lon="6.13973">
        <ele>1519.8</ele>
        <time>2022-09-18T12:55:35Z</time>
      </trkpt>
      <trkpt lat="44.68888" lon="6.1396">
        <ele>1519.6</ele>
        <time>2022-09-18T12:55:36Z</time>
      </trkpt>
      <trkpt lat="44.68889" lon="6.13947">
        <ele>1519.2</ele>
        <time>2022-09-18T12:55:37Z</time>
      </trkpt>
      <trkpt lat="44.68892" lon="6.13934">
        <ele>1519</ele>
        <time>2022-09-18T12:55:38Z</time>
      </trkpt>
      <trkpt lat="44.68896" lon="6.13921">
        <ele>1518.6</ele>
        <time>2022-09-18T12:55:39Z</time>
      </trkpt>
      <trkpt lat="44.689" lon="6.13907">
        <ele>1518.2</ele>
        <time>2022-09-18T12:55:40Z</time>
      </trkpt>
      <trkpt lat="44.68905" lon="6.13894">
        <ele>1517.8</ele>
        <time>2022-09-18T12:55:41Z</time>
      </trkpt>
      <trkpt lat="44.6891" lon="6.13881">
        <ele>1517.2</ele>
        <time>2022-09-18T12:55:42Z</time>
      </trkpt>
      <trkpt lat="44.68915" lon="6.13867">
        <ele>1516.2</ele>
        <time>2022-09-18T12:55:43Z</time>
      </trkpt>
      <trkpt lat="44.6892" lon="6.13853">
        <ele>1515.8</ele>
        <time>2022-09-18T12:55:44Z</time>
      </trkpt>
      <trkpt lat="44.68925" lon="6.13839">
        <ele>1515.2</ele>
        <time>2022-09-18T12:55:45Z</time>
      </trkpt>
      <trkpt lat="44.6893" lon="6.13825">
        <ele>1514.8</ele>
        <time>2022-09-18T12:55:46Z</time>
      </trkpt>
      <trkpt lat="44.68936" lon="6.13811">
        <ele>1514</ele>
        <time>2022-09-18T12:55:47Z</time>
      </trkpt>
      <trkpt lat="44.68941" lon="6.13797">
        <ele>1512.8</ele>
        <time>2022-09-18T12:55:48Z</time>
      </trkpt>
      <trkpt lat="44.68947" lon="6.13784">
        <ele>1511.8</ele>
        <time>2022-09-18T12:55:49Z</time>
      </trkpt>
      <trkpt lat="44.68952" lon="6.13771">
        <ele>1510.6</ele>
        <time>2022-09-18T12:55:50Z</time>
      </trkpt>
      <trkpt lat="44.68958" lon="6.13759">
        <ele>1509.4</ele>
        <time>2022-09-18T12:55:51Z</time>
      </trkpt>
      <trkpt lat="44.68963" lon="6.13747">
        <ele>1508.8</ele>
        <time>2022-09-18T12:55:52Z</time>
      </trkpt>
      <trkpt lat="44.68968" lon="6.13735">
        <ele>1507.6</ele>
        <time>2022-09-18T12:55:53Z</time>
      </trkpt>
      <trkpt lat="44.68974" lon="6.13723">
        <ele>1506.6</ele>
        <time>2022-09-18T12:55:54Z</time>
      </trkpt>
      <trkpt lat="44.68979" lon="6.13711">
        <ele>1505.6</ele>
        <time>2022-09-18T12:55:55Z</time>
      </trkpt>
      <trkpt lat="44.68982" lon="6.13699">
        <ele>1504.4</ele>
        <time>2022-09-18T12:55:56Z</time>
      </trkpt>
      <trkpt lat="44.68984" lon="6.13687">
        <ele>1503.4</ele>
        <time>2022-09-18T12:55:57Z</time>
      </trkpt>
      <trkpt lat="44.68984" lon="6.13675">
        <ele>1502.6</ele>
        <time>2022-09-18T12:55:58Z</time>
      </trkpt>
      <trkpt lat="44.68981" lon="6.13664">
        <ele>1501.8</ele>
        <time>2022-09-18T12:55:59Z</time>
      </trkpt>
      <trkpt lat="44.68976" lon="6.13654">
        <ele>1500.8</ele>
        <time>2022-09-18T12:56:00Z</time>
      </trkpt>
      <trkpt lat="44.6897" lon="6.13645">
        <ele>1500</ele>
        <time>2022-09-18T12:56:01Z</time>
      </trkpt>
      <trkpt lat="44.68962" lon="6.13639">
        <ele>1499.4</ele>
        <time>2022-09-18T12:56:02Z</time>
      </trkpt>
      <trkpt lat="44.68954" lon="6.13635">
        <ele>1498.8</ele>
        <time>2022-09-18T12:56:03Z</time>
      </trkpt>
      <trkpt lat="44.68945" lon="6.13633">
        <ele>1498.2</ele>
        <time>2022-09-18T12:56:04Z</time>
      </trkpt>
      <trkpt lat="44.68936" lon="6.13633">
        <ele>1497.8</ele>
        <time>2022-09-18T12:56:05Z</time>
      </trkpt>
      <trkpt lat="44.68927" lon="6.13635">
        <ele>1497.2</ele>
        <time>2022-09-18T12:56:06Z</time>
      </trkpt>
      <trkpt lat="44.68917" lon="6.13637">
        <ele>1496.8</ele>
        <time>2022-09-18T12:56:07Z</time>
      </trkpt>
      <trkpt lat="44.68907" lon="6.13638">
        <ele>1496</ele>
        <time>2022-09-18T12:56:08Z</time>
      </trkpt>
      <trkpt lat="44.68898" lon="6.13637">
        <ele>1495.2</ele>
        <time>2022-09-18T12:56:09Z</time>
      </trkpt>
      <trkpt lat="44.68889" lon="6.13636">
        <ele>1494.2</ele>
        <time>2022-09-18T12:56:10Z</time>
      </trkpt>
      <trkpt lat="44.68881" lon="6.13634">
        <ele>1493.2</ele>
        <time>2022-09-18T12:56:11Z</time>
      </trkpt>
      <trkpt lat="44.68872" lon="6.1363">
        <ele>1492.8</ele>
        <time>2022-09-18T12:56:12Z</time>
      </trkpt>
      <trkpt lat="44.68863" lon="6.13626">
        <ele>1492.2</ele>
        <time>2022-09-18T12:56:13Z</time>
      </trkpt>
      <trkpt lat="44.68854" lon="6.13621">
        <ele>1491.8</ele>
        <time>2022-09-18T12:56:14Z</time>
      </trkpt>
      <trkpt lat="44.68845" lon="6.13615">
        <ele>1491.4</ele>
        <time>2022-09-18T12:56:15Z</time>
      </trkpt>
      <trkpt lat="44.68836" lon="6.1361">
        <ele>1491.2</ele>
        <time>2022-09-18T12:56:16Z</time>
      </trkpt>
      <trkpt lat="44.68828" lon="6.13603">
        <ele>1490.6</ele>
        <time>2022-09-18T12:56:17Z</time>
      </trkpt>
      <trkpt lat="44.6882" lon="6.13595">
        <ele>1490.2</ele>
        <time>2022-09-18T12:56:18Z</time>
      </trkpt>
      <trkpt lat="44.68812" lon="6.13583">
        <ele>1489.4</ele>
        <time>2022-09-18T12:56:19Z</time>
      </trkpt>
      <trkpt lat="44.68804" lon="6.13571">
        <ele>1489</ele>
        <time>2022-09-18T12:56:20Z</time>
      </trkpt>
      <trkpt lat="44.68797" lon="6.13558">
        <ele>1488.2</ele>
        <time>2022-09-18T12:56:21Z</time>
      </trkpt>
      <trkpt lat="44.6879" lon="6.13546">
        <ele>1487</ele>
        <time>2022-09-18T12:56:22Z</time>
      </trkpt>
      <trkpt lat="44.68783" lon="6.13532">
        <ele>1486.4</ele>
        <time>2022-09-18T12:56:23Z</time>
      </trkpt>
      <trkpt lat="44.68776" lon="6.13519">
        <ele>1486.2</ele>
        <time>2022-09-18T12:56:24Z</time>
      </trkpt>
      <trkpt lat="44.6877" lon="6.13505">
        <ele>1485.6</ele>
        <time>2022-09-18T12:56:25Z</time>
      </trkpt>
      <trkpt lat="44.68763" lon="6.13491">
        <ele>1484.6</ele>
        <time>2022-09-18T12:56:26Z</time>
      </trkpt>
      <trkpt lat="44.68757" lon="6.13477">
        <ele>1483.6</ele>
        <time>2022-09-18T12:56:27Z</time>
      </trkpt>
      <trkpt lat="44.68752" lon="6.13464">
        <ele>1483</ele>
        <time>2022-09-18T12:56:28Z</time>
      </trkpt>
      <trkpt lat="44.68748" lon="6.13451">
        <ele>1482.8</ele>
        <time>2022-09-18T12:56:29Z</time>
      </trkpt>
      <trkpt lat="44.68744" lon="6.13438">
        <ele>1482</ele>
        <time>2022-09-18T12:56:30Z</time>
      </trkpt>
      <trkpt lat="44.68742" lon="6.13424">
        <ele>1481</ele>
        <time>2022-09-18T12:56:31Z</time>
      </trkpt>
      <trkpt lat="44.6874" lon="6.13411">
        <ele>1480.6</ele>
        <time>2022-09-18T12:56:32Z</time>
      </trkpt>
      <trkpt lat="44.6874" lon="6.13398">
        <ele>1480.6</ele>
        <time>2022-09-18T12:56:33Z</time>
      </trkpt>
      <trkpt lat="44.68741" lon="6.13386">
        <ele>1480.4</ele>
        <time>2022-09-18T12:56:34Z</time>
      </trkpt>
      <trkpt lat="44.68744" lon="6.13375">
        <ele>1480</ele>
        <time>2022-09-18T12:56:35Z</time>
      </trkpt>
      <trkpt lat="44.68749" lon="6.13366">
        <ele>1479.4</ele>
        <time>2022-09-18T12:56:36Z</time>
      </trkpt>
      <trkpt lat="44.68756" lon="6.13361">
        <ele>1479.2</ele>
        <time>2022-09-18T12:56:37Z</time>
      </trkpt>
      <trkpt lat="44.68764" lon="6.13358">
        <ele>1478.4</ele>
        <time>2022-09-18T12:56:38Z</time>
      </trkpt>
      <trkpt lat="44.68772" lon="6.13357">
        <ele>1478</ele>
        <time>2022-09-18T12:56:39Z</time>
      </trkpt>
      <trkpt lat="44.68781" lon="6.1336">
        <ele>1477.2</ele>
        <time>2022-09-18T12:56:40Z</time>
      </trkpt>
      <trkpt lat="44.6879" lon="6.13365">
        <ele>1476.6</ele>
        <time>2022-09-18T12:56:41Z</time>
      </trkpt>
      <trkpt lat="44.68799" lon="6.13371">
        <ele>1476</ele>
        <time>2022-09-18T12:56:42Z</time>
      </trkpt>
      <trkpt lat="44.68809" lon="6.13375">
        <ele>1475.2</ele>
        <time>2022-09-18T12:56:43Z</time>
      </trkpt>
      <trkpt lat="44.68818" lon="6.13377">
        <ele>1474.8</ele>
        <time>2022-09-18T12:56:44Z</time>
      </trkpt>
      <trkpt lat="44.68827" lon="6.13377">
        <ele>1474.4</ele>
        <time>2022-09-18T12:56:45Z</time>
      </trkpt>
      <trkpt lat="44.68835" lon="6.13374">
        <ele>1473.8</ele>
        <time>2022-09-18T12:56:46Z</time>
      </trkpt>
      <trkpt lat="44.68843" lon="6.13369">
        <ele>1473.4</ele>
        <time>2022-09-18T12:56:47Z</time>
      </trkpt>
      <trkpt lat="44.68851" lon="6.13362">
        <ele>1472.8</ele>
        <time>2022-09-18T12:56:48Z</time>
      </trkpt>
      <trkpt lat="44.68857" lon="6.13354">
        <ele>1472.4</ele>
        <time>2022-09-18T12:56:49Z</time>
      </trkpt>
      <trkpt lat="44.68862" lon="6.13345">
        <ele>1472</ele>
        <time>2022-09-18T12:56:50Z</time>
      </trkpt>
      <trkpt lat="44.68865" lon="6.13335">
        <ele>1471.6</ele>
        <time>2022-09-18T12:56:51Z</time>
      </trkpt>
      <trkpt lat="44.68868" lon="6.13325">
        <ele>1471.4</ele>
        <time>2022-09-18T12:56:52Z</time>
      </trkpt>
      <trkpt lat="44.68868" lon="6.13313">
        <ele>1471</ele>
        <time>2022-09-18T12:56:53Z</time>
      </trkpt>
      <trkpt lat="44.68867" lon="6.13301">
        <ele>1470.6</ele>
        <time>2022-09-18T12:56:54Z</time>
      </trkpt>
      <trkpt lat="44.68863" lon="6.13287">
        <ele>1469.6</ele>
        <time>2022-09-18T12:56:55Z</time>
      </trkpt>
      <trkpt lat="44.68858" lon="6.13274">
        <ele>1469</ele>
        <time>2022-09-18T12:56:56Z</time>
      </trkpt>
      <trkpt lat="44.68853" lon="6.13261">
        <ele>1468.2</ele>
        <time>2022-09-18T12:56:57Z</time>
      </trkpt>
      <trkpt lat="44.68847" lon="6.13247">
        <ele>1468</ele>
        <time>2022-09-18T12:56:58Z</time>
      </trkpt>
      <trkpt lat="44.68841" lon="6.13233">
        <ele>1467</ele>
        <time>2022-09-18T12:56:59Z</time>
      </trkpt>
      <trkpt lat="44.68834" lon="6.1322">
        <ele>1466</ele>
        <time>2022-09-18T12:57:00Z</time>
      </trkpt>
      <trkpt lat="44.68827" lon="6.13207">
        <ele>1465</ele>
        <time>2022-09-18T12:57:01Z</time>
      </trkpt>
      <trkpt lat="44.68819" lon="6.13195">
        <ele>1464</ele>
        <time>2022-09-18T12:57:02Z</time>
      </trkpt>
      <trkpt lat="44.68811" lon="6.13185">
        <ele>1463.2</ele>
        <time>2022-09-18T12:57:03Z</time>
      </trkpt>
      <trkpt lat="44.68801" lon="6.13177">
        <ele>1462.4</ele>
        <time>2022-09-18T12:57:04Z</time>
      </trkpt>
      <trkpt lat="44.6879" lon="6.13171">
        <ele>1461.2</ele>
        <time>2022-09-18T12:57:05Z</time>
      </trkpt>
      <trkpt lat="44.68779" lon="6.13167">
        <ele>1459.6</ele>
        <time>2022-09-18T12:57:06Z</time>
      </trkpt>
      <trkpt lat="44.68769" lon="6.13166">
        <ele>1458.6</ele>
        <time>2022-09-18T12:57:07Z</time>
      </trkpt>
      <trkpt lat="44.68759" lon="6.13165">
        <ele>1458</ele>
        <time>2022-09-18T12:57:08Z</time>
      </trkpt>
      <trkpt lat="44.6875" lon="6.13164">
        <ele>1457.4</ele>
        <time>2022-09-18T12:57:09Z</time>
      </trkpt>
      <trkpt lat="44.68741" lon="6.13162">
        <ele>1456</ele>
        <time>2022-09-18T12:57:10Z</time>
      </trkpt>
      <trkpt lat="44.68734" lon="6.1316">
        <ele>1455</ele>
        <time>2022-09-18T12:57:11Z</time>
      </trkpt>
      <trkpt lat="44.68728" lon="6.13156">
        <ele>1454.2</ele>
        <time>2022-09-18T12:57:12Z</time>
      </trkpt>
      <trkpt lat="44.68723" lon="6.1315">
        <ele>1453.2</ele>
        <time>2022-09-18T12:57:13Z</time>
      </trkpt>
      <trkpt lat="44.6872" lon="6.13145">
        <ele>1452.4</ele>
        <time>2022-09-18T12:57:14Z</time>
      </trkpt>
      <trkpt lat="44.68718" lon="6.1314">
        <ele>1451.8</ele>
        <time>2022-09-18T12:57:15Z</time>
      </trkpt>
      <trkpt lat="44.68717" lon="6.13135">
        <ele>1451</ele>
        <time>2022-09-18T12:57:16Z</time>
      </trkpt>
      <trkpt lat="44.68717" lon="6.13131">
        <ele>1450.2</ele>
        <time>2022-09-18T12:57:17Z</time>
      </trkpt>
      <trkpt lat="44.68717" lon="6.13127">
        <ele>1449.8</ele>
        <time>2022-09-18T12:57:18Z</time>
      </trkpt>
      <trkpt lat="44.68718" lon="6.13123">
        <ele>1449</ele>
        <time>2022-09-18T12:57:19Z</time>
      </trkpt>
      <trkpt lat="44.68719" lon="6.1312">
        <ele>1448.8</ele>
        <time>2022-09-18T12:57:20Z</time>
      </trkpt>
      <trkpt lat="44.68722" lon="6.13117">
        <ele>1448.4</ele>
        <time>2022-09-18T12:57:21Z</time>
      </trkpt>
      <trkpt lat="44.68724" lon="6.13114">
        <ele>1448.2</ele>
        <time>2022-09-18T12:57:22Z</time>
      </trkpt>
      <trkpt lat="44.68727" lon="6.13111">
        <ele>1448</ele>
        <time>2022-09-18T12:57:23Z</time>
      </trkpt>
      <trkpt lat="44.68729" lon="6.13109">
        <ele>1447.4</ele>
        <time>2022-09-18T12:57:24Z</time>
      </trkpt>
      <trkpt lat="44.68731" lon="6.13107">
        <ele>1447.2</ele>
        <time>2022-09-18T12:57:25Z</time>
      </trkpt>
      <trkpt lat="44.68733" lon="6.13106">
        <ele>1447</ele>
        <time>2022-09-18T12:57:26Z</time>
      </trkpt>
      <trkpt lat="44.68735" lon="6.13106">
        <ele>1446.4</ele>
        <time>2022-09-18T12:57:28Z</time>
      </trkpt>
      <trkpt lat="44.68738" lon="6.13104">
        <ele>1446.6</ele>
        <time>2022-09-18T12:57:40Z</time>
      </trkpt>
      <trkpt lat="44.68741" lon="6.13104">
        <ele>1446.8</ele>
        <time>2022-09-18T12:57:42Z</time>
      </trkpt>
      <trkpt lat="44.68743" lon="6.13104">
        <ele>1446.6</ele>
        <time>2022-09-18T12:57:43Z</time>
      </trkpt>
      <trkpt lat="44.68746" lon="6.13104">
        <ele>1446.4</ele>
        <time>2022-09-18T12:57:44Z</time>
      </trkpt>
      <trkpt lat="44.68749" lon="6.13104">
        <ele>1446.4</ele>
        <time>2022-09-18T12:57:45Z</time>
      </trkpt>
      <trkpt lat="44.68751" lon="6.13105">
        <ele>1446.2</ele>
        <time>2022-09-18T12:57:46Z</time>
      </trkpt>
      <trkpt lat="44.68755" lon="6.13105">
        <ele>1446.2</ele>
        <time>2022-09-18T12:57:47Z</time>
      </trkpt>
      <trkpt lat="44.68758" lon="6.13105">
        <ele>1446</ele>
        <time>2022-09-18T12:57:48Z</time>
      </trkpt>
      <trkpt lat="44.68762" lon="6.13105">
        <ele>1446</ele>
        <time>2022-09-18T12:57:49Z</time>
      </trkpt>
      <trkpt lat="44.68766" lon="6.13106">
        <ele>1446</ele>
        <time>2022-09-18T12:57:50Z</time>
      </trkpt>
      <trkpt lat="44.68771" lon="6.13106">
        <ele>1445.8</ele>
        <time>2022-09-18T12:57:51Z</time>
      </trkpt>
      <trkpt lat="44.68775" lon="6.13107">
        <ele>1445.6</ele>
        <time>2022-09-18T12:57:52Z</time>
      </trkpt>
      <trkpt lat="44.6878" lon="6.13108">
        <ele>1445.6</ele>
        <time>2022-09-18T12:57:53Z</time>
      </trkpt>
      <trkpt lat="44.68785" lon="6.13109">
        <ele>1445.4</ele>
        <time>2022-09-18T12:57:54Z</time>
      </trkpt>
      <trkpt lat="44.6879" lon="6.1311">
        <ele>1445.4</ele>
        <time>2022-09-18T12:57:55Z</time>
      </trkpt>
      <trkpt lat="44.68796" lon="6.13111">
        <ele>1445.2</ele>
        <time>2022-09-18T12:57:56Z</time>
      </trkpt>
      <trkpt lat="44.68802" lon="6.13112">
        <ele>1445</ele>
        <time>2022-09-18T12:57:57Z</time>
      </trkpt>
      <trkpt lat="44.68808" lon="6.13114">
        <ele>1444.8</ele>
        <time>2022-09-18T12:57:58Z</time>
      </trkpt>
      <trkpt lat="44.68815" lon="6.13117">
        <ele>1444.4</ele>
        <time>2022-09-18T12:57:59Z</time>
      </trkpt>
      <trkpt lat="44.68821" lon="6.1312">
        <ele>1444</ele>
        <time>2022-09-18T12:58:00Z</time>
      </trkpt>
      <trkpt lat="44.68828" lon="6.13124">
        <ele>1443.2</ele>
        <time>2022-09-18T12:58:01Z</time>
      </trkpt>
      <trkpt lat="44.68835" lon="6.13131">
        <ele>1443</ele>
        <time>2022-09-18T12:58:02Z</time>
      </trkpt>
      <trkpt lat="44.68842" lon="6.13137">
        <ele>1442.6</ele>
        <time>2022-09-18T12:58:03Z</time>
      </trkpt>
      <trkpt lat="44.6885" lon="6.13143">
        <ele>1442</ele>
        <time>2022-09-18T12:58:04Z</time>
      </trkpt>
      <trkpt lat="44.68858" lon="6.13147">
        <ele>1441.4</ele>
        <time>2022-09-18T12:58:05Z</time>
      </trkpt>
      <trkpt lat="44.68867" lon="6.13148">
        <ele>1440.4</ele>
        <time>2022-09-18T12:58:06Z</time>
      </trkpt>
      <trkpt lat="44.68875" lon="6.13146">
        <ele>1440</ele>
        <time>2022-09-18T12:58:07Z</time>
      </trkpt>
      <trkpt lat="44.68884" lon="6.1314">
        <ele>1439.2</ele>
        <time>2022-09-18T12:58:08Z</time>
      </trkpt>
      <trkpt lat="44.68891" lon="6.13133">
        <ele>1438.6</ele>
        <time>2022-09-18T12:58:09Z</time>
      </trkpt>
      <trkpt lat="44.68898" lon="6.13126">
        <ele>1437.8</ele>
        <time>2022-09-18T12:58:10Z</time>
      </trkpt>
      <trkpt lat="44.68905" lon="6.13118">
        <ele>1437.2</ele>
        <time>2022-09-18T12:58:11Z</time>
      </trkpt>
      <trkpt lat="44.68911" lon="6.13111">
        <ele>1436.4</ele>
        <time>2022-09-18T12:58:12Z</time>
      </trkpt>
      <trkpt lat="44.68915" lon="6.13103">
        <ele>1435.6</ele>
        <time>2022-09-18T12:58:13Z</time>
      </trkpt>
      <trkpt lat="44.68915" lon="6.13095">
        <ele>1434.8</ele>
        <time>2022-09-18T12:58:14Z</time>
      </trkpt>
      <trkpt lat="44.68911" lon="6.13089">
        <ele>1434</ele>
        <time>2022-09-18T12:58:15Z</time>
      </trkpt>
      <trkpt lat="44.68906" lon="6.13085">
        <ele>1433.4</ele>
        <time>2022-09-18T12:58:16Z</time>
      </trkpt>
      <trkpt lat="44.68899" lon="6.13083">
        <ele>1433</ele>
        <time>2022-09-18T12:58:17Z</time>
      </trkpt>
      <trkpt lat="44.68891" lon="6.13084">
        <ele>1432</ele>
        <time>2022-09-18T12:58:18Z</time>
      </trkpt>
      <trkpt lat="44.68882" lon="6.13084">
        <ele>1431.6</ele>
        <time>2022-09-18T12:58:19Z</time>
      </trkpt>
      <trkpt lat="44.68873" lon="6.1308">
        <ele>1431.4</ele>
        <time>2022-09-18T12:58:20Z</time>
      </trkpt>
      <trkpt lat="44.68865" lon="6.13073">
        <ele>1430.8</ele>
        <time>2022-09-18T12:58:21Z</time>
      </trkpt>
      <trkpt lat="44.68857" lon="6.13063">
        <ele>1430.2</ele>
        <time>2022-09-18T12:58:22Z</time>
      </trkpt>
      <trkpt lat="44.68852" lon="6.13052">
        <ele>1429.2</ele>
        <time>2022-09-18T12:58:23Z</time>
      </trkpt>
      <trkpt lat="44.68847" lon="6.13039">
        <ele>1428</ele>
        <time>2022-09-18T12:58:24Z</time>
      </trkpt>
      <trkpt lat="44.68843" lon="6.13026">
        <ele>1427.4</ele>
        <time>2022-09-18T12:58:25Z</time>
      </trkpt>
      <trkpt lat="44.6884" lon="6.13013">
        <ele>1427.2</ele>
        <time>2022-09-18T12:58:26Z</time>
      </trkpt>
      <trkpt lat="44.68837" lon="6.13001">
        <ele>1426.6</ele>
        <time>2022-09-18T12:58:27Z</time>
      </trkpt>
      <trkpt lat="44.68834" lon="6.12988">
        <ele>1425.6</ele>
        <time>2022-09-18T12:58:28Z</time>
      </trkpt>
      <trkpt lat="44.6883" lon="6.12976">
        <ele>1424.8</ele>
        <time>2022-09-18T12:58:29Z</time>
      </trkpt>
      <trkpt lat="44.68825" lon="6.12966">
        <ele>1423.8</ele>
        <time>2022-09-18T12:58:30Z</time>
      </trkpt>
      <trkpt lat="44.6882" lon="6.12955">
        <ele>1423</ele>
        <time>2022-09-18T12:58:31Z</time>
      </trkpt>
      <trkpt lat="44.68815" lon="6.12945">
        <ele>1422.4</ele>
        <time>2022-09-18T12:58:32Z</time>
      </trkpt>
      <trkpt lat="44.6881" lon="6.12935">
        <ele>1421.4</ele>
        <time>2022-09-18T12:58:33Z</time>
      </trkpt>
      <trkpt lat="44.68805" lon="6.12925">
        <ele>1420.8</ele>
        <time>2022-09-18T12:58:34Z</time>
      </trkpt>
      <trkpt lat="44.68799" lon="6.12915">
        <ele>1420.2</ele>
        <time>2022-09-18T12:58:35Z</time>
      </trkpt>
      <trkpt lat="44.68794" lon="6.12905">
        <ele>1419.4</ele>
        <time>2022-09-18T12:58:36Z</time>
      </trkpt>
      <trkpt lat="44.68789" lon="6.12895">
        <ele>1418.6</ele>
        <time>2022-09-18T12:58:37Z</time>
      </trkpt>
      <trkpt lat="44.68784" lon="6.12884">
        <ele>1417.8</ele>
        <time>2022-09-18T12:58:38Z</time>
      </trkpt>
      <trkpt lat="44.68778" lon="6.12873">
        <ele>1417.2</ele>
        <time>2022-09-18T12:58:39Z</time>
      </trkpt>
      <trkpt lat="44.68772" lon="6.12862">
        <ele>1416.6</ele>
        <time>2022-09-18T12:58:40Z</time>
      </trkpt>
      <trkpt lat="44.68767" lon="6.12851">
        <ele>1415.8</ele>
        <time>2022-09-18T12:58:41Z</time>
      </trkpt>
      <trkpt lat="44.68762" lon="6.1284">
        <ele>1414.4</ele>
        <time>2022-09-18T12:58:42Z</time>
      </trkpt>
      <trkpt lat="44.68757" lon="6.12828">
        <ele>1413</ele>
        <time>2022-09-18T12:58:43Z</time>
      </trkpt>
      <trkpt lat="44.68753" lon="6.12817">
        <ele>1412.2</ele>
        <time>2022-09-18T12:58:44Z</time>
      </trkpt>
      <trkpt lat="44.68749" lon="6.12806">
        <ele>1411.2</ele>
        <time>2022-09-18T12:58:45Z</time>
      </trkpt>
      <trkpt lat="44.68746" lon="6.12794">
        <ele>1410.2</ele>
        <time>2022-09-18T12:58:46Z</time>
      </trkpt>
      <trkpt lat="44.68742" lon="6.12782">
        <ele>1409</ele>
        <time>2022-09-18T12:58:47Z</time>
      </trkpt>
      <trkpt lat="44.68737" lon="6.1277">
        <ele>1408</ele>
        <time>2022-09-18T12:58:48Z</time>
      </trkpt>
      <trkpt lat="44.68731" lon="6.12758">
        <ele>1407</ele>
        <time>2022-09-18T12:58:49Z</time>
      </trkpt>
      <trkpt lat="44.68726" lon="6.12746">
        <ele>1405.8</ele>
        <time>2022-09-18T12:58:50Z</time>
      </trkpt>
      <trkpt lat="44.6872" lon="6.12734">
        <ele>1405.6</ele>
        <time>2022-09-18T12:58:51Z</time>
      </trkpt>
      <trkpt lat="44.68714" lon="6.12721">
        <ele>1404.8</ele>
        <time>2022-09-18T12:58:52Z</time>
      </trkpt>
      <trkpt lat="44.68707" lon="6.12709">
        <ele>1403.4</ele>
        <time>2022-09-18T12:58:53Z</time>
      </trkpt>
      <trkpt lat="44.68701" lon="6.12696">
        <ele>1402.6</ele>
        <time>2022-09-18T12:58:54Z</time>
      </trkpt>
      <trkpt lat="44.68694" lon="6.12684">
        <ele>1401.2</ele>
        <time>2022-09-18T12:58:55Z</time>
      </trkpt>
      <trkpt lat="44.68688" lon="6.12671">
        <ele>1400</ele>
        <time>2022-09-18T12:58:56Z</time>
      </trkpt>
      <trkpt lat="44.68683" lon="6.12657">
        <ele>1399</ele>
        <time>2022-09-18T12:58:57Z</time>
      </trkpt>
      <trkpt lat="44.68679" lon="6.12644">
        <ele>1397.6</ele>
        <time>2022-09-18T12:58:58Z</time>
      </trkpt>
      <trkpt lat="44.68677" lon="6.12629">
        <ele>1396.6</ele>
        <time>2022-09-18T12:58:59Z</time>
      </trkpt>
      <trkpt lat="44.68676" lon="6.12613">
        <ele>1396</ele>
        <time>2022-09-18T12:59:00Z</time>
      </trkpt>
      <trkpt lat="44.68676" lon="6.12597">
        <ele>1394.6</ele>
        <time>2022-09-18T12:59:01Z</time>
      </trkpt>
      <trkpt lat="44.68675" lon="6.1258">
        <ele>1393.8</ele>
        <time>2022-09-18T12:59:02Z</time>
      </trkpt>
      <trkpt lat="44.68674" lon="6.12562">
        <ele>1392.6</ele>
        <time>2022-09-18T12:59:03Z</time>
      </trkpt>
      <trkpt lat="44.68673" lon="6.12544">
        <ele>1391.6</ele>
        <time>2022-09-18T12:59:04Z</time>
      </trkpt>
      <trkpt lat="44.68672" lon="6.12526">
        <ele>1390.6</ele>
        <time>2022-09-18T12:59:05Z</time>
      </trkpt>
      <trkpt lat="44.68671" lon="6.12507">
        <ele>1389.8</ele>
        <time>2022-09-18T12:59:06Z</time>
      </trkpt>
      <trkpt lat="44.68671" lon="6.12488">
        <ele>1388.6</ele>
        <time>2022-09-18T12:59:07Z</time>
      </trkpt>
      <trkpt lat="44.6867" lon="6.12469">
        <ele>1387</ele>
        <time>2022-09-18T12:59:08Z</time>
      </trkpt>
      <trkpt lat="44.68671" lon="6.12449">
        <ele>1385.4</ele>
        <time>2022-09-18T12:59:09Z</time>
      </trkpt>
      <trkpt lat="44.68671" lon="6.12429">
        <ele>1383.8</ele>
        <time>2022-09-18T12:59:10Z</time>
      </trkpt>
      <trkpt lat="44.68671" lon="6.1241">
        <ele>1382.8</ele>
        <time>2022-09-18T12:59:11Z</time>
      </trkpt>
      <trkpt lat="44.68672" lon="6.12391">
        <ele>1381.4</ele>
        <time>2022-09-18T12:59:12Z</time>
      </trkpt>
      <trkpt lat="44.68672" lon="6.12372">
        <ele>1380</ele>
        <time>2022-09-18T12:59:13Z</time>
      </trkpt>
      <trkpt lat="44.68672" lon="6.12353">
        <ele>1378.4</ele>
        <time>2022-09-18T12:59:14Z</time>
      </trkpt>
      <trkpt lat="44.68672" lon="6.12334">
        <ele>1376.8</ele>
        <time>2022-09-18T12:59:15Z</time>
      </trkpt>
      <trkpt lat="44.68672" lon="6.12317">
        <ele>1375.2</ele>
        <time>2022-09-18T12:59:16Z</time>
      </trkpt>
      <trkpt lat="44.68672" lon="6.12299">
        <ele>1374.2</ele>
        <time>2022-09-18T12:59:17Z</time>
      </trkpt>
      <trkpt lat="44.68671" lon="6.12282">
        <ele>1372.6</ele>
        <time>2022-09-18T12:59:18Z</time>
      </trkpt>
      <trkpt lat="44.6867" lon="6.12265">
        <ele>1371.2</ele>
        <time>2022-09-18T12:59:19Z</time>
      </trkpt>
      <trkpt lat="44.68667" lon="6.12249">
        <ele>1370.2</ele>
        <time>2022-09-18T12:59:20Z</time>
      </trkpt>
      <trkpt lat="44.68665" lon="6.12233">
        <ele>1369.2</ele>
        <time>2022-09-18T12:59:21Z</time>
      </trkpt>
      <trkpt lat="44.68661" lon="6.12218">
        <ele>1367.8</ele>
        <time>2022-09-18T12:59:22Z</time>
      </trkpt>
      <trkpt lat="44.68656" lon="6.12204">
        <ele>1367</ele>
        <time>2022-09-18T12:59:23Z</time>
      </trkpt>
      <trkpt lat="44.6865" lon="6.1219">
        <ele>1365.6</ele>
        <time>2022-09-18T12:59:24Z</time>
      </trkpt>
      <trkpt lat="44.68643" lon="6.12177">
        <ele>1365</ele>
        <time>2022-09-18T12:59:25Z</time>
      </trkpt>
      <trkpt lat="44.68636" lon="6.12164">
        <ele>1364.2</ele>
        <time>2022-09-18T12:59:26Z</time>
      </trkpt>
      <trkpt lat="44.68628" lon="6.12152">
        <ele>1363.2</ele>
        <time>2022-09-18T12:59:27Z</time>
      </trkpt>
      <trkpt lat="44.6862" lon="6.1214">
        <ele>1362.2</ele>
        <time>2022-09-18T12:59:28Z</time>
      </trkpt>
      <trkpt lat="44.68611" lon="6.12129">
        <ele>1361</ele>
        <time>2022-09-18T12:59:29Z</time>
      </trkpt>
      <trkpt lat="44.68603" lon="6.12118">
        <ele>1360</ele>
        <time>2022-09-18T12:59:30Z</time>
      </trkpt>
      <trkpt lat="44.68595" lon="6.12105">
        <ele>1359</ele>
        <time>2022-09-18T12:59:31Z</time>
      </trkpt>
      <trkpt lat="44.68587" lon="6.12093">
        <ele>1358.2</ele>
        <time>2022-09-18T12:59:32Z</time>
      </trkpt>
      <trkpt lat="44.68579" lon="6.12081">
        <ele>1357.4</ele>
        <time>2022-09-18T12:59:33Z</time>
      </trkpt>
      <trkpt lat="44.68571" lon="6.12067">
        <ele>1355.4</ele>
        <time>2022-09-18T12:59:34Z</time>
      </trkpt>
      <trkpt lat="44.68563" lon="6.12054">
        <ele>1355</ele>
        <time>2022-09-18T12:59:35Z</time>
      </trkpt>
      <trkpt lat="44.68557" lon="6.1204">
        <ele>1353.8</ele>
        <time>2022-09-18T12:59:36Z</time>
      </trkpt>
      <trkpt lat="44.68551" lon="6.12027">
        <ele>1352.8</ele>
        <time>2022-09-18T12:59:37Z</time>
      </trkpt>
      <trkpt lat="44.68545" lon="6.12015">
        <ele>1351.2</ele>
        <time>2022-09-18T12:59:38Z</time>
      </trkpt>
      <trkpt lat="44.6854" lon="6.12002">
        <ele>1350.2</ele>
        <time>2022-09-18T12:59:39Z</time>
      </trkpt>
      <trkpt lat="44.68534" lon="6.1199">
        <ele>1349.2</ele>
        <time>2022-09-18T12:59:40Z</time>
      </trkpt>
      <trkpt lat="44.68527" lon="6.11977">
        <ele>1348.2</ele>
        <time>2022-09-18T12:59:41Z</time>
      </trkpt>
      <trkpt lat="44.6852" lon="6.11965">
        <ele>1347.4</ele>
        <time>2022-09-18T12:59:42Z</time>
      </trkpt>
      <trkpt lat="44.68512" lon="6.11952">
        <ele>1346.6</ele>
        <time>2022-09-18T12:59:43Z</time>
      </trkpt>
      <trkpt lat="44.68505" lon="6.11939">
        <ele>1345.8</ele>
        <time>2022-09-18T12:59:44Z</time>
      </trkpt>
      <trkpt lat="44.68498" lon="6.11927">
        <ele>1344.8</ele>
        <time>2022-09-18T12:59:45Z</time>
      </trkpt>
      <trkpt lat="44.6849" lon="6.11915">
        <ele>1344</ele>
        <time>2022-09-18T12:59:46Z</time>
      </trkpt>
      <trkpt lat="44.68482" lon="6.11904">
        <ele>1342.4</ele>
        <time>2022-09-18T12:59:47Z</time>
      </trkpt>
      <trkpt lat="44.68474" lon="6.11892">
        <ele>1341</ele>
        <time>2022-09-18T12:59:48Z</time>
      </trkpt>
      <trkpt lat="44.68466" lon="6.11882">
        <ele>1340</ele>
        <time>2022-09-18T12:59:49Z</time>
      </trkpt>
      <trkpt lat="44.68457" lon="6.11872">
        <ele>1339.4</ele>
        <time>2022-09-18T12:59:50Z</time>
      </trkpt>
      <trkpt lat="44.68447" lon="6.11863">
        <ele>1338.6</ele>
        <time>2022-09-18T12:59:51Z</time>
      </trkpt>
      <trkpt lat="44.68438" lon="6.11853">
        <ele>1337.4</ele>
        <time>2022-09-18T12:59:52Z</time>
      </trkpt>
      <trkpt lat="44.68428" lon="6.11843">
        <ele>1336.6</ele>
        <time>2022-09-18T12:59:53Z</time>
      </trkpt>
      <trkpt lat="44.68419" lon="6.11833">
        <ele>1335.4</ele>
        <time>2022-09-18T12:59:54Z</time>
      </trkpt>
      <trkpt lat="44.6841" lon="6.11824">
        <ele>1334.4</ele>
        <time>2022-09-18T12:59:55Z</time>
      </trkpt>
      <trkpt lat="44.684" lon="6.11815">
        <ele>1333.4</ele>
        <time>2022-09-18T12:59:56Z</time>
      </trkpt>
      <trkpt lat="44.6839" lon="6.11805">
        <ele>1331.6</ele>
        <time>2022-09-18T12:59:57Z</time>
      </trkpt>
      <trkpt lat="44.68381" lon="6.11794">
        <ele>1330.6</ele>
        <time>2022-09-18T12:59:58Z</time>
      </trkpt>
      <trkpt lat="44.68375" lon="6.1178">
        <ele>1329.6</ele>
        <time>2022-09-18T12:59:59Z</time>
      </trkpt>
      <trkpt lat="44.68369" lon="6.11766">
        <ele>1329.6</ele>
        <time>2022-09-18T13:00:00Z</time>
      </trkpt>
      <trkpt lat="44.68363" lon="6.11751">
        <ele>1327.6</ele>
        <time>2022-09-18T13:00:01Z</time>
      </trkpt>
      <trkpt lat="44.68356" lon="6.11736">
        <ele>1326.4</ele>
        <time>2022-09-18T13:00:02Z</time>
      </trkpt>
      <trkpt lat="44.68348" lon="6.11722">
        <ele>1325</ele>
        <time>2022-09-18T13:00:03Z</time>
      </trkpt>
      <trkpt lat="44.68341" lon="6.11708">
        <ele>1324</ele>
        <time>2022-09-18T13:00:04Z</time>
      </trkpt>
      <trkpt lat="44.68334" lon="6.11694">
        <ele>1322.8</ele>
        <time>2022-09-18T13:00:05Z</time>
      </trkpt>
      <trkpt lat="44.68329" lon="6.11682">
        <ele>1321.4</ele>
        <time>2022-09-18T13:00:06Z</time>
      </trkpt>
      <trkpt lat="44.68324" lon="6.11667">
        <ele>1320.6</ele>
        <time>2022-09-18T13:00:07Z</time>
      </trkpt>
      <trkpt lat="44.6832" lon="6.11651">
        <ele>1319.4</ele>
        <time>2022-09-18T13:00:08Z</time>
      </trkpt>
      <trkpt lat="44.68317" lon="6.11635">
        <ele>1318.4</ele>
        <time>2022-09-18T13:00:09Z</time>
      </trkpt>
      <trkpt lat="44.68314" lon="6.11619">
        <ele>1317.2</ele>
        <time>2022-09-18T13:00:10Z</time>
      </trkpt>
      <trkpt lat="44.68311" lon="6.11602">
        <ele>1316</ele>
        <time>2022-09-18T13:00:11Z</time>
      </trkpt>
      <trkpt lat="44.68309" lon="6.11585">
        <ele>1315</ele>
        <time>2022-09-18T13:00:12Z</time>
      </trkpt>
      <trkpt lat="44.68306" lon="6.11569">
        <ele>1314.2</ele>
        <time>2022-09-18T13:00:13Z</time>
      </trkpt>
      <trkpt lat="44.68305" lon="6.11553">
        <ele>1312.8</ele>
        <time>2022-09-18T13:00:14Z</time>
      </trkpt>
      <trkpt lat="44.68304" lon="6.11536">
        <ele>1311.8</ele>
        <time>2022-09-18T13:00:15Z</time>
      </trkpt>
      <trkpt lat="44.68305" lon="6.11519">
        <ele>1310.4</ele>
        <time>2022-09-18T13:00:16Z</time>
      </trkpt>
      <trkpt lat="44.68306" lon="6.11503">
        <ele>1308.8</ele>
        <time>2022-09-18T13:00:17Z</time>
      </trkpt>
      <trkpt lat="44.68305" lon="6.11486">
        <ele>1308</ele>
        <time>2022-09-18T13:00:18Z</time>
      </trkpt>
      <trkpt lat="44.68304" lon="6.1147">
        <ele>1307.2</ele>
        <time>2022-09-18T13:00:19Z</time>
      </trkpt>
      <trkpt lat="44.683" lon="6.11454">
        <ele>1305.6</ele>
        <time>2022-09-18T13:00:20Z</time>
      </trkpt>
      <trkpt lat="44.68296" lon="6.11439">
        <ele>1304.8</ele>
        <time>2022-09-18T13:00:21Z</time>
      </trkpt>
      <trkpt lat="44.68289" lon="6.11425">
        <ele>1304</ele>
        <time>2022-09-18T13:00:22Z</time>
      </trkpt>
      <trkpt lat="44.68282" lon="6.11413">
        <ele>1303.2</ele>
        <time>2022-09-18T13:00:23Z</time>
      </trkpt>
      <trkpt lat="44.68275" lon="6.11402">
        <ele>1302.2</ele>
        <time>2022-09-18T13:00:24Z</time>
      </trkpt>
      <trkpt lat="44.68267" lon="6.11392">
        <ele>1301.2</ele>
        <time>2022-09-18T13:00:25Z</time>
      </trkpt>
      <trkpt lat="44.68258" lon="6.11382">
        <ele>1300.4</ele>
        <time>2022-09-18T13:00:26Z</time>
      </trkpt>
      <trkpt lat="44.6825" lon="6.11373">
        <ele>1299.4</ele>
        <time>2022-09-18T13:00:27Z</time>
      </trkpt>
      <trkpt lat="44.68242" lon="6.11363">
        <ele>1298.8</ele>
        <time>2022-09-18T13:00:28Z</time>
      </trkpt>
      <trkpt lat="44.68235" lon="6.11352">
        <ele>1297.8</ele>
        <time>2022-09-18T13:00:29Z</time>
      </trkpt>
      <trkpt lat="44.68228" lon="6.11339">
        <ele>1296.8</ele>
        <time>2022-09-18T13:00:30Z</time>
      </trkpt>
      <trkpt lat="44.68223" lon="6.11325">
        <ele>1296</ele>
        <time>2022-09-18T13:00:31Z</time>
      </trkpt>
      <trkpt lat="44.68218" lon="6.1131">
        <ele>1295.4</ele>
        <time>2022-09-18T13:00:32Z</time>
      </trkpt>
      <trkpt lat="44.68214" lon="6.11295">
        <ele>1294.6</ele>
        <time>2022-09-18T13:00:33Z</time>
      </trkpt>
      <trkpt lat="44.68211" lon="6.11279">
        <ele>1294</ele>
        <time>2022-09-18T13:00:34Z</time>
      </trkpt>
      <trkpt lat="44.68209" lon="6.11263">
        <ele>1293</ele>
        <time>2022-09-18T13:00:35Z</time>
      </trkpt>
      <trkpt lat="44.68207" lon="6.11247">
        <ele>1291.8</ele>
        <time>2022-09-18T13:00:36Z</time>
      </trkpt>
      <trkpt lat="44.68205" lon="6.11231">
        <ele>1291.8</ele>
        <time>2022-09-18T13:00:37Z</time>
      </trkpt>
      <trkpt lat="44.68202" lon="6.11215">
        <ele>1290.6</ele>
        <time>2022-09-18T13:00:38Z</time>
      </trkpt>
      <trkpt lat="44.68199" lon="6.11198">
        <ele>1290.2</ele>
        <time>2022-09-18T13:00:39Z</time>
      </trkpt>
      <trkpt lat="44.68195" lon="6.11182">
        <ele>1289.2</ele>
        <time>2022-09-18T13:00:40Z</time>
      </trkpt>
      <trkpt lat="44.68193" lon="6.11165">
        <ele>1288.6</ele>
        <time>2022-09-18T13:00:41Z</time>
      </trkpt>
      <trkpt lat="44.6819" lon="6.11147">
        <ele>1287.8</ele>
        <time>2022-09-18T13:00:42Z</time>
      </trkpt>
      <trkpt lat="44.68188" lon="6.1113">
        <ele>1286.4</ele>
        <time>2022-09-18T13:00:43Z</time>
      </trkpt>
      <trkpt lat="44.68185" lon="6.11114">
        <ele>1285.4</ele>
        <time>2022-09-18T13:00:44Z</time>
      </trkpt>
      <trkpt lat="44.68181" lon="6.11099">
        <ele>1284.2</ele>
        <time>2022-09-18T13:00:45Z</time>
      </trkpt>
      <trkpt lat="44.68178" lon="6.11083">
        <ele>1283</ele>
        <time>2022-09-18T13:00:46Z</time>
      </trkpt>
      <trkpt lat="44.68176" lon="6.11069">
        <ele>1281.4</ele>
        <time>2022-09-18T13:00:47Z</time>
      </trkpt>
      <trkpt lat="44.68174" lon="6.11053">
        <ele>1280.6</ele>
        <time>2022-09-18T13:00:48Z</time>
      </trkpt>
      <trkpt lat="44.68172" lon="6.11037">
        <ele>1279</ele>
        <time>2022-09-18T13:00:49Z</time>
      </trkpt>
      <trkpt lat="44.68169" lon="6.11021">
        <ele>1277.6</ele>
        <time>2022-09-18T13:00:50Z</time>
      </trkpt>
      <trkpt lat="44.68167" lon="6.11004">
        <ele>1276.4</ele>
        <time>2022-09-18T13:00:51Z</time>
      </trkpt>
      <trkpt lat="44.68165" lon="6.10988">
        <ele>1275.4</ele>
        <time>2022-09-18T13:00:52Z</time>
      </trkpt>
      <trkpt lat="44.68163" lon="6.10972">
        <ele>1274.6</ele>
        <time>2022-09-18T13:00:53Z</time>
      </trkpt>
      <trkpt lat="44.68163" lon="6.10958">
        <ele>1273.8</ele>
        <time>2022-09-18T13:00:54Z</time>
      </trkpt>
      <trkpt lat="44.68163" lon="6.10945">
        <ele>1272.8</ele>
        <time>2022-09-18T13:00:55Z</time>
      </trkpt>
      <trkpt lat="44.68164" lon="6.10932">
        <ele>1270.8</ele>
        <time>2022-09-18T13:00:56Z</time>
      </trkpt>
      <trkpt lat="44.68165" lon="6.1092">
        <ele>1270.8</ele>
        <time>2022-09-18T13:00:57Z</time>
      </trkpt>
      <trkpt lat="44.68164" lon="6.10895">
        <ele>1270.2</ele>
        <time>2022-09-18T13:00:59Z</time>
      </trkpt>
      <trkpt lat="44.68158" lon="6.10872">
        <ele>1269.4</ele>
        <time>2022-09-18T13:01:01Z</time>
      </trkpt>
      <trkpt lat="44.68154" lon="6.1086">
        <ele>1269</ele>
        <time>2022-09-18T13:01:02Z</time>
      </trkpt>
      <trkpt lat="44.6815" lon="6.10848">
        <ele>1268.4</ele>
        <time>2022-09-18T13:01:03Z</time>
      </trkpt>
      <trkpt lat="44.68146" lon="6.10836">
        <ele>1267.8</ele>
        <time>2022-09-18T13:01:04Z</time>
      </trkpt>
      <trkpt lat="44.68143" lon="6.10823">
        <ele>1267.2</ele>
        <time>2022-09-18T13:01:05Z</time>
      </trkpt>
      <trkpt lat="44.68141" lon="6.1081">
        <ele>1266.4</ele>
        <time>2022-09-18T13:01:06Z</time>
      </trkpt>
      <trkpt lat="44.68138" lon="6.10796">
        <ele>1265.4</ele>
        <time>2022-09-18T13:01:07Z</time>
      </trkpt>
      <trkpt lat="44.68135" lon="6.10781">
        <ele>1264.6</ele>
        <time>2022-09-18T13:01:08Z</time>
      </trkpt>
      <trkpt lat="44.68131" lon="6.10766">
        <ele>1264.4</ele>
        <time>2022-09-18T13:01:09Z</time>
      </trkpt>
      <trkpt lat="44.68125" lon="6.10751">
        <ele>1263</ele>
        <time>2022-09-18T13:01:10Z</time>
      </trkpt>
      <trkpt lat="44.68119" lon="6.10737">
        <ele>1261.8</ele>
        <time>2022-09-18T13:01:11Z</time>
      </trkpt>
      <trkpt lat="44.68114" lon="6.10724">
        <ele>1260.6</ele>
        <time>2022-09-18T13:01:12Z</time>
      </trkpt>
      <trkpt lat="44.68109" lon="6.1071">
        <ele>1259.2</ele>
        <time>2022-09-18T13:01:13Z</time>
      </trkpt>
      <trkpt lat="44.68104" lon="6.10698">
        <ele>1258</ele>
        <time>2022-09-18T13:01:14Z</time>
      </trkpt>
      <trkpt lat="44.68099" lon="6.10686">
        <ele>1257</ele>
        <time>2022-09-18T13:01:15Z</time>
      </trkpt>
      <trkpt lat="44.68095" lon="6.10674">
        <ele>1256</ele>
        <time>2022-09-18T13:01:16Z</time>
      </trkpt>
      <trkpt lat="44.68092" lon="6.10662">
        <ele>1254.8</ele>
        <time>2022-09-18T13:01:17Z</time>
      </trkpt>
      <trkpt lat="44.6809" lon="6.10651">
        <ele>1253.6</ele>
        <time>2022-09-18T13:01:18Z</time>
      </trkpt>
      <trkpt lat="44.68089" lon="6.1064">
        <ele>1252.8</ele>
        <time>2022-09-18T13:01:19Z</time>
      </trkpt>
      <trkpt lat="44.68087" lon="6.10631">
        <ele>1251.8</ele>
        <time>2022-09-18T13:01:20Z</time>
      </trkpt>
      <trkpt lat="44.68086" lon="6.10622">
        <ele>1250.6</ele>
        <time>2022-09-18T13:01:21Z</time>
      </trkpt>
      <trkpt lat="44.68086" lon="6.10614">
        <ele>1250</ele>
        <time>2022-09-18T13:01:22Z</time>
      </trkpt>
      <trkpt lat="44.68085" lon="6.10607">
        <ele>1249.4</ele>
        <time>2022-09-18T13:01:23Z</time>
      </trkpt>
      <trkpt lat="44.68084" lon="6.10601">
        <ele>1248.8</ele>
        <time>2022-09-18T13:01:24Z</time>
      </trkpt>
      <trkpt lat="44.68083" lon="6.10596">
        <ele>1248.6</ele>
        <time>2022-09-18T13:01:25Z</time>
      </trkpt>
      <trkpt lat="44.68083" lon="6.10593">
        <ele>1248.2</ele>
        <time>2022-09-18T13:01:26Z</time>
      </trkpt>
      <trkpt lat="44.68083" lon="6.10589">
        <ele>1247.2</ele>
        <time>2022-09-18T13:01:28Z</time>
      </trkpt>
      <trkpt lat="44.68083" lon="6.10584">
        <ele>1246.4</ele>
        <time>2022-09-18T13:01:30Z</time>
      </trkpt>
      <trkpt lat="44.68085" lon="6.10586">
        <ele>1245</ele>
        <time>2022-09-18T13:01:44Z</time>
      </trkpt>
      <trkpt lat="44.68084" lon="6.10581">
        <ele>1244.6</ele>
        <time>2022-09-18T13:01:52Z</time>
      </trkpt>
      <trkpt lat="44.68083" lon="6.10578">
        <ele>1244.6</ele>
        <time>2022-09-18T13:01:53Z</time>
      </trkpt>
      <trkpt lat="44.68082" lon="6.10573">
        <ele>1244.6</ele>
        <time>2022-09-18T13:01:54Z</time>
      </trkpt>
      <trkpt lat="44.6808" lon="6.10568">
        <ele>1244.6</ele>
        <time>2022-09-18T13:01:55Z</time>
      </trkpt>
      <trkpt lat="44.68079" lon="6.10561">
        <ele>1244.4</ele>
        <time>2022-09-18T13:01:56Z</time>
      </trkpt>
      <trkpt lat="44.68078" lon="6.10553">
        <ele>1244</ele>
        <time>2022-09-18T13:01:57Z</time>
      </trkpt>
      <trkpt lat="44.68076" lon="6.10546">
        <ele>1243.6</ele>
        <time>2022-09-18T13:01:58Z</time>
      </trkpt>
      <trkpt lat="44.68075" lon="6.10538">
        <ele>1243.2</ele>
        <time>2022-09-18T13:01:59Z</time>
      </trkpt>
      <trkpt lat="44.68074" lon="6.10531">
        <ele>1242.6</ele>
        <time>2022-09-18T13:02:00Z</time>
      </trkpt>
      <trkpt lat="44.68074" lon="6.10524">
        <ele>1242</ele>
        <time>2022-09-18T13:02:01Z</time>
      </trkpt>
      <trkpt lat="44.68073" lon="6.10518">
        <ele>1241.2</ele>
        <time>2022-09-18T13:02:02Z</time>
      </trkpt>
      <trkpt lat="44.68073" lon="6.1051">
        <ele>1240.6</ele>
        <time>2022-09-18T13:02:03Z</time>
      </trkpt>
      <trkpt lat="44.68074" lon="6.10502">
        <ele>1240.2</ele>
        <time>2022-09-18T13:02:04Z</time>
      </trkpt>
      <trkpt lat="44.68074" lon="6.10493">
        <ele>1239.4</ele>
        <time>2022-09-18T13:02:05Z</time>
      </trkpt>
      <trkpt lat="44.68075" lon="6.10486">
        <ele>1238.6</ele>
        <time>2022-09-18T13:02:06Z</time>
      </trkpt>
      <trkpt lat="44.68075" lon="6.10479">
        <ele>1238.2</ele>
        <time>2022-09-18T13:02:07Z</time>
      </trkpt>
      <trkpt lat="44.68075" lon="6.10471">
        <ele>1237.8</ele>
        <time>2022-09-18T13:02:08Z</time>
      </trkpt>
      <trkpt lat="44.68075" lon="6.10463">
        <ele>1237</ele>
        <time>2022-09-18T13:02:09Z</time>
      </trkpt>
      <trkpt lat="44.68075" lon="6.10455">
        <ele>1236.6</ele>
        <time>2022-09-18T13:02:10Z</time>
      </trkpt>
      <trkpt lat="44.68074" lon="6.10447">
        <ele>1236</ele>
        <time>2022-09-18T13:02:11Z</time>
      </trkpt>
      <trkpt lat="44.68074" lon="6.1044">
        <ele>1235.8</ele>
        <time>2022-09-18T13:02:12Z</time>
      </trkpt>
      <trkpt lat="44.68073" lon="6.10433">
        <ele>1235.2</ele>
        <time>2022-09-18T13:02:13Z</time>
      </trkpt>
      <trkpt lat="44.68071" lon="6.10425">
        <ele>1234.4</ele>
        <time>2022-09-18T13:02:14Z</time>
      </trkpt>
      <trkpt lat="44.68068" lon="6.10417">
        <ele>1233.8</ele>
        <time>2022-09-18T13:02:15Z</time>
      </trkpt>
      <trkpt lat="44.68066" lon="6.10409">
        <ele>1233.2</ele>
        <time>2022-09-18T13:02:16Z</time>
      </trkpt>
      <trkpt lat="44.68064" lon="6.104">
        <ele>1232.8</ele>
        <time>2022-09-18T13:02:17Z</time>
      </trkpt>
      <trkpt lat="44.68061" lon="6.10391">
        <ele>1232</ele>
        <time>2022-09-18T13:02:18Z</time>
      </trkpt>
      <trkpt lat="44.68059" lon="6.10382">
        <ele>1231.4</ele>
        <time>2022-09-18T13:02:19Z</time>
      </trkpt>
      <trkpt lat="44.68057" lon="6.10372">
        <ele>1230.6</ele>
        <time>2022-09-18T13:02:20Z</time>
      </trkpt>
      <trkpt lat="44.68054" lon="6.10363">
        <ele>1230.2</ele>
        <time>2022-09-18T13:02:21Z</time>
      </trkpt>
      <trkpt lat="44.68051" lon="6.10353">
        <ele>1229.6</ele>
        <time>2022-09-18T13:02:22Z</time>
      </trkpt>
      <trkpt lat="44.68049" lon="6.10344">
        <ele>1228.8</ele>
        <time>2022-09-18T13:02:23Z</time>
      </trkpt>
      <trkpt lat="44.68047" lon="6.10334">
        <ele>1228.2</ele>
        <time>2022-09-18T13:02:24Z</time>
      </trkpt>
      <trkpt lat="44.68045" lon="6.10323">
        <ele>1227.2</ele>
        <time>2022-09-18T13:02:25Z</time>
      </trkpt>
      <trkpt lat="44.68043" lon="6.10313">
        <ele>1226.6</ele>
        <time>2022-09-18T13:02:26Z</time>
      </trkpt>
      <trkpt lat="44.68041" lon="6.10303">
        <ele>1226</ele>
        <time>2022-09-18T13:02:27Z</time>
      </trkpt>
      <trkpt lat="44.68039" lon="6.10293">
        <ele>1225</ele>
        <time>2022-09-18T13:02:28Z</time>
      </trkpt>
      <trkpt lat="44.68036" lon="6.10284">
        <ele>1224.6</ele>
        <time>2022-09-18T13:02:29Z</time>
      </trkpt>
      <trkpt lat="44.68034" lon="6.10275">
        <ele>1223.8</ele>
        <time>2022-09-18T13:02:30Z</time>
      </trkpt>
      <trkpt lat="44.68033" lon="6.10266">
        <ele>1223</ele>
        <time>2022-09-18T13:02:31Z</time>
      </trkpt>
      <trkpt lat="44.68031" lon="6.10258">
        <ele>1222.4</ele>
        <time>2022-09-18T13:02:32Z</time>
      </trkpt>
      <trkpt lat="44.68029" lon="6.10249">
        <ele>1221.8</ele>
        <time>2022-09-18T13:02:33Z</time>
      </trkpt>
      <trkpt lat="44.68028" lon="6.1024">
        <ele>1221.4</ele>
        <time>2022-09-18T13:02:34Z</time>
      </trkpt>
      <trkpt lat="44.68026" lon="6.1023">
        <ele>1220.8</ele>
        <time>2022-09-18T13:02:35Z</time>
      </trkpt>
      <trkpt lat="44.68026" lon="6.10219">
        <ele>1220.4</ele>
        <time>2022-09-18T13:02:36Z</time>
      </trkpt>
      <trkpt lat="44.68026" lon="6.10208">
        <ele>1220.2</ele>
        <time>2022-09-18T13:02:37Z</time>
      </trkpt>
      <trkpt lat="44.68029" lon="6.10196">
        <ele>1219.6</ele>
        <time>2022-09-18T13:02:38Z</time>
      </trkpt>
      <trkpt lat="44.68034" lon="6.10184">
        <ele>1218.6</ele>
        <time>2022-09-18T13:02:39Z</time>
      </trkpt>
      <trkpt lat="44.68038" lon="6.10172">
        <ele>1218.2</ele>
        <time>2022-09-18T13:02:40Z</time>
      </trkpt>
      <trkpt lat="44.68042" lon="6.1016">
        <ele>1217.8</ele>
        <time>2022-09-18T13:02:41Z</time>
      </trkpt>
      <trkpt lat="44.68044" lon="6.10148">
        <ele>1217</ele>
        <time>2022-09-18T13:02:42Z</time>
      </trkpt>
      <trkpt lat="44.68046" lon="6.10135">
        <ele>1216.2</ele>
        <time>2022-09-18T13:02:43Z</time>
      </trkpt>
      <trkpt lat="44.68047" lon="6.10123">
        <ele>1215</ele>
        <time>2022-09-18T13:02:44Z</time>
      </trkpt>
      <trkpt lat="44.68048" lon="6.1011">
        <ele>1214.4</ele>
        <time>2022-09-18T13:02:45Z</time>
      </trkpt>
      <trkpt lat="44.68049" lon="6.10097">
        <ele>1213.6</ele>
        <time>2022-09-18T13:02:46Z</time>
      </trkpt>
      <trkpt lat="44.68048" lon="6.10084">
        <ele>1212.4</ele>
        <time>2022-09-18T13:02:47Z</time>
      </trkpt>
      <trkpt lat="44.68048" lon="6.1007">
        <ele>1211.2</ele>
        <time>2022-09-18T13:02:48Z</time>
      </trkpt>
      <trkpt lat="44.68047" lon="6.10056">
        <ele>1210</ele>
        <time>2022-09-18T13:02:49Z</time>
      </trkpt>
      <trkpt lat="44.68046" lon="6.10043">
        <ele>1209.6</ele>
        <time>2022-09-18T13:02:50Z</time>
      </trkpt>
      <trkpt lat="44.68045" lon="6.1003">
        <ele>1209</ele>
        <time>2022-09-18T13:02:51Z</time>
      </trkpt>
      <trkpt lat="44.68044" lon="6.10017">
        <ele>1208.4</ele>
        <time>2022-09-18T13:02:52Z</time>
      </trkpt>
      <trkpt lat="44.68043" lon="6.10007">
        <ele>1207.2</ele>
        <time>2022-09-18T13:02:53Z</time>
      </trkpt>
      <trkpt lat="44.68044" lon="6.09987">
        <ele>1205.8</ele>
        <time>2022-09-18T13:02:55Z</time>
      </trkpt>
      <trkpt lat="44.68047" lon="6.09977">
        <ele>1205.8</ele>
        <time>2022-09-18T13:02:56Z</time>
      </trkpt>
      <trkpt lat="44.68052" lon="6.0996">
        <ele>1204.8</ele>
        <time>2022-09-18T13:02:58Z</time>
      </trkpt>
      <trkpt lat="44.68053" lon="6.09954">
        <ele>1203.8</ele>
        <time>2022-09-18T13:02:59Z</time>
      </trkpt>
      <trkpt lat="44.68054" lon="6.09949">
        <ele>1203.4</ele>
        <time>2022-09-18T13:03:00Z</time>
      </trkpt>
      <trkpt lat="44.68056" lon="6.09944">
        <ele>1202</ele>
        <time>2022-09-18T13:03:02Z</time>
      </trkpt>
      <trkpt lat="44.68057" lon="6.0994">
        <ele>1201.8</ele>
        <time>2022-09-18T13:03:03Z</time>
      </trkpt>
      <trkpt lat="44.68058" lon="6.09936">
        <ele>1201.8</ele>
        <time>2022-09-18T13:03:04Z</time>
      </trkpt>
      <trkpt lat="44.6806" lon="6.09933">
        <ele>1201.6</ele>
        <time>2022-09-18T13:03:05Z</time>
      </trkpt>
      <trkpt lat="44.68062" lon="6.09929">
        <ele>1201.4</ele>
        <time>2022-09-18T13:03:06Z</time>
      </trkpt>
      <trkpt lat="44.68064" lon="6.09926">
        <ele>1200.6</ele>
        <time>2022-09-18T13:03:07Z</time>
      </trkpt>
      <trkpt lat="44.68065" lon="6.09922">
        <ele>1200.2</ele>
        <time>2022-09-18T13:03:08Z</time>
      </trkpt>
      <trkpt lat="44.68067" lon="6.09917">
        <ele>1199.8</ele>
        <time>2022-09-18T13:03:09Z</time>
      </trkpt>
      <trkpt lat="44.68069" lon="6.09913">
        <ele>1199.6</ele>
        <time>2022-09-18T13:03:10Z</time>
      </trkpt>
      <trkpt lat="44.68071" lon="6.09908">
        <ele>1199.2</ele>
        <time>2022-09-18T13:03:11Z</time>
      </trkpt>
      <trkpt lat="44.68073" lon="6.09902">
        <ele>1198.8</ele>
        <time>2022-09-18T13:03:12Z</time>
      </trkpt>
      <trkpt lat="44.68075" lon="6.09896">
        <ele>1198.6</ele>
        <time>2022-09-18T13:03:13Z</time>
      </trkpt>
      <trkpt lat="44.68077" lon="6.0989">
        <ele>1198.2</ele>
        <time>2022-09-18T13:03:14Z</time>
      </trkpt>
      <trkpt lat="44.6808" lon="6.09884">
        <ele>1198</ele>
        <time>2022-09-18T13:03:15Z</time>
      </trkpt>
      <trkpt lat="44.68083" lon="6.09877">
        <ele>1197.2</ele>
        <time>2022-09-18T13:03:16Z</time>
      </trkpt>
      <trkpt lat="44.68085" lon="6.09869">
        <ele>1197</ele>
        <time>2022-09-18T13:03:17Z</time>
      </trkpt>
      <trkpt lat="44.68088" lon="6.09862">
        <ele>1196.4</ele>
        <time>2022-09-18T13:03:18Z</time>
      </trkpt>
      <trkpt lat="44.68091" lon="6.09854">
        <ele>1196</ele>
        <time>2022-09-18T13:03:19Z</time>
      </trkpt>
      <trkpt lat="44.68094" lon="6.09845">
        <ele>1195.6</ele>
        <time>2022-09-18T13:03:20Z</time>
      </trkpt>
      <trkpt lat="44.68098" lon="6.09837">
        <ele>1195.2</ele>
        <time>2022-09-18T13:03:21Z</time>
      </trkpt>
      <trkpt lat="44.68101" lon="6.09829">
        <ele>1194.8</ele>
        <time>2022-09-18T13:03:22Z</time>
      </trkpt>
      <trkpt lat="44.68105" lon="6.0982">
        <ele>1194</ele>
        <time>2022-09-18T13:03:23Z</time>
      </trkpt>
      <trkpt lat="44.68109" lon="6.09811">
        <ele>1193.6</ele>
        <time>2022-09-18T13:03:24Z</time>
      </trkpt>
      <trkpt lat="44.68112" lon="6.09802">
        <ele>1193</ele>
        <time>2022-09-18T13:03:25Z</time>
      </trkpt>
      <trkpt lat="44.68116" lon="6.09793">
        <ele>1192.4</ele>
        <time>2022-09-18T13:03:26Z</time>
      </trkpt>
      <trkpt lat="44.6812" lon="6.09784">
        <ele>1191.8</ele>
        <time>2022-09-18T13:03:27Z</time>
      </trkpt>
      <trkpt lat="44.68124" lon="6.09775">
        <ele>1191.2</ele>
        <time>2022-09-18T13:03:28Z</time>
      </trkpt>
      <trkpt lat="44.68128" lon="6.09765">
        <ele>1190.4</ele>
        <time>2022-09-18T13:03:29Z</time>
      </trkpt>
      <trkpt lat="44.68132" lon="6.09754">
        <ele>1189.8</ele>
        <time>2022-09-18T13:03:30Z</time>
      </trkpt>
      <trkpt lat="44.68136" lon="6.09743">
        <ele>1189.4</ele>
        <time>2022-09-18T13:03:31Z</time>
      </trkpt>
      <trkpt lat="44.68141" lon="6.09732">
        <ele>1188.6</ele>
        <time>2022-09-18T13:03:32Z</time>
      </trkpt>
      <trkpt lat="44.68145" lon="6.09721">
        <ele>1188</ele>
        <time>2022-09-18T13:03:33Z</time>
      </trkpt>
      <trkpt lat="44.68149" lon="6.0971">
        <ele>1187.2</ele>
        <time>2022-09-18T13:03:34Z</time>
      </trkpt>
      <trkpt lat="44.68153" lon="6.097">
        <ele>1186.4</ele>
        <time>2022-09-18T13:03:35Z</time>
      </trkpt>
      <trkpt lat="44.68156" lon="6.09691">
        <ele>1185.4</ele>
        <time>2022-09-18T13:03:36Z</time>
      </trkpt>
      <trkpt lat="44.6816" lon="6.09681">
        <ele>1184.4</ele>
        <time>2022-09-18T13:03:37Z</time>
      </trkpt>
      <trkpt lat="44.68164" lon="6.09671">
        <ele>1183.6</ele>
        <time>2022-09-18T13:03:38Z</time>
      </trkpt>
      <trkpt lat="44.68168" lon="6.0966">
        <ele>1183</ele>
        <time>2022-09-18T13:03:39Z</time>
      </trkpt>
      <trkpt lat="44.68172" lon="6.09648">
        <ele>1182.2</ele>
        <time>2022-09-18T13:03:40Z</time>
      </trkpt>
      <trkpt lat="44.68176" lon="6.09636">
        <ele>1181.4</ele>
        <time>2022-09-18T13:03:41Z</time>
      </trkpt>
      <trkpt lat="44.68179" lon="6.09624">
        <ele>1180.4</ele>
        <time>2022-09-18T13:03:42Z</time>
      </trkpt>
      <trkpt lat="44.68181" lon="6.09612">
        <ele>1179.6</ele>
        <time>2022-09-18T13:03:43Z</time>
      </trkpt>
      <trkpt lat="44.68184" lon="6.09599">
        <ele>1178.4</ele>
        <time>2022-09-18T13:03:44Z</time>
      </trkpt>
      <trkpt lat="44.68186" lon="6.09586">
        <ele>1177.6</ele>
        <time>2022-09-18T13:03:45Z</time>
      </trkpt>
      <trkpt lat="44.68188" lon="6.09573">
        <ele>1177</ele>
        <time>2022-09-18T13:03:46Z</time>
      </trkpt>
      <trkpt lat="44.6819" lon="6.09559">
        <ele>1176</ele>
        <time>2022-09-18T13:03:47Z</time>
      </trkpt>
      <trkpt lat="44.68192" lon="6.09545">
        <ele>1175.2</ele>
        <time>2022-09-18T13:03:48Z</time>
      </trkpt>
      <trkpt lat="44.68193" lon="6.09532">
        <ele>1174.4</ele>
        <time>2022-09-18T13:03:49Z</time>
      </trkpt>
      <trkpt lat="44.68195" lon="6.09518">
        <ele>1173.4</ele>
        <time>2022-09-18T13:03:50Z</time>
      </trkpt>
      <trkpt lat="44.68197" lon="6.09503">
        <ele>1172.8</ele>
        <time>2022-09-18T13:03:51Z</time>
      </trkpt>
      <trkpt lat="44.682" lon="6.09489">
        <ele>1172.2</ele>
        <time>2022-09-18T13:03:52Z</time>
      </trkpt>
      <trkpt lat="44.68203" lon="6.09474">
        <ele>1171.6</ele>
        <time>2022-09-18T13:03:53Z</time>
      </trkpt>
      <trkpt lat="44.68206" lon="6.09459">
        <ele>1170.8</ele>
        <time>2022-09-18T13:03:54Z</time>
      </trkpt>
      <trkpt lat="44.68208" lon="6.09443">
        <ele>1170</ele>
        <time>2022-09-18T13:03:55Z</time>
      </trkpt>
      <trkpt lat="44.68211" lon="6.09427">
        <ele>1168.8</ele>
        <time>2022-09-18T13:03:56Z</time>
      </trkpt>
      <trkpt lat="44.68214" lon="6.09411">
        <ele>1168.2</ele>
        <time>2022-09-18T13:03:57Z</time>
      </trkpt>
      <trkpt lat="44.68217" lon="6.09395">
        <ele>1167</ele>
        <time>2022-09-18T13:03:58Z</time>
      </trkpt>
      <trkpt lat="44.6822" lon="6.09379">
        <ele>1165.8</ele>
        <time>2022-09-18T13:03:59Z</time>
      </trkpt>
      <trkpt lat="44.68223" lon="6.09364">
        <ele>1165.2</ele>
        <time>2022-09-18T13:04:00Z</time>
      </trkpt>
      <trkpt lat="44.68226" lon="6.09348">
        <ele>1164</ele>
        <time>2022-09-18T13:04:01Z</time>
      </trkpt>
      <trkpt lat="44.68228" lon="6.09333">
        <ele>1163.2</ele>
        <time>2022-09-18T13:04:02Z</time>
      </trkpt>
      <trkpt lat="44.68232" lon="6.09319">
        <ele>1162.2</ele>
        <time>2022-09-18T13:04:03Z</time>
      </trkpt>
      <trkpt lat="44.68235" lon="6.09304">
        <ele>1161.4</ele>
        <time>2022-09-18T13:04:04Z</time>
      </trkpt>
      <trkpt lat="44.68239" lon="6.09289">
        <ele>1160.6</ele>
        <time>2022-09-18T13:04:05Z</time>
      </trkpt>
      <trkpt lat="44.68243" lon="6.09274">
        <ele>1159.6</ele>
        <time>2022-09-18T13:04:06Z</time>
      </trkpt>
      <trkpt lat="44.68247" lon="6.0926">
        <ele>1158.8</ele>
        <time>2022-09-18T13:04:07Z</time>
      </trkpt>
      <trkpt lat="44.68252" lon="6.09245">
        <ele>1158</ele>
        <time>2022-09-18T13:04:08Z</time>
      </trkpt>
      <trkpt lat="44.68257" lon="6.0923">
        <ele>1156.8</ele>
        <time>2022-09-18T13:04:09Z</time>
      </trkpt>
      <trkpt lat="44.68262" lon="6.09216">
        <ele>1155.8</ele>
        <time>2022-09-18T13:04:10Z</time>
      </trkpt>
      <trkpt lat="44.68267" lon="6.09201">
        <ele>1155.2</ele>
        <time>2022-09-18T13:04:11Z</time>
      </trkpt>
      <trkpt lat="44.68271" lon="6.09187">
        <ele>1154.6</ele>
        <time>2022-09-18T13:04:12Z</time>
      </trkpt>
      <trkpt lat="44.68276" lon="6.09172">
        <ele>1153.6</ele>
        <time>2022-09-18T13:04:13Z</time>
      </trkpt>
      <trkpt lat="44.68281" lon="6.09157">
        <ele>1152.2</ele>
        <time>2022-09-18T13:04:14Z</time>
      </trkpt>
      <trkpt lat="44.68285" lon="6.09142">
        <ele>1151.4</ele>
        <time>2022-09-18T13:04:15Z</time>
      </trkpt>
      <trkpt lat="44.6829" lon="6.09127">
        <ele>1150.8</ele>
        <time>2022-09-18T13:04:16Z</time>
      </trkpt>
      <trkpt lat="44.68294" lon="6.09112">
        <ele>1150</ele>
        <time>2022-09-18T13:04:17Z</time>
      </trkpt>
      <trkpt lat="44.68299" lon="6.09097">
        <ele>1148.8</ele>
        <time>2022-09-18T13:04:18Z</time>
      </trkpt>
      <trkpt lat="44.68304" lon="6.09082">
        <ele>1147.8</ele>
        <time>2022-09-18T13:04:19Z</time>
      </trkpt>
      <trkpt lat="44.68309" lon="6.09067">
        <ele>1146.6</ele>
        <time>2022-09-18T13:04:20Z</time>
      </trkpt>
      <trkpt lat="44.68313" lon="6.09053">
        <ele>1145.8</ele>
        <time>2022-09-18T13:04:21Z</time>
      </trkpt>
      <trkpt lat="44.68317" lon="6.0904">
        <ele>1144.8</ele>
        <time>2022-09-18T13:04:22Z</time>
      </trkpt>
      <trkpt lat="44.68322" lon="6.09027">
        <ele>1143.8</ele>
        <time>2022-09-18T13:04:23Z</time>
      </trkpt>
      <trkpt lat="44.68326" lon="6.09014">
        <ele>1142.6</ele>
        <time>2022-09-18T13:04:24Z</time>
      </trkpt>
      <trkpt lat="44.6833" lon="6.09001">
        <ele>1142</ele>
        <time>2022-09-18T13:04:25Z</time>
      </trkpt>
      <trkpt lat="44.68334" lon="6.08988">
        <ele>1141.4</ele>
        <time>2022-09-18T13:04:26Z</time>
      </trkpt>
      <trkpt lat="44.68338" lon="6.08974">
        <ele>1140.8</ele>
        <time>2022-09-18T13:04:27Z</time>
      </trkpt>
      <trkpt lat="44.68342" lon="6.0896">
        <ele>1139.8</ele>
        <time>2022-09-18T13:04:28Z</time>
      </trkpt>
      <trkpt lat="44.68346" lon="6.08946">
        <ele>1139</ele>
        <time>2022-09-18T13:04:29Z</time>
      </trkpt>
      <trkpt lat="44.6835" lon="6.08932">
        <ele>1138.2</ele>
        <time>2022-09-18T13:04:30Z</time>
      </trkpt>
      <trkpt lat="44.68354" lon="6.08919">
        <ele>1137.4</ele>
        <time>2022-09-18T13:04:31Z</time>
      </trkpt>
      <trkpt lat="44.68359" lon="6.08906">
        <ele>1136</ele>
        <time>2022-09-18T13:04:32Z</time>
      </trkpt>
      <trkpt lat="44.68363" lon="6.08893">
        <ele>1135.2</ele>
        <time>2022-09-18T13:04:33Z</time>
      </trkpt>
      <trkpt lat="44.68367" lon="6.08881">
        <ele>1133.8</ele>
        <time>2022-09-18T13:04:34Z</time>
      </trkpt>
      <trkpt lat="44.68371" lon="6.08869">
        <ele>1133</ele>
        <time>2022-09-18T13:04:35Z</time>
      </trkpt>
      <trkpt lat="44.68375" lon="6.08856">
        <ele>1132.2</ele>
        <time>2022-09-18T13:04:36Z</time>
      </trkpt>
      <trkpt lat="44.68379" lon="6.08843">
        <ele>1131.4</ele>
        <time>2022-09-18T13:04:37Z</time>
      </trkpt>
      <trkpt lat="44.68382" lon="6.08829">
        <ele>1130.6</ele>
        <time>2022-09-18T13:04:38Z</time>
      </trkpt>
      <trkpt lat="44.68385" lon="6.08801">
        <ele>1129</ele>
        <time>2022-09-18T13:04:40Z</time>
      </trkpt>
      <trkpt lat="44.68386" lon="6.08788">
        <ele>1128.4</ele>
        <time>2022-09-18T13:04:41Z</time>
      </trkpt>
      <trkpt lat="44.68386" lon="6.08774">
        <ele>1127.6</ele>
        <time>2022-09-18T13:04:42Z</time>
      </trkpt>
      <trkpt lat="44.68387" lon="6.08761">
        <ele>1126.8</ele>
        <time>2022-09-18T13:04:43Z</time>
      </trkpt>
      <trkpt lat="44.68388" lon="6.08748">
        <ele>1126</ele>
        <time>2022-09-18T13:04:44Z</time>
      </trkpt>
      <trkpt lat="44.68389" lon="6.08734">
        <ele>1125.2</ele>
        <time>2022-09-18T13:04:45Z</time>
      </trkpt>
      <trkpt lat="44.6839" lon="6.08721">
        <ele>1124.2</ele>
        <time>2022-09-18T13:04:46Z</time>
      </trkpt>
      <trkpt lat="44.6839" lon="6.08708">
        <ele>1123.2</ele>
        <time>2022-09-18T13:04:47Z</time>
      </trkpt>
      <trkpt lat="44.68391" lon="6.08695">
        <ele>1122.4</ele>
        <time>2022-09-18T13:04:48Z</time>
      </trkpt>
      <trkpt lat="44.68391" lon="6.08682">
        <ele>1121.6</ele>
        <time>2022-09-18T13:04:49Z</time>
      </trkpt>
      <trkpt lat="44.68392" lon="6.0867">
        <ele>1120.8</ele>
        <time>2022-09-18T13:04:50Z</time>
      </trkpt>
      <trkpt lat="44.68392" lon="6.08658">
        <ele>1120</ele>
        <time>2022-09-18T13:04:51Z</time>
      </trkpt>
      <trkpt lat="44.68394" lon="6.08647">
        <ele>1119.2</ele>
        <time>2022-09-18T13:04:52Z</time>
      </trkpt>
      <trkpt lat="44.68395" lon="6.08638">
        <ele>1118.2</ele>
        <time>2022-09-18T13:04:53Z</time>
      </trkpt>
      <trkpt lat="44.68396" lon="6.08628">
        <ele>1117.6</ele>
        <time>2022-09-18T13:04:54Z</time>
      </trkpt>
      <trkpt lat="44.68398" lon="6.08619">
        <ele>1116.8</ele>
        <time>2022-09-18T13:04:55Z</time>
      </trkpt>
      <trkpt lat="44.68399" lon="6.08609">
        <ele>1116</ele>
        <time>2022-09-18T13:04:56Z</time>
      </trkpt>
      <trkpt lat="44.68401" lon="6.08598">
        <ele>1115.4</ele>
        <time>2022-09-18T13:04:57Z</time>
      </trkpt>
      <trkpt lat="44.68402" lon="6.08587">
        <ele>1115</ele>
        <time>2022-09-18T13:04:58Z</time>
      </trkpt>
      <trkpt lat="44.68404" lon="6.08576">
        <ele>1114.4</ele>
        <time>2022-09-18T13:04:59Z</time>
      </trkpt>
      <trkpt lat="44.68405" lon="6.08564">
        <ele>1113.8</ele>
        <time>2022-09-18T13:05:00Z</time>
      </trkpt>
      <trkpt lat="44.68407" lon="6.08552">
        <ele>1113.2</ele>
        <time>2022-09-18T13:05:01Z</time>
      </trkpt>
      <trkpt lat="44.68409" lon="6.0854">
        <ele>1112.8</ele>
        <time>2022-09-18T13:05:02Z</time>
      </trkpt>
      <trkpt lat="44.6841" lon="6.08528">
        <ele>1112.2</ele>
        <time>2022-09-18T13:05:03Z</time>
      </trkpt>
      <trkpt lat="44.68412" lon="6.08516">
        <ele>1111.6</ele>
        <time>2022-09-18T13:05:04Z</time>
      </trkpt>
      <trkpt lat="44.68414" lon="6.08504">
        <ele>1111</ele>
        <time>2022-09-18T13:05:05Z</time>
      </trkpt>
      <trkpt lat="44.68415" lon="6.08491">
        <ele>1110.2</ele>
        <time>2022-09-18T13:05:06Z</time>
      </trkpt>
      <trkpt lat="44.68417" lon="6.08478">
        <ele>1109.6</ele>
        <time>2022-09-18T13:05:07Z</time>
      </trkpt>
      <trkpt lat="44.68419" lon="6.08465">
        <ele>1109</ele>
        <time>2022-09-18T13:05:08Z</time>
      </trkpt>
      <trkpt lat="44.68421" lon="6.08451">
        <ele>1108.4</ele>
        <time>2022-09-18T13:05:09Z</time>
      </trkpt>
      <trkpt lat="44.68423" lon="6.08437">
        <ele>1108</ele>
        <time>2022-09-18T13:05:10Z</time>
      </trkpt>
      <trkpt lat="44.68425" lon="6.08423">
        <ele>1107.4</ele>
        <time>2022-09-18T13:05:11Z</time>
      </trkpt>
      <trkpt lat="44.68427" lon="6.08409">
        <ele>1106.8</ele>
        <time>2022-09-18T13:05:12Z</time>
      </trkpt>
      <trkpt lat="44.68428" lon="6.08394">
        <ele>1105.8</ele>
        <time>2022-09-18T13:05:13Z</time>
      </trkpt>
      <trkpt lat="44.68429" lon="6.08378">
        <ele>1105.2</ele>
        <time>2022-09-18T13:05:14Z</time>
      </trkpt>
      <trkpt lat="44.68429" lon="6.08362">
        <ele>1104.4</ele>
        <time>2022-09-18T13:05:15Z</time>
      </trkpt>
      <trkpt lat="44.68428" lon="6.08346">
        <ele>1103.8</ele>
        <time>2022-09-18T13:05:16Z</time>
      </trkpt>
      <trkpt lat="44.68425" lon="6.0833">
        <ele>1103</ele>
        <time>2022-09-18T13:05:17Z</time>
      </trkpt>
      <trkpt lat="44.68422" lon="6.08314">
        <ele>1102.2</ele>
        <time>2022-09-18T13:05:18Z</time>
      </trkpt>
      <trkpt lat="44.68418" lon="6.08299">
        <ele>1100.6</ele>
        <time>2022-09-18T13:05:19Z</time>
      </trkpt>
      <trkpt lat="44.68414" lon="6.08283">
        <ele>1099.6</ele>
        <time>2022-09-18T13:05:20Z</time>
      </trkpt>
      <trkpt lat="44.6841" lon="6.08268">
        <ele>1099</ele>
        <time>2022-09-18T13:05:21Z</time>
      </trkpt>
      <trkpt lat="44.68406" lon="6.08252">
        <ele>1097.8</ele>
        <time>2022-09-18T13:05:22Z</time>
      </trkpt>
      <trkpt lat="44.68402" lon="6.08236">
        <ele>1096.6</ele>
        <time>2022-09-18T13:05:23Z</time>
      </trkpt>
      <trkpt lat="44.68398" lon="6.0822">
        <ele>1095.4</ele>
        <time>2022-09-18T13:05:24Z</time>
      </trkpt>
      <trkpt lat="44.68395" lon="6.08204">
        <ele>1094.6</ele>
        <time>2022-09-18T13:05:25Z</time>
      </trkpt>
      <trkpt lat="44.68391" lon="6.08189">
        <ele>1093.8</ele>
        <time>2022-09-18T13:05:26Z</time>
      </trkpt>
      <trkpt lat="44.68388" lon="6.08173">
        <ele>1093</ele>
        <time>2022-09-18T13:05:27Z</time>
      </trkpt>
      <trkpt lat="44.68385" lon="6.08159">
        <ele>1091.8</ele>
        <time>2022-09-18T13:05:28Z</time>
      </trkpt>
      <trkpt lat="44.68381" lon="6.08143">
        <ele>1090.4</ele>
        <time>2022-09-18T13:05:29Z</time>
      </trkpt>
      <trkpt lat="44.68378" lon="6.08128">
        <ele>1089.2</ele>
        <time>2022-09-18T13:05:30Z</time>
      </trkpt>
      <trkpt lat="44.68374" lon="6.08112">
        <ele>1088.4</ele>
        <time>2022-09-18T13:05:31Z</time>
      </trkpt>
      <trkpt lat="44.6837" lon="6.08097">
        <ele>1087.6</ele>
        <time>2022-09-18T13:05:32Z</time>
      </trkpt>
      <trkpt lat="44.68366" lon="6.08082">
        <ele>1086.6</ele>
        <time>2022-09-18T13:05:33Z</time>
      </trkpt>
      <trkpt lat="44.68362" lon="6.08066">
        <ele>1085.4</ele>
        <time>2022-09-18T13:05:34Z</time>
      </trkpt>
      <trkpt lat="44.68357" lon="6.08051">
        <ele>1084.6</ele>
        <time>2022-09-18T13:05:35Z</time>
      </trkpt>
      <trkpt lat="44.68352" lon="6.08035">
        <ele>1083.8</ele>
        <time>2022-09-18T13:05:36Z</time>
      </trkpt>
      <trkpt lat="44.68347" lon="6.08019">
        <ele>1083</ele>
        <time>2022-09-18T13:05:37Z</time>
      </trkpt>
      <trkpt lat="44.68343" lon="6.08004">
        <ele>1081.8</ele>
        <time>2022-09-18T13:05:38Z</time>
      </trkpt>
      <trkpt lat="44.68338" lon="6.0799">
        <ele>1081.2</ele>
        <time>2022-09-18T13:05:39Z</time>
      </trkpt>
      <trkpt lat="44.68333" lon="6.07976">
        <ele>1080</ele>
        <time>2022-09-18T13:05:40Z</time>
      </trkpt>
      <trkpt lat="44.68329" lon="6.07963">
        <ele>1079.2</ele>
        <time>2022-09-18T13:05:41Z</time>
      </trkpt>
      <trkpt lat="44.68325" lon="6.07951">
        <ele>1078</ele>
        <time>2022-09-18T13:05:42Z</time>
      </trkpt>
      <trkpt lat="44.68322" lon="6.07939">
        <ele>1077</ele>
        <time>2022-09-18T13:05:43Z</time>
      </trkpt>
      <trkpt lat="44.68319" lon="6.07926">
        <ele>1076</ele>
        <time>2022-09-18T13:05:44Z</time>
      </trkpt>
      <trkpt lat="44.68316" lon="6.07901">
        <ele>1074</ele>
        <time>2022-09-18T13:05:46Z</time>
      </trkpt>
      <trkpt lat="44.68314" lon="6.07888">
        <ele>1073</ele>
        <time>2022-09-18T13:05:47Z</time>
      </trkpt>
      <trkpt lat="44.68312" lon="6.07875">
        <ele>1072</ele>
        <time>2022-09-18T13:05:48Z</time>
      </trkpt>
      <trkpt lat="44.6831" lon="6.07863">
        <ele>1071</ele>
        <time>2022-09-18T13:05:49Z</time>
      </trkpt>
      <trkpt lat="44.68308" lon="6.0785">
        <ele>1070</ele>
        <time>2022-09-18T13:05:50Z</time>
      </trkpt>
      <trkpt lat="44.68307" lon="6.07837">
        <ele>1069.2</ele>
        <time>2022-09-18T13:05:51Z</time>
      </trkpt>
      <trkpt lat="44.68305" lon="6.07824">
        <ele>1068.2</ele>
        <time>2022-09-18T13:05:52Z</time>
      </trkpt>
      <trkpt lat="44.68304" lon="6.07812">
        <ele>1067.2</ele>
        <time>2022-09-18T13:05:53Z</time>
      </trkpt>
      <trkpt lat="44.68302" lon="6.078">
        <ele>1066.4</ele>
        <time>2022-09-18T13:05:54Z</time>
      </trkpt>
      <trkpt lat="44.683" lon="6.07789">
        <ele>1066</ele>
        <time>2022-09-18T13:05:55Z</time>
      </trkpt>
      <trkpt lat="44.68299" lon="6.07779">
        <ele>1065</ele>
        <time>2022-09-18T13:05:56Z</time>
      </trkpt>
      <trkpt lat="44.68297" lon="6.07769">
        <ele>1064.2</ele>
        <time>2022-09-18T13:05:57Z</time>
      </trkpt>
      <trkpt lat="44.68295" lon="6.0776">
        <ele>1063.2</ele>
        <time>2022-09-18T13:05:58Z</time>
      </trkpt>
      <trkpt lat="44.68294" lon="6.07751">
        <ele>1062.6</ele>
        <time>2022-09-18T13:05:59Z</time>
      </trkpt>
      <trkpt lat="44.68292" lon="6.07742">
        <ele>1062</ele>
        <time>2022-09-18T13:06:00Z</time>
      </trkpt>
      <trkpt lat="44.68291" lon="6.07735">
        <ele>1061.4</ele>
        <time>2022-09-18T13:06:01Z</time>
      </trkpt>
      <trkpt lat="44.68289" lon="6.07731">
        <ele>1060.6</ele>
        <time>2022-09-18T13:06:02Z</time>
      </trkpt>
      <trkpt lat="44.68287" lon="6.07729">
        <ele>1060.2</ele>
        <time>2022-09-18T13:06:03Z</time>
      </trkpt>
      <trkpt lat="44.68285" lon="6.07729">
        <ele>1059.6</ele>
        <time>2022-09-18T13:06:04Z</time>
      </trkpt>
      <trkpt lat="44.68283" lon="6.07731">
        <ele>1059.4</ele>
        <time>2022-09-18T13:06:05Z</time>
      </trkpt>
      <trkpt lat="44.68281" lon="6.07735">
        <ele>1059</ele>
        <time>2022-09-18T13:06:06Z</time>
      </trkpt>
      <trkpt lat="44.68279" lon="6.07738">
        <ele>1058.8</ele>
        <time>2022-09-18T13:06:07Z</time>
      </trkpt>
      <trkpt lat="44.68277" lon="6.07742">
        <ele>1058.8</ele>
        <time>2022-09-18T13:06:08Z</time>
      </trkpt>
      <trkpt lat="44.68274" lon="6.07745">
        <ele>1058.8</ele>
        <time>2022-09-18T13:06:09Z</time>
      </trkpt>
      <trkpt lat="44.68272" lon="6.07748">
        <ele>1058.6</ele>
        <time>2022-09-18T13:06:10Z</time>
      </trkpt>
      <trkpt lat="44.68269" lon="6.0775">
        <ele>1058.4</ele>
        <time>2022-09-18T13:06:11Z</time>
      </trkpt>
      <trkpt lat="44.68266" lon="6.07753">
        <ele>1058.2</ele>
        <time>2022-09-18T13:06:12Z</time>
      </trkpt>
      <trkpt lat="44.68264" lon="6.07755">
        <ele>1058.4</ele>
        <time>2022-09-18T13:06:13Z</time>
      </trkpt>
      <trkpt lat="44.68261" lon="6.07758">
        <ele>1058.6</ele>
        <time>2022-09-18T13:06:14Z</time>
      </trkpt>
      <trkpt lat="44.68258" lon="6.0776">
        <ele>1058.6</ele>
        <time>2022-09-18T13:06:15Z</time>
      </trkpt>
      <trkpt lat="44.68255" lon="6.07763">
        <ele>1058.8</ele>
        <time>2022-09-18T13:06:16Z</time>
      </trkpt>
      <trkpt lat="44.68252" lon="6.07766">
        <ele>1058.8</ele>
        <time>2022-09-18T13:06:17Z</time>
      </trkpt>
      <trkpt lat="44.68249" lon="6.07769">
        <ele>1058.8</ele>
        <time>2022-09-18T13:06:18Z</time>
      </trkpt>
      <trkpt lat="44.68245" lon="6.07771">
        <ele>1059</ele>
        <time>2022-09-18T13:06:19Z</time>
      </trkpt>
      <trkpt lat="44.68242" lon="6.07774">
        <ele>1059</ele>
        <time>2022-09-18T13:06:20Z</time>
      </trkpt>
      <trkpt lat="44.68239" lon="6.07777">
        <ele>1059</ele>
        <time>2022-09-18T13:06:21Z</time>
      </trkpt>
      <trkpt lat="44.68236" lon="6.0778">
        <ele>1058.8</ele>
        <time>2022-09-18T13:06:22Z</time>
      </trkpt>
      <trkpt lat="44.68229" lon="6.07786">
        <ele>1058.6</ele>
        <time>2022-09-18T13:06:24Z</time>
      </trkpt>
      <trkpt lat="44.68225" lon="6.07789">
        <ele>1058.8</ele>
        <time>2022-09-18T13:06:25Z</time>
      </trkpt>
      <trkpt lat="44.68221" lon="6.07791">
        <ele>1058.6</ele>
        <time>2022-09-18T13:06:26Z</time>
      </trkpt>
      <trkpt lat="44.68218" lon="6.07794">
        <ele>1058.6</ele>
        <time>2022-09-18T13:06:27Z</time>
      </trkpt>
      <trkpt lat="44.68211" lon="6.07799">
        <ele>1058.6</ele>
        <time>2022-09-18T13:06:29Z</time>
      </trkpt>
      <trkpt lat="44.68208" lon="6.07802">
        <ele>1058.8</ele>
        <time>2022-09-18T13:06:30Z</time>
      </trkpt>
      <trkpt lat="44.68205" lon="6.07805">
        <ele>1058.6</ele>
        <time>2022-09-18T13:06:31Z</time>
      </trkpt>
      <trkpt lat="44.68202" lon="6.07808">
        <ele>1058.6</ele>
        <time>2022-09-18T13:06:32Z</time>
      </trkpt>
      <trkpt lat="44.68199" lon="6.0781">
        <ele>1058.6</ele>
        <time>2022-09-18T13:06:33Z</time>
      </trkpt>
      <trkpt lat="44.68196" lon="6.0781">
        <ele>1058.4</ele>
        <time>2022-09-18T13:06:34Z</time>
      </trkpt>
      <trkpt lat="44.68193" lon="6.07808">
        <ele>1058.2</ele>
        <time>2022-09-18T13:06:35Z</time>
      </trkpt>
      <trkpt lat="44.68191" lon="6.07806">
        <ele>1058.2</ele>
        <time>2022-09-18T13:06:36Z</time>
      </trkpt>
      <trkpt lat="44.6819" lon="6.07804">
        <ele>1058</ele>
        <time>2022-09-18T13:06:37Z</time>
      </trkpt>
      <trkpt lat="44.68188" lon="6.07801">
        <ele>1058</ele>
        <time>2022-09-18T13:06:38Z</time>
      </trkpt>
      <trkpt lat="44.68183" lon="6.07789">
        <ele>1057</ele>
        <time>2022-09-18T13:06:41Z</time>
      </trkpt>
      <trkpt lat="44.68177" lon="6.07774">
        <ele>1056.2</ele>
        <time>2022-09-18T13:06:44Z</time>
      </trkpt>
      <trkpt lat="44.68172" lon="6.07759">
        <ele>1055.4</ele>
        <time>2022-09-18T13:06:46Z</time>
      </trkpt>
      <trkpt lat="44.68164" lon="6.07739">
        <ele>1054.4</ele>
        <time>2022-09-18T13:06:48Z</time>
      </trkpt>
      <trkpt lat="44.68156" lon="6.07721">
        <ele>1053.8</ele>
        <time>2022-09-18T13:06:50Z</time>
      </trkpt>
      <trkpt lat="44.68149" lon="6.07701">
        <ele>1052.8</ele>
        <time>2022-09-18T13:06:52Z</time>
      </trkpt>
      <trkpt lat="44.68141" lon="6.07685">
        <ele>1051.8</ele>
        <time>2022-09-18T13:06:54Z</time>
      </trkpt>
      <trkpt lat="44.68134" lon="6.07676">
        <ele>1050.6</ele>
        <time>2022-09-18T13:06:56Z</time>
      </trkpt>
      <trkpt lat="44.6812" lon="6.0768">
        <ele>1049.8</ele>
        <time>2022-09-18T13:06:59Z</time>
      </trkpt>
      <trkpt lat="44.6811" lon="6.07688">
        <ele>1048.8</ele>
        <time>2022-09-18T13:07:01Z</time>
      </trkpt>
      <trkpt lat="44.68104" lon="6.07691">
        <ele>1048.6</ele>
        <time>2022-09-18T13:07:02Z</time>
      </trkpt>
      <trkpt lat="44.68099" lon="6.07694">
        <ele>1048.4</ele>
        <time>2022-09-18T13:07:03Z</time>
      </trkpt>
      <trkpt lat="44.68094" lon="6.07697">
        <ele>1048.6</ele>
        <time>2022-09-18T13:07:04Z</time>
      </trkpt>
      <trkpt lat="44.68083" lon="6.07703">
        <ele>1048.6</ele>
        <time>2022-09-18T13:07:06Z</time>
      </trkpt>
      <trkpt lat="44.68078" lon="6.07707">
        <ele>1048.2</ele>
        <time>2022-09-18T13:07:07Z</time>
      </trkpt>
      <trkpt lat="44.68072" lon="6.07709">
        <ele>1048.2</ele>
        <time>2022-09-18T13:07:08Z</time>
      </trkpt>
      <trkpt lat="44.68066" lon="6.07712">
        <ele>1048.2</ele>
        <time>2022-09-18T13:07:09Z</time>
      </trkpt>
      <trkpt lat="44.6806" lon="6.07715">
        <ele>1048.2</ele>
        <time>2022-09-18T13:07:10Z</time>
      </trkpt>
      <trkpt lat="44.68047" lon="6.07722">
        <ele>1047.4</ele>
        <time>2022-09-18T13:07:12Z</time>
      </trkpt>
      <trkpt lat="44.68041" lon="6.07726">
        <ele>1047.2</ele>
        <time>2022-09-18T13:07:13Z</time>
      </trkpt>
      <trkpt lat="44.68034" lon="6.07731">
        <ele>1047</ele>
        <time>2022-09-18T13:07:14Z</time>
      </trkpt>
      <trkpt lat="44.68027" lon="6.07735">
        <ele>1046.8</ele>
        <time>2022-09-18T13:07:15Z</time>
      </trkpt>
      <trkpt lat="44.68019" lon="6.07739">
        <ele>1046.6</ele>
        <time>2022-09-18T13:07:16Z</time>
      </trkpt>
      <trkpt lat="44.68002" lon="6.07747">
        <ele>1046</ele>
        <time>2022-09-18T13:07:18Z</time>
      </trkpt>
      <trkpt lat="44.67993" lon="6.07751">
        <ele>1045.4</ele>
        <time>2022-09-18T13:07:19Z</time>
      </trkpt>
      <trkpt lat="44.67985" lon="6.07755">
        <ele>1044.8</ele>
        <time>2022-09-18T13:07:20Z</time>
      </trkpt>
      <trkpt lat="44.67977" lon="6.07761">
        <ele>1043.8</ele>
        <time>2022-09-18T13:07:21Z</time>
      </trkpt>
      <trkpt lat="44.67969" lon="6.07768">
        <ele>1043.4</ele>
        <time>2022-09-18T13:07:22Z</time>
      </trkpt>
      <trkpt lat="44.67961" lon="6.07776">
        <ele>1043</ele>
        <time>2022-09-18T13:07:23Z</time>
      </trkpt>
      <trkpt lat="44.67955" lon="6.07784">
        <ele>1042.4</ele>
        <time>2022-09-18T13:07:24Z</time>
      </trkpt>
      <trkpt lat="44.67949" lon="6.07792">
        <ele>1041.6</ele>
        <time>2022-09-18T13:07:25Z</time>
      </trkpt>
      <trkpt lat="44.67943" lon="6.07801">
        <ele>1040.8</ele>
        <time>2022-09-18T13:07:26Z</time>
      </trkpt>
      <trkpt lat="44.67937" lon="6.07807">
        <ele>1040</ele>
        <time>2022-09-18T13:07:27Z</time>
      </trkpt>
      <trkpt lat="44.67933" lon="6.07813">
        <ele>1039.6</ele>
        <time>2022-09-18T13:07:28Z</time>
      </trkpt>
      <trkpt lat="44.67928" lon="6.07818">
        <ele>1039.2</ele>
        <time>2022-09-18T13:07:29Z</time>
      </trkpt>
      <trkpt lat="44.67925" lon="6.07823">
        <ele>1039</ele>
        <time>2022-09-18T13:07:30Z</time>
      </trkpt>
      <trkpt lat="44.67923" lon="6.07826">
        <ele>1038.8</ele>
        <time>2022-09-18T13:07:31Z</time>
      </trkpt>
      <trkpt lat="44.6792" lon="6.07828">
        <ele>1038.4</ele>
        <time>2022-09-18T13:07:32Z</time>
      </trkpt>
      <trkpt lat="44.67918" lon="6.07828">
        <ele>1038</ele>
        <time>2022-09-18T13:07:33Z</time>
      </trkpt>
      <trkpt lat="44.67917" lon="6.07825">
        <ele>1038</ele>
        <time>2022-09-18T13:07:34Z</time>
      </trkpt>
      <trkpt lat="44.67916" lon="6.0782">
        <ele>1038</ele>
        <time>2022-09-18T13:07:35Z</time>
      </trkpt>
      <trkpt lat="44.67913" lon="6.07815">
        <ele>1037.8</ele>
        <time>2022-09-18T13:07:36Z</time>
      </trkpt>
      <trkpt lat="44.67905" lon="6.07803">
        <ele>1037.8</ele>
        <time>2022-09-18T13:07:38Z</time>
      </trkpt>
      <trkpt lat="44.67901" lon="6.07796">
        <ele>1037.4</ele>
        <time>2022-09-18T13:07:39Z</time>
      </trkpt>
      <trkpt lat="44.67896" lon="6.07789">
        <ele>1037</ele>
        <time>2022-09-18T13:07:40Z</time>
      </trkpt>
      <trkpt lat="44.67892" lon="6.07781">
        <ele>1036.6</ele>
        <time>2022-09-18T13:07:41Z</time>
      </trkpt>
      <trkpt lat="44.67888" lon="6.07772">
        <ele>1036</ele>
        <time>2022-09-18T13:07:42Z</time>
      </trkpt>
      <trkpt lat="44.67882" lon="6.07764">
        <ele>1035.6</ele>
        <time>2022-09-18T13:07:43Z</time>
      </trkpt>
      <trkpt lat="44.67876" lon="6.07757">
        <ele>1035.2</ele>
        <time>2022-09-18T13:07:44Z</time>
      </trkpt>
      <trkpt lat="44.67869" lon="6.0775">
        <ele>1034.6</ele>
        <time>2022-09-18T13:07:45Z</time>
      </trkpt>
      <trkpt lat="44.67862" lon="6.07745">
        <ele>1033.6</ele>
        <time>2022-09-18T13:07:46Z</time>
      </trkpt>
      <trkpt lat="44.67856" lon="6.07743">
        <ele>1033</ele>
        <time>2022-09-18T13:07:47Z</time>
      </trkpt>
      <trkpt lat="44.67851" lon="6.07742">
        <ele>1032</ele>
        <time>2022-09-18T13:07:48Z</time>
      </trkpt>
      <trkpt lat="44.67846" lon="6.07742">
        <ele>1031</ele>
        <time>2022-09-18T13:07:49Z</time>
      </trkpt>
      <trkpt lat="44.67841" lon="6.07742">
        <ele>1030.6</ele>
        <time>2022-09-18T13:07:50Z</time>
      </trkpt>
      <trkpt lat="44.67835" lon="6.07742">
        <ele>1030</ele>
        <time>2022-09-18T13:07:51Z</time>
      </trkpt>
      <trkpt lat="44.6783" lon="6.07744">
        <ele>1029.8</ele>
        <time>2022-09-18T13:07:52Z</time>
      </trkpt>
      <trkpt lat="44.67824" lon="6.07746">
        <ele>1029.4</ele>
        <time>2022-09-18T13:07:53Z</time>
      </trkpt>
      <trkpt lat="44.67819" lon="6.07748">
        <ele>1029.2</ele>
        <time>2022-09-18T13:07:54Z</time>
      </trkpt>
      <trkpt lat="44.67813" lon="6.07752">
        <ele>1028.6</ele>
        <time>2022-09-18T13:07:55Z</time>
      </trkpt>
      <trkpt lat="44.67804" lon="6.07758">
        <ele>1027.2</ele>
        <time>2022-09-18T13:07:57Z</time>
      </trkpt>
      <trkpt lat="44.67799" lon="6.07761">
        <ele>1026.6</ele>
        <time>2022-09-18T13:07:58Z</time>
      </trkpt>
      <trkpt lat="44.67794" lon="6.07762">
        <ele>1025.8</ele>
        <time>2022-09-18T13:07:59Z</time>
      </trkpt>
      <trkpt lat="44.67789" lon="6.07761">
        <ele>1025.2</ele>
        <time>2022-09-18T13:08:00Z</time>
      </trkpt>
      <trkpt lat="44.67784" lon="6.07757">
        <ele>1024.6</ele>
        <time>2022-09-18T13:08:01Z</time>
      </trkpt>
      <trkpt lat="44.67776" lon="6.07744">
        <ele>1023.8</ele>
        <time>2022-09-18T13:08:03Z</time>
      </trkpt>
      <trkpt lat="44.67772" lon="6.07737">
        <ele>1023.2</ele>
        <time>2022-09-18T13:08:04Z</time>
      </trkpt>
      <trkpt lat="44.67769" lon="6.0773">
        <ele>1022.4</ele>
        <time>2022-09-18T13:08:05Z</time>
      </trkpt>
      <trkpt lat="44.67765" lon="6.07724">
        <ele>1021.8</ele>
        <time>2022-09-18T13:08:06Z</time>
      </trkpt>
      <trkpt lat="44.67762" lon="6.07717">
        <ele>1021.2</ele>
        <time>2022-09-18T13:08:07Z</time>
      </trkpt>
      <trkpt lat="44.67756" lon="6.07705">
        <ele>1020.2</ele>
        <time>2022-09-18T13:08:09Z</time>
      </trkpt>
      <trkpt lat="44.67752" lon="6.077">
        <ele>1019.8</ele>
        <time>2022-09-18T13:08:10Z</time>
      </trkpt>
      <trkpt lat="44.67747" lon="6.07695">
        <ele>1019.2</ele>
        <time>2022-09-18T13:08:11Z</time>
      </trkpt>
      <trkpt lat="44.67742" lon="6.07691">
        <ele>1018.4</ele>
        <time>2022-09-18T13:08:12Z</time>
      </trkpt>
      <trkpt lat="44.67731" lon="6.07687">
        <ele>1017.4</ele>
        <time>2022-09-18T13:08:14Z</time>
      </trkpt>
      <trkpt lat="44.67718" lon="6.07687">
        <ele>1016.6</ele>
        <time>2022-09-18T13:08:16Z</time>
      </trkpt>
      <trkpt lat="44.67712" lon="6.07688">
        <ele>1016.2</ele>
        <time>2022-09-18T13:08:17Z</time>
      </trkpt>
      <trkpt lat="44.67707" lon="6.07689">
        <ele>1016</ele>
        <time>2022-09-18T13:08:18Z</time>
      </trkpt>
      <trkpt lat="44.67703" lon="6.07689">
        <ele>1015.6</ele>
        <time>2022-09-18T13:08:19Z</time>
      </trkpt>
      <trkpt lat="44.67699" lon="6.07689">
        <ele>1015</ele>
        <time>2022-09-18T13:08:20Z</time>
      </trkpt>
      <trkpt lat="44.67697" lon="6.0769">
        <ele>1014.6</ele>
        <time>2022-09-18T13:08:21Z</time>
      </trkpt>
      <trkpt lat="44.67694" lon="6.07692">
        <ele>1014</ele>
        <time>2022-09-18T13:08:22Z</time>
      </trkpt>
      <trkpt lat="44.67687" lon="6.07693">
        <ele>1013.2</ele>
        <time>2022-09-18T13:08:24Z</time>
      </trkpt>
      <trkpt lat="44.67679" lon="6.07693">
        <ele>1012.8</ele>
        <time>2022-09-18T13:08:26Z</time>
      </trkpt>
      <trkpt lat="44.67675" lon="6.07692">
        <ele>1012.4</ele>
        <time>2022-09-18T13:08:27Z</time>
      </trkpt>
      <trkpt lat="44.67669" lon="6.07692">
        <ele>1012.4</ele>
        <time>2022-09-18T13:08:28Z</time>
      </trkpt>
      <trkpt lat="44.67664" lon="6.07691">
        <ele>1012</ele>
        <time>2022-09-18T13:08:29Z</time>
      </trkpt>
      <trkpt lat="44.67658" lon="6.07689">
        <ele>1011.6</ele>
        <time>2022-09-18T13:08:30Z</time>
      </trkpt>
      <trkpt lat="44.67646" lon="6.07682">
        <ele>1011</ele>
        <time>2022-09-18T13:08:32Z</time>
      </trkpt>
      <trkpt lat="44.6764" lon="6.07678">
        <ele>1010.4</ele>
        <time>2022-09-18T13:08:33Z</time>
      </trkpt>
      <trkpt lat="44.67628" lon="6.07666">
        <ele>1009</ele>
        <time>2022-09-18T13:08:35Z</time>
      </trkpt>
      <trkpt lat="44.67623" lon="6.07659">
        <ele>1008.6</ele>
        <time>2022-09-18T13:08:36Z</time>
      </trkpt>
      <trkpt lat="44.67619" lon="6.07651">
        <ele>1008</ele>
        <time>2022-09-18T13:08:37Z</time>
      </trkpt>
      <trkpt lat="44.67611" lon="6.07632">
        <ele>1006.8</ele>
        <time>2022-09-18T13:08:39Z</time>
      </trkpt>
      <trkpt lat="44.67608" lon="6.07611">
        <ele>1005.4</ele>
        <time>2022-09-18T13:08:41Z</time>
      </trkpt>
      <trkpt lat="44.6761" lon="6.076">
        <ele>1004.8</ele>
        <time>2022-09-18T13:08:42Z</time>
      </trkpt>
      <trkpt lat="44.67618" lon="6.07582">
        <ele>1003.6</ele>
        <time>2022-09-18T13:08:44Z</time>
      </trkpt>
      <trkpt lat="44.67623" lon="6.07573">
        <ele>1002.8</ele>
        <time>2022-09-18T13:08:45Z</time>
      </trkpt>
      <trkpt lat="44.67634" lon="6.07557">
        <ele>1002.2</ele>
        <time>2022-09-18T13:08:47Z</time>
      </trkpt>
      <trkpt lat="44.67639" lon="6.07549">
        <ele>1001.6</ele>
        <time>2022-09-18T13:08:48Z</time>
      </trkpt>
      <trkpt lat="44.67649" lon="6.07534">
        <ele>1000.6</ele>
        <time>2022-09-18T13:08:50Z</time>
      </trkpt>
      <trkpt lat="44.67653" lon="6.07527">
        <ele>1000.6</ele>
        <time>2022-09-18T13:08:51Z</time>
      </trkpt>
      <trkpt lat="44.6766" lon="6.07512">
        <ele>999.6</ele>
        <time>2022-09-18T13:08:53Z</time>
      </trkpt>
      <trkpt lat="44.67664" lon="6.07505">
        <ele>999.2</ele>
        <time>2022-09-18T13:08:54Z</time>
      </trkpt>
      <trkpt lat="44.67667" lon="6.07498">
        <ele>999.2</ele>
        <time>2022-09-18T13:08:55Z</time>
      </trkpt>
      <trkpt lat="44.67671" lon="6.07483">
        <ele>998.4</ele>
        <time>2022-09-18T13:08:57Z</time>
      </trkpt>
      <trkpt lat="44.67673" lon="6.07476">
        <ele>998.2</ele>
        <time>2022-09-18T13:08:58Z</time>
      </trkpt>
      <trkpt lat="44.67675" lon="6.07469">
        <ele>997.6</ele>
        <time>2022-09-18T13:08:59Z</time>
      </trkpt>
      <trkpt lat="44.67676" lon="6.07462">
        <ele>997.2</ele>
        <time>2022-09-18T13:09:00Z</time>
      </trkpt>
      <trkpt lat="44.67675" lon="6.07454">
        <ele>996.8</ele>
        <time>2022-09-18T13:09:01Z</time>
      </trkpt>
      <trkpt lat="44.67672" lon="6.07447">
        <ele>996.8</ele>
        <time>2022-09-18T13:09:02Z</time>
      </trkpt>
      <trkpt lat="44.67667" lon="6.07442">
        <ele>996.8</ele>
        <time>2022-09-18T13:09:03Z</time>
      </trkpt>
      <trkpt lat="44.67654" lon="6.07436">
        <ele>996</ele>
        <time>2022-09-18T13:09:05Z</time>
      </trkpt>
      <trkpt lat="44.67648" lon="6.07431">
        <ele>995.6</ele>
        <time>2022-09-18T13:09:06Z</time>
      </trkpt>
      <trkpt lat="44.67642" lon="6.07426">
        <ele>995.6</ele>
        <time>2022-09-18T13:09:07Z</time>
      </trkpt>
      <trkpt lat="44.6763" lon="6.07416">
        <ele>995</ele>
        <time>2022-09-18T13:09:09Z</time>
      </trkpt>
      <trkpt lat="44.67625" lon="6.0741">
        <ele>994.8</ele>
        <time>2022-09-18T13:09:10Z</time>
      </trkpt>
      <trkpt lat="44.6762" lon="6.07404">
        <ele>994.2</ele>
        <time>2022-09-18T13:09:11Z</time>
      </trkpt>
      <trkpt lat="44.67615" lon="6.07398">
        <ele>994</ele>
        <time>2022-09-18T13:09:12Z</time>
      </trkpt>
      <trkpt lat="44.67606" lon="6.07387">
        <ele>993.6</ele>
        <time>2022-09-18T13:09:14Z</time>
      </trkpt>
      <trkpt lat="44.67601" lon="6.07382">
        <ele>993.6</ele>
        <time>2022-09-18T13:09:15Z</time>
      </trkpt>
      <trkpt lat="44.67597" lon="6.07377">
        <ele>993.6</ele>
        <time>2022-09-18T13:09:16Z</time>
      </trkpt>
      <trkpt lat="44.67593" lon="6.07372">
        <ele>993.6</ele>
        <time>2022-09-18T13:09:17Z</time>
      </trkpt>
      <trkpt lat="44.67589" lon="6.07368">
        <ele>993.6</ele>
        <time>2022-09-18T13:09:18Z</time>
      </trkpt>
      <trkpt lat="44.67585" lon="6.07363">
        <ele>993.6</ele>
        <time>2022-09-18T13:09:19Z</time>
      </trkpt>
      <trkpt lat="44.6758" lon="6.07359">
        <ele>993.8</ele>
        <time>2022-09-18T13:09:20Z</time>
      </trkpt>
      <trkpt lat="44.67576" lon="6.07354">
        <ele>993.8</ele>
        <time>2022-09-18T13:09:21Z</time>
      </trkpt>
      <trkpt lat="44.67572" lon="6.07349">
        <ele>993.8</ele>
        <time>2022-09-18T13:09:22Z</time>
      </trkpt>
      <trkpt lat="44.67568" lon="6.07344">
        <ele>993.8</ele>
        <time>2022-09-18T13:09:23Z</time>
      </trkpt>
      <trkpt lat="44.67564" lon="6.07339">
        <ele>993.6</ele>
        <time>2022-09-18T13:09:24Z</time>
      </trkpt>
      <trkpt lat="44.6756" lon="6.07334">
        <ele>993.6</ele>
        <time>2022-09-18T13:09:25Z</time>
      </trkpt>
      <trkpt lat="44.67557" lon="6.0733">
        <ele>993.2</ele>
        <time>2022-09-18T13:09:26Z</time>
      </trkpt>
      <trkpt lat="44.67553" lon="6.07325">
        <ele>993.2</ele>
        <time>2022-09-18T13:09:27Z</time>
      </trkpt>
      <trkpt lat="44.67547" lon="6.07317">
        <ele>993.2</ele>
        <time>2022-09-18T13:09:29Z</time>
      </trkpt>
      <trkpt lat="44.67543" lon="6.07313">
        <ele>993.2</ele>
        <time>2022-09-18T13:09:30Z</time>
      </trkpt>
      <trkpt lat="44.6754" lon="6.07309">
        <ele>993.4</ele>
        <time>2022-09-18T13:09:31Z</time>
      </trkpt>
      <trkpt lat="44.67534" lon="6.07301">
        <ele>993.4</ele>
        <time>2022-09-18T13:09:33Z</time>
      </trkpt>
      <trkpt lat="44.6753" lon="6.07298">
        <ele>993.6</ele>
        <time>2022-09-18T13:09:34Z</time>
      </trkpt>
      <trkpt lat="44.67527" lon="6.07295">
        <ele>993.6</ele>
        <time>2022-09-18T13:09:35Z</time>
      </trkpt>
      <trkpt lat="44.67524" lon="6.07291">
        <ele>994</ele>
        <time>2022-09-18T13:09:36Z</time>
      </trkpt>
      <trkpt lat="44.67519" lon="6.07284">
        <ele>994</ele>
        <time>2022-09-18T13:09:38Z</time>
      </trkpt>
      <trkpt lat="44.67516" lon="6.0728">
        <ele>994.2</ele>
        <time>2022-09-18T13:09:39Z</time>
      </trkpt>
      <trkpt lat="44.67514" lon="6.07276">
        <ele>994.2</ele>
        <time>2022-09-18T13:09:40Z</time>
      </trkpt>
      <trkpt lat="44.67511" lon="6.07272">
        <ele>994.4</ele>
        <time>2022-09-18T13:09:41Z</time>
      </trkpt>
      <trkpt lat="44.67509" lon="6.07267">
        <ele>994.6</ele>
        <time>2022-09-18T13:09:42Z</time>
      </trkpt>
      <trkpt lat="44.67508" lon="6.07262">
        <ele>994.8</ele>
        <time>2022-09-18T13:09:43Z</time>
      </trkpt>
      <trkpt lat="44.67507" lon="6.07251">
        <ele>995</ele>
        <time>2022-09-18T13:09:45Z</time>
      </trkpt>
      <trkpt lat="44.67505" lon="6.07246">
        <ele>995</ele>
        <time>2022-09-18T13:09:46Z</time>
      </trkpt>
      <trkpt lat="44.67504" lon="6.07242">
        <ele>994.8</ele>
        <time>2022-09-18T13:09:47Z</time>
      </trkpt>
      <trkpt lat="44.67502" lon="6.07238">
        <ele>994.8</ele>
        <time>2022-09-18T13:09:48Z</time>
      </trkpt>
      <trkpt lat="44.675" lon="6.07234">
        <ele>994.8</ele>
        <time>2022-09-18T13:09:49Z</time>
      </trkpt>
      <trkpt lat="44.67496" lon="6.07226">
        <ele>995</ele>
        <time>2022-09-18T13:09:51Z</time>
      </trkpt>
      <trkpt lat="44.67493" lon="6.07223">
        <ele>995</ele>
        <time>2022-09-18T13:09:52Z</time>
      </trkpt>
      <trkpt lat="44.67491" lon="6.07219">
        <ele>995</ele>
        <time>2022-09-18T13:09:53Z</time>
      </trkpt>
      <trkpt lat="44.67489" lon="6.07214">
        <ele>995.2</ele>
        <time>2022-09-18T13:09:54Z</time>
      </trkpt>
      <trkpt lat="44.67489" lon="6.07205">
        <ele>995.4</ele>
        <time>2022-09-18T13:09:56Z</time>
      </trkpt>
      <trkpt lat="44.67489" lon="6.07201">
        <ele>995.2</ele>
        <time>2022-09-18T13:09:57Z</time>
      </trkpt>
      <trkpt lat="44.67491" lon="6.07197">
        <ele>995.2</ele>
        <time>2022-09-18T13:09:58Z</time>
      </trkpt>
      <trkpt lat="44.67492" lon="6.07194">
        <ele>995.4</ele>
        <time>2022-09-18T13:09:59Z</time>
      </trkpt>
      <trkpt lat="44.67494" lon="6.0719">
        <ele>995.4</ele>
        <time>2022-09-18T13:10:00Z</time>
      </trkpt>
      <trkpt lat="44.67495" lon="6.07187">
        <ele>995.4</ele>
        <time>2022-09-18T13:10:01Z</time>
      </trkpt>
      <trkpt lat="44.67497" lon="6.07183">
        <ele>995.2</ele>
        <time>2022-09-18T13:10:02Z</time>
      </trkpt>
      <trkpt lat="44.67498" lon="6.0718">
        <ele>995</ele>
        <time>2022-09-18T13:10:03Z</time>
      </trkpt>
      <trkpt lat="44.67501" lon="6.07172">
        <ele>995</ele>
        <time>2022-09-18T13:10:05Z</time>
      </trkpt>
      <trkpt lat="44.67503" lon="6.07169">
        <ele>994.8</ele>
        <time>2022-09-18T13:10:06Z</time>
      </trkpt>
      <trkpt lat="44.67505" lon="6.07161">
        <ele>995.2</ele>
        <time>2022-09-18T13:10:08Z</time>
      </trkpt>
      <trkpt lat="44.67506" lon="6.07157">
        <ele>995</ele>
        <time>2022-09-18T13:10:09Z</time>
      </trkpt>
      <trkpt lat="44.67507" lon="6.07153">
        <ele>995</ele>
        <time>2022-09-18T13:10:10Z</time>
      </trkpt>
      <trkpt lat="44.67508" lon="6.0715">
        <ele>995</ele>
        <time>2022-09-18T13:10:11Z</time>
      </trkpt>
      <trkpt lat="44.67509" lon="6.07146">
        <ele>995</ele>
        <time>2022-09-18T13:10:12Z</time>
      </trkpt>
      <trkpt lat="44.67511" lon="6.07139">
        <ele>995</ele>
        <time>2022-09-18T13:10:14Z</time>
      </trkpt>
      <trkpt lat="44.67512" lon="6.07135">
        <ele>995</ele>
        <time>2022-09-18T13:10:15Z</time>
      </trkpt>
      <trkpt lat="44.67513" lon="6.07132">
        <ele>995</ele>
        <time>2022-09-18T13:10:16Z</time>
      </trkpt>
      <trkpt lat="44.67514" lon="6.07129">
        <ele>995.4</ele>
        <time>2022-09-18T13:10:17Z</time>
      </trkpt>
      <trkpt lat="44.67515" lon="6.07126">
        <ele>995.4</ele>
        <time>2022-09-18T13:10:18Z</time>
      </trkpt>
      <trkpt lat="44.67515" lon="6.07122">
        <ele>995.4</ele>
        <time>2022-09-18T13:10:19Z</time>
      </trkpt>
      <trkpt lat="44.67517" lon="6.07116">
        <ele>995.4</ele>
        <time>2022-09-18T13:10:21Z</time>
      </trkpt>
      <trkpt lat="44.67519" lon="6.07111">
        <ele>995.6</ele>
        <time>2022-09-18T13:10:23Z</time>
      </trkpt>
      <trkpt lat="44.67521" lon="6.07109">
        <ele>995.4</ele>
        <time>2022-09-18T13:10:24Z</time>
      </trkpt>
      <trkpt lat="44.67523" lon="6.07103">
        <ele>995.2</ele>
        <time>2022-09-18T13:10:26Z</time>
      </trkpt>
      <trkpt lat="44.67525" lon="6.07097">
        <ele>995.2</ele>
        <time>2022-09-18T13:10:28Z</time>
      </trkpt>
      <trkpt lat="44.67526" lon="6.07095">
        <ele>995.4</ele>
        <time>2022-09-18T13:10:29Z</time>
      </trkpt>
      <trkpt lat="44.67527" lon="6.07092">
        <ele>995.4</ele>
        <time>2022-09-18T13:10:30Z</time>
      </trkpt>
      <trkpt lat="44.67528" lon="6.07089">
        <ele>995.6</ele>
        <time>2022-09-18T13:10:31Z</time>
      </trkpt>
      <trkpt lat="44.67529" lon="6.07087">
        <ele>995.6</ele>
        <time>2022-09-18T13:10:32Z</time>
      </trkpt>
      <trkpt lat="44.6753" lon="6.07084">
        <ele>995.6</ele>
        <time>2022-09-18T13:10:33Z</time>
      </trkpt>
      <trkpt lat="44.6753" lon="6.07081">
        <ele>995.4</ele>
        <time>2022-09-18T13:10:34Z</time>
      </trkpt>
      <trkpt lat="44.67532" lon="6.07075">
        <ele>995.6</ele>
        <time>2022-09-18T13:10:36Z</time>
      </trkpt>
      <trkpt lat="44.67532" lon="6.07072">
        <ele>995.8</ele>
        <time>2022-09-18T13:10:37Z</time>
      </trkpt>
      <trkpt lat="44.67533" lon="6.07069">
        <ele>995.8</ele>
        <time>2022-09-18T13:10:38Z</time>
      </trkpt>
      <trkpt lat="44.67535" lon="6.07066">
        <ele>995.6</ele>
        <time>2022-09-18T13:10:39Z</time>
      </trkpt>
      <trkpt lat="44.67536" lon="6.07063">
        <ele>995.8</ele>
        <time>2022-09-18T13:10:40Z</time>
      </trkpt>
      <trkpt lat="44.67538" lon="6.07057">
        <ele>996</ele>
        <time>2022-09-18T13:10:42Z</time>
      </trkpt>
      <trkpt lat="44.67539" lon="6.07054">
        <ele>996.2</ele>
        <time>2022-09-18T13:10:43Z</time>
      </trkpt>
      <trkpt lat="44.6754" lon="6.07051">
        <ele>996.2</ele>
        <time>2022-09-18T13:10:44Z</time>
      </trkpt>
      <trkpt lat="44.67542" lon="6.07045">
        <ele>996.4</ele>
        <time>2022-09-18T13:10:46Z</time>
      </trkpt>
      <trkpt lat="44.67544" lon="6.07042">
        <ele>996.4</ele>
        <time>2022-09-18T13:10:47Z</time>
      </trkpt>
      <trkpt lat="44.67545" lon="6.07039">
        <ele>996.4</ele>
        <time>2022-09-18T13:10:48Z</time>
      </trkpt>
      <trkpt lat="44.67547" lon="6.07032">
        <ele>996.4</ele>
        <time>2022-09-18T13:10:50Z</time>
      </trkpt>
      <trkpt lat="44.67547" lon="6.07029">
        <ele>996.4</ele>
        <time>2022-09-18T13:10:51Z</time>
      </trkpt>
      <trkpt lat="44.67548" lon="6.07025">
        <ele>996.4</ele>
        <time>2022-09-18T13:10:52Z</time>
      </trkpt>
      <trkpt lat="44.67549" lon="6.07022">
        <ele>996.4</ele>
        <time>2022-09-18T13:10:53Z</time>
      </trkpt>
      <trkpt lat="44.6755" lon="6.07018">
        <ele>996.8</ele>
        <time>2022-09-18T13:10:54Z</time>
      </trkpt>
      <trkpt lat="44.67551" lon="6.07015">
        <ele>996.8</ele>
        <time>2022-09-18T13:10:55Z</time>
      </trkpt>
      <trkpt lat="44.67553" lon="6.07008">
        <ele>997</ele>
        <time>2022-09-18T13:10:57Z</time>
      </trkpt>
      <trkpt lat="44.67554" lon="6.07004">
        <ele>997</ele>
        <time>2022-09-18T13:10:58Z</time>
      </trkpt>
      <trkpt lat="44.67555" lon="6.07">
        <ele>997</ele>
        <time>2022-09-18T13:10:59Z</time>
      </trkpt>
      <trkpt lat="44.67555" lon="6.06997">
        <ele>997.2</ele>
        <time>2022-09-18T13:11:00Z</time>
      </trkpt>
      <trkpt lat="44.67556" lon="6.06993">
        <ele>997.2</ele>
        <time>2022-09-18T13:11:01Z</time>
      </trkpt>
      <trkpt lat="44.67557" lon="6.0699">
        <ele>997.4</ele>
        <time>2022-09-18T13:11:02Z</time>
      </trkpt>
      <trkpt lat="44.67559" lon="6.06987">
        <ele>997.4</ele>
        <time>2022-09-18T13:11:03Z</time>
      </trkpt>
      <trkpt lat="44.67561" lon="6.0698">
        <ele>997.4</ele>
        <time>2022-09-18T13:11:05Z</time>
      </trkpt>
      <trkpt lat="44.67562" lon="6.06976">
        <ele>997.4</ele>
        <time>2022-09-18T13:11:06Z</time>
      </trkpt>
      <trkpt lat="44.67563" lon="6.06973">
        <ele>997.6</ele>
        <time>2022-09-18T13:11:07Z</time>
      </trkpt>
      <trkpt lat="44.67565" lon="6.06966">
        <ele>997.8</ele>
        <time>2022-09-18T13:11:09Z</time>
      </trkpt>
      <trkpt lat="44.67566" lon="6.06963">
        <ele>998</ele>
        <time>2022-09-18T13:11:10Z</time>
      </trkpt>
      <trkpt lat="44.67568" lon="6.06956">
        <ele>998.2</ele>
        <time>2022-09-18T13:11:12Z</time>
      </trkpt>
      <trkpt lat="44.6757" lon="6.0695">
        <ele>998.4</ele>
        <time>2022-09-18T13:11:14Z</time>
      </trkpt>
      <trkpt lat="44.67571" lon="6.06946">
        <ele>998.6</ele>
        <time>2022-09-18T13:11:15Z</time>
      </trkpt>
      <trkpt lat="44.67572" lon="6.06943">
        <ele>998.6</ele>
        <time>2022-09-18T13:11:16Z</time>
      </trkpt>
      <trkpt lat="44.67572" lon="6.06939">
        <ele>998.6</ele>
        <time>2022-09-18T13:11:17Z</time>
      </trkpt>
      <trkpt lat="44.67573" lon="6.06936">
        <ele>998.8</ele>
        <time>2022-09-18T13:11:18Z</time>
      </trkpt>
      <trkpt lat="44.67575" lon="6.06928">
        <ele>999.2</ele>
        <time>2022-09-18T13:11:20Z</time>
      </trkpt>
      <trkpt lat="44.67575" lon="6.06924">
        <ele>999.2</ele>
        <time>2022-09-18T13:11:21Z</time>
      </trkpt>
      <trkpt lat="44.67577" lon="6.06917">
        <ele>999.2</ele>
        <time>2022-09-18T13:11:23Z</time>
      </trkpt>
      <trkpt lat="44.67578" lon="6.0691">
        <ele>999.2</ele>
        <time>2022-09-18T13:11:25Z</time>
      </trkpt>
      <trkpt lat="44.67579" lon="6.06906">
        <ele>999.4</ele>
        <time>2022-09-18T13:11:26Z</time>
      </trkpt>
      <trkpt lat="44.67579" lon="6.06903">
        <ele>999.4</ele>
        <time>2022-09-18T13:11:27Z</time>
      </trkpt>
      <trkpt lat="44.6758" lon="6.069">
        <ele>999.6</ele>
        <time>2022-09-18T13:11:28Z</time>
      </trkpt>
      <trkpt lat="44.67581" lon="6.06896">
        <ele>999.6</ele>
        <time>2022-09-18T13:11:29Z</time>
      </trkpt>
      <trkpt lat="44.67582" lon="6.06893">
        <ele>999.6</ele>
        <time>2022-09-18T13:11:30Z</time>
      </trkpt>
      <trkpt lat="44.67582" lon="6.06885">
        <ele>999.8</ele>
        <time>2022-09-18T13:11:32Z</time>
      </trkpt>
      <trkpt lat="44.67583" lon="6.06881">
        <ele>999.6</ele>
        <time>2022-09-18T13:11:33Z</time>
      </trkpt>
      <trkpt lat="44.67583" lon="6.06877">
        <ele>999.6</ele>
        <time>2022-09-18T13:11:34Z</time>
      </trkpt>
      <trkpt lat="44.67584" lon="6.06874">
        <ele>999.6</ele>
        <time>2022-09-18T13:11:35Z</time>
      </trkpt>
      <trkpt lat="44.67584" lon="6.0687">
        <ele>999.8</ele>
        <time>2022-09-18T13:11:36Z</time>
      </trkpt>
      <trkpt lat="44.67584" lon="6.06866">
        <ele>999.8</ele>
        <time>2022-09-18T13:11:37Z</time>
      </trkpt>
      <trkpt lat="44.67584" lon="6.06862">
        <ele>999.8</ele>
        <time>2022-09-18T13:11:38Z</time>
      </trkpt>
      <trkpt lat="44.67584" lon="6.06859">
        <ele>1000</ele>
        <time>2022-09-18T13:11:39Z</time>
      </trkpt>
      <trkpt lat="44.67585" lon="6.06851">
        <ele>1000.4</ele>
        <time>2022-09-18T13:11:41Z</time>
      </trkpt>
      <trkpt lat="44.67585" lon="6.06848">
        <ele>1000.4</ele>
        <time>2022-09-18T13:11:42Z</time>
      </trkpt>
      <trkpt lat="44.67586" lon="6.06844">
        <ele>1000.6</ele>
        <time>2022-09-18T13:11:43Z</time>
      </trkpt>
      <trkpt lat="44.67587" lon="6.06836">
        <ele>1000.8</ele>
        <time>2022-09-18T13:11:45Z</time>
      </trkpt>
      <trkpt lat="44.67587" lon="6.06833">
        <ele>1000.8</ele>
        <time>2022-09-18T13:11:46Z</time>
      </trkpt>
      <trkpt lat="44.67588" lon="6.06829">
        <ele>1000.8</ele>
        <time>2022-09-18T13:11:47Z</time>
      </trkpt>
      <trkpt lat="44.67588" lon="6.06825">
        <ele>1000.8</ele>
        <time>2022-09-18T13:11:48Z</time>
      </trkpt>
      <trkpt lat="44.67589" lon="6.06818">
        <ele>1000.8</ele>
        <time>2022-09-18T13:11:50Z</time>
      </trkpt>
      <trkpt lat="44.6759" lon="6.06814">
        <ele>1001</ele>
        <time>2022-09-18T13:11:51Z</time>
      </trkpt>
      <trkpt lat="44.67591" lon="6.06807">
        <ele>1001.4</ele>
        <time>2022-09-18T13:11:53Z</time>
      </trkpt>
      <trkpt lat="44.67592" lon="6.06803">
        <ele>1001.4</ele>
        <time>2022-09-18T13:11:54Z</time>
      </trkpt>
      <trkpt lat="44.67593" lon="6.06799">
        <ele>1001.4</ele>
        <time>2022-09-18T13:11:55Z</time>
      </trkpt>
      <trkpt lat="44.67595" lon="6.06792">
        <ele>1001.4</ele>
        <time>2022-09-18T13:11:57Z</time>
      </trkpt>
      <trkpt lat="44.67596" lon="6.06788">
        <ele>1001.4</ele>
        <time>2022-09-18T13:11:58Z</time>
      </trkpt>
      <trkpt lat="44.67597" lon="6.06785">
        <ele>1001.8</ele>
        <time>2022-09-18T13:11:59Z</time>
      </trkpt>
      <trkpt lat="44.67598" lon="6.06781">
        <ele>1001.8</ele>
        <time>2022-09-18T13:12:00Z</time>
      </trkpt>
      <trkpt lat="44.676" lon="6.06774">
        <ele>1002</ele>
        <time>2022-09-18T13:12:02Z</time>
      </trkpt>
      <trkpt lat="44.67602" lon="6.0677">
        <ele>1002.2</ele>
        <time>2022-09-18T13:12:03Z</time>
      </trkpt>
      <trkpt lat="44.67604" lon="6.06763">
        <ele>1002.2</ele>
        <time>2022-09-18T13:12:05Z</time>
      </trkpt>
      <trkpt lat="44.67605" lon="6.06759">
        <ele>1002.2</ele>
        <time>2022-09-18T13:12:06Z</time>
      </trkpt>
      <trkpt lat="44.67608" lon="6.06752">
        <ele>1002.6</ele>
        <time>2022-09-18T13:12:08Z</time>
      </trkpt>
      <trkpt lat="44.67609" lon="6.06748">
        <ele>1002.8</ele>
        <time>2022-09-18T13:12:09Z</time>
      </trkpt>
      <trkpt lat="44.67612" lon="6.06741">
        <ele>1002.8</ele>
        <time>2022-09-18T13:12:11Z</time>
      </trkpt>
      <trkpt lat="44.67613" lon="6.06738">
        <ele>1002.8</ele>
        <time>2022-09-18T13:12:12Z</time>
      </trkpt>
      <trkpt lat="44.67616" lon="6.06731">
        <ele>1002.8</ele>
        <time>2022-09-18T13:12:14Z</time>
      </trkpt>
      <trkpt lat="44.67617" lon="6.06728">
        <ele>1002.8</ele>
        <time>2022-09-18T13:12:15Z</time>
      </trkpt>
      <trkpt lat="44.6762" lon="6.06721">
        <ele>1003.2</ele>
        <time>2022-09-18T13:12:17Z</time>
      </trkpt>
      <trkpt lat="44.67621" lon="6.06717">
        <ele>1003.4</ele>
        <time>2022-09-18T13:12:18Z</time>
      </trkpt>
      <trkpt lat="44.67622" lon="6.06714">
        <ele>1003.4</ele>
        <time>2022-09-18T13:12:19Z</time>
      </trkpt>
      <trkpt lat="44.67625" lon="6.06706">
        <ele>1003.6</ele>
        <time>2022-09-18T13:12:21Z</time>
      </trkpt>
      <trkpt lat="44.67626" lon="6.06703">
        <ele>1003.6</ele>
        <time>2022-09-18T13:12:22Z</time>
      </trkpt>
      <trkpt lat="44.67628" lon="6.067">
        <ele>1003.8</ele>
        <time>2022-09-18T13:12:23Z</time>
      </trkpt>
      <trkpt lat="44.6763" lon="6.06697">
        <ele>1004</ele>
        <time>2022-09-18T13:12:24Z</time>
      </trkpt>
      <trkpt lat="44.67632" lon="6.06694">
        <ele>1004.2</ele>
        <time>2022-09-18T13:12:25Z</time>
      </trkpt>
      <trkpt lat="44.67635" lon="6.06688">
        <ele>1004.4</ele>
        <time>2022-09-18T13:12:27Z</time>
      </trkpt>
      <trkpt lat="44.67636" lon="6.06685">
        <ele>1004.4</ele>
        <time>2022-09-18T13:12:28Z</time>
      </trkpt>
      <trkpt lat="44.67638" lon="6.06682">
        <ele>1004.6</ele>
        <time>2022-09-18T13:12:29Z</time>
      </trkpt>
      <trkpt lat="44.6764" lon="6.06679">
        <ele>1005.2</ele>
        <time>2022-09-18T13:12:30Z</time>
      </trkpt>
      <trkpt lat="44.67644" lon="6.06673">
        <ele>1005.6</ele>
        <time>2022-09-18T13:12:32Z</time>
      </trkpt>
      <trkpt lat="44.67646" lon="6.0667">
        <ele>1005.4</ele>
        <time>2022-09-18T13:12:33Z</time>
      </trkpt>
      <trkpt lat="44.67648" lon="6.06668">
        <ele>1005.6</ele>
        <time>2022-09-18T13:12:34Z</time>
      </trkpt>
      <trkpt lat="44.6765" lon="6.06665">
        <ele>1005.6</ele>
        <time>2022-09-18T13:12:35Z</time>
      </trkpt>
      <trkpt lat="44.67652" lon="6.06662">
        <ele>1005.6</ele>
        <time>2022-09-18T13:12:36Z</time>
      </trkpt>
      <trkpt lat="44.67657" lon="6.06657">
        <ele>1006</ele>
        <time>2022-09-18T13:12:38Z</time>
      </trkpt>
      <trkpt lat="44.6766" lon="6.06655">
        <ele>1006</ele>
        <time>2022-09-18T13:12:39Z</time>
      </trkpt>
      <trkpt lat="44.67665" lon="6.0665">
        <ele>1006.4</ele>
        <time>2022-09-18T13:12:41Z</time>
      </trkpt>
      <trkpt lat="44.67667" lon="6.06647">
        <ele>1006.6</ele>
        <time>2022-09-18T13:12:42Z</time>
      </trkpt>
      <trkpt lat="44.67672" lon="6.06642">
        <ele>1007</ele>
        <time>2022-09-18T13:12:44Z</time>
      </trkpt>
      <trkpt lat="44.67674" lon="6.0664">
        <ele>1007</ele>
        <time>2022-09-18T13:12:45Z</time>
      </trkpt>
      <trkpt lat="44.67676" lon="6.06637">
        <ele>1007.2</ele>
        <time>2022-09-18T13:12:46Z</time>
      </trkpt>
      <trkpt lat="44.67679" lon="6.06635">
        <ele>1007.6</ele>
        <time>2022-09-18T13:12:47Z</time>
      </trkpt>
      <trkpt lat="44.67681" lon="6.06632">
        <ele>1007.6</ele>
        <time>2022-09-18T13:12:48Z</time>
      </trkpt>
      <trkpt lat="44.67683" lon="6.0663">
        <ele>1007.8</ele>
        <time>2022-09-18T13:12:49Z</time>
      </trkpt>
      <trkpt lat="44.67686" lon="6.06627">
        <ele>1007.8</ele>
        <time>2022-09-18T13:12:50Z</time>
      </trkpt>
      <trkpt lat="44.67688" lon="6.06624">
        <ele>1008</ele>
        <time>2022-09-18T13:12:51Z</time>
      </trkpt>
      <trkpt lat="44.6769" lon="6.06622">
        <ele>1008.2</ele>
        <time>2022-09-18T13:12:52Z</time>
      </trkpt>
      <trkpt lat="44.67692" lon="6.0662">
        <ele>1008.2</ele>
        <time>2022-09-18T13:12:53Z</time>
      </trkpt>
      <trkpt lat="44.67694" lon="6.06617">
        <ele>1008.4</ele>
        <time>2022-09-18T13:12:54Z</time>
      </trkpt>
      <trkpt lat="44.67698" lon="6.06613">
        <ele>1008.4</ele>
        <time>2022-09-18T13:12:56Z</time>
      </trkpt>
      <trkpt lat="44.67701" lon="6.0661">
        <ele>1008.8</ele>
        <time>2022-09-18T13:12:57Z</time>
      </trkpt>
      <trkpt lat="44.67703" lon="6.06608">
        <ele>1009</ele>
        <time>2022-09-18T13:12:58Z</time>
      </trkpt>
      <trkpt lat="44.67705" lon="6.06605">
        <ele>1009.2</ele>
        <time>2022-09-18T13:12:59Z</time>
      </trkpt>
      <trkpt lat="44.67707" lon="6.06603">
        <ele>1009.4</ele>
        <time>2022-09-18T13:13:00Z</time>
      </trkpt>
      <trkpt lat="44.67709" lon="6.066">
        <ele>1009.4</ele>
        <time>2022-09-18T13:13:01Z</time>
      </trkpt>
      <trkpt lat="44.67711" lon="6.06597">
        <ele>1009.6</ele>
        <time>2022-09-18T13:13:02Z</time>
      </trkpt>
      <trkpt lat="44.67714" lon="6.06595">
        <ele>1009.8</ele>
        <time>2022-09-18T13:13:03Z</time>
      </trkpt>
      <trkpt lat="44.67718" lon="6.0659">
        <ele>1010</ele>
        <time>2022-09-18T13:13:05Z</time>
      </trkpt>
      <trkpt lat="44.6772" lon="6.06587">
        <ele>1010.2</ele>
        <time>2022-09-18T13:13:06Z</time>
      </trkpt>
      <trkpt lat="44.67723" lon="6.06585">
        <ele>1010.6</ele>
        <time>2022-09-18T13:13:07Z</time>
      </trkpt>
      <trkpt lat="44.67727" lon="6.0658">
        <ele>1010.8</ele>
        <time>2022-09-18T13:13:09Z</time>
      </trkpt>
      <trkpt lat="44.67729" lon="6.06577">
        <ele>1011</ele>
        <time>2022-09-18T13:13:10Z</time>
      </trkpt>
      <trkpt lat="44.67731" lon="6.06575">
        <ele>1011.4</ele>
        <time>2022-09-18T13:13:11Z</time>
      </trkpt>
      <trkpt lat="44.67734" lon="6.06573">
        <ele>1011.6</ele>
        <time>2022-09-18T13:13:12Z</time>
      </trkpt>
      <trkpt lat="44.67736" lon="6.06571">
        <ele>1011.8</ele>
        <time>2022-09-18T13:13:13Z</time>
      </trkpt>
      <trkpt lat="44.67738" lon="6.06569">
        <ele>1012</ele>
        <time>2022-09-18T13:13:14Z</time>
      </trkpt>
      <trkpt lat="44.6774" lon="6.06566">
        <ele>1012.2</ele>
        <time>2022-09-18T13:13:15Z</time>
      </trkpt>
      <trkpt lat="44.67745" lon="6.06562">
        <ele>1012.6</ele>
        <time>2022-09-18T13:13:17Z</time>
      </trkpt>
      <trkpt lat="44.67747" lon="6.06559">
        <ele>1012.8</ele>
        <time>2022-09-18T13:13:18Z</time>
      </trkpt>
      <trkpt lat="44.67749" lon="6.06556">
        <ele>1012.8</ele>
        <time>2022-09-18T13:13:19Z</time>
      </trkpt>
      <trkpt lat="44.67752" lon="6.06549">
        <ele>1012.8</ele>
        <time>2022-09-18T13:13:21Z</time>
      </trkpt>
      <trkpt lat="44.67753" lon="6.06546">
        <ele>1013.2</ele>
        <time>2022-09-18T13:13:22Z</time>
      </trkpt>
      <trkpt lat="44.67753" lon="6.06543">
        <ele>1013.2</ele>
        <time>2022-09-18T13:13:23Z</time>
      </trkpt>
      <trkpt lat="44.67753" lon="6.06539">
        <ele>1013.6</ele>
        <time>2022-09-18T13:13:24Z</time>
      </trkpt>
      <trkpt lat="44.67753" lon="6.06532">
        <ele>1014</ele>
        <time>2022-09-18T13:13:26Z</time>
      </trkpt>
      <trkpt lat="44.67752" lon="6.06526">
        <ele>1014.2</ele>
        <time>2022-09-18T13:13:28Z</time>
      </trkpt>
      <trkpt lat="44.67752" lon="6.06522">
        <ele>1014.6</ele>
        <time>2022-09-18T13:13:29Z</time>
      </trkpt>
      <trkpt lat="44.67751" lon="6.06519">
        <ele>1014.6</ele>
        <time>2022-09-18T13:13:30Z</time>
      </trkpt>
      <trkpt lat="44.6775" lon="6.06514">
        <ele>1015.4</ele>
        <time>2022-09-18T13:13:32Z</time>
      </trkpt>
      <trkpt lat="44.6775" lon="6.06511">
        <ele>1015.6</ele>
        <time>2022-09-18T13:13:33Z</time>
      </trkpt>
      <trkpt lat="44.6775" lon="6.06508">
        <ele>1016</ele>
        <time>2022-09-18T13:13:34Z</time>
      </trkpt>
      <trkpt lat="44.6775" lon="6.06505">
        <ele>1016.2</ele>
        <time>2022-09-18T13:13:35Z</time>
      </trkpt>
      <trkpt lat="44.6775" lon="6.06502">
        <ele>1016.8</ele>
        <time>2022-09-18T13:13:36Z</time>
      </trkpt>
      <trkpt lat="44.6775" lon="6.06496">
        <ele>1017.2</ele>
        <time>2022-09-18T13:13:38Z</time>
      </trkpt>
      <trkpt lat="44.6775" lon="6.06493">
        <ele>1017.6</ele>
        <time>2022-09-18T13:13:39Z</time>
      </trkpt>
      <trkpt lat="44.6775" lon="6.0649">
        <ele>1017.8</ele>
        <time>2022-09-18T13:13:40Z</time>
      </trkpt>
      <trkpt lat="44.6775" lon="6.06487">
        <ele>1018.2</ele>
        <time>2022-09-18T13:13:41Z</time>
      </trkpt>
      <trkpt lat="44.6775" lon="6.06484">
        <ele>1018.6</ele>
        <time>2022-09-18T13:13:42Z</time>
      </trkpt>
      <trkpt lat="44.67751" lon="6.06478">
        <ele>1018.8</ele>
        <time>2022-09-18T13:13:44Z</time>
      </trkpt>
      <trkpt lat="44.67752" lon="6.06475">
        <ele>1019</ele>
        <time>2022-09-18T13:13:45Z</time>
      </trkpt>
      <trkpt lat="44.67752" lon="6.06472">
        <ele>1019.4</ele>
        <time>2022-09-18T13:13:46Z</time>
      </trkpt>
      <trkpt lat="44.67752" lon="6.06466">
        <ele>1019.8</ele>
        <time>2022-09-18T13:13:48Z</time>
      </trkpt>
      <trkpt lat="44.67753" lon="6.06461">
        <ele>1020.2</ele>
        <time>2022-09-18T13:13:50Z</time>
      </trkpt>
      <trkpt lat="44.67754" lon="6.06456">
        <ele>1020.6</ele>
        <time>2022-09-18T13:13:52Z</time>
      </trkpt>
      <trkpt lat="44.67755" lon="6.06453">
        <ele>1020.8</ele>
        <time>2022-09-18T13:13:53Z</time>
      </trkpt>
      <trkpt lat="44.67756" lon="6.06451">
        <ele>1021</ele>
        <time>2022-09-18T13:13:54Z</time>
      </trkpt>
      <trkpt lat="44.67758" lon="6.06445">
        <ele>1021.4</ele>
        <time>2022-09-18T13:13:56Z</time>
      </trkpt>
      <trkpt lat="44.67759" lon="6.06441">
        <ele>1021.6</ele>
        <time>2022-09-18T13:13:58Z</time>
      </trkpt>
      <trkpt lat="44.67761" lon="6.06436">
        <ele>1022</ele>
        <time>2022-09-18T13:14:00Z</time>
      </trkpt>
      <trkpt lat="44.67763" lon="6.06431">
        <ele>1022.2</ele>
        <time>2022-09-18T13:14:02Z</time>
      </trkpt>
      <trkpt lat="44.67764" lon="6.06429">
        <ele>1022.4</ele>
        <time>2022-09-18T13:14:03Z</time>
      </trkpt>
      <trkpt lat="44.67765" lon="6.06426">
        <ele>1022.4</ele>
        <time>2022-09-18T13:14:04Z</time>
      </trkpt>
      <trkpt lat="44.67767" lon="6.06422">
        <ele>1022.6</ele>
        <time>2022-09-18T13:14:06Z</time>
      </trkpt>
      <trkpt lat="44.67768" lon="6.06418">
        <ele>1023</ele>
        <time>2022-09-18T13:14:08Z</time>
      </trkpt>
      <trkpt lat="44.67769" lon="6.06413">
        <ele>1023.2</ele>
        <time>2022-09-18T13:14:10Z</time>
      </trkpt>
      <trkpt lat="44.67771" lon="6.0641">
        <ele>1023.6</ele>
        <time>2022-09-18T13:14:12Z</time>
      </trkpt>
      <trkpt lat="44.67773" lon="6.06406">
        <ele>1023.8</ele>
        <time>2022-09-18T13:14:14Z</time>
      </trkpt>
      <trkpt lat="44.67775" lon="6.06402">
        <ele>1024.2</ele>
        <time>2022-09-18T13:14:16Z</time>
      </trkpt>
      <trkpt lat="44.67776" lon="6.064">
        <ele>1024.4</ele>
        <time>2022-09-18T13:14:17Z</time>
      </trkpt>
      <trkpt lat="44.67777" lon="6.06398">
        <ele>1024.4</ele>
        <time>2022-09-18T13:14:18Z</time>
      </trkpt>
      <trkpt lat="44.67779" lon="6.06395">
        <ele>1024.8</ele>
        <time>2022-09-18T13:14:20Z</time>
      </trkpt>
      <trkpt lat="44.67783" lon="6.06391">
        <ele>1025.2</ele>
        <time>2022-09-18T13:14:23Z</time>
      </trkpt>
      <trkpt lat="44.67784" lon="6.0639">
        <ele>1025.2</ele>
        <time>2022-09-18T13:14:24Z</time>
      </trkpt>
      <trkpt lat="44.67788" lon="6.06386">
        <ele>1025.6</ele>
        <time>2022-09-18T13:14:27Z</time>
      </trkpt>
      <trkpt lat="44.67789" lon="6.06385">
        <ele>1025.8</ele>
        <time>2022-09-18T13:14:28Z</time>
      </trkpt>
      <trkpt lat="44.6779" lon="6.06383">
        <ele>1026</ele>
        <time>2022-09-18T13:14:30Z</time>
      </trkpt>
      <trkpt lat="44.67792" lon="6.0638">
        <ele>1026.4</ele>
        <time>2022-09-18T13:14:32Z</time>
      </trkpt>
      <trkpt lat="44.67793" lon="6.0638">
        <ele>1025.6</ele>
        <time>2022-09-18T13:15:08Z</time>
      </trkpt>
      <trkpt lat="44.67795" lon="6.06381">
        <ele>1024.6</ele>
        <time>2022-09-18T13:15:27Z</time>
      </trkpt>
      <trkpt lat="44.67795" lon="6.06379">
        <ele>1023.4</ele>
        <time>2022-09-18T13:15:38Z</time>
      </trkpt>
      <trkpt lat="44.67793" lon="6.06377">
        <ele>1023</ele>
        <time>2022-09-18T13:15:43Z</time>
      </trkpt>
      <trkpt lat="44.67792" lon="6.06375">
        <ele>1022</ele>
        <time>2022-09-18T13:15:47Z</time>
      </trkpt>
      <trkpt lat="44.6779" lon="6.06372">
        <ele>1021</ele>
        <time>2022-09-18T13:15:54Z</time>
      </trkpt>
      <trkpt lat="44.67792" lon="6.06374">
        <ele>1020.8</ele>
        <time>2022-09-18T13:16:00Z</time>
      </trkpt>
      <trkpt lat="44.67794" lon="6.06375">
        <ele>1019.8</ele>
        <time>2022-09-18T13:16:05Z</time>
      </trkpt>
      <trkpt lat="44.67793" lon="6.06373">
        <ele>1017.8</ele>
        <time>2022-09-18T13:16:23Z</time>
      </trkpt>
      <trkpt lat="44.67795" lon="6.06371">
        <ele>1017.6</ele>
        <time>2022-09-18T13:16:25Z</time>
      </trkpt>
      <trkpt lat="44.67797" lon="6.06369">
        <ele>1017.6</ele>
        <time>2022-09-18T13:16:27Z</time>
      </trkpt>
      <trkpt lat="44.67802" lon="6.06365">
        <ele>1017.2</ele>
        <time>2022-09-18T13:16:30Z</time>
      </trkpt>
      <trkpt lat="44.67803" lon="6.06363">
        <ele>1017.4</ele>
        <time>2022-09-18T13:16:31Z</time>
      </trkpt>
      <trkpt lat="44.67806" lon="6.06362">
        <ele>1017.8</ele>
        <time>2022-09-18T13:16:33Z</time>
      </trkpt>
      <trkpt lat="44.67809" lon="6.06359">
        <ele>1017.8</ele>
        <time>2022-09-18T13:16:35Z</time>
      </trkpt>
      <trkpt lat="44.67811" lon="6.06358">
        <ele>1017.8</ele>
        <time>2022-09-18T13:16:36Z</time>
      </trkpt>
      <trkpt lat="44.67814" lon="6.06357">
        <ele>1018</ele>
        <time>2022-09-18T13:16:38Z</time>
      </trkpt>
      <trkpt lat="44.67817" lon="6.06355">
        <ele>1018.4</ele>
        <time>2022-09-18T13:16:40Z</time>
      </trkpt>
      <trkpt lat="44.67819" lon="6.06354">
        <ele>1018.6</ele>
        <time>2022-09-18T13:16:41Z</time>
      </trkpt>
      <trkpt lat="44.67824" lon="6.06351">
        <ele>1020</ele>
        <time>2022-09-18T13:16:44Z</time>
      </trkpt>
      <trkpt lat="44.67825" lon="6.0635">
        <ele>1020.4</ele>
        <time>2022-09-18T13:16:45Z</time>
      </trkpt>
      <trkpt lat="44.67829" lon="6.06348">
        <ele>1021</ele>
        <time>2022-09-18T13:16:47Z</time>
      </trkpt>
      <trkpt lat="44.67831" lon="6.06345">
        <ele>1021.8</ele>
        <time>2022-09-18T13:16:49Z</time>
      </trkpt>
      <trkpt lat="44.67833" lon="6.06344">
        <ele>1022.2</ele>
        <time>2022-09-18T13:16:50Z</time>
      </trkpt>
      <trkpt lat="44.67835" lon="6.06342">
        <ele>1022.6</ele>
        <time>2022-09-18T13:16:51Z</time>
      </trkpt>
      <trkpt lat="44.67836" lon="6.06341">
        <ele>1023.2</ele>
        <time>2022-09-18T13:16:52Z</time>
      </trkpt>
      <trkpt lat="44.6784" lon="6.06339">
        <ele>1023.8</ele>
        <time>2022-09-18T13:16:54Z</time>
      </trkpt>
      <trkpt lat="44.67843" lon="6.06337">
        <ele>1024.4</ele>
        <time>2022-09-18T13:16:56Z</time>
      </trkpt>
      <trkpt lat="44.67846" lon="6.06335">
        <ele>1025</ele>
        <time>2022-09-18T13:16:58Z</time>
      </trkpt>
      <trkpt lat="44.67849" lon="6.06332">
        <ele>1026</ele>
        <time>2022-09-18T13:17:00Z</time>
      </trkpt>
      <trkpt lat="44.67852" lon="6.06329">
        <ele>1026.8</ele>
        <time>2022-09-18T13:17:02Z</time>
      </trkpt>
      <trkpt lat="44.67854" lon="6.06327">
        <ele>1027.2</ele>
        <time>2022-09-18T13:17:03Z</time>
      </trkpt>
      <trkpt lat="44.67855" lon="6.06326">
        <ele>1027.6</ele>
        <time>2022-09-18T13:17:04Z</time>
      </trkpt>
      <trkpt lat="44.67857" lon="6.06324">
        <ele>1027.8</ele>
        <time>2022-09-18T13:17:05Z</time>
      </trkpt>
      <trkpt lat="44.67858" lon="6.06323">
        <ele>1028.4</ele>
        <time>2022-09-18T13:17:06Z</time>
      </trkpt>
      <trkpt lat="44.67861" lon="6.06319">
        <ele>1029</ele>
        <time>2022-09-18T13:17:08Z</time>
      </trkpt>
      <trkpt lat="44.67862" lon="6.06318">
        <ele>1029.4</ele>
        <time>2022-09-18T13:17:09Z</time>
      </trkpt>
      <trkpt lat="44.67864" lon="6.06316">
        <ele>1029.8</ele>
        <time>2022-09-18T13:17:10Z</time>
      </trkpt>
      <trkpt lat="44.67865" lon="6.06314">
        <ele>1030</ele>
        <time>2022-09-18T13:17:11Z</time>
      </trkpt>
      <trkpt lat="44.67867" lon="6.06312">
        <ele>1030.4</ele>
        <time>2022-09-18T13:17:12Z</time>
      </trkpt>
      <trkpt lat="44.6787" lon="6.06309">
        <ele>1030.8</ele>
        <time>2022-09-18T13:17:14Z</time>
      </trkpt>
      <trkpt lat="44.67872" lon="6.06306">
        <ele>1031.2</ele>
        <time>2022-09-18T13:17:16Z</time>
      </trkpt>
      <trkpt lat="44.67875" lon="6.06302">
        <ele>1032</ele>
        <time>2022-09-18T13:17:18Z</time>
      </trkpt>
      <trkpt lat="44.67876" lon="6.063">
        <ele>1032</ele>
        <time>2022-09-18T13:17:19Z</time>
      </trkpt>
      <trkpt lat="44.67878" lon="6.06295">
        <ele>1032.4</ele>
        <time>2022-09-18T13:17:21Z</time>
      </trkpt>
      <trkpt lat="44.67879" lon="6.06293">
        <ele>1032.6</ele>
        <time>2022-09-18T13:17:22Z</time>
      </trkpt>
      <trkpt lat="44.6788" lon="6.0629">
        <ele>1033</ele>
        <time>2022-09-18T13:17:23Z</time>
      </trkpt>
      <trkpt lat="44.67881" lon="6.06288">
        <ele>1033.4</ele>
        <time>2022-09-18T13:17:24Z</time>
      </trkpt>
      <trkpt lat="44.67883" lon="6.06284">
        <ele>1034</ele>
        <time>2022-09-18T13:17:26Z</time>
      </trkpt>
      <trkpt lat="44.67884" lon="6.06281">
        <ele>1033.8</ele>
        <time>2022-09-18T13:17:27Z</time>
      </trkpt>
      <trkpt lat="44.67885" lon="6.06279">
        <ele>1034.2</ele>
        <time>2022-09-18T13:17:28Z</time>
      </trkpt>
      <trkpt lat="44.67886" lon="6.06277">
        <ele>1034.4</ele>
        <time>2022-09-18T13:17:29Z</time>
      </trkpt>
      <trkpt lat="44.67887" lon="6.06274">
        <ele>1034.4</ele>
        <time>2022-09-18T13:17:30Z</time>
      </trkpt>
      <trkpt lat="44.67888" lon="6.06272">
        <ele>1034.6</ele>
        <time>2022-09-18T13:17:31Z</time>
      </trkpt>
      <trkpt lat="44.67888" lon="6.06269">
        <ele>1034.8</ele>
        <time>2022-09-18T13:17:32Z</time>
      </trkpt>
      <trkpt lat="44.67889" lon="6.06267">
        <ele>1035.2</ele>
        <time>2022-09-18T13:17:33Z</time>
      </trkpt>
      <trkpt lat="44.6789" lon="6.06264">
        <ele>1035.4</ele>
        <time>2022-09-18T13:17:34Z</time>
      </trkpt>
      <trkpt lat="44.6789" lon="6.06261">
        <ele>1035.6</ele>
        <time>2022-09-18T13:17:35Z</time>
      </trkpt>
      <trkpt lat="44.67891" lon="6.06259">
        <ele>1035.8</ele>
        <time>2022-09-18T13:17:36Z</time>
      </trkpt>
      <trkpt lat="44.67892" lon="6.06257">
        <ele>1036.2</ele>
        <time>2022-09-18T13:17:37Z</time>
      </trkpt>
      <trkpt lat="44.67893" lon="6.06254">
        <ele>1036.6</ele>
        <time>2022-09-18T13:17:38Z</time>
      </trkpt>
      <trkpt lat="44.67893" lon="6.06252">
        <ele>1036.8</ele>
        <time>2022-09-18T13:17:39Z</time>
      </trkpt>
      <trkpt lat="44.67894" lon="6.06249">
        <ele>1037.2</ele>
        <time>2022-09-18T13:17:40Z</time>
      </trkpt>
      <trkpt lat="44.67894" lon="6.06247">
        <ele>1037.4</ele>
        <time>2022-09-18T13:17:41Z</time>
      </trkpt>
      <trkpt lat="44.67895" lon="6.06244">
        <ele>1037.8</ele>
        <time>2022-09-18T13:17:42Z</time>
      </trkpt>
      <trkpt lat="44.67895" lon="6.06239">
        <ele>1038.6</ele>
        <time>2022-09-18T13:17:44Z</time>
      </trkpt>
      <trkpt lat="44.67894" lon="6.06235">
        <ele>1038.8</ele>
        <time>2022-09-18T13:17:46Z</time>
      </trkpt>
      <trkpt lat="44.67893" lon="6.06233">
        <ele>1039</ele>
        <time>2022-09-18T13:17:47Z</time>
      </trkpt>
      <trkpt lat="44.67892" lon="6.06231">
        <ele>1039.2</ele>
        <time>2022-09-18T13:17:48Z</time>
      </trkpt>
      <trkpt lat="44.67888" lon="6.0623">
        <ele>1039.8</ele>
        <time>2022-09-18T13:17:50Z</time>
      </trkpt>
      <trkpt lat="44.67885" lon="6.0623">
        <ele>1039.8</ele>
        <time>2022-09-18T13:17:51Z</time>
      </trkpt>
      <trkpt lat="44.67883" lon="6.0623">
        <ele>1040</ele>
        <time>2022-09-18T13:17:52Z</time>
      </trkpt>
      <trkpt lat="44.67881" lon="6.06231">
        <ele>1040.2</ele>
        <time>2022-09-18T13:17:53Z</time>
      </trkpt>
      <trkpt lat="44.67879" lon="6.06232">
        <ele>1040.4</ele>
        <time>2022-09-18T13:17:54Z</time>
      </trkpt>
      <trkpt lat="44.67874" lon="6.06234">
        <ele>1040.6</ele>
        <time>2022-09-18T13:17:56Z</time>
      </trkpt>
      <trkpt lat="44.67872" lon="6.06235">
        <ele>1040.8</ele>
        <time>2022-09-18T13:17:57Z</time>
      </trkpt>
      <trkpt lat="44.67869" lon="6.06236">
        <ele>1041.2</ele>
        <time>2022-09-18T13:17:59Z</time>
      </trkpt>
      <trkpt lat="44.67866" lon="6.06236">
        <ele>1041.6</ele>
        <time>2022-09-18T13:18:00Z</time>
      </trkpt>
      <trkpt lat="44.67862" lon="6.06238">
        <ele>1041.8</ele>
        <time>2022-09-18T13:18:02Z</time>
      </trkpt>
      <trkpt lat="44.67859" lon="6.06239">
        <ele>1041.8</ele>
        <time>2022-09-18T13:18:03Z</time>
      </trkpt>
      <trkpt lat="44.67856" lon="6.0624">
        <ele>1042</ele>
        <time>2022-09-18T13:18:04Z</time>
      </trkpt>
      <trkpt lat="44.67854" lon="6.06241">
        <ele>1042.2</ele>
        <time>2022-09-18T13:18:05Z</time>
      </trkpt>
      <trkpt lat="44.67848" lon="6.06242">
        <ele>1042.2</ele>
        <time>2022-09-18T13:18:07Z</time>
      </trkpt>
      <trkpt lat="44.67846" lon="6.06242">
        <ele>1042.4</ele>
        <time>2022-09-18T13:18:08Z</time>
      </trkpt>
      <trkpt lat="44.67843" lon="6.06242">
        <ele>1042.2</ele>
        <time>2022-09-18T13:18:09Z</time>
      </trkpt>
      <trkpt lat="44.6784" lon="6.06243">
        <ele>1042.2</ele>
        <time>2022-09-18T13:18:10Z</time>
      </trkpt>
      <trkpt lat="44.67837" lon="6.06243">
        <ele>1042.4</ele>
        <time>2022-09-18T13:18:11Z</time>
      </trkpt>
      <trkpt lat="44.67834" lon="6.06244">
        <ele>1042.6</ele>
        <time>2022-09-18T13:18:12Z</time>
      </trkpt>
      <trkpt lat="44.67826" lon="6.06246">
        <ele>1042.4</ele>
        <time>2022-09-18T13:18:14Z</time>
      </trkpt>
      <trkpt lat="44.67822" lon="6.06247">
        <ele>1042.4</ele>
        <time>2022-09-18T13:18:15Z</time>
      </trkpt>
      <trkpt lat="44.67818" lon="6.06248">
        <ele>1042.2</ele>
        <time>2022-09-18T13:18:16Z</time>
      </trkpt>
      <trkpt lat="44.67814" lon="6.06248">
        <ele>1042.2</ele>
        <time>2022-09-18T13:18:17Z</time>
      </trkpt>
      <trkpt lat="44.6781" lon="6.06249">
        <ele>1042</ele>
        <time>2022-09-18T13:18:18Z</time>
      </trkpt>
      <trkpt lat="44.67805" lon="6.06249">
        <ele>1042.2</ele>
        <time>2022-09-18T13:18:19Z</time>
      </trkpt>
      <trkpt lat="44.67801" lon="6.0625">
        <ele>1042.8</ele>
        <time>2022-09-18T13:18:20Z</time>
      </trkpt>
      <trkpt lat="44.67797" lon="6.06251">
        <ele>1043.2</ele>
        <time>2022-09-18T13:18:21Z</time>
      </trkpt>
      <trkpt lat="44.67793" lon="6.06251">
        <ele>1043</ele>
        <time>2022-09-18T13:18:22Z</time>
      </trkpt>
      <trkpt lat="44.67789" lon="6.06252">
        <ele>1043.2</ele>
        <time>2022-09-18T13:18:23Z</time>
      </trkpt>
      <trkpt lat="44.67784" lon="6.06252">
        <ele>1043.4</ele>
        <time>2022-09-18T13:18:24Z</time>
      </trkpt>
      <trkpt lat="44.67775" lon="6.06252">
        <ele>1043.2</ele>
        <time>2022-09-18T13:18:26Z</time>
      </trkpt>
      <trkpt lat="44.67771" lon="6.06252">
        <ele>1043.2</ele>
        <time>2022-09-18T13:18:27Z</time>
      </trkpt>
      <trkpt lat="44.67766" lon="6.06252">
        <ele>1043.2</ele>
        <time>2022-09-18T13:18:28Z</time>
      </trkpt>
      <trkpt lat="44.67761" lon="6.06253">
        <ele>1043</ele>
        <time>2022-09-18T13:18:29Z</time>
      </trkpt>
      <trkpt lat="44.67756" lon="6.06253">
        <ele>1042.8</ele>
        <time>2022-09-18T13:18:30Z</time>
      </trkpt>
      <trkpt lat="44.67752" lon="6.06254">
        <ele>1042.2</ele>
        <time>2022-09-18T13:18:31Z</time>
      </trkpt>
      <trkpt lat="44.67747" lon="6.06254">
        <ele>1042.2</ele>
        <time>2022-09-18T13:18:32Z</time>
      </trkpt>
      <trkpt lat="44.67742" lon="6.06255">
        <ele>1042.4</ele>
        <time>2022-09-18T13:18:33Z</time>
      </trkpt>
      <trkpt lat="44.67737" lon="6.06256">
        <ele>1042.4</ele>
        <time>2022-09-18T13:18:34Z</time>
      </trkpt>
      <trkpt lat="44.67732" lon="6.06256">
        <ele>1042.4</ele>
        <time>2022-09-18T13:18:35Z</time>
      </trkpt>
      <trkpt lat="44.67723" lon="6.06258">
        <ele>1043</ele>
        <time>2022-09-18T13:18:37Z</time>
      </trkpt>
      <trkpt lat="44.67718" lon="6.06259">
        <ele>1043.2</ele>
        <time>2022-09-18T13:18:38Z</time>
      </trkpt>
      <trkpt lat="44.67713" lon="6.06259">
        <ele>1043</ele>
        <time>2022-09-18T13:18:39Z</time>
      </trkpt>
      <trkpt lat="44.67708" lon="6.0626">
        <ele>1042.8</ele>
        <time>2022-09-18T13:18:40Z</time>
      </trkpt>
      <trkpt lat="44.67703" lon="6.06261">
        <ele>1043.2</ele>
        <time>2022-09-18T13:18:41Z</time>
      </trkpt>
      <trkpt lat="44.67698" lon="6.06262">
        <ele>1043.4</ele>
        <time>2022-09-18T13:18:42Z</time>
      </trkpt>
      <trkpt lat="44.67688" lon="6.06264">
        <ele>1043.6</ele>
        <time>2022-09-18T13:18:44Z</time>
      </trkpt>
      <trkpt lat="44.67683" lon="6.06266">
        <ele>1044</ele>
        <time>2022-09-18T13:18:45Z</time>
      </trkpt>
      <trkpt lat="44.67679" lon="6.06267">
        <ele>1044</ele>
        <time>2022-09-18T13:18:46Z</time>
      </trkpt>
      <trkpt lat="44.67674" lon="6.06269">
        <ele>1044</ele>
        <time>2022-09-18T13:18:47Z</time>
      </trkpt>
      <trkpt lat="44.67669" lon="6.0627">
        <ele>1044.2</ele>
        <time>2022-09-18T13:18:48Z</time>
      </trkpt>
      <trkpt lat="44.67659" lon="6.06272">
        <ele>1044.6</ele>
        <time>2022-09-18T13:18:50Z</time>
      </trkpt>
      <trkpt lat="44.67654" lon="6.06273">
        <ele>1045</ele>
        <time>2022-09-18T13:18:51Z</time>
      </trkpt>
      <trkpt lat="44.67645" lon="6.06275">
        <ele>1045.2</ele>
        <time>2022-09-18T13:18:53Z</time>
      </trkpt>
      <trkpt lat="44.6764" lon="6.06277">
        <ele>1045.2</ele>
        <time>2022-09-18T13:18:54Z</time>
      </trkpt>
      <trkpt lat="44.6763" lon="6.06279">
        <ele>1045.2</ele>
        <time>2022-09-18T13:18:56Z</time>
      </trkpt>
      <trkpt lat="44.67621" lon="6.06281">
        <ele>1045.2</ele>
        <time>2022-09-18T13:18:58Z</time>
      </trkpt>
      <trkpt lat="44.67616" lon="6.06282">
        <ele>1045.4</ele>
        <time>2022-09-18T13:18:59Z</time>
      </trkpt>
      <trkpt lat="44.67611" lon="6.06282">
        <ele>1045.6</ele>
        <time>2022-09-18T13:19:00Z</time>
      </trkpt>
      <trkpt lat="44.67601" lon="6.06285">
        <ele>1046</ele>
        <time>2022-09-18T13:19:02Z</time>
      </trkpt>
      <trkpt lat="44.67591" lon="6.06288">
        <ele>1046.2</ele>
        <time>2022-09-18T13:19:04Z</time>
      </trkpt>
      <trkpt lat="44.67586" lon="6.06289">
        <ele>1046.2</ele>
        <time>2022-09-18T13:19:05Z</time>
      </trkpt>
      <trkpt lat="44.67581" lon="6.0629">
        <ele>1046</ele>
        <time>2022-09-18T13:19:06Z</time>
      </trkpt>
      <trkpt lat="44.67576" lon="6.06291">
        <ele>1046.2</ele>
        <time>2022-09-18T13:19:07Z</time>
      </trkpt>
      <trkpt lat="44.67571" lon="6.06292">
        <ele>1046.6</ele>
        <time>2022-09-18T13:19:08Z</time>
      </trkpt>
      <trkpt lat="44.67565" lon="6.06293">
        <ele>1046.4</ele>
        <time>2022-09-18T13:19:09Z</time>
      </trkpt>
      <trkpt lat="44.6756" lon="6.06295">
        <ele>1046.6</ele>
        <time>2022-09-18T13:19:10Z</time>
      </trkpt>
      <trkpt lat="44.67555" lon="6.06296">
        <ele>1046.4</ele>
        <time>2022-09-18T13:19:11Z</time>
      </trkpt>
      <trkpt lat="44.6755" lon="6.06297">
        <ele>1046.4</ele>
        <time>2022-09-18T13:19:12Z</time>
      </trkpt>
      <trkpt lat="44.6754" lon="6.06299">
        <ele>1046.4</ele>
        <time>2022-09-18T13:19:14Z</time>
      </trkpt>
      <trkpt lat="44.67534" lon="6.063">
        <ele>1046.6</ele>
        <time>2022-09-18T13:19:15Z</time>
      </trkpt>
      <trkpt lat="44.67529" lon="6.06301">
        <ele>1046.8</ele>
        <time>2022-09-18T13:19:16Z</time>
      </trkpt>
      <trkpt lat="44.67524" lon="6.06302">
        <ele>1046.8</ele>
        <time>2022-09-18T13:19:17Z</time>
      </trkpt>
      <trkpt lat="44.67519" lon="6.06304">
        <ele>1046.8</ele>
        <time>2022-09-18T13:19:18Z</time>
      </trkpt>
      <trkpt lat="44.67514" lon="6.06305">
        <ele>1047</ele>
        <time>2022-09-18T13:19:19Z</time>
      </trkpt>
      <trkpt lat="44.67509" lon="6.06306">
        <ele>1047</ele>
        <time>2022-09-18T13:19:20Z</time>
      </trkpt>
      <trkpt lat="44.67504" lon="6.06307">
        <ele>1047.2</ele>
        <time>2022-09-18T13:19:21Z</time>
      </trkpt>
      <trkpt lat="44.67499" lon="6.06308">
        <ele>1047.2</ele>
        <time>2022-09-18T13:19:22Z</time>
      </trkpt>
      <trkpt lat="44.67493" lon="6.06309">
        <ele>1047</ele>
        <time>2022-09-18T13:19:23Z</time>
      </trkpt>
      <trkpt lat="44.67483" lon="6.06312">
        <ele>1046.6</ele>
        <time>2022-09-18T13:19:25Z</time>
      </trkpt>
      <trkpt lat="44.67478" lon="6.06313">
        <ele>1047</ele>
        <time>2022-09-18T13:19:26Z</time>
      </trkpt>
      <trkpt lat="44.67473" lon="6.06315">
        <ele>1047.2</ele>
        <time>2022-09-18T13:19:27Z</time>
      </trkpt>
      <trkpt lat="44.67468" lon="6.06316">
        <ele>1047.2</ele>
        <time>2022-09-18T13:19:28Z</time>
      </trkpt>
      <trkpt lat="44.67463" lon="6.06318">
        <ele>1047.4</ele>
        <time>2022-09-18T13:19:29Z</time>
      </trkpt>
      <trkpt lat="44.67458" lon="6.06319">
        <ele>1047.2</ele>
        <time>2022-09-18T13:19:30Z</time>
      </trkpt>
      <trkpt lat="44.67448" lon="6.06322">
        <ele>1047.6</ele>
        <time>2022-09-18T13:19:32Z</time>
      </trkpt>
      <trkpt lat="44.67443" lon="6.06324">
        <ele>1047.4</ele>
        <time>2022-09-18T13:19:33Z</time>
      </trkpt>
      <trkpt lat="44.67438" lon="6.06325">
        <ele>1047.6</ele>
        <time>2022-09-18T13:19:34Z</time>
      </trkpt>
      <trkpt lat="44.67432" lon="6.06327">
        <ele>1047.8</ele>
        <time>2022-09-18T13:19:35Z</time>
      </trkpt>
      <trkpt lat="44.67427" lon="6.06328">
        <ele>1047.8</ele>
        <time>2022-09-18T13:19:36Z</time>
      </trkpt>
      <trkpt lat="44.67417" lon="6.06331">
        <ele>1047.6</ele>
        <time>2022-09-18T13:19:38Z</time>
      </trkpt>
      <trkpt lat="44.67412" lon="6.06332">
        <ele>1047.6</ele>
        <time>2022-09-18T13:19:39Z</time>
      </trkpt>
      <trkpt lat="44.67407" lon="6.06334">
        <ele>1048.2</ele>
        <time>2022-09-18T13:19:40Z</time>
      </trkpt>
      <trkpt lat="44.67402" lon="6.06335">
        <ele>1048.4</ele>
        <time>2022-09-18T13:19:41Z</time>
      </trkpt>
      <trkpt lat="44.67397" lon="6.06337">
        <ele>1048.6</ele>
        <time>2022-09-18T13:19:42Z</time>
      </trkpt>
      <trkpt lat="44.67387" lon="6.06339">
        <ele>1049</ele>
        <time>2022-09-18T13:19:44Z</time>
      </trkpt>
      <trkpt lat="44.67382" lon="6.0634">
        <ele>1049.4</ele>
        <time>2022-09-18T13:19:45Z</time>
      </trkpt>
      <trkpt lat="44.67377" lon="6.06342">
        <ele>1049.4</ele>
        <time>2022-09-18T13:19:46Z</time>
      </trkpt>
      <trkpt lat="44.67371" lon="6.06343">
        <ele>1049.8</ele>
        <time>2022-09-18T13:19:47Z</time>
      </trkpt>
      <trkpt lat="44.67361" lon="6.06347">
        <ele>1049.6</ele>
        <time>2022-09-18T13:19:49Z</time>
      </trkpt>
      <trkpt lat="44.67356" lon="6.06348">
        <ele>1049.8</ele>
        <time>2022-09-18T13:19:50Z</time>
      </trkpt>
      <trkpt lat="44.67351" lon="6.0635">
        <ele>1049.6</ele>
        <time>2022-09-18T13:19:51Z</time>
      </trkpt>
      <trkpt lat="44.67346" lon="6.06352">
        <ele>1049.6</ele>
        <time>2022-09-18T13:19:52Z</time>
      </trkpt>
      <trkpt lat="44.6734" lon="6.06353">
        <ele>1049.6</ele>
        <time>2022-09-18T13:19:53Z</time>
      </trkpt>
      <trkpt lat="44.6733" lon="6.06358">
        <ele>1049.6</ele>
        <time>2022-09-18T13:19:55Z</time>
      </trkpt>
      <trkpt lat="44.67325" lon="6.06361">
        <ele>1049.4</ele>
        <time>2022-09-18T13:19:56Z</time>
      </trkpt>
      <trkpt lat="44.6732" lon="6.06363">
        <ele>1049.8</ele>
        <time>2022-09-18T13:19:57Z</time>
      </trkpt>
      <trkpt lat="44.67315" lon="6.06366">
        <ele>1049.8</ele>
        <time>2022-09-18T13:19:58Z</time>
      </trkpt>
      <trkpt lat="44.6731" lon="6.06369">
        <ele>1050</ele>
        <time>2022-09-18T13:19:59Z</time>
      </trkpt>
      <trkpt lat="44.67306" lon="6.06372">
        <ele>1050</ele>
        <time>2022-09-18T13:20:00Z</time>
      </trkpt>
      <trkpt lat="44.67301" lon="6.06374">
        <ele>1050.4</ele>
        <time>2022-09-18T13:20:01Z</time>
      </trkpt>
      <trkpt lat="44.67296" lon="6.06377">
        <ele>1050.8</ele>
        <time>2022-09-18T13:20:02Z</time>
      </trkpt>
      <trkpt lat="44.67291" lon="6.0638">
        <ele>1051.2</ele>
        <time>2022-09-18T13:20:03Z</time>
      </trkpt>
      <trkpt lat="44.67286" lon="6.06383">
        <ele>1051.4</ele>
        <time>2022-09-18T13:20:04Z</time>
      </trkpt>
      <trkpt lat="44.6728" lon="6.06385">
        <ele>1051.6</ele>
        <time>2022-09-18T13:20:05Z</time>
      </trkpt>
      <trkpt lat="44.67275" lon="6.06387">
        <ele>1052</ele>
        <time>2022-09-18T13:20:06Z</time>
      </trkpt>
      <trkpt lat="44.67269" lon="6.0639">
        <ele>1052.2</ele>
        <time>2022-09-18T13:20:07Z</time>
      </trkpt>
      <trkpt lat="44.67264" lon="6.06392">
        <ele>1052.4</ele>
        <time>2022-09-18T13:20:08Z</time>
      </trkpt>
      <trkpt lat="44.67259" lon="6.06393">
        <ele>1052.8</ele>
        <time>2022-09-18T13:20:09Z</time>
      </trkpt>
      <trkpt lat="44.67253" lon="6.06395">
        <ele>1053</ele>
        <time>2022-09-18T13:20:10Z</time>
      </trkpt>
      <trkpt lat="44.67248" lon="6.06396">
        <ele>1053.4</ele>
        <time>2022-09-18T13:20:11Z</time>
      </trkpt>
      <trkpt lat="44.67242" lon="6.06397">
        <ele>1053.6</ele>
        <time>2022-09-18T13:20:12Z</time>
      </trkpt>
      <trkpt lat="44.67236" lon="6.06399">
        <ele>1053.6</ele>
        <time>2022-09-18T13:20:13Z</time>
      </trkpt>
      <trkpt lat="44.67231" lon="6.064">
        <ele>1054.2</ele>
        <time>2022-09-18T13:20:14Z</time>
      </trkpt>
      <trkpt lat="44.67225" lon="6.06401">
        <ele>1054.4</ele>
        <time>2022-09-18T13:20:15Z</time>
      </trkpt>
      <trkpt lat="44.6722" lon="6.06402">
        <ele>1054.8</ele>
        <time>2022-09-18T13:20:16Z</time>
      </trkpt>
      <trkpt lat="44.67215" lon="6.06403">
        <ele>1055</ele>
        <time>2022-09-18T13:20:17Z</time>
      </trkpt>
      <trkpt lat="44.67209" lon="6.06404">
        <ele>1055.4</ele>
        <time>2022-09-18T13:20:18Z</time>
      </trkpt>
      <trkpt lat="44.67204" lon="6.06404">
        <ele>1055.8</ele>
        <time>2022-09-18T13:20:19Z</time>
      </trkpt>
      <trkpt lat="44.67199" lon="6.06405">
        <ele>1056.4</ele>
        <time>2022-09-18T13:20:20Z</time>
      </trkpt>
      <trkpt lat="44.67194" lon="6.06405">
        <ele>1056.4</ele>
        <time>2022-09-18T13:20:21Z</time>
      </trkpt>
      <trkpt lat="44.67189" lon="6.06406">
        <ele>1057</ele>
        <time>2022-09-18T13:20:22Z</time>
      </trkpt>
      <trkpt lat="44.67185" lon="6.06406">
        <ele>1057.4</ele>
        <time>2022-09-18T13:20:23Z</time>
      </trkpt>
      <trkpt lat="44.67181" lon="6.06406">
        <ele>1057.8</ele>
        <time>2022-09-18T13:20:24Z</time>
      </trkpt>
      <trkpt lat="44.67177" lon="6.06406">
        <ele>1057.8</ele>
        <time>2022-09-18T13:20:25Z</time>
      </trkpt>
      <trkpt lat="44.67172" lon="6.06405">
        <ele>1059</ele>
        <time>2022-09-18T13:20:26Z</time>
      </trkpt>
      <trkpt lat="44.67168" lon="6.06404">
        <ele>1059</ele>
        <time>2022-09-18T13:20:27Z</time>
      </trkpt>
      <trkpt lat="44.67164" lon="6.06402">
        <ele>1059</ele>
        <time>2022-09-18T13:20:28Z</time>
      </trkpt>
      <trkpt lat="44.6716" lon="6.06399">
        <ele>1060</ele>
        <time>2022-09-18T13:20:29Z</time>
      </trkpt>
      <trkpt lat="44.67157" lon="6.06397">
        <ele>1060</ele>
        <time>2022-09-18T13:20:30Z</time>
      </trkpt>
      <trkpt lat="44.67151" lon="6.0639">
        <ele>1061.6</ele>
        <time>2022-09-18T13:20:32Z</time>
      </trkpt>
      <trkpt lat="44.67149" lon="6.06387">
        <ele>1062</ele>
        <time>2022-09-18T13:20:33Z</time>
      </trkpt>
      <trkpt lat="44.67148" lon="6.06384">
        <ele>1062.4</ele>
        <time>2022-09-18T13:20:34Z</time>
      </trkpt>
      <trkpt lat="44.67146" lon="6.06381">
        <ele>1062.6</ele>
        <time>2022-09-18T13:20:35Z</time>
      </trkpt>
      <trkpt lat="44.67145" lon="6.06378">
        <ele>1063</ele>
        <time>2022-09-18T13:20:36Z</time>
      </trkpt>
      <trkpt lat="44.67144" lon="6.06374">
        <ele>1063.6</ele>
        <time>2022-09-18T13:20:37Z</time>
      </trkpt>
      <trkpt lat="44.67142" lon="6.06368">
        <ele>1064.2</ele>
        <time>2022-09-18T13:20:39Z</time>
      </trkpt>
      <trkpt lat="44.67141" lon="6.06365">
        <ele>1064.6</ele>
        <time>2022-09-18T13:20:40Z</time>
      </trkpt>
      <trkpt lat="44.67139" lon="6.06362">
        <ele>1064.8</ele>
        <time>2022-09-18T13:20:41Z</time>
      </trkpt>
      <trkpt lat="44.67138" lon="6.06359">
        <ele>1065.2</ele>
        <time>2022-09-18T13:20:42Z</time>
      </trkpt>
      <trkpt lat="44.67137" lon="6.06357">
        <ele>1065.4</ele>
        <time>2022-09-18T13:20:43Z</time>
      </trkpt>
      <trkpt lat="44.67135" lon="6.06351">
        <ele>1065.8</ele>
        <time>2022-09-18T13:20:45Z</time>
      </trkpt>
      <trkpt lat="44.67134" lon="6.06348">
        <ele>1066.2</ele>
        <time>2022-09-18T13:20:46Z</time>
      </trkpt>
      <trkpt lat="44.67133" lon="6.06345">
        <ele>1066.4</ele>
        <time>2022-09-18T13:20:47Z</time>
      </trkpt>
      <trkpt lat="44.67132" lon="6.06342">
        <ele>1066.6</ele>
        <time>2022-09-18T13:20:48Z</time>
      </trkpt>
      <trkpt lat="44.67132" lon="6.06339">
        <ele>1066.8</ele>
        <time>2022-09-18T13:20:49Z</time>
      </trkpt>
      <trkpt lat="44.6713" lon="6.06336">
        <ele>1066.8</ele>
        <time>2022-09-18T13:20:50Z</time>
      </trkpt>
      <trkpt lat="44.67129" lon="6.06334">
        <ele>1066.8</ele>
        <time>2022-09-18T13:20:51Z</time>
      </trkpt>
      <trkpt lat="44.67128" lon="6.06331">
        <ele>1066.8</ele>
        <time>2022-09-18T13:20:52Z</time>
      </trkpt>
      <trkpt lat="44.67126" lon="6.06329">
        <ele>1067.2</ele>
        <time>2022-09-18T13:20:53Z</time>
      </trkpt>
      <trkpt lat="44.67124" lon="6.06327">
        <ele>1067.2</ele>
        <time>2022-09-18T13:20:54Z</time>
      </trkpt>
      <trkpt lat="44.67121" lon="6.06322">
        <ele>1067.6</ele>
        <time>2022-09-18T13:20:56Z</time>
      </trkpt>
      <trkpt lat="44.67119" lon="6.0632">
        <ele>1067.6</ele>
        <time>2022-09-18T13:20:57Z</time>
      </trkpt>
      <trkpt lat="44.67118" lon="6.06317">
        <ele>1068</ele>
        <time>2022-09-18T13:20:58Z</time>
      </trkpt>
      <trkpt lat="44.67116" lon="6.06315">
        <ele>1068.4</ele>
        <time>2022-09-18T13:20:59Z</time>
      </trkpt>
      <trkpt lat="44.67115" lon="6.06312">
        <ele>1068.4</ele>
        <time>2022-09-18T13:21:00Z</time>
      </trkpt>
      <trkpt lat="44.67113" lon="6.0631">
        <ele>1068.4</ele>
        <time>2022-09-18T13:21:01Z</time>
      </trkpt>
      <trkpt lat="44.67112" lon="6.06307">
        <ele>1068.2</ele>
        <time>2022-09-18T13:21:02Z</time>
      </trkpt>
      <trkpt lat="44.6711" lon="6.06305">
        <ele>1068.8</ele>
        <time>2022-09-18T13:21:03Z</time>
      </trkpt>
      <trkpt lat="44.67108" lon="6.06303">
        <ele>1069</ele>
        <time>2022-09-18T13:21:04Z</time>
      </trkpt>
      <trkpt lat="44.67106" lon="6.06301">
        <ele>1069.2</ele>
        <time>2022-09-18T13:21:05Z</time>
      </trkpt>
      <trkpt lat="44.67104" lon="6.06299">
        <ele>1069.6</ele>
        <time>2022-09-18T13:21:06Z</time>
      </trkpt>
      <trkpt lat="44.671" lon="6.06295">
        <ele>1070</ele>
        <time>2022-09-18T13:21:08Z</time>
      </trkpt>
      <trkpt lat="44.67099" lon="6.06293">
        <ele>1070.6</ele>
        <time>2022-09-18T13:21:09Z</time>
      </trkpt>
      <trkpt lat="44.67097" lon="6.06291">
        <ele>1070.8</ele>
        <time>2022-09-18T13:21:10Z</time>
      </trkpt>
      <trkpt lat="44.67095" lon="6.06289">
        <ele>1071.2</ele>
        <time>2022-09-18T13:21:11Z</time>
      </trkpt>
      <trkpt lat="44.67093" lon="6.06287">
        <ele>1071.6</ele>
        <time>2022-09-18T13:21:12Z</time>
      </trkpt>
      <trkpt lat="44.67089" lon="6.06283">
        <ele>1072</ele>
        <time>2022-09-18T13:21:14Z</time>
      </trkpt>
      <trkpt lat="44.67087" lon="6.06281">
        <ele>1072.2</ele>
        <time>2022-09-18T13:21:15Z</time>
      </trkpt>
      <trkpt lat="44.67085" lon="6.06279">
        <ele>1072.4</ele>
        <time>2022-09-18T13:21:16Z</time>
      </trkpt>
      <trkpt lat="44.67083" lon="6.06278">
        <ele>1072.6</ele>
        <time>2022-09-18T13:21:17Z</time>
      </trkpt>
      <trkpt lat="44.67081" lon="6.06276">
        <ele>1072.8</ele>
        <time>2022-09-18T13:21:18Z</time>
      </trkpt>
      <trkpt lat="44.67079" lon="6.06274">
        <ele>1072.8</ele>
        <time>2022-09-18T13:21:19Z</time>
      </trkpt>
      <trkpt lat="44.67077" lon="6.06272">
        <ele>1073</ele>
        <time>2022-09-18T13:21:20Z</time>
      </trkpt>
      <trkpt lat="44.67075" lon="6.0627">
        <ele>1073.4</ele>
        <time>2022-09-18T13:21:21Z</time>
      </trkpt>
      <trkpt lat="44.67073" lon="6.06269">
        <ele>1073.6</ele>
        <time>2022-09-18T13:21:22Z</time>
      </trkpt>
      <trkpt lat="44.67071" lon="6.06267">
        <ele>1073.8</ele>
        <time>2022-09-18T13:21:23Z</time>
      </trkpt>
      <trkpt lat="44.67069" lon="6.06266">
        <ele>1074</ele>
        <time>2022-09-18T13:21:24Z</time>
      </trkpt>
      <trkpt lat="44.67067" lon="6.06264">
        <ele>1073.8</ele>
        <time>2022-09-18T13:21:25Z</time>
      </trkpt>
      <trkpt lat="44.67065" lon="6.06263">
        <ele>1074.4</ele>
        <time>2022-09-18T13:21:26Z</time>
      </trkpt>
      <trkpt lat="44.67063" lon="6.06262">
        <ele>1074.6</ele>
        <time>2022-09-18T13:21:27Z</time>
      </trkpt>
      <trkpt lat="44.67059" lon="6.06259">
        <ele>1075.2</ele>
        <time>2022-09-18T13:21:29Z</time>
      </trkpt>
      <trkpt lat="44.67057" lon="6.06258">
        <ele>1075.4</ele>
        <time>2022-09-18T13:21:30Z</time>
      </trkpt>
      <trkpt lat="44.67055" lon="6.06256">
        <ele>1075.6</ele>
        <time>2022-09-18T13:21:31Z</time>
      </trkpt>
      <trkpt lat="44.67053" lon="6.06255">
        <ele>1075.8</ele>
        <time>2022-09-18T13:21:32Z</time>
      </trkpt>
      <trkpt lat="44.67051" lon="6.06253">
        <ele>1076</ele>
        <time>2022-09-18T13:21:33Z</time>
      </trkpt>
      <trkpt lat="44.67049" lon="6.06252">
        <ele>1076.4</ele>
        <time>2022-09-18T13:21:34Z</time>
      </trkpt>
      <trkpt lat="44.67045" lon="6.06247">
        <ele>1076.8</ele>
        <time>2022-09-18T13:21:36Z</time>
      </trkpt>
      <trkpt lat="44.67042" lon="6.06243">
        <ele>1077.4</ele>
        <time>2022-09-18T13:21:38Z</time>
      </trkpt>
      <trkpt lat="44.6704" lon="6.06241">
        <ele>1078</ele>
        <time>2022-09-18T13:21:39Z</time>
      </trkpt>
      <trkpt lat="44.67038" lon="6.06239">
        <ele>1078.2</ele>
        <time>2022-09-18T13:21:40Z</time>
      </trkpt>
      <trkpt lat="44.67036" lon="6.06237">
        <ele>1078</ele>
        <time>2022-09-18T13:21:41Z</time>
      </trkpt>
      <trkpt lat="44.67035" lon="6.06235">
        <ele>1078.2</ele>
        <time>2022-09-18T13:21:42Z</time>
      </trkpt>
      <trkpt lat="44.67033" lon="6.06233">
        <ele>1078.4</ele>
        <time>2022-09-18T13:21:43Z</time>
      </trkpt>
      <trkpt lat="44.67031" lon="6.06231">
        <ele>1078.6</ele>
        <time>2022-09-18T13:21:44Z</time>
      </trkpt>
      <trkpt lat="44.67028" lon="6.06227">
        <ele>1079.2</ele>
        <time>2022-09-18T13:21:46Z</time>
      </trkpt>
      <trkpt lat="44.67026" lon="6.06225">
        <ele>1079.2</ele>
        <time>2022-09-18T13:21:47Z</time>
      </trkpt>
      <trkpt lat="44.67025" lon="6.06223">
        <ele>1079.4</ele>
        <time>2022-09-18T13:21:48Z</time>
      </trkpt>
      <trkpt lat="44.67023" lon="6.06221">
        <ele>1079.8</ele>
        <time>2022-09-18T13:21:49Z</time>
      </trkpt>
      <trkpt lat="44.67021" lon="6.06219">
        <ele>1079.6</ele>
        <time>2022-09-18T13:21:50Z</time>
      </trkpt>
      <trkpt lat="44.6702" lon="6.06217">
        <ele>1080</ele>
        <time>2022-09-18T13:21:51Z</time>
      </trkpt>
      <trkpt lat="44.67018" lon="6.06215">
        <ele>1080.2</ele>
        <time>2022-09-18T13:21:52Z</time>
      </trkpt>
      <trkpt lat="44.67016" lon="6.06213">
        <ele>1080.4</ele>
        <time>2022-09-18T13:21:53Z</time>
      </trkpt>
      <trkpt lat="44.67015" lon="6.06211">
        <ele>1080.6</ele>
        <time>2022-09-18T13:21:54Z</time>
      </trkpt>
      <trkpt lat="44.67013" lon="6.0621">
        <ele>1080.8</ele>
        <time>2022-09-18T13:21:55Z</time>
      </trkpt>
      <trkpt lat="44.67012" lon="6.06208">
        <ele>1081</ele>
        <time>2022-09-18T13:21:56Z</time>
      </trkpt>
      <trkpt lat="44.6701" lon="6.06206">
        <ele>1081.2</ele>
        <time>2022-09-18T13:21:57Z</time>
      </trkpt>
      <trkpt lat="44.67008" lon="6.06204">
        <ele>1081.2</ele>
        <time>2022-09-18T13:21:58Z</time>
      </trkpt>
      <trkpt lat="44.67007" lon="6.06202">
        <ele>1081.2</ele>
        <time>2022-09-18T13:21:59Z</time>
      </trkpt>
      <trkpt lat="44.67005" lon="6.062">
        <ele>1081</ele>
        <time>2022-09-18T13:22:00Z</time>
      </trkpt>
      <trkpt lat="44.67002" lon="6.06196">
        <ele>1081.4</ele>
        <time>2022-09-18T13:22:02Z</time>
      </trkpt>
      <trkpt lat="44.67001" lon="6.06194">
        <ele>1081.2</ele>
        <time>2022-09-18T13:22:03Z</time>
      </trkpt>
      <trkpt lat="44.66998" lon="6.0619">
        <ele>1081.4</ele>
        <time>2022-09-18T13:22:05Z</time>
      </trkpt>
      <trkpt lat="44.66997" lon="6.06188">
        <ele>1081.6</ele>
        <time>2022-09-18T13:22:06Z</time>
      </trkpt>
      <trkpt lat="44.66996" lon="6.06187">
        <ele>1081.6</ele>
        <time>2022-09-18T13:22:07Z</time>
      </trkpt>
      <trkpt lat="44.66993" lon="6.06183">
        <ele>1082.2</ele>
        <time>2022-09-18T13:22:09Z</time>
      </trkpt>
      <trkpt lat="44.66992" lon="6.06181">
        <ele>1082.6</ele>
        <time>2022-09-18T13:22:10Z</time>
      </trkpt>
      <trkpt lat="44.66991" lon="6.06179">
        <ele>1082.8</ele>
        <time>2022-09-18T13:22:11Z</time>
      </trkpt>
      <trkpt lat="44.66986" lon="6.06175">
        <ele>1083.2</ele>
        <time>2022-09-18T13:22:14Z</time>
      </trkpt>
      <trkpt lat="44.66985" lon="6.06173">
        <ele>1083.4</ele>
        <time>2022-09-18T13:22:15Z</time>
      </trkpt>
      <trkpt lat="44.66983" lon="6.06171">
        <ele>1083.4</ele>
        <time>2022-09-18T13:22:17Z</time>
      </trkpt>
      <trkpt lat="44.66977" lon="6.06169">
        <ele>1083.4</ele>
        <time>2022-09-18T13:22:20Z</time>
      </trkpt>
      <trkpt lat="44.66976" lon="6.06167">
        <ele>1083.6</ele>
        <time>2022-09-18T13:22:21Z</time>
      </trkpt>
      <trkpt lat="44.66974" lon="6.06166">
        <ele>1083.6</ele>
        <time>2022-09-18T13:22:22Z</time>
      </trkpt>
      <trkpt lat="44.66972" lon="6.06164">
        <ele>1083.6</ele>
        <time>2022-09-18T13:22:23Z</time>
      </trkpt>
      <trkpt lat="44.6697" lon="6.06163">
        <ele>1083.4</ele>
        <time>2022-09-18T13:22:24Z</time>
      </trkpt>
      <trkpt lat="44.66967" lon="6.06162">
        <ele>1083.4</ele>
        <time>2022-09-18T13:22:25Z</time>
      </trkpt>
      <trkpt lat="44.66961" lon="6.06161">
        <ele>1083</ele>
        <time>2022-09-18T13:22:27Z</time>
      </trkpt>
      <trkpt lat="44.66958" lon="6.06161">
        <ele>1082.8</ele>
        <time>2022-09-18T13:22:28Z</time>
      </trkpt>
      <trkpt lat="44.66954" lon="6.06162">
        <ele>1082.6</ele>
        <time>2022-09-18T13:22:29Z</time>
      </trkpt>
      <trkpt lat="44.6695" lon="6.06163">
        <ele>1082.4</ele>
        <time>2022-09-18T13:22:30Z</time>
      </trkpt>
      <trkpt lat="44.66942" lon="6.06164">
        <ele>1082.4</ele>
        <time>2022-09-18T13:22:32Z</time>
      </trkpt>
      <trkpt lat="44.66937" lon="6.06164">
        <ele>1082</ele>
        <time>2022-09-18T13:22:33Z</time>
      </trkpt>
      <trkpt lat="44.66928" lon="6.06165">
        <ele>1081</ele>
        <time>2022-09-18T13:22:35Z</time>
      </trkpt>
      <trkpt lat="44.66923" lon="6.06167">
        <ele>1080.6</ele>
        <time>2022-09-18T13:22:36Z</time>
      </trkpt>
      <trkpt lat="44.66919" lon="6.0617">
        <ele>1080.6</ele>
        <time>2022-09-18T13:22:37Z</time>
      </trkpt>
      <trkpt lat="44.66911" lon="6.06176">
        <ele>1079.4</ele>
        <time>2022-09-18T13:22:39Z</time>
      </trkpt>
      <trkpt lat="44.66907" lon="6.06179">
        <ele>1079</ele>
        <time>2022-09-18T13:22:40Z</time>
      </trkpt>
      <trkpt lat="44.66904" lon="6.06182">
        <ele>1078.8</ele>
        <time>2022-09-18T13:22:41Z</time>
      </trkpt>
      <trkpt lat="44.66901" lon="6.06184">
        <ele>1078.8</ele>
        <time>2022-09-18T13:22:42Z</time>
      </trkpt>
      <trkpt lat="44.66895" lon="6.06186">
        <ele>1078.2</ele>
        <time>2022-09-18T13:22:44Z</time>
      </trkpt>
      <trkpt lat="44.66892" lon="6.06187">
        <ele>1078.2</ele>
        <time>2022-09-18T13:22:45Z</time>
      </trkpt>
      <trkpt lat="44.66887" lon="6.06189">
        <ele>1078.2</ele>
        <time>2022-09-18T13:22:47Z</time>
      </trkpt>
      <trkpt lat="44.66884" lon="6.0619">
        <ele>1078.2</ele>
        <time>2022-09-18T13:22:48Z</time>
      </trkpt>
      <trkpt lat="44.66879" lon="6.0619">
        <ele>1078.4</ele>
        <time>2022-09-18T13:22:50Z</time>
      </trkpt>
      <trkpt lat="44.66876" lon="6.0619">
        <ele>1078.6</ele>
        <time>2022-09-18T13:22:51Z</time>
      </trkpt>
      <trkpt lat="44.66874" lon="6.06189">
        <ele>1078.8</ele>
        <time>2022-09-18T13:22:52Z</time>
      </trkpt>
      <trkpt lat="44.66871" lon="6.06189">
        <ele>1078.8</ele>
        <time>2022-09-18T13:22:53Z</time>
      </trkpt>
      <trkpt lat="44.66869" lon="6.06188">
        <ele>1078.8</ele>
        <time>2022-09-18T13:22:54Z</time>
      </trkpt>
      <trkpt lat="44.66866" lon="6.06188">
        <ele>1078.8</ele>
        <time>2022-09-18T13:22:55Z</time>
      </trkpt>
      <trkpt lat="44.66864" lon="6.06187">
        <ele>1079</ele>
        <time>2022-09-18T13:22:56Z</time>
      </trkpt>
      <trkpt lat="44.66861" lon="6.06185">
        <ele>1079</ele>
        <time>2022-09-18T13:22:57Z</time>
      </trkpt>
      <trkpt lat="44.66859" lon="6.06184">
        <ele>1079</ele>
        <time>2022-09-18T13:22:58Z</time>
      </trkpt>
      <trkpt lat="44.66857" lon="6.06182">
        <ele>1079</ele>
        <time>2022-09-18T13:22:59Z</time>
      </trkpt>
      <trkpt lat="44.66854" lon="6.06181">
        <ele>1079.2</ele>
        <time>2022-09-18T13:23:00Z</time>
      </trkpt>
      <trkpt lat="44.6685" lon="6.0618">
        <ele>1079.4</ele>
        <time>2022-09-18T13:23:02Z</time>
      </trkpt>
      <trkpt lat="44.66847" lon="6.06179">
        <ele>1079.6</ele>
        <time>2022-09-18T13:23:03Z</time>
      </trkpt>
      <trkpt lat="44.66845" lon="6.06178">
        <ele>1079.4</ele>
        <time>2022-09-18T13:23:04Z</time>
      </trkpt>
      <trkpt lat="44.66843" lon="6.06177">
        <ele>1079.8</ele>
        <time>2022-09-18T13:23:05Z</time>
      </trkpt>
      <trkpt lat="44.66841" lon="6.06176">
        <ele>1080.2</ele>
        <time>2022-09-18T13:23:06Z</time>
      </trkpt>
      <trkpt lat="44.66836" lon="6.06174">
        <ele>1080.6</ele>
        <time>2022-09-18T13:23:08Z</time>
      </trkpt>
      <trkpt lat="44.66831" lon="6.06173">
        <ele>1081.2</ele>
        <time>2022-09-18T13:23:10Z</time>
      </trkpt>
      <trkpt lat="44.66828" lon="6.06172">
        <ele>1081.2</ele>
        <time>2022-09-18T13:23:11Z</time>
      </trkpt>
      <trkpt lat="44.66826" lon="6.06172">
        <ele>1081.2</ele>
        <time>2022-09-18T13:23:12Z</time>
      </trkpt>
      <trkpt lat="44.66823" lon="6.06171">
        <ele>1081.4</ele>
        <time>2022-09-18T13:23:13Z</time>
      </trkpt>
      <trkpt lat="44.66821" lon="6.0617">
        <ele>1081.4</ele>
        <time>2022-09-18T13:23:14Z</time>
      </trkpt>
      <trkpt lat="44.66818" lon="6.0617">
        <ele>1081.6</ele>
        <time>2022-09-18T13:23:15Z</time>
      </trkpt>
      <trkpt lat="44.66816" lon="6.06169">
        <ele>1081.8</ele>
        <time>2022-09-18T13:23:16Z</time>
      </trkpt>
      <trkpt lat="44.66813" lon="6.06169">
        <ele>1082</ele>
        <time>2022-09-18T13:23:17Z</time>
      </trkpt>
      <trkpt lat="44.66808" lon="6.06169">
        <ele>1082.6</ele>
        <time>2022-09-18T13:23:19Z</time>
      </trkpt>
      <trkpt lat="44.66806" lon="6.06169">
        <ele>1082.8</ele>
        <time>2022-09-18T13:23:20Z</time>
      </trkpt>
      <trkpt lat="44.66803" lon="6.06169">
        <ele>1083</ele>
        <time>2022-09-18T13:23:21Z</time>
      </trkpt>
      <trkpt lat="44.66801" lon="6.06168">
        <ele>1083.6</ele>
        <time>2022-09-18T13:23:22Z</time>
      </trkpt>
      <trkpt lat="44.66798" lon="6.06168">
        <ele>1083.4</ele>
        <time>2022-09-18T13:23:23Z</time>
      </trkpt>
      <trkpt lat="44.66795" lon="6.06168">
        <ele>1083.8</ele>
        <time>2022-09-18T13:23:24Z</time>
      </trkpt>
      <trkpt lat="44.66792" lon="6.06167">
        <ele>1084</ele>
        <time>2022-09-18T13:23:25Z</time>
      </trkpt>
      <trkpt lat="44.6679" lon="6.06167">
        <ele>1084.4</ele>
        <time>2022-09-18T13:23:26Z</time>
      </trkpt>
      <trkpt lat="44.66787" lon="6.06166">
        <ele>1084.6</ele>
        <time>2022-09-18T13:23:27Z</time>
      </trkpt>
      <trkpt lat="44.66784" lon="6.06166">
        <ele>1085</ele>
        <time>2022-09-18T13:23:28Z</time>
      </trkpt>
      <trkpt lat="44.66782" lon="6.06165">
        <ele>1085.2</ele>
        <time>2022-09-18T13:23:29Z</time>
      </trkpt>
      <trkpt lat="44.66777" lon="6.06164">
        <ele>1085.4</ele>
        <time>2022-09-18T13:23:31Z</time>
      </trkpt>
      <trkpt lat="44.66774" lon="6.06164">
        <ele>1085.8</ele>
        <time>2022-09-18T13:23:32Z</time>
      </trkpt>
      <trkpt lat="44.66772" lon="6.06164">
        <ele>1085.8</ele>
        <time>2022-09-18T13:23:33Z</time>
      </trkpt>
      <trkpt lat="44.66769" lon="6.06163">
        <ele>1086</ele>
        <time>2022-09-18T13:23:34Z</time>
      </trkpt>
      <trkpt lat="44.66766" lon="6.06163">
        <ele>1086.2</ele>
        <time>2022-09-18T13:23:35Z</time>
      </trkpt>
      <trkpt lat="44.66764" lon="6.06163">
        <ele>1086.6</ele>
        <time>2022-09-18T13:23:36Z</time>
      </trkpt>
      <trkpt lat="44.66759" lon="6.06161">
        <ele>1087</ele>
        <time>2022-09-18T13:23:38Z</time>
      </trkpt>
      <trkpt lat="44.66756" lon="6.0616">
        <ele>1087.2</ele>
        <time>2022-09-18T13:23:39Z</time>
      </trkpt>
      <trkpt lat="44.66754" lon="6.06159">
        <ele>1087.4</ele>
        <time>2022-09-18T13:23:40Z</time>
      </trkpt>
      <trkpt lat="44.66751" lon="6.06158">
        <ele>1087.4</ele>
        <time>2022-09-18T13:23:41Z</time>
      </trkpt>
      <trkpt lat="44.66749" lon="6.06157">
        <ele>1087.6</ele>
        <time>2022-09-18T13:23:42Z</time>
      </trkpt>
      <trkpt lat="44.66743" lon="6.06155">
        <ele>1088</ele>
        <time>2022-09-18T13:23:44Z</time>
      </trkpt>
      <trkpt lat="44.66741" lon="6.06154">
        <ele>1088.2</ele>
        <time>2022-09-18T13:23:45Z</time>
      </trkpt>
      <trkpt lat="44.66738" lon="6.06154">
        <ele>1088.8</ele>
        <time>2022-09-18T13:23:46Z</time>
      </trkpt>
      <trkpt lat="44.66736" lon="6.06153">
        <ele>1089</ele>
        <time>2022-09-18T13:23:47Z</time>
      </trkpt>
      <trkpt lat="44.66733" lon="6.06153">
        <ele>1089.2</ele>
        <time>2022-09-18T13:23:48Z</time>
      </trkpt>
      <trkpt lat="44.66731" lon="6.06154">
        <ele>1089.6</ele>
        <time>2022-09-18T13:23:49Z</time>
      </trkpt>
      <trkpt lat="44.66728" lon="6.06155">
        <ele>1089.6</ele>
        <time>2022-09-18T13:23:50Z</time>
      </trkpt>
      <trkpt lat="44.66726" lon="6.06156">
        <ele>1090</ele>
        <time>2022-09-18T13:23:51Z</time>
      </trkpt>
      <trkpt lat="44.66723" lon="6.06157">
        <ele>1090.4</ele>
        <time>2022-09-18T13:23:52Z</time>
      </trkpt>
      <trkpt lat="44.66721" lon="6.06158">
        <ele>1090.4</ele>
        <time>2022-09-18T13:23:53Z</time>
      </trkpt>
      <trkpt lat="44.66719" lon="6.06159">
        <ele>1090.6</ele>
        <time>2022-09-18T13:23:54Z</time>
      </trkpt>
      <trkpt lat="44.66714" lon="6.06162">
        <ele>1090.8</ele>
        <time>2022-09-18T13:23:56Z</time>
      </trkpt>
      <trkpt lat="44.66712" lon="6.06164">
        <ele>1090.8</ele>
        <time>2022-09-18T13:23:57Z</time>
      </trkpt>
      <trkpt lat="44.66709" lon="6.06166">
        <ele>1091.2</ele>
        <time>2022-09-18T13:23:58Z</time>
      </trkpt>
      <trkpt lat="44.66707" lon="6.06168">
        <ele>1091.2</ele>
        <time>2022-09-18T13:23:59Z</time>
      </trkpt>
      <trkpt lat="44.66705" lon="6.06169">
        <ele>1091.6</ele>
        <time>2022-09-18T13:24:00Z</time>
      </trkpt>
      <trkpt lat="44.667" lon="6.06173">
        <ele>1092</ele>
        <time>2022-09-18T13:24:02Z</time>
      </trkpt>
      <trkpt lat="44.66698" lon="6.06174">
        <ele>1092.2</ele>
        <time>2022-09-18T13:24:03Z</time>
      </trkpt>
      <trkpt lat="44.66696" lon="6.06176">
        <ele>1092.2</ele>
        <time>2022-09-18T13:24:04Z</time>
      </trkpt>
      <trkpt lat="44.66694" lon="6.06178">
        <ele>1092.8</ele>
        <time>2022-09-18T13:24:05Z</time>
      </trkpt>
      <trkpt lat="44.66691" lon="6.06179">
        <ele>1093.2</ele>
        <time>2022-09-18T13:24:06Z</time>
      </trkpt>
      <trkpt lat="44.66687" lon="6.06183">
        <ele>1093.8</ele>
        <time>2022-09-18T13:24:08Z</time>
      </trkpt>
      <trkpt lat="44.66682" lon="6.06186">
        <ele>1094.4</ele>
        <time>2022-09-18T13:24:10Z</time>
      </trkpt>
      <trkpt lat="44.6668" lon="6.06187">
        <ele>1094.8</ele>
        <time>2022-09-18T13:24:11Z</time>
      </trkpt>
      <trkpt lat="44.66677" lon="6.06188">
        <ele>1095</ele>
        <time>2022-09-18T13:24:12Z</time>
      </trkpt>
      <trkpt lat="44.66672" lon="6.0619">
        <ele>1095.2</ele>
        <time>2022-09-18T13:24:14Z</time>
      </trkpt>
      <trkpt lat="44.6667" lon="6.06191">
        <ele>1095.4</ele>
        <time>2022-09-18T13:24:15Z</time>
      </trkpt>
      <trkpt lat="44.66667" lon="6.06191">
        <ele>1095.2</ele>
        <time>2022-09-18T13:24:16Z</time>
      </trkpt>
      <trkpt lat="44.66664" lon="6.06191">
        <ele>1095.4</ele>
        <time>2022-09-18T13:24:17Z</time>
      </trkpt>
      <trkpt lat="44.66661" lon="6.06191">
        <ele>1095.8</ele>
        <time>2022-09-18T13:24:18Z</time>
      </trkpt>
      <trkpt lat="44.66659" lon="6.0619">
        <ele>1096</ele>
        <time>2022-09-18T13:24:19Z</time>
      </trkpt>
      <trkpt lat="44.66656" lon="6.06189">
        <ele>1096</ele>
        <time>2022-09-18T13:24:20Z</time>
      </trkpt>
      <trkpt lat="44.66654" lon="6.06189">
        <ele>1096.2</ele>
        <time>2022-09-18T13:24:21Z</time>
      </trkpt>
      <trkpt lat="44.66651" lon="6.06189">
        <ele>1096.6</ele>
        <time>2022-09-18T13:24:22Z</time>
      </trkpt>
      <trkpt lat="44.66649" lon="6.06188">
        <ele>1096.6</ele>
        <time>2022-09-18T13:24:23Z</time>
      </trkpt>
      <trkpt lat="44.66646" lon="6.06187">
        <ele>1096.6</ele>
        <time>2022-09-18T13:24:24Z</time>
      </trkpt>
      <trkpt lat="44.66644" lon="6.06186">
        <ele>1096.6</ele>
        <time>2022-09-18T13:24:25Z</time>
      </trkpt>
      <trkpt lat="44.66642" lon="6.06185">
        <ele>1096.6</ele>
        <time>2022-09-18T13:24:26Z</time>
      </trkpt>
      <trkpt lat="44.66639" lon="6.06185">
        <ele>1096.8</ele>
        <time>2022-09-18T13:24:27Z</time>
      </trkpt>
      <trkpt lat="44.66637" lon="6.06184">
        <ele>1097</ele>
        <time>2022-09-18T13:24:28Z</time>
      </trkpt>
      <trkpt lat="44.66634" lon="6.06183">
        <ele>1097.2</ele>
        <time>2022-09-18T13:24:29Z</time>
      </trkpt>
      <trkpt lat="44.66632" lon="6.06182">
        <ele>1097.4</ele>
        <time>2022-09-18T13:24:30Z</time>
      </trkpt>
      <trkpt lat="44.66629" lon="6.06181">
        <ele>1097.6</ele>
        <time>2022-09-18T13:24:31Z</time>
      </trkpt>
      <trkpt lat="44.66627" lon="6.0618">
        <ele>1097.6</ele>
        <time>2022-09-18T13:24:32Z</time>
      </trkpt>
      <trkpt lat="44.66624" lon="6.06179">
        <ele>1097.8</ele>
        <time>2022-09-18T13:24:33Z</time>
      </trkpt>
      <trkpt lat="44.66622" lon="6.06177">
        <ele>1098.2</ele>
        <time>2022-09-18T13:24:34Z</time>
      </trkpt>
      <trkpt lat="44.6662" lon="6.06176">
        <ele>1098.4</ele>
        <time>2022-09-18T13:24:35Z</time>
      </trkpt>
      <trkpt lat="44.66617" lon="6.06174">
        <ele>1098.4</ele>
        <time>2022-09-18T13:24:36Z</time>
      </trkpt>
      <trkpt lat="44.66612" lon="6.06171">
        <ele>1098.6</ele>
        <time>2022-09-18T13:24:38Z</time>
      </trkpt>
      <trkpt lat="44.6661" lon="6.0617">
        <ele>1098.6</ele>
        <time>2022-09-18T13:24:39Z</time>
      </trkpt>
      <trkpt lat="44.66608" lon="6.06169">
        <ele>1098.6</ele>
        <time>2022-09-18T13:24:40Z</time>
      </trkpt>
      <trkpt lat="44.66605" lon="6.06169">
        <ele>1098.6</ele>
        <time>2022-09-18T13:24:41Z</time>
      </trkpt>
      <trkpt lat="44.66603" lon="6.06168">
        <ele>1098.8</ele>
        <time>2022-09-18T13:24:42Z</time>
      </trkpt>
      <trkpt lat="44.66598" lon="6.06166">
        <ele>1099</ele>
        <time>2022-09-18T13:24:44Z</time>
      </trkpt>
      <trkpt lat="44.66596" lon="6.06166">
        <ele>1099.2</ele>
        <time>2022-09-18T13:24:45Z</time>
      </trkpt>
      <trkpt lat="44.66593" lon="6.06165">
        <ele>1099</ele>
        <time>2022-09-18T13:24:46Z</time>
      </trkpt>
      <trkpt lat="44.66591" lon="6.06164">
        <ele>1098.8</ele>
        <time>2022-09-18T13:24:47Z</time>
      </trkpt>
      <trkpt lat="44.66588" lon="6.06163">
        <ele>1099</ele>
        <time>2022-09-18T13:24:48Z</time>
      </trkpt>
      <trkpt lat="44.66583" lon="6.06161">
        <ele>1099.2</ele>
        <time>2022-09-18T13:24:50Z</time>
      </trkpt>
      <trkpt lat="44.66578" lon="6.06161">
        <ele>1099.8</ele>
        <time>2022-09-18T13:24:52Z</time>
      </trkpt>
      <trkpt lat="44.66576" lon="6.06161">
        <ele>1100</ele>
        <time>2022-09-18T13:24:53Z</time>
      </trkpt>
      <trkpt lat="44.66573" lon="6.06161">
        <ele>1100.2</ele>
        <time>2022-09-18T13:24:54Z</time>
      </trkpt>
      <trkpt lat="44.66571" lon="6.06161">
        <ele>1100.4</ele>
        <time>2022-09-18T13:24:55Z</time>
      </trkpt>
      <trkpt lat="44.66568" lon="6.06161">
        <ele>1100.6</ele>
        <time>2022-09-18T13:24:56Z</time>
      </trkpt>
      <trkpt lat="44.66566" lon="6.0616">
        <ele>1100.8</ele>
        <time>2022-09-18T13:24:57Z</time>
      </trkpt>
      <trkpt lat="44.66563" lon="6.0616">
        <ele>1100.8</ele>
        <time>2022-09-18T13:24:58Z</time>
      </trkpt>
      <trkpt lat="44.66561" lon="6.0616">
        <ele>1100.6</ele>
        <time>2022-09-18T13:24:59Z</time>
      </trkpt>
      <trkpt lat="44.66559" lon="6.0616">
        <ele>1100.8</ele>
        <time>2022-09-18T13:25:00Z</time>
      </trkpt>
      <trkpt lat="44.66556" lon="6.0616">
        <ele>1101</ele>
        <time>2022-09-18T13:25:01Z</time>
      </trkpt>
      <trkpt lat="44.66552" lon="6.0616">
        <ele>1101</ele>
        <time>2022-09-18T13:25:03Z</time>
      </trkpt>
      <trkpt lat="44.6655" lon="6.06161">
        <ele>1101.2</ele>
        <time>2022-09-18T13:25:04Z</time>
      </trkpt>
      <trkpt lat="44.66548" lon="6.06161">
        <ele>1101.2</ele>
        <time>2022-09-18T13:25:05Z</time>
      </trkpt>
      <trkpt lat="44.66545" lon="6.06161">
        <ele>1101.4</ele>
        <time>2022-09-18T13:25:06Z</time>
      </trkpt>
      <trkpt lat="44.66543" lon="6.06162">
        <ele>1101.6</ele>
        <time>2022-09-18T13:25:07Z</time>
      </trkpt>
      <trkpt lat="44.66541" lon="6.06162">
        <ele>1101.8</ele>
        <time>2022-09-18T13:25:08Z</time>
      </trkpt>
      <trkpt lat="44.66539" lon="6.06162">
        <ele>1101.6</ele>
        <time>2022-09-18T13:25:09Z</time>
      </trkpt>
      <trkpt lat="44.66537" lon="6.06162">
        <ele>1101.4</ele>
        <time>2022-09-18T13:25:10Z</time>
      </trkpt>
      <trkpt lat="44.66535" lon="6.06161">
        <ele>1101.6</ele>
        <time>2022-09-18T13:25:11Z</time>
      </trkpt>
      <trkpt lat="44.66532" lon="6.06161">
        <ele>1101.8</ele>
        <time>2022-09-18T13:25:12Z</time>
      </trkpt>
      <trkpt lat="44.6653" lon="6.06162">
        <ele>1101.8</ele>
        <time>2022-09-18T13:25:13Z</time>
      </trkpt>
      <trkpt lat="44.66528" lon="6.06162">
        <ele>1101.8</ele>
        <time>2022-09-18T13:25:14Z</time>
      </trkpt>
      <trkpt lat="44.66526" lon="6.06163">
        <ele>1102.2</ele>
        <time>2022-09-18T13:25:15Z</time>
      </trkpt>
      <trkpt lat="44.66524" lon="6.06164">
        <ele>1102.4</ele>
        <time>2022-09-18T13:25:16Z</time>
      </trkpt>
      <trkpt lat="44.66521" lon="6.06164">
        <ele>1102.6</ele>
        <time>2022-09-18T13:25:17Z</time>
      </trkpt>
      <trkpt lat="44.66519" lon="6.06165">
        <ele>1102.8</ele>
        <time>2022-09-18T13:25:18Z</time>
      </trkpt>
      <trkpt lat="44.66517" lon="6.06166">
        <ele>1102.6</ele>
        <time>2022-09-18T13:25:19Z</time>
      </trkpt>
      <trkpt lat="44.66515" lon="6.06167">
        <ele>1103</ele>
        <time>2022-09-18T13:25:20Z</time>
      </trkpt>
      <trkpt lat="44.66513" lon="6.06167">
        <ele>1103</ele>
        <time>2022-09-18T13:25:21Z</time>
      </trkpt>
      <trkpt lat="44.6651" lon="6.06167">
        <ele>1103</ele>
        <time>2022-09-18T13:25:22Z</time>
      </trkpt>
      <trkpt lat="44.66508" lon="6.06168">
        <ele>1103.2</ele>
        <time>2022-09-18T13:25:23Z</time>
      </trkpt>
      <trkpt lat="44.66506" lon="6.06168">
        <ele>1103.2</ele>
        <time>2022-09-18T13:25:24Z</time>
      </trkpt>
      <trkpt lat="44.66504" lon="6.06169">
        <ele>1103.2</ele>
        <time>2022-09-18T13:25:25Z</time>
      </trkpt>
      <trkpt lat="44.66502" lon="6.0617">
        <ele>1103.4</ele>
        <time>2022-09-18T13:25:26Z</time>
      </trkpt>
      <trkpt lat="44.665" lon="6.0617">
        <ele>1103.6</ele>
        <time>2022-09-18T13:25:27Z</time>
      </trkpt>
      <trkpt lat="44.66498" lon="6.06171">
        <ele>1103.6</ele>
        <time>2022-09-18T13:25:28Z</time>
      </trkpt>
      <trkpt lat="44.66495" lon="6.06172">
        <ele>1103.8</ele>
        <time>2022-09-18T13:25:29Z</time>
      </trkpt>
      <trkpt lat="44.66493" lon="6.06173">
        <ele>1104.2</ele>
        <time>2022-09-18T13:25:30Z</time>
      </trkpt>
      <trkpt lat="44.66491" lon="6.06174">
        <ele>1104.2</ele>
        <time>2022-09-18T13:25:31Z</time>
      </trkpt>
      <trkpt lat="44.66489" lon="6.06174">
        <ele>1104.2</ele>
        <time>2022-09-18T13:25:32Z</time>
      </trkpt>
      <trkpt lat="44.66487" lon="6.06175">
        <ele>1104.2</ele>
        <time>2022-09-18T13:25:33Z</time>
      </trkpt>
      <trkpt lat="44.66485" lon="6.06176">
        <ele>1104.2</ele>
        <time>2022-09-18T13:25:34Z</time>
      </trkpt>
      <trkpt lat="44.66483" lon="6.06176">
        <ele>1104.6</ele>
        <time>2022-09-18T13:25:35Z</time>
      </trkpt>
      <trkpt lat="44.66481" lon="6.06176">
        <ele>1104.8</ele>
        <time>2022-09-18T13:25:36Z</time>
      </trkpt>
      <trkpt lat="44.66479" lon="6.06176">
        <ele>1104.8</ele>
        <time>2022-09-18T13:25:37Z</time>
      </trkpt>
      <trkpt lat="44.66476" lon="6.06176">
        <ele>1105</ele>
        <time>2022-09-18T13:25:38Z</time>
      </trkpt>
      <trkpt lat="44.66474" lon="6.06175">
        <ele>1105.2</ele>
        <time>2022-09-18T13:25:39Z</time>
      </trkpt>
      <trkpt lat="44.66472" lon="6.06174">
        <ele>1105.6</ele>
        <time>2022-09-18T13:25:40Z</time>
      </trkpt>
      <trkpt lat="44.66471" lon="6.06171">
        <ele>1105.6</ele>
        <time>2022-09-18T13:25:41Z</time>
      </trkpt>
      <trkpt lat="44.6647" lon="6.06165">
        <ele>1106</ele>
        <time>2022-09-18T13:25:43Z</time>
      </trkpt>
      <trkpt lat="44.6647" lon="6.06162">
        <ele>1106.4</ele>
        <time>2022-09-18T13:25:44Z</time>
      </trkpt>
      <trkpt lat="44.66471" lon="6.06159">
        <ele>1106.6</ele>
        <time>2022-09-18T13:25:45Z</time>
      </trkpt>
      <trkpt lat="44.66475" lon="6.06155">
        <ele>1107.6</ele>
        <time>2022-09-18T13:25:47Z</time>
      </trkpt>
      <trkpt lat="44.66477" lon="6.06154">
        <ele>1107.8</ele>
        <time>2022-09-18T13:25:48Z</time>
      </trkpt>
      <trkpt lat="44.66479" lon="6.06153">
        <ele>1108</ele>
        <time>2022-09-18T13:25:49Z</time>
      </trkpt>
      <trkpt lat="44.66482" lon="6.06152">
        <ele>1108.2</ele>
        <time>2022-09-18T13:25:51Z</time>
      </trkpt>
      <trkpt lat="44.66485" lon="6.06152">
        <ele>1108.6</ele>
        <time>2022-09-18T13:25:52Z</time>
      </trkpt>
      <trkpt lat="44.66489" lon="6.0615">
        <ele>1109.2</ele>
        <time>2022-09-18T13:25:54Z</time>
      </trkpt>
      <trkpt lat="44.66492" lon="6.0615">
        <ele>1109.4</ele>
        <time>2022-09-18T13:25:55Z</time>
      </trkpt>
      <trkpt lat="44.66494" lon="6.06149">
        <ele>1109.6</ele>
        <time>2022-09-18T13:25:56Z</time>
      </trkpt>
      <trkpt lat="44.66496" lon="6.06148">
        <ele>1109.6</ele>
        <time>2022-09-18T13:25:57Z</time>
      </trkpt>
      <trkpt lat="44.66498" lon="6.06147">
        <ele>1109.8</ele>
        <time>2022-09-18T13:25:58Z</time>
      </trkpt>
      <trkpt lat="44.66501" lon="6.06146">
        <ele>1109.8</ele>
        <time>2022-09-18T13:25:59Z</time>
      </trkpt>
      <trkpt lat="44.66503" lon="6.06145">
        <ele>1109.8</ele>
        <time>2022-09-18T13:26:00Z</time>
      </trkpt>
      <trkpt lat="44.66505" lon="6.06144">
        <ele>1109.6</ele>
        <time>2022-09-18T13:26:01Z</time>
      </trkpt>
      <trkpt lat="44.66508" lon="6.06143">
        <ele>1109.6</ele>
        <time>2022-09-18T13:26:02Z</time>
      </trkpt>
      <trkpt lat="44.6651" lon="6.06141">
        <ele>1109.6</ele>
        <time>2022-09-18T13:26:03Z</time>
      </trkpt>
      <trkpt lat="44.66512" lon="6.06139">
        <ele>1109.8</ele>
        <time>2022-09-18T13:26:04Z</time>
      </trkpt>
      <trkpt lat="44.66514" lon="6.06138">
        <ele>1110</ele>
        <time>2022-09-18T13:26:05Z</time>
      </trkpt>
      <trkpt lat="44.66516" lon="6.06136">
        <ele>1110</ele>
        <time>2022-09-18T13:26:06Z</time>
      </trkpt>
      <trkpt lat="44.66521" lon="6.06133">
        <ele>1110.6</ele>
        <time>2022-09-18T13:26:08Z</time>
      </trkpt>
      <trkpt lat="44.66523" lon="6.06131">
        <ele>1110.6</ele>
        <time>2022-09-18T13:26:09Z</time>
      </trkpt>
      <trkpt lat="44.66525" lon="6.06129">
        <ele>1110.8</ele>
        <time>2022-09-18T13:26:10Z</time>
      </trkpt>
      <trkpt lat="44.66527" lon="6.06127">
        <ele>1110.8</ele>
        <time>2022-09-18T13:26:11Z</time>
      </trkpt>
      <trkpt lat="44.66528" lon="6.06125">
        <ele>1111</ele>
        <time>2022-09-18T13:26:12Z</time>
      </trkpt>
      <trkpt lat="44.6653" lon="6.06123">
        <ele>1111.2</ele>
        <time>2022-09-18T13:26:13Z</time>
      </trkpt>
      <trkpt lat="44.66532" lon="6.06122">
        <ele>1111.2</ele>
        <time>2022-09-18T13:26:14Z</time>
      </trkpt>
      <trkpt lat="44.66534" lon="6.0612">
        <ele>1111.4</ele>
        <time>2022-09-18T13:26:15Z</time>
      </trkpt>
      <trkpt lat="44.66535" lon="6.06118">
        <ele>1111.6</ele>
        <time>2022-09-18T13:26:16Z</time>
      </trkpt>
      <trkpt lat="44.66537" lon="6.06116">
        <ele>1111.6</ele>
        <time>2022-09-18T13:26:17Z</time>
      </trkpt>
      <trkpt lat="44.66539" lon="6.06114">
        <ele>1112</ele>
        <time>2022-09-18T13:26:18Z</time>
      </trkpt>
      <trkpt lat="44.66543" lon="6.06111">
        <ele>1112.8</ele>
        <time>2022-09-18T13:26:20Z</time>
      </trkpt>
      <trkpt lat="44.66545" lon="6.06109">
        <ele>1113.2</ele>
        <time>2022-09-18T13:26:21Z</time>
      </trkpt>
      <trkpt lat="44.66547" lon="6.06107">
        <ele>1113.6</ele>
        <time>2022-09-18T13:26:22Z</time>
      </trkpt>
      <trkpt lat="44.66549" lon="6.06105">
        <ele>1113.8</ele>
        <time>2022-09-18T13:26:23Z</time>
      </trkpt>
      <trkpt lat="44.66551" lon="6.06103">
        <ele>1114.4</ele>
        <time>2022-09-18T13:26:24Z</time>
      </trkpt>
      <trkpt lat="44.66553" lon="6.06101">
        <ele>1114.8</ele>
        <time>2022-09-18T13:26:25Z</time>
      </trkpt>
      <trkpt lat="44.66555" lon="6.06098">
        <ele>1115.2</ele>
        <time>2022-09-18T13:26:26Z</time>
      </trkpt>
      <trkpt lat="44.66556" lon="6.06095">
        <ele>1115.8</ele>
        <time>2022-09-18T13:26:27Z</time>
      </trkpt>
      <trkpt lat="44.66557" lon="6.06092">
        <ele>1116.2</ele>
        <time>2022-09-18T13:26:28Z</time>
      </trkpt>
      <trkpt lat="44.66558" lon="6.06089">
        <ele>1116.6</ele>
        <time>2022-09-18T13:26:29Z</time>
      </trkpt>
      <trkpt lat="44.66558" lon="6.06086">
        <ele>1117</ele>
        <time>2022-09-18T13:26:30Z</time>
      </trkpt>
      <trkpt lat="44.66558" lon="6.06083">
        <ele>1117</ele>
        <time>2022-09-18T13:26:31Z</time>
      </trkpt>
      <trkpt lat="44.66558" lon="6.06076">
        <ele>1117.8</ele>
        <time>2022-09-18T13:26:33Z</time>
      </trkpt>
      <trkpt lat="44.66558" lon="6.06073">
        <ele>1118</ele>
        <time>2022-09-18T13:26:34Z</time>
      </trkpt>
      <trkpt lat="44.66558" lon="6.0607">
        <ele>1118.2</ele>
        <time>2022-09-18T13:26:35Z</time>
      </trkpt>
      <trkpt lat="44.66557" lon="6.06067">
        <ele>1118.6</ele>
        <time>2022-09-18T13:26:36Z</time>
      </trkpt>
      <trkpt lat="44.66557" lon="6.06064">
        <ele>1119</ele>
        <time>2022-09-18T13:26:37Z</time>
      </trkpt>
      <trkpt lat="44.66556" lon="6.0606">
        <ele>1119.2</ele>
        <time>2022-09-18T13:26:38Z</time>
      </trkpt>
      <trkpt lat="44.66555" lon="6.06057">
        <ele>1119.6</ele>
        <time>2022-09-18T13:26:39Z</time>
      </trkpt>
      <trkpt lat="44.66555" lon="6.06054">
        <ele>1119.8</ele>
        <time>2022-09-18T13:26:40Z</time>
      </trkpt>
      <trkpt lat="44.66554" lon="6.06051">
        <ele>1120.2</ele>
        <time>2022-09-18T13:26:41Z</time>
      </trkpt>
      <trkpt lat="44.66554" lon="6.06047">
        <ele>1120.4</ele>
        <time>2022-09-18T13:26:42Z</time>
      </trkpt>
      <trkpt lat="44.66553" lon="6.06041">
        <ele>1120.2</ele>
        <time>2022-09-18T13:26:44Z</time>
      </trkpt>
      <trkpt lat="44.66551" lon="6.06034">
        <ele>1120.8</ele>
        <time>2022-09-18T13:26:46Z</time>
      </trkpt>
      <trkpt lat="44.66551" lon="6.0603">
        <ele>1121.2</ele>
        <time>2022-09-18T13:26:47Z</time>
      </trkpt>
      <trkpt lat="44.6655" lon="6.06027">
        <ele>1121.2</ele>
        <time>2022-09-18T13:26:48Z</time>
      </trkpt>
      <trkpt lat="44.66549" lon="6.06024">
        <ele>1121.6</ele>
        <time>2022-09-18T13:26:49Z</time>
      </trkpt>
      <trkpt lat="44.66548" lon="6.06021">
        <ele>1121.8</ele>
        <time>2022-09-18T13:26:50Z</time>
      </trkpt>
      <trkpt lat="44.66546" lon="6.06018">
        <ele>1122</ele>
        <time>2022-09-18T13:26:51Z</time>
      </trkpt>
      <trkpt lat="44.66544" lon="6.06016">
        <ele>1122.2</ele>
        <time>2022-09-18T13:26:52Z</time>
      </trkpt>
      <trkpt lat="44.66543" lon="6.06013">
        <ele>1122.2</ele>
        <time>2022-09-18T13:26:53Z</time>
      </trkpt>
      <trkpt lat="44.66541" lon="6.0601">
        <ele>1122.4</ele>
        <time>2022-09-18T13:26:54Z</time>
      </trkpt>
      <trkpt lat="44.66539" lon="6.06008">
        <ele>1122.6</ele>
        <time>2022-09-18T13:26:55Z</time>
      </trkpt>
      <trkpt lat="44.66537" lon="6.06006">
        <ele>1123</ele>
        <time>2022-09-18T13:26:56Z</time>
      </trkpt>
      <trkpt lat="44.66535" lon="6.06004">
        <ele>1123.2</ele>
        <time>2022-09-18T13:26:57Z</time>
      </trkpt>
      <trkpt lat="44.66533" lon="6.06003">
        <ele>1123.8</ele>
        <time>2022-09-18T13:26:58Z</time>
      </trkpt>
      <trkpt lat="44.6653" lon="6.06001">
        <ele>1123.8</ele>
        <time>2022-09-18T13:26:59Z</time>
      </trkpt>
      <trkpt lat="44.66527" lon="6.06001">
        <ele>1124</ele>
        <time>2022-09-18T13:27:00Z</time>
      </trkpt>
      <trkpt lat="44.66525" lon="6.06">
        <ele>1124.2</ele>
        <time>2022-09-18T13:27:01Z</time>
      </trkpt>
      <trkpt lat="44.66522" lon="6.05999">
        <ele>1124.4</ele>
        <time>2022-09-18T13:27:02Z</time>
      </trkpt>
      <trkpt lat="44.6652" lon="6.05999">
        <ele>1124.6</ele>
        <time>2022-09-18T13:27:03Z</time>
      </trkpt>
      <trkpt lat="44.66518" lon="6.06">
        <ele>1125</ele>
        <time>2022-09-18T13:27:04Z</time>
      </trkpt>
      <trkpt lat="44.66515" lon="6.06">
        <ele>1125</ele>
        <time>2022-09-18T13:27:05Z</time>
      </trkpt>
      <trkpt lat="44.66513" lon="6.06001">
        <ele>1125.4</ele>
        <time>2022-09-18T13:27:06Z</time>
      </trkpt>
      <trkpt lat="44.66511" lon="6.06002">
        <ele>1125.6</ele>
        <time>2022-09-18T13:27:07Z</time>
      </trkpt>
      <trkpt lat="44.66508" lon="6.06003">
        <ele>1126</ele>
        <time>2022-09-18T13:27:08Z</time>
      </trkpt>
      <trkpt lat="44.66506" lon="6.06004">
        <ele>1126.2</ele>
        <time>2022-09-18T13:27:09Z</time>
      </trkpt>
      <trkpt lat="44.66504" lon="6.06006">
        <ele>1126.6</ele>
        <time>2022-09-18T13:27:10Z</time>
      </trkpt>
      <trkpt lat="44.66502" lon="6.06008">
        <ele>1127</ele>
        <time>2022-09-18T13:27:11Z</time>
      </trkpt>
      <trkpt lat="44.665" lon="6.0601">
        <ele>1127.2</ele>
        <time>2022-09-18T13:27:12Z</time>
      </trkpt>
      <trkpt lat="44.66497" lon="6.06015">
        <ele>1127.8</ele>
        <time>2022-09-18T13:27:14Z</time>
      </trkpt>
      <trkpt lat="44.66495" lon="6.06018">
        <ele>1128.2</ele>
        <time>2022-09-18T13:27:15Z</time>
      </trkpt>
      <trkpt lat="44.66494" lon="6.06021">
        <ele>1128.4</ele>
        <time>2022-09-18T13:27:16Z</time>
      </trkpt>
      <trkpt lat="44.66493" lon="6.06023">
        <ele>1128.4</ele>
        <time>2022-09-18T13:27:17Z</time>
      </trkpt>
      <trkpt lat="44.66491" lon="6.06026">
        <ele>1128.6</ele>
        <time>2022-09-18T13:27:18Z</time>
      </trkpt>
      <trkpt lat="44.66489" lon="6.06029">
        <ele>1128.6</ele>
        <time>2022-09-18T13:27:19Z</time>
      </trkpt>
      <trkpt lat="44.66488" lon="6.06032">
        <ele>1128.8</ele>
        <time>2022-09-18T13:27:20Z</time>
      </trkpt>
      <trkpt lat="44.66487" lon="6.06035">
        <ele>1129</ele>
        <time>2022-09-18T13:27:21Z</time>
      </trkpt>
      <trkpt lat="44.66485" lon="6.06038">
        <ele>1129.2</ele>
        <time>2022-09-18T13:27:22Z</time>
      </trkpt>
      <trkpt lat="44.66482" lon="6.06044">
        <ele>1129.6</ele>
        <time>2022-09-18T13:27:24Z</time>
      </trkpt>
      <trkpt lat="44.66481" lon="6.06047">
        <ele>1130</ele>
        <time>2022-09-18T13:27:25Z</time>
      </trkpt>
      <trkpt lat="44.66479" lon="6.0605">
        <ele>1130</ele>
        <time>2022-09-18T13:27:26Z</time>
      </trkpt>
      <trkpt lat="44.66478" lon="6.06053">
        <ele>1130.2</ele>
        <time>2022-09-18T13:27:27Z</time>
      </trkpt>
      <trkpt lat="44.66476" lon="6.06055">
        <ele>1130.4</ele>
        <time>2022-09-18T13:27:28Z</time>
      </trkpt>
      <trkpt lat="44.66475" lon="6.06058">
        <ele>1130.8</ele>
        <time>2022-09-18T13:27:29Z</time>
      </trkpt>
      <trkpt lat="44.66474" lon="6.0606">
        <ele>1131</ele>
        <time>2022-09-18T13:27:30Z</time>
      </trkpt>
      <trkpt lat="44.66473" lon="6.06062">
        <ele>1131.4</ele>
        <time>2022-09-18T13:27:31Z</time>
      </trkpt>
      <trkpt lat="44.66471" lon="6.06066">
        <ele>1131.8</ele>
        <time>2022-09-18T13:27:33Z</time>
      </trkpt>
      <trkpt lat="44.6647" lon="6.0607">
        <ele>1132.4</ele>
        <time>2022-09-18T13:27:35Z</time>
      </trkpt>
      <trkpt lat="44.66467" lon="6.06074">
        <ele>1132.4</ele>
        <time>2022-09-18T13:27:37Z</time>
      </trkpt>
      <trkpt lat="44.66465" lon="6.06076">
        <ele>1132.8</ele>
        <time>2022-09-18T13:27:38Z</time>
      </trkpt>
      <trkpt lat="44.66464" lon="6.06078">
        <ele>1133</ele>
        <time>2022-09-18T13:27:39Z</time>
      </trkpt>
      <trkpt lat="44.66462" lon="6.06079">
        <ele>1133.2</ele>
        <time>2022-09-18T13:27:40Z</time>
      </trkpt>
      <trkpt lat="44.6646" lon="6.0608">
        <ele>1133.4</ele>
        <time>2022-09-18T13:27:41Z</time>
      </trkpt>
      <trkpt lat="44.66457" lon="6.06081">
        <ele>1133.6</ele>
        <time>2022-09-18T13:27:43Z</time>
      </trkpt>
      <trkpt lat="44.66455" lon="6.06083">
        <ele>1133.8</ele>
        <time>2022-09-18T13:27:44Z</time>
      </trkpt>
      <trkpt lat="44.66453" lon="6.06084">
        <ele>1133.8</ele>
        <time>2022-09-18T13:27:45Z</time>
      </trkpt>
      <trkpt lat="44.66451" lon="6.06085">
        <ele>1133.8</ele>
        <time>2022-09-18T13:27:46Z</time>
      </trkpt>
      <trkpt lat="44.66449" lon="6.06087">
        <ele>1133.8</ele>
        <time>2022-09-18T13:27:47Z</time>
      </trkpt>
      <trkpt lat="44.66447" lon="6.06088">
        <ele>1133.8</ele>
        <time>2022-09-18T13:27:48Z</time>
      </trkpt>
      <trkpt lat="44.66445" lon="6.06089">
        <ele>1133.8</ele>
        <time>2022-09-18T13:27:49Z</time>
      </trkpt>
      <trkpt lat="44.66443" lon="6.0609">
        <ele>1134</ele>
        <time>2022-09-18T13:27:50Z</time>
      </trkpt>
      <trkpt lat="44.6644" lon="6.06091">
        <ele>1134.2</ele>
        <time>2022-09-18T13:27:51Z</time>
      </trkpt>
      <trkpt lat="44.66438" lon="6.06092">
        <ele>1134.6</ele>
        <time>2022-09-18T13:27:52Z</time>
      </trkpt>
      <trkpt lat="44.66435" lon="6.06093">
        <ele>1134.6</ele>
        <time>2022-09-18T13:27:53Z</time>
      </trkpt>
      <trkpt lat="44.66433" lon="6.06094">
        <ele>1134.8</ele>
        <time>2022-09-18T13:27:54Z</time>
      </trkpt>
      <trkpt lat="44.6643" lon="6.06094">
        <ele>1134.8</ele>
        <time>2022-09-18T13:27:55Z</time>
      </trkpt>
      <trkpt lat="44.66428" lon="6.06095">
        <ele>1135</ele>
        <time>2022-09-18T13:27:56Z</time>
      </trkpt>
      <trkpt lat="44.66425" lon="6.06096">
        <ele>1135.2</ele>
        <time>2022-09-18T13:27:57Z</time>
      </trkpt>
      <trkpt lat="44.66423" lon="6.06096">
        <ele>1135.4</ele>
        <time>2022-09-18T13:27:58Z</time>
      </trkpt>
      <trkpt lat="44.6642" lon="6.06097">
        <ele>1135.4</ele>
        <time>2022-09-18T13:27:59Z</time>
      </trkpt>
      <trkpt lat="44.66417" lon="6.06097">
        <ele>1135.6</ele>
        <time>2022-09-18T13:28:00Z</time>
      </trkpt>
      <trkpt lat="44.66415" lon="6.06098">
        <ele>1135.4</ele>
        <time>2022-09-18T13:28:01Z</time>
      </trkpt>
      <trkpt lat="44.66412" lon="6.06099">
        <ele>1135.6</ele>
        <time>2022-09-18T13:28:02Z</time>
      </trkpt>
      <trkpt lat="44.66409" lon="6.06099">
        <ele>1135.6</ele>
        <time>2022-09-18T13:28:03Z</time>
      </trkpt>
      <trkpt lat="44.66407" lon="6.06099">
        <ele>1135.8</ele>
        <time>2022-09-18T13:28:04Z</time>
      </trkpt>
      <trkpt lat="44.66404" lon="6.06099">
        <ele>1136</ele>
        <time>2022-09-18T13:28:05Z</time>
      </trkpt>
      <trkpt lat="44.66401" lon="6.06099">
        <ele>1136</ele>
        <time>2022-09-18T13:28:06Z</time>
      </trkpt>
      <trkpt lat="44.66399" lon="6.06099">
        <ele>1136.4</ele>
        <time>2022-09-18T13:28:07Z</time>
      </trkpt>
      <trkpt lat="44.66396" lon="6.06099">
        <ele>1136.4</ele>
        <time>2022-09-18T13:28:08Z</time>
      </trkpt>
      <trkpt lat="44.66394" lon="6.06098">
        <ele>1136.4</ele>
        <time>2022-09-18T13:28:09Z</time>
      </trkpt>
      <trkpt lat="44.66391" lon="6.06098">
        <ele>1136.6</ele>
        <time>2022-09-18T13:28:10Z</time>
      </trkpt>
      <trkpt lat="44.66388" lon="6.06097">
        <ele>1136.6</ele>
        <time>2022-09-18T13:28:11Z</time>
      </trkpt>
      <trkpt lat="44.66386" lon="6.06097">
        <ele>1136.8</ele>
        <time>2022-09-18T13:28:12Z</time>
      </trkpt>
      <trkpt lat="44.6638" lon="6.06094">
        <ele>1138.2</ele>
        <time>2022-09-18T13:28:14Z</time>
      </trkpt>
      <trkpt lat="44.66378" lon="6.06093">
        <ele>1138.6</ele>
        <time>2022-09-18T13:28:15Z</time>
      </trkpt>
      <trkpt lat="44.66375" lon="6.06092">
        <ele>1138.6</ele>
        <time>2022-09-18T13:28:16Z</time>
      </trkpt>
      <trkpt lat="44.66373" lon="6.06092">
        <ele>1138.8</ele>
        <time>2022-09-18T13:28:17Z</time>
      </trkpt>
      <trkpt lat="44.6637" lon="6.06092">
        <ele>1139</ele>
        <time>2022-09-18T13:28:18Z</time>
      </trkpt>
      <trkpt lat="44.66367" lon="6.06092">
        <ele>1139</ele>
        <time>2022-09-18T13:28:19Z</time>
      </trkpt>
      <trkpt lat="44.66365" lon="6.06092">
        <ele>1139.2</ele>
        <time>2022-09-18T13:28:20Z</time>
      </trkpt>
      <trkpt lat="44.66362" lon="6.06093">
        <ele>1139.4</ele>
        <time>2022-09-18T13:28:21Z</time>
      </trkpt>
      <trkpt lat="44.6636" lon="6.06093">
        <ele>1139.6</ele>
        <time>2022-09-18T13:28:22Z</time>
      </trkpt>
      <trkpt lat="44.66357" lon="6.06094">
        <ele>1139.8</ele>
        <time>2022-09-18T13:28:23Z</time>
      </trkpt>
      <trkpt lat="44.66355" lon="6.06094">
        <ele>1140</ele>
        <time>2022-09-18T13:28:24Z</time>
      </trkpt>
      <trkpt lat="44.66353" lon="6.06095">
        <ele>1140.2</ele>
        <time>2022-09-18T13:28:25Z</time>
      </trkpt>
      <trkpt lat="44.66351" lon="6.06095">
        <ele>1140.4</ele>
        <time>2022-09-18T13:28:26Z</time>
      </trkpt>
      <trkpt lat="44.66346" lon="6.06096">
        <ele>1140.6</ele>
        <time>2022-09-18T13:28:28Z</time>
      </trkpt>
      <trkpt lat="44.66344" lon="6.06096">
        <ele>1140.8</ele>
        <time>2022-09-18T13:28:29Z</time>
      </trkpt>
      <trkpt lat="44.66342" lon="6.06096">
        <ele>1141</ele>
        <time>2022-09-18T13:28:30Z</time>
      </trkpt>
      <trkpt lat="44.66337" lon="6.06096">
        <ele>1141.4</ele>
        <time>2022-09-18T13:28:32Z</time>
      </trkpt>
      <trkpt lat="44.66335" lon="6.06097">
        <ele>1141.4</ele>
        <time>2022-09-18T13:28:33Z</time>
      </trkpt>
      <trkpt lat="44.66333" lon="6.06098">
        <ele>1141</ele>
        <time>2022-09-18T13:28:48Z</time>
      </trkpt>
      <trkpt lat="44.66332" lon="6.061">
        <ele>1137.6</ele>
        <time>2022-09-18T13:29:33Z</time>
      </trkpt>
      <trkpt lat="44.66329" lon="6.06101">
        <ele>1137.4</ele>
        <time>2022-09-18T13:29:35Z</time>
      </trkpt>
      <trkpt lat="44.66326" lon="6.06102">
        <ele>1136.8</ele>
        <time>2022-09-18T13:29:37Z</time>
      </trkpt>
      <trkpt lat="44.66322" lon="6.06103">
        <ele>1136.6</ele>
        <time>2022-09-18T13:29:39Z</time>
      </trkpt>
      <trkpt lat="44.6632" lon="6.06103">
        <ele>1136.4</ele>
        <time>2022-09-18T13:29:40Z</time>
      </trkpt>
      <trkpt lat="44.66317" lon="6.06103">
        <ele>1136.2</ele>
        <time>2022-09-18T13:29:41Z</time>
      </trkpt>
      <trkpt lat="44.66314" lon="6.06103">
        <ele>1136.2</ele>
        <time>2022-09-18T13:29:42Z</time>
      </trkpt>
      <trkpt lat="44.66311" lon="6.06104">
        <ele>1136.2</ele>
        <time>2022-09-18T13:29:43Z</time>
      </trkpt>
      <trkpt lat="44.66306" lon="6.06105">
        <ele>1136</ele>
        <time>2022-09-18T13:29:44Z</time>
      </trkpt>
      <trkpt lat="44.66302" lon="6.06106">
        <ele>1136</ele>
        <time>2022-09-18T13:29:45Z</time>
      </trkpt>
      <trkpt lat="44.66296" lon="6.06107">
        <ele>1135.8</ele>
        <time>2022-09-18T13:29:46Z</time>
      </trkpt>
      <trkpt lat="44.6629" lon="6.06109">
        <ele>1135.8</ele>
        <time>2022-09-18T13:29:47Z</time>
      </trkpt>
      <trkpt lat="44.66284" lon="6.06111">
        <ele>1135.4</ele>
        <time>2022-09-18T13:29:48Z</time>
      </trkpt>
      <trkpt lat="44.66278" lon="6.06113">
        <ele>1135</ele>
        <time>2022-09-18T13:29:49Z</time>
      </trkpt>
      <trkpt lat="44.66273" lon="6.06116">
        <ele>1134.6</ele>
        <time>2022-09-18T13:29:50Z</time>
      </trkpt>
      <trkpt lat="44.66267" lon="6.06118">
        <ele>1134.6</ele>
        <time>2022-09-18T13:29:51Z</time>
      </trkpt>
      <trkpt lat="44.66262" lon="6.06121">
        <ele>1134.2</ele>
        <time>2022-09-18T13:29:52Z</time>
      </trkpt>
      <trkpt lat="44.66257" lon="6.06124">
        <ele>1134.2</ele>
        <time>2022-09-18T13:29:53Z</time>
      </trkpt>
      <trkpt lat="44.66252" lon="6.06126">
        <ele>1134</ele>
        <time>2022-09-18T13:29:54Z</time>
      </trkpt>
      <trkpt lat="44.66243" lon="6.06131">
        <ele>1134</ele>
        <time>2022-09-18T13:29:56Z</time>
      </trkpt>
      <trkpt lat="44.66239" lon="6.06132">
        <ele>1134</ele>
        <time>2022-09-18T13:29:57Z</time>
      </trkpt>
      <trkpt lat="44.66234" lon="6.06133">
        <ele>1134</ele>
        <time>2022-09-18T13:29:58Z</time>
      </trkpt>
      <trkpt lat="44.6623" lon="6.06134">
        <ele>1134</ele>
        <time>2022-09-18T13:29:59Z</time>
      </trkpt>
      <trkpt lat="44.66226" lon="6.06134">
        <ele>1134</ele>
        <time>2022-09-18T13:30:00Z</time>
      </trkpt>
      <trkpt lat="44.66221" lon="6.06134">
        <ele>1134</ele>
        <time>2022-09-18T13:30:01Z</time>
      </trkpt>
      <trkpt lat="44.66217" lon="6.06133">
        <ele>1134</ele>
        <time>2022-09-18T13:30:02Z</time>
      </trkpt>
      <trkpt lat="44.66213" lon="6.06132">
        <ele>1134.2</ele>
        <time>2022-09-18T13:30:03Z</time>
      </trkpt>
      <trkpt lat="44.6621" lon="6.06132">
        <ele>1134.4</ele>
        <time>2022-09-18T13:30:04Z</time>
      </trkpt>
      <trkpt lat="44.66206" lon="6.06131">
        <ele>1134.4</ele>
        <time>2022-09-18T13:30:05Z</time>
      </trkpt>
      <trkpt lat="44.66202" lon="6.0613">
        <ele>1134.6</ele>
        <time>2022-09-18T13:30:06Z</time>
      </trkpt>
      <trkpt lat="44.66199" lon="6.06129">
        <ele>1135</ele>
        <time>2022-09-18T13:30:07Z</time>
      </trkpt>
      <trkpt lat="44.66196" lon="6.06129">
        <ele>1135.2</ele>
        <time>2022-09-18T13:30:08Z</time>
      </trkpt>
      <trkpt lat="44.66189" lon="6.06127">
        <ele>1135.8</ele>
        <time>2022-09-18T13:30:10Z</time>
      </trkpt>
      <trkpt lat="44.66186" lon="6.06127">
        <ele>1135.8</ele>
        <time>2022-09-18T13:30:11Z</time>
      </trkpt>
      <trkpt lat="44.66183" lon="6.06126">
        <ele>1135.8</ele>
        <time>2022-09-18T13:30:12Z</time>
      </trkpt>
      <trkpt lat="44.6618" lon="6.06125">
        <ele>1135.8</ele>
        <time>2022-09-18T13:30:13Z</time>
      </trkpt>
      <trkpt lat="44.66177" lon="6.06125">
        <ele>1136</ele>
        <time>2022-09-18T13:30:14Z</time>
      </trkpt>
      <trkpt lat="44.66174" lon="6.06125">
        <ele>1136.4</ele>
        <time>2022-09-18T13:30:15Z</time>
      </trkpt>
      <trkpt lat="44.66171" lon="6.06124">
        <ele>1136.4</ele>
        <time>2022-09-18T13:30:16Z</time>
      </trkpt>
      <trkpt lat="44.66168" lon="6.06124">
        <ele>1136.6</ele>
        <time>2022-09-18T13:30:17Z</time>
      </trkpt>
      <trkpt lat="44.66165" lon="6.06124">
        <ele>1137</ele>
        <time>2022-09-18T13:30:18Z</time>
      </trkpt>
      <trkpt lat="44.66162" lon="6.06124">
        <ele>1137.4</ele>
        <time>2022-09-18T13:30:19Z</time>
      </trkpt>
      <trkpt lat="44.6616" lon="6.06124">
        <ele>1137.8</ele>
        <time>2022-09-18T13:30:20Z</time>
      </trkpt>
      <trkpt lat="44.66157" lon="6.06124">
        <ele>1138</ele>
        <time>2022-09-18T13:30:21Z</time>
      </trkpt>
      <trkpt lat="44.66154" lon="6.06124">
        <ele>1138.4</ele>
        <time>2022-09-18T13:30:22Z</time>
      </trkpt>
      <trkpt lat="44.66151" lon="6.06124">
        <ele>1138.6</ele>
        <time>2022-09-18T13:30:23Z</time>
      </trkpt>
      <trkpt lat="44.66149" lon="6.06123">
        <ele>1138.8</ele>
        <time>2022-09-18T13:30:24Z</time>
      </trkpt>
      <trkpt lat="44.66146" lon="6.06123">
        <ele>1139.2</ele>
        <time>2022-09-18T13:30:25Z</time>
      </trkpt>
      <trkpt lat="44.66143" lon="6.06123">
        <ele>1139.6</ele>
        <time>2022-09-18T13:30:26Z</time>
      </trkpt>
      <trkpt lat="44.6614" lon="6.06123">
        <ele>1140</ele>
        <time>2022-09-18T13:30:27Z</time>
      </trkpt>
      <trkpt lat="44.66138" lon="6.06123">
        <ele>1140.4</ele>
        <time>2022-09-18T13:30:28Z</time>
      </trkpt>
      <trkpt lat="44.66135" lon="6.06123">
        <ele>1140.8</ele>
        <time>2022-09-18T13:30:29Z</time>
      </trkpt>
      <trkpt lat="44.66132" lon="6.06122">
        <ele>1141.2</ele>
        <time>2022-09-18T13:30:30Z</time>
      </trkpt>
      <trkpt lat="44.66129" lon="6.06122">
        <ele>1141.4</ele>
        <time>2022-09-18T13:30:31Z</time>
      </trkpt>
      <trkpt lat="44.66126" lon="6.06122">
        <ele>1141.8</ele>
        <time>2022-09-18T13:30:32Z</time>
      </trkpt>
      <trkpt lat="44.66123" lon="6.06122">
        <ele>1142</ele>
        <time>2022-09-18T13:30:33Z</time>
      </trkpt>
      <trkpt lat="44.6612" lon="6.06123">
        <ele>1142.4</ele>
        <time>2022-09-18T13:30:34Z</time>
      </trkpt>
      <trkpt lat="44.66118" lon="6.06123">
        <ele>1142.6</ele>
        <time>2022-09-18T13:30:35Z</time>
      </trkpt>
      <trkpt lat="44.66115" lon="6.06123">
        <ele>1143</ele>
        <time>2022-09-18T13:30:36Z</time>
      </trkpt>
      <trkpt lat="44.66113" lon="6.06123">
        <ele>1143.6</ele>
        <time>2022-09-18T13:30:37Z</time>
      </trkpt>
      <trkpt lat="44.6611" lon="6.06123">
        <ele>1143.8</ele>
        <time>2022-09-18T13:30:38Z</time>
      </trkpt>
      <trkpt lat="44.66107" lon="6.06123">
        <ele>1144.4</ele>
        <time>2022-09-18T13:30:39Z</time>
      </trkpt>
      <trkpt lat="44.66105" lon="6.06123">
        <ele>1145</ele>
        <time>2022-09-18T13:30:40Z</time>
      </trkpt>
      <trkpt lat="44.66102" lon="6.06122">
        <ele>1145.4</ele>
        <time>2022-09-18T13:30:41Z</time>
      </trkpt>
      <trkpt lat="44.66099" lon="6.06122">
        <ele>1145.8</ele>
        <time>2022-09-18T13:30:42Z</time>
      </trkpt>
      <trkpt lat="44.66097" lon="6.06121">
        <ele>1146</ele>
        <time>2022-09-18T13:30:43Z</time>
      </trkpt>
      <trkpt lat="44.66094" lon="6.06121">
        <ele>1146.2</ele>
        <time>2022-09-18T13:30:44Z</time>
      </trkpt>
      <trkpt lat="44.66088" lon="6.0612">
        <ele>1146.8</ele>
        <time>2022-09-18T13:30:46Z</time>
      </trkpt>
      <trkpt lat="44.66085" lon="6.0612">
        <ele>1146.8</ele>
        <time>2022-09-18T13:30:47Z</time>
      </trkpt>
      <trkpt lat="44.66083" lon="6.06119">
        <ele>1147</ele>
        <time>2022-09-18T13:30:48Z</time>
      </trkpt>
      <trkpt lat="44.6608" lon="6.06118">
        <ele>1147</ele>
        <time>2022-09-18T13:30:49Z</time>
      </trkpt>
      <trkpt lat="44.66077" lon="6.06117">
        <ele>1147.4</ele>
        <time>2022-09-18T13:30:50Z</time>
      </trkpt>
      <trkpt lat="44.66074" lon="6.06116">
        <ele>1147.8</ele>
        <time>2022-09-18T13:30:51Z</time>
      </trkpt>
      <trkpt lat="44.66071" lon="6.06115">
        <ele>1148.2</ele>
        <time>2022-09-18T13:30:52Z</time>
      </trkpt>
      <trkpt lat="44.66068" lon="6.06113">
        <ele>1148.4</ele>
        <time>2022-09-18T13:30:53Z</time>
      </trkpt>
      <trkpt lat="44.66065" lon="6.06112">
        <ele>1148.6</ele>
        <time>2022-09-18T13:30:54Z</time>
      </trkpt>
      <trkpt lat="44.66063" lon="6.06111">
        <ele>1148.4</ele>
        <time>2022-09-18T13:30:55Z</time>
      </trkpt>
      <trkpt lat="44.6606" lon="6.0611">
        <ele>1148.8</ele>
        <time>2022-09-18T13:30:56Z</time>
      </trkpt>
      <trkpt lat="44.66057" lon="6.06109">
        <ele>1148.6</ele>
        <time>2022-09-18T13:30:57Z</time>
      </trkpt>
      <trkpt lat="44.66054" lon="6.06108">
        <ele>1149.2</ele>
        <time>2022-09-18T13:30:58Z</time>
      </trkpt>
      <trkpt lat="44.66052" lon="6.06107">
        <ele>1149.2</ele>
        <time>2022-09-18T13:30:59Z</time>
      </trkpt>
      <trkpt lat="44.66047" lon="6.06103">
        <ele>1149.6</ele>
        <time>2022-09-18T13:31:01Z</time>
      </trkpt>
      <trkpt lat="44.66044" lon="6.06101">
        <ele>1150</ele>
        <time>2022-09-18T13:31:02Z</time>
      </trkpt>
      <trkpt lat="44.66042" lon="6.061">
        <ele>1150.6</ele>
        <time>2022-09-18T13:31:03Z</time>
      </trkpt>
      <trkpt lat="44.6604" lon="6.06099">
        <ele>1151.2</ele>
        <time>2022-09-18T13:31:04Z</time>
      </trkpt>
      <trkpt lat="44.66037" lon="6.06097">
        <ele>1151.4</ele>
        <time>2022-09-18T13:31:05Z</time>
      </trkpt>
      <trkpt lat="44.66035" lon="6.06096">
        <ele>1151.6</ele>
        <time>2022-09-18T13:31:06Z</time>
      </trkpt>
      <trkpt lat="44.66032" lon="6.06095">
        <ele>1152</ele>
        <time>2022-09-18T13:31:07Z</time>
      </trkpt>
      <trkpt lat="44.6603" lon="6.06094">
        <ele>1152.4</ele>
        <time>2022-09-18T13:31:08Z</time>
      </trkpt>
      <trkpt lat="44.66027" lon="6.06093">
        <ele>1152.6</ele>
        <time>2022-09-18T13:31:09Z</time>
      </trkpt>
      <trkpt lat="44.66025" lon="6.06091">
        <ele>1153.2</ele>
        <time>2022-09-18T13:31:10Z</time>
      </trkpt>
      <trkpt lat="44.66023" lon="6.0609">
        <ele>1153.4</ele>
        <time>2022-09-18T13:31:11Z</time>
      </trkpt>
      <trkpt lat="44.66021" lon="6.06089">
        <ele>1153.6</ele>
        <time>2022-09-18T13:31:12Z</time>
      </trkpt>
      <trkpt lat="44.66018" lon="6.06088">
        <ele>1153.6</ele>
        <time>2022-09-18T13:31:13Z</time>
      </trkpt>
      <trkpt lat="44.66016" lon="6.06086">
        <ele>1153.8</ele>
        <time>2022-09-18T13:31:14Z</time>
      </trkpt>
      <trkpt lat="44.66014" lon="6.06085">
        <ele>1154.2</ele>
        <time>2022-09-18T13:31:15Z</time>
      </trkpt>
      <trkpt lat="44.66012" lon="6.06084">
        <ele>1154.2</ele>
        <time>2022-09-18T13:31:16Z</time>
      </trkpt>
      <trkpt lat="44.6601" lon="6.06083">
        <ele>1154.4</ele>
        <time>2022-09-18T13:31:17Z</time>
      </trkpt>
      <trkpt lat="44.66007" lon="6.06082">
        <ele>1154.6</ele>
        <time>2022-09-18T13:31:18Z</time>
      </trkpt>
      <trkpt lat="44.66005" lon="6.06082">
        <ele>1154.4</ele>
        <time>2022-09-18T13:31:19Z</time>
      </trkpt>
      <trkpt lat="44.66003" lon="6.06081">
        <ele>1154.4</ele>
        <time>2022-09-18T13:31:20Z</time>
      </trkpt>
      <trkpt lat="44.66" lon="6.0608">
        <ele>1154.4</ele>
        <time>2022-09-18T13:31:21Z</time>
      </trkpt>
      <trkpt lat="44.65998" lon="6.06078">
        <ele>1154.4</ele>
        <time>2022-09-18T13:31:22Z</time>
      </trkpt>
      <trkpt lat="44.65996" lon="6.06077">
        <ele>1154.6</ele>
        <time>2022-09-18T13:31:23Z</time>
      </trkpt>
      <trkpt lat="44.65994" lon="6.06076">
        <ele>1154.6</ele>
        <time>2022-09-18T13:31:24Z</time>
      </trkpt>
      <trkpt lat="44.65992" lon="6.06075">
        <ele>1154.6</ele>
        <time>2022-09-18T13:31:25Z</time>
      </trkpt>
      <trkpt lat="44.6599" lon="6.06075">
        <ele>1154.4</ele>
        <time>2022-09-18T13:31:26Z</time>
      </trkpt>
      <trkpt lat="44.65987" lon="6.06074">
        <ele>1154.4</ele>
        <time>2022-09-18T13:31:27Z</time>
      </trkpt>
      <trkpt lat="44.65985" lon="6.06074">
        <ele>1154.4</ele>
        <time>2022-09-18T13:31:28Z</time>
      </trkpt>
      <trkpt lat="44.65983" lon="6.06073">
        <ele>1154.2</ele>
        <time>2022-09-18T13:31:29Z</time>
      </trkpt>
      <trkpt lat="44.65981" lon="6.06073">
        <ele>1154</ele>
        <time>2022-09-18T13:31:30Z</time>
      </trkpt>
      <trkpt lat="44.65979" lon="6.06073">
        <ele>1154</ele>
        <time>2022-09-18T13:31:31Z</time>
      </trkpt>
      <trkpt lat="44.65977" lon="6.06074">
        <ele>1153.8</ele>
        <time>2022-09-18T13:31:32Z</time>
      </trkpt>
      <trkpt lat="44.65975" lon="6.06075">
        <ele>1153.6</ele>
        <time>2022-09-18T13:31:33Z</time>
      </trkpt>
      <trkpt lat="44.65973" lon="6.06075">
        <ele>1153.6</ele>
        <time>2022-09-18T13:31:34Z</time>
      </trkpt>
      <trkpt lat="44.65967" lon="6.06076">
        <ele>1153.8</ele>
        <time>2022-09-18T13:31:36Z</time>
      </trkpt>
      <trkpt lat="44.65965" lon="6.06077">
        <ele>1153.6</ele>
        <time>2022-09-18T13:31:37Z</time>
      </trkpt>
      <trkpt lat="44.65962" lon="6.06077">
        <ele>1153.4</ele>
        <time>2022-09-18T13:31:38Z</time>
      </trkpt>
      <trkpt lat="44.65959" lon="6.06078">
        <ele>1153.4</ele>
        <time>2022-09-18T13:31:39Z</time>
      </trkpt>
      <trkpt lat="44.65955" lon="6.06079">
        <ele>1153.4</ele>
        <time>2022-09-18T13:31:40Z</time>
      </trkpt>
      <trkpt lat="44.65952" lon="6.0608">
        <ele>1153.2</ele>
        <time>2022-09-18T13:31:41Z</time>
      </trkpt>
      <trkpt lat="44.65948" lon="6.06081">
        <ele>1153</ele>
        <time>2022-09-18T13:31:42Z</time>
      </trkpt>
      <trkpt lat="44.65944" lon="6.06083">
        <ele>1152.6</ele>
        <time>2022-09-18T13:31:43Z</time>
      </trkpt>
      <trkpt lat="44.6594" lon="6.06084">
        <ele>1152.4</ele>
        <time>2022-09-18T13:31:44Z</time>
      </trkpt>
      <trkpt lat="44.65936" lon="6.06086">
        <ele>1152.2</ele>
        <time>2022-09-18T13:31:45Z</time>
      </trkpt>
      <trkpt lat="44.65932" lon="6.06087">
        <ele>1152.2</ele>
        <time>2022-09-18T13:31:46Z</time>
      </trkpt>
      <trkpt lat="44.65928" lon="6.06089">
        <ele>1151.8</ele>
        <time>2022-09-18T13:31:47Z</time>
      </trkpt>
      <trkpt lat="44.65924" lon="6.06092">
        <ele>1151.8</ele>
        <time>2022-09-18T13:31:48Z</time>
      </trkpt>
      <trkpt lat="44.65921" lon="6.06094">
        <ele>1151.6</ele>
        <time>2022-09-18T13:31:49Z</time>
      </trkpt>
      <trkpt lat="44.65917" lon="6.06096">
        <ele>1151.4</ele>
        <time>2022-09-18T13:31:50Z</time>
      </trkpt>
      <trkpt lat="44.65909" lon="6.06098">
        <ele>1151</ele>
        <time>2022-09-18T13:31:52Z</time>
      </trkpt>
      <trkpt lat="44.65905" lon="6.06098">
        <ele>1150.8</ele>
        <time>2022-09-18T13:31:53Z</time>
      </trkpt>
      <trkpt lat="44.65902" lon="6.06099">
        <ele>1150.8</ele>
        <time>2022-09-18T13:31:54Z</time>
      </trkpt>
      <trkpt lat="44.65899" lon="6.06099">
        <ele>1150.4</ele>
        <time>2022-09-18T13:31:55Z</time>
      </trkpt>
      <trkpt lat="44.65897" lon="6.061">
        <ele>1150.4</ele>
        <time>2022-09-18T13:31:56Z</time>
      </trkpt>
      <trkpt lat="44.65894" lon="6.06102">
        <ele>1150.2</ele>
        <time>2022-09-18T13:31:57Z</time>
      </trkpt>
      <trkpt lat="44.65891" lon="6.06104">
        <ele>1150</ele>
        <time>2022-09-18T13:31:58Z</time>
      </trkpt>
      <trkpt lat="44.65887" lon="6.06106">
        <ele>1149.8</ele>
        <time>2022-09-18T13:31:59Z</time>
      </trkpt>
      <trkpt lat="44.65883" lon="6.06108">
        <ele>1149.8</ele>
        <time>2022-09-18T13:32:00Z</time>
      </trkpt>
      <trkpt lat="44.65879" lon="6.06111">
        <ele>1149.8</ele>
        <time>2022-09-18T13:32:01Z</time>
      </trkpt>
      <trkpt lat="44.65874" lon="6.06114">
        <ele>1149.6</ele>
        <time>2022-09-18T13:32:02Z</time>
      </trkpt>
      <trkpt lat="44.65868" lon="6.06117">
        <ele>1149.4</ele>
        <time>2022-09-18T13:32:03Z</time>
      </trkpt>
      <trkpt lat="44.65863" lon="6.06119">
        <ele>1148.8</ele>
        <time>2022-09-18T13:32:04Z</time>
      </trkpt>
      <trkpt lat="44.65858" lon="6.06123">
        <ele>1148.6</ele>
        <time>2022-09-18T13:32:05Z</time>
      </trkpt>
      <trkpt lat="44.65854" lon="6.06126">
        <ele>1148.4</ele>
        <time>2022-09-18T13:32:06Z</time>
      </trkpt>
      <trkpt lat="44.6585" lon="6.0613">
        <ele>1148</ele>
        <time>2022-09-18T13:32:07Z</time>
      </trkpt>
      <trkpt lat="44.65846" lon="6.06135">
        <ele>1147.8</ele>
        <time>2022-09-18T13:32:08Z</time>
      </trkpt>
      <trkpt lat="44.65843" lon="6.06139">
        <ele>1147.8</ele>
        <time>2022-09-18T13:32:09Z</time>
      </trkpt>
      <trkpt lat="44.65841" lon="6.06144">
        <ele>1147.6</ele>
        <time>2022-09-18T13:32:10Z</time>
      </trkpt>
      <trkpt lat="44.65838" lon="6.06147">
        <ele>1147.4</ele>
        <time>2022-09-18T13:32:11Z</time>
      </trkpt>
      <trkpt lat="44.65836" lon="6.0615">
        <ele>1147.4</ele>
        <time>2022-09-18T13:32:12Z</time>
      </trkpt>
      <trkpt lat="44.65834" lon="6.06151">
        <ele>1147.4</ele>
        <time>2022-09-18T13:32:14Z</time>
      </trkpt>
      <trkpt lat="44.65832" lon="6.06153">
        <ele>1149.4</ele>
        <time>2022-09-18T13:32:22Z</time>
      </trkpt>
      <trkpt lat="44.65831" lon="6.06155">
        <ele>1149.6</ele>
        <time>2022-09-18T13:32:23Z</time>
      </trkpt>
      <trkpt lat="44.6583" lon="6.06158">
        <ele>1150</ele>
        <time>2022-09-18T13:32:24Z</time>
      </trkpt>
      <trkpt lat="44.65828" lon="6.06162">
        <ele>1150.2</ele>
        <time>2022-09-18T13:32:25Z</time>
      </trkpt>
      <trkpt lat="44.65824" lon="6.06169">
        <ele>1150.4</ele>
        <time>2022-09-18T13:32:27Z</time>
      </trkpt>
      <trkpt lat="44.65822" lon="6.06174">
        <ele>1150.4</ele>
        <time>2022-09-18T13:32:28Z</time>
      </trkpt>
      <trkpt lat="44.65819" lon="6.06178">
        <ele>1150.6</ele>
        <time>2022-09-18T13:32:29Z</time>
      </trkpt>
      <trkpt lat="44.65816" lon="6.06181">
        <ele>1150.4</ele>
        <time>2022-09-18T13:32:30Z</time>
      </trkpt>
      <trkpt lat="44.65812" lon="6.06185">
        <ele>1150.4</ele>
        <time>2022-09-18T13:32:31Z</time>
      </trkpt>
      <trkpt lat="44.65808" lon="6.06187">
        <ele>1150.6</ele>
        <time>2022-09-18T13:32:32Z</time>
      </trkpt>
      <trkpt lat="44.65803" lon="6.06189">
        <ele>1150.6</ele>
        <time>2022-09-18T13:32:33Z</time>
      </trkpt>
      <trkpt lat="44.65799" lon="6.0619">
        <ele>1150.4</ele>
        <time>2022-09-18T13:32:34Z</time>
      </trkpt>
      <trkpt lat="44.65794" lon="6.0619">
        <ele>1150.2</ele>
        <time>2022-09-18T13:32:35Z</time>
      </trkpt>
      <trkpt lat="44.65789" lon="6.0619">
        <ele>1150.2</ele>
        <time>2022-09-18T13:32:36Z</time>
      </trkpt>
      <trkpt lat="44.65784" lon="6.06188">
        <ele>1149.8</ele>
        <time>2022-09-18T13:32:37Z</time>
      </trkpt>
      <trkpt lat="44.65779" lon="6.06187">
        <ele>1149.8</ele>
        <time>2022-09-18T13:32:38Z</time>
      </trkpt>
      <trkpt lat="44.65774" lon="6.06185">
        <ele>1149.6</ele>
        <time>2022-09-18T13:32:39Z</time>
      </trkpt>
      <trkpt lat="44.65769" lon="6.06183">
        <ele>1149.2</ele>
        <time>2022-09-18T13:32:40Z</time>
      </trkpt>
      <trkpt lat="44.65764" lon="6.06182">
        <ele>1149</ele>
        <time>2022-09-18T13:32:41Z</time>
      </trkpt>
      <trkpt lat="44.65754" lon="6.06179">
        <ele>1148.8</ele>
        <time>2022-09-18T13:32:43Z</time>
      </trkpt>
      <trkpt lat="44.65749" lon="6.06178">
        <ele>1148.8</ele>
        <time>2022-09-18T13:32:44Z</time>
      </trkpt>
      <trkpt lat="44.65745" lon="6.06177">
        <ele>1149</ele>
        <time>2022-09-18T13:32:45Z</time>
      </trkpt>
      <trkpt lat="44.6574" lon="6.06177">
        <ele>1149</ele>
        <time>2022-09-18T13:32:46Z</time>
      </trkpt>
      <trkpt lat="44.65736" lon="6.06176">
        <ele>1149.2</ele>
        <time>2022-09-18T13:32:47Z</time>
      </trkpt>
      <trkpt lat="44.65732" lon="6.06175">
        <ele>1149</ele>
        <time>2022-09-18T13:32:48Z</time>
      </trkpt>
      <trkpt lat="44.65729" lon="6.06174">
        <ele>1149.2</ele>
        <time>2022-09-18T13:32:49Z</time>
      </trkpt>
      <trkpt lat="44.65725" lon="6.06173">
        <ele>1149.6</ele>
        <time>2022-09-18T13:32:50Z</time>
      </trkpt>
      <trkpt lat="44.65722" lon="6.06173">
        <ele>1150</ele>
        <time>2022-09-18T13:32:51Z</time>
      </trkpt>
      <trkpt lat="44.65718" lon="6.06173">
        <ele>1150.2</ele>
        <time>2022-09-18T13:32:52Z</time>
      </trkpt>
      <trkpt lat="44.65714" lon="6.06173">
        <ele>1150.2</ele>
        <time>2022-09-18T13:32:53Z</time>
      </trkpt>
      <trkpt lat="44.6571" lon="6.06173">
        <ele>1150.4</ele>
        <time>2022-09-18T13:32:54Z</time>
      </trkpt>
      <trkpt lat="44.65707" lon="6.06175">
        <ele>1150.6</ele>
        <time>2022-09-18T13:32:55Z</time>
      </trkpt>
      <trkpt lat="44.65702" lon="6.06186">
        <ele>1150.6</ele>
        <time>2022-09-18T13:32:58Z</time>
      </trkpt>
      <trkpt lat="44.65699" lon="6.06199">
        <ele>1150.4</ele>
        <time>2022-09-18T13:33:00Z</time>
      </trkpt>
      <trkpt lat="44.65696" lon="6.06214">
        <ele>1150.2</ele>
        <time>2022-09-18T13:33:02Z</time>
      </trkpt>
      <trkpt lat="44.65692" lon="6.06227">
        <ele>1149.8</ele>
        <time>2022-09-18T13:33:04Z</time>
      </trkpt>
      <trkpt lat="44.65687" lon="6.06238">
        <ele>1149.8</ele>
        <time>2022-09-18T13:33:06Z</time>
      </trkpt>
      <trkpt lat="44.65682" lon="6.06252">
        <ele>1149.8</ele>
        <time>2022-09-18T13:33:08Z</time>
      </trkpt>
      <trkpt lat="44.65678" lon="6.06271">
        <ele>1150</ele>
        <time>2022-09-18T13:33:10Z</time>
      </trkpt>
      <trkpt lat="44.65678" lon="6.06293">
        <ele>1149.2</ele>
        <time>2022-09-18T13:33:12Z</time>
      </trkpt>
      <trkpt lat="44.65678" lon="6.06316">
        <ele>1148.4</ele>
        <time>2022-09-18T13:33:14Z</time>
      </trkpt>
      <trkpt lat="44.65674" lon="6.0635">
        <ele>1147.8</ele>
        <time>2022-09-18T13:33:17Z</time>
      </trkpt>
      <trkpt lat="44.65672" lon="6.06361">
        <ele>1147.8</ele>
        <time>2022-09-18T13:33:18Z</time>
      </trkpt>
      <trkpt lat="44.65667" lon="6.06384">
        <ele>1147.6</ele>
        <time>2022-09-18T13:33:20Z</time>
      </trkpt>
      <trkpt lat="44.65662" lon="6.06404">
        <ele>1148</ele>
        <time>2022-09-18T13:33:22Z</time>
      </trkpt>
      <trkpt lat="44.65656" lon="6.06423">
        <ele>1148.2</ele>
        <time>2022-09-18T13:33:24Z</time>
      </trkpt>
      <trkpt lat="44.65643" lon="6.06447">
        <ele>1147.8</ele>
        <time>2022-09-18T13:33:27Z</time>
      </trkpt>
      <trkpt lat="44.65639" lon="6.06454">
        <ele>1147.8</ele>
        <time>2022-09-18T13:33:28Z</time>
      </trkpt>
      <trkpt lat="44.6563" lon="6.06469">
        <ele>1148</ele>
        <time>2022-09-18T13:33:30Z</time>
      </trkpt>
      <trkpt lat="44.65615" lon="6.06494">
        <ele>1148.2</ele>
        <time>2022-09-18T13:33:33Z</time>
      </trkpt>
      <trkpt lat="44.65609" lon="6.06501">
        <ele>1148.4</ele>
        <time>2022-09-18T13:33:34Z</time>
      </trkpt>
      <trkpt lat="44.65605" lon="6.06509">
        <ele>1148.6</ele>
        <time>2022-09-18T13:33:35Z</time>
      </trkpt>
      <trkpt lat="44.65601" lon="6.06515">
        <ele>1148.8</ele>
        <time>2022-09-18T13:33:36Z</time>
      </trkpt>
      <trkpt lat="44.65597" lon="6.06522">
        <ele>1149.2</ele>
        <time>2022-09-18T13:33:37Z</time>
      </trkpt>
      <trkpt lat="44.65593" lon="6.06528">
        <ele>1149.2</ele>
        <time>2022-09-18T13:33:38Z</time>
      </trkpt>
      <trkpt lat="44.65588" lon="6.06534">
        <ele>1149.4</ele>
        <time>2022-09-18T13:33:39Z</time>
      </trkpt>
      <trkpt lat="44.65584" lon="6.06541">
        <ele>1149.6</ele>
        <time>2022-09-18T13:33:40Z</time>
      </trkpt>
      <trkpt lat="44.6558" lon="6.06549">
        <ele>1149.8</ele>
        <time>2022-09-18T13:33:41Z</time>
      </trkpt>
      <trkpt lat="44.65575" lon="6.06557">
        <ele>1149.8</ele>
        <time>2022-09-18T13:33:42Z</time>
      </trkpt>
      <trkpt lat="44.65571" lon="6.06565">
        <ele>1149.6</ele>
        <time>2022-09-18T13:33:43Z</time>
      </trkpt>
      <trkpt lat="44.65566" lon="6.06572">
        <ele>1149.8</ele>
        <time>2022-09-18T13:33:44Z</time>
      </trkpt>
      <trkpt lat="44.65562" lon="6.0658">
        <ele>1149.8</ele>
        <time>2022-09-18T13:33:45Z</time>
      </trkpt>
      <trkpt lat="44.65558" lon="6.06588">
        <ele>1150</ele>
        <time>2022-09-18T13:33:46Z</time>
      </trkpt>
      <trkpt lat="44.65554" lon="6.06596">
        <ele>1149.6</ele>
        <time>2022-09-18T13:33:47Z</time>
      </trkpt>
      <trkpt lat="44.6555" lon="6.06604">
        <ele>1149.6</ele>
        <time>2022-09-18T13:33:48Z</time>
      </trkpt>
      <trkpt lat="44.65546" lon="6.06613">
        <ele>1149.4</ele>
        <time>2022-09-18T13:33:49Z</time>
      </trkpt>
      <trkpt lat="44.65543" lon="6.06621">
        <ele>1149.2</ele>
        <time>2022-09-18T13:33:50Z</time>
      </trkpt>
      <trkpt lat="44.65539" lon="6.06629">
        <ele>1149.2</ele>
        <time>2022-09-18T13:33:51Z</time>
      </trkpt>
      <trkpt lat="44.65536" lon="6.06637">
        <ele>1148.8</ele>
        <time>2022-09-18T13:33:52Z</time>
      </trkpt>
      <trkpt lat="44.65533" lon="6.06645">
        <ele>1148.8</ele>
        <time>2022-09-18T13:33:53Z</time>
      </trkpt>
      <trkpt lat="44.6553" lon="6.06652">
        <ele>1148.6</ele>
        <time>2022-09-18T13:33:54Z</time>
      </trkpt>
      <trkpt lat="44.65526" lon="6.06665">
        <ele>1148.4</ele>
        <time>2022-09-18T13:33:56Z</time>
      </trkpt>
      <trkpt lat="44.65522" lon="6.06678">
        <ele>1148.8</ele>
        <time>2022-09-18T13:33:58Z</time>
      </trkpt>
      <trkpt lat="44.65521" lon="6.06686">
        <ele>1148.6</ele>
        <time>2022-09-18T13:33:59Z</time>
      </trkpt>
      <trkpt lat="44.65518" lon="6.06694">
        <ele>1148.6</ele>
        <time>2022-09-18T13:34:00Z</time>
      </trkpt>
      <trkpt lat="44.65515" lon="6.06702">
        <ele>1148.6</ele>
        <time>2022-09-18T13:34:01Z</time>
      </trkpt>
      <trkpt lat="44.65513" lon="6.0671">
        <ele>1148.6</ele>
        <time>2022-09-18T13:34:02Z</time>
      </trkpt>
      <trkpt lat="44.6551" lon="6.06717">
        <ele>1148.4</ele>
        <time>2022-09-18T13:34:03Z</time>
      </trkpt>
      <trkpt lat="44.65508" lon="6.06726">
        <ele>1148.4</ele>
        <time>2022-09-18T13:34:04Z</time>
      </trkpt>
      <trkpt lat="44.65505" lon="6.06734">
        <ele>1148.6</ele>
        <time>2022-09-18T13:34:05Z</time>
      </trkpt>
      <trkpt lat="44.65502" lon="6.06743">
        <ele>1148.6</ele>
        <time>2022-09-18T13:34:06Z</time>
      </trkpt>
      <trkpt lat="44.65494" lon="6.06761">
        <ele>1148.4</ele>
        <time>2022-09-18T13:34:08Z</time>
      </trkpt>
      <trkpt lat="44.65491" lon="6.06771">
        <ele>1148.6</ele>
        <time>2022-09-18T13:34:09Z</time>
      </trkpt>
      <trkpt lat="44.65487" lon="6.06782">
        <ele>1148.4</ele>
        <time>2022-09-18T13:34:10Z</time>
      </trkpt>
      <trkpt lat="44.65483" lon="6.06792">
        <ele>1148.2</ele>
        <time>2022-09-18T13:34:11Z</time>
      </trkpt>
      <trkpt lat="44.6548" lon="6.06802">
        <ele>1147.6</ele>
        <time>2022-09-18T13:34:12Z</time>
      </trkpt>
      <trkpt lat="44.65477" lon="6.06813">
        <ele>1147.4</ele>
        <time>2022-09-18T13:34:13Z</time>
      </trkpt>
      <trkpt lat="44.65474" lon="6.06823">
        <ele>1146.8</ele>
        <time>2022-09-18T13:34:14Z</time>
      </trkpt>
      <trkpt lat="44.65471" lon="6.06832">
        <ele>1146.6</ele>
        <time>2022-09-18T13:34:15Z</time>
      </trkpt>
      <trkpt lat="44.65467" lon="6.06842">
        <ele>1146.2</ele>
        <time>2022-09-18T13:34:16Z</time>
      </trkpt>
      <trkpt lat="44.65463" lon="6.06851">
        <ele>1146.4</ele>
        <time>2022-09-18T13:34:17Z</time>
      </trkpt>
      <trkpt lat="44.65459" lon="6.06861">
        <ele>1146.4</ele>
        <time>2022-09-18T13:34:18Z</time>
      </trkpt>
      <trkpt lat="44.65455" lon="6.06871">
        <ele>1146.2</ele>
        <time>2022-09-18T13:34:19Z</time>
      </trkpt>
      <trkpt lat="44.65451" lon="6.06881">
        <ele>1145.8</ele>
        <time>2022-09-18T13:34:20Z</time>
      </trkpt>
      <trkpt lat="44.65448" lon="6.06892">
        <ele>1145.6</ele>
        <time>2022-09-18T13:34:21Z</time>
      </trkpt>
      <trkpt lat="44.65446" lon="6.06904">
        <ele>1145.6</ele>
        <time>2022-09-18T13:34:22Z</time>
      </trkpt>
      <trkpt lat="44.65443" lon="6.06928">
        <ele>1144.8</ele>
        <time>2022-09-18T13:34:24Z</time>
      </trkpt>
      <trkpt lat="44.65442" lon="6.0694">
        <ele>1144.6</ele>
        <time>2022-09-18T13:34:25Z</time>
      </trkpt>
      <trkpt lat="44.65442" lon="6.06953">
        <ele>1144.6</ele>
        <time>2022-09-18T13:34:26Z</time>
      </trkpt>
      <trkpt lat="44.65443" lon="6.06965">
        <ele>1144.4</ele>
        <time>2022-09-18T13:34:27Z</time>
      </trkpt>
      <trkpt lat="44.65444" lon="6.06976">
        <ele>1144</ele>
        <time>2022-09-18T13:34:28Z</time>
      </trkpt>
      <trkpt lat="44.65445" lon="6.06987">
        <ele>1143.8</ele>
        <time>2022-09-18T13:34:29Z</time>
      </trkpt>
      <trkpt lat="44.65447" lon="6.06998">
        <ele>1144</ele>
        <time>2022-09-18T13:34:30Z</time>
      </trkpt>
      <trkpt lat="44.65448" lon="6.07006">
        <ele>1144</ele>
        <time>2022-09-18T13:34:31Z</time>
      </trkpt>
      <trkpt lat="44.65449" lon="6.07015">
        <ele>1144</ele>
        <time>2022-09-18T13:34:32Z</time>
      </trkpt>
      <trkpt lat="44.6545" lon="6.07023">
        <ele>1143.8</ele>
        <time>2022-09-18T13:34:33Z</time>
      </trkpt>
      <trkpt lat="44.65451" lon="6.07031">
        <ele>1144</ele>
        <time>2022-09-18T13:34:34Z</time>
      </trkpt>
      <trkpt lat="44.65451" lon="6.07038">
        <ele>1144.2</ele>
        <time>2022-09-18T13:34:35Z</time>
      </trkpt>
      <trkpt lat="44.65451" lon="6.07046">
        <ele>1144.6</ele>
        <time>2022-09-18T13:34:36Z</time>
      </trkpt>
      <trkpt lat="44.65451" lon="6.07053">
        <ele>1145</ele>
        <time>2022-09-18T13:34:37Z</time>
      </trkpt>
      <trkpt lat="44.65451" lon="6.0706">
        <ele>1145.4</ele>
        <time>2022-09-18T13:34:38Z</time>
      </trkpt>
      <trkpt lat="44.6545" lon="6.07067">
        <ele>1145.8</ele>
        <time>2022-09-18T13:34:39Z</time>
      </trkpt>
      <trkpt lat="44.6545" lon="6.07075">
        <ele>1145.8</ele>
        <time>2022-09-18T13:34:40Z</time>
      </trkpt>
      <trkpt lat="44.65449" lon="6.07082">
        <ele>1145.8</ele>
        <time>2022-09-18T13:34:41Z</time>
      </trkpt>
      <trkpt lat="44.65448" lon="6.07089">
        <ele>1146.4</ele>
        <time>2022-09-18T13:34:42Z</time>
      </trkpt>
      <trkpt lat="44.65445" lon="6.07103">
        <ele>1146.8</ele>
        <time>2022-09-18T13:34:44Z</time>
      </trkpt>
      <trkpt lat="44.65442" lon="6.0711">
        <ele>1147</ele>
        <time>2022-09-18T13:34:45Z</time>
      </trkpt>
      <trkpt lat="44.6544" lon="6.07116">
        <ele>1147</ele>
        <time>2022-09-18T13:34:46Z</time>
      </trkpt>
      <trkpt lat="44.65437" lon="6.07122">
        <ele>1147.2</ele>
        <time>2022-09-18T13:34:47Z</time>
      </trkpt>
      <trkpt lat="44.65434" lon="6.07128">
        <ele>1147.4</ele>
        <time>2022-09-18T13:34:48Z</time>
      </trkpt>
      <trkpt lat="44.6543" lon="6.07134">
        <ele>1147.4</ele>
        <time>2022-09-18T13:34:49Z</time>
      </trkpt>
      <trkpt lat="44.65426" lon="6.0714">
        <ele>1147.2</ele>
        <time>2022-09-18T13:34:50Z</time>
      </trkpt>
      <trkpt lat="44.65421" lon="6.07146">
        <ele>1147.4</ele>
        <time>2022-09-18T13:34:51Z</time>
      </trkpt>
      <trkpt lat="44.65417" lon="6.07152">
        <ele>1147.4</ele>
        <time>2022-09-18T13:34:52Z</time>
      </trkpt>
      <trkpt lat="44.65412" lon="6.07158">
        <ele>1147.4</ele>
        <time>2022-09-18T13:34:53Z</time>
      </trkpt>
      <trkpt lat="44.65407" lon="6.07163">
        <ele>1147.6</ele>
        <time>2022-09-18T13:34:54Z</time>
      </trkpt>
      <trkpt lat="44.65402" lon="6.07169">
        <ele>1147.6</ele>
        <time>2022-09-18T13:34:55Z</time>
      </trkpt>
      <trkpt lat="44.65397" lon="6.07175">
        <ele>1147.6</ele>
        <time>2022-09-18T13:34:56Z</time>
      </trkpt>
      <trkpt lat="44.65392" lon="6.0718">
        <ele>1147.2</ele>
        <time>2022-09-18T13:34:57Z</time>
      </trkpt>
      <trkpt lat="44.65383" lon="6.07191">
        <ele>1147.6</ele>
        <time>2022-09-18T13:34:59Z</time>
      </trkpt>
      <trkpt lat="44.65379" lon="6.07197">
        <ele>1147.8</ele>
        <time>2022-09-18T13:35:00Z</time>
      </trkpt>
      <trkpt lat="44.65375" lon="6.07202">
        <ele>1148</ele>
        <time>2022-09-18T13:35:01Z</time>
      </trkpt>
      <trkpt lat="44.65371" lon="6.07208">
        <ele>1148.2</ele>
        <time>2022-09-18T13:35:02Z</time>
      </trkpt>
      <trkpt lat="44.65367" lon="6.07213">
        <ele>1148.2</ele>
        <time>2022-09-18T13:35:03Z</time>
      </trkpt>
      <trkpt lat="44.65364" lon="6.07217">
        <ele>1148.2</ele>
        <time>2022-09-18T13:35:04Z</time>
      </trkpt>
      <trkpt lat="44.6536" lon="6.07222">
        <ele>1148.4</ele>
        <time>2022-09-18T13:35:05Z</time>
      </trkpt>
      <trkpt lat="44.65357" lon="6.07227">
        <ele>1148</ele>
        <time>2022-09-18T13:35:06Z</time>
      </trkpt>
      <trkpt lat="44.65353" lon="6.07232">
        <ele>1148</ele>
        <time>2022-09-18T13:35:07Z</time>
      </trkpt>
      <trkpt lat="44.6535" lon="6.07237">
        <ele>1148.2</ele>
        <time>2022-09-18T13:35:08Z</time>
      </trkpt>
      <trkpt lat="44.65346" lon="6.07242">
        <ele>1148.2</ele>
        <time>2022-09-18T13:35:09Z</time>
      </trkpt>
      <trkpt lat="44.65343" lon="6.07248">
        <ele>1148.2</ele>
        <time>2022-09-18T13:35:10Z</time>
      </trkpt>
      <trkpt lat="44.65339" lon="6.07253">
        <ele>1148</ele>
        <time>2022-09-18T13:35:11Z</time>
      </trkpt>
      <trkpt lat="44.65336" lon="6.07258">
        <ele>1148</ele>
        <time>2022-09-18T13:35:12Z</time>
      </trkpt>
      <trkpt lat="44.65332" lon="6.07263">
        <ele>1148.2</ele>
        <time>2022-09-18T13:35:13Z</time>
      </trkpt>
      <trkpt lat="44.65325" lon="6.07274">
        <ele>1148.4</ele>
        <time>2022-09-18T13:35:15Z</time>
      </trkpt>
      <trkpt lat="44.65322" lon="6.0728">
        <ele>1148.4</ele>
        <time>2022-09-18T13:35:16Z</time>
      </trkpt>
      <trkpt lat="44.65319" lon="6.07285">
        <ele>1148.4</ele>
        <time>2022-09-18T13:35:17Z</time>
      </trkpt>
      <trkpt lat="44.65315" lon="6.0729">
        <ele>1148.6</ele>
        <time>2022-09-18T13:35:18Z</time>
      </trkpt>
      <trkpt lat="44.65312" lon="6.07294">
        <ele>1148.6</ele>
        <time>2022-09-18T13:35:19Z</time>
      </trkpt>
      <trkpt lat="44.65309" lon="6.07299">
        <ele>1149</ele>
        <time>2022-09-18T13:35:20Z</time>
      </trkpt>
      <trkpt lat="44.65305" lon="6.07304">
        <ele>1149.2</ele>
        <time>2022-09-18T13:35:21Z</time>
      </trkpt>
      <trkpt lat="44.65302" lon="6.07309">
        <ele>1149.4</ele>
        <time>2022-09-18T13:35:22Z</time>
      </trkpt>
      <trkpt lat="44.65299" lon="6.07313">
        <ele>1149.6</ele>
        <time>2022-09-18T13:35:23Z</time>
      </trkpt>
      <trkpt lat="44.65296" lon="6.07317">
        <ele>1150</ele>
        <time>2022-09-18T13:35:24Z</time>
      </trkpt>
      <trkpt lat="44.65293" lon="6.07322">
        <ele>1150.4</ele>
        <time>2022-09-18T13:35:25Z</time>
      </trkpt>
      <trkpt lat="44.65291" lon="6.07326">
        <ele>1150.6</ele>
        <time>2022-09-18T13:35:26Z</time>
      </trkpt>
      <trkpt lat="44.65288" lon="6.0733">
        <ele>1150.8</ele>
        <time>2022-09-18T13:35:27Z</time>
      </trkpt>
      <trkpt lat="44.65285" lon="6.07333">
        <ele>1151.2</ele>
        <time>2022-09-18T13:35:28Z</time>
      </trkpt>
      <trkpt lat="44.65283" lon="6.07336">
        <ele>1151.2</ele>
        <time>2022-09-18T13:35:29Z</time>
      </trkpt>
      <trkpt lat="44.6528" lon="6.07339">
        <ele>1151.8</ele>
        <time>2022-09-18T13:35:30Z</time>
      </trkpt>
      <trkpt lat="44.65276" lon="6.07345">
        <ele>1152</ele>
        <time>2022-09-18T13:35:32Z</time>
      </trkpt>
      <trkpt lat="44.65274" lon="6.07348">
        <ele>1152.2</ele>
        <time>2022-09-18T13:35:33Z</time>
      </trkpt>
      <trkpt lat="44.65273" lon="6.07351">
        <ele>1152.6</ele>
        <time>2022-09-18T13:35:34Z</time>
      </trkpt>
      <trkpt lat="44.65271" lon="6.07354">
        <ele>1153</ele>
        <time>2022-09-18T13:35:35Z</time>
      </trkpt>
      <trkpt lat="44.65269" lon="6.07357">
        <ele>1153</ele>
        <time>2022-09-18T13:35:36Z</time>
      </trkpt>
      <trkpt lat="44.65267" lon="6.0736">
        <ele>1153.4</ele>
        <time>2022-09-18T13:35:37Z</time>
      </trkpt>
      <trkpt lat="44.65265" lon="6.07363">
        <ele>1153.6</ele>
        <time>2022-09-18T13:35:38Z</time>
      </trkpt>
      <trkpt lat="44.65263" lon="6.07366">
        <ele>1154</ele>
        <time>2022-09-18T13:35:39Z</time>
      </trkpt>
      <trkpt lat="44.65261" lon="6.07368">
        <ele>1154.6</ele>
        <time>2022-09-18T13:35:40Z</time>
      </trkpt>
      <trkpt lat="44.65259" lon="6.07371">
        <ele>1154.6</ele>
        <time>2022-09-18T13:35:41Z</time>
      </trkpt>
      <trkpt lat="44.65257" lon="6.07374">
        <ele>1154.8</ele>
        <time>2022-09-18T13:35:42Z</time>
      </trkpt>
      <trkpt lat="44.65255" lon="6.07377">
        <ele>1155.2</ele>
        <time>2022-09-18T13:35:43Z</time>
      </trkpt>
      <trkpt lat="44.65253" lon="6.0738">
        <ele>1155.4</ele>
        <time>2022-09-18T13:35:44Z</time>
      </trkpt>
      <trkpt lat="44.65251" lon="6.07382">
        <ele>1156</ele>
        <time>2022-09-18T13:35:45Z</time>
      </trkpt>
      <trkpt lat="44.6525" lon="6.07386">
        <ele>1156.6</ele>
        <time>2022-09-18T13:35:46Z</time>
      </trkpt>
      <trkpt lat="44.65248" lon="6.07389">
        <ele>1156.8</ele>
        <time>2022-09-18T13:35:47Z</time>
      </trkpt>
      <trkpt lat="44.65247" lon="6.07392">
        <ele>1156.6</ele>
        <time>2022-09-18T13:35:48Z</time>
      </trkpt>
      <trkpt lat="44.65244" lon="6.07398">
        <ele>1156.8</ele>
        <time>2022-09-18T13:35:50Z</time>
      </trkpt>
      <trkpt lat="44.65242" lon="6.07401">
        <ele>1156.8</ele>
        <time>2022-09-18T13:35:51Z</time>
      </trkpt>
      <trkpt lat="44.65241" lon="6.07405">
        <ele>1156.8</ele>
        <time>2022-09-18T13:35:52Z</time>
      </trkpt>
      <trkpt lat="44.65239" lon="6.07408">
        <ele>1156.8</ele>
        <time>2022-09-18T13:35:53Z</time>
      </trkpt>
      <trkpt lat="44.65237" lon="6.07411">
        <ele>1156.8</ele>
        <time>2022-09-18T13:35:54Z</time>
      </trkpt>
      <trkpt lat="44.65236" lon="6.07415">
        <ele>1156.8</ele>
        <time>2022-09-18T13:35:55Z</time>
      </trkpt>
      <trkpt lat="44.65234" lon="6.07419">
        <ele>1157</ele>
        <time>2022-09-18T13:35:56Z</time>
      </trkpt>
      <trkpt lat="44.65232" lon="6.07423">
        <ele>1157</ele>
        <time>2022-09-18T13:35:57Z</time>
      </trkpt>
      <trkpt lat="44.6523" lon="6.07428">
        <ele>1157.2</ele>
        <time>2022-09-18T13:35:58Z</time>
      </trkpt>
      <trkpt lat="44.65228" lon="6.07432">
        <ele>1157.4</ele>
        <time>2022-09-18T13:35:59Z</time>
      </trkpt>
      <trkpt lat="44.65227" lon="6.07436">
        <ele>1157.2</ele>
        <time>2022-09-18T13:36:00Z</time>
      </trkpt>
      <trkpt lat="44.65225" lon="6.0744">
        <ele>1157.2</ele>
        <time>2022-09-18T13:36:01Z</time>
      </trkpt>
      <trkpt lat="44.65223" lon="6.07444">
        <ele>1157.2</ele>
        <time>2022-09-18T13:36:02Z</time>
      </trkpt>
      <trkpt lat="44.65222" lon="6.07448">
        <ele>1157.2</ele>
        <time>2022-09-18T13:36:03Z</time>
      </trkpt>
      <trkpt lat="44.6522" lon="6.07452">
        <ele>1157</ele>
        <time>2022-09-18T13:36:04Z</time>
      </trkpt>
      <trkpt lat="44.65216" lon="6.07459">
        <ele>1157</ele>
        <time>2022-09-18T13:36:06Z</time>
      </trkpt>
      <trkpt lat="44.65212" lon="6.07468">
        <ele>1157</ele>
        <time>2022-09-18T13:36:08Z</time>
      </trkpt>
      <trkpt lat="44.6521" lon="6.07472">
        <ele>1156.8</ele>
        <time>2022-09-18T13:36:09Z</time>
      </trkpt>
      <trkpt lat="44.65208" lon="6.07476">
        <ele>1157</ele>
        <time>2022-09-18T13:36:10Z</time>
      </trkpt>
      <trkpt lat="44.65206" lon="6.0748">
        <ele>1157</ele>
        <time>2022-09-18T13:36:11Z</time>
      </trkpt>
      <trkpt lat="44.65204" lon="6.07485">
        <ele>1157</ele>
        <time>2022-09-18T13:36:12Z</time>
      </trkpt>
      <trkpt lat="44.65202" lon="6.07489">
        <ele>1156.8</ele>
        <time>2022-09-18T13:36:13Z</time>
      </trkpt>
      <trkpt lat="44.652" lon="6.07493">
        <ele>1156.6</ele>
        <time>2022-09-18T13:36:14Z</time>
      </trkpt>
      <trkpt lat="44.65198" lon="6.07498">
        <ele>1156.8</ele>
        <time>2022-09-18T13:36:15Z</time>
      </trkpt>
      <trkpt lat="44.65196" lon="6.07502">
        <ele>1156.8</ele>
        <time>2022-09-18T13:36:16Z</time>
      </trkpt>
      <trkpt lat="44.65194" lon="6.07506">
        <ele>1157</ele>
        <time>2022-09-18T13:36:17Z</time>
      </trkpt>
      <trkpt lat="44.65191" lon="6.07511">
        <ele>1157</ele>
        <time>2022-09-18T13:36:18Z</time>
      </trkpt>
      <trkpt lat="44.65189" lon="6.07515">
        <ele>1157</ele>
        <time>2022-09-18T13:36:19Z</time>
      </trkpt>
      <trkpt lat="44.65187" lon="6.07519">
        <ele>1157</ele>
        <time>2022-09-18T13:36:20Z</time>
      </trkpt>
      <trkpt lat="44.65184" lon="6.07523">
        <ele>1157</ele>
        <time>2022-09-18T13:36:21Z</time>
      </trkpt>
      <trkpt lat="44.65181" lon="6.07527">
        <ele>1157.2</ele>
        <time>2022-09-18T13:36:22Z</time>
      </trkpt>
      <trkpt lat="44.65178" lon="6.0753">
        <ele>1157.6</ele>
        <time>2022-09-18T13:36:23Z</time>
      </trkpt>
      <trkpt lat="44.65175" lon="6.07533">
        <ele>1157.8</ele>
        <time>2022-09-18T13:36:24Z</time>
      </trkpt>
      <trkpt lat="44.65173" lon="6.07536">
        <ele>1157.8</ele>
        <time>2022-09-18T13:36:25Z</time>
      </trkpt>
      <trkpt lat="44.65171" lon="6.07539">
        <ele>1158</ele>
        <time>2022-09-18T13:36:26Z</time>
      </trkpt>
      <trkpt lat="44.65168" lon="6.07542">
        <ele>1158</ele>
        <time>2022-09-18T13:36:27Z</time>
      </trkpt>
      <trkpt lat="44.65166" lon="6.07544">
        <ele>1158.2</ele>
        <time>2022-09-18T13:36:28Z</time>
      </trkpt>
      <trkpt lat="44.65163" lon="6.07546">
        <ele>1158.6</ele>
        <time>2022-09-18T13:36:29Z</time>
      </trkpt>
      <trkpt lat="44.65161" lon="6.07548">
        <ele>1159</ele>
        <time>2022-09-18T13:36:30Z</time>
      </trkpt>
      <trkpt lat="44.65159" lon="6.0755">
        <ele>1159</ele>
        <time>2022-09-18T13:36:31Z</time>
      </trkpt>
      <trkpt lat="44.65157" lon="6.07551">
        <ele>1159.4</ele>
        <time>2022-09-18T13:36:32Z</time>
      </trkpt>
      <trkpt lat="44.65154" lon="6.07552">
        <ele>1159.6</ele>
        <time>2022-09-18T13:36:33Z</time>
      </trkpt>
      <trkpt lat="44.65152" lon="6.07552">
        <ele>1160</ele>
        <time>2022-09-18T13:36:34Z</time>
      </trkpt>
      <trkpt lat="44.6515" lon="6.07553">
        <ele>1160.2</ele>
        <time>2022-09-18T13:36:35Z</time>
      </trkpt>
      <trkpt lat="44.65147" lon="6.07554">
        <ele>1160.2</ele>
        <time>2022-09-18T13:36:36Z</time>
      </trkpt>
      <trkpt lat="44.65145" lon="6.07554">
        <ele>1160.2</ele>
        <time>2022-09-18T13:36:37Z</time>
      </trkpt>
      <trkpt lat="44.65143" lon="6.07555">
        <ele>1160.2</ele>
        <time>2022-09-18T13:36:38Z</time>
      </trkpt>
      <trkpt lat="44.65138" lon="6.07558">
        <ele>1160.2</ele>
        <time>2022-09-18T13:36:40Z</time>
      </trkpt>
      <trkpt lat="44.65136" lon="6.0756">
        <ele>1160.2</ele>
        <time>2022-09-18T13:36:41Z</time>
      </trkpt>
      <trkpt lat="44.65134" lon="6.07563">
        <ele>1160.2</ele>
        <time>2022-09-18T13:36:42Z</time>
      </trkpt>
      <trkpt lat="44.65132" lon="6.07565">
        <ele>1160.2</ele>
        <time>2022-09-18T13:36:43Z</time>
      </trkpt>
      <trkpt lat="44.6513" lon="6.07568">
        <ele>1160.2</ele>
        <time>2022-09-18T13:36:44Z</time>
      </trkpt>
      <trkpt lat="44.65129" lon="6.0757">
        <ele>1160</ele>
        <time>2022-09-18T13:36:45Z</time>
      </trkpt>
      <trkpt lat="44.65127" lon="6.07573">
        <ele>1160</ele>
        <time>2022-09-18T13:36:46Z</time>
      </trkpt>
      <trkpt lat="44.65126" lon="6.07575">
        <ele>1159.8</ele>
        <time>2022-09-18T13:36:47Z</time>
      </trkpt>
      <trkpt lat="44.65125" lon="6.07578">
        <ele>1159.8</ele>
        <time>2022-09-18T13:36:48Z</time>
      </trkpt>
      <trkpt lat="44.65125" lon="6.07581">
        <ele>1160</ele>
        <time>2022-09-18T13:36:49Z</time>
      </trkpt>
      <trkpt lat="44.65125" lon="6.07585">
        <ele>1160</ele>
        <time>2022-09-18T13:36:50Z</time>
      </trkpt>
      <trkpt lat="44.65125" lon="6.0759">
        <ele>1159.8</ele>
        <time>2022-09-18T13:36:51Z</time>
      </trkpt>
      <trkpt lat="44.65126" lon="6.07595">
        <ele>1159.6</ele>
        <time>2022-09-18T13:36:52Z</time>
      </trkpt>
      <trkpt lat="44.65127" lon="6.07601">
        <ele>1159.4</ele>
        <time>2022-09-18T13:36:53Z</time>
      </trkpt>
      <trkpt lat="44.65128" lon="6.07606">
        <ele>1159.2</ele>
        <time>2022-09-18T13:36:54Z</time>
      </trkpt>
      <trkpt lat="44.65132" lon="6.07618">
        <ele>1158.6</ele>
        <time>2022-09-18T13:36:56Z</time>
      </trkpt>
      <trkpt lat="44.65135" lon="6.07624">
        <ele>1158.2</ele>
        <time>2022-09-18T13:36:57Z</time>
      </trkpt>
      <trkpt lat="44.65136" lon="6.07631">
        <ele>1158.2</ele>
        <time>2022-09-18T13:36:58Z</time>
      </trkpt>
      <trkpt lat="44.65136" lon="6.07637">
        <ele>1157.6</ele>
        <time>2022-09-18T13:36:59Z</time>
      </trkpt>
      <trkpt lat="44.65135" lon="6.07644">
        <ele>1157.2</ele>
        <time>2022-09-18T13:37:00Z</time>
      </trkpt>
      <trkpt lat="44.65132" lon="6.0765">
        <ele>1157</ele>
        <time>2022-09-18T13:37:01Z</time>
      </trkpt>
      <trkpt lat="44.65128" lon="6.07656">
        <ele>1156.6</ele>
        <time>2022-09-18T13:37:02Z</time>
      </trkpt>
      <trkpt lat="44.65123" lon="6.07663">
        <ele>1156.2</ele>
        <time>2022-09-18T13:37:03Z</time>
      </trkpt>
      <trkpt lat="44.65119" lon="6.0767">
        <ele>1155.6</ele>
        <time>2022-09-18T13:37:04Z</time>
      </trkpt>
      <trkpt lat="44.65116" lon="6.07676">
        <ele>1155.2</ele>
        <time>2022-09-18T13:37:05Z</time>
      </trkpt>
      <trkpt lat="44.65112" lon="6.07683">
        <ele>1155</ele>
        <time>2022-09-18T13:37:06Z</time>
      </trkpt>
      <trkpt lat="44.65109" lon="6.0769">
        <ele>1154.4</ele>
        <time>2022-09-18T13:37:07Z</time>
      </trkpt>
      <trkpt lat="44.65106" lon="6.07698">
        <ele>1154.2</ele>
        <time>2022-09-18T13:37:08Z</time>
      </trkpt>
      <trkpt lat="44.65103" lon="6.07704">
        <ele>1154</ele>
        <time>2022-09-18T13:37:09Z</time>
      </trkpt>
      <trkpt lat="44.651" lon="6.0771">
        <ele>1154.2</ele>
        <time>2022-09-18T13:37:10Z</time>
      </trkpt>
      <trkpt lat="44.65095" lon="6.07714">
        <ele>1154</ele>
        <time>2022-09-18T13:37:11Z</time>
      </trkpt>
      <trkpt lat="44.65091" lon="6.07718">
        <ele>1153.8</ele>
        <time>2022-09-18T13:37:12Z</time>
      </trkpt>
      <trkpt lat="44.65086" lon="6.07721">
        <ele>1153.6</ele>
        <time>2022-09-18T13:37:13Z</time>
      </trkpt>
      <trkpt lat="44.65081" lon="6.07724">
        <ele>1153.4</ele>
        <time>2022-09-18T13:37:14Z</time>
      </trkpt>
      <trkpt lat="44.65076" lon="6.07728">
        <ele>1153.4</ele>
        <time>2022-09-18T13:37:15Z</time>
      </trkpt>
      <trkpt lat="44.65071" lon="6.07731">
        <ele>1153</ele>
        <time>2022-09-18T13:37:16Z</time>
      </trkpt>
      <trkpt lat="44.65066" lon="6.07734">
        <ele>1152.8</ele>
        <time>2022-09-18T13:37:17Z</time>
      </trkpt>
      <trkpt lat="44.65063" lon="6.07738">
        <ele>1152.8</ele>
        <time>2022-09-18T13:37:18Z</time>
      </trkpt>
      <trkpt lat="44.65059" lon="6.07743">
        <ele>1152.6</ele>
        <time>2022-09-18T13:37:19Z</time>
      </trkpt>
      <trkpt lat="44.65057" lon="6.07749">
        <ele>1152.6</ele>
        <time>2022-09-18T13:37:20Z</time>
      </trkpt>
      <trkpt lat="44.65055" lon="6.07756">
        <ele>1152.6</ele>
        <time>2022-09-18T13:37:21Z</time>
      </trkpt>
      <trkpt lat="44.65054" lon="6.07762">
        <ele>1152.6</ele>
        <time>2022-09-18T13:37:22Z</time>
      </trkpt>
      <trkpt lat="44.65055" lon="6.07769">
        <ele>1151.8</ele>
        <time>2022-09-18T13:37:24Z</time>
      </trkpt>
      <trkpt lat="44.65056" lon="6.07772">
        <ele>1152</ele>
        <time>2022-09-18T13:37:25Z</time>
      </trkpt>
      <trkpt lat="44.65057" lon="6.07774">
        <ele>1152.2</ele>
        <time>2022-09-18T13:37:26Z</time>
      </trkpt>
      <trkpt lat="44.65059" lon="6.07778">
        <ele>1152.2</ele>
        <time>2022-09-18T13:37:27Z</time>
      </trkpt>
      <trkpt lat="44.65062" lon="6.07783">
        <ele>1152.4</ele>
        <time>2022-09-18T13:37:28Z</time>
      </trkpt>
      <trkpt lat="44.65067" lon="6.0779">
        <ele>1152.2</ele>
        <time>2022-09-18T13:37:29Z</time>
      </trkpt>
      <trkpt lat="44.65075" lon="6.07803">
        <ele>1152.2</ele>
        <time>2022-09-18T13:37:31Z</time>
      </trkpt>
      <trkpt lat="44.65078" lon="6.07811">
        <ele>1152.4</ele>
        <time>2022-09-18T13:37:32Z</time>
      </trkpt>
      <trkpt lat="44.65081" lon="6.07819">
        <ele>1152.4</ele>
        <time>2022-09-18T13:37:33Z</time>
      </trkpt>
      <trkpt lat="44.65082" lon="6.07827">
        <ele>1152.2</ele>
        <time>2022-09-18T13:37:34Z</time>
      </trkpt>
      <trkpt lat="44.65082" lon="6.07836">
        <ele>1152</ele>
        <time>2022-09-18T13:37:35Z</time>
      </trkpt>
      <trkpt lat="44.65083" lon="6.07845">
        <ele>1151.8</ele>
        <time>2022-09-18T13:37:36Z</time>
      </trkpt>
      <trkpt lat="44.65082" lon="6.07854">
        <ele>1151.8</ele>
        <time>2022-09-18T13:37:37Z</time>
      </trkpt>
      <trkpt lat="44.65081" lon="6.07863">
        <ele>1151.4</ele>
        <time>2022-09-18T13:37:38Z</time>
      </trkpt>
      <trkpt lat="44.6508" lon="6.07872">
        <ele>1151.4</ele>
        <time>2022-09-18T13:37:39Z</time>
      </trkpt>
      <trkpt lat="44.65077" lon="6.07882">
        <ele>1151.4</ele>
        <time>2022-09-18T13:37:40Z</time>
      </trkpt>
      <trkpt lat="44.65075" lon="6.07892">
        <ele>1151</ele>
        <time>2022-09-18T13:37:41Z</time>
      </trkpt>
      <trkpt lat="44.65072" lon="6.07903">
        <ele>1150.6</ele>
        <time>2022-09-18T13:37:42Z</time>
      </trkpt>
      <trkpt lat="44.6507" lon="6.07914">
        <ele>1149.8</ele>
        <time>2022-09-18T13:37:43Z</time>
      </trkpt>
      <trkpt lat="44.65067" lon="6.07926">
        <ele>1149.2</ele>
        <time>2022-09-18T13:37:44Z</time>
      </trkpt>
      <trkpt lat="44.65065" lon="6.07939">
        <ele>1149</ele>
        <time>2022-09-18T13:37:45Z</time>
      </trkpt>
      <trkpt lat="44.65059" lon="6.07962">
        <ele>1148.4</ele>
        <time>2022-09-18T13:37:47Z</time>
      </trkpt>
      <trkpt lat="44.65054" lon="6.07973">
        <ele>1147.8</ele>
        <time>2022-09-18T13:37:48Z</time>
      </trkpt>
      <trkpt lat="44.65049" lon="6.07983">
        <ele>1147.4</ele>
        <time>2022-09-18T13:37:49Z</time>
      </trkpt>
      <trkpt lat="44.65043" lon="6.07993">
        <ele>1147</ele>
        <time>2022-09-18T13:37:50Z</time>
      </trkpt>
      <trkpt lat="44.65037" lon="6.08002">
        <ele>1146.8</ele>
        <time>2022-09-18T13:37:51Z</time>
      </trkpt>
      <trkpt lat="44.65032" lon="6.08011">
        <ele>1146.6</ele>
        <time>2022-09-18T13:37:52Z</time>
      </trkpt>
      <trkpt lat="44.65027" lon="6.08021">
        <ele>1146.4</ele>
        <time>2022-09-18T13:37:53Z</time>
      </trkpt>
      <trkpt lat="44.65024" lon="6.08032">
        <ele>1146.4</ele>
        <time>2022-09-18T13:37:54Z</time>
      </trkpt>
      <trkpt lat="44.65022" lon="6.08044">
        <ele>1146.2</ele>
        <time>2022-09-18T13:37:55Z</time>
      </trkpt>
      <trkpt lat="44.65022" lon="6.08056">
        <ele>1146</ele>
        <time>2022-09-18T13:37:56Z</time>
      </trkpt>
      <trkpt lat="44.65025" lon="6.08066">
        <ele>1145.8</ele>
        <time>2022-09-18T13:37:57Z</time>
      </trkpt>
      <trkpt lat="44.65029" lon="6.08077">
        <ele>1145.8</ele>
        <time>2022-09-18T13:37:58Z</time>
      </trkpt>
      <trkpt lat="44.65031" lon="6.08088">
        <ele>1146</ele>
        <time>2022-09-18T13:37:59Z</time>
      </trkpt>
      <trkpt lat="44.65033" lon="6.081">
        <ele>1146</ele>
        <time>2022-09-18T13:38:00Z</time>
      </trkpt>
      <trkpt lat="44.65034" lon="6.08112">
        <ele>1146.4</ele>
        <time>2022-09-18T13:38:01Z</time>
      </trkpt>
      <trkpt lat="44.65035" lon="6.08125">
        <ele>1146.2</ele>
        <time>2022-09-18T13:38:02Z</time>
      </trkpt>
      <trkpt lat="44.65035" lon="6.08138">
        <ele>1146.2</ele>
        <time>2022-09-18T13:38:03Z</time>
      </trkpt>
      <trkpt lat="44.65036" lon="6.08151">
        <ele>1146</ele>
        <time>2022-09-18T13:38:04Z</time>
      </trkpt>
      <trkpt lat="44.65036" lon="6.08164">
        <ele>1145.6</ele>
        <time>2022-09-18T13:38:05Z</time>
      </trkpt>
      <trkpt lat="44.65035" lon="6.08178">
        <ele>1145.2</ele>
        <time>2022-09-18T13:38:06Z</time>
      </trkpt>
      <trkpt lat="44.65033" lon="6.08191">
        <ele>1144.8</ele>
        <time>2022-09-18T13:38:07Z</time>
      </trkpt>
      <trkpt lat="44.6503" lon="6.08204">
        <ele>1144.2</ele>
        <time>2022-09-18T13:38:08Z</time>
      </trkpt>
      <trkpt lat="44.65025" lon="6.08217">
        <ele>1144.2</ele>
        <time>2022-09-18T13:38:09Z</time>
      </trkpt>
      <trkpt lat="44.6502" lon="6.08229">
        <ele>1144</ele>
        <time>2022-09-18T13:38:10Z</time>
      </trkpt>
      <trkpt lat="44.65014" lon="6.08241">
        <ele>1143.4</ele>
        <time>2022-09-18T13:38:11Z</time>
      </trkpt>
      <trkpt lat="44.65008" lon="6.08253">
        <ele>1143</ele>
        <time>2022-09-18T13:38:12Z</time>
      </trkpt>
      <trkpt lat="44.65004" lon="6.08264">
        <ele>1143</ele>
        <time>2022-09-18T13:38:13Z</time>
      </trkpt>
      <trkpt lat="44.65001" lon="6.08276">
        <ele>1142.8</ele>
        <time>2022-09-18T13:38:14Z</time>
      </trkpt>
      <trkpt lat="44.64997" lon="6.08288">
        <ele>1142.4</ele>
        <time>2022-09-18T13:38:15Z</time>
      </trkpt>
      <trkpt lat="44.64993" lon="6.08299">
        <ele>1142.4</ele>
        <time>2022-09-18T13:38:16Z</time>
      </trkpt>
      <trkpt lat="44.64989" lon="6.08309">
        <ele>1142.4</ele>
        <time>2022-09-18T13:38:17Z</time>
      </trkpt>
      <trkpt lat="44.64983" lon="6.08319">
        <ele>1142.6</ele>
        <time>2022-09-18T13:38:18Z</time>
      </trkpt>
      <trkpt lat="44.64978" lon="6.08327">
        <ele>1142.6</ele>
        <time>2022-09-18T13:38:19Z</time>
      </trkpt>
      <trkpt lat="44.64971" lon="6.08335">
        <ele>1142.6</ele>
        <time>2022-09-18T13:38:20Z</time>
      </trkpt>
      <trkpt lat="44.64959" lon="6.08348">
        <ele>1142.8</ele>
        <time>2022-09-18T13:38:22Z</time>
      </trkpt>
      <trkpt lat="44.64953" lon="6.08354">
        <ele>1142.8</ele>
        <time>2022-09-18T13:38:23Z</time>
      </trkpt>
      <trkpt lat="44.64946" lon="6.08358">
        <ele>1143.2</ele>
        <time>2022-09-18T13:38:24Z</time>
      </trkpt>
      <trkpt lat="44.64939" lon="6.08362">
        <ele>1143.4</ele>
        <time>2022-09-18T13:38:25Z</time>
      </trkpt>
      <trkpt lat="44.64932" lon="6.08365">
        <ele>1143.6</ele>
        <time>2022-09-18T13:38:26Z</time>
      </trkpt>
      <trkpt lat="44.64926" lon="6.08368">
        <ele>1144</ele>
        <time>2022-09-18T13:38:27Z</time>
      </trkpt>
      <trkpt lat="44.6492" lon="6.08371">
        <ele>1144.2</ele>
        <time>2022-09-18T13:38:28Z</time>
      </trkpt>
      <trkpt lat="44.64913" lon="6.08375">
        <ele>1144.4</ele>
        <time>2022-09-18T13:38:29Z</time>
      </trkpt>
      <trkpt lat="44.64908" lon="6.08379">
        <ele>1144.6</ele>
        <time>2022-09-18T13:38:30Z</time>
      </trkpt>
      <trkpt lat="44.64902" lon="6.08382">
        <ele>1144.8</ele>
        <time>2022-09-18T13:38:31Z</time>
      </trkpt>
      <trkpt lat="44.64897" lon="6.08386">
        <ele>1144.8</ele>
        <time>2022-09-18T13:38:32Z</time>
      </trkpt>
      <trkpt lat="44.64892" lon="6.08391">
        <ele>1144.6</ele>
        <time>2022-09-18T13:38:33Z</time>
      </trkpt>
      <trkpt lat="44.64887" lon="6.08396">
        <ele>1144.8</ele>
        <time>2022-09-18T13:38:34Z</time>
      </trkpt>
      <trkpt lat="44.64882" lon="6.08401">
        <ele>1145</ele>
        <time>2022-09-18T13:38:35Z</time>
      </trkpt>
      <trkpt lat="44.64873" lon="6.08412">
        <ele>1145.2</ele>
        <time>2022-09-18T13:38:37Z</time>
      </trkpt>
      <trkpt lat="44.64868" lon="6.08417">
        <ele>1145.8</ele>
        <time>2022-09-18T13:38:38Z</time>
      </trkpt>
      <trkpt lat="44.64864" lon="6.08422">
        <ele>1146.2</ele>
        <time>2022-09-18T13:38:39Z</time>
      </trkpt>
      <trkpt lat="44.6486" lon="6.08428">
        <ele>1146.6</ele>
        <time>2022-09-18T13:38:40Z</time>
      </trkpt>
      <trkpt lat="44.64856" lon="6.08433">
        <ele>1146.6</ele>
        <time>2022-09-18T13:38:41Z</time>
      </trkpt>
      <trkpt lat="44.64853" lon="6.08439">
        <ele>1147</ele>
        <time>2022-09-18T13:38:42Z</time>
      </trkpt>
      <trkpt lat="44.6485" lon="6.08444">
        <ele>1147.6</ele>
        <time>2022-09-18T13:38:43Z</time>
      </trkpt>
      <trkpt lat="44.64847" lon="6.0845">
        <ele>1147.8</ele>
        <time>2022-09-18T13:38:44Z</time>
      </trkpt>
      <trkpt lat="44.64845" lon="6.08455">
        <ele>1148</ele>
        <time>2022-09-18T13:38:45Z</time>
      </trkpt>
      <trkpt lat="44.64842" lon="6.08459">
        <ele>1148.2</ele>
        <time>2022-09-18T13:38:46Z</time>
      </trkpt>
      <trkpt lat="44.6484" lon="6.08463">
        <ele>1148.6</ele>
        <time>2022-09-18T13:38:47Z</time>
      </trkpt>
      <trkpt lat="44.64837" lon="6.08467">
        <ele>1149</ele>
        <time>2022-09-18T13:38:48Z</time>
      </trkpt>
      <trkpt lat="44.64835" lon="6.08471">
        <ele>1149.2</ele>
        <time>2022-09-18T13:38:49Z</time>
      </trkpt>
      <trkpt lat="44.64832" lon="6.08475">
        <ele>1149.4</ele>
        <time>2022-09-18T13:38:50Z</time>
      </trkpt>
      <trkpt lat="44.64829" lon="6.08478">
        <ele>1149.6</ele>
        <time>2022-09-18T13:38:51Z</time>
      </trkpt>
      <trkpt lat="44.64827" lon="6.08482">
        <ele>1150</ele>
        <time>2022-09-18T13:38:52Z</time>
      </trkpt>
      <trkpt lat="44.64824" lon="6.08486">
        <ele>1150.2</ele>
        <time>2022-09-18T13:38:53Z</time>
      </trkpt>
      <trkpt lat="44.64821" lon="6.08489">
        <ele>1150.4</ele>
        <time>2022-09-18T13:38:54Z</time>
      </trkpt>
      <trkpt lat="44.64818" lon="6.08492">
        <ele>1150.6</ele>
        <time>2022-09-18T13:38:55Z</time>
      </trkpt>
      <trkpt lat="44.64815" lon="6.08496">
        <ele>1150.8</ele>
        <time>2022-09-18T13:38:56Z</time>
      </trkpt>
      <trkpt lat="44.64812" lon="6.08499">
        <ele>1151</ele>
        <time>2022-09-18T13:38:57Z</time>
      </trkpt>
      <trkpt lat="44.64809" lon="6.08503">
        <ele>1151</ele>
        <time>2022-09-18T13:38:58Z</time>
      </trkpt>
      <trkpt lat="44.64806" lon="6.08507">
        <ele>1151.2</ele>
        <time>2022-09-18T13:38:59Z</time>
      </trkpt>
      <trkpt lat="44.64802" lon="6.0851">
        <ele>1151.2</ele>
        <time>2022-09-18T13:39:00Z</time>
      </trkpt>
      <trkpt lat="44.64799" lon="6.08514">
        <ele>1151.6</ele>
        <time>2022-09-18T13:39:01Z</time>
      </trkpt>
      <trkpt lat="44.64796" lon="6.08518">
        <ele>1151.6</ele>
        <time>2022-09-18T13:39:02Z</time>
      </trkpt>
      <trkpt lat="44.64793" lon="6.08523">
        <ele>1151.8</ele>
        <time>2022-09-18T13:39:03Z</time>
      </trkpt>
      <trkpt lat="44.6479" lon="6.08527">
        <ele>1151.8</ele>
        <time>2022-09-18T13:39:04Z</time>
      </trkpt>
      <trkpt lat="44.64786" lon="6.08532">
        <ele>1151.8</ele>
        <time>2022-09-18T13:39:05Z</time>
      </trkpt>
      <trkpt lat="44.64783" lon="6.08537">
        <ele>1151.8</ele>
        <time>2022-09-18T13:39:06Z</time>
      </trkpt>
      <trkpt lat="44.64779" lon="6.08541">
        <ele>1151.8</ele>
        <time>2022-09-18T13:39:07Z</time>
      </trkpt>
      <trkpt lat="44.64775" lon="6.08545">
        <ele>1151.8</ele>
        <time>2022-09-18T13:39:08Z</time>
      </trkpt>
      <trkpt lat="44.64771" lon="6.08549">
        <ele>1152</ele>
        <time>2022-09-18T13:39:09Z</time>
      </trkpt>
      <trkpt lat="44.64767" lon="6.08552">
        <ele>1152</ele>
        <time>2022-09-18T13:39:10Z</time>
      </trkpt>
      <trkpt lat="44.64758" lon="6.08558">
        <ele>1152.2</ele>
        <time>2022-09-18T13:39:12Z</time>
      </trkpt>
      <trkpt lat="44.64754" lon="6.0856">
        <ele>1152.4</ele>
        <time>2022-09-18T13:39:13Z</time>
      </trkpt>
      <trkpt lat="44.6475" lon="6.08562">
        <ele>1152.6</ele>
        <time>2022-09-18T13:39:14Z</time>
      </trkpt>
      <trkpt lat="44.64745" lon="6.08564">
        <ele>1152.8</ele>
        <time>2022-09-18T13:39:15Z</time>
      </trkpt>
      <trkpt lat="44.64741" lon="6.08566">
        <ele>1152.8</ele>
        <time>2022-09-18T13:39:16Z</time>
      </trkpt>
      <trkpt lat="44.64737" lon="6.08568">
        <ele>1153</ele>
        <time>2022-09-18T13:39:17Z</time>
      </trkpt>
      <trkpt lat="44.64733" lon="6.08569">
        <ele>1153.2</ele>
        <time>2022-09-18T13:39:18Z</time>
      </trkpt>
      <trkpt lat="44.64729" lon="6.08571">
        <ele>1153</ele>
        <time>2022-09-18T13:39:19Z</time>
      </trkpt>
      <trkpt lat="44.64725" lon="6.08573">
        <ele>1153</ele>
        <time>2022-09-18T13:39:20Z</time>
      </trkpt>
      <trkpt lat="44.64721" lon="6.08575">
        <ele>1153.2</ele>
        <time>2022-09-18T13:39:21Z</time>
      </trkpt>
      <trkpt lat="44.64717" lon="6.08576">
        <ele>1153</ele>
        <time>2022-09-18T13:39:22Z</time>
      </trkpt>
      <trkpt lat="44.64714" lon="6.08577">
        <ele>1153</ele>
        <time>2022-09-18T13:39:23Z</time>
      </trkpt>
      <trkpt lat="44.6471" lon="6.08579">
        <ele>1153</ele>
        <time>2022-09-18T13:39:24Z</time>
      </trkpt>
      <trkpt lat="44.64706" lon="6.0858">
        <ele>1152.8</ele>
        <time>2022-09-18T13:39:25Z</time>
      </trkpt>
      <trkpt lat="44.64699" lon="6.08582">
        <ele>1153.2</ele>
        <time>2022-09-18T13:39:27Z</time>
      </trkpt>
      <trkpt lat="44.64696" lon="6.08583">
        <ele>1153</ele>
        <time>2022-09-18T13:39:28Z</time>
      </trkpt>
      <trkpt lat="44.64692" lon="6.08584">
        <ele>1153</ele>
        <time>2022-09-18T13:39:29Z</time>
      </trkpt>
      <trkpt lat="44.64688" lon="6.08585">
        <ele>1153</ele>
        <time>2022-09-18T13:39:30Z</time>
      </trkpt>
      <trkpt lat="44.64685" lon="6.08587">
        <ele>1153</ele>
        <time>2022-09-18T13:39:31Z</time>
      </trkpt>
      <trkpt lat="44.64681" lon="6.08588">
        <ele>1153.2</ele>
        <time>2022-09-18T13:39:32Z</time>
      </trkpt>
      <trkpt lat="44.64678" lon="6.08589">
        <ele>1153</ele>
        <time>2022-09-18T13:39:33Z</time>
      </trkpt>
      <trkpt lat="44.64675" lon="6.0859">
        <ele>1153.2</ele>
        <time>2022-09-18T13:39:34Z</time>
      </trkpt>
      <trkpt lat="44.64672" lon="6.08591">
        <ele>1153.2</ele>
        <time>2022-09-18T13:39:35Z</time>
      </trkpt>
      <trkpt lat="44.64669" lon="6.08592">
        <ele>1153.2</ele>
        <time>2022-09-18T13:39:36Z</time>
      </trkpt>
      <trkpt lat="44.64666" lon="6.08593">
        <ele>1153.2</ele>
        <time>2022-09-18T13:39:37Z</time>
      </trkpt>
      <trkpt lat="44.64663" lon="6.08595">
        <ele>1153</ele>
        <time>2022-09-18T13:39:38Z</time>
      </trkpt>
      <trkpt lat="44.6466" lon="6.08596">
        <ele>1152.8</ele>
        <time>2022-09-18T13:39:39Z</time>
      </trkpt>
      <trkpt lat="44.64658" lon="6.08597">
        <ele>1153</ele>
        <time>2022-09-18T13:39:40Z</time>
      </trkpt>
      <trkpt lat="44.64655" lon="6.08597">
        <ele>1152.8</ele>
        <time>2022-09-18T13:39:41Z</time>
      </trkpt>
      <trkpt lat="44.64652" lon="6.08598">
        <ele>1152.8</ele>
        <time>2022-09-18T13:39:42Z</time>
      </trkpt>
      <trkpt lat="44.6465" lon="6.08599">
        <ele>1152.8</ele>
        <time>2022-09-18T13:39:43Z</time>
      </trkpt>
      <trkpt lat="44.64648" lon="6.08599">
        <ele>1153</ele>
        <time>2022-09-18T13:39:44Z</time>
      </trkpt>
      <trkpt lat="44.64645" lon="6.08602">
        <ele>1152.6</ele>
        <time>2022-09-18T13:39:46Z</time>
      </trkpt>
      <trkpt lat="44.64645" lon="6.08605">
        <ele>1152.6</ele>
        <time>2022-09-18T13:39:53Z</time>
      </trkpt>
      <trkpt lat="44.64645" lon="6.08609">
        <ele>1152.2</ele>
        <time>2022-09-18T13:39:55Z</time>
      </trkpt>
      <trkpt lat="44.64646" lon="6.08612">
        <ele>1152</ele>
        <time>2022-09-18T13:39:56Z</time>
      </trkpt>
      <trkpt lat="44.64648" lon="6.08614">
        <ele>1152</ele>
        <time>2022-09-18T13:39:57Z</time>
      </trkpt>
      <trkpt lat="44.64651" lon="6.08616">
        <ele>1152.2</ele>
        <time>2022-09-18T13:39:58Z</time>
      </trkpt>
      <trkpt lat="44.64655" lon="6.08617">
        <ele>1152.2</ele>
        <time>2022-09-18T13:39:59Z</time>
      </trkpt>
      <trkpt lat="44.64659" lon="6.08618">
        <ele>1152.2</ele>
        <time>2022-09-18T13:40:00Z</time>
      </trkpt>
      <trkpt lat="44.64664" lon="6.08619">
        <ele>1151.6</ele>
        <time>2022-09-18T13:40:01Z</time>
      </trkpt>
      <trkpt lat="44.64675" lon="6.08621">
        <ele>1150.8</ele>
        <time>2022-09-18T13:40:03Z</time>
      </trkpt>
      <trkpt lat="44.64682" lon="6.08623">
        <ele>1150.4</ele>
        <time>2022-09-18T13:40:04Z</time>
      </trkpt>
      <trkpt lat="44.64689" lon="6.08624">
        <ele>1150.2</ele>
        <time>2022-09-18T13:40:05Z</time>
      </trkpt>
      <trkpt lat="44.64696" lon="6.08625">
        <ele>1150.2</ele>
        <time>2022-09-18T13:40:06Z</time>
      </trkpt>
      <trkpt lat="44.64703" lon="6.08626">
        <ele>1149.6</ele>
        <time>2022-09-18T13:40:07Z</time>
      </trkpt>
      <trkpt lat="44.64712" lon="6.08627">
        <ele>1149.4</ele>
        <time>2022-09-18T13:40:08Z</time>
      </trkpt>
      <trkpt lat="44.6472" lon="6.08628">
        <ele>1148.4</ele>
        <time>2022-09-18T13:40:09Z</time>
      </trkpt>
      <trkpt lat="44.64729" lon="6.0863">
        <ele>1147.8</ele>
        <time>2022-09-18T13:40:10Z</time>
      </trkpt>
      <trkpt lat="44.64738" lon="6.08632">
        <ele>1147</ele>
        <time>2022-09-18T13:40:11Z</time>
      </trkpt>
      <trkpt lat="44.64748" lon="6.08633">
        <ele>1146.2</ele>
        <time>2022-09-18T13:40:12Z</time>
      </trkpt>
      <trkpt lat="44.64757" lon="6.08635">
        <ele>1145.2</ele>
        <time>2022-09-18T13:40:13Z</time>
      </trkpt>
      <trkpt lat="44.64766" lon="6.08637">
        <ele>1144.4</ele>
        <time>2022-09-18T13:40:14Z</time>
      </trkpt>
      <trkpt lat="44.64776" lon="6.08638">
        <ele>1143.8</ele>
        <time>2022-09-18T13:40:15Z</time>
      </trkpt>
      <trkpt lat="44.64786" lon="6.0864">
        <ele>1142.8</ele>
        <time>2022-09-18T13:40:16Z</time>
      </trkpt>
      <trkpt lat="44.64807" lon="6.08644">
        <ele>1140.8</ele>
        <time>2022-09-18T13:40:18Z</time>
      </trkpt>
      <trkpt lat="44.64817" lon="6.08646">
        <ele>1139.6</ele>
        <time>2022-09-18T13:40:19Z</time>
      </trkpt>
      <trkpt lat="44.64828" lon="6.08648">
        <ele>1139</ele>
        <time>2022-09-18T13:40:20Z</time>
      </trkpt>
      <trkpt lat="44.64838" lon="6.0865">
        <ele>1139</ele>
        <time>2022-09-18T13:40:21Z</time>
      </trkpt>
      <trkpt lat="44.64849" lon="6.08653">
        <ele>1136.8</ele>
        <time>2022-09-18T13:40:22Z</time>
      </trkpt>
      <trkpt lat="44.64861" lon="6.08655">
        <ele>1135.6</ele>
        <time>2022-09-18T13:40:23Z</time>
      </trkpt>
      <trkpt lat="44.64872" lon="6.08657">
        <ele>1134.6</ele>
        <time>2022-09-18T13:40:24Z</time>
      </trkpt>
      <trkpt lat="44.64884" lon="6.08659">
        <ele>1133.6</ele>
        <time>2022-09-18T13:40:25Z</time>
      </trkpt>
      <trkpt lat="44.64896" lon="6.08662">
        <ele>1132.4</ele>
        <time>2022-09-18T13:40:26Z</time>
      </trkpt>
      <trkpt lat="44.64908" lon="6.08664">
        <ele>1131.2</ele>
        <time>2022-09-18T13:40:27Z</time>
      </trkpt>
      <trkpt lat="44.6492" lon="6.08666">
        <ele>1129.6</ele>
        <time>2022-09-18T13:40:28Z</time>
      </trkpt>
      <trkpt lat="44.64933" lon="6.08668">
        <ele>1127.6</ele>
        <time>2022-09-18T13:40:29Z</time>
      </trkpt>
      <trkpt lat="44.64945" lon="6.0867">
        <ele>1126.2</ele>
        <time>2022-09-18T13:40:30Z</time>
      </trkpt>
      <trkpt lat="44.64957" lon="6.08672">
        <ele>1124.4</ele>
        <time>2022-09-18T13:40:31Z</time>
      </trkpt>
      <trkpt lat="44.6497" lon="6.08674">
        <ele>1123.4</ele>
        <time>2022-09-18T13:40:32Z</time>
      </trkpt>
      <trkpt lat="44.64982" lon="6.08676">
        <ele>1122.4</ele>
        <time>2022-09-18T13:40:33Z</time>
      </trkpt>
      <trkpt lat="44.64995" lon="6.08678">
        <ele>1121.2</ele>
        <time>2022-09-18T13:40:34Z</time>
      </trkpt>
      <trkpt lat="44.65007" lon="6.0868">
        <ele>1120.2</ele>
        <time>2022-09-18T13:40:35Z</time>
      </trkpt>
      <trkpt lat="44.65019" lon="6.08681">
        <ele>1118.6</ele>
        <time>2022-09-18T13:40:36Z</time>
      </trkpt>
      <trkpt lat="44.65032" lon="6.08682">
        <ele>1117.2</ele>
        <time>2022-09-18T13:40:37Z</time>
      </trkpt>
      <trkpt lat="44.65044" lon="6.0868">
        <ele>1115.4</ele>
        <time>2022-09-18T13:40:38Z</time>
      </trkpt>
      <trkpt lat="44.65056" lon="6.08677">
        <ele>1113.6</ele>
        <time>2022-09-18T13:40:39Z</time>
      </trkpt>
      <trkpt lat="44.65069" lon="6.08673">
        <ele>1113</ele>
        <time>2022-09-18T13:40:40Z</time>
      </trkpt>
      <trkpt lat="44.65081" lon="6.08668">
        <ele>1111.8</ele>
        <time>2022-09-18T13:40:41Z</time>
      </trkpt>
      <trkpt lat="44.65094" lon="6.08662">
        <ele>1110.2</ele>
        <time>2022-09-18T13:40:42Z</time>
      </trkpt>
      <trkpt lat="44.65106" lon="6.08654">
        <ele>1109</ele>
        <time>2022-09-18T13:40:43Z</time>
      </trkpt>
      <trkpt lat="44.65118" lon="6.08646">
        <ele>1108</ele>
        <time>2022-09-18T13:40:44Z</time>
      </trkpt>
      <trkpt lat="44.65129" lon="6.08637">
        <ele>1106.6</ele>
        <time>2022-09-18T13:40:45Z</time>
      </trkpt>
      <trkpt lat="44.65141" lon="6.08628">
        <ele>1105.2</ele>
        <time>2022-09-18T13:40:46Z</time>
      </trkpt>
      <trkpt lat="44.65152" lon="6.0862">
        <ele>1103.6</ele>
        <time>2022-09-18T13:40:47Z</time>
      </trkpt>
      <trkpt lat="44.65164" lon="6.08612">
        <ele>1102.2</ele>
        <time>2022-09-18T13:40:48Z</time>
      </trkpt>
      <trkpt lat="44.65176" lon="6.08605">
        <ele>1101.2</ele>
        <time>2022-09-18T13:40:49Z</time>
      </trkpt>
      <trkpt lat="44.65188" lon="6.086">
        <ele>1099.4</ele>
        <time>2022-09-18T13:40:50Z</time>
      </trkpt>
      <trkpt lat="44.652" lon="6.08599">
        <ele>1097.6</ele>
        <time>2022-09-18T13:40:51Z</time>
      </trkpt>
      <trkpt lat="44.65226" lon="6.08602">
        <ele>1094</ele>
        <time>2022-09-18T13:40:53Z</time>
      </trkpt>
      <trkpt lat="44.65238" lon="6.08606">
        <ele>1092.2</ele>
        <time>2022-09-18T13:40:54Z</time>
      </trkpt>
      <trkpt lat="44.6525" lon="6.0861">
        <ele>1090.8</ele>
        <time>2022-09-18T13:40:55Z</time>
      </trkpt>
      <trkpt lat="44.65261" lon="6.08612">
        <ele>1090</ele>
        <time>2022-09-18T13:40:56Z</time>
      </trkpt>
      <trkpt lat="44.65273" lon="6.08614">
        <ele>1088.6</ele>
        <time>2022-09-18T13:40:57Z</time>
      </trkpt>
      <trkpt lat="44.65285" lon="6.08614">
        <ele>1087.4</ele>
        <time>2022-09-18T13:40:58Z</time>
      </trkpt>
      <trkpt lat="44.65296" lon="6.08611">
        <ele>1086.4</ele>
        <time>2022-09-18T13:40:59Z</time>
      </trkpt>
      <trkpt lat="44.65306" lon="6.08604">
        <ele>1085.4</ele>
        <time>2022-09-18T13:41:00Z</time>
      </trkpt>
      <trkpt lat="44.65316" lon="6.08594">
        <ele>1084.2</ele>
        <time>2022-09-18T13:41:01Z</time>
      </trkpt>
      <trkpt lat="44.65325" lon="6.08583">
        <ele>1083.2</ele>
        <time>2022-09-18T13:41:02Z</time>
      </trkpt>
      <trkpt lat="44.65335" lon="6.08571">
        <ele>1082</ele>
        <time>2022-09-18T13:41:03Z</time>
      </trkpt>
      <trkpt lat="44.65346" lon="6.08559">
        <ele>1081</ele>
        <time>2022-09-18T13:41:04Z</time>
      </trkpt>
      <trkpt lat="44.65356" lon="6.08548">
        <ele>1079.8</ele>
        <time>2022-09-18T13:41:05Z</time>
      </trkpt>
      <trkpt lat="44.65367" lon="6.08536">
        <ele>1078.6</ele>
        <time>2022-09-18T13:41:06Z</time>
      </trkpt>
      <trkpt lat="44.65377" lon="6.08524">
        <ele>1077.4</ele>
        <time>2022-09-18T13:41:07Z</time>
      </trkpt>
      <trkpt lat="44.65388" lon="6.08514">
        <ele>1076.4</ele>
        <time>2022-09-18T13:41:08Z</time>
      </trkpt>
      <trkpt lat="44.65409" lon="6.08501">
        <ele>1073.6</ele>
        <time>2022-09-18T13:41:10Z</time>
      </trkpt>
      <trkpt lat="44.65419" lon="6.08497">
        <ele>1072</ele>
        <time>2022-09-18T13:41:11Z</time>
      </trkpt>
      <trkpt lat="44.65428" lon="6.08494">
        <ele>1070.4</ele>
        <time>2022-09-18T13:41:12Z</time>
      </trkpt>
      <trkpt lat="44.65434" lon="6.08493">
        <ele>1068.8</ele>
        <time>2022-09-18T13:41:13Z</time>
      </trkpt>
      <trkpt lat="44.65438" lon="6.08494">
        <ele>1067.2</ele>
        <time>2022-09-18T13:41:14Z</time>
      </trkpt>
      <trkpt lat="44.6544" lon="6.08498">
        <ele>1065.6</ele>
        <time>2022-09-18T13:41:15Z</time>
      </trkpt>
      <trkpt lat="44.65439" lon="6.08505">
        <ele>1064</ele>
        <time>2022-09-18T13:41:16Z</time>
      </trkpt>
      <trkpt lat="44.65436" lon="6.08511">
        <ele>1062.8</ele>
        <time>2022-09-18T13:41:17Z</time>
      </trkpt>
      <trkpt lat="44.65431" lon="6.08517">
        <ele>1061.4</ele>
        <time>2022-09-18T13:41:18Z</time>
      </trkpt>
      <trkpt lat="44.65425" lon="6.08522">
        <ele>1060.4</ele>
        <time>2022-09-18T13:41:19Z</time>
      </trkpt>
      <trkpt lat="44.65419" lon="6.08528">
        <ele>1059.4</ele>
        <time>2022-09-18T13:41:20Z</time>
      </trkpt>
      <trkpt lat="44.65415" lon="6.08534">
        <ele>1058.8</ele>
        <time>2022-09-18T13:41:21Z</time>
      </trkpt>
      <trkpt lat="44.65411" lon="6.0854">
        <ele>1058.6</ele>
        <time>2022-09-18T13:41:22Z</time>
      </trkpt>
      <trkpt lat="44.65407" lon="6.08546">
        <ele>1058.6</ele>
        <time>2022-09-18T13:41:23Z</time>
      </trkpt>
      <trkpt lat="44.65404" lon="6.08552">
        <ele>1058.8</ele>
        <time>2022-09-18T13:41:24Z</time>
      </trkpt>
      <trkpt lat="44.654" lon="6.08557">
        <ele>1058.4</ele>
        <time>2022-09-18T13:41:25Z</time>
      </trkpt>
      <trkpt lat="44.65396" lon="6.08562">
        <ele>1058.2</ele>
        <time>2022-09-18T13:41:26Z</time>
      </trkpt>
      <trkpt lat="44.65393" lon="6.08567">
        <ele>1058.2</ele>
        <time>2022-09-18T13:41:27Z</time>
      </trkpt>
      <trkpt lat="44.6539" lon="6.08571">
        <ele>1058.2</ele>
        <time>2022-09-18T13:41:28Z</time>
      </trkpt>
      <trkpt lat="44.65387" lon="6.08576">
        <ele>1058.4</ele>
        <time>2022-09-18T13:41:29Z</time>
      </trkpt>
      <trkpt lat="44.65383" lon="6.0858">
        <ele>1058.8</ele>
        <time>2022-09-18T13:41:30Z</time>
      </trkpt>
      <trkpt lat="44.6538" lon="6.08584">
        <ele>1059</ele>
        <time>2022-09-18T13:41:31Z</time>
      </trkpt>
      <trkpt lat="44.65378" lon="6.08588">
        <ele>1059.2</ele>
        <time>2022-09-18T13:41:32Z</time>
      </trkpt>
      <trkpt lat="44.65375" lon="6.08592">
        <ele>1059.6</ele>
        <time>2022-09-18T13:41:33Z</time>
      </trkpt>
      <trkpt lat="44.65372" lon="6.08595">
        <ele>1059.4</ele>
        <time>2022-09-18T13:41:34Z</time>
      </trkpt>
      <trkpt lat="44.6537" lon="6.08598">
        <ele>1059.6</ele>
        <time>2022-09-18T13:41:35Z</time>
      </trkpt>
      <trkpt lat="44.65367" lon="6.08601">
        <ele>1059.6</ele>
        <time>2022-09-18T13:41:36Z</time>
      </trkpt>
      <trkpt lat="44.65365" lon="6.08604">
        <ele>1059.8</ele>
        <time>2022-09-18T13:41:37Z</time>
      </trkpt>
      <trkpt lat="44.65362" lon="6.08607">
        <ele>1059.8</ele>
        <time>2022-09-18T13:41:38Z</time>
      </trkpt>
      <trkpt lat="44.6536" lon="6.0861">
        <ele>1060</ele>
        <time>2022-09-18T13:41:39Z</time>
      </trkpt>
      <trkpt lat="44.65358" lon="6.08613">
        <ele>1060</ele>
        <time>2022-09-18T13:41:40Z</time>
      </trkpt>
      <trkpt lat="44.65355" lon="6.08616">
        <ele>1059.8</ele>
        <time>2022-09-18T13:41:41Z</time>
      </trkpt>
      <trkpt lat="44.65351" lon="6.08621">
        <ele>1060</ele>
        <time>2022-09-18T13:41:43Z</time>
      </trkpt>
      <trkpt lat="44.65348" lon="6.08624">
        <ele>1060</ele>
        <time>2022-09-18T13:41:44Z</time>
      </trkpt>
      <trkpt lat="44.65345" lon="6.08627">
        <ele>1059.8</ele>
        <time>2022-09-18T13:41:45Z</time>
      </trkpt>
      <trkpt lat="44.65342" lon="6.0863">
        <ele>1060</ele>
        <time>2022-09-18T13:41:46Z</time>
      </trkpt>
      <trkpt lat="44.65339" lon="6.08634">
        <ele>1059.6</ele>
        <time>2022-09-18T13:41:47Z</time>
      </trkpt>
      <trkpt lat="44.65336" lon="6.08638">
        <ele>1059.8</ele>
        <time>2022-09-18T13:41:48Z</time>
      </trkpt>
      <trkpt lat="44.65333" lon="6.08643">
        <ele>1060</ele>
        <time>2022-09-18T13:41:49Z</time>
      </trkpt>
      <trkpt lat="44.65329" lon="6.08647">
        <ele>1060.2</ele>
        <time>2022-09-18T13:41:50Z</time>
      </trkpt>
      <trkpt lat="44.65326" lon="6.08651">
        <ele>1060.2</ele>
        <time>2022-09-18T13:41:51Z</time>
      </trkpt>
      <trkpt lat="44.65322" lon="6.08655">
        <ele>1060.2</ele>
        <time>2022-09-18T13:41:52Z</time>
      </trkpt>
      <trkpt lat="44.65319" lon="6.08659">
        <ele>1060.6</ele>
        <time>2022-09-18T13:41:53Z</time>
      </trkpt>
      <trkpt lat="44.65315" lon="6.08663">
        <ele>1060.8</ele>
        <time>2022-09-18T13:41:54Z</time>
      </trkpt>
      <trkpt lat="44.65312" lon="6.08667">
        <ele>1060.8</ele>
        <time>2022-09-18T13:41:55Z</time>
      </trkpt>
      <trkpt lat="44.65308" lon="6.08671">
        <ele>1061</ele>
        <time>2022-09-18T13:41:56Z</time>
      </trkpt>
      <trkpt lat="44.65304" lon="6.08676">
        <ele>1061.4</ele>
        <time>2022-09-18T13:41:57Z</time>
      </trkpt>
      <trkpt lat="44.65301" lon="6.0868">
        <ele>1061.4</ele>
        <time>2022-09-18T13:41:58Z</time>
      </trkpt>
      <trkpt lat="44.65297" lon="6.08685">
        <ele>1061.6</ele>
        <time>2022-09-18T13:41:59Z</time>
      </trkpt>
      <trkpt lat="44.6529" lon="6.08694">
        <ele>1061.6</ele>
        <time>2022-09-18T13:42:01Z</time>
      </trkpt>
      <trkpt lat="44.65286" lon="6.08699">
        <ele>1061.8</ele>
        <time>2022-09-18T13:42:02Z</time>
      </trkpt>
      <trkpt lat="44.65283" lon="6.08703">
        <ele>1062</ele>
        <time>2022-09-18T13:42:03Z</time>
      </trkpt>
      <trkpt lat="44.6528" lon="6.08707">
        <ele>1062.2</ele>
        <time>2022-09-18T13:42:04Z</time>
      </trkpt>
      <trkpt lat="44.65276" lon="6.08712">
        <ele>1062.4</ele>
        <time>2022-09-18T13:42:05Z</time>
      </trkpt>
      <trkpt lat="44.65273" lon="6.08717">
        <ele>1062.6</ele>
        <time>2022-09-18T13:42:06Z</time>
      </trkpt>
      <trkpt lat="44.65269" lon="6.08722">
        <ele>1062.6</ele>
        <time>2022-09-18T13:42:07Z</time>
      </trkpt>
      <trkpt lat="44.65266" lon="6.08726">
        <ele>1062.6</ele>
        <time>2022-09-18T13:42:08Z</time>
      </trkpt>
      <trkpt lat="44.65262" lon="6.08731">
        <ele>1063</ele>
        <time>2022-09-18T13:42:09Z</time>
      </trkpt>
      <trkpt lat="44.65259" lon="6.08736">
        <ele>1062.8</ele>
        <time>2022-09-18T13:42:10Z</time>
      </trkpt>
      <trkpt lat="44.65255" lon="6.0874">
        <ele>1063</ele>
        <time>2022-09-18T13:42:11Z</time>
      </trkpt>
      <trkpt lat="44.65252" lon="6.08745">
        <ele>1063</ele>
        <time>2022-09-18T13:42:12Z</time>
      </trkpt>
      <trkpt lat="44.65245" lon="6.08753">
        <ele>1063.4</ele>
        <time>2022-09-18T13:42:14Z</time>
      </trkpt>
      <trkpt lat="44.65242" lon="6.08757">
        <ele>1063.4</ele>
        <time>2022-09-18T13:42:15Z</time>
      </trkpt>
      <trkpt lat="44.65239" lon="6.08762">
        <ele>1063.6</ele>
        <time>2022-09-18T13:42:16Z</time>
      </trkpt>
      <trkpt lat="44.65236" lon="6.08766">
        <ele>1063.8</ele>
        <time>2022-09-18T13:42:17Z</time>
      </trkpt>
      <trkpt lat="44.65232" lon="6.0877">
        <ele>1063.8</ele>
        <time>2022-09-18T13:42:18Z</time>
      </trkpt>
      <trkpt lat="44.65229" lon="6.08775">
        <ele>1064</ele>
        <time>2022-09-18T13:42:19Z</time>
      </trkpt>
      <trkpt lat="44.65226" lon="6.08779">
        <ele>1064.2</ele>
        <time>2022-09-18T13:42:20Z</time>
      </trkpt>
      <trkpt lat="44.65222" lon="6.08784">
        <ele>1064.4</ele>
        <time>2022-09-18T13:42:21Z</time>
      </trkpt>
      <trkpt lat="44.65219" lon="6.08789">
        <ele>1064.4</ele>
        <time>2022-09-18T13:42:22Z</time>
      </trkpt>
      <trkpt lat="44.65215" lon="6.08793">
        <ele>1064.8</ele>
        <time>2022-09-18T13:42:23Z</time>
      </trkpt>
      <trkpt lat="44.65212" lon="6.08798">
        <ele>1064.8</ele>
        <time>2022-09-18T13:42:24Z</time>
      </trkpt>
      <trkpt lat="44.65208" lon="6.08803">
        <ele>1064.8</ele>
        <time>2022-09-18T13:42:25Z</time>
      </trkpt>
      <trkpt lat="44.65205" lon="6.08807">
        <ele>1065</ele>
        <time>2022-09-18T13:42:26Z</time>
      </trkpt>
      <trkpt lat="44.65201" lon="6.08811">
        <ele>1065</ele>
        <time>2022-09-18T13:42:27Z</time>
      </trkpt>
      <trkpt lat="44.65196" lon="6.08815">
        <ele>1065</ele>
        <time>2022-09-18T13:42:28Z</time>
      </trkpt>
      <trkpt lat="44.65192" lon="6.08818">
        <ele>1065.4</ele>
        <time>2022-09-18T13:42:29Z</time>
      </trkpt>
      <trkpt lat="44.65188" lon="6.08821">
        <ele>1065.6</ele>
        <time>2022-09-18T13:42:30Z</time>
      </trkpt>
      <trkpt lat="44.65184" lon="6.08824">
        <ele>1065.6</ele>
        <time>2022-09-18T13:42:31Z</time>
      </trkpt>
      <trkpt lat="44.65179" lon="6.08826">
        <ele>1066</ele>
        <time>2022-09-18T13:42:32Z</time>
      </trkpt>
      <trkpt lat="44.65169" lon="6.0883">
        <ele>1066.2</ele>
        <time>2022-09-18T13:42:34Z</time>
      </trkpt>
      <trkpt lat="44.65165" lon="6.08831">
        <ele>1066.4</ele>
        <time>2022-09-18T13:42:35Z</time>
      </trkpt>
      <trkpt lat="44.6516" lon="6.08832">
        <ele>1066.6</ele>
        <time>2022-09-18T13:42:36Z</time>
      </trkpt>
      <trkpt lat="44.65155" lon="6.08833">
        <ele>1066.8</ele>
        <time>2022-09-18T13:42:37Z</time>
      </trkpt>
      <trkpt lat="44.6515" lon="6.08833">
        <ele>1066.8</ele>
        <time>2022-09-18T13:42:38Z</time>
      </trkpt>
      <trkpt lat="44.65145" lon="6.08834">
        <ele>1066.8</ele>
        <time>2022-09-18T13:42:39Z</time>
      </trkpt>
      <trkpt lat="44.6514" lon="6.08835">
        <ele>1067</ele>
        <time>2022-09-18T13:42:40Z</time>
      </trkpt>
      <trkpt lat="44.65135" lon="6.08836">
        <ele>1067.2</ele>
        <time>2022-09-18T13:42:41Z</time>
      </trkpt>
      <trkpt lat="44.65131" lon="6.08837">
        <ele>1067.4</ele>
        <time>2022-09-18T13:42:42Z</time>
      </trkpt>
      <trkpt lat="44.65126" lon="6.08839">
        <ele>1067.6</ele>
        <time>2022-09-18T13:42:43Z</time>
      </trkpt>
      <trkpt lat="44.65122" lon="6.08841">
        <ele>1067.6</ele>
        <time>2022-09-18T13:42:44Z</time>
      </trkpt>
      <trkpt lat="44.65118" lon="6.08844">
        <ele>1067.6</ele>
        <time>2022-09-18T13:42:45Z</time>
      </trkpt>
      <trkpt lat="44.65114" lon="6.08848">
        <ele>1067.6</ele>
        <time>2022-09-18T13:42:46Z</time>
      </trkpt>
      <trkpt lat="44.6511" lon="6.08853">
        <ele>1067.4</ele>
        <time>2022-09-18T13:42:47Z</time>
      </trkpt>
      <trkpt lat="44.65106" lon="6.08858">
        <ele>1067.4</ele>
        <time>2022-09-18T13:42:48Z</time>
      </trkpt>
      <trkpt lat="44.65103" lon="6.08864">
        <ele>1067.4</ele>
        <time>2022-09-18T13:42:49Z</time>
      </trkpt>
      <trkpt lat="44.65098" lon="6.08879">
        <ele>1067.2</ele>
        <time>2022-09-18T13:42:51Z</time>
      </trkpt>
      <trkpt lat="44.65097" lon="6.08886">
        <ele>1067.2</ele>
        <time>2022-09-18T13:42:52Z</time>
      </trkpt>
      <trkpt lat="44.65096" lon="6.08894">
        <ele>1066.8</ele>
        <time>2022-09-18T13:42:53Z</time>
      </trkpt>
      <trkpt lat="44.65095" lon="6.08902">
        <ele>1066.6</ele>
        <time>2022-09-18T13:42:54Z</time>
      </trkpt>
      <trkpt lat="44.65096" lon="6.0891">
        <ele>1066.6</ele>
        <time>2022-09-18T13:42:55Z</time>
      </trkpt>
      <trkpt lat="44.65096" lon="6.08918">
        <ele>1066.4</ele>
        <time>2022-09-18T13:42:56Z</time>
      </trkpt>
      <trkpt lat="44.65096" lon="6.08926">
        <ele>1066.4</ele>
        <time>2022-09-18T13:42:57Z</time>
      </trkpt>
      <trkpt lat="44.65097" lon="6.08935">
        <ele>1066.4</ele>
        <time>2022-09-18T13:42:58Z</time>
      </trkpt>
      <trkpt lat="44.65097" lon="6.08943">
        <ele>1066.4</ele>
        <time>2022-09-18T13:42:59Z</time>
      </trkpt>
      <trkpt lat="44.65097" lon="6.08951">
        <ele>1066.6</ele>
        <time>2022-09-18T13:43:00Z</time>
      </trkpt>
      <trkpt lat="44.65097" lon="6.08958">
        <ele>1066.4</ele>
        <time>2022-09-18T13:43:01Z</time>
      </trkpt>
      <trkpt lat="44.65097" lon="6.08966">
        <ele>1066.4</ele>
        <time>2022-09-18T13:43:02Z</time>
      </trkpt>
      <trkpt lat="44.65098" lon="6.08973">
        <ele>1066.6</ele>
        <time>2022-09-18T13:43:03Z</time>
      </trkpt>
      <trkpt lat="44.65098" lon="6.0898">
        <ele>1066.4</ele>
        <time>2022-09-18T13:43:04Z</time>
      </trkpt>
      <trkpt lat="44.65098" lon="6.08987">
        <ele>1066.6</ele>
        <time>2022-09-18T13:43:05Z</time>
      </trkpt>
      <trkpt lat="44.65098" lon="6.08995">
        <ele>1066.4</ele>
        <time>2022-09-18T13:43:06Z</time>
      </trkpt>
      <trkpt lat="44.65098" lon="6.09002">
        <ele>1066.6</ele>
        <time>2022-09-18T13:43:07Z</time>
      </trkpt>
      <trkpt lat="44.65098" lon="6.09009">
        <ele>1066.6</ele>
        <time>2022-09-18T13:43:08Z</time>
      </trkpt>
      <trkpt lat="44.65098" lon="6.09017">
        <ele>1066.6</ele>
        <time>2022-09-18T13:43:09Z</time>
      </trkpt>
      <trkpt lat="44.65098" lon="6.09024">
        <ele>1066.4</ele>
        <time>2022-09-18T13:43:10Z</time>
      </trkpt>
      <trkpt lat="44.65098" lon="6.09031">
        <ele>1066.4</ele>
        <time>2022-09-18T13:43:11Z</time>
      </trkpt>
      <trkpt lat="44.65098" lon="6.09039">
        <ele>1066.2</ele>
        <time>2022-09-18T13:43:12Z</time>
      </trkpt>
      <trkpt lat="44.65097" lon="6.09047">
        <ele>1066</ele>
        <time>2022-09-18T13:43:13Z</time>
      </trkpt>
      <trkpt lat="44.65097" lon="6.09054">
        <ele>1065.8</ele>
        <time>2022-09-18T13:43:14Z</time>
      </trkpt>
      <trkpt lat="44.65096" lon="6.09062">
        <ele>1066</ele>
        <time>2022-09-18T13:43:15Z</time>
      </trkpt>
      <trkpt lat="44.65095" lon="6.0907">
        <ele>1065.6</ele>
        <time>2022-09-18T13:43:16Z</time>
      </trkpt>
      <trkpt lat="44.65094" lon="6.09077">
        <ele>1065.6</ele>
        <time>2022-09-18T13:43:17Z</time>
      </trkpt>
      <trkpt lat="44.65093" lon="6.09085">
        <ele>1065.4</ele>
        <time>2022-09-18T13:43:18Z</time>
      </trkpt>
      <trkpt lat="44.65091" lon="6.09093">
        <ele>1065.4</ele>
        <time>2022-09-18T13:43:19Z</time>
      </trkpt>
      <trkpt lat="44.65089" lon="6.091">
        <ele>1065.4</ele>
        <time>2022-09-18T13:43:20Z</time>
      </trkpt>
      <trkpt lat="44.65087" lon="6.09108">
        <ele>1065.2</ele>
        <time>2022-09-18T13:43:21Z</time>
      </trkpt>
      <trkpt lat="44.65085" lon="6.09116">
        <ele>1065.4</ele>
        <time>2022-09-18T13:43:22Z</time>
      </trkpt>
      <trkpt lat="44.6508" lon="6.09131">
        <ele>1065.4</ele>
        <time>2022-09-18T13:43:24Z</time>
      </trkpt>
      <trkpt lat="44.65078" lon="6.09138">
        <ele>1065.4</ele>
        <time>2022-09-18T13:43:25Z</time>
      </trkpt>
      <trkpt lat="44.65076" lon="6.09146">
        <ele>1065.4</ele>
        <time>2022-09-18T13:43:26Z</time>
      </trkpt>
      <trkpt lat="44.65073" lon="6.09153">
        <ele>1065.2</ele>
        <time>2022-09-18T13:43:27Z</time>
      </trkpt>
      <trkpt lat="44.6507" lon="6.0916">
        <ele>1065.4</ele>
        <time>2022-09-18T13:43:28Z</time>
      </trkpt>
      <trkpt lat="44.65068" lon="6.09167">
        <ele>1065.6</ele>
        <time>2022-09-18T13:43:29Z</time>
      </trkpt>
      <trkpt lat="44.65066" lon="6.09175">
        <ele>1065.6</ele>
        <time>2022-09-18T13:43:30Z</time>
      </trkpt>
      <trkpt lat="44.65063" lon="6.09182">
        <ele>1065.2</ele>
        <time>2022-09-18T13:43:31Z</time>
      </trkpt>
      <trkpt lat="44.6506" lon="6.09189">
        <ele>1065.4</ele>
        <time>2022-09-18T13:43:32Z</time>
      </trkpt>
      <trkpt lat="44.65058" lon="6.09197">
        <ele>1065.4</ele>
        <time>2022-09-18T13:43:33Z</time>
      </trkpt>
      <trkpt lat="44.65056" lon="6.09204">
        <ele>1065.4</ele>
        <time>2022-09-18T13:43:34Z</time>
      </trkpt>
      <trkpt lat="44.65053" lon="6.09212">
        <ele>1065.4</ele>
        <time>2022-09-18T13:43:35Z</time>
      </trkpt>
      <trkpt lat="44.6505" lon="6.0922">
        <ele>1065.4</ele>
        <time>2022-09-18T13:43:36Z</time>
      </trkpt>
      <trkpt lat="44.65047" lon="6.09227">
        <ele>1065.4</ele>
        <time>2022-09-18T13:43:37Z</time>
      </trkpt>
      <trkpt lat="44.65044" lon="6.09235">
        <ele>1065.4</ele>
        <time>2022-09-18T13:43:38Z</time>
      </trkpt>
      <trkpt lat="44.65041" lon="6.09242">
        <ele>1065.6</ele>
        <time>2022-09-18T13:43:39Z</time>
      </trkpt>
      <trkpt lat="44.65035" lon="6.09257">
        <ele>1065.6</ele>
        <time>2022-09-18T13:43:41Z</time>
      </trkpt>
      <trkpt lat="44.65032" lon="6.09264">
        <ele>1065.6</ele>
        <time>2022-09-18T13:43:42Z</time>
      </trkpt>
      <trkpt lat="44.65029" lon="6.09271">
        <ele>1065.6</ele>
        <time>2022-09-18T13:43:43Z</time>
      </trkpt>
      <trkpt lat="44.65025" lon="6.09278">
        <ele>1065.8</ele>
        <time>2022-09-18T13:43:44Z</time>
      </trkpt>
      <trkpt lat="44.65022" lon="6.09286">
        <ele>1065.8</ele>
        <time>2022-09-18T13:43:45Z</time>
      </trkpt>
      <trkpt lat="44.65019" lon="6.09293">
        <ele>1065.8</ele>
        <time>2022-09-18T13:43:46Z</time>
      </trkpt>
      <trkpt lat="44.65015" lon="6.093">
        <ele>1065.4</ele>
        <time>2022-09-18T13:43:47Z</time>
      </trkpt>
      <trkpt lat="44.65012" lon="6.09307">
        <ele>1065.4</ele>
        <time>2022-09-18T13:43:48Z</time>
      </trkpt>
      <trkpt lat="44.65009" lon="6.09314">
        <ele>1065.2</ele>
        <time>2022-09-18T13:43:49Z</time>
      </trkpt>
      <trkpt lat="44.65006" lon="6.09321">
        <ele>1065</ele>
        <time>2022-09-18T13:43:50Z</time>
      </trkpt>
      <trkpt lat="44.65003" lon="6.09328">
        <ele>1065.4</ele>
        <time>2022-09-18T13:43:51Z</time>
      </trkpt>
      <trkpt lat="44.65" lon="6.09335">
        <ele>1065.2</ele>
        <time>2022-09-18T13:43:52Z</time>
      </trkpt>
      <trkpt lat="44.64997" lon="6.09341">
        <ele>1065.2</ele>
        <time>2022-09-18T13:43:53Z</time>
      </trkpt>
      <trkpt lat="44.64994" lon="6.09348">
        <ele>1065.2</ele>
        <time>2022-09-18T13:43:54Z</time>
      </trkpt>
      <trkpt lat="44.64991" lon="6.09354">
        <ele>1065.4</ele>
        <time>2022-09-18T13:43:55Z</time>
      </trkpt>
      <trkpt lat="44.64989" lon="6.09361">
        <ele>1065.6</ele>
        <time>2022-09-18T13:43:56Z</time>
      </trkpt>
      <trkpt lat="44.64986" lon="6.09367">
        <ele>1065.8</ele>
        <time>2022-09-18T13:43:57Z</time>
      </trkpt>
      <trkpt lat="44.64983" lon="6.09373">
        <ele>1066</ele>
        <time>2022-09-18T13:43:58Z</time>
      </trkpt>
      <trkpt lat="44.64981" lon="6.09379">
        <ele>1066.4</ele>
        <time>2022-09-18T13:43:59Z</time>
      </trkpt>
      <trkpt lat="44.64978" lon="6.09385">
        <ele>1066.8</ele>
        <time>2022-09-18T13:44:00Z</time>
      </trkpt>
      <trkpt lat="44.64975" lon="6.09391">
        <ele>1066.6</ele>
        <time>2022-09-18T13:44:01Z</time>
      </trkpt>
      <trkpt lat="44.64973" lon="6.09397">
        <ele>1066.8</ele>
        <time>2022-09-18T13:44:02Z</time>
      </trkpt>
      <trkpt lat="44.6497" lon="6.09402">
        <ele>1066.8</ele>
        <time>2022-09-18T13:44:03Z</time>
      </trkpt>
      <trkpt lat="44.64968" lon="6.09408">
        <ele>1066.8</ele>
        <time>2022-09-18T13:44:04Z</time>
      </trkpt>
      <trkpt lat="44.64965" lon="6.09414">
        <ele>1066.8</ele>
        <time>2022-09-18T13:44:05Z</time>
      </trkpt>
      <trkpt lat="44.64963" lon="6.0942">
        <ele>1066.8</ele>
        <time>2022-09-18T13:44:06Z</time>
      </trkpt>
      <trkpt lat="44.6496" lon="6.09425">
        <ele>1067</ele>
        <time>2022-09-18T13:44:07Z</time>
      </trkpt>
      <trkpt lat="44.64958" lon="6.09431">
        <ele>1067</ele>
        <time>2022-09-18T13:44:08Z</time>
      </trkpt>
      <trkpt lat="44.64955" lon="6.09436">
        <ele>1067.2</ele>
        <time>2022-09-18T13:44:09Z</time>
      </trkpt>
      <trkpt lat="44.64953" lon="6.09442">
        <ele>1067.6</ele>
        <time>2022-09-18T13:44:10Z</time>
      </trkpt>
      <trkpt lat="44.6495" lon="6.09448">
        <ele>1067.8</ele>
        <time>2022-09-18T13:44:11Z</time>
      </trkpt>
      <trkpt lat="44.64948" lon="6.09453">
        <ele>1068</ele>
        <time>2022-09-18T13:44:12Z</time>
      </trkpt>
      <trkpt lat="44.64943" lon="6.09465">
        <ele>1068.2</ele>
        <time>2022-09-18T13:44:14Z</time>
      </trkpt>
      <trkpt lat="44.6494" lon="6.0947">
        <ele>1068</ele>
        <time>2022-09-18T13:44:15Z</time>
      </trkpt>
      <trkpt lat="44.64938" lon="6.09476">
        <ele>1068.2</ele>
        <time>2022-09-18T13:44:16Z</time>
      </trkpt>
      <trkpt lat="44.64935" lon="6.09482">
        <ele>1068.6</ele>
        <time>2022-09-18T13:44:17Z</time>
      </trkpt>
      <trkpt lat="44.64932" lon="6.09488">
        <ele>1068.4</ele>
        <time>2022-09-18T13:44:18Z</time>
      </trkpt>
      <trkpt lat="44.6493" lon="6.09494">
        <ele>1068.6</ele>
        <time>2022-09-18T13:44:19Z</time>
      </trkpt>
      <trkpt lat="44.64928" lon="6.095">
        <ele>1068.8</ele>
        <time>2022-09-18T13:44:20Z</time>
      </trkpt>
      <trkpt lat="44.64925" lon="6.09506">
        <ele>1069</ele>
        <time>2022-09-18T13:44:21Z</time>
      </trkpt>
      <trkpt lat="44.64923" lon="6.09512">
        <ele>1069.2</ele>
        <time>2022-09-18T13:44:22Z</time>
      </trkpt>
      <trkpt lat="44.6492" lon="6.09517">
        <ele>1069.2</ele>
        <time>2022-09-18T13:44:23Z</time>
      </trkpt>
      <trkpt lat="44.64917" lon="6.09523">
        <ele>1069.2</ele>
        <time>2022-09-18T13:44:24Z</time>
      </trkpt>
      <trkpt lat="44.64915" lon="6.09528">
        <ele>1069.2</ele>
        <time>2022-09-18T13:44:25Z</time>
      </trkpt>
      <trkpt lat="44.64913" lon="6.09534">
        <ele>1069.2</ele>
        <time>2022-09-18T13:44:26Z</time>
      </trkpt>
      <trkpt lat="44.6491" lon="6.09539">
        <ele>1069.2</ele>
        <time>2022-09-18T13:44:27Z</time>
      </trkpt>
      <trkpt lat="44.64908" lon="6.09545">
        <ele>1069.4</ele>
        <time>2022-09-18T13:44:28Z</time>
      </trkpt>
      <trkpt lat="44.64906" lon="6.0955">
        <ele>1069.6</ele>
        <time>2022-09-18T13:44:29Z</time>
      </trkpt>
      <trkpt lat="44.64901" lon="6.09561">
        <ele>1069.4</ele>
        <time>2022-09-18T13:44:31Z</time>
      </trkpt>
      <trkpt lat="44.64898" lon="6.09566">
        <ele>1069.6</ele>
        <time>2022-09-18T13:44:32Z</time>
      </trkpt>
      <trkpt lat="44.64896" lon="6.09572">
        <ele>1069.6</ele>
        <time>2022-09-18T13:44:33Z</time>
      </trkpt>
      <trkpt lat="44.64893" lon="6.09577">
        <ele>1069.6</ele>
        <time>2022-09-18T13:44:34Z</time>
      </trkpt>
      <trkpt lat="44.64891" lon="6.09583">
        <ele>1069.6</ele>
        <time>2022-09-18T13:44:35Z</time>
      </trkpt>
      <trkpt lat="44.64889" lon="6.09588">
        <ele>1069.6</ele>
        <time>2022-09-18T13:44:36Z</time>
      </trkpt>
      <trkpt lat="44.64886" lon="6.09593">
        <ele>1069.8</ele>
        <time>2022-09-18T13:44:37Z</time>
      </trkpt>
      <trkpt lat="44.64884" lon="6.09599">
        <ele>1069.8</ele>
        <time>2022-09-18T13:44:38Z</time>
      </trkpt>
      <trkpt lat="44.64881" lon="6.09604">
        <ele>1069.8</ele>
        <time>2022-09-18T13:44:39Z</time>
      </trkpt>
      <trkpt lat="44.64878" lon="6.09609">
        <ele>1069.8</ele>
        <time>2022-09-18T13:44:40Z</time>
      </trkpt>
      <trkpt lat="44.64876" lon="6.09615">
        <ele>1070</ele>
        <time>2022-09-18T13:44:41Z</time>
      </trkpt>
      <trkpt lat="44.64873" lon="6.0962">
        <ele>1070</ele>
        <time>2022-09-18T13:44:42Z</time>
      </trkpt>
      <trkpt lat="44.6487" lon="6.09626">
        <ele>1070.2</ele>
        <time>2022-09-18T13:44:43Z</time>
      </trkpt>
      <trkpt lat="44.64868" lon="6.09631">
        <ele>1070.4</ele>
        <time>2022-09-18T13:44:44Z</time>
      </trkpt>
      <trkpt lat="44.64865" lon="6.09637">
        <ele>1070.4</ele>
        <time>2022-09-18T13:44:45Z</time>
      </trkpt>
      <trkpt lat="44.64862" lon="6.09642">
        <ele>1070.4</ele>
        <time>2022-09-18T13:44:46Z</time>
      </trkpt>
      <trkpt lat="44.6486" lon="6.09648">
        <ele>1070.6</ele>
        <time>2022-09-18T13:44:47Z</time>
      </trkpt>
      <trkpt lat="44.64857" lon="6.09653">
        <ele>1070.6</ele>
        <time>2022-09-18T13:44:48Z</time>
      </trkpt>
      <trkpt lat="44.64855" lon="6.09658">
        <ele>1070.8</ele>
        <time>2022-09-18T13:44:49Z</time>
      </trkpt>
      <trkpt lat="44.64853" lon="6.09664">
        <ele>1071</ele>
        <time>2022-09-18T13:44:50Z</time>
      </trkpt>
      <trkpt lat="44.6485" lon="6.09669">
        <ele>1071</ele>
        <time>2022-09-18T13:44:51Z</time>
      </trkpt>
      <trkpt lat="44.64848" lon="6.09674">
        <ele>1071</ele>
        <time>2022-09-18T13:44:52Z</time>
      </trkpt>
      <trkpt lat="44.64845" lon="6.09678">
        <ele>1071.4</ele>
        <time>2022-09-18T13:44:53Z</time>
      </trkpt>
      <trkpt lat="44.64843" lon="6.09683">
        <ele>1071.6</ele>
        <time>2022-09-18T13:44:54Z</time>
      </trkpt>
      <trkpt lat="44.6484" lon="6.09688">
        <ele>1071.8</ele>
        <time>2022-09-18T13:44:55Z</time>
      </trkpt>
      <trkpt lat="44.64838" lon="6.09692">
        <ele>1071.8</ele>
        <time>2022-09-18T13:44:56Z</time>
      </trkpt>
      <trkpt lat="44.64836" lon="6.09697">
        <ele>1072</ele>
        <time>2022-09-18T13:44:57Z</time>
      </trkpt>
      <trkpt lat="44.64833" lon="6.09701">
        <ele>1072</ele>
        <time>2022-09-18T13:44:58Z</time>
      </trkpt>
      <trkpt lat="44.64831" lon="6.09705">
        <ele>1072</ele>
        <time>2022-09-18T13:44:59Z</time>
      </trkpt>
      <trkpt lat="44.64829" lon="6.0971">
        <ele>1072.2</ele>
        <time>2022-09-18T13:45:00Z</time>
      </trkpt>
      <trkpt lat="44.64827" lon="6.09714">
        <ele>1072.4</ele>
        <time>2022-09-18T13:45:01Z</time>
      </trkpt>
      <trkpt lat="44.64824" lon="6.09719">
        <ele>1072.6</ele>
        <time>2022-09-18T13:45:02Z</time>
      </trkpt>
      <trkpt lat="44.64822" lon="6.09723">
        <ele>1072.8</ele>
        <time>2022-09-18T13:45:03Z</time>
      </trkpt>
      <trkpt lat="44.64818" lon="6.09731">
        <ele>1073.2</ele>
        <time>2022-09-18T13:45:05Z</time>
      </trkpt>
      <trkpt lat="44.64816" lon="6.09735">
        <ele>1073.4</ele>
        <time>2022-09-18T13:45:06Z</time>
      </trkpt>
      <trkpt lat="44.64814" lon="6.0974">
        <ele>1073.6</ele>
        <time>2022-09-18T13:45:07Z</time>
      </trkpt>
      <trkpt lat="44.64812" lon="6.09744">
        <ele>1073.8</ele>
        <time>2022-09-18T13:45:08Z</time>
      </trkpt>
      <trkpt lat="44.6481" lon="6.09748">
        <ele>1074.2</ele>
        <time>2022-09-18T13:45:09Z</time>
      </trkpt>
      <trkpt lat="44.64808" lon="6.09752">
        <ele>1074.4</ele>
        <time>2022-09-18T13:45:10Z</time>
      </trkpt>
      <trkpt lat="44.64806" lon="6.09756">
        <ele>1074.6</ele>
        <time>2022-09-18T13:45:11Z</time>
      </trkpt>
      <trkpt lat="44.64804" lon="6.09759">
        <ele>1074.6</ele>
        <time>2022-09-18T13:45:12Z</time>
      </trkpt>
      <trkpt lat="44.64802" lon="6.09763">
        <ele>1074.8</ele>
        <time>2022-09-18T13:45:13Z</time>
      </trkpt>
      <trkpt lat="44.648" lon="6.09768">
        <ele>1074.8</ele>
        <time>2022-09-18T13:45:14Z</time>
      </trkpt>
      <trkpt lat="44.64798" lon="6.09772">
        <ele>1074.8</ele>
        <time>2022-09-18T13:45:15Z</time>
      </trkpt>
      <trkpt lat="44.64795" lon="6.09776">
        <ele>1075</ele>
        <time>2022-09-18T13:45:16Z</time>
      </trkpt>
      <trkpt lat="44.64793" lon="6.0978">
        <ele>1075</ele>
        <time>2022-09-18T13:45:17Z</time>
      </trkpt>
      <trkpt lat="44.64791" lon="6.09784">
        <ele>1074.8</ele>
        <time>2022-09-18T13:45:18Z</time>
      </trkpt>
      <trkpt lat="44.64789" lon="6.09788">
        <ele>1074.8</ele>
        <time>2022-09-18T13:45:19Z</time>
      </trkpt>
      <trkpt lat="44.64787" lon="6.09791">
        <ele>1074.8</ele>
        <time>2022-09-18T13:45:20Z</time>
      </trkpt>
      <trkpt lat="44.64783" lon="6.098">
        <ele>1075</ele>
        <time>2022-09-18T13:45:22Z</time>
      </trkpt>
      <trkpt lat="44.64781" lon="6.09805">
        <ele>1075.2</ele>
        <time>2022-09-18T13:45:23Z</time>
      </trkpt>
      <trkpt lat="44.64778" lon="6.0981">
        <ele>1075.2</ele>
        <time>2022-09-18T13:45:24Z</time>
      </trkpt>
      <trkpt lat="44.64776" lon="6.09816">
        <ele>1074.6</ele>
        <time>2022-09-18T13:45:25Z</time>
      </trkpt>
      <trkpt lat="44.64774" lon="6.09822">
        <ele>1074.2</ele>
        <time>2022-09-18T13:45:26Z</time>
      </trkpt>
      <trkpt lat="44.64773" lon="6.09828">
        <ele>1074.4</ele>
        <time>2022-09-18T13:45:27Z</time>
      </trkpt>
      <trkpt lat="44.64773" lon="6.09835">
        <ele>1074.4</ele>
        <time>2022-09-18T13:45:28Z</time>
      </trkpt>
      <trkpt lat="44.64773" lon="6.09842">
        <ele>1074.4</ele>
        <time>2022-09-18T13:45:29Z</time>
      </trkpt>
      <trkpt lat="44.64774" lon="6.09849">
        <ele>1074.6</ele>
        <time>2022-09-18T13:45:30Z</time>
      </trkpt>
      <trkpt lat="44.64774" lon="6.09856">
        <ele>1074.6</ele>
        <time>2022-09-18T13:45:31Z</time>
      </trkpt>
      <trkpt lat="44.64775" lon="6.09863">
        <ele>1074.6</ele>
        <time>2022-09-18T13:45:32Z</time>
      </trkpt>
      <trkpt lat="44.64776" lon="6.09869">
        <ele>1074.4</ele>
        <time>2022-09-18T13:45:33Z</time>
      </trkpt>
      <trkpt lat="44.64777" lon="6.09876">
        <ele>1074.4</ele>
        <time>2022-09-18T13:45:34Z</time>
      </trkpt>
      <trkpt lat="44.64778" lon="6.09883">
        <ele>1074.6</ele>
        <time>2022-09-18T13:45:35Z</time>
      </trkpt>
      <trkpt lat="44.64779" lon="6.0989">
        <ele>1074.6</ele>
        <time>2022-09-18T13:45:36Z</time>
      </trkpt>
      <trkpt lat="44.6478" lon="6.09896">
        <ele>1074.6</ele>
        <time>2022-09-18T13:45:37Z</time>
      </trkpt>
      <trkpt lat="44.64781" lon="6.09903">
        <ele>1074.8</ele>
        <time>2022-09-18T13:45:38Z</time>
      </trkpt>
      <trkpt lat="44.64781" lon="6.0991">
        <ele>1074.8</ele>
        <time>2022-09-18T13:45:39Z</time>
      </trkpt>
      <trkpt lat="44.64781" lon="6.09917">
        <ele>1074.6</ele>
        <time>2022-09-18T13:45:40Z</time>
      </trkpt>
      <trkpt lat="44.6478" lon="6.09923">
        <ele>1074.6</ele>
        <time>2022-09-18T13:45:41Z</time>
      </trkpt>
      <trkpt lat="44.64777" lon="6.0993">
        <ele>1074.6</ele>
        <time>2022-09-18T13:45:42Z</time>
      </trkpt>
      <trkpt lat="44.64774" lon="6.09936">
        <ele>1074.6</ele>
        <time>2022-09-18T13:45:43Z</time>
      </trkpt>
      <trkpt lat="44.64772" lon="6.09941">
        <ele>1074.8</ele>
        <time>2022-09-18T13:45:44Z</time>
      </trkpt>
      <trkpt lat="44.64769" lon="6.09946">
        <ele>1074.8</ele>
        <time>2022-09-18T13:45:45Z</time>
      </trkpt>
      <trkpt lat="44.64765" lon="6.09951">
        <ele>1074.6</ele>
        <time>2022-09-18T13:45:46Z</time>
      </trkpt>
      <trkpt lat="44.64763" lon="6.09956">
        <ele>1074.8</ele>
        <time>2022-09-18T13:45:47Z</time>
      </trkpt>
      <trkpt lat="44.6476" lon="6.09962">
        <ele>1074.8</ele>
        <time>2022-09-18T13:45:48Z</time>
      </trkpt>
      <trkpt lat="44.64757" lon="6.09967">
        <ele>1075</ele>
        <time>2022-09-18T13:45:49Z</time>
      </trkpt>
      <trkpt lat="44.64755" lon="6.09972">
        <ele>1075.4</ele>
        <time>2022-09-18T13:45:50Z</time>
      </trkpt>
      <trkpt lat="44.64752" lon="6.09978">
        <ele>1075.4</ele>
        <time>2022-09-18T13:45:51Z</time>
      </trkpt>
      <trkpt lat="44.6475" lon="6.09983">
        <ele>1075.4</ele>
        <time>2022-09-18T13:45:52Z</time>
      </trkpt>
      <trkpt lat="44.64748" lon="6.09989">
        <ele>1075.2</ele>
        <time>2022-09-18T13:45:53Z</time>
      </trkpt>
      <trkpt lat="44.64746" lon="6.09995">
        <ele>1075.4</ele>
        <time>2022-09-18T13:45:54Z</time>
      </trkpt>
      <trkpt lat="44.64743" lon="6.10008">
        <ele>1075.8</ele>
        <time>2022-09-18T13:45:56Z</time>
      </trkpt>
      <trkpt lat="44.64741" lon="6.10014">
        <ele>1076</ele>
        <time>2022-09-18T13:45:57Z</time>
      </trkpt>
      <trkpt lat="44.6474" lon="6.1002">
        <ele>1076.2</ele>
        <time>2022-09-18T13:45:58Z</time>
      </trkpt>
      <trkpt lat="44.64739" lon="6.10027">
        <ele>1076.4</ele>
        <time>2022-09-18T13:45:59Z</time>
      </trkpt>
      <trkpt lat="44.64737" lon="6.10033">
        <ele>1076.2</ele>
        <time>2022-09-18T13:46:00Z</time>
      </trkpt>
      <trkpt lat="44.64735" lon="6.1004">
        <ele>1076.4</ele>
        <time>2022-09-18T13:46:01Z</time>
      </trkpt>
      <trkpt lat="44.64732" lon="6.10047">
        <ele>1076.4</ele>
        <time>2022-09-18T13:46:02Z</time>
      </trkpt>
      <trkpt lat="44.6473" lon="6.10054">
        <ele>1076</ele>
        <time>2022-09-18T13:46:03Z</time>
      </trkpt>
      <trkpt lat="44.64728" lon="6.10061">
        <ele>1076</ele>
        <time>2022-09-18T13:46:04Z</time>
      </trkpt>
      <trkpt lat="44.64727" lon="6.10068">
        <ele>1075.6</ele>
        <time>2022-09-18T13:46:05Z</time>
      </trkpt>
      <trkpt lat="44.64726" lon="6.10075">
        <ele>1075.6</ele>
        <time>2022-09-18T13:46:06Z</time>
      </trkpt>
      <trkpt lat="44.64726" lon="6.10082">
        <ele>1075.6</ele>
        <time>2022-09-18T13:46:07Z</time>
      </trkpt>
      <trkpt lat="44.64726" lon="6.10088">
        <ele>1075.6</ele>
        <time>2022-09-18T13:46:08Z</time>
      </trkpt>
      <trkpt lat="44.64726" lon="6.10095">
        <ele>1075.8</ele>
        <time>2022-09-18T13:46:09Z</time>
      </trkpt>
      <trkpt lat="44.64727" lon="6.10101">
        <ele>1075.6</ele>
        <time>2022-09-18T13:46:10Z</time>
      </trkpt>
      <trkpt lat="44.64729" lon="6.10114">
        <ele>1075.8</ele>
        <time>2022-09-18T13:46:12Z</time>
      </trkpt>
      <trkpt lat="44.64729" lon="6.1012">
        <ele>1075.6</ele>
        <time>2022-09-18T13:46:13Z</time>
      </trkpt>
      <trkpt lat="44.6473" lon="6.10126">
        <ele>1075.8</ele>
        <time>2022-09-18T13:46:14Z</time>
      </trkpt>
      <trkpt lat="44.64732" lon="6.10132">
        <ele>1075.8</ele>
        <time>2022-09-18T13:46:15Z</time>
      </trkpt>
      <trkpt lat="44.64733" lon="6.10138">
        <ele>1076</ele>
        <time>2022-09-18T13:46:16Z</time>
      </trkpt>
      <trkpt lat="44.64733" lon="6.10143">
        <ele>1076</ele>
        <time>2022-09-18T13:46:17Z</time>
      </trkpt>
      <trkpt lat="44.64734" lon="6.10148">
        <ele>1076</ele>
        <time>2022-09-18T13:46:18Z</time>
      </trkpt>
      <trkpt lat="44.64736" lon="6.10153">
        <ele>1076</ele>
        <time>2022-09-18T13:46:19Z</time>
      </trkpt>
      <trkpt lat="44.64737" lon="6.10158">
        <ele>1075.8</ele>
        <time>2022-09-18T13:46:20Z</time>
      </trkpt>
      <trkpt lat="44.64738" lon="6.10163">
        <ele>1075.8</ele>
        <time>2022-09-18T13:46:21Z</time>
      </trkpt>
      <trkpt lat="44.64739" lon="6.10168">
        <ele>1075.8</ele>
        <time>2022-09-18T13:46:22Z</time>
      </trkpt>
      <trkpt lat="44.64741" lon="6.10173">
        <ele>1075.8</ele>
        <time>2022-09-18T13:46:23Z</time>
      </trkpt>
      <trkpt lat="44.64742" lon="6.10178">
        <ele>1075.8</ele>
        <time>2022-09-18T13:46:24Z</time>
      </trkpt>
      <trkpt lat="44.64742" lon="6.10184">
        <ele>1075.6</ele>
        <time>2022-09-18T13:46:25Z</time>
      </trkpt>
      <trkpt lat="44.64743" lon="6.10189">
        <ele>1075.6</ele>
        <time>2022-09-18T13:46:26Z</time>
      </trkpt>
      <trkpt lat="44.64743" lon="6.10193">
        <ele>1075.6</ele>
        <time>2022-09-18T13:46:27Z</time>
      </trkpt>
      <trkpt lat="44.64744" lon="6.10198">
        <ele>1075.6</ele>
        <time>2022-09-18T13:46:28Z</time>
      </trkpt>
      <trkpt lat="44.64745" lon="6.10202">
        <ele>1075.6</ele>
        <time>2022-09-18T13:46:29Z</time>
      </trkpt>
      <trkpt lat="44.64746" lon="6.10206">
        <ele>1075.6</ele>
        <time>2022-09-18T13:46:30Z</time>
      </trkpt>
      <trkpt lat="44.64747" lon="6.10211">
        <ele>1075.6</ele>
        <time>2022-09-18T13:46:31Z</time>
      </trkpt>
      <trkpt lat="44.64747" lon="6.10216">
        <ele>1075.6</ele>
        <time>2022-09-18T13:46:32Z</time>
      </trkpt>
      <trkpt lat="44.64748" lon="6.10221">
        <ele>1075.8</ele>
        <time>2022-09-18T13:46:33Z</time>
      </trkpt>
      <trkpt lat="44.64749" lon="6.10227">
        <ele>1075.8</ele>
        <time>2022-09-18T13:46:34Z</time>
      </trkpt>
      <trkpt lat="44.6475" lon="6.10233">
        <ele>1075.8</ele>
        <time>2022-09-18T13:46:35Z</time>
      </trkpt>
      <trkpt lat="44.64751" lon="6.1024">
        <ele>1075.8</ele>
        <time>2022-09-18T13:46:36Z</time>
      </trkpt>
      <trkpt lat="44.64752" lon="6.10247">
        <ele>1076</ele>
        <time>2022-09-18T13:46:37Z</time>
      </trkpt>
      <trkpt lat="44.64754" lon="6.10254">
        <ele>1076</ele>
        <time>2022-09-18T13:46:38Z</time>
      </trkpt>
      <trkpt lat="44.64755" lon="6.10261">
        <ele>1076</ele>
        <time>2022-09-18T13:46:39Z</time>
      </trkpt>
      <trkpt lat="44.64756" lon="6.10268">
        <ele>1076.2</ele>
        <time>2022-09-18T13:46:40Z</time>
      </trkpt>
      <trkpt lat="44.64758" lon="6.10275">
        <ele>1076.4</ele>
        <time>2022-09-18T13:46:41Z</time>
      </trkpt>
      <trkpt lat="44.64759" lon="6.10281">
        <ele>1076.4</ele>
        <time>2022-09-18T13:46:42Z</time>
      </trkpt>
      <trkpt lat="44.64759" lon="6.10286">
        <ele>1076.4</ele>
        <time>2022-09-18T13:46:43Z</time>
      </trkpt>
      <trkpt lat="44.6476" lon="6.10291">
        <ele>1076.2</ele>
        <time>2022-09-18T13:46:44Z</time>
      </trkpt>
      <trkpt lat="44.64762" lon="6.10299">
        <ele>1075.8</ele>
        <time>2022-09-18T13:46:46Z</time>
      </trkpt>
      <trkpt lat="44.64764" lon="6.10304">
        <ele>1075.6</ele>
        <time>2022-09-18T13:46:47Z</time>
      </trkpt>
      <trkpt lat="44.64765" lon="6.10308">
        <ele>1075.4</ele>
        <time>2022-09-18T13:46:48Z</time>
      </trkpt>
      <trkpt lat="44.64766" lon="6.10312">
        <ele>1075.4</ele>
        <time>2022-09-18T13:46:49Z</time>
      </trkpt>
      <trkpt lat="44.64767" lon="6.10316">
        <ele>1075.4</ele>
        <time>2022-09-18T13:46:50Z</time>
      </trkpt>
      <trkpt lat="44.64768" lon="6.1032">
        <ele>1075.6</ele>
        <time>2022-09-18T13:46:51Z</time>
      </trkpt>
      <trkpt lat="44.64769" lon="6.10324">
        <ele>1075.4</ele>
        <time>2022-09-18T13:46:52Z</time>
      </trkpt>
      <trkpt lat="44.64769" lon="6.10326">
        <ele>1075.4</ele>
        <time>2022-09-18T13:46:53Z</time>
      </trkpt>
      <trkpt lat="44.6477" lon="6.10331">
        <ele>1075.2</ele>
        <time>2022-09-18T13:46:55Z</time>
      </trkpt>
      <trkpt lat="44.64771" lon="6.10337">
        <ele>1074.6</ele>
        <time>2022-09-18T13:46:58Z</time>
      </trkpt>
      <trkpt lat="44.64772" lon="6.10341">
        <ele>1074.6</ele>
        <time>2022-09-18T13:47:00Z</time>
      </trkpt>
      <trkpt lat="44.64775" lon="6.10341">
        <ele>1074.6</ele>
        <time>2022-09-18T13:47:03Z</time>
      </trkpt>
      <trkpt lat="44.64774" lon="6.10338">
        <ele>1074.4</ele>
        <time>2022-09-18T13:47:05Z</time>
      </trkpt>
      <trkpt lat="44.64772" lon="6.10335">
        <ele>1074.6</ele>
        <time>2022-09-18T13:47:07Z</time>
      </trkpt>
      <trkpt lat="44.64771" lon="6.10333">
        <ele>1075</ele>
        <time>2022-09-18T13:47:09Z</time>
      </trkpt>
      <trkpt lat="44.64771" lon="6.10329">
        <ele>1075.6</ele>
        <time>2022-09-18T13:47:11Z</time>
      </trkpt>
      <trkpt lat="44.6477" lon="6.10326">
        <ele>1075.8</ele>
        <time>2022-09-18T13:47:13Z</time>
      </trkpt>
      <trkpt lat="44.64769" lon="6.10323">
        <ele>1076</ele>
        <time>2022-09-18T13:47:15Z</time>
      </trkpt>
      <trkpt lat="44.64768" lon="6.10319">
        <ele>1076</ele>
        <time>2022-09-18T13:47:17Z</time>
      </trkpt>
      <trkpt lat="44.64766" lon="6.10315">
        <ele>1076.2</ele>
        <time>2022-09-18T13:47:19Z</time>
      </trkpt>
      <trkpt lat="44.64765" lon="6.10313">
        <ele>1076.2</ele>
        <time>2022-09-18T13:47:20Z</time>
      </trkpt>
      <trkpt lat="44.64764" lon="6.10311">
        <ele>1076.2</ele>
        <time>2022-09-18T13:47:21Z</time>
      </trkpt>
      <trkpt lat="44.64764" lon="6.10308">
        <ele>1076.2</ele>
        <time>2022-09-18T13:47:22Z</time>
      </trkpt>
      <trkpt lat="44.64764" lon="6.10305">
        <ele>1076.2</ele>
        <time>2022-09-18T13:47:23Z</time>
      </trkpt>
      <trkpt lat="44.64764" lon="6.10302">
        <ele>1076</ele>
        <time>2022-09-18T13:47:24Z</time>
      </trkpt>
      <trkpt lat="44.64763" lon="6.10299">
        <ele>1076.2</ele>
        <time>2022-09-18T13:47:25Z</time>
      </trkpt>
      <trkpt lat="44.64763" lon="6.10296">
        <ele>1076</ele>
        <time>2022-09-18T13:47:26Z</time>
      </trkpt>
      <trkpt lat="44.64763" lon="6.10292">
        <ele>1075.8</ele>
        <time>2022-09-18T13:47:27Z</time>
      </trkpt>
      <trkpt lat="44.64762" lon="6.10289">
        <ele>1075.8</ele>
        <time>2022-09-18T13:47:28Z</time>
      </trkpt>
      <trkpt lat="44.64762" lon="6.10286">
        <ele>1076</ele>
        <time>2022-09-18T13:47:29Z</time>
      </trkpt>
      <trkpt lat="44.64762" lon="6.10282">
        <ele>1076</ele>
        <time>2022-09-18T13:47:30Z</time>
      </trkpt>
      <trkpt lat="44.64761" lon="6.10279">
        <ele>1076</ele>
        <time>2022-09-18T13:47:31Z</time>
      </trkpt>
      <trkpt lat="44.64761" lon="6.10276">
        <ele>1076</ele>
        <time>2022-09-18T13:47:32Z</time>
      </trkpt>
      <trkpt lat="44.6476" lon="6.10273">
        <ele>1076</ele>
        <time>2022-09-18T13:47:33Z</time>
      </trkpt>
      <trkpt lat="44.6476" lon="6.10271">
        <ele>1075.6</ele>
        <time>2022-09-18T13:47:34Z</time>
      </trkpt>
      <trkpt lat="44.64759" lon="6.10267">
        <ele>1075.4</ele>
        <time>2022-09-18T13:47:35Z</time>
      </trkpt>
      <trkpt lat="44.64757" lon="6.10258">
        <ele>1075.2</ele>
        <time>2022-09-18T13:47:37Z</time>
      </trkpt>
      <trkpt lat="44.64756" lon="6.10255">
        <ele>1075.2</ele>
        <time>2022-09-18T13:47:38Z</time>
      </trkpt>
      <trkpt lat="44.64756" lon="6.10251">
        <ele>1075.2</ele>
        <time>2022-09-18T13:47:39Z</time>
      </trkpt>
      <trkpt lat="44.64755" lon="6.10247">
        <ele>1075.2</ele>
        <time>2022-09-18T13:47:40Z</time>
      </trkpt>
      <trkpt lat="44.64755" lon="6.10244">
        <ele>1075</ele>
        <time>2022-09-18T13:47:41Z</time>
      </trkpt>
      <trkpt lat="44.64754" lon="6.10241">
        <ele>1075</ele>
        <time>2022-09-18T13:47:42Z</time>
      </trkpt>
      <trkpt lat="44.64753" lon="6.10237">
        <ele>1074.8</ele>
        <time>2022-09-18T13:47:43Z</time>
      </trkpt>
      <trkpt lat="44.64753" lon="6.10233">
        <ele>1074.8</ele>
        <time>2022-09-18T13:47:44Z</time>
      </trkpt>
      <trkpt lat="44.64752" lon="6.10229">
        <ele>1074.8</ele>
        <time>2022-09-18T13:47:45Z</time>
      </trkpt>
      <trkpt lat="44.64751" lon="6.10226">
        <ele>1074.8</ele>
        <time>2022-09-18T13:47:46Z</time>
      </trkpt>
      <trkpt lat="44.6475" lon="6.10222">
        <ele>1074.6</ele>
        <time>2022-09-18T13:47:47Z</time>
      </trkpt>
      <trkpt lat="44.64749" lon="6.10218">
        <ele>1074.6</ele>
        <time>2022-09-18T13:47:48Z</time>
      </trkpt>
      <trkpt lat="44.64748" lon="6.10214">
        <ele>1074.4</ele>
        <time>2022-09-18T13:47:49Z</time>
      </trkpt>
      <trkpt lat="44.64747" lon="6.1021">
        <ele>1074.6</ele>
        <time>2022-09-18T13:47:50Z</time>
      </trkpt>
      <trkpt lat="44.64747" lon="6.10206">
        <ele>1074.4</ele>
        <time>2022-09-18T13:47:51Z</time>
      </trkpt>
      <trkpt lat="44.64746" lon="6.10202">
        <ele>1074.4</ele>
        <time>2022-09-18T13:47:52Z</time>
      </trkpt>
      <trkpt lat="44.64745" lon="6.10199">
        <ele>1074.4</ele>
        <time>2022-09-18T13:47:53Z</time>
      </trkpt>
      <trkpt lat="44.64744" lon="6.10191">
        <ele>1074</ele>
        <time>2022-09-18T13:47:55Z</time>
      </trkpt>
      <trkpt lat="44.64743" lon="6.10187">
        <ele>1073.8</ele>
        <time>2022-09-18T13:47:56Z</time>
      </trkpt>
      <trkpt lat="44.64743" lon="6.10183">
        <ele>1073.8</ele>
        <time>2022-09-18T13:47:57Z</time>
      </trkpt>
      <trkpt lat="44.64742" lon="6.1018">
        <ele>1073.6</ele>
        <time>2022-09-18T13:47:58Z</time>
      </trkpt>
      <trkpt lat="44.64741" lon="6.10176">
        <ele>1073.4</ele>
        <time>2022-09-18T13:47:59Z</time>
      </trkpt>
      <trkpt lat="44.6474" lon="6.10172">
        <ele>1073.4</ele>
        <time>2022-09-18T13:48:00Z</time>
      </trkpt>
      <trkpt lat="44.64739" lon="6.10169">
        <ele>1073.4</ele>
        <time>2022-09-18T13:48:01Z</time>
      </trkpt>
      <trkpt lat="44.64738" lon="6.10166">
        <ele>1073.2</ele>
        <time>2022-09-18T13:48:02Z</time>
      </trkpt>
      <trkpt lat="44.64738" lon="6.10163">
        <ele>1073.2</ele>
        <time>2022-09-18T13:48:03Z</time>
      </trkpt>
      <trkpt lat="44.64737" lon="6.1016">
        <ele>1073</ele>
        <time>2022-09-18T13:48:04Z</time>
      </trkpt>
      <trkpt lat="44.64736" lon="6.10155">
        <ele>1073</ele>
        <time>2022-09-18T13:48:05Z</time>
      </trkpt>
      <trkpt lat="44.64735" lon="6.10146">
        <ele>1072.8</ele>
        <time>2022-09-18T13:48:07Z</time>
      </trkpt>
      <trkpt lat="44.64734" lon="6.1014">
        <ele>1072.8</ele>
        <time>2022-09-18T13:48:08Z</time>
      </trkpt>
      <trkpt lat="44.64732" lon="6.10134">
        <ele>1072.6</ele>
        <time>2022-09-18T13:48:09Z</time>
      </trkpt>
      <trkpt lat="44.64731" lon="6.10129">
        <ele>1072.8</ele>
        <time>2022-09-18T13:48:10Z</time>
      </trkpt>
      <trkpt lat="44.6473" lon="6.10123">
        <ele>1073</ele>
        <time>2022-09-18T13:48:11Z</time>
      </trkpt>
      <trkpt lat="44.6473" lon="6.10118">
        <ele>1073.2</ele>
        <time>2022-09-18T13:48:12Z</time>
      </trkpt>
      <trkpt lat="44.64728" lon="6.10108">
        <ele>1072.8</ele>
        <time>2022-09-18T13:48:14Z</time>
      </trkpt>
      <trkpt lat="44.64725" lon="6.10094">
        <ele>1072.8</ele>
        <time>2022-09-18T13:48:17Z</time>
      </trkpt>
      <trkpt lat="44.64724" lon="6.1009">
        <ele>1072.6</ele>
        <time>2022-09-18T13:48:18Z</time>
      </trkpt>
      <trkpt lat="44.64724" lon="6.10087">
        <ele>1072.2</ele>
        <time>2022-09-18T13:48:19Z</time>
      </trkpt>
      <trkpt lat="44.64723" lon="6.10084">
        <ele>1072.2</ele>
        <time>2022-09-18T13:48:20Z</time>
      </trkpt>
      <trkpt lat="44.64723" lon="6.10081">
        <ele>1071.8</ele>
        <time>2022-09-18T13:48:21Z</time>
      </trkpt>
      <trkpt lat="44.64723" lon="6.10078">
        <ele>1071.6</ele>
        <time>2022-09-18T13:48:22Z</time>
      </trkpt>
      <trkpt lat="44.64723" lon="6.10073">
        <ele>1071.6</ele>
        <time>2022-09-18T13:48:23Z</time>
      </trkpt>
      <trkpt lat="44.64722" lon="6.10068">
        <ele>1071.4</ele>
        <time>2022-09-18T13:48:24Z</time>
      </trkpt>
      <trkpt lat="44.64721" lon="6.10063">
        <ele>1071.2</ele>
        <time>2022-09-18T13:48:25Z</time>
      </trkpt>
      <trkpt lat="44.64719" lon="6.10059">
        <ele>1070.8</ele>
        <time>2022-09-18T13:48:26Z</time>
      </trkpt>
      <trkpt lat="44.64716" lon="6.10059">
        <ele>1070.6</ele>
        <time>2022-09-18T13:48:27Z</time>
      </trkpt>
      <trkpt lat="44.64713" lon="6.1006">
        <ele>1070.4</ele>
        <time>2022-09-18T13:48:28Z</time>
      </trkpt>
      <trkpt lat="44.64711" lon="6.10062">
        <ele>1070</ele>
        <time>2022-09-18T13:48:29Z</time>
      </trkpt>
      <trkpt lat="44.64709" lon="6.10066">
        <ele>1070</ele>
        <time>2022-09-18T13:48:30Z</time>
      </trkpt>
      <trkpt lat="44.64704" lon="6.10072">
        <ele>1070</ele>
        <time>2022-09-18T13:48:32Z</time>
      </trkpt>
      <trkpt lat="44.64701" lon="6.10076">
        <ele>1070.2</ele>
        <time>2022-09-18T13:48:33Z</time>
      </trkpt>
      <trkpt lat="44.64699" lon="6.10079">
        <ele>1070</ele>
        <time>2022-09-18T13:48:34Z</time>
      </trkpt>
      <trkpt lat="44.64694" lon="6.10086">
        <ele>1070.2</ele>
        <time>2022-09-18T13:48:36Z</time>
      </trkpt>
      <trkpt lat="44.64693" lon="6.10089">
        <ele>1070</ele>
        <time>2022-09-18T13:48:37Z</time>
      </trkpt>
      <trkpt lat="44.64691" lon="6.10092">
        <ele>1070</ele>
        <time>2022-09-18T13:48:38Z</time>
      </trkpt>
      <trkpt lat="44.6469" lon="6.10095">
        <ele>1070.4</ele>
        <time>2022-09-18T13:48:39Z</time>
      </trkpt>
      <trkpt lat="44.64688" lon="6.10099">
        <ele>1070.8</ele>
        <time>2022-09-18T13:48:40Z</time>
      </trkpt>
      <trkpt lat="44.64687" lon="6.10103">
        <ele>1070.8</ele>
        <time>2022-09-18T13:48:41Z</time>
      </trkpt>
      <trkpt lat="44.64686" lon="6.10106">
        <ele>1071.2</ele>
        <time>2022-09-18T13:48:42Z</time>
      </trkpt>
      <trkpt lat="44.64685" lon="6.1011">
        <ele>1071.4</ele>
        <time>2022-09-18T13:48:43Z</time>
      </trkpt>
      <trkpt lat="44.64685" lon="6.10114">
        <ele>1071.6</ele>
        <time>2022-09-18T13:48:44Z</time>
      </trkpt>
      <trkpt lat="44.64684" lon="6.10118">
        <ele>1071.6</ele>
        <time>2022-09-18T13:48:45Z</time>
      </trkpt>
      <trkpt lat="44.64682" lon="6.10125">
        <ele>1071.8</ele>
        <time>2022-09-18T13:48:47Z</time>
      </trkpt>
      <trkpt lat="44.64682" lon="6.10128">
        <ele>1072.2</ele>
        <time>2022-09-18T13:48:48Z</time>
      </trkpt>
      <trkpt lat="44.64681" lon="6.10131">
        <ele>1072.4</ele>
        <time>2022-09-18T13:48:49Z</time>
      </trkpt>
      <trkpt lat="44.6468" lon="6.10134">
        <ele>1072.6</ele>
        <time>2022-09-18T13:48:50Z</time>
      </trkpt>
      <trkpt lat="44.64679" lon="6.10137">
        <ele>1072.8</ele>
        <time>2022-09-18T13:48:51Z</time>
      </trkpt>
      <trkpt lat="44.64678" lon="6.1014">
        <ele>1072</ele>
        <time>2022-09-18T13:48:52Z</time>
      </trkpt>
      <trkpt lat="44.64677" lon="6.10144">
        <ele>1072.6</ele>
        <time>2022-09-18T13:48:53Z</time>
      </trkpt>
      <trkpt lat="44.64675" lon="6.10147">
        <ele>1073</ele>
        <time>2022-09-18T13:48:54Z</time>
      </trkpt>
      <trkpt lat="44.64673" lon="6.10151">
        <ele>1073.6</ele>
        <time>2022-09-18T13:48:55Z</time>
      </trkpt>
      <trkpt lat="44.64671" lon="6.10155">
        <ele>1074.2</ele>
        <time>2022-09-18T13:48:56Z</time>
      </trkpt>
      <trkpt lat="44.64669" lon="6.10158">
        <ele>1074.6</ele>
        <time>2022-09-18T13:48:57Z</time>
      </trkpt>
      <trkpt lat="44.64665" lon="6.10166">
        <ele>1075</ele>
        <time>2022-09-18T13:48:59Z</time>
      </trkpt>
      <trkpt lat="44.64663" lon="6.1017">
        <ele>1075.2</ele>
        <time>2022-09-18T13:49:00Z</time>
      </trkpt>
      <trkpt lat="44.64661" lon="6.10174">
        <ele>1075.4</ele>
        <time>2022-09-18T13:49:01Z</time>
      </trkpt>
      <trkpt lat="44.64659" lon="6.10182">
        <ele>1076.2</ele>
        <time>2022-09-18T13:49:03Z</time>
      </trkpt>
      <trkpt lat="44.64657" lon="6.10186">
        <ele>1076.6</ele>
        <time>2022-09-18T13:49:04Z</time>
      </trkpt>
      <trkpt lat="44.64656" lon="6.1019">
        <ele>1076.8</ele>
        <time>2022-09-18T13:49:05Z</time>
      </trkpt>
      <trkpt lat="44.64654" lon="6.10194">
        <ele>1077.2</ele>
        <time>2022-09-18T13:49:06Z</time>
      </trkpt>
      <trkpt lat="44.64653" lon="6.10197">
        <ele>1077.4</ele>
        <time>2022-09-18T13:49:07Z</time>
      </trkpt>
      <trkpt lat="44.64651" lon="6.10201">
        <ele>1077.6</ele>
        <time>2022-09-18T13:49:08Z</time>
      </trkpt>
      <trkpt lat="44.64648" lon="6.10207">
        <ele>1078.8</ele>
        <time>2022-09-18T13:49:10Z</time>
      </trkpt>
      <trkpt lat="44.64645" lon="6.10209">
        <ele>1079.2</ele>
        <time>2022-09-18T13:49:11Z</time>
      </trkpt>
      <trkpt lat="44.64643" lon="6.10211">
        <ele>1079.6</ele>
        <time>2022-09-18T13:49:12Z</time>
      </trkpt>
      <trkpt lat="44.6464" lon="6.10214">
        <ele>1079.6</ele>
        <time>2022-09-18T13:49:13Z</time>
      </trkpt>
      <trkpt lat="44.64637" lon="6.10216">
        <ele>1079.8</ele>
        <time>2022-09-18T13:49:14Z</time>
      </trkpt>
      <trkpt lat="44.64635" lon="6.10218">
        <ele>1080.2</ele>
        <time>2022-09-18T13:49:15Z</time>
      </trkpt>
      <trkpt lat="44.64632" lon="6.10221">
        <ele>1080.2</ele>
        <time>2022-09-18T13:49:16Z</time>
      </trkpt>
      <trkpt lat="44.64629" lon="6.10223">
        <ele>1081</ele>
        <time>2022-09-18T13:49:17Z</time>
      </trkpt>
      <trkpt lat="44.64627" lon="6.10226">
        <ele>1081.6</ele>
        <time>2022-09-18T13:49:18Z</time>
      </trkpt>
      <trkpt lat="44.64624" lon="6.10228">
        <ele>1081.8</ele>
        <time>2022-09-18T13:49:19Z</time>
      </trkpt>
      <trkpt lat="44.64622" lon="6.1023">
        <ele>1082</ele>
        <time>2022-09-18T13:49:20Z</time>
      </trkpt>
      <trkpt lat="44.64619" lon="6.10235">
        <ele>1082.6</ele>
        <time>2022-09-18T13:49:22Z</time>
      </trkpt>
      <trkpt lat="44.6462" lon="6.10241">
        <ele>1083.6</ele>
        <time>2022-09-18T13:49:24Z</time>
      </trkpt>
      <trkpt lat="44.64621" lon="6.10245">
        <ele>1083.8</ele>
        <time>2022-09-18T13:49:25Z</time>
      </trkpt>
      <trkpt lat="44.64622" lon="6.10247">
        <ele>1084.4</ele>
        <time>2022-09-18T13:49:26Z</time>
      </trkpt>
      <trkpt lat="44.64624" lon="6.1025">
        <ele>1084.6</ele>
        <time>2022-09-18T13:49:27Z</time>
      </trkpt>
      <trkpt lat="44.64629" lon="6.10261">
        <ele>1085.6</ele>
        <time>2022-09-18T13:49:30Z</time>
      </trkpt>
      <trkpt lat="44.64636" lon="6.10275">
        <ele>1086</ele>
        <time>2022-09-18T13:49:33Z</time>
      </trkpt>
      <trkpt lat="44.6464" lon="6.1029">
        <ele>1086.6</ele>
        <time>2022-09-18T13:49:36Z</time>
      </trkpt>
      <trkpt lat="44.64643" lon="6.10307">
        <ele>1086.8</ele>
        <time>2022-09-18T13:49:39Z</time>
      </trkpt>
      <trkpt lat="44.64645" lon="6.10318">
        <ele>1086.8</ele>
        <time>2022-09-18T13:49:41Z</time>
      </trkpt>
      <trkpt lat="44.64646" lon="6.10325">
        <ele>1087</ele>
        <time>2022-09-18T13:49:42Z</time>
      </trkpt>
      <trkpt lat="44.64647" lon="6.10331">
        <ele>1087.4</ele>
        <time>2022-09-18T13:49:43Z</time>
      </trkpt>
      <trkpt lat="44.64649" lon="6.10343">
        <ele>1087.4</ele>
        <time>2022-09-18T13:49:45Z</time>
      </trkpt>
      <trkpt lat="44.64649" lon="6.10349">
        <ele>1087.6</ele>
        <time>2022-09-18T13:49:46Z</time>
      </trkpt>
      <trkpt lat="44.64651" lon="6.10358">
        <ele>1087.8</ele>
        <time>2022-09-18T13:49:48Z</time>
      </trkpt>
      <trkpt lat="44.64651" lon="6.10364">
        <ele>1088.6</ele>
        <time>2022-09-18T13:49:50Z</time>
      </trkpt>
      <trkpt lat="44.64651" lon="6.1037">
        <ele>1088.8</ele>
        <time>2022-09-18T13:49:51Z</time>
      </trkpt>
      <trkpt lat="44.64651" lon="6.10377">
        <ele>1089.6</ele>
        <time>2022-09-18T13:49:52Z</time>
      </trkpt>
      <trkpt lat="44.6465" lon="6.10383">
        <ele>1090.2</ele>
        <time>2022-09-18T13:49:53Z</time>
      </trkpt>
      <trkpt lat="44.64649" lon="6.10388">
        <ele>1090.2</ele>
        <time>2022-09-18T13:49:54Z</time>
      </trkpt>
      <trkpt lat="44.64649" lon="6.10393">
        <ele>1090.4</ele>
        <time>2022-09-18T13:49:55Z</time>
      </trkpt>
      <trkpt lat="44.64649" lon="6.10404">
        <ele>1090.8</ele>
        <time>2022-09-18T13:49:57Z</time>
      </trkpt>
      <trkpt lat="44.64647" lon="6.10412">
        <ele>1091.2</ele>
        <time>2022-09-18T13:49:58Z</time>
      </trkpt>
      <trkpt lat="44.64645" lon="6.10421">
        <ele>1091.4</ele>
        <time>2022-09-18T13:49:59Z</time>
      </trkpt>
      <trkpt lat="44.64644" lon="6.10429">
        <ele>1091.4</ele>
        <time>2022-09-18T13:50:00Z</time>
      </trkpt>
      <trkpt lat="44.64642" lon="6.10437">
        <ele>1092.2</ele>
        <time>2022-09-18T13:50:01Z</time>
      </trkpt>
      <trkpt lat="44.64641" lon="6.10444">
        <ele>1092.2</ele>
        <time>2022-09-18T13:50:02Z</time>
      </trkpt>
      <trkpt lat="44.6464" lon="6.10451">
        <ele>1092.2</ele>
        <time>2022-09-18T13:50:03Z</time>
      </trkpt>
      <trkpt lat="44.64639" lon="6.10458">
        <ele>1092</ele>
        <time>2022-09-18T13:50:04Z</time>
      </trkpt>
      <trkpt lat="44.64638" lon="6.10465">
        <ele>1092</ele>
        <time>2022-09-18T13:50:05Z</time>
      </trkpt>
      <trkpt lat="44.64637" lon="6.10471">
        <ele>1092.4</ele>
        <time>2022-09-18T13:50:06Z</time>
      </trkpt>
      <trkpt lat="44.64636" lon="6.10478">
        <ele>1092.4</ele>
        <time>2022-09-18T13:50:07Z</time>
      </trkpt>
      <trkpt lat="44.64635" lon="6.10484">
        <ele>1092.8</ele>
        <time>2022-09-18T13:50:08Z</time>
      </trkpt>
      <trkpt lat="44.64635" lon="6.1049">
        <ele>1093.4</ele>
        <time>2022-09-18T13:50:09Z</time>
      </trkpt>
      <trkpt lat="44.64634" lon="6.10496">
        <ele>1093.6</ele>
        <time>2022-09-18T13:50:10Z</time>
      </trkpt>
      <trkpt lat="44.64634" lon="6.10508">
        <ele>1093.6</ele>
        <time>2022-09-18T13:50:12Z</time>
      </trkpt>
      <trkpt lat="44.64634" lon="6.10514">
        <ele>1093.8</ele>
        <time>2022-09-18T13:50:13Z</time>
      </trkpt>
      <trkpt lat="44.64633" lon="6.1052">
        <ele>1093.6</ele>
        <time>2022-09-18T13:50:14Z</time>
      </trkpt>
      <trkpt lat="44.64634" lon="6.10526">
        <ele>1093.8</ele>
        <time>2022-09-18T13:50:15Z</time>
      </trkpt>
      <trkpt lat="44.64635" lon="6.10532">
        <ele>1093.8</ele>
        <time>2022-09-18T13:50:16Z</time>
      </trkpt>
      <trkpt lat="44.64635" lon="6.10539">
        <ele>1093.8</ele>
        <time>2022-09-18T13:50:17Z</time>
      </trkpt>
      <trkpt lat="44.64635" lon="6.10545">
        <ele>1094</ele>
        <time>2022-09-18T13:50:18Z</time>
      </trkpt>
      <trkpt lat="44.64634" lon="6.10552">
        <ele>1093.8</ele>
        <time>2022-09-18T13:50:19Z</time>
      </trkpt>
      <trkpt lat="44.64634" lon="6.10559">
        <ele>1093.6</ele>
        <time>2022-09-18T13:50:20Z</time>
      </trkpt>
      <trkpt lat="44.64632" lon="6.10566">
        <ele>1093.6</ele>
        <time>2022-09-18T13:50:21Z</time>
      </trkpt>
      <trkpt lat="44.6463" lon="6.10574">
        <ele>1093</ele>
        <time>2022-09-18T13:50:22Z</time>
      </trkpt>
      <trkpt lat="44.64628" lon="6.10582">
        <ele>1093.2</ele>
        <time>2022-09-18T13:50:23Z</time>
      </trkpt>
      <trkpt lat="44.64624" lon="6.10591">
        <ele>1093</ele>
        <time>2022-09-18T13:50:24Z</time>
      </trkpt>
      <trkpt lat="44.6462" lon="6.10601">
        <ele>1093</ele>
        <time>2022-09-18T13:50:25Z</time>
      </trkpt>
      <trkpt lat="44.64617" lon="6.10611">
        <ele>1092.4</ele>
        <time>2022-09-18T13:50:26Z</time>
      </trkpt>
      <trkpt lat="44.64614" lon="6.1062">
        <ele>1091.2</ele>
        <time>2022-09-18T13:50:27Z</time>
      </trkpt>
      <trkpt lat="44.64612" lon="6.1063">
        <ele>1091.2</ele>
        <time>2022-09-18T13:50:28Z</time>
      </trkpt>
      <trkpt lat="44.6461" lon="6.10639">
        <ele>1090.6</ele>
        <time>2022-09-18T13:50:29Z</time>
      </trkpt>
      <trkpt lat="44.64608" lon="6.10647">
        <ele>1089.6</ele>
        <time>2022-09-18T13:50:30Z</time>
      </trkpt>
      <trkpt lat="44.64606" lon="6.10655">
        <ele>1089.6</ele>
        <time>2022-09-18T13:50:31Z</time>
      </trkpt>
      <trkpt lat="44.64605" lon="6.10662">
        <ele>1090</ele>
        <time>2022-09-18T13:50:32Z</time>
      </trkpt>
      <trkpt lat="44.64604" lon="6.10669">
        <ele>1089.4</ele>
        <time>2022-09-18T13:50:33Z</time>
      </trkpt>
      <trkpt lat="44.64604" lon="6.10682">
        <ele>1089.8</ele>
        <time>2022-09-18T13:50:35Z</time>
      </trkpt>
      <trkpt lat="44.64604" lon="6.10688">
        <ele>1090.6</ele>
        <time>2022-09-18T13:50:36Z</time>
      </trkpt>
      <trkpt lat="44.64604" lon="6.10695">
        <ele>1091</ele>
        <time>2022-09-18T13:50:37Z</time>
      </trkpt>
      <trkpt lat="44.64604" lon="6.10701">
        <ele>1091</ele>
        <time>2022-09-18T13:50:38Z</time>
      </trkpt>
      <trkpt lat="44.64604" lon="6.10707">
        <ele>1091.2</ele>
        <time>2022-09-18T13:50:39Z</time>
      </trkpt>
      <trkpt lat="44.64605" lon="6.10713">
        <ele>1091</ele>
        <time>2022-09-18T13:50:40Z</time>
      </trkpt>
      <trkpt lat="44.64606" lon="6.1072">
        <ele>1091.2</ele>
        <time>2022-09-18T13:50:41Z</time>
      </trkpt>
      <trkpt lat="44.64606" lon="6.10728">
        <ele>1091.4</ele>
        <time>2022-09-18T13:50:42Z</time>
      </trkpt>
      <trkpt lat="44.64605" lon="6.10735">
        <ele>1091.4</ele>
        <time>2022-09-18T13:50:43Z</time>
      </trkpt>
      <trkpt lat="44.64604" lon="6.10743">
        <ele>1091</ele>
        <time>2022-09-18T13:50:44Z</time>
      </trkpt>
      <trkpt lat="44.64601" lon="6.10751">
        <ele>1090.8</ele>
        <time>2022-09-18T13:50:45Z</time>
      </trkpt>
      <trkpt lat="44.64598" lon="6.10758">
        <ele>1090.4</ele>
        <time>2022-09-18T13:50:46Z</time>
      </trkpt>
      <trkpt lat="44.64594" lon="6.10766">
        <ele>1090.6</ele>
        <time>2022-09-18T13:50:47Z</time>
      </trkpt>
      <trkpt lat="44.6459" lon="6.10773">
        <ele>1090</ele>
        <time>2022-09-18T13:50:48Z</time>
      </trkpt>
      <trkpt lat="44.64586" lon="6.1078">
        <ele>1089.6</ele>
        <time>2022-09-18T13:50:49Z</time>
      </trkpt>
      <trkpt lat="44.64582" lon="6.10785">
        <ele>1088.6</ele>
        <time>2022-09-18T13:50:50Z</time>
      </trkpt>
      <trkpt lat="44.64578" lon="6.10791">
        <ele>1088.2</ele>
        <time>2022-09-18T13:50:51Z</time>
      </trkpt>
      <trkpt lat="44.64574" lon="6.10795">
        <ele>1088.4</ele>
        <time>2022-09-18T13:50:52Z</time>
      </trkpt>
      <trkpt lat="44.6457" lon="6.10799">
        <ele>1088.8</ele>
        <time>2022-09-18T13:50:53Z</time>
      </trkpt>
      <trkpt lat="44.64567" lon="6.10803">
        <ele>1088.6</ele>
        <time>2022-09-18T13:50:54Z</time>
      </trkpt>
      <trkpt lat="44.64563" lon="6.10806">
        <ele>1088.8</ele>
        <time>2022-09-18T13:50:55Z</time>
      </trkpt>
      <trkpt lat="44.64559" lon="6.10809">
        <ele>1089.4</ele>
        <time>2022-09-18T13:50:56Z</time>
      </trkpt>
      <trkpt lat="44.64556" lon="6.10812">
        <ele>1089.6</ele>
        <time>2022-09-18T13:50:57Z</time>
      </trkpt>
      <trkpt lat="44.64553" lon="6.10815">
        <ele>1089.8</ele>
        <time>2022-09-18T13:50:58Z</time>
      </trkpt>
      <trkpt lat="44.64549" lon="6.10819">
        <ele>1090</ele>
        <time>2022-09-18T13:50:59Z</time>
      </trkpt>
      <trkpt lat="44.64545" lon="6.10822">
        <ele>1090</ele>
        <time>2022-09-18T13:51:00Z</time>
      </trkpt>
      <trkpt lat="44.64542" lon="6.10826">
        <ele>1090.4</ele>
        <time>2022-09-18T13:51:01Z</time>
      </trkpt>
      <trkpt lat="44.64539" lon="6.10829">
        <ele>1090.4</ele>
        <time>2022-09-18T13:51:02Z</time>
      </trkpt>
      <trkpt lat="44.64536" lon="6.10831">
        <ele>1091</ele>
        <time>2022-09-18T13:51:03Z</time>
      </trkpt>
      <trkpt lat="44.64532" lon="6.10834">
        <ele>1091.2</ele>
        <time>2022-09-18T13:51:04Z</time>
      </trkpt>
      <trkpt lat="44.6453" lon="6.10836">
        <ele>1091.4</ele>
        <time>2022-09-18T13:51:05Z</time>
      </trkpt>
      <trkpt lat="44.64527" lon="6.10838">
        <ele>1091.8</ele>
        <time>2022-09-18T13:51:06Z</time>
      </trkpt>
      <trkpt lat="44.64524" lon="6.10841">
        <ele>1092</ele>
        <time>2022-09-18T13:51:07Z</time>
      </trkpt>
      <trkpt lat="44.64521" lon="6.10843">
        <ele>1092.4</ele>
        <time>2022-09-18T13:51:08Z</time>
      </trkpt>
      <trkpt lat="44.64519" lon="6.10846">
        <ele>1092.6</ele>
        <time>2022-09-18T13:51:09Z</time>
      </trkpt>
      <trkpt lat="44.64517" lon="6.10849">
        <ele>1092.6</ele>
        <time>2022-09-18T13:51:10Z</time>
      </trkpt>
      <trkpt lat="44.64514" lon="6.10853">
        <ele>1092.6</ele>
        <time>2022-09-18T13:51:11Z</time>
      </trkpt>
      <trkpt lat="44.64511" lon="6.10857">
        <ele>1092.8</ele>
        <time>2022-09-18T13:51:12Z</time>
      </trkpt>
      <trkpt lat="44.64508" lon="6.10862">
        <ele>1093.2</ele>
        <time>2022-09-18T13:51:13Z</time>
      </trkpt>
      <trkpt lat="44.64506" lon="6.10868">
        <ele>1093.2</ele>
        <time>2022-09-18T13:51:14Z</time>
      </trkpt>
      <trkpt lat="44.64503" lon="6.10873">
        <ele>1093.2</ele>
        <time>2022-09-18T13:51:15Z</time>
      </trkpt>
      <trkpt lat="44.64501" lon="6.10878">
        <ele>1093.2</ele>
        <time>2022-09-18T13:51:16Z</time>
      </trkpt>
      <trkpt lat="44.64499" lon="6.10883">
        <ele>1093.6</ele>
        <time>2022-09-18T13:51:17Z</time>
      </trkpt>
      <trkpt lat="44.64497" lon="6.10889">
        <ele>1093.8</ele>
        <time>2022-09-18T13:51:18Z</time>
      </trkpt>
      <trkpt lat="44.64495" lon="6.10894">
        <ele>1093.8</ele>
        <time>2022-09-18T13:51:19Z</time>
      </trkpt>
      <trkpt lat="44.64493" lon="6.10899">
        <ele>1093.8</ele>
        <time>2022-09-18T13:51:20Z</time>
      </trkpt>
      <trkpt lat="44.6449" lon="6.10904">
        <ele>1094.2</ele>
        <time>2022-09-18T13:51:21Z</time>
      </trkpt>
      <trkpt lat="44.64488" lon="6.10909">
        <ele>1094.4</ele>
        <time>2022-09-18T13:51:22Z</time>
      </trkpt>
      <trkpt lat="44.64486" lon="6.10914">
        <ele>1094.4</ele>
        <time>2022-09-18T13:51:23Z</time>
      </trkpt>
      <trkpt lat="44.64484" lon="6.10919">
        <ele>1094.4</ele>
        <time>2022-09-18T13:51:24Z</time>
      </trkpt>
      <trkpt lat="44.64483" lon="6.10924">
        <ele>1094.4</ele>
        <time>2022-09-18T13:51:25Z</time>
      </trkpt>
      <trkpt lat="44.64481" lon="6.10928">
        <ele>1094.4</ele>
        <time>2022-09-18T13:51:26Z</time>
      </trkpt>
      <trkpt lat="44.64479" lon="6.10933">
        <ele>1094.6</ele>
        <time>2022-09-18T13:51:27Z</time>
      </trkpt>
      <trkpt lat="44.64478" lon="6.10939">
        <ele>1095</ele>
        <time>2022-09-18T13:51:28Z</time>
      </trkpt>
      <trkpt lat="44.64476" lon="6.10944">
        <ele>1095.2</ele>
        <time>2022-09-18T13:51:29Z</time>
      </trkpt>
      <trkpt lat="44.64475" lon="6.10949">
        <ele>1095.4</ele>
        <time>2022-09-18T13:51:30Z</time>
      </trkpt>
      <trkpt lat="44.64474" lon="6.10954">
        <ele>1095.6</ele>
        <time>2022-09-18T13:51:31Z</time>
      </trkpt>
      <trkpt lat="44.64472" lon="6.1096">
        <ele>1095.6</ele>
        <time>2022-09-18T13:51:32Z</time>
      </trkpt>
      <trkpt lat="44.6447" lon="6.10965">
        <ele>1095.8</ele>
        <time>2022-09-18T13:51:33Z</time>
      </trkpt>
      <trkpt lat="44.64469" lon="6.1097">
        <ele>1095.6</ele>
        <time>2022-09-18T13:51:34Z</time>
      </trkpt>
      <trkpt lat="44.64467" lon="6.10976">
        <ele>1095.8</ele>
        <time>2022-09-18T13:51:35Z</time>
      </trkpt>
      <trkpt lat="44.64466" lon="6.10981">
        <ele>1095.8</ele>
        <time>2022-09-18T13:51:36Z</time>
      </trkpt>
      <trkpt lat="44.64463" lon="6.10986">
        <ele>1095.8</ele>
        <time>2022-09-18T13:51:37Z</time>
      </trkpt>
      <trkpt lat="44.6446" lon="6.10991">
        <ele>1096</ele>
        <time>2022-09-18T13:51:38Z</time>
      </trkpt>
      <trkpt lat="44.64456" lon="6.10995">
        <ele>1096</ele>
        <time>2022-09-18T13:51:39Z</time>
      </trkpt>
      <trkpt lat="44.64453" lon="6.10998">
        <ele>1096.2</ele>
        <time>2022-09-18T13:51:40Z</time>
      </trkpt>
      <trkpt lat="44.64449" lon="6.11002">
        <ele>1096.2</ele>
        <time>2022-09-18T13:51:41Z</time>
      </trkpt>
      <trkpt lat="44.64445" lon="6.11004">
        <ele>1096.2</ele>
        <time>2022-09-18T13:51:42Z</time>
      </trkpt>
      <trkpt lat="44.64441" lon="6.11007">
        <ele>1096.2</ele>
        <time>2022-09-18T13:51:43Z</time>
      </trkpt>
      <trkpt lat="44.64437" lon="6.1101">
        <ele>1096.2</ele>
        <time>2022-09-18T13:51:44Z</time>
      </trkpt>
      <trkpt lat="44.64434" lon="6.11013">
        <ele>1096.4</ele>
        <time>2022-09-18T13:51:45Z</time>
      </trkpt>
      <trkpt lat="44.6443" lon="6.11015">
        <ele>1096.2</ele>
        <time>2022-09-18T13:51:46Z</time>
      </trkpt>
      <trkpt lat="44.64426" lon="6.11018">
        <ele>1096.4</ele>
        <time>2022-09-18T13:51:47Z</time>
      </trkpt>
      <trkpt lat="44.64422" lon="6.11021">
        <ele>1096.2</ele>
        <time>2022-09-18T13:51:48Z</time>
      </trkpt>
      <trkpt lat="44.64418" lon="6.11024">
        <ele>1096.4</ele>
        <time>2022-09-18T13:51:49Z</time>
      </trkpt>
      <trkpt lat="44.64415" lon="6.11027">
        <ele>1096.2</ele>
        <time>2022-09-18T13:51:50Z</time>
      </trkpt>
      <trkpt lat="44.64411" lon="6.11029">
        <ele>1096.6</ele>
        <time>2022-09-18T13:51:51Z</time>
      </trkpt>
      <trkpt lat="44.64407" lon="6.11031">
        <ele>1096.8</ele>
        <time>2022-09-18T13:51:52Z</time>
      </trkpt>
      <trkpt lat="44.64404" lon="6.11034">
        <ele>1096.8</ele>
        <time>2022-09-18T13:51:53Z</time>
      </trkpt>
      <trkpt lat="44.644" lon="6.11036">
        <ele>1097</ele>
        <time>2022-09-18T13:51:54Z</time>
      </trkpt>
      <trkpt lat="44.64397" lon="6.1104">
        <ele>1097</ele>
        <time>2022-09-18T13:51:55Z</time>
      </trkpt>
      <trkpt lat="44.64393" lon="6.11043">
        <ele>1097.2</ele>
        <time>2022-09-18T13:51:56Z</time>
      </trkpt>
      <trkpt lat="44.64389" lon="6.11046">
        <ele>1097.2</ele>
        <time>2022-09-18T13:51:57Z</time>
      </trkpt>
      <trkpt lat="44.64384" lon="6.11049">
        <ele>1097.2</ele>
        <time>2022-09-18T13:51:58Z</time>
      </trkpt>
      <trkpt lat="44.64379" lon="6.1105">
        <ele>1097.4</ele>
        <time>2022-09-18T13:51:59Z</time>
      </trkpt>
      <trkpt lat="44.64374" lon="6.11049">
        <ele>1097.6</ele>
        <time>2022-09-18T13:52:00Z</time>
      </trkpt>
      <trkpt lat="44.6437" lon="6.11048">
        <ele>1097.6</ele>
        <time>2022-09-18T13:52:01Z</time>
      </trkpt>
      <trkpt lat="44.64365" lon="6.11048">
        <ele>1097.4</ele>
        <time>2022-09-18T13:52:02Z</time>
      </trkpt>
      <trkpt lat="44.64361" lon="6.11047">
        <ele>1097.2</ele>
        <time>2022-09-18T13:52:03Z</time>
      </trkpt>
      <trkpt lat="44.64357" lon="6.11047">
        <ele>1097.4</ele>
        <time>2022-09-18T13:52:04Z</time>
      </trkpt>
      <trkpt lat="44.64354" lon="6.11047">
        <ele>1097.6</ele>
        <time>2022-09-18T13:52:05Z</time>
      </trkpt>
      <trkpt lat="44.64351" lon="6.11047">
        <ele>1097.6</ele>
        <time>2022-09-18T13:52:06Z</time>
      </trkpt>
      <trkpt lat="44.64348" lon="6.11048">
        <ele>1097.6</ele>
        <time>2022-09-18T13:52:07Z</time>
      </trkpt>
      <trkpt lat="44.64346" lon="6.1105">
        <ele>1097.6</ele>
        <time>2022-09-18T13:52:08Z</time>
      </trkpt>
      <trkpt lat="44.64343" lon="6.11052">
        <ele>1097.8</ele>
        <time>2022-09-18T13:52:09Z</time>
      </trkpt>
      <trkpt lat="44.6434" lon="6.11055">
        <ele>1098</ele>
        <time>2022-09-18T13:52:10Z</time>
      </trkpt>
      <trkpt lat="44.64338" lon="6.11059">
        <ele>1098</ele>
        <time>2022-09-18T13:52:11Z</time>
      </trkpt>
      <trkpt lat="44.64335" lon="6.11063">
        <ele>1098.4</ele>
        <time>2022-09-18T13:52:12Z</time>
      </trkpt>
      <trkpt lat="44.64333" lon="6.11066">
        <ele>1098.4</ele>
        <time>2022-09-18T13:52:13Z</time>
      </trkpt>
      <trkpt lat="44.64331" lon="6.11068">
        <ele>1098.8</ele>
        <time>2022-09-18T13:52:14Z</time>
      </trkpt>
      <trkpt lat="44.64329" lon="6.11071">
        <ele>1099</ele>
        <time>2022-09-18T13:52:15Z</time>
      </trkpt>
      <trkpt lat="44.64327" lon="6.11073">
        <ele>1099</ele>
        <time>2022-09-18T13:52:16Z</time>
      </trkpt>
      <trkpt lat="44.64325" lon="6.11075">
        <ele>1099.2</ele>
        <time>2022-09-18T13:52:17Z</time>
      </trkpt>
      <trkpt lat="44.64323" lon="6.11078">
        <ele>1099.6</ele>
        <time>2022-09-18T13:52:18Z</time>
      </trkpt>
      <trkpt lat="44.64321" lon="6.1108">
        <ele>1100.2</ele>
        <time>2022-09-18T13:52:19Z</time>
      </trkpt>
      <trkpt lat="44.6432" lon="6.11083">
        <ele>1100.6</ele>
        <time>2022-09-18T13:52:20Z</time>
      </trkpt>
      <trkpt lat="44.64318" lon="6.11086">
        <ele>1101</ele>
        <time>2022-09-18T13:52:21Z</time>
      </trkpt>
      <trkpt lat="44.64316" lon="6.11088">
        <ele>1101.2</ele>
        <time>2022-09-18T13:52:22Z</time>
      </trkpt>
      <trkpt lat="44.64314" lon="6.1109">
        <ele>1101.6</ele>
        <time>2022-09-18T13:52:23Z</time>
      </trkpt>
      <trkpt lat="44.64312" lon="6.11093">
        <ele>1102.2</ele>
        <time>2022-09-18T13:52:24Z</time>
      </trkpt>
      <trkpt lat="44.6431" lon="6.11096">
        <ele>1102.6</ele>
        <time>2022-09-18T13:52:25Z</time>
      </trkpt>
      <trkpt lat="44.64308" lon="6.11098">
        <ele>1103</ele>
        <time>2022-09-18T13:52:26Z</time>
      </trkpt>
      <trkpt lat="44.64307" lon="6.11101">
        <ele>1103.4</ele>
        <time>2022-09-18T13:52:27Z</time>
      </trkpt>
      <trkpt lat="44.64305" lon="6.11104">
        <ele>1103.6</ele>
        <time>2022-09-18T13:52:28Z</time>
      </trkpt>
      <trkpt lat="44.64304" lon="6.11107">
        <ele>1104</ele>
        <time>2022-09-18T13:52:29Z</time>
      </trkpt>
      <trkpt lat="44.64303" lon="6.1111">
        <ele>1104.4</ele>
        <time>2022-09-18T13:52:30Z</time>
      </trkpt>
      <trkpt lat="44.64301" lon="6.11114">
        <ele>1104.8</ele>
        <time>2022-09-18T13:52:31Z</time>
      </trkpt>
      <trkpt lat="44.643" lon="6.11117">
        <ele>1105.4</ele>
        <time>2022-09-18T13:52:32Z</time>
      </trkpt>
      <trkpt lat="44.64298" lon="6.11121">
        <ele>1105.8</ele>
        <time>2022-09-18T13:52:33Z</time>
      </trkpt>
      <trkpt lat="44.64296" lon="6.11124">
        <ele>1106.2</ele>
        <time>2022-09-18T13:52:34Z</time>
      </trkpt>
      <trkpt lat="44.64295" lon="6.11127">
        <ele>1106.4</ele>
        <time>2022-09-18T13:52:35Z</time>
      </trkpt>
      <trkpt lat="44.64293" lon="6.1113">
        <ele>1106.8</ele>
        <time>2022-09-18T13:52:36Z</time>
      </trkpt>
      <trkpt lat="44.64292" lon="6.11134">
        <ele>1107</ele>
        <time>2022-09-18T13:52:37Z</time>
      </trkpt>
      <trkpt lat="44.64291" lon="6.11137">
        <ele>1107.2</ele>
        <time>2022-09-18T13:52:38Z</time>
      </trkpt>
      <trkpt lat="44.64289" lon="6.1114">
        <ele>1107.6</ele>
        <time>2022-09-18T13:52:39Z</time>
      </trkpt>
      <trkpt lat="44.64288" lon="6.11143">
        <ele>1108</ele>
        <time>2022-09-18T13:52:40Z</time>
      </trkpt>
      <trkpt lat="44.64286" lon="6.11146">
        <ele>1108.4</ele>
        <time>2022-09-18T13:52:41Z</time>
      </trkpt>
      <trkpt lat="44.64285" lon="6.11149">
        <ele>1108.8</ele>
        <time>2022-09-18T13:52:42Z</time>
      </trkpt>
      <trkpt lat="44.64283" lon="6.11152">
        <ele>1109</ele>
        <time>2022-09-18T13:52:43Z</time>
      </trkpt>
      <trkpt lat="44.64282" lon="6.11155">
        <ele>1109.2</ele>
        <time>2022-09-18T13:52:44Z</time>
      </trkpt>
      <trkpt lat="44.6428" lon="6.11158">
        <ele>1109.6</ele>
        <time>2022-09-18T13:52:45Z</time>
      </trkpt>
      <trkpt lat="44.64279" lon="6.11161">
        <ele>1110</ele>
        <time>2022-09-18T13:52:46Z</time>
      </trkpt>
      <trkpt lat="44.64277" lon="6.11164">
        <ele>1110.2</ele>
        <time>2022-09-18T13:52:47Z</time>
      </trkpt>
      <trkpt lat="44.64276" lon="6.11167">
        <ele>1110.6</ele>
        <time>2022-09-18T13:52:48Z</time>
      </trkpt>
      <trkpt lat="44.64274" lon="6.1117">
        <ele>1111</ele>
        <time>2022-09-18T13:52:49Z</time>
      </trkpt>
      <trkpt lat="44.64273" lon="6.11174">
        <ele>1111.2</ele>
        <time>2022-09-18T13:52:50Z</time>
      </trkpt>
      <trkpt lat="44.64272" lon="6.11177">
        <ele>1111.4</ele>
        <time>2022-09-18T13:52:51Z</time>
      </trkpt>
      <trkpt lat="44.6427" lon="6.11179">
        <ele>1111.8</ele>
        <time>2022-09-18T13:52:52Z</time>
      </trkpt>
      <trkpt lat="44.64269" lon="6.11182">
        <ele>1112</ele>
        <time>2022-09-18T13:52:53Z</time>
      </trkpt>
      <trkpt lat="44.64268" lon="6.11184">
        <ele>1112.4</ele>
        <time>2022-09-18T13:52:54Z</time>
      </trkpt>
      <trkpt lat="44.64267" lon="6.11187">
        <ele>1112.6</ele>
        <time>2022-09-18T13:52:55Z</time>
      </trkpt>
      <trkpt lat="44.64265" lon="6.1119">
        <ele>1112.8</ele>
        <time>2022-09-18T13:52:56Z</time>
      </trkpt>
      <trkpt lat="44.64264" lon="6.11193">
        <ele>1113</ele>
        <time>2022-09-18T13:52:57Z</time>
      </trkpt>
      <trkpt lat="44.64263" lon="6.11195">
        <ele>1113.2</ele>
        <time>2022-09-18T13:52:58Z</time>
      </trkpt>
      <trkpt lat="44.64262" lon="6.11198">
        <ele>1113.2</ele>
        <time>2022-09-18T13:52:59Z</time>
      </trkpt>
      <trkpt lat="44.6426" lon="6.11201">
        <ele>1113.6</ele>
        <time>2022-09-18T13:53:00Z</time>
      </trkpt>
      <trkpt lat="44.64259" lon="6.11204">
        <ele>1114</ele>
        <time>2022-09-18T13:53:01Z</time>
      </trkpt>
      <trkpt lat="44.64257" lon="6.11207">
        <ele>1114.2</ele>
        <time>2022-09-18T13:53:02Z</time>
      </trkpt>
      <trkpt lat="44.64256" lon="6.1121">
        <ele>1114.4</ele>
        <time>2022-09-18T13:53:03Z</time>
      </trkpt>
      <trkpt lat="44.64254" lon="6.11213">
        <ele>1114.6</ele>
        <time>2022-09-18T13:53:04Z</time>
      </trkpt>
      <trkpt lat="44.64253" lon="6.11216">
        <ele>1115</ele>
        <time>2022-09-18T13:53:05Z</time>
      </trkpt>
      <trkpt lat="44.64252" lon="6.11219">
        <ele>1115</ele>
        <time>2022-09-18T13:53:06Z</time>
      </trkpt>
      <trkpt lat="44.6425" lon="6.11222">
        <ele>1115.2</ele>
        <time>2022-09-18T13:53:07Z</time>
      </trkpt>
      <trkpt lat="44.64249" lon="6.11225">
        <ele>1115.6</ele>
        <time>2022-09-18T13:53:08Z</time>
      </trkpt>
      <trkpt lat="44.64247" lon="6.11228">
        <ele>1115.8</ele>
        <time>2022-09-18T13:53:09Z</time>
      </trkpt>
      <trkpt lat="44.64246" lon="6.11231">
        <ele>1116.2</ele>
        <time>2022-09-18T13:53:10Z</time>
      </trkpt>
      <trkpt lat="44.64244" lon="6.11234">
        <ele>1116.4</ele>
        <time>2022-09-18T13:53:11Z</time>
      </trkpt>
      <trkpt lat="44.64243" lon="6.11237">
        <ele>1116.6</ele>
        <time>2022-09-18T13:53:12Z</time>
      </trkpt>
      <trkpt lat="44.64241" lon="6.1124">
        <ele>1116.8</ele>
        <time>2022-09-18T13:53:13Z</time>
      </trkpt>
      <trkpt lat="44.6424" lon="6.11243">
        <ele>1117.2</ele>
        <time>2022-09-18T13:53:14Z</time>
      </trkpt>
      <trkpt lat="44.64238" lon="6.11247">
        <ele>1117.6</ele>
        <time>2022-09-18T13:53:15Z</time>
      </trkpt>
      <trkpt lat="44.64237" lon="6.1125">
        <ele>1118</ele>
        <time>2022-09-18T13:53:16Z</time>
      </trkpt>
      <trkpt lat="44.64235" lon="6.11253">
        <ele>1118.2</ele>
        <time>2022-09-18T13:53:17Z</time>
      </trkpt>
      <trkpt lat="44.64233" lon="6.11255">
        <ele>1118.6</ele>
        <time>2022-09-18T13:53:18Z</time>
      </trkpt>
      <trkpt lat="44.64231" lon="6.11258">
        <ele>1118.8</ele>
        <time>2022-09-18T13:53:19Z</time>
      </trkpt>
      <trkpt lat="44.64229" lon="6.11261">
        <ele>1119</ele>
        <time>2022-09-18T13:53:20Z</time>
      </trkpt>
      <trkpt lat="44.64227" lon="6.11262">
        <ele>1119.4</ele>
        <time>2022-09-18T13:53:21Z</time>
      </trkpt>
      <trkpt lat="44.64224" lon="6.11264">
        <ele>1119.6</ele>
        <time>2022-09-18T13:53:22Z</time>
      </trkpt>
      <trkpt lat="44.64222" lon="6.11265">
        <ele>1119.8</ele>
        <time>2022-09-18T13:53:23Z</time>
      </trkpt>
      <trkpt lat="44.64219" lon="6.11265">
        <ele>1119.8</ele>
        <time>2022-09-18T13:53:24Z</time>
      </trkpt>
      <trkpt lat="44.64216" lon="6.11265">
        <ele>1120.2</ele>
        <time>2022-09-18T13:53:25Z</time>
      </trkpt>
      <trkpt lat="44.64214" lon="6.11265">
        <ele>1120.4</ele>
        <time>2022-09-18T13:53:26Z</time>
      </trkpt>
      <trkpt lat="44.64211" lon="6.11265">
        <ele>1120.6</ele>
        <time>2022-09-18T13:53:27Z</time>
      </trkpt>
      <trkpt lat="44.64208" lon="6.11265">
        <ele>1121</ele>
        <time>2022-09-18T13:53:28Z</time>
      </trkpt>
      <trkpt lat="44.64206" lon="6.11264">
        <ele>1121.2</ele>
        <time>2022-09-18T13:53:29Z</time>
      </trkpt>
      <trkpt lat="44.64203" lon="6.11264">
        <ele>1121.4</ele>
        <time>2022-09-18T13:53:30Z</time>
      </trkpt>
      <trkpt lat="44.64201" lon="6.11263">
        <ele>1121.8</ele>
        <time>2022-09-18T13:53:31Z</time>
      </trkpt>
      <trkpt lat="44.64198" lon="6.11264">
        <ele>1122</ele>
        <time>2022-09-18T13:53:32Z</time>
      </trkpt>
      <trkpt lat="44.64195" lon="6.11264">
        <ele>1122</ele>
        <time>2022-09-18T13:53:33Z</time>
      </trkpt>
      <trkpt lat="44.64193" lon="6.11266">
        <ele>1122.2</ele>
        <time>2022-09-18T13:53:34Z</time>
      </trkpt>
      <trkpt lat="44.64191" lon="6.11268">
        <ele>1122.4</ele>
        <time>2022-09-18T13:53:35Z</time>
      </trkpt>
      <trkpt lat="44.64188" lon="6.1127">
        <ele>1122.6</ele>
        <time>2022-09-18T13:53:36Z</time>
      </trkpt>
      <trkpt lat="44.64186" lon="6.11272">
        <ele>1122.2</ele>
        <time>2022-09-18T13:53:37Z</time>
      </trkpt>
      <trkpt lat="44.64184" lon="6.11275">
        <ele>1122.4</ele>
        <time>2022-09-18T13:53:38Z</time>
      </trkpt>
      <trkpt lat="44.64182" lon="6.11277">
        <ele>1122.4</ele>
        <time>2022-09-18T13:53:39Z</time>
      </trkpt>
      <trkpt lat="44.64181" lon="6.1128">
        <ele>1122.6</ele>
        <time>2022-09-18T13:53:40Z</time>
      </trkpt>
      <trkpt lat="44.64179" lon="6.11283">
        <ele>1122.8</ele>
        <time>2022-09-18T13:53:41Z</time>
      </trkpt>
      <trkpt lat="44.64178" lon="6.11287">
        <ele>1123.2</ele>
        <time>2022-09-18T13:53:42Z</time>
      </trkpt>
      <trkpt lat="44.64177" lon="6.1129">
        <ele>1123.2</ele>
        <time>2022-09-18T13:53:43Z</time>
      </trkpt>
      <trkpt lat="44.64176" lon="6.11293">
        <ele>1123.6</ele>
        <time>2022-09-18T13:53:44Z</time>
      </trkpt>
      <trkpt lat="44.64175" lon="6.11297">
        <ele>1123.6</ele>
        <time>2022-09-18T13:53:45Z</time>
      </trkpt>
      <trkpt lat="44.64174" lon="6.11301">
        <ele>1123.8</ele>
        <time>2022-09-18T13:53:46Z</time>
      </trkpt>
      <trkpt lat="44.64174" lon="6.11304">
        <ele>1124</ele>
        <time>2022-09-18T13:53:47Z</time>
      </trkpt>
      <trkpt lat="44.64173" lon="6.11308">
        <ele>1124.4</ele>
        <time>2022-09-18T13:53:48Z</time>
      </trkpt>
      <trkpt lat="44.64172" lon="6.11312">
        <ele>1124.6</ele>
        <time>2022-09-18T13:53:49Z</time>
      </trkpt>
      <trkpt lat="44.64171" lon="6.11315">
        <ele>1124.8</ele>
        <time>2022-09-18T13:53:50Z</time>
      </trkpt>
      <trkpt lat="44.6417" lon="6.11319">
        <ele>1125</ele>
        <time>2022-09-18T13:53:51Z</time>
      </trkpt>
      <trkpt lat="44.64168" lon="6.11322">
        <ele>1125.4</ele>
        <time>2022-09-18T13:53:52Z</time>
      </trkpt>
      <trkpt lat="44.64167" lon="6.11326">
        <ele>1125.6</ele>
        <time>2022-09-18T13:53:53Z</time>
      </trkpt>
      <trkpt lat="44.64166" lon="6.1133">
        <ele>1125.8</ele>
        <time>2022-09-18T13:53:54Z</time>
      </trkpt>
      <trkpt lat="44.64164" lon="6.11333">
        <ele>1126.2</ele>
        <time>2022-09-18T13:53:55Z</time>
      </trkpt>
      <trkpt lat="44.64163" lon="6.11337">
        <ele>1126.2</ele>
        <time>2022-09-18T13:53:56Z</time>
      </trkpt>
      <trkpt lat="44.64161" lon="6.1134">
        <ele>1126.2</ele>
        <time>2022-09-18T13:53:57Z</time>
      </trkpt>
      <trkpt lat="44.6416" lon="6.11343">
        <ele>1126.4</ele>
        <time>2022-09-18T13:53:58Z</time>
      </trkpt>
      <trkpt lat="44.64158" lon="6.11346">
        <ele>1126.8</ele>
        <time>2022-09-18T13:53:59Z</time>
      </trkpt>
      <trkpt lat="44.64156" lon="6.11349">
        <ele>1127</ele>
        <time>2022-09-18T13:54:00Z</time>
      </trkpt>
      <trkpt lat="44.64155" lon="6.11352">
        <ele>1127</ele>
        <time>2022-09-18T13:54:01Z</time>
      </trkpt>
      <trkpt lat="44.64153" lon="6.11355">
        <ele>1127.2</ele>
        <time>2022-09-18T13:54:02Z</time>
      </trkpt>
      <trkpt lat="44.64151" lon="6.11358">
        <ele>1127.4</ele>
        <time>2022-09-18T13:54:03Z</time>
      </trkpt>
      <trkpt lat="44.64149" lon="6.1136">
        <ele>1127.2</ele>
        <time>2022-09-18T13:54:04Z</time>
      </trkpt>
      <trkpt lat="44.64147" lon="6.11363">
        <ele>1127.4</ele>
        <time>2022-09-18T13:54:05Z</time>
      </trkpt>
      <trkpt lat="44.64144" lon="6.11365">
        <ele>1127.4</ele>
        <time>2022-09-18T13:54:06Z</time>
      </trkpt>
      <trkpt lat="44.64142" lon="6.11368">
        <ele>1127.4</ele>
        <time>2022-09-18T13:54:07Z</time>
      </trkpt>
      <trkpt lat="44.6414" lon="6.1137">
        <ele>1127.6</ele>
        <time>2022-09-18T13:54:08Z</time>
      </trkpt>
      <trkpt lat="44.64138" lon="6.11372">
        <ele>1127.6</ele>
        <time>2022-09-18T13:54:09Z</time>
      </trkpt>
      <trkpt lat="44.64136" lon="6.11375">
        <ele>1127.6</ele>
        <time>2022-09-18T13:54:10Z</time>
      </trkpt>
      <trkpt lat="44.64133" lon="6.11377">
        <ele>1127.4</ele>
        <time>2022-09-18T13:54:11Z</time>
      </trkpt>
      <trkpt lat="44.64131" lon="6.1138">
        <ele>1127.4</ele>
        <time>2022-09-18T13:54:12Z</time>
      </trkpt>
      <trkpt lat="44.64129" lon="6.11382">
        <ele>1127.4</ele>
        <time>2022-09-18T13:54:13Z</time>
      </trkpt>
      <trkpt lat="44.64127" lon="6.11384">
        <ele>1127.6</ele>
        <time>2022-09-18T13:54:14Z</time>
      </trkpt>
      <trkpt lat="44.64124" lon="6.11387">
        <ele>1127.6</ele>
        <time>2022-09-18T13:54:15Z</time>
      </trkpt>
      <trkpt lat="44.64122" lon="6.11389">
        <ele>1127.8</ele>
        <time>2022-09-18T13:54:16Z</time>
      </trkpt>
      <trkpt lat="44.6412" lon="6.11392">
        <ele>1127.6</ele>
        <time>2022-09-18T13:54:17Z</time>
      </trkpt>
      <trkpt lat="44.64118" lon="6.11395">
        <ele>1127.6</ele>
        <time>2022-09-18T13:54:18Z</time>
      </trkpt>
      <trkpt lat="44.64116" lon="6.11398">
        <ele>1127.4</ele>
        <time>2022-09-18T13:54:19Z</time>
      </trkpt>
      <trkpt lat="44.64114" lon="6.114">
        <ele>1127.6</ele>
        <time>2022-09-18T13:54:20Z</time>
      </trkpt>
      <trkpt lat="44.64111" lon="6.11403">
        <ele>1127.6</ele>
        <time>2022-09-18T13:54:21Z</time>
      </trkpt>
      <trkpt lat="44.64109" lon="6.11406">
        <ele>1127.6</ele>
        <time>2022-09-18T13:54:22Z</time>
      </trkpt>
      <trkpt lat="44.64107" lon="6.11409">
        <ele>1127.4</ele>
        <time>2022-09-18T13:54:23Z</time>
      </trkpt>
      <trkpt lat="44.64105" lon="6.11412">
        <ele>1127.4</ele>
        <time>2022-09-18T13:54:24Z</time>
      </trkpt>
      <trkpt lat="44.64103" lon="6.11415">
        <ele>1127.2</ele>
        <time>2022-09-18T13:54:25Z</time>
      </trkpt>
      <trkpt lat="44.64101" lon="6.11418">
        <ele>1127.2</ele>
        <time>2022-09-18T13:54:26Z</time>
      </trkpt>
      <trkpt lat="44.64098" lon="6.11421">
        <ele>1127.2</ele>
        <time>2022-09-18T13:54:27Z</time>
      </trkpt>
      <trkpt lat="44.64096" lon="6.11425">
        <ele>1127.2</ele>
        <time>2022-09-18T13:54:28Z</time>
      </trkpt>
      <trkpt lat="44.64094" lon="6.11428">
        <ele>1127.6</ele>
        <time>2022-09-18T13:54:29Z</time>
      </trkpt>
      <trkpt lat="44.64092" lon="6.11431">
        <ele>1127.6</ele>
        <time>2022-09-18T13:54:30Z</time>
      </trkpt>
      <trkpt lat="44.6409" lon="6.11434">
        <ele>1127.4</ele>
        <time>2022-09-18T13:54:31Z</time>
      </trkpt>
      <trkpt lat="44.64089" lon="6.11437">
        <ele>1127.4</ele>
        <time>2022-09-18T13:54:32Z</time>
      </trkpt>
      <trkpt lat="44.64087" lon="6.1144">
        <ele>1127.4</ele>
        <time>2022-09-18T13:54:33Z</time>
      </trkpt>
      <trkpt lat="44.64085" lon="6.11443">
        <ele>1127.4</ele>
        <time>2022-09-18T13:54:34Z</time>
      </trkpt>
      <trkpt lat="44.64083" lon="6.11446">
        <ele>1127.2</ele>
        <time>2022-09-18T13:54:35Z</time>
      </trkpt>
      <trkpt lat="44.64082" lon="6.11449">
        <ele>1127.2</ele>
        <time>2022-09-18T13:54:36Z</time>
      </trkpt>
      <trkpt lat="44.6408" lon="6.11452">
        <ele>1127.2</ele>
        <time>2022-09-18T13:54:37Z</time>
      </trkpt>
      <trkpt lat="44.64078" lon="6.11455">
        <ele>1127.4</ele>
        <time>2022-09-18T13:54:38Z</time>
      </trkpt>
      <trkpt lat="44.64077" lon="6.11458">
        <ele>1127.4</ele>
        <time>2022-09-18T13:54:39Z</time>
      </trkpt>
      <trkpt lat="44.64075" lon="6.11461">
        <ele>1127.4</ele>
        <time>2022-09-18T13:54:40Z</time>
      </trkpt>
      <trkpt lat="44.64073" lon="6.11464">
        <ele>1127.2</ele>
        <time>2022-09-18T13:54:41Z</time>
      </trkpt>
      <trkpt lat="44.64071" lon="6.11467">
        <ele>1127.2</ele>
        <time>2022-09-18T13:54:42Z</time>
      </trkpt>
      <trkpt lat="44.64068" lon="6.1147">
        <ele>1127.2</ele>
        <time>2022-09-18T13:54:43Z</time>
      </trkpt>
      <trkpt lat="44.64066" lon="6.11473">
        <ele>1127</ele>
        <time>2022-09-18T13:54:44Z</time>
      </trkpt>
      <trkpt lat="44.64064" lon="6.11476">
        <ele>1127</ele>
        <time>2022-09-18T13:54:45Z</time>
      </trkpt>
      <trkpt lat="44.64062" lon="6.1148">
        <ele>1127</ele>
        <time>2022-09-18T13:54:46Z</time>
      </trkpt>
      <trkpt lat="44.6406" lon="6.11484">
        <ele>1127</ele>
        <time>2022-09-18T13:54:47Z</time>
      </trkpt>
      <trkpt lat="44.64057" lon="6.11487">
        <ele>1127</ele>
        <time>2022-09-18T13:54:48Z</time>
      </trkpt>
      <trkpt lat="44.64055" lon="6.11491">
        <ele>1127</ele>
        <time>2022-09-18T13:54:49Z</time>
      </trkpt>
      <trkpt lat="44.64052" lon="6.11494">
        <ele>1126.8</ele>
        <time>2022-09-18T13:54:50Z</time>
      </trkpt>
      <trkpt lat="44.6405" lon="6.11498">
        <ele>1126.8</ele>
        <time>2022-09-18T13:54:51Z</time>
      </trkpt>
      <trkpt lat="44.64048" lon="6.11502">
        <ele>1126.6</ele>
        <time>2022-09-18T13:54:52Z</time>
      </trkpt>
      <trkpt lat="44.64045" lon="6.11505">
        <ele>1126.4</ele>
        <time>2022-09-18T13:54:53Z</time>
      </trkpt>
      <trkpt lat="44.64043" lon="6.11509">
        <ele>1126.4</ele>
        <time>2022-09-18T13:54:54Z</time>
      </trkpt>
      <trkpt lat="44.64041" lon="6.11513">
        <ele>1126.8</ele>
        <time>2022-09-18T13:54:55Z</time>
      </trkpt>
      <trkpt lat="44.64038" lon="6.11517">
        <ele>1127</ele>
        <time>2022-09-18T13:54:56Z</time>
      </trkpt>
      <trkpt lat="44.64036" lon="6.11521">
        <ele>1127</ele>
        <time>2022-09-18T13:54:57Z</time>
      </trkpt>
      <trkpt lat="44.64034" lon="6.11525">
        <ele>1126.8</ele>
        <time>2022-09-18T13:54:58Z</time>
      </trkpt>
      <trkpt lat="44.64031" lon="6.11529">
        <ele>1126.8</ele>
        <time>2022-09-18T13:54:59Z</time>
      </trkpt>
      <trkpt lat="44.64029" lon="6.11533">
        <ele>1126.8</ele>
        <time>2022-09-18T13:55:00Z</time>
      </trkpt>
      <trkpt lat="44.64026" lon="6.11537">
        <ele>1126.6</ele>
        <time>2022-09-18T13:55:01Z</time>
      </trkpt>
      <trkpt lat="44.64024" lon="6.11541">
        <ele>1126.8</ele>
        <time>2022-09-18T13:55:02Z</time>
      </trkpt>
      <trkpt lat="44.64021" lon="6.11545">
        <ele>1127</ele>
        <time>2022-09-18T13:55:03Z</time>
      </trkpt>
      <trkpt lat="44.64019" lon="6.11549">
        <ele>1127.2</ele>
        <time>2022-09-18T13:55:04Z</time>
      </trkpt>
      <trkpt lat="44.64016" lon="6.11552">
        <ele>1127.4</ele>
        <time>2022-09-18T13:55:05Z</time>
      </trkpt>
      <trkpt lat="44.64014" lon="6.11556">
        <ele>1127.4</ele>
        <time>2022-09-18T13:55:06Z</time>
      </trkpt>
      <trkpt lat="44.64012" lon="6.1156">
        <ele>1127.4</ele>
        <time>2022-09-18T13:55:07Z</time>
      </trkpt>
      <trkpt lat="44.64009" lon="6.11563">
        <ele>1127.4</ele>
        <time>2022-09-18T13:55:08Z</time>
      </trkpt>
      <trkpt lat="44.64007" lon="6.11567">
        <ele>1127.4</ele>
        <time>2022-09-18T13:55:09Z</time>
      </trkpt>
      <trkpt lat="44.64005" lon="6.1157">
        <ele>1127.4</ele>
        <time>2022-09-18T13:55:10Z</time>
      </trkpt>
      <trkpt lat="44.64003" lon="6.11574">
        <ele>1127.6</ele>
        <time>2022-09-18T13:55:11Z</time>
      </trkpt>
      <trkpt lat="44.64" lon="6.11578">
        <ele>1127.8</ele>
        <time>2022-09-18T13:55:12Z</time>
      </trkpt>
      <trkpt lat="44.63998" lon="6.11581">
        <ele>1127.8</ele>
        <time>2022-09-18T13:55:13Z</time>
      </trkpt>
      <trkpt lat="44.63995" lon="6.11584">
        <ele>1127.6</ele>
        <time>2022-09-18T13:55:14Z</time>
      </trkpt>
      <trkpt lat="44.63992" lon="6.11588">
        <ele>1127.6</ele>
        <time>2022-09-18T13:55:15Z</time>
      </trkpt>
      <trkpt lat="44.6399" lon="6.11591">
        <ele>1127.6</ele>
        <time>2022-09-18T13:55:16Z</time>
      </trkpt>
      <trkpt lat="44.63987" lon="6.11594">
        <ele>1127.4</ele>
        <time>2022-09-18T13:55:17Z</time>
      </trkpt>
      <trkpt lat="44.63985" lon="6.11597">
        <ele>1127.2</ele>
        <time>2022-09-18T13:55:18Z</time>
      </trkpt>
      <trkpt lat="44.63982" lon="6.116">
        <ele>1127.2</ele>
        <time>2022-09-18T13:55:19Z</time>
      </trkpt>
      <trkpt lat="44.6398" lon="6.11603">
        <ele>1127.2</ele>
        <time>2022-09-18T13:55:20Z</time>
      </trkpt>
      <trkpt lat="44.63978" lon="6.11605">
        <ele>1127.2</ele>
        <time>2022-09-18T13:55:21Z</time>
      </trkpt>
      <trkpt lat="44.63975" lon="6.11608">
        <ele>1127</ele>
        <time>2022-09-18T13:55:22Z</time>
      </trkpt>
      <trkpt lat="44.63972" lon="6.1161">
        <ele>1127</ele>
        <time>2022-09-18T13:55:23Z</time>
      </trkpt>
      <trkpt lat="44.6397" lon="6.11612">
        <ele>1126.8</ele>
        <time>2022-09-18T13:55:24Z</time>
      </trkpt>
      <trkpt lat="44.63967" lon="6.11614">
        <ele>1126.8</ele>
        <time>2022-09-18T13:55:25Z</time>
      </trkpt>
      <trkpt lat="44.63964" lon="6.11616">
        <ele>1126.8</ele>
        <time>2022-09-18T13:55:26Z</time>
      </trkpt>
      <trkpt lat="44.63961" lon="6.11618">
        <ele>1126.8</ele>
        <time>2022-09-18T13:55:27Z</time>
      </trkpt>
      <trkpt lat="44.63959" lon="6.1162">
        <ele>1126.8</ele>
        <time>2022-09-18T13:55:28Z</time>
      </trkpt>
      <trkpt lat="44.63956" lon="6.11622">
        <ele>1126.6</ele>
        <time>2022-09-18T13:55:29Z</time>
      </trkpt>
      <trkpt lat="44.63953" lon="6.11623">
        <ele>1126.8</ele>
        <time>2022-09-18T13:55:30Z</time>
      </trkpt>
      <trkpt lat="44.6395" lon="6.11625">
        <ele>1126.8</ele>
        <time>2022-09-18T13:55:31Z</time>
      </trkpt>
      <trkpt lat="44.63947" lon="6.11626">
        <ele>1126.6</ele>
        <time>2022-09-18T13:55:32Z</time>
      </trkpt>
      <trkpt lat="44.63944" lon="6.11628">
        <ele>1126.6</ele>
        <time>2022-09-18T13:55:33Z</time>
      </trkpt>
      <trkpt lat="44.63941" lon="6.1163">
        <ele>1126.6</ele>
        <time>2022-09-18T13:55:34Z</time>
      </trkpt>
      <trkpt lat="44.63938" lon="6.11632">
        <ele>1126.4</ele>
        <time>2022-09-18T13:55:35Z</time>
      </trkpt>
      <trkpt lat="44.63935" lon="6.11634">
        <ele>1126.2</ele>
        <time>2022-09-18T13:55:36Z</time>
      </trkpt>
      <trkpt lat="44.63932" lon="6.11636">
        <ele>1126.2</ele>
        <time>2022-09-18T13:55:37Z</time>
      </trkpt>
      <trkpt lat="44.63929" lon="6.11638">
        <ele>1126.4</ele>
        <time>2022-09-18T13:55:38Z</time>
      </trkpt>
      <trkpt lat="44.63926" lon="6.1164">
        <ele>1126.8</ele>
        <time>2022-09-18T13:55:39Z</time>
      </trkpt>
      <trkpt lat="44.63923" lon="6.11642">
        <ele>1126.6</ele>
        <time>2022-09-18T13:55:40Z</time>
      </trkpt>
      <trkpt lat="44.6392" lon="6.11644">
        <ele>1126.6</ele>
        <time>2022-09-18T13:55:41Z</time>
      </trkpt>
      <trkpt lat="44.63917" lon="6.11646">
        <ele>1126.6</ele>
        <time>2022-09-18T13:55:42Z</time>
      </trkpt>
      <trkpt lat="44.63914" lon="6.11649">
        <ele>1126.6</ele>
        <time>2022-09-18T13:55:43Z</time>
      </trkpt>
      <trkpt lat="44.63911" lon="6.11651">
        <ele>1126.2</ele>
        <time>2022-09-18T13:55:44Z</time>
      </trkpt>
      <trkpt lat="44.63908" lon="6.11653">
        <ele>1126.2</ele>
        <time>2022-09-18T13:55:45Z</time>
      </trkpt>
      <trkpt lat="44.63906" lon="6.11656">
        <ele>1126</ele>
        <time>2022-09-18T13:55:46Z</time>
      </trkpt>
      <trkpt lat="44.63903" lon="6.11658">
        <ele>1126</ele>
        <time>2022-09-18T13:55:47Z</time>
      </trkpt>
      <trkpt lat="44.639" lon="6.11661">
        <ele>1126</ele>
        <time>2022-09-18T13:55:48Z</time>
      </trkpt>
      <trkpt lat="44.63897" lon="6.11664">
        <ele>1126</ele>
        <time>2022-09-18T13:55:49Z</time>
      </trkpt>
      <trkpt lat="44.63895" lon="6.11666">
        <ele>1126.2</ele>
        <time>2022-09-18T13:55:50Z</time>
      </trkpt>
      <trkpt lat="44.63892" lon="6.11669">
        <ele>1126.2</ele>
        <time>2022-09-18T13:55:51Z</time>
      </trkpt>
      <trkpt lat="44.63889" lon="6.11672">
        <ele>1126.2</ele>
        <time>2022-09-18T13:55:52Z</time>
      </trkpt>
      <trkpt lat="44.63887" lon="6.11675">
        <ele>1126.2</ele>
        <time>2022-09-18T13:55:53Z</time>
      </trkpt>
      <trkpt lat="44.63884" lon="6.11678">
        <ele>1126.4</ele>
        <time>2022-09-18T13:55:54Z</time>
      </trkpt>
      <trkpt lat="44.63881" lon="6.11681">
        <ele>1126.6</ele>
        <time>2022-09-18T13:55:55Z</time>
      </trkpt>
      <trkpt lat="44.63879" lon="6.11684">
        <ele>1126.8</ele>
        <time>2022-09-18T13:55:56Z</time>
      </trkpt>
      <trkpt lat="44.63877" lon="6.11687">
        <ele>1127</ele>
        <time>2022-09-18T13:55:57Z</time>
      </trkpt>
      <trkpt lat="44.63874" lon="6.1169">
        <ele>1127.4</ele>
        <time>2022-09-18T13:55:58Z</time>
      </trkpt>
      <trkpt lat="44.63872" lon="6.11693">
        <ele>1127.6</ele>
        <time>2022-09-18T13:55:59Z</time>
      </trkpt>
      <trkpt lat="44.63869" lon="6.11696">
        <ele>1127.8</ele>
        <time>2022-09-18T13:56:00Z</time>
      </trkpt>
      <trkpt lat="44.63867" lon="6.11699">
        <ele>1128</ele>
        <time>2022-09-18T13:56:01Z</time>
      </trkpt>
      <trkpt lat="44.63864" lon="6.11703">
        <ele>1128.2</ele>
        <time>2022-09-18T13:56:02Z</time>
      </trkpt>
      <trkpt lat="44.63862" lon="6.11706">
        <ele>1128.4</ele>
        <time>2022-09-18T13:56:03Z</time>
      </trkpt>
      <trkpt lat="44.6386" lon="6.11709">
        <ele>1128.8</ele>
        <time>2022-09-18T13:56:04Z</time>
      </trkpt>
      <trkpt lat="44.63857" lon="6.11712">
        <ele>1129</ele>
        <time>2022-09-18T13:56:05Z</time>
      </trkpt>
      <trkpt lat="44.63855" lon="6.11715">
        <ele>1129.2</ele>
        <time>2022-09-18T13:56:06Z</time>
      </trkpt>
      <trkpt lat="44.63853" lon="6.11719">
        <ele>1129.4</ele>
        <time>2022-09-18T13:56:07Z</time>
      </trkpt>
      <trkpt lat="44.6385" lon="6.11722">
        <ele>1129.4</ele>
        <time>2022-09-18T13:56:08Z</time>
      </trkpt>
      <trkpt lat="44.63848" lon="6.11726">
        <ele>1129.6</ele>
        <time>2022-09-18T13:56:09Z</time>
      </trkpt>
      <trkpt lat="44.63846" lon="6.11729">
        <ele>1130</ele>
        <time>2022-09-18T13:56:10Z</time>
      </trkpt>
      <trkpt lat="44.63844" lon="6.11732">
        <ele>1130.2</ele>
        <time>2022-09-18T13:56:11Z</time>
      </trkpt>
      <trkpt lat="44.63841" lon="6.11735">
        <ele>1130.4</ele>
        <time>2022-09-18T13:56:12Z</time>
      </trkpt>
      <trkpt lat="44.63838" lon="6.11738">
        <ele>1130.6</ele>
        <time>2022-09-18T13:56:13Z</time>
      </trkpt>
      <trkpt lat="44.63836" lon="6.1174">
        <ele>1130.8</ele>
        <time>2022-09-18T13:56:14Z</time>
      </trkpt>
      <trkpt lat="44.63833" lon="6.11742">
        <ele>1131</ele>
        <time>2022-09-18T13:56:15Z</time>
      </trkpt>
      <trkpt lat="44.6383" lon="6.11745">
        <ele>1131.2</ele>
        <time>2022-09-18T13:56:16Z</time>
      </trkpt>
      <trkpt lat="44.63827" lon="6.11747">
        <ele>1131.4</ele>
        <time>2022-09-18T13:56:17Z</time>
      </trkpt>
      <trkpt lat="44.63824" lon="6.11749">
        <ele>1132</ele>
        <time>2022-09-18T13:56:18Z</time>
      </trkpt>
      <trkpt lat="44.63821" lon="6.11751">
        <ele>1132</ele>
        <time>2022-09-18T13:56:19Z</time>
      </trkpt>
      <trkpt lat="44.63818" lon="6.11753">
        <ele>1132</ele>
        <time>2022-09-18T13:56:20Z</time>
      </trkpt>
      <trkpt lat="44.63815" lon="6.11755">
        <ele>1132.4</ele>
        <time>2022-09-18T13:56:21Z</time>
      </trkpt>
      <trkpt lat="44.63812" lon="6.11757">
        <ele>1132.4</ele>
        <time>2022-09-18T13:56:22Z</time>
      </trkpt>
      <trkpt lat="44.63809" lon="6.11759">
        <ele>1132.6</ele>
        <time>2022-09-18T13:56:23Z</time>
      </trkpt>
      <trkpt lat="44.63806" lon="6.1176">
        <ele>1133</ele>
        <time>2022-09-18T13:56:24Z</time>
      </trkpt>
      <trkpt lat="44.63804" lon="6.11762">
        <ele>1133</ele>
        <time>2022-09-18T13:56:25Z</time>
      </trkpt>
      <trkpt lat="44.63801" lon="6.11763">
        <ele>1133</ele>
        <time>2022-09-18T13:56:26Z</time>
      </trkpt>
      <trkpt lat="44.63798" lon="6.11765">
        <ele>1133.2</ele>
        <time>2022-09-18T13:56:27Z</time>
      </trkpt>
      <trkpt lat="44.63796" lon="6.11767">
        <ele>1133.6</ele>
        <time>2022-09-18T13:56:28Z</time>
      </trkpt>
      <trkpt lat="44.63793" lon="6.11768">
        <ele>1134</ele>
        <time>2022-09-18T13:56:29Z</time>
      </trkpt>
      <trkpt lat="44.6379" lon="6.1177">
        <ele>1134.2</ele>
        <time>2022-09-18T13:56:30Z</time>
      </trkpt>
      <trkpt lat="44.63788" lon="6.11771">
        <ele>1134.8</ele>
        <time>2022-09-18T13:56:31Z</time>
      </trkpt>
      <trkpt lat="44.63785" lon="6.11772">
        <ele>1135</ele>
        <time>2022-09-18T13:56:32Z</time>
      </trkpt>
      <trkpt lat="44.63783" lon="6.11773">
        <ele>1135.2</ele>
        <time>2022-09-18T13:56:33Z</time>
      </trkpt>
      <trkpt lat="44.6378" lon="6.11775">
        <ele>1135.6</ele>
        <time>2022-09-18T13:56:34Z</time>
      </trkpt>
      <trkpt lat="44.63778" lon="6.11776">
        <ele>1135.8</ele>
        <time>2022-09-18T13:56:35Z</time>
      </trkpt>
      <trkpt lat="44.63776" lon="6.11777">
        <ele>1136.2</ele>
        <time>2022-09-18T13:56:36Z</time>
      </trkpt>
      <trkpt lat="44.63774" lon="6.11778">
        <ele>1136.2</ele>
        <time>2022-09-18T13:56:37Z</time>
      </trkpt>
      <trkpt lat="44.63772" lon="6.11779">
        <ele>1136.4</ele>
        <time>2022-09-18T13:56:38Z</time>
      </trkpt>
      <trkpt lat="44.6377" lon="6.11781">
        <ele>1136.4</ele>
        <time>2022-09-18T13:56:39Z</time>
      </trkpt>
      <trkpt lat="44.63767" lon="6.11782">
        <ele>1136.8</ele>
        <time>2022-09-18T13:56:40Z</time>
      </trkpt>
      <trkpt lat="44.63765" lon="6.11784">
        <ele>1137</ele>
        <time>2022-09-18T13:56:41Z</time>
      </trkpt>
      <trkpt lat="44.63763" lon="6.11786">
        <ele>1137.2</ele>
        <time>2022-09-18T13:56:42Z</time>
      </trkpt>
      <trkpt lat="44.6376" lon="6.11788">
        <ele>1136.6</ele>
        <time>2022-09-18T13:56:43Z</time>
      </trkpt>
      <trkpt lat="44.63758" lon="6.1179">
        <ele>1136.8</ele>
        <time>2022-09-18T13:56:44Z</time>
      </trkpt>
      <trkpt lat="44.63755" lon="6.11792">
        <ele>1137</ele>
        <time>2022-09-18T13:56:45Z</time>
      </trkpt>
      <trkpt lat="44.63753" lon="6.11794">
        <ele>1137.4</ele>
        <time>2022-09-18T13:56:46Z</time>
      </trkpt>
      <trkpt lat="44.6375" lon="6.11796">
        <ele>1137.6</ele>
        <time>2022-09-18T13:56:47Z</time>
      </trkpt>
      <trkpt lat="44.63748" lon="6.11797">
        <ele>1137.8</ele>
        <time>2022-09-18T13:56:48Z</time>
      </trkpt>
      <trkpt lat="44.63745" lon="6.11798">
        <ele>1137.8</ele>
        <time>2022-09-18T13:56:49Z</time>
      </trkpt>
      <trkpt lat="44.63743" lon="6.118">
        <ele>1138</ele>
        <time>2022-09-18T13:56:50Z</time>
      </trkpt>
      <trkpt lat="44.6374" lon="6.11802">
        <ele>1137.8</ele>
        <time>2022-09-18T13:56:51Z</time>
      </trkpt>
      <trkpt lat="44.63737" lon="6.11804">
        <ele>1138.2</ele>
        <time>2022-09-18T13:56:52Z</time>
      </trkpt>
      <trkpt lat="44.63735" lon="6.11806">
        <ele>1138.2</ele>
        <time>2022-09-18T13:56:53Z</time>
      </trkpt>
      <trkpt lat="44.63732" lon="6.11808">
        <ele>1138.6</ele>
        <time>2022-09-18T13:56:54Z</time>
      </trkpt>
      <trkpt lat="44.63729" lon="6.11809">
        <ele>1138.6</ele>
        <time>2022-09-18T13:56:55Z</time>
      </trkpt>
      <trkpt lat="44.63726" lon="6.11811">
        <ele>1138.6</ele>
        <time>2022-09-18T13:56:56Z</time>
      </trkpt>
      <trkpt lat="44.63723" lon="6.11813">
        <ele>1138.8</ele>
        <time>2022-09-18T13:56:57Z</time>
      </trkpt>
      <trkpt lat="44.6372" lon="6.11815">
        <ele>1139</ele>
        <time>2022-09-18T13:56:58Z</time>
      </trkpt>
      <trkpt lat="44.63718" lon="6.11817">
        <ele>1138.8</ele>
        <time>2022-09-18T13:56:59Z</time>
      </trkpt>
      <trkpt lat="44.63716" lon="6.11818">
        <ele>1138.8</ele>
        <time>2022-09-18T13:57:00Z</time>
      </trkpt>
      <trkpt lat="44.63713" lon="6.1182">
        <ele>1138.8</ele>
        <time>2022-09-18T13:57:01Z</time>
      </trkpt>
      <trkpt lat="44.63711" lon="6.11822">
        <ele>1139</ele>
        <time>2022-09-18T13:57:02Z</time>
      </trkpt>
      <trkpt lat="44.63709" lon="6.11824">
        <ele>1139.2</ele>
        <time>2022-09-18T13:57:03Z</time>
      </trkpt>
      <trkpt lat="44.63706" lon="6.11826">
        <ele>1139.2</ele>
        <time>2022-09-18T13:57:04Z</time>
      </trkpt>
      <trkpt lat="44.63704" lon="6.11828">
        <ele>1139.4</ele>
        <time>2022-09-18T13:57:05Z</time>
      </trkpt>
      <trkpt lat="44.63702" lon="6.1183">
        <ele>1139.8</ele>
        <time>2022-09-18T13:57:06Z</time>
      </trkpt>
      <trkpt lat="44.63699" lon="6.11832">
        <ele>1140</ele>
        <time>2022-09-18T13:57:07Z</time>
      </trkpt>
      <trkpt lat="44.63697" lon="6.11834">
        <ele>1140.4</ele>
        <time>2022-09-18T13:57:08Z</time>
      </trkpt>
      <trkpt lat="44.63695" lon="6.11836">
        <ele>1140.2</ele>
        <time>2022-09-18T13:57:09Z</time>
      </trkpt>
      <trkpt lat="44.63693" lon="6.11839">
        <ele>1140.4</ele>
        <time>2022-09-18T13:57:10Z</time>
      </trkpt>
      <trkpt lat="44.63691" lon="6.11841">
        <ele>1140.4</ele>
        <time>2022-09-18T13:57:11Z</time>
      </trkpt>
      <trkpt lat="44.63689" lon="6.11844">
        <ele>1140.6</ele>
        <time>2022-09-18T13:57:12Z</time>
      </trkpt>
      <trkpt lat="44.63688" lon="6.11847">
        <ele>1140.6</ele>
        <time>2022-09-18T13:57:13Z</time>
      </trkpt>
      <trkpt lat="44.63686" lon="6.1185">
        <ele>1141</ele>
        <time>2022-09-18T13:57:14Z</time>
      </trkpt>
      <trkpt lat="44.63684" lon="6.11853">
        <ele>1140.8</ele>
        <time>2022-09-18T13:57:15Z</time>
      </trkpt>
      <trkpt lat="44.63683" lon="6.11856">
        <ele>1141</ele>
        <time>2022-09-18T13:57:16Z</time>
      </trkpt>
      <trkpt lat="44.63682" lon="6.1186">
        <ele>1141.4</ele>
        <time>2022-09-18T13:57:17Z</time>
      </trkpt>
      <trkpt lat="44.63681" lon="6.11863">
        <ele>1141.6</ele>
        <time>2022-09-18T13:57:18Z</time>
      </trkpt>
      <trkpt lat="44.6368" lon="6.11866">
        <ele>1141.8</ele>
        <time>2022-09-18T13:57:19Z</time>
      </trkpt>
      <trkpt lat="44.63679" lon="6.1187">
        <ele>1142</ele>
        <time>2022-09-18T13:57:20Z</time>
      </trkpt>
      <trkpt lat="44.63678" lon="6.11873">
        <ele>1142</ele>
        <time>2022-09-18T13:57:21Z</time>
      </trkpt>
      <trkpt lat="44.63677" lon="6.11876">
        <ele>1142.2</ele>
        <time>2022-09-18T13:57:22Z</time>
      </trkpt>
      <trkpt lat="44.63676" lon="6.1188">
        <ele>1142.4</ele>
        <time>2022-09-18T13:57:23Z</time>
      </trkpt>
      <trkpt lat="44.63675" lon="6.11883">
        <ele>1142.4</ele>
        <time>2022-09-18T13:57:24Z</time>
      </trkpt>
      <trkpt lat="44.63674" lon="6.11887">
        <ele>1142.6</ele>
        <time>2022-09-18T13:57:25Z</time>
      </trkpt>
      <trkpt lat="44.63673" lon="6.1189">
        <ele>1142.8</ele>
        <time>2022-09-18T13:57:26Z</time>
      </trkpt>
      <trkpt lat="44.63672" lon="6.11893">
        <ele>1143</ele>
        <time>2022-09-18T13:57:27Z</time>
      </trkpt>
      <trkpt lat="44.63671" lon="6.11897">
        <ele>1143.4</ele>
        <time>2022-09-18T13:57:28Z</time>
      </trkpt>
      <trkpt lat="44.6367" lon="6.11901">
        <ele>1143.4</ele>
        <time>2022-09-18T13:57:29Z</time>
      </trkpt>
      <trkpt lat="44.63669" lon="6.11904">
        <ele>1143.6</ele>
        <time>2022-09-18T13:57:30Z</time>
      </trkpt>
      <trkpt lat="44.63668" lon="6.11908">
        <ele>1143.8</ele>
        <time>2022-09-18T13:57:31Z</time>
      </trkpt>
      <trkpt lat="44.63666" lon="6.11912">
        <ele>1144.2</ele>
        <time>2022-09-18T13:57:32Z</time>
      </trkpt>
      <trkpt lat="44.63665" lon="6.11915">
        <ele>1144.4</ele>
        <time>2022-09-18T13:57:33Z</time>
      </trkpt>
      <trkpt lat="44.63664" lon="6.11919">
        <ele>1144.8</ele>
        <time>2022-09-18T13:57:34Z</time>
      </trkpt>
      <trkpt lat="44.63663" lon="6.11922">
        <ele>1144.8</ele>
        <time>2022-09-18T13:57:35Z</time>
      </trkpt>
      <trkpt lat="44.63662" lon="6.11926">
        <ele>1145.4</ele>
        <time>2022-09-18T13:57:36Z</time>
      </trkpt>
      <trkpt lat="44.6366" lon="6.1193">
        <ele>1145.8</ele>
        <time>2022-09-18T13:57:37Z</time>
      </trkpt>
      <trkpt lat="44.63659" lon="6.11934">
        <ele>1146</ele>
        <time>2022-09-18T13:57:38Z</time>
      </trkpt>
      <trkpt lat="44.63658" lon="6.11937">
        <ele>1146.2</ele>
        <time>2022-09-18T13:57:39Z</time>
      </trkpt>
      <trkpt lat="44.63657" lon="6.11941">
        <ele>1146.6</ele>
        <time>2022-09-18T13:57:40Z</time>
      </trkpt>
      <trkpt lat="44.63655" lon="6.11944">
        <ele>1147</ele>
        <time>2022-09-18T13:57:41Z</time>
      </trkpt>
      <trkpt lat="44.63654" lon="6.11948">
        <ele>1147.4</ele>
        <time>2022-09-18T13:57:42Z</time>
      </trkpt>
      <trkpt lat="44.63653" lon="6.11951">
        <ele>1147.8</ele>
        <time>2022-09-18T13:57:43Z</time>
      </trkpt>
      <trkpt lat="44.63652" lon="6.11955">
        <ele>1148.2</ele>
        <time>2022-09-18T13:57:44Z</time>
      </trkpt>
      <trkpt lat="44.63651" lon="6.11958">
        <ele>1148.6</ele>
        <time>2022-09-18T13:57:45Z</time>
      </trkpt>
      <trkpt lat="44.6365" lon="6.1196">
        <ele>1148.8</ele>
        <time>2022-09-18T13:57:46Z</time>
      </trkpt>
      <trkpt lat="44.63648" lon="6.11963">
        <ele>1149.2</ele>
        <time>2022-09-18T13:57:47Z</time>
      </trkpt>
      <trkpt lat="44.63647" lon="6.11966">
        <ele>1149.4</ele>
        <time>2022-09-18T13:57:48Z</time>
      </trkpt>
      <trkpt lat="44.63645" lon="6.11968">
        <ele>1149.6</ele>
        <time>2022-09-18T13:57:49Z</time>
      </trkpt>
      <trkpt lat="44.63644" lon="6.11971">
        <ele>1150</ele>
        <time>2022-09-18T13:57:50Z</time>
      </trkpt>
      <trkpt lat="44.63643" lon="6.11974">
        <ele>1150.2</ele>
        <time>2022-09-18T13:57:51Z</time>
      </trkpt>
      <trkpt lat="44.63641" lon="6.11978">
        <ele>1150.6</ele>
        <time>2022-09-18T13:57:52Z</time>
      </trkpt>
      <trkpt lat="44.63639" lon="6.11981">
        <ele>1150.8</ele>
        <time>2022-09-18T13:57:53Z</time>
      </trkpt>
      <trkpt lat="44.63638" lon="6.11984">
        <ele>1151.2</ele>
        <time>2022-09-18T13:57:54Z</time>
      </trkpt>
      <trkpt lat="44.63636" lon="6.11987">
        <ele>1151.6</ele>
        <time>2022-09-18T13:57:55Z</time>
      </trkpt>
      <trkpt lat="44.63635" lon="6.11991">
        <ele>1151.8</ele>
        <time>2022-09-18T13:57:56Z</time>
      </trkpt>
      <trkpt lat="44.63633" lon="6.11994">
        <ele>1152.2</ele>
        <time>2022-09-18T13:57:57Z</time>
      </trkpt>
      <trkpt lat="44.63631" lon="6.11997">
        <ele>1152.6</ele>
        <time>2022-09-18T13:57:58Z</time>
      </trkpt>
      <trkpt lat="44.6363" lon="6.12">
        <ele>1153</ele>
        <time>2022-09-18T13:57:59Z</time>
      </trkpt>
      <trkpt lat="44.63628" lon="6.12003">
        <ele>1153.2</ele>
        <time>2022-09-18T13:58:00Z</time>
      </trkpt>
      <trkpt lat="44.63626" lon="6.12006">
        <ele>1153.2</ele>
        <time>2022-09-18T13:58:01Z</time>
      </trkpt>
      <trkpt lat="44.63624" lon="6.12009">
        <ele>1153.6</ele>
        <time>2022-09-18T13:58:02Z</time>
      </trkpt>
      <trkpt lat="44.63622" lon="6.12012">
        <ele>1154</ele>
        <time>2022-09-18T13:58:03Z</time>
      </trkpt>
      <trkpt lat="44.6362" lon="6.12015">
        <ele>1154.4</ele>
        <time>2022-09-18T13:58:04Z</time>
      </trkpt>
      <trkpt lat="44.63619" lon="6.12018">
        <ele>1154.6</ele>
        <time>2022-09-18T13:58:05Z</time>
      </trkpt>
      <trkpt lat="44.63617" lon="6.1202">
        <ele>1154.8</ele>
        <time>2022-09-18T13:58:06Z</time>
      </trkpt>
      <trkpt lat="44.63615" lon="6.12023">
        <ele>1155.2</ele>
        <time>2022-09-18T13:58:07Z</time>
      </trkpt>
      <trkpt lat="44.63613" lon="6.12026">
        <ele>1155.6</ele>
        <time>2022-09-18T13:58:08Z</time>
      </trkpt>
      <trkpt lat="44.63611" lon="6.12029">
        <ele>1155.8</ele>
        <time>2022-09-18T13:58:09Z</time>
      </trkpt>
      <trkpt lat="44.6361" lon="6.12032">
        <ele>1156.2</ele>
        <time>2022-09-18T13:58:10Z</time>
      </trkpt>
      <trkpt lat="44.63608" lon="6.12034">
        <ele>1156.4</ele>
        <time>2022-09-18T13:58:11Z</time>
      </trkpt>
      <trkpt lat="44.63606" lon="6.12037">
        <ele>1156.4</ele>
        <time>2022-09-18T13:58:12Z</time>
      </trkpt>
      <trkpt lat="44.63605" lon="6.1204">
        <ele>1156.6</ele>
        <time>2022-09-18T13:58:13Z</time>
      </trkpt>
      <trkpt lat="44.63603" lon="6.12042">
        <ele>1157</ele>
        <time>2022-09-18T13:58:14Z</time>
      </trkpt>
      <trkpt lat="44.63602" lon="6.12045">
        <ele>1157.2</ele>
        <time>2022-09-18T13:58:15Z</time>
      </trkpt>
      <trkpt lat="44.636" lon="6.12048">
        <ele>1157.4</ele>
        <time>2022-09-18T13:58:16Z</time>
      </trkpt>
      <trkpt lat="44.63599" lon="6.1205">
        <ele>1158</ele>
        <time>2022-09-18T13:58:17Z</time>
      </trkpt>
      <trkpt lat="44.63597" lon="6.12053">
        <ele>1158.2</ele>
        <time>2022-09-18T13:58:18Z</time>
      </trkpt>
      <trkpt lat="44.63595" lon="6.12056">
        <ele>1158.6</ele>
        <time>2022-09-18T13:58:19Z</time>
      </trkpt>
      <trkpt lat="44.63593" lon="6.12059">
        <ele>1159</ele>
        <time>2022-09-18T13:58:20Z</time>
      </trkpt>
      <trkpt lat="44.63591" lon="6.12062">
        <ele>1159.4</ele>
        <time>2022-09-18T13:58:21Z</time>
      </trkpt>
      <trkpt lat="44.63589" lon="6.12065">
        <ele>1159.6</ele>
        <time>2022-09-18T13:58:22Z</time>
      </trkpt>
      <trkpt lat="44.63587" lon="6.12068">
        <ele>1159.8</ele>
        <time>2022-09-18T13:58:23Z</time>
      </trkpt>
      <trkpt lat="44.63585" lon="6.12071">
        <ele>1160.2</ele>
        <time>2022-09-18T13:58:24Z</time>
      </trkpt>
      <trkpt lat="44.63583" lon="6.12074">
        <ele>1160.6</ele>
        <time>2022-09-18T13:58:25Z</time>
      </trkpt>
      <trkpt lat="44.63581" lon="6.12076">
        <ele>1160.8</ele>
        <time>2022-09-18T13:58:26Z</time>
      </trkpt>
      <trkpt lat="44.63579" lon="6.12079">
        <ele>1161</ele>
        <time>2022-09-18T13:58:27Z</time>
      </trkpt>
      <trkpt lat="44.63577" lon="6.12081">
        <ele>1161.4</ele>
        <time>2022-09-18T13:58:28Z</time>
      </trkpt>
      <trkpt lat="44.63576" lon="6.12084">
        <ele>1161.8</ele>
        <time>2022-09-18T13:58:29Z</time>
      </trkpt>
      <trkpt lat="44.63574" lon="6.12086">
        <ele>1162.2</ele>
        <time>2022-09-18T13:58:30Z</time>
      </trkpt>
      <trkpt lat="44.63572" lon="6.12088">
        <ele>1162.4</ele>
        <time>2022-09-18T13:58:31Z</time>
      </trkpt>
      <trkpt lat="44.6357" lon="6.12091">
        <ele>1162.8</ele>
        <time>2022-09-18T13:58:32Z</time>
      </trkpt>
      <trkpt lat="44.63568" lon="6.12093">
        <ele>1163</ele>
        <time>2022-09-18T13:58:33Z</time>
      </trkpt>
      <trkpt lat="44.63566" lon="6.12096">
        <ele>1163.2</ele>
        <time>2022-09-18T13:58:34Z</time>
      </trkpt>
      <trkpt lat="44.63564" lon="6.12099">
        <ele>1163.4</ele>
        <time>2022-09-18T13:58:35Z</time>
      </trkpt>
      <trkpt lat="44.63562" lon="6.12101">
        <ele>1163.6</ele>
        <time>2022-09-18T13:58:36Z</time>
      </trkpt>
      <trkpt lat="44.63561" lon="6.12104">
        <ele>1163.6</ele>
        <time>2022-09-18T13:58:37Z</time>
      </trkpt>
      <trkpt lat="44.63559" lon="6.12106">
        <ele>1163.8</ele>
        <time>2022-09-18T13:58:38Z</time>
      </trkpt>
      <trkpt lat="44.63557" lon="6.12108">
        <ele>1164</ele>
        <time>2022-09-18T13:58:39Z</time>
      </trkpt>
      <trkpt lat="44.63555" lon="6.12111">
        <ele>1164.2</ele>
        <time>2022-09-18T13:58:40Z</time>
      </trkpt>
      <trkpt lat="44.63553" lon="6.12114">
        <ele>1164.4</ele>
        <time>2022-09-18T13:58:41Z</time>
      </trkpt>
      <trkpt lat="44.63552" lon="6.12116">
        <ele>1164.4</ele>
        <time>2022-09-18T13:58:42Z</time>
      </trkpt>
      <trkpt lat="44.6355" lon="6.12119">
        <ele>1164.6</ele>
        <time>2022-09-18T13:58:43Z</time>
      </trkpt>
      <trkpt lat="44.63548" lon="6.12121">
        <ele>1164.6</ele>
        <time>2022-09-18T13:58:44Z</time>
      </trkpt>
      <trkpt lat="44.63546" lon="6.12123">
        <ele>1164.8</ele>
        <time>2022-09-18T13:58:45Z</time>
      </trkpt>
      <trkpt lat="44.63544" lon="6.12126">
        <ele>1164.8</ele>
        <time>2022-09-18T13:58:46Z</time>
      </trkpt>
      <trkpt lat="44.63543" lon="6.12128">
        <ele>1165</ele>
        <time>2022-09-18T13:58:47Z</time>
      </trkpt>
      <trkpt lat="44.63541" lon="6.12131">
        <ele>1165</ele>
        <time>2022-09-18T13:58:48Z</time>
      </trkpt>
      <trkpt lat="44.63539" lon="6.12133">
        <ele>1165</ele>
        <time>2022-09-18T13:58:49Z</time>
      </trkpt>
      <trkpt lat="44.63537" lon="6.12136">
        <ele>1165.2</ele>
        <time>2022-09-18T13:58:50Z</time>
      </trkpt>
      <trkpt lat="44.63535" lon="6.12138">
        <ele>1165</ele>
        <time>2022-09-18T13:58:51Z</time>
      </trkpt>
      <trkpt lat="44.63533" lon="6.1214">
        <ele>1165</ele>
        <time>2022-09-18T13:58:52Z</time>
      </trkpt>
      <trkpt lat="44.63532" lon="6.12142">
        <ele>1165</ele>
        <time>2022-09-18T13:58:53Z</time>
      </trkpt>
      <trkpt lat="44.6353" lon="6.12144">
        <ele>1165.2</ele>
        <time>2022-09-18T13:58:54Z</time>
      </trkpt>
      <trkpt lat="44.63528" lon="6.12147">
        <ele>1165</ele>
        <time>2022-09-18T13:58:55Z</time>
      </trkpt>
      <trkpt lat="44.63526" lon="6.12149">
        <ele>1165.4</ele>
        <time>2022-09-18T13:58:56Z</time>
      </trkpt>
      <trkpt lat="44.63524" lon="6.12151">
        <ele>1165.4</ele>
        <time>2022-09-18T13:58:57Z</time>
      </trkpt>
      <trkpt lat="44.63523" lon="6.12153">
        <ele>1165.4</ele>
        <time>2022-09-18T13:58:58Z</time>
      </trkpt>
      <trkpt lat="44.63521" lon="6.12155">
        <ele>1165.6</ele>
        <time>2022-09-18T13:58:59Z</time>
      </trkpt>
      <trkpt lat="44.63519" lon="6.12157">
        <ele>1165.6</ele>
        <time>2022-09-18T13:59:00Z</time>
      </trkpt>
      <trkpt lat="44.63517" lon="6.12159">
        <ele>1165.8</ele>
        <time>2022-09-18T13:59:01Z</time>
      </trkpt>
      <trkpt lat="44.63515" lon="6.12162">
        <ele>1165.8</ele>
        <time>2022-09-18T13:59:02Z</time>
      </trkpt>
      <trkpt lat="44.63513" lon="6.12164">
        <ele>1166</ele>
        <time>2022-09-18T13:59:03Z</time>
      </trkpt>
      <trkpt lat="44.63511" lon="6.12166">
        <ele>1166.2</ele>
        <time>2022-09-18T13:59:04Z</time>
      </trkpt>
      <trkpt lat="44.63508" lon="6.12169">
        <ele>1166.2</ele>
        <time>2022-09-18T13:59:05Z</time>
      </trkpt>
      <trkpt lat="44.63506" lon="6.1217">
        <ele>1166.4</ele>
        <time>2022-09-18T13:59:06Z</time>
      </trkpt>
      <trkpt lat="44.63504" lon="6.12172">
        <ele>1166.4</ele>
        <time>2022-09-18T13:59:07Z</time>
      </trkpt>
      <trkpt lat="44.63502" lon="6.12173">
        <ele>1166.6</ele>
        <time>2022-09-18T13:59:08Z</time>
      </trkpt>
      <trkpt lat="44.63499" lon="6.12174">
        <ele>1166.6</ele>
        <time>2022-09-18T13:59:09Z</time>
      </trkpt>
      <trkpt lat="44.63497" lon="6.12175">
        <ele>1166.8</ele>
        <time>2022-09-18T13:59:10Z</time>
      </trkpt>
      <trkpt lat="44.63494" lon="6.12176">
        <ele>1166.8</ele>
        <time>2022-09-18T13:59:11Z</time>
      </trkpt>
      <trkpt lat="44.63491" lon="6.12176">
        <ele>1166.8</ele>
        <time>2022-09-18T13:59:12Z</time>
      </trkpt>
      <trkpt lat="44.63488" lon="6.12176">
        <ele>1166.8</ele>
        <time>2022-09-18T13:59:13Z</time>
      </trkpt>
      <trkpt lat="44.63485" lon="6.12176">
        <ele>1167.2</ele>
        <time>2022-09-18T13:59:14Z</time>
      </trkpt>
      <trkpt lat="44.63482" lon="6.12176">
        <ele>1167.2</ele>
        <time>2022-09-18T13:59:15Z</time>
      </trkpt>
      <trkpt lat="44.63479" lon="6.12175">
        <ele>1167.6</ele>
        <time>2022-09-18T13:59:16Z</time>
      </trkpt>
      <trkpt lat="44.63477" lon="6.12175">
        <ele>1167.6</ele>
        <time>2022-09-18T13:59:17Z</time>
      </trkpt>
      <trkpt lat="44.63474" lon="6.12174">
        <ele>1167.8</ele>
        <time>2022-09-18T13:59:18Z</time>
      </trkpt>
      <trkpt lat="44.63471" lon="6.12173">
        <ele>1167.8</ele>
        <time>2022-09-18T13:59:19Z</time>
      </trkpt>
      <trkpt lat="44.63469" lon="6.12171">
        <ele>1168</ele>
        <time>2022-09-18T13:59:20Z</time>
      </trkpt>
      <trkpt lat="44.63466" lon="6.12171">
        <ele>1168.2</ele>
        <time>2022-09-18T13:59:21Z</time>
      </trkpt>
      <trkpt lat="44.63464" lon="6.12169">
        <ele>1168.2</ele>
        <time>2022-09-18T13:59:22Z</time>
      </trkpt>
      <trkpt lat="44.63461" lon="6.12168">
        <ele>1168.4</ele>
        <time>2022-09-18T13:59:23Z</time>
      </trkpt>
      <trkpt lat="44.63458" lon="6.12167">
        <ele>1168.4</ele>
        <time>2022-09-18T13:59:24Z</time>
      </trkpt>
      <trkpt lat="44.63456" lon="6.12166">
        <ele>1168.4</ele>
        <time>2022-09-18T13:59:25Z</time>
      </trkpt>
      <trkpt lat="44.63453" lon="6.12165">
        <ele>1168.6</ele>
        <time>2022-09-18T13:59:26Z</time>
      </trkpt>
      <trkpt lat="44.63451" lon="6.12164">
        <ele>1168.6</ele>
        <time>2022-09-18T13:59:27Z</time>
      </trkpt>
      <trkpt lat="44.63448" lon="6.12164">
        <ele>1168.8</ele>
        <time>2022-09-18T13:59:28Z</time>
      </trkpt>
      <trkpt lat="44.63446" lon="6.12163">
        <ele>1168.8</ele>
        <time>2022-09-18T13:59:29Z</time>
      </trkpt>
      <trkpt lat="44.63443" lon="6.12162">
        <ele>1169</ele>
        <time>2022-09-18T13:59:30Z</time>
      </trkpt>
      <trkpt lat="44.63441" lon="6.12162">
        <ele>1169</ele>
        <time>2022-09-18T13:59:31Z</time>
      </trkpt>
      <trkpt lat="44.63438" lon="6.12161">
        <ele>1169</ele>
        <time>2022-09-18T13:59:32Z</time>
      </trkpt>
      <trkpt lat="44.63435" lon="6.12161">
        <ele>1169</ele>
        <time>2022-09-18T13:59:33Z</time>
      </trkpt>
      <trkpt lat="44.63433" lon="6.1216">
        <ele>1169.2</ele>
        <time>2022-09-18T13:59:34Z</time>
      </trkpt>
      <trkpt lat="44.6343" lon="6.1216">
        <ele>1169.4</ele>
        <time>2022-09-18T13:59:35Z</time>
      </trkpt>
      <trkpt lat="44.63428" lon="6.1216">
        <ele>1169.6</ele>
        <time>2022-09-18T13:59:36Z</time>
      </trkpt>
      <trkpt lat="44.63425" lon="6.12161">
        <ele>1169.8</ele>
        <time>2022-09-18T13:59:37Z</time>
      </trkpt>
      <trkpt lat="44.63423" lon="6.12161">
        <ele>1170</ele>
        <time>2022-09-18T13:59:38Z</time>
      </trkpt>
      <trkpt lat="44.6342" lon="6.12162">
        <ele>1170.2</ele>
        <time>2022-09-18T13:59:39Z</time>
      </trkpt>
      <trkpt lat="44.63418" lon="6.12163">
        <ele>1170.2</ele>
        <time>2022-09-18T13:59:40Z</time>
      </trkpt>
      <trkpt lat="44.63415" lon="6.12163">
        <ele>1170.4</ele>
        <time>2022-09-18T13:59:41Z</time>
      </trkpt>
      <trkpt lat="44.63413" lon="6.12164">
        <ele>1170.4</ele>
        <time>2022-09-18T13:59:42Z</time>
      </trkpt>
      <trkpt lat="44.6341" lon="6.12165">
        <ele>1170.8</ele>
        <time>2022-09-18T13:59:43Z</time>
      </trkpt>
      <trkpt lat="44.63408" lon="6.12167">
        <ele>1171</ele>
        <time>2022-09-18T13:59:44Z</time>
      </trkpt>
      <trkpt lat="44.63405" lon="6.12168">
        <ele>1171</ele>
        <time>2022-09-18T13:59:45Z</time>
      </trkpt>
      <trkpt lat="44.63403" lon="6.1217">
        <ele>1171.2</ele>
        <time>2022-09-18T13:59:46Z</time>
      </trkpt>
      <trkpt lat="44.63401" lon="6.12172">
        <ele>1171.4</ele>
        <time>2022-09-18T13:59:47Z</time>
      </trkpt>
      <trkpt lat="44.63399" lon="6.12174">
        <ele>1171.4</ele>
        <time>2022-09-18T13:59:48Z</time>
      </trkpt>
      <trkpt lat="44.63396" lon="6.12176">
        <ele>1171.6</ele>
        <time>2022-09-18T13:59:49Z</time>
      </trkpt>
      <trkpt lat="44.63394" lon="6.12179">
        <ele>1172</ele>
        <time>2022-09-18T13:59:50Z</time>
      </trkpt>
      <trkpt lat="44.63392" lon="6.12181">
        <ele>1172.4</ele>
        <time>2022-09-18T13:59:51Z</time>
      </trkpt>
      <trkpt lat="44.6339" lon="6.12184">
        <ele>1172.8</ele>
        <time>2022-09-18T13:59:52Z</time>
      </trkpt>
      <trkpt lat="44.63389" lon="6.12186">
        <ele>1172.6</ele>
        <time>2022-09-18T13:59:53Z</time>
      </trkpt>
      <trkpt lat="44.63387" lon="6.12189">
        <ele>1172.8</ele>
        <time>2022-09-18T13:59:54Z</time>
      </trkpt>
      <trkpt lat="44.63385" lon="6.12191">
        <ele>1173</ele>
        <time>2022-09-18T13:59:55Z</time>
      </trkpt>
      <trkpt lat="44.63384" lon="6.12194">
        <ele>1173.2</ele>
        <time>2022-09-18T13:59:56Z</time>
      </trkpt>
      <trkpt lat="44.63382" lon="6.12197">
        <ele>1173.4</ele>
        <time>2022-09-18T13:59:57Z</time>
      </trkpt>
      <trkpt lat="44.6338" lon="6.122">
        <ele>1173.6</ele>
        <time>2022-09-18T13:59:58Z</time>
      </trkpt>
      <trkpt lat="44.63379" lon="6.12203">
        <ele>1173.8</ele>
        <time>2022-09-18T13:59:59Z</time>
      </trkpt>
      <trkpt lat="44.63377" lon="6.12206">
        <ele>1173.8</ele>
        <time>2022-09-18T14:00:00Z</time>
      </trkpt>
      <trkpt lat="44.63375" lon="6.12209">
        <ele>1174.2</ele>
        <time>2022-09-18T14:00:01Z</time>
      </trkpt>
      <trkpt lat="44.63373" lon="6.12212">
        <ele>1174.2</ele>
        <time>2022-09-18T14:00:02Z</time>
      </trkpt>
      <trkpt lat="44.63372" lon="6.12214">
        <ele>1174.6</ele>
        <time>2022-09-18T14:00:03Z</time>
      </trkpt>
      <trkpt lat="44.6337" lon="6.12217">
        <ele>1174.8</ele>
        <time>2022-09-18T14:00:04Z</time>
      </trkpt>
      <trkpt lat="44.63368" lon="6.1222">
        <ele>1174.8</ele>
        <time>2022-09-18T14:00:05Z</time>
      </trkpt>
      <trkpt lat="44.63367" lon="6.12223">
        <ele>1175</ele>
        <time>2022-09-18T14:00:06Z</time>
      </trkpt>
      <trkpt lat="44.63365" lon="6.12226">
        <ele>1175.2</ele>
        <time>2022-09-18T14:00:07Z</time>
      </trkpt>
      <trkpt lat="44.63363" lon="6.12229">
        <ele>1175.4</ele>
        <time>2022-09-18T14:00:08Z</time>
      </trkpt>
      <trkpt lat="44.63362" lon="6.12232">
        <ele>1175.8</ele>
        <time>2022-09-18T14:00:09Z</time>
      </trkpt>
      <trkpt lat="44.6336" lon="6.12235">
        <ele>1176.2</ele>
        <time>2022-09-18T14:00:10Z</time>
      </trkpt>
      <trkpt lat="44.63358" lon="6.12238">
        <ele>1176.4</ele>
        <time>2022-09-18T14:00:11Z</time>
      </trkpt>
      <trkpt lat="44.63356" lon="6.12241">
        <ele>1176.4</ele>
        <time>2022-09-18T14:00:12Z</time>
      </trkpt>
      <trkpt lat="44.63355" lon="6.12244">
        <ele>1176.8</ele>
        <time>2022-09-18T14:00:13Z</time>
      </trkpt>
      <trkpt lat="44.63353" lon="6.12246">
        <ele>1177</ele>
        <time>2022-09-18T14:00:14Z</time>
      </trkpt>
      <trkpt lat="44.63351" lon="6.12249">
        <ele>1177.2</ele>
        <time>2022-09-18T14:00:15Z</time>
      </trkpt>
      <trkpt lat="44.6335" lon="6.12252">
        <ele>1177.6</ele>
        <time>2022-09-18T14:00:16Z</time>
      </trkpt>
      <trkpt lat="44.63348" lon="6.12254">
        <ele>1177.8</ele>
        <time>2022-09-18T14:00:17Z</time>
      </trkpt>
      <trkpt lat="44.63346" lon="6.12257">
        <ele>1177.8</ele>
        <time>2022-09-18T14:00:18Z</time>
      </trkpt>
      <trkpt lat="44.63345" lon="6.1226">
        <ele>1178.2</ele>
        <time>2022-09-18T14:00:19Z</time>
      </trkpt>
      <trkpt lat="44.63343" lon="6.12263">
        <ele>1178.6</ele>
        <time>2022-09-18T14:00:20Z</time>
      </trkpt>
      <trkpt lat="44.63341" lon="6.12266">
        <ele>1178.8</ele>
        <time>2022-09-18T14:00:21Z</time>
      </trkpt>
      <trkpt lat="44.6334" lon="6.12268">
        <ele>1179</ele>
        <time>2022-09-18T14:00:22Z</time>
      </trkpt>
      <trkpt lat="44.63338" lon="6.12271">
        <ele>1179.4</ele>
        <time>2022-09-18T14:00:23Z</time>
      </trkpt>
      <trkpt lat="44.63336" lon="6.12274">
        <ele>1179.4</ele>
        <time>2022-09-18T14:00:24Z</time>
      </trkpt>
      <trkpt lat="44.63334" lon="6.12276">
        <ele>1179.8</ele>
        <time>2022-09-18T14:00:25Z</time>
      </trkpt>
      <trkpt lat="44.63333" lon="6.12279">
        <ele>1180.2</ele>
        <time>2022-09-18T14:00:26Z</time>
      </trkpt>
      <trkpt lat="44.63331" lon="6.12282">
        <ele>1180.4</ele>
        <time>2022-09-18T14:00:27Z</time>
      </trkpt>
      <trkpt lat="44.63329" lon="6.12284">
        <ele>1180.4</ele>
        <time>2022-09-18T14:00:28Z</time>
      </trkpt>
      <trkpt lat="44.63327" lon="6.12287">
        <ele>1180.4</ele>
        <time>2022-09-18T14:00:29Z</time>
      </trkpt>
      <trkpt lat="44.63325" lon="6.1229">
        <ele>1180.6</ele>
        <time>2022-09-18T14:00:30Z</time>
      </trkpt>
      <trkpt lat="44.63323" lon="6.12293">
        <ele>1181</ele>
        <time>2022-09-18T14:00:31Z</time>
      </trkpt>
      <trkpt lat="44.63321" lon="6.12296">
        <ele>1181.2</ele>
        <time>2022-09-18T14:00:32Z</time>
      </trkpt>
      <trkpt lat="44.6332" lon="6.12298">
        <ele>1181.6</ele>
        <time>2022-09-18T14:00:33Z</time>
      </trkpt>
      <trkpt lat="44.63317" lon="6.12302">
        <ele>1181.8</ele>
        <time>2022-09-18T14:00:34Z</time>
      </trkpt>
      <trkpt lat="44.63315" lon="6.12304">
        <ele>1182</ele>
        <time>2022-09-18T14:00:35Z</time>
      </trkpt>
      <trkpt lat="44.63313" lon="6.12307">
        <ele>1182.4</ele>
        <time>2022-09-18T14:00:36Z</time>
      </trkpt>
      <trkpt lat="44.63311" lon="6.1231">
        <ele>1182.8</ele>
        <time>2022-09-18T14:00:37Z</time>
      </trkpt>
      <trkpt lat="44.63309" lon="6.12313">
        <ele>1183.2</ele>
        <time>2022-09-18T14:00:38Z</time>
      </trkpt>
      <trkpt lat="44.63307" lon="6.12317">
        <ele>1183.4</ele>
        <time>2022-09-18T14:00:39Z</time>
      </trkpt>
      <trkpt lat="44.63305" lon="6.1232">
        <ele>1183.6</ele>
        <time>2022-09-18T14:00:40Z</time>
      </trkpt>
      <trkpt lat="44.63303" lon="6.12323">
        <ele>1183.8</ele>
        <time>2022-09-18T14:00:41Z</time>
      </trkpt>
      <trkpt lat="44.63301" lon="6.12326">
        <ele>1183.8</ele>
        <time>2022-09-18T14:00:42Z</time>
      </trkpt>
      <trkpt lat="44.63299" lon="6.12329">
        <ele>1184</ele>
        <time>2022-09-18T14:00:43Z</time>
      </trkpt>
      <trkpt lat="44.63297" lon="6.12332">
        <ele>1184</ele>
        <time>2022-09-18T14:00:44Z</time>
      </trkpt>
      <trkpt lat="44.63295" lon="6.12335">
        <ele>1184.2</ele>
        <time>2022-09-18T14:00:45Z</time>
      </trkpt>
      <trkpt lat="44.63293" lon="6.12338">
        <ele>1184</ele>
        <time>2022-09-18T14:00:46Z</time>
      </trkpt>
      <trkpt lat="44.63291" lon="6.12341">
        <ele>1184.2</ele>
        <time>2022-09-18T14:00:47Z</time>
      </trkpt>
      <trkpt lat="44.63289" lon="6.12344">
        <ele>1184.2</ele>
        <time>2022-09-18T14:00:48Z</time>
      </trkpt>
      <trkpt lat="44.63287" lon="6.12348">
        <ele>1184.2</ele>
        <time>2022-09-18T14:00:49Z</time>
      </trkpt>
      <trkpt lat="44.63285" lon="6.12351">
        <ele>1184.4</ele>
        <time>2022-09-18T14:00:50Z</time>
      </trkpt>
      <trkpt lat="44.63283" lon="6.12354">
        <ele>1184.4</ele>
        <time>2022-09-18T14:00:51Z</time>
      </trkpt>
      <trkpt lat="44.63281" lon="6.12357">
        <ele>1184.4</ele>
        <time>2022-09-18T14:00:52Z</time>
      </trkpt>
      <trkpt lat="44.63279" lon="6.1236">
        <ele>1184.4</ele>
        <time>2022-09-18T14:00:53Z</time>
      </trkpt>
      <trkpt lat="44.63277" lon="6.12363">
        <ele>1184.6</ele>
        <time>2022-09-18T14:00:54Z</time>
      </trkpt>
      <trkpt lat="44.63275" lon="6.12366">
        <ele>1184.8</ele>
        <time>2022-09-18T14:00:55Z</time>
      </trkpt>
      <trkpt lat="44.63273" lon="6.12369">
        <ele>1184.8</ele>
        <time>2022-09-18T14:00:56Z</time>
      </trkpt>
      <trkpt lat="44.63271" lon="6.12372">
        <ele>1185</ele>
        <time>2022-09-18T14:00:57Z</time>
      </trkpt>
      <trkpt lat="44.63269" lon="6.12375">
        <ele>1185</ele>
        <time>2022-09-18T14:00:58Z</time>
      </trkpt>
      <trkpt lat="44.63267" lon="6.12378">
        <ele>1185.2</ele>
        <time>2022-09-18T14:00:59Z</time>
      </trkpt>
      <trkpt lat="44.63266" lon="6.12381">
        <ele>1185.2</ele>
        <time>2022-09-18T14:01:00Z</time>
      </trkpt>
      <trkpt lat="44.63264" lon="6.12384">
        <ele>1185.2</ele>
        <time>2022-09-18T14:01:01Z</time>
      </trkpt>
      <trkpt lat="44.63262" lon="6.12387">
        <ele>1185.2</ele>
        <time>2022-09-18T14:01:02Z</time>
      </trkpt>
      <trkpt lat="44.6326" lon="6.1239">
        <ele>1185.2</ele>
        <time>2022-09-18T14:01:03Z</time>
      </trkpt>
      <trkpt lat="44.63258" lon="6.12394">
        <ele>1185.4</ele>
        <time>2022-09-18T14:01:04Z</time>
      </trkpt>
      <trkpt lat="44.63256" lon="6.12397">
        <ele>1185.4</ele>
        <time>2022-09-18T14:01:05Z</time>
      </trkpt>
      <trkpt lat="44.63255" lon="6.124">
        <ele>1185.6</ele>
        <time>2022-09-18T14:01:06Z</time>
      </trkpt>
      <trkpt lat="44.63253" lon="6.12403">
        <ele>1185.8</ele>
        <time>2022-09-18T14:01:07Z</time>
      </trkpt>
      <trkpt lat="44.63251" lon="6.12407">
        <ele>1185.8</ele>
        <time>2022-09-18T14:01:08Z</time>
      </trkpt>
      <trkpt lat="44.63249" lon="6.1241">
        <ele>1186</ele>
        <time>2022-09-18T14:01:09Z</time>
      </trkpt>
      <trkpt lat="44.63247" lon="6.12413">
        <ele>1186</ele>
        <time>2022-09-18T14:01:10Z</time>
      </trkpt>
      <trkpt lat="44.63245" lon="6.12417">
        <ele>1186.2</ele>
        <time>2022-09-18T14:01:11Z</time>
      </trkpt>
      <trkpt lat="44.63244" lon="6.1242">
        <ele>1186.4</ele>
        <time>2022-09-18T14:01:12Z</time>
      </trkpt>
      <trkpt lat="44.63242" lon="6.12424">
        <ele>1186.4</ele>
        <time>2022-09-18T14:01:13Z</time>
      </trkpt>
      <trkpt lat="44.6324" lon="6.12427">
        <ele>1186.4</ele>
        <time>2022-09-18T14:01:14Z</time>
      </trkpt>
      <trkpt lat="44.63238" lon="6.1243">
        <ele>1186.4</ele>
        <time>2022-09-18T14:01:15Z</time>
      </trkpt>
      <trkpt lat="44.63236" lon="6.12434">
        <ele>1186.6</ele>
        <time>2022-09-18T14:01:16Z</time>
      </trkpt>
      <trkpt lat="44.63234" lon="6.12437">
        <ele>1186.6</ele>
        <time>2022-09-18T14:01:17Z</time>
      </trkpt>
      <trkpt lat="44.63233" lon="6.1244">
        <ele>1186.8</ele>
        <time>2022-09-18T14:01:18Z</time>
      </trkpt>
      <trkpt lat="44.63231" lon="6.12443">
        <ele>1187</ele>
        <time>2022-09-18T14:01:19Z</time>
      </trkpt>
      <trkpt lat="44.63229" lon="6.12446">
        <ele>1187.2</ele>
        <time>2022-09-18T14:01:20Z</time>
      </trkpt>
      <trkpt lat="44.63227" lon="6.12449">
        <ele>1187.6</ele>
        <time>2022-09-18T14:01:21Z</time>
      </trkpt>
      <trkpt lat="44.63225" lon="6.12451">
        <ele>1187.8</ele>
        <time>2022-09-18T14:01:22Z</time>
      </trkpt>
      <trkpt lat="44.63223" lon="6.12455">
        <ele>1188.2</ele>
        <time>2022-09-18T14:01:23Z</time>
      </trkpt>
      <trkpt lat="44.63221" lon="6.12458">
        <ele>1188.4</ele>
        <time>2022-09-18T14:01:24Z</time>
      </trkpt>
      <trkpt lat="44.63219" lon="6.12461">
        <ele>1188.8</ele>
        <time>2022-09-18T14:01:25Z</time>
      </trkpt>
      <trkpt lat="44.63217" lon="6.12464">
        <ele>1189.2</ele>
        <time>2022-09-18T14:01:26Z</time>
      </trkpt>
      <trkpt lat="44.63215" lon="6.12467">
        <ele>1189.6</ele>
        <time>2022-09-18T14:01:27Z</time>
      </trkpt>
      <trkpt lat="44.63213" lon="6.1247">
        <ele>1189.6</ele>
        <time>2022-09-18T14:01:28Z</time>
      </trkpt>
      <trkpt lat="44.63211" lon="6.12473">
        <ele>1190</ele>
        <time>2022-09-18T14:01:29Z</time>
      </trkpt>
      <trkpt lat="44.63209" lon="6.12477">
        <ele>1190.4</ele>
        <time>2022-09-18T14:01:30Z</time>
      </trkpt>
      <trkpt lat="44.63207" lon="6.1248">
        <ele>1190.6</ele>
        <time>2022-09-18T14:01:31Z</time>
      </trkpt>
      <trkpt lat="44.63205" lon="6.12483">
        <ele>1191</ele>
        <time>2022-09-18T14:01:32Z</time>
      </trkpt>
      <trkpt lat="44.63202" lon="6.12486">
        <ele>1191</ele>
        <time>2022-09-18T14:01:33Z</time>
      </trkpt>
      <trkpt lat="44.632" lon="6.12489">
        <ele>1191.2</ele>
        <time>2022-09-18T14:01:34Z</time>
      </trkpt>
      <trkpt lat="44.63198" lon="6.12492">
        <ele>1191.8</ele>
        <time>2022-09-18T14:01:35Z</time>
      </trkpt>
      <trkpt lat="44.63196" lon="6.12495">
        <ele>1192</ele>
        <time>2022-09-18T14:01:36Z</time>
      </trkpt>
      <trkpt lat="44.63194" lon="6.12498">
        <ele>1192.2</ele>
        <time>2022-09-18T14:01:37Z</time>
      </trkpt>
      <trkpt lat="44.63192" lon="6.12501">
        <ele>1192.4</ele>
        <time>2022-09-18T14:01:38Z</time>
      </trkpt>
      <trkpt lat="44.63189" lon="6.12504">
        <ele>1192.8</ele>
        <time>2022-09-18T14:01:39Z</time>
      </trkpt>
      <trkpt lat="44.63187" lon="6.12506">
        <ele>1193</ele>
        <time>2022-09-18T14:01:40Z</time>
      </trkpt>
      <trkpt lat="44.63185" lon="6.12509">
        <ele>1193.2</ele>
        <time>2022-09-18T14:01:41Z</time>
      </trkpt>
      <trkpt lat="44.63183" lon="6.12512">
        <ele>1193.4</ele>
        <time>2022-09-18T14:01:42Z</time>
      </trkpt>
      <trkpt lat="44.63181" lon="6.12515">
        <ele>1193.8</ele>
        <time>2022-09-18T14:01:43Z</time>
      </trkpt>
      <trkpt lat="44.63178" lon="6.12518">
        <ele>1194</ele>
        <time>2022-09-18T14:01:44Z</time>
      </trkpt>
      <trkpt lat="44.63176" lon="6.12521">
        <ele>1194.2</ele>
        <time>2022-09-18T14:01:45Z</time>
      </trkpt>
      <trkpt lat="44.63174" lon="6.12524">
        <ele>1194.4</ele>
        <time>2022-09-18T14:01:46Z</time>
      </trkpt>
      <trkpt lat="44.63172" lon="6.12527">
        <ele>1194.6</ele>
        <time>2022-09-18T14:01:47Z</time>
      </trkpt>
      <trkpt lat="44.63169" lon="6.1253">
        <ele>1194.8</ele>
        <time>2022-09-18T14:01:48Z</time>
      </trkpt>
      <trkpt lat="44.63167" lon="6.12533">
        <ele>1195.2</ele>
        <time>2022-09-18T14:01:49Z</time>
      </trkpt>
      <trkpt lat="44.63165" lon="6.12536">
        <ele>1195.2</ele>
        <time>2022-09-18T14:01:50Z</time>
      </trkpt>
      <trkpt lat="44.63162" lon="6.12539">
        <ele>1195.4</ele>
        <time>2022-09-18T14:01:51Z</time>
      </trkpt>
      <trkpt lat="44.6316" lon="6.12541">
        <ele>1195.6</ele>
        <time>2022-09-18T14:01:52Z</time>
      </trkpt>
      <trkpt lat="44.63157" lon="6.12544">
        <ele>1196</ele>
        <time>2022-09-18T14:01:53Z</time>
      </trkpt>
      <trkpt lat="44.63154" lon="6.12546">
        <ele>1196.4</ele>
        <time>2022-09-18T14:01:54Z</time>
      </trkpt>
      <trkpt lat="44.63152" lon="6.12549">
        <ele>1196.6</ele>
        <time>2022-09-18T14:01:55Z</time>
      </trkpt>
      <trkpt lat="44.63149" lon="6.12551">
        <ele>1197</ele>
        <time>2022-09-18T14:01:56Z</time>
      </trkpt>
      <trkpt lat="44.63146" lon="6.12553">
        <ele>1197.4</ele>
        <time>2022-09-18T14:01:57Z</time>
      </trkpt>
      <trkpt lat="44.63144" lon="6.12556">
        <ele>1197.8</ele>
        <time>2022-09-18T14:01:58Z</time>
      </trkpt>
      <trkpt lat="44.63141" lon="6.12558">
        <ele>1198.2</ele>
        <time>2022-09-18T14:01:59Z</time>
      </trkpt>
      <trkpt lat="44.63138" lon="6.1256">
        <ele>1198.2</ele>
        <time>2022-09-18T14:02:00Z</time>
      </trkpt>
      <trkpt lat="44.63136" lon="6.12563">
        <ele>1198.4</ele>
        <time>2022-09-18T14:02:01Z</time>
      </trkpt>
      <trkpt lat="44.63133" lon="6.12565">
        <ele>1198.8</ele>
        <time>2022-09-18T14:02:02Z</time>
      </trkpt>
      <trkpt lat="44.63131" lon="6.12567">
        <ele>1199.2</ele>
        <time>2022-09-18T14:02:03Z</time>
      </trkpt>
      <trkpt lat="44.63128" lon="6.12569">
        <ele>1199.4</ele>
        <time>2022-09-18T14:02:04Z</time>
      </trkpt>
      <trkpt lat="44.63126" lon="6.12572">
        <ele>1199.6</ele>
        <time>2022-09-18T14:02:05Z</time>
      </trkpt>
      <trkpt lat="44.63123" lon="6.12574">
        <ele>1199.8</ele>
        <time>2022-09-18T14:02:06Z</time>
      </trkpt>
      <trkpt lat="44.63121" lon="6.12577">
        <ele>1200</ele>
        <time>2022-09-18T14:02:07Z</time>
      </trkpt>
      <trkpt lat="44.63118" lon="6.12579">
        <ele>1200.4</ele>
        <time>2022-09-18T14:02:08Z</time>
      </trkpt>
      <trkpt lat="44.63116" lon="6.12582">
        <ele>1200.6</ele>
        <time>2022-09-18T14:02:09Z</time>
      </trkpt>
      <trkpt lat="44.63114" lon="6.12585">
        <ele>1201</ele>
        <time>2022-09-18T14:02:10Z</time>
      </trkpt>
      <trkpt lat="44.63111" lon="6.12588">
        <ele>1201</ele>
        <time>2022-09-18T14:02:11Z</time>
      </trkpt>
      <trkpt lat="44.63109" lon="6.1259">
        <ele>1201.2</ele>
        <time>2022-09-18T14:02:12Z</time>
      </trkpt>
      <trkpt lat="44.63106" lon="6.12593">
        <ele>1201.4</ele>
        <time>2022-09-18T14:02:13Z</time>
      </trkpt>
      <trkpt lat="44.63104" lon="6.12596">
        <ele>1201.6</ele>
        <time>2022-09-18T14:02:14Z</time>
      </trkpt>
      <trkpt lat="44.63101" lon="6.12599">
        <ele>1201.8</ele>
        <time>2022-09-18T14:02:15Z</time>
      </trkpt>
      <trkpt lat="44.63099" lon="6.12602">
        <ele>1202</ele>
        <time>2022-09-18T14:02:16Z</time>
      </trkpt>
      <trkpt lat="44.63097" lon="6.12605">
        <ele>1202.2</ele>
        <time>2022-09-18T14:02:17Z</time>
      </trkpt>
      <trkpt lat="44.63095" lon="6.12608">
        <ele>1202.2</ele>
        <time>2022-09-18T14:02:18Z</time>
      </trkpt>
      <trkpt lat="44.63092" lon="6.1261">
        <ele>1202.6</ele>
        <time>2022-09-18T14:02:19Z</time>
      </trkpt>
      <trkpt lat="44.6309" lon="6.12613">
        <ele>1202.8</ele>
        <time>2022-09-18T14:02:20Z</time>
      </trkpt>
      <trkpt lat="44.63088" lon="6.12617">
        <ele>1202.8</ele>
        <time>2022-09-18T14:02:21Z</time>
      </trkpt>
      <trkpt lat="44.63086" lon="6.1262">
        <ele>1203.2</ele>
        <time>2022-09-18T14:02:22Z</time>
      </trkpt>
      <trkpt lat="44.63083" lon="6.12623">
        <ele>1203.2</ele>
        <time>2022-09-18T14:02:23Z</time>
      </trkpt>
      <trkpt lat="44.63081" lon="6.12626">
        <ele>1203.6</ele>
        <time>2022-09-18T14:02:24Z</time>
      </trkpt>
      <trkpt lat="44.63079" lon="6.12629">
        <ele>1203.6</ele>
        <time>2022-09-18T14:02:25Z</time>
      </trkpt>
      <trkpt lat="44.63077" lon="6.12632">
        <ele>1203.8</ele>
        <time>2022-09-18T14:02:26Z</time>
      </trkpt>
      <trkpt lat="44.63074" lon="6.12635">
        <ele>1204</ele>
        <time>2022-09-18T14:02:27Z</time>
      </trkpt>
      <trkpt lat="44.63072" lon="6.12638">
        <ele>1204</ele>
        <time>2022-09-18T14:02:28Z</time>
      </trkpt>
      <trkpt lat="44.6307" lon="6.12641">
        <ele>1204.2</ele>
        <time>2022-09-18T14:02:29Z</time>
      </trkpt>
      <trkpt lat="44.63067" lon="6.12644">
        <ele>1204.2</ele>
        <time>2022-09-18T14:02:30Z</time>
      </trkpt>
      <trkpt lat="44.63065" lon="6.12647">
        <ele>1204</ele>
        <time>2022-09-18T14:02:31Z</time>
      </trkpt>
      <trkpt lat="44.63063" lon="6.1265">
        <ele>1204.4</ele>
        <time>2022-09-18T14:02:32Z</time>
      </trkpt>
      <trkpt lat="44.6306" lon="6.12653">
        <ele>1204.6</ele>
        <time>2022-09-18T14:02:33Z</time>
      </trkpt>
      <trkpt lat="44.63058" lon="6.12655">
        <ele>1204.8</ele>
        <time>2022-09-18T14:02:34Z</time>
      </trkpt>
      <trkpt lat="44.63056" lon="6.12658">
        <ele>1204.8</ele>
        <time>2022-09-18T14:02:35Z</time>
      </trkpt>
      <trkpt lat="44.63053" lon="6.12661">
        <ele>1205</ele>
        <time>2022-09-18T14:02:36Z</time>
      </trkpt>
      <trkpt lat="44.6305" lon="6.12664">
        <ele>1205</ele>
        <time>2022-09-18T14:02:37Z</time>
      </trkpt>
      <trkpt lat="44.63048" lon="6.12667">
        <ele>1205</ele>
        <time>2022-09-18T14:02:38Z</time>
      </trkpt>
      <trkpt lat="44.63045" lon="6.12669">
        <ele>1205.2</ele>
        <time>2022-09-18T14:02:39Z</time>
      </trkpt>
      <trkpt lat="44.63042" lon="6.12672">
        <ele>1205.4</ele>
        <time>2022-09-18T14:02:40Z</time>
      </trkpt>
      <trkpt lat="44.6304" lon="6.12674">
        <ele>1205.4</ele>
        <time>2022-09-18T14:02:41Z</time>
      </trkpt>
      <trkpt lat="44.63037" lon="6.12677">
        <ele>1205.6</ele>
        <time>2022-09-18T14:02:42Z</time>
      </trkpt>
      <trkpt lat="44.63034" lon="6.12679">
        <ele>1205.8</ele>
        <time>2022-09-18T14:02:43Z</time>
      </trkpt>
      <trkpt lat="44.63032" lon="6.12682">
        <ele>1205.8</ele>
        <time>2022-09-18T14:02:44Z</time>
      </trkpt>
      <trkpt lat="44.63029" lon="6.12684">
        <ele>1206.2</ele>
        <time>2022-09-18T14:02:45Z</time>
      </trkpt>
      <trkpt lat="44.63026" lon="6.12687">
        <ele>1206.2</ele>
        <time>2022-09-18T14:02:46Z</time>
      </trkpt>
      <trkpt lat="44.63024" lon="6.12689">
        <ele>1206.2</ele>
        <time>2022-09-18T14:02:47Z</time>
      </trkpt>
      <trkpt lat="44.63021" lon="6.12692">
        <ele>1206.4</ele>
        <time>2022-09-18T14:02:48Z</time>
      </trkpt>
      <trkpt lat="44.63018" lon="6.12694">
        <ele>1206.4</ele>
        <time>2022-09-18T14:02:49Z</time>
      </trkpt>
      <trkpt lat="44.63015" lon="6.12697">
        <ele>1206.6</ele>
        <time>2022-09-18T14:02:50Z</time>
      </trkpt>
      <trkpt lat="44.63013" lon="6.12699">
        <ele>1206.6</ele>
        <time>2022-09-18T14:02:51Z</time>
      </trkpt>
      <trkpt lat="44.6301" lon="6.12702">
        <ele>1206.6</ele>
        <time>2022-09-18T14:02:52Z</time>
      </trkpt>
      <trkpt lat="44.63007" lon="6.12704">
        <ele>1206.6</ele>
        <time>2022-09-18T14:02:53Z</time>
      </trkpt>
      <trkpt lat="44.63004" lon="6.12706">
        <ele>1206.8</ele>
        <time>2022-09-18T14:02:54Z</time>
      </trkpt>
      <trkpt lat="44.63001" lon="6.12709">
        <ele>1207</ele>
        <time>2022-09-18T14:02:55Z</time>
      </trkpt>
      <trkpt lat="44.62999" lon="6.12711">
        <ele>1207.2</ele>
        <time>2022-09-18T14:02:56Z</time>
      </trkpt>
      <trkpt lat="44.62996" lon="6.12714">
        <ele>1207.4</ele>
        <time>2022-09-18T14:02:57Z</time>
      </trkpt>
      <trkpt lat="44.62993" lon="6.12716">
        <ele>1207.4</ele>
        <time>2022-09-18T14:02:58Z</time>
      </trkpt>
      <trkpt lat="44.6299" lon="6.12719">
        <ele>1207.4</ele>
        <time>2022-09-18T14:02:59Z</time>
      </trkpt>
      <trkpt lat="44.62987" lon="6.12721">
        <ele>1207.8</ele>
        <time>2022-09-18T14:03:00Z</time>
      </trkpt>
      <trkpt lat="44.62984" lon="6.12723">
        <ele>1207.8</ele>
        <time>2022-09-18T14:03:01Z</time>
      </trkpt>
      <trkpt lat="44.62981" lon="6.12726">
        <ele>1207.8</ele>
        <time>2022-09-18T14:03:02Z</time>
      </trkpt>
      <trkpt lat="44.62978" lon="6.12728">
        <ele>1208</ele>
        <time>2022-09-18T14:03:03Z</time>
      </trkpt>
      <trkpt lat="44.62976" lon="6.12731">
        <ele>1208.2</ele>
        <time>2022-09-18T14:03:04Z</time>
      </trkpt>
      <trkpt lat="44.62973" lon="6.12733">
        <ele>1208.8</ele>
        <time>2022-09-18T14:03:05Z</time>
      </trkpt>
      <trkpt lat="44.6297" lon="6.12736">
        <ele>1208.8</ele>
        <time>2022-09-18T14:03:06Z</time>
      </trkpt>
      <trkpt lat="44.62967" lon="6.12738">
        <ele>1208.8</ele>
        <time>2022-09-18T14:03:07Z</time>
      </trkpt>
      <trkpt lat="44.62965" lon="6.1274">
        <ele>1209</ele>
        <time>2022-09-18T14:03:08Z</time>
      </trkpt>
      <trkpt lat="44.62962" lon="6.12743">
        <ele>1209.2</ele>
        <time>2022-09-18T14:03:09Z</time>
      </trkpt>
      <trkpt lat="44.62959" lon="6.12745">
        <ele>1209.4</ele>
        <time>2022-09-18T14:03:10Z</time>
      </trkpt>
      <trkpt lat="44.62957" lon="6.12747">
        <ele>1209.8</ele>
        <time>2022-09-18T14:03:11Z</time>
      </trkpt>
      <trkpt lat="44.62954" lon="6.12749">
        <ele>1209.8</ele>
        <time>2022-09-18T14:03:12Z</time>
      </trkpt>
      <trkpt lat="44.62951" lon="6.12752">
        <ele>1210.2</ele>
        <time>2022-09-18T14:03:13Z</time>
      </trkpt>
      <trkpt lat="44.62948" lon="6.12754">
        <ele>1210.4</ele>
        <time>2022-09-18T14:03:14Z</time>
      </trkpt>
      <trkpt lat="44.62945" lon="6.12757">
        <ele>1210.4</ele>
        <time>2022-09-18T14:03:15Z</time>
      </trkpt>
      <trkpt lat="44.62943" lon="6.12759">
        <ele>1210.6</ele>
        <time>2022-09-18T14:03:16Z</time>
      </trkpt>
      <trkpt lat="44.6294" lon="6.12762">
        <ele>1210.8</ele>
        <time>2022-09-18T14:03:17Z</time>
      </trkpt>
      <trkpt lat="44.62937" lon="6.12764">
        <ele>1210.8</ele>
        <time>2022-09-18T14:03:18Z</time>
      </trkpt>
      <trkpt lat="44.62934" lon="6.12766">
        <ele>1210.8</ele>
        <time>2022-09-18T14:03:19Z</time>
      </trkpt>
      <trkpt lat="44.62931" lon="6.12768">
        <ele>1211</ele>
        <time>2022-09-18T14:03:20Z</time>
      </trkpt>
      <trkpt lat="44.62929" lon="6.12771">
        <ele>1211</ele>
        <time>2022-09-18T14:03:21Z</time>
      </trkpt>
      <trkpt lat="44.62926" lon="6.12773">
        <ele>1211</ele>
        <time>2022-09-18T14:03:22Z</time>
      </trkpt>
      <trkpt lat="44.62923" lon="6.12776">
        <ele>1211.2</ele>
        <time>2022-09-18T14:03:23Z</time>
      </trkpt>
      <trkpt lat="44.6292" lon="6.12778">
        <ele>1211.2</ele>
        <time>2022-09-18T14:03:24Z</time>
      </trkpt>
      <trkpt lat="44.62917" lon="6.12781">
        <ele>1211.2</ele>
        <time>2022-09-18T14:03:25Z</time>
      </trkpt>
      <trkpt lat="44.62914" lon="6.12784">
        <ele>1211.4</ele>
        <time>2022-09-18T14:03:26Z</time>
      </trkpt>
      <trkpt lat="44.62911" lon="6.12786">
        <ele>1211.2</ele>
        <time>2022-09-18T14:03:27Z</time>
      </trkpt>
      <trkpt lat="44.62908" lon="6.12789">
        <ele>1211.2</ele>
        <time>2022-09-18T14:03:28Z</time>
      </trkpt>
      <trkpt lat="44.62905" lon="6.12792">
        <ele>1211.2</ele>
        <time>2022-09-18T14:03:29Z</time>
      </trkpt>
      <trkpt lat="44.62902" lon="6.12796">
        <ele>1211</ele>
        <time>2022-09-18T14:03:30Z</time>
      </trkpt>
      <trkpt lat="44.62899" lon="6.12799">
        <ele>1211</ele>
        <time>2022-09-18T14:03:31Z</time>
      </trkpt>
      <trkpt lat="44.62895" lon="6.12803">
        <ele>1211</ele>
        <time>2022-09-18T14:03:32Z</time>
      </trkpt>
      <trkpt lat="44.62892" lon="6.12807">
        <ele>1211</ele>
        <time>2022-09-18T14:03:33Z</time>
      </trkpt>
      <trkpt lat="44.62889" lon="6.12811">
        <ele>1210.8</ele>
        <time>2022-09-18T14:03:34Z</time>
      </trkpt>
      <trkpt lat="44.62887" lon="6.12814">
        <ele>1210.8</ele>
        <time>2022-09-18T14:03:35Z</time>
      </trkpt>
      <trkpt lat="44.62884" lon="6.12817">
        <ele>1210.6</ele>
        <time>2022-09-18T14:03:36Z</time>
      </trkpt>
      <trkpt lat="44.62882" lon="6.12821">
        <ele>1210.6</ele>
        <time>2022-09-18T14:03:37Z</time>
      </trkpt>
      <trkpt lat="44.6288" lon="6.12824">
        <ele>1210.6</ele>
        <time>2022-09-18T14:03:38Z</time>
      </trkpt>
      <trkpt lat="44.62878" lon="6.12827">
        <ele>1210.6</ele>
        <time>2022-09-18T14:03:39Z</time>
      </trkpt>
      <trkpt lat="44.62876" lon="6.12831">
        <ele>1210.4</ele>
        <time>2022-09-18T14:03:40Z</time>
      </trkpt>
      <trkpt lat="44.62873" lon="6.12834">
        <ele>1210.2</ele>
        <time>2022-09-18T14:03:41Z</time>
      </trkpt>
      <trkpt lat="44.62871" lon="6.12837">
        <ele>1210.2</ele>
        <time>2022-09-18T14:03:42Z</time>
      </trkpt>
      <trkpt lat="44.62868" lon="6.12841">
        <ele>1210</ele>
        <time>2022-09-18T14:03:43Z</time>
      </trkpt>
      <trkpt lat="44.62865" lon="6.12844">
        <ele>1210.2</ele>
        <time>2022-09-18T14:03:44Z</time>
      </trkpt>
      <trkpt lat="44.62863" lon="6.12848">
        <ele>1210</ele>
        <time>2022-09-18T14:03:45Z</time>
      </trkpt>
      <trkpt lat="44.6286" lon="6.12851">
        <ele>1209.8</ele>
        <time>2022-09-18T14:03:46Z</time>
      </trkpt>
      <trkpt lat="44.62857" lon="6.12855">
        <ele>1210</ele>
        <time>2022-09-18T14:03:47Z</time>
      </trkpt>
      <trkpt lat="44.62855" lon="6.12858">
        <ele>1210</ele>
        <time>2022-09-18T14:03:48Z</time>
      </trkpt>
      <trkpt lat="44.62852" lon="6.12862">
        <ele>1210</ele>
        <time>2022-09-18T14:03:49Z</time>
      </trkpt>
      <trkpt lat="44.62849" lon="6.12865">
        <ele>1210</ele>
        <time>2022-09-18T14:03:50Z</time>
      </trkpt>
      <trkpt lat="44.62847" lon="6.12868">
        <ele>1210</ele>
        <time>2022-09-18T14:03:51Z</time>
      </trkpt>
      <trkpt lat="44.62844" lon="6.12871">
        <ele>1210</ele>
        <time>2022-09-18T14:03:52Z</time>
      </trkpt>
      <trkpt lat="44.62841" lon="6.12873">
        <ele>1210</ele>
        <time>2022-09-18T14:03:53Z</time>
      </trkpt>
      <trkpt lat="44.62839" lon="6.12875">
        <ele>1210</ele>
        <time>2022-09-18T14:03:54Z</time>
      </trkpt>
      <trkpt lat="44.62836" lon="6.12878">
        <ele>1210</ele>
        <time>2022-09-18T14:03:55Z</time>
      </trkpt>
      <trkpt lat="44.62834" lon="6.1288">
        <ele>1209.8</ele>
        <time>2022-09-18T14:03:56Z</time>
      </trkpt>
      <trkpt lat="44.62831" lon="6.12882">
        <ele>1209.8</ele>
        <time>2022-09-18T14:03:57Z</time>
      </trkpt>
      <trkpt lat="44.62828" lon="6.12885">
        <ele>1210</ele>
        <time>2022-09-18T14:03:58Z</time>
      </trkpt>
      <trkpt lat="44.62826" lon="6.12887">
        <ele>1210</ele>
        <time>2022-09-18T14:03:59Z</time>
      </trkpt>
      <trkpt lat="44.62823" lon="6.12888">
        <ele>1210.4</ele>
        <time>2022-09-18T14:04:00Z</time>
      </trkpt>
      <trkpt lat="44.6282" lon="6.12891">
        <ele>1210.2</ele>
        <time>2022-09-18T14:04:01Z</time>
      </trkpt>
      <trkpt lat="44.62818" lon="6.12893">
        <ele>1210.2</ele>
        <time>2022-09-18T14:04:02Z</time>
      </trkpt>
      <trkpt lat="44.62816" lon="6.12896">
        <ele>1210.4</ele>
        <time>2022-09-18T14:04:03Z</time>
      </trkpt>
      <trkpt lat="44.62815" lon="6.12899">
        <ele>1210.2</ele>
        <time>2022-09-18T14:04:04Z</time>
      </trkpt>
      <trkpt lat="44.62812" lon="6.12902">
        <ele>1210.4</ele>
        <time>2022-09-18T14:04:05Z</time>
      </trkpt>
      <trkpt lat="44.62809" lon="6.12904">
        <ele>1210.4</ele>
        <time>2022-09-18T14:04:06Z</time>
      </trkpt>
      <trkpt lat="44.62806" lon="6.12908">
        <ele>1210.6</ele>
        <time>2022-09-18T14:04:07Z</time>
      </trkpt>
      <trkpt lat="44.62803" lon="6.12911">
        <ele>1210.4</ele>
        <time>2022-09-18T14:04:08Z</time>
      </trkpt>
      <trkpt lat="44.628" lon="6.12914">
        <ele>1210.6</ele>
        <time>2022-09-18T14:04:09Z</time>
      </trkpt>
      <trkpt lat="44.62797" lon="6.12917">
        <ele>1210.6</ele>
        <time>2022-09-18T14:04:10Z</time>
      </trkpt>
      <trkpt lat="44.62793" lon="6.1292">
        <ele>1210.8</ele>
        <time>2022-09-18T14:04:11Z</time>
      </trkpt>
      <trkpt lat="44.6279" lon="6.12923">
        <ele>1210.6</ele>
        <time>2022-09-18T14:04:12Z</time>
      </trkpt>
      <trkpt lat="44.62787" lon="6.12926">
        <ele>1210.6</ele>
        <time>2022-09-18T14:04:13Z</time>
      </trkpt>
      <trkpt lat="44.62783" lon="6.1293">
        <ele>1210.4</ele>
        <time>2022-09-18T14:04:14Z</time>
      </trkpt>
      <trkpt lat="44.62779" lon="6.12934">
        <ele>1210.6</ele>
        <time>2022-09-18T14:04:15Z</time>
      </trkpt>
      <trkpt lat="44.62775" lon="6.12938">
        <ele>1210.6</ele>
        <time>2022-09-18T14:04:16Z</time>
      </trkpt>
      <trkpt lat="44.62771" lon="6.12941">
        <ele>1210.4</ele>
        <time>2022-09-18T14:04:17Z</time>
      </trkpt>
      <trkpt lat="44.62767" lon="6.12946">
        <ele>1210.4</ele>
        <time>2022-09-18T14:04:18Z</time>
      </trkpt>
      <trkpt lat="44.62763" lon="6.1295">
        <ele>1210.2</ele>
        <time>2022-09-18T14:04:19Z</time>
      </trkpt>
      <trkpt lat="44.62754" lon="6.12959">
        <ele>1210.2</ele>
        <time>2022-09-18T14:04:21Z</time>
      </trkpt>
      <trkpt lat="44.62744" lon="6.12968">
        <ele>1210.6</ele>
        <time>2022-09-18T14:04:23Z</time>
      </trkpt>
      <trkpt lat="44.62735" lon="6.12975">
        <ele>1210.6</ele>
        <time>2022-09-18T14:04:25Z</time>
      </trkpt>
      <trkpt lat="44.62731" lon="6.12978">
        <ele>1210.8</ele>
        <time>2022-09-18T14:04:26Z</time>
      </trkpt>
      <trkpt lat="44.62726" lon="6.12981">
        <ele>1210.8</ele>
        <time>2022-09-18T14:04:27Z</time>
      </trkpt>
      <trkpt lat="44.62722" lon="6.12983">
        <ele>1211</ele>
        <time>2022-09-18T14:04:28Z</time>
      </trkpt>
      <trkpt lat="44.62718" lon="6.12986">
        <ele>1211.2</ele>
        <time>2022-09-18T14:04:29Z</time>
      </trkpt>
      <trkpt lat="44.62713" lon="6.12988">
        <ele>1211.6</ele>
        <time>2022-09-18T14:04:30Z</time>
      </trkpt>
      <trkpt lat="44.62709" lon="6.1299">
        <ele>1212</ele>
        <time>2022-09-18T14:04:31Z</time>
      </trkpt>
      <trkpt lat="44.62704" lon="6.12992">
        <ele>1212.4</ele>
        <time>2022-09-18T14:04:32Z</time>
      </trkpt>
      <trkpt lat="44.627" lon="6.12993">
        <ele>1212.8</ele>
        <time>2022-09-18T14:04:33Z</time>
      </trkpt>
      <trkpt lat="44.62695" lon="6.12994">
        <ele>1213</ele>
        <time>2022-09-18T14:04:34Z</time>
      </trkpt>
      <trkpt lat="44.62691" lon="6.12995">
        <ele>1213.2</ele>
        <time>2022-09-18T14:04:35Z</time>
      </trkpt>
      <trkpt lat="44.62687" lon="6.12996">
        <ele>1213.6</ele>
        <time>2022-09-18T14:04:36Z</time>
      </trkpt>
      <trkpt lat="44.62683" lon="6.12997">
        <ele>1213.8</ele>
        <time>2022-09-18T14:04:37Z</time>
      </trkpt>
      <trkpt lat="44.62679" lon="6.12998">
        <ele>1214.2</ele>
        <time>2022-09-18T14:04:38Z</time>
      </trkpt>
      <trkpt lat="44.62675" lon="6.12999">
        <ele>1214.2</ele>
        <time>2022-09-18T14:04:39Z</time>
      </trkpt>
      <trkpt lat="44.62671" lon="6.13001">
        <ele>1214.6</ele>
        <time>2022-09-18T14:04:40Z</time>
      </trkpt>
      <trkpt lat="44.62668" lon="6.13002">
        <ele>1214.8</ele>
        <time>2022-09-18T14:04:41Z</time>
      </trkpt>
      <trkpt lat="44.62664" lon="6.13004">
        <ele>1215</ele>
        <time>2022-09-18T14:04:42Z</time>
      </trkpt>
      <trkpt lat="44.62661" lon="6.13006">
        <ele>1215.4</ele>
        <time>2022-09-18T14:04:43Z</time>
      </trkpt>
      <trkpt lat="44.62657" lon="6.13008">
        <ele>1215.6</ele>
        <time>2022-09-18T14:04:44Z</time>
      </trkpt>
      <trkpt lat="44.62653" lon="6.1301">
        <ele>1216</ele>
        <time>2022-09-18T14:04:45Z</time>
      </trkpt>
      <trkpt lat="44.6265" lon="6.13012">
        <ele>1216.4</ele>
        <time>2022-09-18T14:04:46Z</time>
      </trkpt>
      <trkpt lat="44.62647" lon="6.13015">
        <ele>1217</ele>
        <time>2022-09-18T14:04:47Z</time>
      </trkpt>
      <trkpt lat="44.62643" lon="6.13017">
        <ele>1217.4</ele>
        <time>2022-09-18T14:04:48Z</time>
      </trkpt>
      <trkpt lat="44.6264" lon="6.13019">
        <ele>1217.8</ele>
        <time>2022-09-18T14:04:49Z</time>
      </trkpt>
      <trkpt lat="44.62637" lon="6.13021">
        <ele>1218.2</ele>
        <time>2022-09-18T14:04:50Z</time>
      </trkpt>
      <trkpt lat="44.62633" lon="6.13023">
        <ele>1218.6</ele>
        <time>2022-09-18T14:04:51Z</time>
      </trkpt>
      <trkpt lat="44.6263" lon="6.13025">
        <ele>1218.8</ele>
        <time>2022-09-18T14:04:52Z</time>
      </trkpt>
      <trkpt lat="44.62627" lon="6.13027">
        <ele>1219.4</ele>
        <time>2022-09-18T14:04:53Z</time>
      </trkpt>
      <trkpt lat="44.62623" lon="6.1303">
        <ele>1219.4</ele>
        <time>2022-09-18T14:04:54Z</time>
      </trkpt>
      <trkpt lat="44.6262" lon="6.13032">
        <ele>1219.8</ele>
        <time>2022-09-18T14:04:55Z</time>
      </trkpt>
      <trkpt lat="44.62617" lon="6.13033">
        <ele>1220.2</ele>
        <time>2022-09-18T14:04:56Z</time>
      </trkpt>
      <trkpt lat="44.62613" lon="6.13036">
        <ele>1220.4</ele>
        <time>2022-09-18T14:04:57Z</time>
      </trkpt>
      <trkpt lat="44.6261" lon="6.13038">
        <ele>1220.8</ele>
        <time>2022-09-18T14:04:58Z</time>
      </trkpt>
      <trkpt lat="44.62607" lon="6.1304">
        <ele>1221</ele>
        <time>2022-09-18T14:04:59Z</time>
      </trkpt>
      <trkpt lat="44.62603" lon="6.13042">
        <ele>1221.4</ele>
        <time>2022-09-18T14:05:00Z</time>
      </trkpt>
      <trkpt lat="44.626" lon="6.13045">
        <ele>1221.6</ele>
        <time>2022-09-18T14:05:01Z</time>
      </trkpt>
      <trkpt lat="44.62596" lon="6.13047">
        <ele>1221.8</ele>
        <time>2022-09-18T14:05:02Z</time>
      </trkpt>
      <trkpt lat="44.62593" lon="6.1305">
        <ele>1222</ele>
        <time>2022-09-18T14:05:03Z</time>
      </trkpt>
      <trkpt lat="44.62589" lon="6.13052">
        <ele>1221.8</ele>
        <time>2022-09-18T14:05:04Z</time>
      </trkpt>
      <trkpt lat="44.62585" lon="6.13054">
        <ele>1222</ele>
        <time>2022-09-18T14:05:05Z</time>
      </trkpt>
      <trkpt lat="44.62582" lon="6.13057">
        <ele>1222</ele>
        <time>2022-09-18T14:05:06Z</time>
      </trkpt>
      <trkpt lat="44.62578" lon="6.1306">
        <ele>1222.2</ele>
        <time>2022-09-18T14:05:07Z</time>
      </trkpt>
      <trkpt lat="44.62574" lon="6.13064">
        <ele>1222.2</ele>
        <time>2022-09-18T14:05:08Z</time>
      </trkpt>
      <trkpt lat="44.6257" lon="6.13068">
        <ele>1222.8</ele>
        <time>2022-09-18T14:05:09Z</time>
      </trkpt>
      <trkpt lat="44.62566" lon="6.13072">
        <ele>1222.8</ele>
        <time>2022-09-18T14:05:10Z</time>
      </trkpt>
      <trkpt lat="44.62562" lon="6.13076">
        <ele>1223</ele>
        <time>2022-09-18T14:05:11Z</time>
      </trkpt>
      <trkpt lat="44.62559" lon="6.1308">
        <ele>1223.2</ele>
        <time>2022-09-18T14:05:12Z</time>
      </trkpt>
      <trkpt lat="44.62555" lon="6.13085">
        <ele>1223.4</ele>
        <time>2022-09-18T14:05:13Z</time>
      </trkpt>
      <trkpt lat="44.62552" lon="6.13089">
        <ele>1223.4</ele>
        <time>2022-09-18T14:05:14Z</time>
      </trkpt>
      <trkpt lat="44.62549" lon="6.13094">
        <ele>1223.6</ele>
        <time>2022-09-18T14:05:15Z</time>
      </trkpt>
      <trkpt lat="44.62545" lon="6.131">
        <ele>1223.8</ele>
        <time>2022-09-18T14:05:16Z</time>
      </trkpt>
      <trkpt lat="44.62542" lon="6.13105">
        <ele>1224.2</ele>
        <time>2022-09-18T14:05:17Z</time>
      </trkpt>
      <trkpt lat="44.62539" lon="6.1311">
        <ele>1224.4</ele>
        <time>2022-09-18T14:05:18Z</time>
      </trkpt>
      <trkpt lat="44.62536" lon="6.13115">
        <ele>1224.6</ele>
        <time>2022-09-18T14:05:19Z</time>
      </trkpt>
      <trkpt lat="44.62533" lon="6.1312">
        <ele>1224.6</ele>
        <time>2022-09-18T14:05:20Z</time>
      </trkpt>
      <trkpt lat="44.62529" lon="6.13125">
        <ele>1224.8</ele>
        <time>2022-09-18T14:05:21Z</time>
      </trkpt>
      <trkpt lat="44.62526" lon="6.13129">
        <ele>1225</ele>
        <time>2022-09-18T14:05:22Z</time>
      </trkpt>
      <trkpt lat="44.62523" lon="6.13133">
        <ele>1225.2</ele>
        <time>2022-09-18T14:05:23Z</time>
      </trkpt>
      <trkpt lat="44.6252" lon="6.13137">
        <ele>1225</ele>
        <time>2022-09-18T14:05:24Z</time>
      </trkpt>
      <trkpt lat="44.62517" lon="6.13141">
        <ele>1225.6</ele>
        <time>2022-09-18T14:05:25Z</time>
      </trkpt>
      <trkpt lat="44.62514" lon="6.13145">
        <ele>1226</ele>
        <time>2022-09-18T14:05:26Z</time>
      </trkpt>
      <trkpt lat="44.62511" lon="6.13149">
        <ele>1226.2</ele>
        <time>2022-09-18T14:05:27Z</time>
      </trkpt>
      <trkpt lat="44.62507" lon="6.13153">
        <ele>1226.6</ele>
        <time>2022-09-18T14:05:28Z</time>
      </trkpt>
      <trkpt lat="44.62504" lon="6.13156">
        <ele>1226.8</ele>
        <time>2022-09-18T14:05:29Z</time>
      </trkpt>
      <trkpt lat="44.62501" lon="6.1316">
        <ele>1227.8</ele>
        <time>2022-09-18T14:05:30Z</time>
      </trkpt>
      <trkpt lat="44.62498" lon="6.13163">
        <ele>1227.8</ele>
        <time>2022-09-18T14:05:31Z</time>
      </trkpt>
      <trkpt lat="44.62495" lon="6.13167">
        <ele>1228.4</ele>
        <time>2022-09-18T14:05:32Z</time>
      </trkpt>
      <trkpt lat="44.62492" lon="6.1317">
        <ele>1228.8</ele>
        <time>2022-09-18T14:05:33Z</time>
      </trkpt>
      <trkpt lat="44.62488" lon="6.13173">
        <ele>1229.2</ele>
        <time>2022-09-18T14:05:34Z</time>
      </trkpt>
      <trkpt lat="44.62485" lon="6.13176">
        <ele>1229.4</ele>
        <time>2022-09-18T14:05:35Z</time>
      </trkpt>
      <trkpt lat="44.62482" lon="6.13179">
        <ele>1229.8</ele>
        <time>2022-09-18T14:05:36Z</time>
      </trkpt>
      <trkpt lat="44.62479" lon="6.13182">
        <ele>1230.2</ele>
        <time>2022-09-18T14:05:37Z</time>
      </trkpt>
      <trkpt lat="44.62475" lon="6.13185">
        <ele>1230.4</ele>
        <time>2022-09-18T14:05:38Z</time>
      </trkpt>
      <trkpt lat="44.62472" lon="6.13187">
        <ele>1230.4</ele>
        <time>2022-09-18T14:05:39Z</time>
      </trkpt>
      <trkpt lat="44.62469" lon="6.1319">
        <ele>1230.8</ele>
        <time>2022-09-18T14:05:40Z</time>
      </trkpt>
      <trkpt lat="44.62466" lon="6.13193">
        <ele>1231.2</ele>
        <time>2022-09-18T14:05:41Z</time>
      </trkpt>
      <trkpt lat="44.62463" lon="6.13195">
        <ele>1231.6</ele>
        <time>2022-09-18T14:05:42Z</time>
      </trkpt>
      <trkpt lat="44.6246" lon="6.13198">
        <ele>1232</ele>
        <time>2022-09-18T14:05:43Z</time>
      </trkpt>
      <trkpt lat="44.62457" lon="6.132">
        <ele>1232.2</ele>
        <time>2022-09-18T14:05:44Z</time>
      </trkpt>
      <trkpt lat="44.62454" lon="6.13203">
        <ele>1232.6</ele>
        <time>2022-09-18T14:05:45Z</time>
      </trkpt>
      <trkpt lat="44.62451" lon="6.13205">
        <ele>1232.8</ele>
        <time>2022-09-18T14:05:46Z</time>
      </trkpt>
      <trkpt lat="44.62448" lon="6.13207">
        <ele>1233.2</ele>
        <time>2022-09-18T14:05:47Z</time>
      </trkpt>
      <trkpt lat="44.62444" lon="6.1321">
        <ele>1233.2</ele>
        <time>2022-09-18T14:05:48Z</time>
      </trkpt>
      <trkpt lat="44.62441" lon="6.13212">
        <ele>1233.6</ele>
        <time>2022-09-18T14:05:49Z</time>
      </trkpt>
      <trkpt lat="44.62438" lon="6.13214">
        <ele>1234</ele>
        <time>2022-09-18T14:05:50Z</time>
      </trkpt>
      <trkpt lat="44.62435" lon="6.13216">
        <ele>1234.2</ele>
        <time>2022-09-18T14:05:51Z</time>
      </trkpt>
      <trkpt lat="44.62432" lon="6.13219">
        <ele>1234.4</ele>
        <time>2022-09-18T14:05:52Z</time>
      </trkpt>
      <trkpt lat="44.62428" lon="6.13221">
        <ele>1234.8</ele>
        <time>2022-09-18T14:05:53Z</time>
      </trkpt>
      <trkpt lat="44.62424" lon="6.13223">
        <ele>1235</ele>
        <time>2022-09-18T14:05:54Z</time>
      </trkpt>
      <trkpt lat="44.6242" lon="6.13226">
        <ele>1235.2</ele>
        <time>2022-09-18T14:05:55Z</time>
      </trkpt>
      <trkpt lat="44.62417" lon="6.13228">
        <ele>1235.4</ele>
        <time>2022-09-18T14:05:56Z</time>
      </trkpt>
      <trkpt lat="44.62413" lon="6.13231">
        <ele>1235.6</ele>
        <time>2022-09-18T14:05:57Z</time>
      </trkpt>
      <trkpt lat="44.62409" lon="6.13234">
        <ele>1235.8</ele>
        <time>2022-09-18T14:05:58Z</time>
      </trkpt>
      <trkpt lat="44.62406" lon="6.13236">
        <ele>1236</ele>
        <time>2022-09-18T14:05:59Z</time>
      </trkpt>
      <trkpt lat="44.62402" lon="6.13239">
        <ele>1236</ele>
        <time>2022-09-18T14:06:00Z</time>
      </trkpt>
      <trkpt lat="44.62398" lon="6.13242">
        <ele>1236.4</ele>
        <time>2022-09-18T14:06:01Z</time>
      </trkpt>
      <trkpt lat="44.62394" lon="6.13245">
        <ele>1236.4</ele>
        <time>2022-09-18T14:06:02Z</time>
      </trkpt>
      <trkpt lat="44.62391" lon="6.13248">
        <ele>1236.6</ele>
        <time>2022-09-18T14:06:03Z</time>
      </trkpt>
      <trkpt lat="44.62387" lon="6.13251">
        <ele>1236.6</ele>
        <time>2022-09-18T14:06:04Z</time>
      </trkpt>
      <trkpt lat="44.62383" lon="6.13253">
        <ele>1236.8</ele>
        <time>2022-09-18T14:06:05Z</time>
      </trkpt>
      <trkpt lat="44.6238" lon="6.13256">
        <ele>1237.2</ele>
        <time>2022-09-18T14:06:06Z</time>
      </trkpt>
      <trkpt lat="44.62376" lon="6.13259">
        <ele>1237.4</ele>
        <time>2022-09-18T14:06:07Z</time>
      </trkpt>
      <trkpt lat="44.62372" lon="6.13262">
        <ele>1237.2</ele>
        <time>2022-09-18T14:06:08Z</time>
      </trkpt>
      <trkpt lat="44.62368" lon="6.13264">
        <ele>1237.4</ele>
        <time>2022-09-18T14:06:09Z</time>
      </trkpt>
      <trkpt lat="44.62364" lon="6.13267">
        <ele>1237.8</ele>
        <time>2022-09-18T14:06:10Z</time>
      </trkpt>
      <trkpt lat="44.62361" lon="6.1327">
        <ele>1238</ele>
        <time>2022-09-18T14:06:11Z</time>
      </trkpt>
      <trkpt lat="44.62357" lon="6.13274">
        <ele>1238.2</ele>
        <time>2022-09-18T14:06:12Z</time>
      </trkpt>
      <trkpt lat="44.62353" lon="6.13277">
        <ele>1238.2</ele>
        <time>2022-09-18T14:06:13Z</time>
      </trkpt>
      <trkpt lat="44.62349" lon="6.1328">
        <ele>1238.4</ele>
        <time>2022-09-18T14:06:14Z</time>
      </trkpt>
      <trkpt lat="44.62345" lon="6.13284">
        <ele>1238.6</ele>
        <time>2022-09-18T14:06:15Z</time>
      </trkpt>
      <trkpt lat="44.62342" lon="6.13287">
        <ele>1238.6</ele>
        <time>2022-09-18T14:06:16Z</time>
      </trkpt>
      <trkpt lat="44.62338" lon="6.13291">
        <ele>1238.6</ele>
        <time>2022-09-18T14:06:17Z</time>
      </trkpt>
      <trkpt lat="44.62334" lon="6.13294">
        <ele>1239</ele>
        <time>2022-09-18T14:06:18Z</time>
      </trkpt>
      <trkpt lat="44.6233" lon="6.13297">
        <ele>1239.2</ele>
        <time>2022-09-18T14:06:19Z</time>
      </trkpt>
      <trkpt lat="44.62326" lon="6.13301">
        <ele>1239.4</ele>
        <time>2022-09-18T14:06:20Z</time>
      </trkpt>
      <trkpt lat="44.62322" lon="6.13304">
        <ele>1239.6</ele>
        <time>2022-09-18T14:06:21Z</time>
      </trkpt>
      <trkpt lat="44.62318" lon="6.13307">
        <ele>1239.8</ele>
        <time>2022-09-18T14:06:22Z</time>
      </trkpt>
      <trkpt lat="44.62314" lon="6.1331">
        <ele>1240</ele>
        <time>2022-09-18T14:06:23Z</time>
      </trkpt>
      <trkpt lat="44.6231" lon="6.13313">
        <ele>1239.8</ele>
        <time>2022-09-18T14:06:24Z</time>
      </trkpt>
      <trkpt lat="44.62305" lon="6.13316">
        <ele>1240</ele>
        <time>2022-09-18T14:06:25Z</time>
      </trkpt>
      <trkpt lat="44.62301" lon="6.13319">
        <ele>1240.2</ele>
        <time>2022-09-18T14:06:26Z</time>
      </trkpt>
      <trkpt lat="44.62296" lon="6.13323">
        <ele>1240.4</ele>
        <time>2022-09-18T14:06:27Z</time>
      </trkpt>
      <trkpt lat="44.62291" lon="6.13325">
        <ele>1240.4</ele>
        <time>2022-09-18T14:06:28Z</time>
      </trkpt>
      <trkpt lat="44.62286" lon="6.13328">
        <ele>1240.4</ele>
        <time>2022-09-18T14:06:29Z</time>
      </trkpt>
      <trkpt lat="44.62281" lon="6.13329">
        <ele>1240.4</ele>
        <time>2022-09-18T14:06:30Z</time>
      </trkpt>
      <trkpt lat="44.62276" lon="6.13331">
        <ele>1240.4</ele>
        <time>2022-09-18T14:06:31Z</time>
      </trkpt>
      <trkpt lat="44.62271" lon="6.13333">
        <ele>1240.6</ele>
        <time>2022-09-18T14:06:32Z</time>
      </trkpt>
      <trkpt lat="44.62265" lon="6.13334">
        <ele>1240.4</ele>
        <time>2022-09-18T14:06:33Z</time>
      </trkpt>
      <trkpt lat="44.6226" lon="6.13336">
        <ele>1240.6</ele>
        <time>2022-09-18T14:06:34Z</time>
      </trkpt>
      <trkpt lat="44.62255" lon="6.13338">
        <ele>1240.8</ele>
        <time>2022-09-18T14:06:35Z</time>
      </trkpt>
      <trkpt lat="44.62249" lon="6.13341">
        <ele>1241</ele>
        <time>2022-09-18T14:06:36Z</time>
      </trkpt>
      <trkpt lat="44.62244" lon="6.13343">
        <ele>1241</ele>
        <time>2022-09-18T14:06:37Z</time>
      </trkpt>
      <trkpt lat="44.62239" lon="6.13345">
        <ele>1241.2</ele>
        <time>2022-09-18T14:06:38Z</time>
      </trkpt>
      <trkpt lat="44.62234" lon="6.13347">
        <ele>1241.2</ele>
        <time>2022-09-18T14:06:39Z</time>
      </trkpt>
      <trkpt lat="44.62229" lon="6.13349">
        <ele>1241.4</ele>
        <time>2022-09-18T14:06:40Z</time>
      </trkpt>
      <trkpt lat="44.62224" lon="6.13351">
        <ele>1241.6</ele>
        <time>2022-09-18T14:06:41Z</time>
      </trkpt>
      <trkpt lat="44.62219" lon="6.13352">
        <ele>1242</ele>
        <time>2022-09-18T14:06:42Z</time>
      </trkpt>
      <trkpt lat="44.62214" lon="6.13354">
        <ele>1242</ele>
        <time>2022-09-18T14:06:43Z</time>
      </trkpt>
      <trkpt lat="44.6221" lon="6.13356">
        <ele>1242.2</ele>
        <time>2022-09-18T14:06:44Z</time>
      </trkpt>
      <trkpt lat="44.62206" lon="6.13358">
        <ele>1242.4</ele>
        <time>2022-09-18T14:06:45Z</time>
      </trkpt>
      <trkpt lat="44.62201" lon="6.1336">
        <ele>1242.6</ele>
        <time>2022-09-18T14:06:46Z</time>
      </trkpt>
      <trkpt lat="44.62197" lon="6.13362">
        <ele>1243</ele>
        <time>2022-09-18T14:06:47Z</time>
      </trkpt>
      <trkpt lat="44.62193" lon="6.13364">
        <ele>1243</ele>
        <time>2022-09-18T14:06:48Z</time>
      </trkpt>
      <trkpt lat="44.62188" lon="6.13366">
        <ele>1243</ele>
        <time>2022-09-18T14:06:49Z</time>
      </trkpt>
      <trkpt lat="44.62184" lon="6.13368">
        <ele>1243.2</ele>
        <time>2022-09-18T14:06:50Z</time>
      </trkpt>
      <trkpt lat="44.62179" lon="6.1337">
        <ele>1243.4</ele>
        <time>2022-09-18T14:06:51Z</time>
      </trkpt>
      <trkpt lat="44.62175" lon="6.13372">
        <ele>1243.6</ele>
        <time>2022-09-18T14:06:52Z</time>
      </trkpt>
      <trkpt lat="44.6217" lon="6.13375">
        <ele>1243.8</ele>
        <time>2022-09-18T14:06:53Z</time>
      </trkpt>
      <trkpt lat="44.62166" lon="6.13377">
        <ele>1244</ele>
        <time>2022-09-18T14:06:54Z</time>
      </trkpt>
      <trkpt lat="44.62161" lon="6.13379">
        <ele>1244</ele>
        <time>2022-09-18T14:06:55Z</time>
      </trkpt>
      <trkpt lat="44.62157" lon="6.13381">
        <ele>1244.2</ele>
        <time>2022-09-18T14:06:56Z</time>
      </trkpt>
      <trkpt lat="44.62153" lon="6.13383">
        <ele>1244.2</ele>
        <time>2022-09-18T14:06:57Z</time>
      </trkpt>
      <trkpt lat="44.62148" lon="6.13385">
        <ele>1244.4</ele>
        <time>2022-09-18T14:06:58Z</time>
      </trkpt>
      <trkpt lat="44.62144" lon="6.13386">
        <ele>1244.4</ele>
        <time>2022-09-18T14:06:59Z</time>
      </trkpt>
      <trkpt lat="44.62139" lon="6.13387">
        <ele>1244.6</ele>
        <time>2022-09-18T14:07:00Z</time>
      </trkpt>
      <trkpt lat="44.62135" lon="6.13389">
        <ele>1244.8</ele>
        <time>2022-09-18T14:07:01Z</time>
      </trkpt>
      <trkpt lat="44.6213" lon="6.1339">
        <ele>1245</ele>
        <time>2022-09-18T14:07:02Z</time>
      </trkpt>
      <trkpt lat="44.62126" lon="6.13391">
        <ele>1245</ele>
        <time>2022-09-18T14:07:03Z</time>
      </trkpt>
      <trkpt lat="44.62122" lon="6.13392">
        <ele>1245.2</ele>
        <time>2022-09-18T14:07:04Z</time>
      </trkpt>
      <trkpt lat="44.62118" lon="6.13393">
        <ele>1245.2</ele>
        <time>2022-09-18T14:07:05Z</time>
      </trkpt>
      <trkpt lat="44.62115" lon="6.13394">
        <ele>1245.4</ele>
        <time>2022-09-18T14:07:06Z</time>
      </trkpt>
      <trkpt lat="44.62112" lon="6.13395">
        <ele>1245.4</ele>
        <time>2022-09-18T14:07:07Z</time>
      </trkpt>
      <trkpt lat="44.62109" lon="6.13396">
        <ele>1245.6</ele>
        <time>2022-09-18T14:07:08Z</time>
      </trkpt>
      <trkpt lat="44.62107" lon="6.13397">
        <ele>1245.6</ele>
        <time>2022-09-18T14:07:09Z</time>
      </trkpt>
      <trkpt lat="44.62105" lon="6.13398">
        <ele>1245.8</ele>
        <time>2022-09-18T14:07:10Z</time>
      </trkpt>
      <trkpt lat="44.62103" lon="6.13399">
        <ele>1245.6</ele>
        <time>2022-09-18T14:07:11Z</time>
      </trkpt>
      <trkpt lat="44.621" lon="6.13401">
        <ele>1245.8</ele>
        <time>2022-09-18T14:07:13Z</time>
      </trkpt>
      <trkpt lat="44.62097" lon="6.13403">
        <ele>1245.8</ele>
        <time>2022-09-18T14:07:15Z</time>
      </trkpt>
      <trkpt lat="44.62095" lon="6.13405">
        <ele>1245.8</ele>
        <time>2022-09-18T14:07:17Z</time>
      </trkpt>
      <trkpt lat="44.62093" lon="6.13407">
        <ele>1245.6</ele>
        <time>2022-09-18T14:07:19Z</time>
      </trkpt>
      <trkpt lat="44.62091" lon="6.1341">
        <ele>1245.2</ele>
        <time>2022-09-18T14:07:21Z</time>
      </trkpt>
      <trkpt lat="44.62089" lon="6.13412">
        <ele>1245</ele>
        <time>2022-09-18T14:07:23Z</time>
      </trkpt>
      <trkpt lat="44.62087" lon="6.13414">
        <ele>1244.8</ele>
        <time>2022-09-18T14:07:25Z</time>
      </trkpt>
      <trkpt lat="44.62084" lon="6.13416">
        <ele>1244.4</ele>
        <time>2022-09-18T14:07:27Z</time>
      </trkpt>
      <trkpt lat="44.62081" lon="6.13418">
        <ele>1244.2</ele>
        <time>2022-09-18T14:07:29Z</time>
      </trkpt>
      <trkpt lat="44.62079" lon="6.13419">
        <ele>1244</ele>
        <time>2022-09-18T14:07:30Z</time>
      </trkpt>
      <trkpt lat="44.62077" lon="6.1342">
        <ele>1243.8</ele>
        <time>2022-09-18T14:07:31Z</time>
      </trkpt>
      <trkpt lat="44.62076" lon="6.13422">
        <ele>1243.8</ele>
        <time>2022-09-18T14:07:32Z</time>
      </trkpt>
      <trkpt lat="44.62074" lon="6.13423">
        <ele>1243.8</ele>
        <time>2022-09-18T14:07:33Z</time>
      </trkpt>
      <trkpt lat="44.62073" lon="6.13426">
        <ele>1243.8</ele>
        <time>2022-09-18T14:07:35Z</time>
      </trkpt>
      <trkpt lat="44.62074" lon="6.13429">
        <ele>1241.4</ele>
        <time>2022-09-18T14:11:10Z</time>
      </trkpt>
      <trkpt lat="44.62074" lon="6.13432">
        <ele>1241.4</ele>
        <time>2022-09-18T14:11:12Z</time>
      </trkpt>
      <trkpt lat="44.62074" lon="6.13437">
        <ele>1241.4</ele>
        <time>2022-09-18T14:11:14Z</time>
      </trkpt>
      <trkpt lat="44.62073" lon="6.13439">
        <ele>1241.2</ele>
        <time>2022-09-18T14:11:15Z</time>
      </trkpt>
      <trkpt lat="44.62073" lon="6.13442">
        <ele>1241.2</ele>
        <time>2022-09-18T14:11:16Z</time>
      </trkpt>
      <trkpt lat="44.62072" lon="6.13445">
        <ele>1241.6</ele>
        <time>2022-09-18T14:11:17Z</time>
      </trkpt>
      <trkpt lat="44.62072" lon="6.13449">
        <ele>1241.6</ele>
        <time>2022-09-18T14:11:18Z</time>
      </trkpt>
      <trkpt lat="44.62072" lon="6.13452">
        <ele>1241.8</ele>
        <time>2022-09-18T14:11:19Z</time>
      </trkpt>
      <trkpt lat="44.62071" lon="6.13456">
        <ele>1241.8</ele>
        <time>2022-09-18T14:11:20Z</time>
      </trkpt>
      <trkpt lat="44.6207" lon="6.1346">
        <ele>1241.8</ele>
        <time>2022-09-18T14:11:21Z</time>
      </trkpt>
      <trkpt lat="44.62068" lon="6.13464">
        <ele>1241.6</ele>
        <time>2022-09-18T14:11:22Z</time>
      </trkpt>
      <trkpt lat="44.62067" lon="6.13468">
        <ele>1241.4</ele>
        <time>2022-09-18T14:11:23Z</time>
      </trkpt>
      <trkpt lat="44.62065" lon="6.13473">
        <ele>1241</ele>
        <time>2022-09-18T14:11:24Z</time>
      </trkpt>
      <trkpt lat="44.62063" lon="6.13477">
        <ele>1241</ele>
        <time>2022-09-18T14:11:25Z</time>
      </trkpt>
      <trkpt lat="44.62061" lon="6.13481">
        <ele>1241</ele>
        <time>2022-09-18T14:11:26Z</time>
      </trkpt>
      <trkpt lat="44.62059" lon="6.13485">
        <ele>1241.2</ele>
        <time>2022-09-18T14:11:27Z</time>
      </trkpt>
      <trkpt lat="44.62056" lon="6.13488">
        <ele>1241.2</ele>
        <time>2022-09-18T14:11:28Z</time>
      </trkpt>
      <trkpt lat="44.62052" lon="6.1349">
        <ele>1241</ele>
        <time>2022-09-18T14:11:29Z</time>
      </trkpt>
      <trkpt lat="44.62047" lon="6.1349">
        <ele>1241.2</ele>
        <time>2022-09-18T14:11:30Z</time>
      </trkpt>
      <trkpt lat="44.62043" lon="6.13489">
        <ele>1241.2</ele>
        <time>2022-09-18T14:11:31Z</time>
      </trkpt>
      <trkpt lat="44.62039" lon="6.13486">
        <ele>1241</ele>
        <time>2022-09-18T14:11:32Z</time>
      </trkpt>
      <trkpt lat="44.62035" lon="6.13484">
        <ele>1241.2</ele>
        <time>2022-09-18T14:11:33Z</time>
      </trkpt>
      <trkpt lat="44.6203" lon="6.13482">
        <ele>1241.2</ele>
        <time>2022-09-18T14:11:34Z</time>
      </trkpt>
      <trkpt lat="44.62026" lon="6.1348">
        <ele>1241.2</ele>
        <time>2022-09-18T14:11:35Z</time>
      </trkpt>
      <trkpt lat="44.62022" lon="6.13478">
        <ele>1241.4</ele>
        <time>2022-09-18T14:11:36Z</time>
      </trkpt>
      <trkpt lat="44.62018" lon="6.13476">
        <ele>1241.6</ele>
        <time>2022-09-18T14:11:37Z</time>
      </trkpt>
      <trkpt lat="44.62014" lon="6.13475">
        <ele>1241.8</ele>
        <time>2022-09-18T14:11:38Z</time>
      </trkpt>
      <trkpt lat="44.62011" lon="6.13473">
        <ele>1242</ele>
        <time>2022-09-18T14:11:39Z</time>
      </trkpt>
      <trkpt lat="44.62007" lon="6.13471">
        <ele>1242.2</ele>
        <time>2022-09-18T14:11:40Z</time>
      </trkpt>
      <trkpt lat="44.62003" lon="6.1347">
        <ele>1242.6</ele>
        <time>2022-09-18T14:11:41Z</time>
      </trkpt>
      <trkpt lat="44.61999" lon="6.13468">
        <ele>1242.8</ele>
        <time>2022-09-18T14:11:42Z</time>
      </trkpt>
      <trkpt lat="44.61996" lon="6.13467">
        <ele>1243</ele>
        <time>2022-09-18T14:11:43Z</time>
      </trkpt>
      <trkpt lat="44.61992" lon="6.13466">
        <ele>1243.2</ele>
        <time>2022-09-18T14:11:44Z</time>
      </trkpt>
      <trkpt lat="44.61988" lon="6.13464">
        <ele>1243.2</ele>
        <time>2022-09-18T14:11:45Z</time>
      </trkpt>
      <trkpt lat="44.61985" lon="6.13463">
        <ele>1243.4</ele>
        <time>2022-09-18T14:11:46Z</time>
      </trkpt>
      <trkpt lat="44.61981" lon="6.13462">
        <ele>1243.6</ele>
        <time>2022-09-18T14:11:47Z</time>
      </trkpt>
      <trkpt lat="44.61978" lon="6.13461">
        <ele>1244</ele>
        <time>2022-09-18T14:11:48Z</time>
      </trkpt>
      <trkpt lat="44.61974" lon="6.13459">
        <ele>1244</ele>
        <time>2022-09-18T14:11:49Z</time>
      </trkpt>
      <trkpt lat="44.6197" lon="6.13458">
        <ele>1244.6</ele>
        <time>2022-09-18T14:11:50Z</time>
      </trkpt>
      <trkpt lat="44.61967" lon="6.13457">
        <ele>1244.8</ele>
        <time>2022-09-18T14:11:51Z</time>
      </trkpt>
      <trkpt lat="44.61964" lon="6.13456">
        <ele>1245</ele>
        <time>2022-09-18T14:11:52Z</time>
      </trkpt>
      <trkpt lat="44.61961" lon="6.13455">
        <ele>1245.2</ele>
        <time>2022-09-18T14:11:53Z</time>
      </trkpt>
      <trkpt lat="44.61958" lon="6.13454">
        <ele>1245.6</ele>
        <time>2022-09-18T14:11:54Z</time>
      </trkpt>
      <trkpt lat="44.61954" lon="6.13454">
        <ele>1245.8</ele>
        <time>2022-09-18T14:11:55Z</time>
      </trkpt>
      <trkpt lat="44.61951" lon="6.13453">
        <ele>1246</ele>
        <time>2022-09-18T14:11:56Z</time>
      </trkpt>
      <trkpt lat="44.61948" lon="6.13452">
        <ele>1246.2</ele>
        <time>2022-09-18T14:11:57Z</time>
      </trkpt>
      <trkpt lat="44.61945" lon="6.13451">
        <ele>1246.4</ele>
        <time>2022-09-18T14:11:58Z</time>
      </trkpt>
      <trkpt lat="44.61942" lon="6.13451">
        <ele>1246.8</ele>
        <time>2022-09-18T14:11:59Z</time>
      </trkpt>
      <trkpt lat="44.61939" lon="6.1345">
        <ele>1247</ele>
        <time>2022-09-18T14:12:00Z</time>
      </trkpt>
      <trkpt lat="44.61936" lon="6.1345">
        <ele>1246.8</ele>
        <time>2022-09-18T14:12:01Z</time>
      </trkpt>
      <trkpt lat="44.61932" lon="6.1345">
        <ele>1247</ele>
        <time>2022-09-18T14:12:02Z</time>
      </trkpt>
      <trkpt lat="44.6193" lon="6.13449">
        <ele>1247</ele>
        <time>2022-09-18T14:12:03Z</time>
      </trkpt>
      <trkpt lat="44.61927" lon="6.13449">
        <ele>1247</ele>
        <time>2022-09-18T14:12:04Z</time>
      </trkpt>
      <trkpt lat="44.61924" lon="6.13449">
        <ele>1247.2</ele>
        <time>2022-09-18T14:12:05Z</time>
      </trkpt>
      <trkpt lat="44.61921" lon="6.13449">
        <ele>1247.2</ele>
        <time>2022-09-18T14:12:06Z</time>
      </trkpt>
      <trkpt lat="44.61918" lon="6.13449">
        <ele>1247.4</ele>
        <time>2022-09-18T14:12:07Z</time>
      </trkpt>
      <trkpt lat="44.61914" lon="6.1345">
        <ele>1247.4</ele>
        <time>2022-09-18T14:12:08Z</time>
      </trkpt>
      <trkpt lat="44.61911" lon="6.1345">
        <ele>1247.4</ele>
        <time>2022-09-18T14:12:09Z</time>
      </trkpt>
      <trkpt lat="44.61907" lon="6.1345">
        <ele>1247.4</ele>
        <time>2022-09-18T14:12:10Z</time>
      </trkpt>
      <trkpt lat="44.61904" lon="6.13451">
        <ele>1247.6</ele>
        <time>2022-09-18T14:12:11Z</time>
      </trkpt>
      <trkpt lat="44.61901" lon="6.13451">
        <ele>1248</ele>
        <time>2022-09-18T14:12:12Z</time>
      </trkpt>
      <trkpt lat="44.61898" lon="6.13451">
        <ele>1247.8</ele>
        <time>2022-09-18T14:12:13Z</time>
      </trkpt>
      <trkpt lat="44.61895" lon="6.13452">
        <ele>1248</ele>
        <time>2022-09-18T14:12:14Z</time>
      </trkpt>
      <trkpt lat="44.61892" lon="6.13452">
        <ele>1248</ele>
        <time>2022-09-18T14:12:15Z</time>
      </trkpt>
      <trkpt lat="44.61889" lon="6.13453">
        <ele>1248.2</ele>
        <time>2022-09-18T14:12:16Z</time>
      </trkpt>
      <trkpt lat="44.61886" lon="6.13453">
        <ele>1248.2</ele>
        <time>2022-09-18T14:12:17Z</time>
      </trkpt>
      <trkpt lat="44.61883" lon="6.13454">
        <ele>1248.4</ele>
        <time>2022-09-18T14:12:18Z</time>
      </trkpt>
      <trkpt lat="44.6188" lon="6.13454">
        <ele>1248.2</ele>
        <time>2022-09-18T14:12:19Z</time>
      </trkpt>
      <trkpt lat="44.61878" lon="6.13454">
        <ele>1248.4</ele>
        <time>2022-09-18T14:12:20Z</time>
      </trkpt>
      <trkpt lat="44.61875" lon="6.13454">
        <ele>1248.6</ele>
        <time>2022-09-18T14:12:21Z</time>
      </trkpt>
      <trkpt lat="44.61873" lon="6.13455">
        <ele>1248.4</ele>
        <time>2022-09-18T14:12:22Z</time>
      </trkpt>
      <trkpt lat="44.6187" lon="6.13456">
        <ele>1248.6</ele>
        <time>2022-09-18T14:12:23Z</time>
      </trkpt>
      <trkpt lat="44.61867" lon="6.13458">
        <ele>1248.6</ele>
        <time>2022-09-18T14:12:24Z</time>
      </trkpt>
      <trkpt lat="44.61865" lon="6.1346">
        <ele>1248.6</ele>
        <time>2022-09-18T14:12:25Z</time>
      </trkpt>
      <trkpt lat="44.61862" lon="6.13461">
        <ele>1248.8</ele>
        <time>2022-09-18T14:12:26Z</time>
      </trkpt>
      <trkpt lat="44.61858" lon="6.13461">
        <ele>1248.8</ele>
        <time>2022-09-18T14:12:27Z</time>
      </trkpt>
      <trkpt lat="44.61854" lon="6.13463">
        <ele>1248.8</ele>
        <time>2022-09-18T14:12:28Z</time>
      </trkpt>
      <trkpt lat="44.61851" lon="6.13464">
        <ele>1249.2</ele>
        <time>2022-09-18T14:12:29Z</time>
      </trkpt>
      <trkpt lat="44.61847" lon="6.13466">
        <ele>1249.4</ele>
        <time>2022-09-18T14:12:30Z</time>
      </trkpt>
      <trkpt lat="44.61843" lon="6.13469">
        <ele>1249.8</ele>
        <time>2022-09-18T14:12:31Z</time>
      </trkpt>
      <trkpt lat="44.61839" lon="6.13472">
        <ele>1249.6</ele>
        <time>2022-09-18T14:12:32Z</time>
      </trkpt>
      <trkpt lat="44.61835" lon="6.13475">
        <ele>1249.4</ele>
        <time>2022-09-18T14:12:33Z</time>
      </trkpt>
      <trkpt lat="44.6183" lon="6.13478">
        <ele>1249.4</ele>
        <time>2022-09-18T14:12:34Z</time>
      </trkpt>
      <trkpt lat="44.61826" lon="6.13483">
        <ele>1249.2</ele>
        <time>2022-09-18T14:12:35Z</time>
      </trkpt>
      <trkpt lat="44.61821" lon="6.13487">
        <ele>1249</ele>
        <time>2022-09-18T14:12:36Z</time>
      </trkpt>
      <trkpt lat="44.61816" lon="6.13492">
        <ele>1248.8</ele>
        <time>2022-09-18T14:12:37Z</time>
      </trkpt>
      <trkpt lat="44.61811" lon="6.13497">
        <ele>1248.8</ele>
        <time>2022-09-18T14:12:38Z</time>
      </trkpt>
      <trkpt lat="44.61806" lon="6.13502">
        <ele>1248.8</ele>
        <time>2022-09-18T14:12:39Z</time>
      </trkpt>
      <trkpt lat="44.61801" lon="6.13508">
        <ele>1248.6</ele>
        <time>2022-09-18T14:12:40Z</time>
      </trkpt>
      <trkpt lat="44.61795" lon="6.13516">
        <ele>1248.4</ele>
        <time>2022-09-18T14:12:41Z</time>
      </trkpt>
      <trkpt lat="44.6179" lon="6.13523">
        <ele>1248.4</ele>
        <time>2022-09-18T14:12:42Z</time>
      </trkpt>
      <trkpt lat="44.61785" lon="6.13529">
        <ele>1248.2</ele>
        <time>2022-09-18T14:12:43Z</time>
      </trkpt>
      <trkpt lat="44.6178" lon="6.13535">
        <ele>1248.4</ele>
        <time>2022-09-18T14:12:44Z</time>
      </trkpt>
      <trkpt lat="44.61776" lon="6.1354">
        <ele>1248.2</ele>
        <time>2022-09-18T14:12:45Z</time>
      </trkpt>
      <trkpt lat="44.61771" lon="6.13546">
        <ele>1248.2</ele>
        <time>2022-09-18T14:12:46Z</time>
      </trkpt>
      <trkpt lat="44.61767" lon="6.13551">
        <ele>1248.2</ele>
        <time>2022-09-18T14:12:47Z</time>
      </trkpt>
      <trkpt lat="44.61763" lon="6.13556">
        <ele>1248.2</ele>
        <time>2022-09-18T14:12:48Z</time>
      </trkpt>
      <trkpt lat="44.61759" lon="6.13561">
        <ele>1248.2</ele>
        <time>2022-09-18T14:12:49Z</time>
      </trkpt>
      <trkpt lat="44.61755" lon="6.13567">
        <ele>1248.2</ele>
        <time>2022-09-18T14:12:50Z</time>
      </trkpt>
      <trkpt lat="44.61751" lon="6.13571">
        <ele>1248</ele>
        <time>2022-09-18T14:12:51Z</time>
      </trkpt>
      <trkpt lat="44.61747" lon="6.13576">
        <ele>1248.2</ele>
        <time>2022-09-18T14:12:52Z</time>
      </trkpt>
      <trkpt lat="44.61744" lon="6.13581">
        <ele>1248.2</ele>
        <time>2022-09-18T14:12:53Z</time>
      </trkpt>
      <trkpt lat="44.6174" lon="6.13586">
        <ele>1248.2</ele>
        <time>2022-09-18T14:12:54Z</time>
      </trkpt>
      <trkpt lat="44.61736" lon="6.1359">
        <ele>1248.2</ele>
        <time>2022-09-18T14:12:55Z</time>
      </trkpt>
      <trkpt lat="44.61732" lon="6.13594">
        <ele>1248.2</ele>
        <time>2022-09-18T14:12:56Z</time>
      </trkpt>
      <trkpt lat="44.61729" lon="6.13599">
        <ele>1248.2</ele>
        <time>2022-09-18T14:12:57Z</time>
      </trkpt>
      <trkpt lat="44.61725" lon="6.13603">
        <ele>1248</ele>
        <time>2022-09-18T14:12:58Z</time>
      </trkpt>
      <trkpt lat="44.61721" lon="6.13607">
        <ele>1247.8</ele>
        <time>2022-09-18T14:12:59Z</time>
      </trkpt>
      <trkpt lat="44.61717" lon="6.1361">
        <ele>1248.2</ele>
        <time>2022-09-18T14:13:00Z</time>
      </trkpt>
      <trkpt lat="44.61713" lon="6.13614">
        <ele>1248.4</ele>
        <time>2022-09-18T14:13:01Z</time>
      </trkpt>
      <trkpt lat="44.61709" lon="6.13617">
        <ele>1248.4</ele>
        <time>2022-09-18T14:13:02Z</time>
      </trkpt>
      <trkpt lat="44.61705" lon="6.1362">
        <ele>1248.4</ele>
        <time>2022-09-18T14:13:03Z</time>
      </trkpt>
      <trkpt lat="44.61702" lon="6.13623">
        <ele>1248.4</ele>
        <time>2022-09-18T14:13:04Z</time>
      </trkpt>
      <trkpt lat="44.61698" lon="6.13626">
        <ele>1248.4</ele>
        <time>2022-09-18T14:13:05Z</time>
      </trkpt>
      <trkpt lat="44.61694" lon="6.13628">
        <ele>1248.4</ele>
        <time>2022-09-18T14:13:06Z</time>
      </trkpt>
      <trkpt lat="44.6169" lon="6.13631">
        <ele>1248.4</ele>
        <time>2022-09-18T14:13:07Z</time>
      </trkpt>
      <trkpt lat="44.61686" lon="6.13633">
        <ele>1248.6</ele>
        <time>2022-09-18T14:13:08Z</time>
      </trkpt>
      <trkpt lat="44.61682" lon="6.13635">
        <ele>1249</ele>
        <time>2022-09-18T14:13:09Z</time>
      </trkpt>
      <trkpt lat="44.61679" lon="6.13637">
        <ele>1249.2</ele>
        <time>2022-09-18T14:13:10Z</time>
      </trkpt>
      <trkpt lat="44.61675" lon="6.13639">
        <ele>1249.4</ele>
        <time>2022-09-18T14:13:11Z</time>
      </trkpt>
      <trkpt lat="44.61671" lon="6.13641">
        <ele>1249.4</ele>
        <time>2022-09-18T14:13:12Z</time>
      </trkpt>
      <trkpt lat="44.61667" lon="6.13642">
        <ele>1249.6</ele>
        <time>2022-09-18T14:13:13Z</time>
      </trkpt>
      <trkpt lat="44.61664" lon="6.13644">
        <ele>1249.8</ele>
        <time>2022-09-18T14:13:14Z</time>
      </trkpt>
      <trkpt lat="44.6166" lon="6.13646">
        <ele>1250</ele>
        <time>2022-09-18T14:13:15Z</time>
      </trkpt>
      <trkpt lat="44.61656" lon="6.13648">
        <ele>1250.2</ele>
        <time>2022-09-18T14:13:16Z</time>
      </trkpt>
      <trkpt lat="44.61652" lon="6.1365">
        <ele>1250.4</ele>
        <time>2022-09-18T14:13:17Z</time>
      </trkpt>
      <trkpt lat="44.61649" lon="6.13652">
        <ele>1250.6</ele>
        <time>2022-09-18T14:13:18Z</time>
      </trkpt>
      <trkpt lat="44.61645" lon="6.13654">
        <ele>1250.6</ele>
        <time>2022-09-18T14:13:19Z</time>
      </trkpt>
      <trkpt lat="44.61641" lon="6.13656">
        <ele>1250.8</ele>
        <time>2022-09-18T14:13:20Z</time>
      </trkpt>
      <trkpt lat="44.61637" lon="6.13659">
        <ele>1251</ele>
        <time>2022-09-18T14:13:21Z</time>
      </trkpt>
      <trkpt lat="44.61633" lon="6.13661">
        <ele>1251</ele>
        <time>2022-09-18T14:13:22Z</time>
      </trkpt>
      <trkpt lat="44.61629" lon="6.13663">
        <ele>1251</ele>
        <time>2022-09-18T14:13:23Z</time>
      </trkpt>
      <trkpt lat="44.61626" lon="6.13665">
        <ele>1251.2</ele>
        <time>2022-09-18T14:13:24Z</time>
      </trkpt>
      <trkpt lat="44.61622" lon="6.13667">
        <ele>1251.4</ele>
        <time>2022-09-18T14:13:25Z</time>
      </trkpt>
      <trkpt lat="44.61618" lon="6.1367">
        <ele>1251.6</ele>
        <time>2022-09-18T14:13:26Z</time>
      </trkpt>
      <trkpt lat="44.61614" lon="6.13672">
        <ele>1251.8</ele>
        <time>2022-09-18T14:13:27Z</time>
      </trkpt>
      <trkpt lat="44.6161" lon="6.13674">
        <ele>1252</ele>
        <time>2022-09-18T14:13:28Z</time>
      </trkpt>
      <trkpt lat="44.61606" lon="6.13676">
        <ele>1252</ele>
        <time>2022-09-18T14:13:29Z</time>
      </trkpt>
      <trkpt lat="44.61602" lon="6.13678">
        <ele>1252.2</ele>
        <time>2022-09-18T14:13:30Z</time>
      </trkpt>
      <trkpt lat="44.61599" lon="6.1368">
        <ele>1252.4</ele>
        <time>2022-09-18T14:13:31Z</time>
      </trkpt>
      <trkpt lat="44.61595" lon="6.13682">
        <ele>1252.6</ele>
        <time>2022-09-18T14:13:32Z</time>
      </trkpt>
      <trkpt lat="44.61591" lon="6.13685">
        <ele>1252.8</ele>
        <time>2022-09-18T14:13:33Z</time>
      </trkpt>
      <trkpt lat="44.61587" lon="6.13687">
        <ele>1253</ele>
        <time>2022-09-18T14:13:34Z</time>
      </trkpt>
      <trkpt lat="44.61583" lon="6.13689">
        <ele>1253.2</ele>
        <time>2022-09-18T14:13:35Z</time>
      </trkpt>
      <trkpt lat="44.61579" lon="6.13691">
        <ele>1253.4</ele>
        <time>2022-09-18T14:13:36Z</time>
      </trkpt>
      <trkpt lat="44.61575" lon="6.13693">
        <ele>1253.6</ele>
        <time>2022-09-18T14:13:37Z</time>
      </trkpt>
      <trkpt lat="44.61571" lon="6.13696">
        <ele>1253.8</ele>
        <time>2022-09-18T14:13:38Z</time>
      </trkpt>
      <trkpt lat="44.61567" lon="6.13698">
        <ele>1254</ele>
        <time>2022-09-18T14:13:39Z</time>
      </trkpt>
      <trkpt lat="44.61563" lon="6.137">
        <ele>1254.4</ele>
        <time>2022-09-18T14:13:40Z</time>
      </trkpt>
      <trkpt lat="44.6156" lon="6.13702">
        <ele>1254.6</ele>
        <time>2022-09-18T14:13:41Z</time>
      </trkpt>
      <trkpt lat="44.61556" lon="6.13704">
        <ele>1255</ele>
        <time>2022-09-18T14:13:42Z</time>
      </trkpt>
      <trkpt lat="44.61552" lon="6.13706">
        <ele>1255.4</ele>
        <time>2022-09-18T14:13:43Z</time>
      </trkpt>
      <trkpt lat="44.61548" lon="6.13708">
        <ele>1255.8</ele>
        <time>2022-09-18T14:13:44Z</time>
      </trkpt>
      <trkpt lat="44.61544" lon="6.1371">
        <ele>1256.4</ele>
        <time>2022-09-18T14:13:45Z</time>
      </trkpt>
      <trkpt lat="44.6154" lon="6.13713">
        <ele>1256.6</ele>
        <time>2022-09-18T14:13:46Z</time>
      </trkpt>
      <trkpt lat="44.61537" lon="6.13715">
        <ele>1257.2</ele>
        <time>2022-09-18T14:13:47Z</time>
      </trkpt>
      <trkpt lat="44.61533" lon="6.13717">
        <ele>1257.4</ele>
        <time>2022-09-18T14:13:48Z</time>
      </trkpt>
      <trkpt lat="44.61529" lon="6.13719">
        <ele>1257.8</ele>
        <time>2022-09-18T14:13:49Z</time>
      </trkpt>
      <trkpt lat="44.61525" lon="6.13721">
        <ele>1258</ele>
        <time>2022-09-18T14:13:50Z</time>
      </trkpt>
      <trkpt lat="44.61521" lon="6.13723">
        <ele>1258.4</ele>
        <time>2022-09-18T14:13:51Z</time>
      </trkpt>
      <trkpt lat="44.61518" lon="6.13726">
        <ele>1258.6</ele>
        <time>2022-09-18T14:13:52Z</time>
      </trkpt>
      <trkpt lat="44.61514" lon="6.13728">
        <ele>1258.8</ele>
        <time>2022-09-18T14:13:53Z</time>
      </trkpt>
      <trkpt lat="44.6151" lon="6.1373">
        <ele>1259</ele>
        <time>2022-09-18T14:13:54Z</time>
      </trkpt>
      <trkpt lat="44.61507" lon="6.13732">
        <ele>1259.4</ele>
        <time>2022-09-18T14:13:55Z</time>
      </trkpt>
      <trkpt lat="44.61503" lon="6.13734">
        <ele>1259.6</ele>
        <time>2022-09-18T14:13:56Z</time>
      </trkpt>
      <trkpt lat="44.61499" lon="6.13736">
        <ele>1259.8</ele>
        <time>2022-09-18T14:13:57Z</time>
      </trkpt>
      <trkpt lat="44.61496" lon="6.13738">
        <ele>1260</ele>
        <time>2022-09-18T14:13:58Z</time>
      </trkpt>
      <trkpt lat="44.61492" lon="6.1374">
        <ele>1260.4</ele>
        <time>2022-09-18T14:13:59Z</time>
      </trkpt>
      <trkpt lat="44.61488" lon="6.13742">
        <ele>1260.8</ele>
        <time>2022-09-18T14:14:00Z</time>
      </trkpt>
      <trkpt lat="44.61484" lon="6.13743">
        <ele>1261</ele>
        <time>2022-09-18T14:14:01Z</time>
      </trkpt>
      <trkpt lat="44.6148" lon="6.13745">
        <ele>1261.4</ele>
        <time>2022-09-18T14:14:02Z</time>
      </trkpt>
      <trkpt lat="44.61476" lon="6.13746">
        <ele>1261.6</ele>
        <time>2022-09-18T14:14:03Z</time>
      </trkpt>
      <trkpt lat="44.61472" lon="6.13747">
        <ele>1262</ele>
        <time>2022-09-18T14:14:04Z</time>
      </trkpt>
      <trkpt lat="44.61468" lon="6.13747">
        <ele>1262.2</ele>
        <time>2022-09-18T14:14:05Z</time>
      </trkpt>
      <trkpt lat="44.61464" lon="6.13747">
        <ele>1262.6</ele>
        <time>2022-09-18T14:14:06Z</time>
      </trkpt>
      <trkpt lat="44.61461" lon="6.13746">
        <ele>1262.8</ele>
        <time>2022-09-18T14:14:07Z</time>
      </trkpt>
      <trkpt lat="44.61457" lon="6.13746">
        <ele>1263</ele>
        <time>2022-09-18T14:14:08Z</time>
      </trkpt>
      <trkpt lat="44.61453" lon="6.13747">
        <ele>1263.4</ele>
        <time>2022-09-18T14:14:09Z</time>
      </trkpt>
      <trkpt lat="44.61449" lon="6.13749">
        <ele>1263.6</ele>
        <time>2022-09-18T14:14:10Z</time>
      </trkpt>
      <trkpt lat="44.61446" lon="6.13752">
        <ele>1263.8</ele>
        <time>2022-09-18T14:14:11Z</time>
      </trkpt>
      <trkpt lat="44.61443" lon="6.13756">
        <ele>1264.2</ele>
        <time>2022-09-18T14:14:12Z</time>
      </trkpt>
      <trkpt lat="44.6144" lon="6.13761">
        <ele>1264.4</ele>
        <time>2022-09-18T14:14:13Z</time>
      </trkpt>
      <trkpt lat="44.61437" lon="6.13766">
        <ele>1264.4</ele>
        <time>2022-09-18T14:14:14Z</time>
      </trkpt>
      <trkpt lat="44.61435" lon="6.13772">
        <ele>1264.6</ele>
        <time>2022-09-18T14:14:15Z</time>
      </trkpt>
      <trkpt lat="44.61432" lon="6.13777">
        <ele>1264.6</ele>
        <time>2022-09-18T14:14:16Z</time>
      </trkpt>
      <trkpt lat="44.61428" lon="6.13781">
        <ele>1265</ele>
        <time>2022-09-18T14:14:17Z</time>
      </trkpt>
      <trkpt lat="44.61424" lon="6.13784">
        <ele>1265.2</ele>
        <time>2022-09-18T14:14:18Z</time>
      </trkpt>
      <trkpt lat="44.6142" lon="6.13787">
        <ele>1265</ele>
        <time>2022-09-18T14:14:19Z</time>
      </trkpt>
      <trkpt lat="44.61416" lon="6.1379">
        <ele>1265</ele>
        <time>2022-09-18T14:14:20Z</time>
      </trkpt>
      <trkpt lat="44.61413" lon="6.13794">
        <ele>1265</ele>
        <time>2022-09-18T14:14:21Z</time>
      </trkpt>
      <trkpt lat="44.61409" lon="6.13797">
        <ele>1265.2</ele>
        <time>2022-09-18T14:14:22Z</time>
      </trkpt>
      <trkpt lat="44.61405" lon="6.138">
        <ele>1265.4</ele>
        <time>2022-09-18T14:14:23Z</time>
      </trkpt>
      <trkpt lat="44.61401" lon="6.13803">
        <ele>1265.6</ele>
        <time>2022-09-18T14:14:24Z</time>
      </trkpt>
      <trkpt lat="44.61397" lon="6.13806">
        <ele>1265.8</ele>
        <time>2022-09-18T14:14:25Z</time>
      </trkpt>
      <trkpt lat="44.61393" lon="6.13809">
        <ele>1266</ele>
        <time>2022-09-18T14:14:26Z</time>
      </trkpt>
      <trkpt lat="44.6139" lon="6.13812">
        <ele>1266.2</ele>
        <time>2022-09-18T14:14:27Z</time>
      </trkpt>
      <trkpt lat="44.61386" lon="6.13815">
        <ele>1266.4</ele>
        <time>2022-09-18T14:14:28Z</time>
      </trkpt>
      <trkpt lat="44.61382" lon="6.13818">
        <ele>1266.6</ele>
        <time>2022-09-18T14:14:29Z</time>
      </trkpt>
      <trkpt lat="44.61379" lon="6.13821">
        <ele>1266.8</ele>
        <time>2022-09-18T14:14:30Z</time>
      </trkpt>
      <trkpt lat="44.61375" lon="6.13824">
        <ele>1266.8</ele>
        <time>2022-09-18T14:14:31Z</time>
      </trkpt>
      <trkpt lat="44.61371" lon="6.13828">
        <ele>1267.2</ele>
        <time>2022-09-18T14:14:32Z</time>
      </trkpt>
      <trkpt lat="44.61367" lon="6.13831">
        <ele>1267.4</ele>
        <time>2022-09-18T14:14:33Z</time>
      </trkpt>
      <trkpt lat="44.61363" lon="6.13834">
        <ele>1267.4</ele>
        <time>2022-09-18T14:14:34Z</time>
      </trkpt>
      <trkpt lat="44.61359" lon="6.13837">
        <ele>1267.4</ele>
        <time>2022-09-18T14:14:35Z</time>
      </trkpt>
      <trkpt lat="44.61355" lon="6.1384">
        <ele>1267.6</ele>
        <time>2022-09-18T14:14:36Z</time>
      </trkpt>
      <trkpt lat="44.61351" lon="6.13843">
        <ele>1267.6</ele>
        <time>2022-09-18T14:14:37Z</time>
      </trkpt>
      <trkpt lat="44.61347" lon="6.13846">
        <ele>1267.6</ele>
        <time>2022-09-18T14:14:38Z</time>
      </trkpt>
      <trkpt lat="44.61343" lon="6.13848">
        <ele>1267.8</ele>
        <time>2022-09-18T14:14:39Z</time>
      </trkpt>
      <trkpt lat="44.61339" lon="6.13851">
        <ele>1267.6</ele>
        <time>2022-09-18T14:14:40Z</time>
      </trkpt>
      <trkpt lat="44.61335" lon="6.13853">
        <ele>1267.6</ele>
        <time>2022-09-18T14:14:41Z</time>
      </trkpt>
      <trkpt lat="44.61331" lon="6.13855">
        <ele>1267.8</ele>
        <time>2022-09-18T14:14:42Z</time>
      </trkpt>
      <trkpt lat="44.61327" lon="6.13858">
        <ele>1267.8</ele>
        <time>2022-09-18T14:14:43Z</time>
      </trkpt>
      <trkpt lat="44.61323" lon="6.1386">
        <ele>1268</ele>
        <time>2022-09-18T14:14:44Z</time>
      </trkpt>
      <trkpt lat="44.61319" lon="6.13862">
        <ele>1267.8</ele>
        <time>2022-09-18T14:14:45Z</time>
      </trkpt>
      <trkpt lat="44.61315" lon="6.13864">
        <ele>1267.8</ele>
        <time>2022-09-18T14:14:46Z</time>
      </trkpt>
      <trkpt lat="44.6131" lon="6.13866">
        <ele>1268</ele>
        <time>2022-09-18T14:14:47Z</time>
      </trkpt>
      <trkpt lat="44.61306" lon="6.13868">
        <ele>1268</ele>
        <time>2022-09-18T14:14:48Z</time>
      </trkpt>
      <trkpt lat="44.61302" lon="6.13869">
        <ele>1268.4</ele>
        <time>2022-09-18T14:14:49Z</time>
      </trkpt>
      <trkpt lat="44.61298" lon="6.13871">
        <ele>1268.6</ele>
        <time>2022-09-18T14:14:50Z</time>
      </trkpt>
      <trkpt lat="44.61294" lon="6.13872">
        <ele>1268.6</ele>
        <time>2022-09-18T14:14:51Z</time>
      </trkpt>
      <trkpt lat="44.6129" lon="6.13873">
        <ele>1268.8</ele>
        <time>2022-09-18T14:14:52Z</time>
      </trkpt>
      <trkpt lat="44.61286" lon="6.13874">
        <ele>1269</ele>
        <time>2022-09-18T14:14:53Z</time>
      </trkpt>
      <trkpt lat="44.61282" lon="6.13875">
        <ele>1269.2</ele>
        <time>2022-09-18T14:14:54Z</time>
      </trkpt>
      <trkpt lat="44.61278" lon="6.13877">
        <ele>1269.6</ele>
        <time>2022-09-18T14:14:55Z</time>
      </trkpt>
      <trkpt lat="44.61274" lon="6.13878">
        <ele>1269.6</ele>
        <time>2022-09-18T14:14:56Z</time>
      </trkpt>
      <trkpt lat="44.6127" lon="6.13879">
        <ele>1269.6</ele>
        <time>2022-09-18T14:14:57Z</time>
      </trkpt>
      <trkpt lat="44.61266" lon="6.1388">
        <ele>1269.6</ele>
        <time>2022-09-18T14:14:58Z</time>
      </trkpt>
      <trkpt lat="44.61262" lon="6.13881">
        <ele>1270</ele>
        <time>2022-09-18T14:14:59Z</time>
      </trkpt>
      <trkpt lat="44.61257" lon="6.13882">
        <ele>1270.2</ele>
        <time>2022-09-18T14:15:00Z</time>
      </trkpt>
      <trkpt lat="44.61253" lon="6.13883">
        <ele>1270.2</ele>
        <time>2022-09-18T14:15:01Z</time>
      </trkpt>
      <trkpt lat="44.61249" lon="6.13884">
        <ele>1270.2</ele>
        <time>2022-09-18T14:15:02Z</time>
      </trkpt>
      <trkpt lat="44.61245" lon="6.13885">
        <ele>1270.4</ele>
        <time>2022-09-18T14:15:03Z</time>
      </trkpt>
      <trkpt lat="44.61241" lon="6.13886">
        <ele>1270.6</ele>
        <time>2022-09-18T14:15:04Z</time>
      </trkpt>
      <trkpt lat="44.61237" lon="6.13887">
        <ele>1270.4</ele>
        <time>2022-09-18T14:15:05Z</time>
      </trkpt>
      <trkpt lat="44.61233" lon="6.13889">
        <ele>1270.8</ele>
        <time>2022-09-18T14:15:06Z</time>
      </trkpt>
      <trkpt lat="44.61229" lon="6.1389">
        <ele>1271</ele>
        <time>2022-09-18T14:15:07Z</time>
      </trkpt>
      <trkpt lat="44.61225" lon="6.13891">
        <ele>1271.2</ele>
        <time>2022-09-18T14:15:08Z</time>
      </trkpt>
      <trkpt lat="44.6122" lon="6.13892">
        <ele>1271.2</ele>
        <time>2022-09-18T14:15:09Z</time>
      </trkpt>
      <trkpt lat="44.61216" lon="6.13892">
        <ele>1271.4</ele>
        <time>2022-09-18T14:15:10Z</time>
      </trkpt>
      <trkpt lat="44.61212" lon="6.13893">
        <ele>1271.6</ele>
        <time>2022-09-18T14:15:11Z</time>
      </trkpt>
      <trkpt lat="44.61208" lon="6.13894">
        <ele>1271.6</ele>
        <time>2022-09-18T14:15:12Z</time>
      </trkpt>
      <trkpt lat="44.61204" lon="6.13894">
        <ele>1271.6</ele>
        <time>2022-09-18T14:15:13Z</time>
      </trkpt>
      <trkpt lat="44.612" lon="6.13894">
        <ele>1272</ele>
        <time>2022-09-18T14:15:14Z</time>
      </trkpt>
      <trkpt lat="44.61196" lon="6.13895">
        <ele>1272</ele>
        <time>2022-09-18T14:15:15Z</time>
      </trkpt>
      <trkpt lat="44.61191" lon="6.13895">
        <ele>1272</ele>
        <time>2022-09-18T14:15:16Z</time>
      </trkpt>
      <trkpt lat="44.61187" lon="6.13896">
        <ele>1272.2</ele>
        <time>2022-09-18T14:15:17Z</time>
      </trkpt>
      <trkpt lat="44.61183" lon="6.13896">
        <ele>1272.4</ele>
        <time>2022-09-18T14:15:18Z</time>
      </trkpt>
      <trkpt lat="44.61178" lon="6.13896">
        <ele>1272.4</ele>
        <time>2022-09-18T14:15:19Z</time>
      </trkpt>
      <trkpt lat="44.61174" lon="6.13897">
        <ele>1272.4</ele>
        <time>2022-09-18T14:15:20Z</time>
      </trkpt>
      <trkpt lat="44.6117" lon="6.13897">
        <ele>1272.4</ele>
        <time>2022-09-18T14:15:21Z</time>
      </trkpt>
      <trkpt lat="44.61165" lon="6.13897">
        <ele>1272.4</ele>
        <time>2022-09-18T14:15:22Z</time>
      </trkpt>
      <trkpt lat="44.61161" lon="6.13897">
        <ele>1272.6</ele>
        <time>2022-09-18T14:15:23Z</time>
      </trkpt>
      <trkpt lat="44.61156" lon="6.13897">
        <ele>1272.6</ele>
        <time>2022-09-18T14:15:24Z</time>
      </trkpt>
      <trkpt lat="44.61151" lon="6.13898">
        <ele>1272.6</ele>
        <time>2022-09-18T14:15:25Z</time>
      </trkpt>
      <trkpt lat="44.61147" lon="6.13898">
        <ele>1272.6</ele>
        <time>2022-09-18T14:15:26Z</time>
      </trkpt>
      <trkpt lat="44.61142" lon="6.13898">
        <ele>1272.4</ele>
        <time>2022-09-18T14:15:27Z</time>
      </trkpt>
      <trkpt lat="44.61138" lon="6.13898">
        <ele>1272.6</ele>
        <time>2022-09-18T14:15:28Z</time>
      </trkpt>
      <trkpt lat="44.61133" lon="6.13898">
        <ele>1272.6</ele>
        <time>2022-09-18T14:15:29Z</time>
      </trkpt>
      <trkpt lat="44.61128" lon="6.13899">
        <ele>1272.4</ele>
        <time>2022-09-18T14:15:30Z</time>
      </trkpt>
      <trkpt lat="44.61123" lon="6.13899">
        <ele>1272.4</ele>
        <time>2022-09-18T14:15:31Z</time>
      </trkpt>
      <trkpt lat="44.61119" lon="6.139">
        <ele>1272.2</ele>
        <time>2022-09-18T14:15:32Z</time>
      </trkpt>
      <trkpt lat="44.61114" lon="6.139">
        <ele>1272</ele>
        <time>2022-09-18T14:15:33Z</time>
      </trkpt>
      <trkpt lat="44.61109" lon="6.13901">
        <ele>1272</ele>
        <time>2022-09-18T14:15:34Z</time>
      </trkpt>
      <trkpt lat="44.61105" lon="6.13901">
        <ele>1272</ele>
        <time>2022-09-18T14:15:35Z</time>
      </trkpt>
      <trkpt lat="44.611" lon="6.13903">
        <ele>1271.6</ele>
        <time>2022-09-18T14:15:36Z</time>
      </trkpt>
      <trkpt lat="44.61096" lon="6.13905">
        <ele>1271.6</ele>
        <time>2022-09-18T14:15:37Z</time>
      </trkpt>
      <trkpt lat="44.61092" lon="6.13907">
        <ele>1271.6</ele>
        <time>2022-09-18T14:15:38Z</time>
      </trkpt>
      <trkpt lat="44.61088" lon="6.13909">
        <ele>1271.6</ele>
        <time>2022-09-18T14:15:39Z</time>
      </trkpt>
      <trkpt lat="44.61085" lon="6.13912">
        <ele>1271.4</ele>
        <time>2022-09-18T14:15:40Z</time>
      </trkpt>
      <trkpt lat="44.61082" lon="6.13916">
        <ele>1271.6</ele>
        <time>2022-09-18T14:15:41Z</time>
      </trkpt>
      <trkpt lat="44.61079" lon="6.1392">
        <ele>1271.6</ele>
        <time>2022-09-18T14:15:42Z</time>
      </trkpt>
      <trkpt lat="44.61076" lon="6.13923">
        <ele>1271</ele>
        <time>2022-09-18T14:15:43Z</time>
      </trkpt>
      <trkpt lat="44.61073" lon="6.13927">
        <ele>1271</ele>
        <time>2022-09-18T14:15:44Z</time>
      </trkpt>
      <trkpt lat="44.61071" lon="6.1393">
        <ele>1270.8</ele>
        <time>2022-09-18T14:15:45Z</time>
      </trkpt>
      <trkpt lat="44.61068" lon="6.13934">
        <ele>1270.6</ele>
        <time>2022-09-18T14:15:46Z</time>
      </trkpt>
      <trkpt lat="44.61066" lon="6.13938">
        <ele>1270.4</ele>
        <time>2022-09-18T14:15:47Z</time>
      </trkpt>
      <trkpt lat="44.61065" lon="6.13941">
        <ele>1270.4</ele>
        <time>2022-09-18T14:15:48Z</time>
      </trkpt>
      <trkpt lat="44.61063" lon="6.13943">
        <ele>1270.2</ele>
        <time>2022-09-18T14:15:49Z</time>
      </trkpt>
      <trkpt lat="44.61062" lon="6.13945">
        <ele>1270.2</ele>
        <time>2022-09-18T14:15:50Z</time>
      </trkpt>
      <trkpt lat="44.61058" lon="6.13944">
        <ele>1269.8</ele>
        <time>2022-09-18T14:15:52Z</time>
      </trkpt>
      <trkpt lat="44.61061" lon="6.13945">
        <ele>1264.4</ele>
        <time>2022-09-18T14:16:25Z</time>
      </trkpt>
      <trkpt lat="44.6106" lon="6.13947">
        <ele>1262.8</ele>
        <time>2022-09-18T14:16:37Z</time>
      </trkpt>
      <trkpt lat="44.61062" lon="6.13947">
        <ele>1261</ele>
        <time>2022-09-18T14:17:47Z</time>
      </trkpt>
      <trkpt lat="44.61062" lon="6.1395">
        <ele>1261.6</ele>
        <time>2022-09-18T14:17:49Z</time>
      </trkpt>
      <trkpt lat="44.6106" lon="6.13954">
        <ele>1262</ele>
        <time>2022-09-18T14:17:51Z</time>
      </trkpt>
      <trkpt lat="44.61058" lon="6.13956">
        <ele>1262</ele>
        <time>2022-09-18T14:17:52Z</time>
      </trkpt>
      <trkpt lat="44.61055" lon="6.13959">
        <ele>1262</ele>
        <time>2022-09-18T14:17:53Z</time>
      </trkpt>
      <trkpt lat="44.61053" lon="6.13963">
        <ele>1262</ele>
        <time>2022-09-18T14:17:54Z</time>
      </trkpt>
      <trkpt lat="44.6105" lon="6.13967">
        <ele>1262</ele>
        <time>2022-09-18T14:17:55Z</time>
      </trkpt>
      <trkpt lat="44.61046" lon="6.13972">
        <ele>1262</ele>
        <time>2022-09-18T14:17:56Z</time>
      </trkpt>
      <trkpt lat="44.61042" lon="6.13977">
        <ele>1262.2</ele>
        <time>2022-09-18T14:17:57Z</time>
      </trkpt>
      <trkpt lat="44.61038" lon="6.13981">
        <ele>1262.2</ele>
        <time>2022-09-18T14:17:58Z</time>
      </trkpt>
      <trkpt lat="44.61033" lon="6.13985">
        <ele>1262.2</ele>
        <time>2022-09-18T14:17:59Z</time>
      </trkpt>
      <trkpt lat="44.61028" lon="6.13989">
        <ele>1262</ele>
        <time>2022-09-18T14:18:00Z</time>
      </trkpt>
      <trkpt lat="44.61023" lon="6.13994">
        <ele>1262</ele>
        <time>2022-09-18T14:18:01Z</time>
      </trkpt>
      <trkpt lat="44.61018" lon="6.13999">
        <ele>1261.8</ele>
        <time>2022-09-18T14:18:02Z</time>
      </trkpt>
      <trkpt lat="44.61012" lon="6.14004">
        <ele>1261.4</ele>
        <time>2022-09-18T14:18:03Z</time>
      </trkpt>
      <trkpt lat="44.61006" lon="6.14009">
        <ele>1261.4</ele>
        <time>2022-09-18T14:18:04Z</time>
      </trkpt>
      <trkpt lat="44.61" lon="6.14015">
        <ele>1261.2</ele>
        <time>2022-09-18T14:18:05Z</time>
      </trkpt>
      <trkpt lat="44.60994" lon="6.1402">
        <ele>1261.4</ele>
        <time>2022-09-18T14:18:06Z</time>
      </trkpt>
      <trkpt lat="44.60987" lon="6.14026">
        <ele>1261.2</ele>
        <time>2022-09-18T14:18:07Z</time>
      </trkpt>
      <trkpt lat="44.60981" lon="6.14032">
        <ele>1261.2</ele>
        <time>2022-09-18T14:18:08Z</time>
      </trkpt>
      <trkpt lat="44.60974" lon="6.14038">
        <ele>1261.2</ele>
        <time>2022-09-18T14:18:09Z</time>
      </trkpt>
      <trkpt lat="44.60967" lon="6.14044">
        <ele>1261.2</ele>
        <time>2022-09-18T14:18:10Z</time>
      </trkpt>
      <trkpt lat="44.6096" lon="6.1405">
        <ele>1261</ele>
        <time>2022-09-18T14:18:11Z</time>
      </trkpt>
      <trkpt lat="44.60953" lon="6.14055">
        <ele>1261.2</ele>
        <time>2022-09-18T14:18:12Z</time>
      </trkpt>
      <trkpt lat="44.60945" lon="6.14059">
        <ele>1261.2</ele>
        <time>2022-09-18T14:18:13Z</time>
      </trkpt>
      <trkpt lat="44.60936" lon="6.14063">
        <ele>1261</ele>
        <time>2022-09-18T14:18:14Z</time>
      </trkpt>
      <trkpt lat="44.60927" lon="6.14067">
        <ele>1261.2</ele>
        <time>2022-09-18T14:18:15Z</time>
      </trkpt>
      <trkpt lat="44.60918" lon="6.14072">
        <ele>1261.2</ele>
        <time>2022-09-18T14:18:16Z</time>
      </trkpt>
      <trkpt lat="44.60908" lon="6.14077">
        <ele>1261</ele>
        <time>2022-09-18T14:18:17Z</time>
      </trkpt>
      <trkpt lat="44.60898" lon="6.14081">
        <ele>1260.6</ele>
        <time>2022-09-18T14:18:18Z</time>
      </trkpt>
      <trkpt lat="44.60887" lon="6.14085">
        <ele>1260</ele>
        <time>2022-09-18T14:18:19Z</time>
      </trkpt>
      <trkpt lat="44.60877" lon="6.14089">
        <ele>1259.4</ele>
        <time>2022-09-18T14:18:20Z</time>
      </trkpt>
      <trkpt lat="44.60866" lon="6.14091">
        <ele>1258.6</ele>
        <time>2022-09-18T14:18:21Z</time>
      </trkpt>
      <trkpt lat="44.60855" lon="6.14093">
        <ele>1258.2</ele>
        <time>2022-09-18T14:18:22Z</time>
      </trkpt>
      <trkpt lat="44.60845" lon="6.14096">
        <ele>1258.2</ele>
        <time>2022-09-18T14:18:23Z</time>
      </trkpt>
      <trkpt lat="44.60834" lon="6.14099">
        <ele>1257.8</ele>
        <time>2022-09-18T14:18:24Z</time>
      </trkpt>
      <trkpt lat="44.60823" lon="6.14103">
        <ele>1257.8</ele>
        <time>2022-09-18T14:18:25Z</time>
      </trkpt>
      <trkpt lat="44.60813" lon="6.14107">
        <ele>1257.4</ele>
        <time>2022-09-18T14:18:26Z</time>
      </trkpt>
      <trkpt lat="44.60802" lon="6.14112">
        <ele>1257</ele>
        <time>2022-09-18T14:18:27Z</time>
      </trkpt>
      <trkpt lat="44.60792" lon="6.14118">
        <ele>1256.8</ele>
        <time>2022-09-18T14:18:28Z</time>
      </trkpt>
      <trkpt lat="44.60781" lon="6.14124">
        <ele>1257</ele>
        <time>2022-09-18T14:18:29Z</time>
      </trkpt>
      <trkpt lat="44.60771" lon="6.14129">
        <ele>1257.2</ele>
        <time>2022-09-18T14:18:30Z</time>
      </trkpt>
      <trkpt lat="44.60761" lon="6.14135">
        <ele>1257</ele>
        <time>2022-09-18T14:18:31Z</time>
      </trkpt>
      <trkpt lat="44.60751" lon="6.14141">
        <ele>1256.4</ele>
        <time>2022-09-18T14:18:32Z</time>
      </trkpt>
      <trkpt lat="44.60741" lon="6.14147">
        <ele>1256</ele>
        <time>2022-09-18T14:18:33Z</time>
      </trkpt>
      <trkpt lat="44.60732" lon="6.14153">
        <ele>1255.8</ele>
        <time>2022-09-18T14:18:34Z</time>
      </trkpt>
      <trkpt lat="44.60722" lon="6.14159">
        <ele>1255.4</ele>
        <time>2022-09-18T14:18:35Z</time>
      </trkpt>
      <trkpt lat="44.60712" lon="6.14164">
        <ele>1255.2</ele>
        <time>2022-09-18T14:18:36Z</time>
      </trkpt>
      <trkpt lat="44.60701" lon="6.14169">
        <ele>1255</ele>
        <time>2022-09-18T14:18:37Z</time>
      </trkpt>
      <trkpt lat="44.60691" lon="6.14174">
        <ele>1255</ele>
        <time>2022-09-18T14:18:38Z</time>
      </trkpt>
      <trkpt lat="44.6068" lon="6.14178">
        <ele>1254.8</ele>
        <time>2022-09-18T14:18:39Z</time>
      </trkpt>
      <trkpt lat="44.60669" lon="6.14182">
        <ele>1254.8</ele>
        <time>2022-09-18T14:18:40Z</time>
      </trkpt>
      <trkpt lat="44.60657" lon="6.14185">
        <ele>1254.6</ele>
        <time>2022-09-18T14:18:41Z</time>
      </trkpt>
      <trkpt lat="44.60645" lon="6.14188">
        <ele>1254.4</ele>
        <time>2022-09-18T14:18:42Z</time>
      </trkpt>
      <trkpt lat="44.60633" lon="6.14191">
        <ele>1253.6</ele>
        <time>2022-09-18T14:18:43Z</time>
      </trkpt>
      <trkpt lat="44.60621" lon="6.14195">
        <ele>1253.2</ele>
        <time>2022-09-18T14:18:44Z</time>
      </trkpt>
      <trkpt lat="44.60608" lon="6.14197">
        <ele>1252.8</ele>
        <time>2022-09-18T14:18:45Z</time>
      </trkpt>
      <trkpt lat="44.60595" lon="6.142">
        <ele>1252.4</ele>
        <time>2022-09-18T14:18:46Z</time>
      </trkpt>
      <trkpt lat="44.60582" lon="6.14202">
        <ele>1252</ele>
        <time>2022-09-18T14:18:47Z</time>
      </trkpt>
      <trkpt lat="44.60569" lon="6.14205">
        <ele>1251.2</ele>
        <time>2022-09-18T14:18:48Z</time>
      </trkpt>
      <trkpt lat="44.60555" lon="6.14207">
        <ele>1250.6</ele>
        <time>2022-09-18T14:18:49Z</time>
      </trkpt>
      <trkpt lat="44.60542" lon="6.14208">
        <ele>1249.8</ele>
        <time>2022-09-18T14:18:50Z</time>
      </trkpt>
      <trkpt lat="44.60528" lon="6.14209">
        <ele>1249.2</ele>
        <time>2022-09-18T14:18:51Z</time>
      </trkpt>
      <trkpt lat="44.60513" lon="6.1421">
        <ele>1248.4</ele>
        <time>2022-09-18T14:18:52Z</time>
      </trkpt>
      <trkpt lat="44.60498" lon="6.14211">
        <ele>1247.6</ele>
        <time>2022-09-18T14:18:53Z</time>
      </trkpt>
      <trkpt lat="44.60484" lon="6.14211">
        <ele>1246.8</ele>
        <time>2022-09-18T14:18:54Z</time>
      </trkpt>
      <trkpt lat="44.6047" lon="6.14213">
        <ele>1245.6</ele>
        <time>2022-09-18T14:18:55Z</time>
      </trkpt>
      <trkpt lat="44.60456" lon="6.14216">
        <ele>1245</ele>
        <time>2022-09-18T14:18:56Z</time>
      </trkpt>
      <trkpt lat="44.60443" lon="6.14221">
        <ele>1244</ele>
        <time>2022-09-18T14:18:57Z</time>
      </trkpt>
      <trkpt lat="44.60431" lon="6.14227">
        <ele>1242.6</ele>
        <time>2022-09-18T14:18:58Z</time>
      </trkpt>
      <trkpt lat="44.60419" lon="6.14233">
        <ele>1241.4</ele>
        <time>2022-09-18T14:18:59Z</time>
      </trkpt>
      <trkpt lat="44.60407" lon="6.14239">
        <ele>1240.6</ele>
        <time>2022-09-18T14:19:00Z</time>
      </trkpt>
      <trkpt lat="44.60394" lon="6.14244">
        <ele>1240</ele>
        <time>2022-09-18T14:19:01Z</time>
      </trkpt>
      <trkpt lat="44.60382" lon="6.14249">
        <ele>1239</ele>
        <time>2022-09-18T14:19:02Z</time>
      </trkpt>
      <trkpt lat="44.6037" lon="6.14253">
        <ele>1238</ele>
        <time>2022-09-18T14:19:03Z</time>
      </trkpt>
      <trkpt lat="44.60359" lon="6.14258">
        <ele>1237.4</ele>
        <time>2022-09-18T14:19:04Z</time>
      </trkpt>
      <trkpt lat="44.60349" lon="6.14265">
        <ele>1236.6</ele>
        <time>2022-09-18T14:19:05Z</time>
      </trkpt>
      <trkpt lat="44.6034" lon="6.14274">
        <ele>1235.8</ele>
        <time>2022-09-18T14:19:06Z</time>
      </trkpt>
      <trkpt lat="44.60332" lon="6.14286">
        <ele>1235.2</ele>
        <time>2022-09-18T14:19:07Z</time>
      </trkpt>
      <trkpt lat="44.60322" lon="6.14298">
        <ele>1234.6</ele>
        <time>2022-09-18T14:19:08Z</time>
      </trkpt>
      <trkpt lat="44.60312" lon="6.14309">
        <ele>1233.8</ele>
        <time>2022-09-18T14:19:09Z</time>
      </trkpt>
      <trkpt lat="44.60299" lon="6.14318">
        <ele>1233</ele>
        <time>2022-09-18T14:19:10Z</time>
      </trkpt>
      <trkpt lat="44.60286" lon="6.14324">
        <ele>1232.6</ele>
        <time>2022-09-18T14:19:11Z</time>
      </trkpt>
      <trkpt lat="44.60273" lon="6.14328">
        <ele>1231.8</ele>
        <time>2022-09-18T14:19:12Z</time>
      </trkpt>
      <trkpt lat="44.6026" lon="6.14332">
        <ele>1230.8</ele>
        <time>2022-09-18T14:19:13Z</time>
      </trkpt>
      <trkpt lat="44.6025" lon="6.14339">
        <ele>1230.6</ele>
        <time>2022-09-18T14:19:14Z</time>
      </trkpt>
      <trkpt lat="44.6024" lon="6.14349">
        <ele>1230.4</ele>
        <time>2022-09-18T14:19:15Z</time>
      </trkpt>
      <trkpt lat="44.60231" lon="6.14362">
        <ele>1229.6</ele>
        <time>2022-09-18T14:19:16Z</time>
      </trkpt>
      <trkpt lat="44.60222" lon="6.14375">
        <ele>1229</ele>
        <time>2022-09-18T14:19:17Z</time>
      </trkpt>
      <trkpt lat="44.60213" lon="6.14389">
        <ele>1228.2</ele>
        <time>2022-09-18T14:19:18Z</time>
      </trkpt>
      <trkpt lat="44.60204" lon="6.14403">
        <ele>1227.6</ele>
        <time>2022-09-18T14:19:19Z</time>
      </trkpt>
      <trkpt lat="44.60194" lon="6.14417">
        <ele>1227</ele>
        <time>2022-09-18T14:19:20Z</time>
      </trkpt>
      <trkpt lat="44.60184" lon="6.14431">
        <ele>1226.4</ele>
        <time>2022-09-18T14:19:21Z</time>
      </trkpt>
      <trkpt lat="44.60174" lon="6.14443">
        <ele>1225.4</ele>
        <time>2022-09-18T14:19:22Z</time>
      </trkpt>
      <trkpt lat="44.60162" lon="6.14455">
        <ele>1224.8</ele>
        <time>2022-09-18T14:19:23Z</time>
      </trkpt>
      <trkpt lat="44.60151" lon="6.14465">
        <ele>1224</ele>
        <time>2022-09-18T14:19:24Z</time>
      </trkpt>
      <trkpt lat="44.60139" lon="6.14475">
        <ele>1223</ele>
        <time>2022-09-18T14:19:25Z</time>
      </trkpt>
      <trkpt lat="44.60127" lon="6.14485">
        <ele>1222.2</ele>
        <time>2022-09-18T14:19:26Z</time>
      </trkpt>
      <trkpt lat="44.60115" lon="6.14495">
        <ele>1221.4</ele>
        <time>2022-09-18T14:19:27Z</time>
      </trkpt>
      <trkpt lat="44.60103" lon="6.14506">
        <ele>1221</ele>
        <time>2022-09-18T14:19:28Z</time>
      </trkpt>
      <trkpt lat="44.60092" lon="6.14515">
        <ele>1220</ele>
        <time>2022-09-18T14:19:29Z</time>
      </trkpt>
      <trkpt lat="44.60082" lon="6.14526">
        <ele>1219.2</ele>
        <time>2022-09-18T14:19:30Z</time>
      </trkpt>
      <trkpt lat="44.60074" lon="6.14539">
        <ele>1218.4</ele>
        <time>2022-09-18T14:19:31Z</time>
      </trkpt>
      <trkpt lat="44.60069" lon="6.14555">
        <ele>1217.2</ele>
        <time>2022-09-18T14:19:32Z</time>
      </trkpt>
      <trkpt lat="44.60063" lon="6.14571">
        <ele>1216.6</ele>
        <time>2022-09-18T14:19:33Z</time>
      </trkpt>
      <trkpt lat="44.60054" lon="6.14583">
        <ele>1216.2</ele>
        <time>2022-09-18T14:19:34Z</time>
      </trkpt>
      <trkpt lat="44.60043" lon="6.14591">
        <ele>1215.4</ele>
        <time>2022-09-18T14:19:35Z</time>
      </trkpt>
      <trkpt lat="44.6003" lon="6.14596">
        <ele>1215</ele>
        <time>2022-09-18T14:19:36Z</time>
      </trkpt>
      <trkpt lat="44.60018" lon="6.146">
        <ele>1214.2</ele>
        <time>2022-09-18T14:19:37Z</time>
      </trkpt>
      <trkpt lat="44.60006" lon="6.14603">
        <ele>1213.6</ele>
        <time>2022-09-18T14:19:38Z</time>
      </trkpt>
      <trkpt lat="44.59994" lon="6.14605">
        <ele>1213</ele>
        <time>2022-09-18T14:19:39Z</time>
      </trkpt>
      <trkpt lat="44.59984" lon="6.14601">
        <ele>1212.2</ele>
        <time>2022-09-18T14:19:40Z</time>
      </trkpt>
      <trkpt lat="44.59975" lon="6.14592">
        <ele>1211.8</ele>
        <time>2022-09-18T14:19:41Z</time>
      </trkpt>
      <trkpt lat="44.59968" lon="6.1458">
        <ele>1211.2</ele>
        <time>2022-09-18T14:19:42Z</time>
      </trkpt>
      <trkpt lat="44.5996" lon="6.1457">
        <ele>1210.6</ele>
        <time>2022-09-18T14:19:43Z</time>
      </trkpt>
      <trkpt lat="44.5995" lon="6.14563">
        <ele>1210.2</ele>
        <time>2022-09-18T14:19:44Z</time>
      </trkpt>
      <trkpt lat="44.5994" lon="6.14561">
        <ele>1209.4</ele>
        <time>2022-09-18T14:19:45Z</time>
      </trkpt>
      <trkpt lat="44.5993" lon="6.14563">
        <ele>1209</ele>
        <time>2022-09-18T14:19:46Z</time>
      </trkpt>
      <trkpt lat="44.5992" lon="6.1457">
        <ele>1208.8</ele>
        <time>2022-09-18T14:19:47Z</time>
      </trkpt>
      <trkpt lat="44.5991" lon="6.14578">
        <ele>1208.8</ele>
        <time>2022-09-18T14:19:48Z</time>
      </trkpt>
      <trkpt lat="44.59901" lon="6.14587">
        <ele>1208.6</ele>
        <time>2022-09-18T14:19:49Z</time>
      </trkpt>
      <trkpt lat="44.59892" lon="6.14597">
        <ele>1208.2</ele>
        <time>2022-09-18T14:19:50Z</time>
      </trkpt>
      <trkpt lat="44.59883" lon="6.14606">
        <ele>1207.8</ele>
        <time>2022-09-18T14:19:51Z</time>
      </trkpt>
      <trkpt lat="44.59874" lon="6.14616">
        <ele>1207.2</ele>
        <time>2022-09-18T14:19:52Z</time>
      </trkpt>
      <trkpt lat="44.59865" lon="6.14626">
        <ele>1207</ele>
        <time>2022-09-18T14:19:53Z</time>
      </trkpt>
      <trkpt lat="44.59857" lon="6.14637">
        <ele>1207</ele>
        <time>2022-09-18T14:19:54Z</time>
      </trkpt>
      <trkpt lat="44.59849" lon="6.14647">
        <ele>1206.6</ele>
        <time>2022-09-18T14:19:55Z</time>
      </trkpt>
      <trkpt lat="44.5984" lon="6.14659">
        <ele>1206.6</ele>
        <time>2022-09-18T14:19:56Z</time>
      </trkpt>
      <trkpt lat="44.59832" lon="6.1467">
        <ele>1206.8</ele>
        <time>2022-09-18T14:19:57Z</time>
      </trkpt>
      <trkpt lat="44.59824" lon="6.14681">
        <ele>1206.8</ele>
        <time>2022-09-18T14:19:58Z</time>
      </trkpt>
      <trkpt lat="44.59816" lon="6.14692">
        <ele>1206.6</ele>
        <time>2022-09-18T14:19:59Z</time>
      </trkpt>
      <trkpt lat="44.59808" lon="6.14704">
        <ele>1206.6</ele>
        <time>2022-09-18T14:20:00Z</time>
      </trkpt>
      <trkpt lat="44.59801" lon="6.14715">
        <ele>1206</ele>
        <time>2022-09-18T14:20:01Z</time>
      </trkpt>
      <trkpt lat="44.59793" lon="6.14726">
        <ele>1205.4</ele>
        <time>2022-09-18T14:20:02Z</time>
      </trkpt>
      <trkpt lat="44.59784" lon="6.14738">
        <ele>1205</ele>
        <time>2022-09-18T14:20:03Z</time>
      </trkpt>
      <trkpt lat="44.59777" lon="6.14749">
        <ele>1204.8</ele>
        <time>2022-09-18T14:20:04Z</time>
      </trkpt>
      <trkpt lat="44.59768" lon="6.1476">
        <ele>1204.6</ele>
        <time>2022-09-18T14:20:05Z</time>
      </trkpt>
      <trkpt lat="44.59761" lon="6.14771">
        <ele>1204.4</ele>
        <time>2022-09-18T14:20:06Z</time>
      </trkpt>
      <trkpt lat="44.59753" lon="6.14782">
        <ele>1204</ele>
        <time>2022-09-18T14:20:07Z</time>
      </trkpt>
      <trkpt lat="44.59745" lon="6.14793">
        <ele>1203.6</ele>
        <time>2022-09-18T14:20:08Z</time>
      </trkpt>
      <trkpt lat="44.59738" lon="6.14805">
        <ele>1203.4</ele>
        <time>2022-09-18T14:20:09Z</time>
      </trkpt>
      <trkpt lat="44.5973" lon="6.14818">
        <ele>1203</ele>
        <time>2022-09-18T14:20:10Z</time>
      </trkpt>
      <trkpt lat="44.59723" lon="6.14831">
        <ele>1202.8</ele>
        <time>2022-09-18T14:20:11Z</time>
      </trkpt>
      <trkpt lat="44.59716" lon="6.14845">
        <ele>1202.6</ele>
        <time>2022-09-18T14:20:12Z</time>
      </trkpt>
      <trkpt lat="44.59709" lon="6.14859">
        <ele>1202.4</ele>
        <time>2022-09-18T14:20:13Z</time>
      </trkpt>
      <trkpt lat="44.59702" lon="6.14873">
        <ele>1202.2</ele>
        <time>2022-09-18T14:20:14Z</time>
      </trkpt>
      <trkpt lat="44.59695" lon="6.14888">
        <ele>1202</ele>
        <time>2022-09-18T14:20:15Z</time>
      </trkpt>
      <trkpt lat="44.5969" lon="6.14903">
        <ele>1201.6</ele>
        <time>2022-09-18T14:20:16Z</time>
      </trkpt>
      <trkpt lat="44.59684" lon="6.14918">
        <ele>1201</ele>
        <time>2022-09-18T14:20:17Z</time>
      </trkpt>
      <trkpt lat="44.5968" lon="6.14934">
        <ele>1200.6</ele>
        <time>2022-09-18T14:20:18Z</time>
      </trkpt>
      <trkpt lat="44.59674" lon="6.1495">
        <ele>1200.4</ele>
        <time>2022-09-18T14:20:19Z</time>
      </trkpt>
      <trkpt lat="44.59668" lon="6.14965">
        <ele>1200</ele>
        <time>2022-09-18T14:20:20Z</time>
      </trkpt>
      <trkpt lat="44.5966" lon="6.14979">
        <ele>1200</ele>
        <time>2022-09-18T14:20:21Z</time>
      </trkpt>
      <trkpt lat="44.59651" lon="6.14991">
        <ele>1200</ele>
        <time>2022-09-18T14:20:22Z</time>
      </trkpt>
      <trkpt lat="44.59642" lon="6.15003">
        <ele>1199.2</ele>
        <time>2022-09-18T14:20:23Z</time>
      </trkpt>
      <trkpt lat="44.59631" lon="6.15014">
        <ele>1199</ele>
        <time>2022-09-18T14:20:24Z</time>
      </trkpt>
      <trkpt lat="44.59621" lon="6.15026">
        <ele>1198.2</ele>
        <time>2022-09-18T14:20:25Z</time>
      </trkpt>
      <trkpt lat="44.59611" lon="6.15038">
        <ele>1197.6</ele>
        <time>2022-09-18T14:20:26Z</time>
      </trkpt>
      <trkpt lat="44.59601" lon="6.15049">
        <ele>1197.4</ele>
        <time>2022-09-18T14:20:27Z</time>
      </trkpt>
      <trkpt lat="44.5959" lon="6.1506">
        <ele>1196.6</ele>
        <time>2022-09-18T14:20:28Z</time>
      </trkpt>
      <trkpt lat="44.59579" lon="6.15071">
        <ele>1195.6</ele>
        <time>2022-09-18T14:20:29Z</time>
      </trkpt>
      <trkpt lat="44.59567" lon="6.15081">
        <ele>1195.2</ele>
        <time>2022-09-18T14:20:30Z</time>
      </trkpt>
      <trkpt lat="44.59555" lon="6.15091">
        <ele>1194.8</ele>
        <time>2022-09-18T14:20:31Z</time>
      </trkpt>
      <trkpt lat="44.59542" lon="6.15101">
        <ele>1194.6</ele>
        <time>2022-09-18T14:20:32Z</time>
      </trkpt>
      <trkpt lat="44.5953" lon="6.15111">
        <ele>1193.6</ele>
        <time>2022-09-18T14:20:33Z</time>
      </trkpt>
      <trkpt lat="44.59516" lon="6.1512">
        <ele>1192.4</ele>
        <time>2022-09-18T14:20:34Z</time>
      </trkpt>
      <trkpt lat="44.59503" lon="6.15128">
        <ele>1191</ele>
        <time>2022-09-18T14:20:35Z</time>
      </trkpt>
      <trkpt lat="44.59489" lon="6.15136">
        <ele>1189.6</ele>
        <time>2022-09-18T14:20:36Z</time>
      </trkpt>
      <trkpt lat="44.59476" lon="6.15143">
        <ele>1188.6</ele>
        <time>2022-09-18T14:20:37Z</time>
      </trkpt>
      <trkpt lat="44.59463" lon="6.1515">
        <ele>1187.4</ele>
        <time>2022-09-18T14:20:38Z</time>
      </trkpt>
      <trkpt lat="44.59451" lon="6.15156">
        <ele>1186</ele>
        <time>2022-09-18T14:20:39Z</time>
      </trkpt>
      <trkpt lat="44.59438" lon="6.1516">
        <ele>1184.4</ele>
        <time>2022-09-18T14:20:40Z</time>
      </trkpt>
      <trkpt lat="44.59427" lon="6.15161">
        <ele>1184</ele>
        <time>2022-09-18T14:20:41Z</time>
      </trkpt>
      <trkpt lat="44.59417" lon="6.15163">
        <ele>1183.6</ele>
        <time>2022-09-18T14:20:42Z</time>
      </trkpt>
      <trkpt lat="44.59408" lon="6.15167">
        <ele>1182</ele>
        <time>2022-09-18T14:20:43Z</time>
      </trkpt>
      <trkpt lat="44.59401" lon="6.15176">
        <ele>1181.2</ele>
        <time>2022-09-18T14:20:44Z</time>
      </trkpt>
      <trkpt lat="44.59393" lon="6.15185">
        <ele>1179.8</ele>
        <time>2022-09-18T14:20:45Z</time>
      </trkpt>
      <trkpt lat="44.59384" lon="6.15196">
        <ele>1179.2</ele>
        <time>2022-09-18T14:20:46Z</time>
      </trkpt>
      <trkpt lat="44.59374" lon="6.15206">
        <ele>1179</ele>
        <time>2022-09-18T14:20:47Z</time>
      </trkpt>
      <trkpt lat="44.59364" lon="6.15214">
        <ele>1178.2</ele>
        <time>2022-09-18T14:20:48Z</time>
      </trkpt>
      <trkpt lat="44.59353" lon="6.15221">
        <ele>1177.4</ele>
        <time>2022-09-18T14:20:49Z</time>
      </trkpt>
      <trkpt lat="44.59342" lon="6.1523">
        <ele>1177</ele>
        <time>2022-09-18T14:20:50Z</time>
      </trkpt>
      <trkpt lat="44.59331" lon="6.1524">
        <ele>1176.4</ele>
        <time>2022-09-18T14:20:51Z</time>
      </trkpt>
      <trkpt lat="44.59321" lon="6.15252">
        <ele>1175.6</ele>
        <time>2022-09-18T14:20:52Z</time>
      </trkpt>
      <trkpt lat="44.5931" lon="6.15264">
        <ele>1174.4</ele>
        <time>2022-09-18T14:20:53Z</time>
      </trkpt>
      <trkpt lat="44.59299" lon="6.15276">
        <ele>1173.6</ele>
        <time>2022-09-18T14:20:54Z</time>
      </trkpt>
      <trkpt lat="44.59287" lon="6.15288">
        <ele>1172.4</ele>
        <time>2022-09-18T14:20:55Z</time>
      </trkpt>
      <trkpt lat="44.59274" lon="6.15299">
        <ele>1171.2</ele>
        <time>2022-09-18T14:20:56Z</time>
      </trkpt>
      <trkpt lat="44.59262" lon="6.15309">
        <ele>1170</ele>
        <time>2022-09-18T14:20:57Z</time>
      </trkpt>
      <trkpt lat="44.59248" lon="6.15317">
        <ele>1169</ele>
        <time>2022-09-18T14:20:58Z</time>
      </trkpt>
      <trkpt lat="44.59234" lon="6.15322">
        <ele>1167.8</ele>
        <time>2022-09-18T14:20:59Z</time>
      </trkpt>
      <trkpt lat="44.59219" lon="6.15325">
        <ele>1166.2</ele>
        <time>2022-09-18T14:21:00Z</time>
      </trkpt>
      <trkpt lat="44.59205" lon="6.15327">
        <ele>1165.2</ele>
        <time>2022-09-18T14:21:01Z</time>
      </trkpt>
      <trkpt lat="44.59192" lon="6.1533">
        <ele>1164</ele>
        <time>2022-09-18T14:21:02Z</time>
      </trkpt>
      <trkpt lat="44.59181" lon="6.15336">
        <ele>1162.8</ele>
        <time>2022-09-18T14:21:03Z</time>
      </trkpt>
      <trkpt lat="44.59172" lon="6.15349">
        <ele>1161.4</ele>
        <time>2022-09-18T14:21:04Z</time>
      </trkpt>
      <trkpt lat="44.59163" lon="6.15365">
        <ele>1160.4</ele>
        <time>2022-09-18T14:21:05Z</time>
      </trkpt>
      <trkpt lat="44.59152" lon="6.15381">
        <ele>1159.2</ele>
        <time>2022-09-18T14:21:06Z</time>
      </trkpt>
      <trkpt lat="44.59139" lon="6.15394">
        <ele>1157.2</ele>
        <time>2022-09-18T14:21:07Z</time>
      </trkpt>
      <trkpt lat="44.59125" lon="6.15405">
        <ele>1155.2</ele>
        <time>2022-09-18T14:21:08Z</time>
      </trkpt>
      <trkpt lat="44.59111" lon="6.15415">
        <ele>1153.8</ele>
        <time>2022-09-18T14:21:09Z</time>
      </trkpt>
      <trkpt lat="44.59098" lon="6.15426">
        <ele>1152.8</ele>
        <time>2022-09-18T14:21:10Z</time>
      </trkpt>
      <trkpt lat="44.59085" lon="6.15438">
        <ele>1151.4</ele>
        <time>2022-09-18T14:21:11Z</time>
      </trkpt>
      <trkpt lat="44.59072" lon="6.1545">
        <ele>1150.2</ele>
        <time>2022-09-18T14:21:12Z</time>
      </trkpt>
      <trkpt lat="44.59058" lon="6.15461">
        <ele>1149.4</ele>
        <time>2022-09-18T14:21:13Z</time>
      </trkpt>
      <trkpt lat="44.59044" lon="6.15472">
        <ele>1148.2</ele>
        <time>2022-09-18T14:21:14Z</time>
      </trkpt>
      <trkpt lat="44.59032" lon="6.15483">
        <ele>1146.8</ele>
        <time>2022-09-18T14:21:15Z</time>
      </trkpt>
      <trkpt lat="44.59021" lon="6.15495">
        <ele>1145.6</ele>
        <time>2022-09-18T14:21:16Z</time>
      </trkpt>
      <trkpt lat="44.59011" lon="6.15507">
        <ele>1144.6</ele>
        <time>2022-09-18T14:21:17Z</time>
      </trkpt>
      <trkpt lat="44.59003" lon="6.1552">
        <ele>1143.6</ele>
        <time>2022-09-18T14:21:18Z</time>
      </trkpt>
      <trkpt lat="44.58998" lon="6.15535">
        <ele>1142.4</ele>
        <time>2022-09-18T14:21:19Z</time>
      </trkpt>
      <trkpt lat="44.58995" lon="6.1555">
        <ele>1141.6</ele>
        <time>2022-09-18T14:21:20Z</time>
      </trkpt>
      <trkpt lat="44.58993" lon="6.15564">
        <ele>1141</ele>
        <time>2022-09-18T14:21:21Z</time>
      </trkpt>
      <trkpt lat="44.5899" lon="6.15576">
        <ele>1140</ele>
        <time>2022-09-18T14:21:22Z</time>
      </trkpt>
      <trkpt lat="44.58984" lon="6.15585">
        <ele>1139.2</ele>
        <time>2022-09-18T14:21:23Z</time>
      </trkpt>
      <trkpt lat="44.58977" lon="6.15589">
        <ele>1138.4</ele>
        <time>2022-09-18T14:21:24Z</time>
      </trkpt>
      <trkpt lat="44.58968" lon="6.15591">
        <ele>1137.8</ele>
        <time>2022-09-18T14:21:25Z</time>
      </trkpt>
      <trkpt lat="44.58959" lon="6.15594">
        <ele>1137</ele>
        <time>2022-09-18T14:21:26Z</time>
      </trkpt>
      <trkpt lat="44.58951" lon="6.15601">
        <ele>1136.6</ele>
        <time>2022-09-18T14:21:27Z</time>
      </trkpt>
      <trkpt lat="44.58945" lon="6.15611">
        <ele>1136.2</ele>
        <time>2022-09-18T14:21:28Z</time>
      </trkpt>
      <trkpt lat="44.58938" lon="6.15625">
        <ele>1135.8</ele>
        <time>2022-09-18T14:21:29Z</time>
      </trkpt>
      <trkpt lat="44.58932" lon="6.15641">
        <ele>1135.2</ele>
        <time>2022-09-18T14:21:30Z</time>
      </trkpt>
      <trkpt lat="44.58928" lon="6.15657">
        <ele>1134.4</ele>
        <time>2022-09-18T14:21:31Z</time>
      </trkpt>
      <trkpt lat="44.58923" lon="6.15674">
        <ele>1133.6</ele>
        <time>2022-09-18T14:21:32Z</time>
      </trkpt>
      <trkpt lat="44.58918" lon="6.15689">
        <ele>1132.8</ele>
        <time>2022-09-18T14:21:33Z</time>
      </trkpt>
      <trkpt lat="44.58909" lon="6.15698">
        <ele>1131.6</ele>
        <time>2022-09-18T14:21:34Z</time>
      </trkpt>
      <trkpt lat="44.58899" lon="6.15704">
        <ele>1130.6</ele>
        <time>2022-09-18T14:21:35Z</time>
      </trkpt>
      <trkpt lat="44.58887" lon="6.15709">
        <ele>1129.8</ele>
        <time>2022-09-18T14:21:36Z</time>
      </trkpt>
      <trkpt lat="44.58876" lon="6.15714">
        <ele>1129</ele>
        <time>2022-09-18T14:21:37Z</time>
      </trkpt>
      <trkpt lat="44.58866" lon="6.1572">
        <ele>1128.2</ele>
        <time>2022-09-18T14:21:38Z</time>
      </trkpt>
      <trkpt lat="44.58858" lon="6.15728">
        <ele>1127.2</ele>
        <time>2022-09-18T14:21:39Z</time>
      </trkpt>
      <trkpt lat="44.58853" lon="6.15738">
        <ele>1126.4</ele>
        <time>2022-09-18T14:21:40Z</time>
      </trkpt>
      <trkpt lat="44.58851" lon="6.15752">
        <ele>1124.2</ele>
        <time>2022-09-18T14:21:41Z</time>
      </trkpt>
      <trkpt lat="44.58851" lon="6.15767">
        <ele>1123.2</ele>
        <time>2022-09-18T14:21:42Z</time>
      </trkpt>
      <trkpt lat="44.5885" lon="6.15781">
        <ele>1122.6</ele>
        <time>2022-09-18T14:21:43Z</time>
      </trkpt>
      <trkpt lat="44.58846" lon="6.1579">
        <ele>1121.8</ele>
        <time>2022-09-18T14:21:44Z</time>
      </trkpt>
      <trkpt lat="44.58837" lon="6.15795">
        <ele>1121</ele>
        <time>2022-09-18T14:21:45Z</time>
      </trkpt>
      <trkpt lat="44.58828" lon="6.15798">
        <ele>1120.2</ele>
        <time>2022-09-18T14:21:46Z</time>
      </trkpt>
      <trkpt lat="44.58818" lon="6.15797">
        <ele>1119.6</ele>
        <time>2022-09-18T14:21:47Z</time>
      </trkpt>
      <trkpt lat="44.58807" lon="6.15796">
        <ele>1119</ele>
        <time>2022-09-18T14:21:48Z</time>
      </trkpt>
      <trkpt lat="44.58797" lon="6.15797">
        <ele>1118.2</ele>
        <time>2022-09-18T14:21:49Z</time>
      </trkpt>
      <trkpt lat="44.58788" lon="6.15802">
        <ele>1117.2</ele>
        <time>2022-09-18T14:21:50Z</time>
      </trkpt>
      <trkpt lat="44.58782" lon="6.1581">
        <ele>1116.4</ele>
        <time>2022-09-18T14:21:51Z</time>
      </trkpt>
      <trkpt lat="44.58776" lon="6.15823">
        <ele>1115.4</ele>
        <time>2022-09-18T14:21:52Z</time>
      </trkpt>
      <trkpt lat="44.58771" lon="6.1584">
        <ele>1114.6</ele>
        <time>2022-09-18T14:21:53Z</time>
      </trkpt>
      <trkpt lat="44.58765" lon="6.15857">
        <ele>1113.2</ele>
        <time>2022-09-18T14:21:54Z</time>
      </trkpt>
      <trkpt lat="44.58757" lon="6.15873">
        <ele>1112.6</ele>
        <time>2022-09-18T14:21:55Z</time>
      </trkpt>
      <trkpt lat="44.58749" lon="6.15886">
        <ele>1112</ele>
        <time>2022-09-18T14:21:56Z</time>
      </trkpt>
      <trkpt lat="44.58741" lon="6.15898">
        <ele>1110.4</ele>
        <time>2022-09-18T14:21:57Z</time>
      </trkpt>
      <trkpt lat="44.58737" lon="6.15911">
        <ele>1109.4</ele>
        <time>2022-09-18T14:21:58Z</time>
      </trkpt>
      <trkpt lat="44.58736" lon="6.15926">
        <ele>1108.8</ele>
        <time>2022-09-18T14:21:59Z</time>
      </trkpt>
      <trkpt lat="44.58737" lon="6.1594">
        <ele>1107.8</ele>
        <time>2022-09-18T14:22:00Z</time>
      </trkpt>
      <trkpt lat="44.58738" lon="6.15955">
        <ele>1106.8</ele>
        <time>2022-09-18T14:22:01Z</time>
      </trkpt>
      <trkpt lat="44.58737" lon="6.15967">
        <ele>1105.6</ele>
        <time>2022-09-18T14:22:02Z</time>
      </trkpt>
      <trkpt lat="44.58733" lon="6.15975">
        <ele>1104.6</ele>
        <time>2022-09-18T14:22:03Z</time>
      </trkpt>
      <trkpt lat="44.58726" lon="6.15976">
        <ele>1103.8</ele>
        <time>2022-09-18T14:22:04Z</time>
      </trkpt>
      <trkpt lat="44.58718" lon="6.15975">
        <ele>1103</ele>
        <time>2022-09-18T14:22:05Z</time>
      </trkpt>
      <trkpt lat="44.58711" lon="6.15975">
        <ele>1102.4</ele>
        <time>2022-09-18T14:22:06Z</time>
      </trkpt>
      <trkpt lat="44.58703" lon="6.15978">
        <ele>1101.8</ele>
        <time>2022-09-18T14:22:07Z</time>
      </trkpt>
      <trkpt lat="44.58696" lon="6.15989">
        <ele>1100.8</ele>
        <time>2022-09-18T14:22:08Z</time>
      </trkpt>
      <trkpt lat="44.5869" lon="6.16002">
        <ele>1100</ele>
        <time>2022-09-18T14:22:09Z</time>
      </trkpt>
      <trkpt lat="44.58685" lon="6.16017">
        <ele>1099.2</ele>
        <time>2022-09-18T14:22:10Z</time>
      </trkpt>
      <trkpt lat="44.58679" lon="6.16033">
        <ele>1098</ele>
        <time>2022-09-18T14:22:11Z</time>
      </trkpt>
      <trkpt lat="44.58673" lon="6.16048">
        <ele>1097</ele>
        <time>2022-09-18T14:22:12Z</time>
      </trkpt>
      <trkpt lat="44.58667" lon="6.16064">
        <ele>1096.4</ele>
        <time>2022-09-18T14:22:13Z</time>
      </trkpt>
      <trkpt lat="44.5866" lon="6.1608">
        <ele>1095.4</ele>
        <time>2022-09-18T14:22:14Z</time>
      </trkpt>
      <trkpt lat="44.58652" lon="6.16094">
        <ele>1095</ele>
        <time>2022-09-18T14:22:15Z</time>
      </trkpt>
      <trkpt lat="44.58644" lon="6.16108">
        <ele>1094</ele>
        <time>2022-09-18T14:22:16Z</time>
      </trkpt>
      <trkpt lat="44.58636" lon="6.1612">
        <ele>1093.4</ele>
        <time>2022-09-18T14:22:17Z</time>
      </trkpt>
      <trkpt lat="44.58631" lon="6.16132">
        <ele>1092.6</ele>
        <time>2022-09-18T14:22:18Z</time>
      </trkpt>
      <trkpt lat="44.5863" lon="6.16146">
        <ele>1091.4</ele>
        <time>2022-09-18T14:22:19Z</time>
      </trkpt>
      <trkpt lat="44.58633" lon="6.1616">
        <ele>1090</ele>
        <time>2022-09-18T14:22:20Z</time>
      </trkpt>
      <trkpt lat="44.58638" lon="6.16172">
        <ele>1089</ele>
        <time>2022-09-18T14:22:21Z</time>
      </trkpt>
      <trkpt lat="44.58644" lon="6.16182">
        <ele>1088.2</ele>
        <time>2022-09-18T14:22:22Z</time>
      </trkpt>
      <trkpt lat="44.58653" lon="6.1619">
        <ele>1087.4</ele>
        <time>2022-09-18T14:22:23Z</time>
      </trkpt>
      <trkpt lat="44.58662" lon="6.16197">
        <ele>1086.8</ele>
        <time>2022-09-18T14:22:24Z</time>
      </trkpt>
      <trkpt lat="44.58672" lon="6.16203">
        <ele>1086.2</ele>
        <time>2022-09-18T14:22:25Z</time>
      </trkpt>
      <trkpt lat="44.58678" lon="6.16212">
        <ele>1085.6</ele>
        <time>2022-09-18T14:22:26Z</time>
      </trkpt>
      <trkpt lat="44.58682" lon="6.16222">
        <ele>1084.2</ele>
        <time>2022-09-18T14:22:27Z</time>
      </trkpt>
      <trkpt lat="44.58674" lon="6.16239">
        <ele>1083</ele>
        <time>2022-09-18T14:22:29Z</time>
      </trkpt>
      <trkpt lat="44.58664" lon="6.1624">
        <ele>1082.2</ele>
        <time>2022-09-18T14:22:30Z</time>
      </trkpt>
      <trkpt lat="44.58655" lon="6.1624">
        <ele>1081.6</ele>
        <time>2022-09-18T14:22:31Z</time>
      </trkpt>
      <trkpt lat="44.58646" lon="6.16242">
        <ele>1080.8</ele>
        <time>2022-09-18T14:22:32Z</time>
      </trkpt>
      <trkpt lat="44.58638" lon="6.16247">
        <ele>1080</ele>
        <time>2022-09-18T14:22:33Z</time>
      </trkpt>
      <trkpt lat="44.58629" lon="6.16253">
        <ele>1079.6</ele>
        <time>2022-09-18T14:22:34Z</time>
      </trkpt>
      <trkpt lat="44.5862" lon="6.16257">
        <ele>1079</ele>
        <time>2022-09-18T14:22:35Z</time>
      </trkpt>
      <trkpt lat="44.5861" lon="6.16258">
        <ele>1078.4</ele>
        <time>2022-09-18T14:22:36Z</time>
      </trkpt>
      <trkpt lat="44.58599" lon="6.16257">
        <ele>1077.8</ele>
        <time>2022-09-18T14:22:37Z</time>
      </trkpt>
      <trkpt lat="44.58588" lon="6.16255">
        <ele>1077</ele>
        <time>2022-09-18T14:22:38Z</time>
      </trkpt>
      <trkpt lat="44.58576" lon="6.16253">
        <ele>1076.2</ele>
        <time>2022-09-18T14:22:39Z</time>
      </trkpt>
      <trkpt lat="44.58565" lon="6.16254">
        <ele>1075.4</ele>
        <time>2022-09-18T14:22:40Z</time>
      </trkpt>
      <trkpt lat="44.58554" lon="6.16258">
        <ele>1074.4</ele>
        <time>2022-09-18T14:22:41Z</time>
      </trkpt>
      <trkpt lat="44.58544" lon="6.16265">
        <ele>1073.2</ele>
        <time>2022-09-18T14:22:42Z</time>
      </trkpt>
      <trkpt lat="44.58536" lon="6.16274">
        <ele>1072</ele>
        <time>2022-09-18T14:22:43Z</time>
      </trkpt>
      <trkpt lat="44.58531" lon="6.16285">
        <ele>1071.2</ele>
        <time>2022-09-18T14:22:44Z</time>
      </trkpt>
      <trkpt lat="44.58529" lon="6.16298">
        <ele>1070.4</ele>
        <time>2022-09-18T14:22:45Z</time>
      </trkpt>
      <trkpt lat="44.58539" lon="6.16318">
        <ele>1068.4</ele>
        <time>2022-09-18T14:22:47Z</time>
      </trkpt>
      <trkpt lat="44.58546" lon="6.16325">
        <ele>1067.6</ele>
        <time>2022-09-18T14:22:48Z</time>
      </trkpt>
      <trkpt lat="44.5856" lon="6.16339">
        <ele>1066</ele>
        <time>2022-09-18T14:22:50Z</time>
      </trkpt>
      <trkpt lat="44.58555" lon="6.1636">
        <ele>1064.8</ele>
        <time>2022-09-18T14:22:52Z</time>
      </trkpt>
      <trkpt lat="44.5854" lon="6.16371">
        <ele>1063.2</ele>
        <time>2022-09-18T14:22:54Z</time>
      </trkpt>
      <trkpt lat="44.58531" lon="6.16373">
        <ele>1062</ele>
        <time>2022-09-18T14:22:55Z</time>
      </trkpt>
      <trkpt lat="44.58521" lon="6.16376">
        <ele>1061.2</ele>
        <time>2022-09-18T14:22:56Z</time>
      </trkpt>
      <trkpt lat="44.58511" lon="6.16377">
        <ele>1060.4</ele>
        <time>2022-09-18T14:22:57Z</time>
      </trkpt>
      <trkpt lat="44.58501" lon="6.16378">
        <ele>1059.8</ele>
        <time>2022-09-18T14:22:58Z</time>
      </trkpt>
      <trkpt lat="44.58485" lon="6.1638">
        <ele>1058.6</ele>
        <time>2022-09-18T14:23:00Z</time>
      </trkpt>
      <trkpt lat="44.58477" lon="6.16389">
        <ele>1056.4</ele>
        <time>2022-09-18T14:23:02Z</time>
      </trkpt>
      <trkpt lat="44.58475" lon="6.16395">
        <ele>1055.4</ele>
        <time>2022-09-18T14:23:03Z</time>
      </trkpt>
      <trkpt lat="44.58472" lon="6.16405">
        <ele>1054.6</ele>
        <time>2022-09-18T14:23:04Z</time>
      </trkpt>
      <trkpt lat="44.58468" lon="6.16416">
        <ele>1054.2</ele>
        <time>2022-09-18T14:23:05Z</time>
      </trkpt>
      <trkpt lat="44.58465" lon="6.16426">
        <ele>1053.6</ele>
        <time>2022-09-18T14:23:06Z</time>
      </trkpt>
      <trkpt lat="44.58462" lon="6.16436">
        <ele>1053</ele>
        <time>2022-09-18T14:23:07Z</time>
      </trkpt>
      <trkpt lat="44.58459" lon="6.16446">
        <ele>1052.4</ele>
        <time>2022-09-18T14:23:08Z</time>
      </trkpt>
      <trkpt lat="44.58456" lon="6.16457">
        <ele>1051.8</ele>
        <time>2022-09-18T14:23:09Z</time>
      </trkpt>
      <trkpt lat="44.58452" lon="6.16468">
        <ele>1051.4</ele>
        <time>2022-09-18T14:23:10Z</time>
      </trkpt>
      <trkpt lat="44.58449" lon="6.16479">
        <ele>1051</ele>
        <time>2022-09-18T14:23:11Z</time>
      </trkpt>
      <trkpt lat="44.58446" lon="6.16491">
        <ele>1050.2</ele>
        <time>2022-09-18T14:23:12Z</time>
      </trkpt>
      <trkpt lat="44.58443" lon="6.16503">
        <ele>1049.4</ele>
        <time>2022-09-18T14:23:13Z</time>
      </trkpt>
      <trkpt lat="44.58443" lon="6.16517">
        <ele>1048.8</ele>
        <time>2022-09-18T14:23:14Z</time>
      </trkpt>
      <trkpt lat="44.58445" lon="6.16531">
        <ele>1048.4</ele>
        <time>2022-09-18T14:23:15Z</time>
      </trkpt>
      <trkpt lat="44.58447" lon="6.16543">
        <ele>1047.6</ele>
        <time>2022-09-18T14:23:16Z</time>
      </trkpt>
      <trkpt lat="44.58449" lon="6.16555">
        <ele>1046.8</ele>
        <time>2022-09-18T14:23:17Z</time>
      </trkpt>
      <trkpt lat="44.58447" lon="6.16562">
        <ele>1046.2</ele>
        <time>2022-09-18T14:23:18Z</time>
      </trkpt>
      <trkpt lat="44.58442" lon="6.16565">
        <ele>1045.4</ele>
        <time>2022-09-18T14:23:19Z</time>
      </trkpt>
      <trkpt lat="44.58436" lon="6.16565">
        <ele>1045</ele>
        <time>2022-09-18T14:23:20Z</time>
      </trkpt>
      <trkpt lat="44.58429" lon="6.16566">
        <ele>1043.8</ele>
        <time>2022-09-18T14:23:21Z</time>
      </trkpt>
      <trkpt lat="44.58423" lon="6.16569">
        <ele>1043.6</ele>
        <time>2022-09-18T14:23:22Z</time>
      </trkpt>
      <trkpt lat="44.58418" lon="6.16575">
        <ele>1042.6</ele>
        <time>2022-09-18T14:23:23Z</time>
      </trkpt>
      <trkpt lat="44.58413" lon="6.16583">
        <ele>1041.8</ele>
        <time>2022-09-18T14:23:24Z</time>
      </trkpt>
      <trkpt lat="44.58408" lon="6.16595">
        <ele>1041</ele>
        <time>2022-09-18T14:23:25Z</time>
      </trkpt>
      <trkpt lat="44.58403" lon="6.16609">
        <ele>1040</ele>
        <time>2022-09-18T14:23:26Z</time>
      </trkpt>
      <trkpt lat="44.58398" lon="6.16624">
        <ele>1039.4</ele>
        <time>2022-09-18T14:23:27Z</time>
      </trkpt>
      <trkpt lat="44.58393" lon="6.16639">
        <ele>1038.8</ele>
        <time>2022-09-18T14:23:28Z</time>
      </trkpt>
      <trkpt lat="44.58389" lon="6.16654">
        <ele>1038</ele>
        <time>2022-09-18T14:23:29Z</time>
      </trkpt>
      <trkpt lat="44.58384" lon="6.16669">
        <ele>1037.4</ele>
        <time>2022-09-18T14:23:30Z</time>
      </trkpt>
      <trkpt lat="44.58379" lon="6.16685">
        <ele>1036.8</ele>
        <time>2022-09-18T14:23:31Z</time>
      </trkpt>
      <trkpt lat="44.58373" lon="6.167">
        <ele>1036.2</ele>
        <time>2022-09-18T14:23:32Z</time>
      </trkpt>
      <trkpt lat="44.58368" lon="6.16715">
        <ele>1035.4</ele>
        <time>2022-09-18T14:23:33Z</time>
      </trkpt>
      <trkpt lat="44.58363" lon="6.16729">
        <ele>1034.8</ele>
        <time>2022-09-18T14:23:34Z</time>
      </trkpt>
      <trkpt lat="44.58359" lon="6.16744">
        <ele>1033.8</ele>
        <time>2022-09-18T14:23:35Z</time>
      </trkpt>
      <trkpt lat="44.58356" lon="6.16759">
        <ele>1032.8</ele>
        <time>2022-09-18T14:23:36Z</time>
      </trkpt>
      <trkpt lat="44.58356" lon="6.16773">
        <ele>1032.2</ele>
        <time>2022-09-18T14:23:37Z</time>
      </trkpt>
      <trkpt lat="44.58356" lon="6.16787">
        <ele>1031</ele>
        <time>2022-09-18T14:23:38Z</time>
      </trkpt>
      <trkpt lat="44.58354" lon="6.168">
        <ele>1030</ele>
        <time>2022-09-18T14:23:39Z</time>
      </trkpt>
      <trkpt lat="44.5835" lon="6.16813">
        <ele>1028.8</ele>
        <time>2022-09-18T14:23:40Z</time>
      </trkpt>
      <trkpt lat="44.58343" lon="6.16824">
        <ele>1027.6</ele>
        <time>2022-09-18T14:23:41Z</time>
      </trkpt>
      <trkpt lat="44.58334" lon="6.16834">
        <ele>1027.2</ele>
        <time>2022-09-18T14:23:42Z</time>
      </trkpt>
      <trkpt lat="44.58325" lon="6.16844">
        <ele>1026.2</ele>
        <time>2022-09-18T14:23:43Z</time>
      </trkpt>
      <trkpt lat="44.58315" lon="6.16851">
        <ele>1025</ele>
        <time>2022-09-18T14:23:44Z</time>
      </trkpt>
      <trkpt lat="44.58304" lon="6.16856">
        <ele>1024.6</ele>
        <time>2022-09-18T14:23:45Z</time>
      </trkpt>
      <trkpt lat="44.58293" lon="6.16861">
        <ele>1023.6</ele>
        <time>2022-09-18T14:23:46Z</time>
      </trkpt>
      <trkpt lat="44.58285" lon="6.16869">
        <ele>1022.6</ele>
        <time>2022-09-18T14:23:47Z</time>
      </trkpt>
      <trkpt lat="44.58279" lon="6.16881">
        <ele>1021.8</ele>
        <time>2022-09-18T14:23:48Z</time>
      </trkpt>
      <trkpt lat="44.58273" lon="6.16895">
        <ele>1020.6</ele>
        <time>2022-09-18T14:23:49Z</time>
      </trkpt>
      <trkpt lat="44.58268" lon="6.16909">
        <ele>1019.4</ele>
        <time>2022-09-18T14:23:50Z</time>
      </trkpt>
      <trkpt lat="44.58264" lon="6.16925">
        <ele>1018.4</ele>
        <time>2022-09-18T14:23:51Z</time>
      </trkpt>
      <trkpt lat="44.5826" lon="6.16941">
        <ele>1017.2</ele>
        <time>2022-09-18T14:23:52Z</time>
      </trkpt>
      <trkpt lat="44.58256" lon="6.16957">
        <ele>1016</ele>
        <time>2022-09-18T14:23:53Z</time>
      </trkpt>
      <trkpt lat="44.58252" lon="6.16973">
        <ele>1015.4</ele>
        <time>2022-09-18T14:23:54Z</time>
      </trkpt>
      <trkpt lat="44.58248" lon="6.16989">
        <ele>1014.4</ele>
        <time>2022-09-18T14:23:55Z</time>
      </trkpt>
      <trkpt lat="44.58244" lon="6.17005">
        <ele>1013.4</ele>
        <time>2022-09-18T14:23:56Z</time>
      </trkpt>
      <trkpt lat="44.5824" lon="6.17022">
        <ele>1012.4</ele>
        <time>2022-09-18T14:23:57Z</time>
      </trkpt>
      <trkpt lat="44.58235" lon="6.17038">
        <ele>1011.6</ele>
        <time>2022-09-18T14:23:58Z</time>
      </trkpt>
      <trkpt lat="44.58231" lon="6.17054">
        <ele>1010.6</ele>
        <time>2022-09-18T14:23:59Z</time>
      </trkpt>
      <trkpt lat="44.58227" lon="6.1707">
        <ele>1010</ele>
        <time>2022-09-18T14:24:00Z</time>
      </trkpt>
      <trkpt lat="44.58224" lon="6.17084">
        <ele>1009.4</ele>
        <time>2022-09-18T14:24:01Z</time>
      </trkpt>
      <trkpt lat="44.58223" lon="6.17097">
        <ele>1008.4</ele>
        <time>2022-09-18T14:24:02Z</time>
      </trkpt>
      <trkpt lat="44.58224" lon="6.17109">
        <ele>1007.2</ele>
        <time>2022-09-18T14:24:03Z</time>
      </trkpt>
      <trkpt lat="44.58227" lon="6.17119">
        <ele>1006.4</ele>
        <time>2022-09-18T14:24:04Z</time>
      </trkpt>
      <trkpt lat="44.58233" lon="6.17128">
        <ele>1005.4</ele>
        <time>2022-09-18T14:24:05Z</time>
      </trkpt>
      <trkpt lat="44.58239" lon="6.17137">
        <ele>1005</ele>
        <time>2022-09-18T14:24:06Z</time>
      </trkpt>
      <trkpt lat="44.58246" lon="6.17146">
        <ele>1004</ele>
        <time>2022-09-18T14:24:07Z</time>
      </trkpt>
      <trkpt lat="44.58254" lon="6.17153">
        <ele>1003.6</ele>
        <time>2022-09-18T14:24:08Z</time>
      </trkpt>
      <trkpt lat="44.58263" lon="6.17156">
        <ele>1002.8</ele>
        <time>2022-09-18T14:24:09Z</time>
      </trkpt>
      <trkpt lat="44.58273" lon="6.17158">
        <ele>1002</ele>
        <time>2022-09-18T14:24:10Z</time>
      </trkpt>
      <trkpt lat="44.58284" lon="6.1716">
        <ele>1001.4</ele>
        <time>2022-09-18T14:24:11Z</time>
      </trkpt>
      <trkpt lat="44.58295" lon="6.17162">
        <ele>1000.4</ele>
        <time>2022-09-18T14:24:12Z</time>
      </trkpt>
      <trkpt lat="44.58306" lon="6.17165">
        <ele>999.8</ele>
        <time>2022-09-18T14:24:13Z</time>
      </trkpt>
      <trkpt lat="44.58316" lon="6.17168">
        <ele>999.2</ele>
        <time>2022-09-18T14:24:14Z</time>
      </trkpt>
      <trkpt lat="44.58325" lon="6.17171">
        <ele>998.4</ele>
        <time>2022-09-18T14:24:15Z</time>
      </trkpt>
      <trkpt lat="44.58334" lon="6.17173">
        <ele>997.8</ele>
        <time>2022-09-18T14:24:16Z</time>
      </trkpt>
      <trkpt lat="44.58346" lon="6.17184">
        <ele>996.2</ele>
        <time>2022-09-18T14:24:18Z</time>
      </trkpt>
      <trkpt lat="44.58349" lon="6.17194">
        <ele>995.2</ele>
        <time>2022-09-18T14:24:19Z</time>
      </trkpt>
      <trkpt lat="44.58349" lon="6.17204">
        <ele>994.4</ele>
        <time>2022-09-18T14:24:20Z</time>
      </trkpt>
      <trkpt lat="44.58338" lon="6.1722">
        <ele>993.2</ele>
        <time>2022-09-18T14:24:22Z</time>
      </trkpt>
      <trkpt lat="44.58323" lon="6.17227">
        <ele>992.2</ele>
        <time>2022-09-18T14:24:24Z</time>
      </trkpt>
      <trkpt lat="44.58314" lon="6.1723">
        <ele>991.4</ele>
        <time>2022-09-18T14:24:25Z</time>
      </trkpt>
      <trkpt lat="44.58305" lon="6.17233">
        <ele>990.6</ele>
        <time>2022-09-18T14:24:26Z</time>
      </trkpt>
      <trkpt lat="44.58295" lon="6.17236">
        <ele>990</ele>
        <time>2022-09-18T14:24:27Z</time>
      </trkpt>
      <trkpt lat="44.58285" lon="6.17241">
        <ele>989</ele>
        <time>2022-09-18T14:24:28Z</time>
      </trkpt>
      <trkpt lat="44.58274" lon="6.17245">
        <ele>988.4</ele>
        <time>2022-09-18T14:24:29Z</time>
      </trkpt>
      <trkpt lat="44.58263" lon="6.17248">
        <ele>988</ele>
        <time>2022-09-18T14:24:30Z</time>
      </trkpt>
      <trkpt lat="44.58252" lon="6.17251">
        <ele>987.2</ele>
        <time>2022-09-18T14:24:31Z</time>
      </trkpt>
      <trkpt lat="44.58241" lon="6.17253">
        <ele>986.6</ele>
        <time>2022-09-18T14:24:32Z</time>
      </trkpt>
      <trkpt lat="44.5823" lon="6.17254">
        <ele>986.2</ele>
        <time>2022-09-18T14:24:33Z</time>
      </trkpt>
      <trkpt lat="44.5822" lon="6.17256">
        <ele>985.4</ele>
        <time>2022-09-18T14:24:34Z</time>
      </trkpt>
      <trkpt lat="44.58212" lon="6.1726">
        <ele>984.6</ele>
        <time>2022-09-18T14:24:35Z</time>
      </trkpt>
      <trkpt lat="44.58206" lon="6.17267">
        <ele>983.6</ele>
        <time>2022-09-18T14:24:36Z</time>
      </trkpt>
      <trkpt lat="44.58203" lon="6.17277">
        <ele>982.6</ele>
        <time>2022-09-18T14:24:37Z</time>
      </trkpt>
      <trkpt lat="44.58205" lon="6.173">
        <ele>980.8</ele>
        <time>2022-09-18T14:24:39Z</time>
      </trkpt>
      <trkpt lat="44.5821" lon="6.17311">
        <ele>980</ele>
        <time>2022-09-18T14:24:40Z</time>
      </trkpt>
      <trkpt lat="44.58218" lon="6.17321">
        <ele>979.2</ele>
        <time>2022-09-18T14:24:41Z</time>
      </trkpt>
      <trkpt lat="44.58226" lon="6.17332">
        <ele>978.4</ele>
        <time>2022-09-18T14:24:42Z</time>
      </trkpt>
      <trkpt lat="44.58233" lon="6.17344">
        <ele>977.8</ele>
        <time>2022-09-18T14:24:43Z</time>
      </trkpt>
      <trkpt lat="44.58238" lon="6.17355">
        <ele>977</ele>
        <time>2022-09-18T14:24:44Z</time>
      </trkpt>
      <trkpt lat="44.58242" lon="6.17367">
        <ele>976.2</ele>
        <time>2022-09-18T14:24:45Z</time>
      </trkpt>
      <trkpt lat="44.5824" lon="6.17387">
        <ele>974.2</ele>
        <time>2022-09-18T14:24:47Z</time>
      </trkpt>
      <trkpt lat="44.58226" lon="6.17391">
        <ele>972.2</ele>
        <time>2022-09-18T14:24:49Z</time>
      </trkpt>
      <trkpt lat="44.5821" lon="6.17384">
        <ele>970.8</ele>
        <time>2022-09-18T14:24:51Z</time>
      </trkpt>
      <trkpt lat="44.58201" lon="6.17382">
        <ele>970.4</ele>
        <time>2022-09-18T14:24:52Z</time>
      </trkpt>
      <trkpt lat="44.58191" lon="6.17381">
        <ele>969.6</ele>
        <time>2022-09-18T14:24:53Z</time>
      </trkpt>
      <trkpt lat="44.58181" lon="6.1738">
        <ele>969.4</ele>
        <time>2022-09-18T14:24:54Z</time>
      </trkpt>
      <trkpt lat="44.58172" lon="6.17377">
        <ele>968.8</ele>
        <time>2022-09-18T14:24:55Z</time>
      </trkpt>
      <trkpt lat="44.58162" lon="6.17375">
        <ele>968.2</ele>
        <time>2022-09-18T14:24:56Z</time>
      </trkpt>
      <trkpt lat="44.58151" lon="6.17373">
        <ele>967.4</ele>
        <time>2022-09-18T14:24:57Z</time>
      </trkpt>
      <trkpt lat="44.58141" lon="6.17371">
        <ele>966.2</ele>
        <time>2022-09-18T14:24:58Z</time>
      </trkpt>
      <trkpt lat="44.58129" lon="6.17371">
        <ele>965.8</ele>
        <time>2022-09-18T14:24:59Z</time>
      </trkpt>
      <trkpt lat="44.58118" lon="6.17372">
        <ele>965.2</ele>
        <time>2022-09-18T14:25:00Z</time>
      </trkpt>
      <trkpt lat="44.58108" lon="6.17374">
        <ele>964.4</ele>
        <time>2022-09-18T14:25:01Z</time>
      </trkpt>
      <trkpt lat="44.58098" lon="6.17378">
        <ele>964.2</ele>
        <time>2022-09-18T14:25:02Z</time>
      </trkpt>
      <trkpt lat="44.58088" lon="6.17384">
        <ele>963.6</ele>
        <time>2022-09-18T14:25:03Z</time>
      </trkpt>
      <trkpt lat="44.58078" lon="6.1739">
        <ele>963</ele>
        <time>2022-09-18T14:25:04Z</time>
      </trkpt>
      <trkpt lat="44.5807" lon="6.17397">
        <ele>962.2</ele>
        <time>2022-09-18T14:25:05Z</time>
      </trkpt>
      <trkpt lat="44.58065" lon="6.17408">
        <ele>961.6</ele>
        <time>2022-09-18T14:25:06Z</time>
      </trkpt>
      <trkpt lat="44.58062" lon="6.17421">
        <ele>960.8</ele>
        <time>2022-09-18T14:25:07Z</time>
      </trkpt>
      <trkpt lat="44.58063" lon="6.17434">
        <ele>959.6</ele>
        <time>2022-09-18T14:25:08Z</time>
      </trkpt>
      <trkpt lat="44.58065" lon="6.17448">
        <ele>959</ele>
        <time>2022-09-18T14:25:09Z</time>
      </trkpt>
      <trkpt lat="44.58069" lon="6.1746">
        <ele>958.2</ele>
        <time>2022-09-18T14:25:10Z</time>
      </trkpt>
      <trkpt lat="44.58076" lon="6.17471">
        <ele>957.4</ele>
        <time>2022-09-18T14:25:11Z</time>
      </trkpt>
      <trkpt lat="44.58082" lon="6.17482">
        <ele>957</ele>
        <time>2022-09-18T14:25:12Z</time>
      </trkpt>
      <trkpt lat="44.58089" lon="6.17502">
        <ele>956</ele>
        <time>2022-09-18T14:25:14Z</time>
      </trkpt>
      <trkpt lat="44.58088" lon="6.17511">
        <ele>955.2</ele>
        <time>2022-09-18T14:25:15Z</time>
      </trkpt>
      <trkpt lat="44.58076" lon="6.17518">
        <ele>953.8</ele>
        <time>2022-09-18T14:25:17Z</time>
      </trkpt>
      <trkpt lat="44.5806" lon="6.17515">
        <ele>952.4</ele>
        <time>2022-09-18T14:25:19Z</time>
      </trkpt>
      <trkpt lat="44.58043" lon="6.17515">
        <ele>951.4</ele>
        <time>2022-09-18T14:25:21Z</time>
      </trkpt>
      <trkpt lat="44.58028" lon="6.17519">
        <ele>950.2</ele>
        <time>2022-09-18T14:25:23Z</time>
      </trkpt>
      <trkpt lat="44.58018" lon="6.17529">
        <ele>948.6</ele>
        <time>2022-09-18T14:25:25Z</time>
      </trkpt>
      <trkpt lat="44.58012" lon="6.17552">
        <ele>947.2</ele>
        <time>2022-09-18T14:25:27Z</time>
      </trkpt>
      <trkpt lat="44.58011" lon="6.17567">
        <ele>946.6</ele>
        <time>2022-09-18T14:25:28Z</time>
      </trkpt>
      <trkpt lat="44.58011" lon="6.1758">
        <ele>945.8</ele>
        <time>2022-09-18T14:25:29Z</time>
      </trkpt>
      <trkpt lat="44.58011" lon="6.17593">
        <ele>945.4</ele>
        <time>2022-09-18T14:25:30Z</time>
      </trkpt>
      <trkpt lat="44.58009" lon="6.17606">
        <ele>944.8</ele>
        <time>2022-09-18T14:25:31Z</time>
      </trkpt>
      <trkpt lat="44.58007" lon="6.17615">
        <ele>944</ele>
        <time>2022-09-18T14:25:32Z</time>
      </trkpt>
      <trkpt lat="44.58002" lon="6.17621">
        <ele>943.4</ele>
        <time>2022-09-18T14:25:33Z</time>
      </trkpt>
      <trkpt lat="44.57994" lon="6.17622">
        <ele>942.8</ele>
        <time>2022-09-18T14:25:34Z</time>
      </trkpt>
      <trkpt lat="44.57987" lon="6.17617">
        <ele>942</ele>
        <time>2022-09-18T14:25:35Z</time>
      </trkpt>
      <trkpt lat="44.5798" lon="6.1761">
        <ele>941.2</ele>
        <time>2022-09-18T14:25:36Z</time>
      </trkpt>
      <trkpt lat="44.57973" lon="6.17602">
        <ele>940.6</ele>
        <time>2022-09-18T14:25:37Z</time>
      </trkpt>
      <trkpt lat="44.57966" lon="6.17597">
        <ele>939.6</ele>
        <time>2022-09-18T14:25:38Z</time>
      </trkpt>
      <trkpt lat="44.5796" lon="6.17595">
        <ele>939</ele>
        <time>2022-09-18T14:25:39Z</time>
      </trkpt>
      <trkpt lat="44.57953" lon="6.17593">
        <ele>938.4</ele>
        <time>2022-09-18T14:25:40Z</time>
      </trkpt>
      <trkpt lat="44.57947" lon="6.17593">
        <ele>937.8</ele>
        <time>2022-09-18T14:25:41Z</time>
      </trkpt>
      <trkpt lat="44.57942" lon="6.17596">
        <ele>937.2</ele>
        <time>2022-09-18T14:25:42Z</time>
      </trkpt>
      <trkpt lat="44.57937" lon="6.17598">
        <ele>936.6</ele>
        <time>2022-09-18T14:25:43Z</time>
      </trkpt>
      <trkpt lat="44.57932" lon="6.17601">
        <ele>936</ele>
        <time>2022-09-18T14:25:44Z</time>
      </trkpt>
      <trkpt lat="44.57928" lon="6.17604">
        <ele>935.8</ele>
        <time>2022-09-18T14:25:45Z</time>
      </trkpt>
      <trkpt lat="44.57923" lon="6.17607">
        <ele>935.2</ele>
        <time>2022-09-18T14:25:46Z</time>
      </trkpt>
      <trkpt lat="44.57919" lon="6.17611">
        <ele>934.6</ele>
        <time>2022-09-18T14:25:47Z</time>
      </trkpt>
      <trkpt lat="44.57914" lon="6.17615">
        <ele>934</ele>
        <time>2022-09-18T14:25:48Z</time>
      </trkpt>
      <trkpt lat="44.57909" lon="6.17621">
        <ele>933.6</ele>
        <time>2022-09-18T14:25:49Z</time>
      </trkpt>
      <trkpt lat="44.57905" lon="6.17626">
        <ele>933.4</ele>
        <time>2022-09-18T14:25:50Z</time>
      </trkpt>
      <trkpt lat="44.579" lon="6.17632">
        <ele>932.8</ele>
        <time>2022-09-18T14:25:51Z</time>
      </trkpt>
      <trkpt lat="44.57896" lon="6.17639">
        <ele>932</ele>
        <time>2022-09-18T14:25:52Z</time>
      </trkpt>
      <trkpt lat="44.57892" lon="6.17647">
        <ele>931.6</ele>
        <time>2022-09-18T14:25:53Z</time>
      </trkpt>
      <trkpt lat="44.57888" lon="6.17655">
        <ele>931.2</ele>
        <time>2022-09-18T14:25:54Z</time>
      </trkpt>
      <trkpt lat="44.57884" lon="6.17664">
        <ele>930.8</ele>
        <time>2022-09-18T14:25:55Z</time>
      </trkpt>
      <trkpt lat="44.57879" lon="6.17675">
        <ele>930.2</ele>
        <time>2022-09-18T14:25:56Z</time>
      </trkpt>
      <trkpt lat="44.57875" lon="6.17685">
        <ele>929.8</ele>
        <time>2022-09-18T14:25:57Z</time>
      </trkpt>
      <trkpt lat="44.57872" lon="6.17694">
        <ele>929.4</ele>
        <time>2022-09-18T14:25:58Z</time>
      </trkpt>
      <trkpt lat="44.57869" lon="6.17703">
        <ele>928.6</ele>
        <time>2022-09-18T14:25:59Z</time>
      </trkpt>
      <trkpt lat="44.57866" lon="6.17712">
        <ele>928.2</ele>
        <time>2022-09-18T14:26:00Z</time>
      </trkpt>
      <trkpt lat="44.57863" lon="6.17721">
        <ele>927.4</ele>
        <time>2022-09-18T14:26:01Z</time>
      </trkpt>
      <trkpt lat="44.5786" lon="6.1773">
        <ele>926.8</ele>
        <time>2022-09-18T14:26:02Z</time>
      </trkpt>
      <trkpt lat="44.57857" lon="6.17739">
        <ele>926.4</ele>
        <time>2022-09-18T14:26:03Z</time>
      </trkpt>
      <trkpt lat="44.57854" lon="6.17748">
        <ele>925.8</ele>
        <time>2022-09-18T14:26:04Z</time>
      </trkpt>
      <trkpt lat="44.57851" lon="6.17756">
        <ele>925.2</ele>
        <time>2022-09-18T14:26:05Z</time>
      </trkpt>
      <trkpt lat="44.57849" lon="6.17763">
        <ele>925</ele>
        <time>2022-09-18T14:26:06Z</time>
      </trkpt>
      <trkpt lat="44.57847" lon="6.1777">
        <ele>924.6</ele>
        <time>2022-09-18T14:26:07Z</time>
      </trkpt>
      <trkpt lat="44.57845" lon="6.17776">
        <ele>923.8</ele>
        <time>2022-09-18T14:26:08Z</time>
      </trkpt>
      <trkpt lat="44.57844" lon="6.17782">
        <ele>923.4</ele>
        <time>2022-09-18T14:26:09Z</time>
      </trkpt>
      <trkpt lat="44.57843" lon="6.17787">
        <ele>923.2</ele>
        <time>2022-09-18T14:26:10Z</time>
      </trkpt>
      <trkpt lat="44.57842" lon="6.17792">
        <ele>923.2</ele>
        <time>2022-09-18T14:26:11Z</time>
      </trkpt>
      <trkpt lat="44.57841" lon="6.17796">
        <ele>922.6</ele>
        <time>2022-09-18T14:26:12Z</time>
      </trkpt>
      <trkpt lat="44.57841" lon="6.178">
        <ele>921.8</ele>
        <time>2022-09-18T14:26:13Z</time>
      </trkpt>
      <trkpt lat="44.5784" lon="6.17803">
        <ele>921.2</ele>
        <time>2022-09-18T14:26:14Z</time>
      </trkpt>
      <trkpt lat="44.5784" lon="6.178">
        <ele>912</ele>
        <time>2022-09-18T14:27:44Z</time>
      </trkpt>
      <trkpt lat="44.5784" lon="6.17803">
        <ele>909.8</ele>
        <time>2022-09-18T14:28:19Z</time>
      </trkpt>
      <trkpt lat="44.5784" lon="6.17807">
        <ele>909.4</ele>
        <time>2022-09-18T14:28:21Z</time>
      </trkpt>
      <trkpt lat="44.57841" lon="6.1781">
        <ele>909.4</ele>
        <time>2022-09-18T14:28:22Z</time>
      </trkpt>
      <trkpt lat="44.57841" lon="6.17813">
        <ele>909.4</ele>
        <time>2022-09-18T14:28:23Z</time>
      </trkpt>
      <trkpt lat="44.57841" lon="6.17816">
        <ele>909.2</ele>
        <time>2022-09-18T14:28:24Z</time>
      </trkpt>
      <trkpt lat="44.57841" lon="6.1782">
        <ele>908.8</ele>
        <time>2022-09-18T14:28:25Z</time>
      </trkpt>
      <trkpt lat="44.57841" lon="6.17824">
        <ele>908.8</ele>
        <time>2022-09-18T14:28:26Z</time>
      </trkpt>
      <trkpt lat="44.57841" lon="6.17829">
        <ele>908.6</ele>
        <time>2022-09-18T14:28:27Z</time>
      </trkpt>
      <trkpt lat="44.57838" lon="6.17848">
        <ele>907.8</ele>
        <time>2022-09-18T14:28:30Z</time>
      </trkpt>
      <trkpt lat="44.57836" lon="6.17857">
        <ele>907.6</ele>
        <time>2022-09-18T14:28:31Z</time>
      </trkpt>
      <trkpt lat="44.57834" lon="6.17864">
        <ele>907.4</ele>
        <time>2022-09-18T14:28:32Z</time>
      </trkpt>
      <trkpt lat="44.57832" lon="6.17872">
        <ele>907</ele>
        <time>2022-09-18T14:28:33Z</time>
      </trkpt>
      <trkpt lat="44.5783" lon="6.17879">
        <ele>906.8</ele>
        <time>2022-09-18T14:28:34Z</time>
      </trkpt>
      <trkpt lat="44.57827" lon="6.17886">
        <ele>906.6</ele>
        <time>2022-09-18T14:28:35Z</time>
      </trkpt>
      <trkpt lat="44.57825" lon="6.17892">
        <ele>906.2</ele>
        <time>2022-09-18T14:28:36Z</time>
      </trkpt>
      <trkpt lat="44.57821" lon="6.17897">
        <ele>905.8</ele>
        <time>2022-09-18T14:28:37Z</time>
      </trkpt>
      <trkpt lat="44.57818" lon="6.17903">
        <ele>905.2</ele>
        <time>2022-09-18T14:28:38Z</time>
      </trkpt>
      <trkpt lat="44.57814" lon="6.17908">
        <ele>904.8</ele>
        <time>2022-09-18T14:28:39Z</time>
      </trkpt>
      <trkpt lat="44.5781" lon="6.17913">
        <ele>904.6</ele>
        <time>2022-09-18T14:28:40Z</time>
      </trkpt>
      <trkpt lat="44.57806" lon="6.17918">
        <ele>904.4</ele>
        <time>2022-09-18T14:28:41Z</time>
      </trkpt>
      <trkpt lat="44.57801" lon="6.17923">
        <ele>904.2</ele>
        <time>2022-09-18T14:28:42Z</time>
      </trkpt>
      <trkpt lat="44.57795" lon="6.17926">
        <ele>903.8</ele>
        <time>2022-09-18T14:28:43Z</time>
      </trkpt>
      <trkpt lat="44.57788" lon="6.17929">
        <ele>903.6</ele>
        <time>2022-09-18T14:28:44Z</time>
      </trkpt>
      <trkpt lat="44.57782" lon="6.1793">
        <ele>903.2</ele>
        <time>2022-09-18T14:28:45Z</time>
      </trkpt>
      <trkpt lat="44.57775" lon="6.17931">
        <ele>903</ele>
        <time>2022-09-18T14:28:46Z</time>
      </trkpt>
      <trkpt lat="44.5777" lon="6.17932">
        <ele>902.8</ele>
        <time>2022-09-18T14:28:47Z</time>
      </trkpt>
      <trkpt lat="44.57764" lon="6.17933">
        <ele>902.4</ele>
        <time>2022-09-18T14:28:48Z</time>
      </trkpt>
      <trkpt lat="44.57758" lon="6.17934">
        <ele>902.4</ele>
        <time>2022-09-18T14:28:49Z</time>
      </trkpt>
      <trkpt lat="44.57753" lon="6.17934">
        <ele>902.2</ele>
        <time>2022-09-18T14:28:50Z</time>
      </trkpt>
      <trkpt lat="44.57747" lon="6.17934">
        <ele>902</ele>
        <time>2022-09-18T14:28:51Z</time>
      </trkpt>
      <trkpt lat="44.57741" lon="6.17935">
        <ele>902</ele>
        <time>2022-09-18T14:28:52Z</time>
      </trkpt>
      <trkpt lat="44.57735" lon="6.17935">
        <ele>901.8</ele>
        <time>2022-09-18T14:28:53Z</time>
      </trkpt>
      <trkpt lat="44.57728" lon="6.17936">
        <ele>901.8</ele>
        <time>2022-09-18T14:28:54Z</time>
      </trkpt>
      <trkpt lat="44.57722" lon="6.17936">
        <ele>902.2</ele>
        <time>2022-09-18T14:28:55Z</time>
      </trkpt>
      <trkpt lat="44.57716" lon="6.17937">
        <ele>902</ele>
        <time>2022-09-18T14:28:56Z</time>
      </trkpt>
      <trkpt lat="44.57709" lon="6.17939">
        <ele>902</ele>
        <time>2022-09-18T14:28:57Z</time>
      </trkpt>
      <trkpt lat="44.57702" lon="6.1794">
        <ele>901.6</ele>
        <time>2022-09-18T14:28:58Z</time>
      </trkpt>
      <trkpt lat="44.57696" lon="6.17942">
        <ele>901.4</ele>
        <time>2022-09-18T14:28:59Z</time>
      </trkpt>
      <trkpt lat="44.5769" lon="6.17944">
        <ele>901</ele>
        <time>2022-09-18T14:29:00Z</time>
      </trkpt>
      <trkpt lat="44.57683" lon="6.17948">
        <ele>901.2</ele>
        <time>2022-09-18T14:29:01Z</time>
      </trkpt>
      <trkpt lat="44.57676" lon="6.17952">
        <ele>901.2</ele>
        <time>2022-09-18T14:29:02Z</time>
      </trkpt>
      <trkpt lat="44.57668" lon="6.17956">
        <ele>901</ele>
        <time>2022-09-18T14:29:03Z</time>
      </trkpt>
      <trkpt lat="44.5766" lon="6.17961">
        <ele>901</ele>
        <time>2022-09-18T14:29:04Z</time>
      </trkpt>
      <trkpt lat="44.57652" lon="6.17967">
        <ele>900.8</ele>
        <time>2022-09-18T14:29:05Z</time>
      </trkpt>
      <trkpt lat="44.57643" lon="6.17973">
        <ele>900.4</ele>
        <time>2022-09-18T14:29:06Z</time>
      </trkpt>
      <trkpt lat="44.57635" lon="6.17978">
        <ele>900</ele>
        <time>2022-09-18T14:29:07Z</time>
      </trkpt>
      <trkpt lat="44.57627" lon="6.17984">
        <ele>900</ele>
        <time>2022-09-18T14:29:08Z</time>
      </trkpt>
      <trkpt lat="44.5762" lon="6.17991">
        <ele>899.8</ele>
        <time>2022-09-18T14:29:09Z</time>
      </trkpt>
      <trkpt lat="44.57611" lon="6.17998">
        <ele>899.4</ele>
        <time>2022-09-18T14:29:10Z</time>
      </trkpt>
      <trkpt lat="44.57604" lon="6.18005">
        <ele>899.2</ele>
        <time>2022-09-18T14:29:11Z</time>
      </trkpt>
      <trkpt lat="44.57597" lon="6.18013">
        <ele>898.8</ele>
        <time>2022-09-18T14:29:12Z</time>
      </trkpt>
      <trkpt lat="44.5759" lon="6.18022">
        <ele>898.4</ele>
        <time>2022-09-18T14:29:13Z</time>
      </trkpt>
      <trkpt lat="44.57583" lon="6.18032">
        <ele>897.8</ele>
        <time>2022-09-18T14:29:14Z</time>
      </trkpt>
      <trkpt lat="44.57575" lon="6.18043">
        <ele>897.4</ele>
        <time>2022-09-18T14:29:15Z</time>
      </trkpt>
      <trkpt lat="44.57566" lon="6.18054">
        <ele>897</ele>
        <time>2022-09-18T14:29:16Z</time>
      </trkpt>
      <trkpt lat="44.57557" lon="6.18064">
        <ele>896.4</ele>
        <time>2022-09-18T14:29:17Z</time>
      </trkpt>
      <trkpt lat="44.57547" lon="6.18073">
        <ele>896</ele>
        <time>2022-09-18T14:29:18Z</time>
      </trkpt>
      <trkpt lat="44.57536" lon="6.18081">
        <ele>895.6</ele>
        <time>2022-09-18T14:29:19Z</time>
      </trkpt>
      <trkpt lat="44.57526" lon="6.18089">
        <ele>895</ele>
        <time>2022-09-18T14:29:20Z</time>
      </trkpt>
      <trkpt lat="44.57516" lon="6.18098">
        <ele>894</ele>
        <time>2022-09-18T14:29:21Z</time>
      </trkpt>
      <trkpt lat="44.57508" lon="6.18109">
        <ele>893.4</ele>
        <time>2022-09-18T14:29:22Z</time>
      </trkpt>
      <trkpt lat="44.575" lon="6.1812">
        <ele>893</ele>
        <time>2022-09-18T14:29:23Z</time>
      </trkpt>
      <trkpt lat="44.57494" lon="6.18132">
        <ele>892.4</ele>
        <time>2022-09-18T14:29:24Z</time>
      </trkpt>
      <trkpt lat="44.57485" lon="6.18148">
        <ele>892</ele>
        <time>2022-09-18T14:29:25Z</time>
      </trkpt>
      <trkpt lat="44.57475" lon="6.18167">
        <ele>891.4</ele>
        <time>2022-09-18T14:29:26Z</time>
      </trkpt>
      <trkpt lat="44.57467" lon="6.18182">
        <ele>891.2</ele>
        <time>2022-09-18T14:29:27Z</time>
      </trkpt>
      <trkpt lat="44.57459" lon="6.18196">
        <ele>890.6</ele>
        <time>2022-09-18T14:29:28Z</time>
      </trkpt>
      <trkpt lat="44.57451" lon="6.1821">
        <ele>890</ele>
        <time>2022-09-18T14:29:29Z</time>
      </trkpt>
      <trkpt lat="44.57443" lon="6.18222">
        <ele>889.6</ele>
        <time>2022-09-18T14:29:30Z</time>
      </trkpt>
      <trkpt lat="44.57433" lon="6.18233">
        <ele>889</ele>
        <time>2022-09-18T14:29:31Z</time>
      </trkpt>
      <trkpt lat="44.57423" lon="6.18242">
        <ele>888.8</ele>
        <time>2022-09-18T14:29:32Z</time>
      </trkpt>
      <trkpt lat="44.57413" lon="6.1825">
        <ele>888.2</ele>
        <time>2022-09-18T14:29:33Z</time>
      </trkpt>
      <trkpt lat="44.57403" lon="6.18258">
        <ele>888</ele>
        <time>2022-09-18T14:29:34Z</time>
      </trkpt>
      <trkpt lat="44.57393" lon="6.18267">
        <ele>888</ele>
        <time>2022-09-18T14:29:35Z</time>
      </trkpt>
      <trkpt lat="44.57383" lon="6.18276">
        <ele>887.6</ele>
        <time>2022-09-18T14:29:36Z</time>
      </trkpt>
      <trkpt lat="44.57374" lon="6.18286">
        <ele>887.4</ele>
        <time>2022-09-18T14:29:37Z</time>
      </trkpt>
      <trkpt lat="44.57365" lon="6.18296">
        <ele>886.8</ele>
        <time>2022-09-18T14:29:38Z</time>
      </trkpt>
      <trkpt lat="44.57355" lon="6.18306">
        <ele>885.8</ele>
        <time>2022-09-18T14:29:39Z</time>
      </trkpt>
      <trkpt lat="44.57347" lon="6.18316">
        <ele>884.8</ele>
        <time>2022-09-18T14:29:40Z</time>
      </trkpt>
      <trkpt lat="44.57339" lon="6.18328">
        <ele>883.8</ele>
        <time>2022-09-18T14:29:41Z</time>
      </trkpt>
      <trkpt lat="44.57331" lon="6.18342">
        <ele>883</ele>
        <time>2022-09-18T14:29:42Z</time>
      </trkpt>
      <trkpt lat="44.57325" lon="6.18358">
        <ele>882.4</ele>
        <time>2022-09-18T14:29:43Z</time>
      </trkpt>
      <trkpt lat="44.5732" lon="6.18374">
        <ele>881.6</ele>
        <time>2022-09-18T14:29:44Z</time>
      </trkpt>
      <trkpt lat="44.57316" lon="6.18391">
        <ele>881</ele>
        <time>2022-09-18T14:29:45Z</time>
      </trkpt>
      <trkpt lat="44.57313" lon="6.18408">
        <ele>880</ele>
        <time>2022-09-18T14:29:46Z</time>
      </trkpt>
      <trkpt lat="44.57309" lon="6.18426">
        <ele>879.6</ele>
        <time>2022-09-18T14:29:47Z</time>
      </trkpt>
      <trkpt lat="44.57305" lon="6.18443">
        <ele>879.2</ele>
        <time>2022-09-18T14:29:48Z</time>
      </trkpt>
      <trkpt lat="44.57301" lon="6.1846">
        <ele>878.8</ele>
        <time>2022-09-18T14:29:49Z</time>
      </trkpt>
      <trkpt lat="44.57297" lon="6.18477">
        <ele>878.2</ele>
        <time>2022-09-18T14:29:50Z</time>
      </trkpt>
      <trkpt lat="44.57292" lon="6.18494">
        <ele>877.4</ele>
        <time>2022-09-18T14:29:51Z</time>
      </trkpt>
      <trkpt lat="44.57288" lon="6.18511">
        <ele>877</ele>
        <time>2022-09-18T14:29:52Z</time>
      </trkpt>
      <trkpt lat="44.57283" lon="6.18528">
        <ele>876.2</ele>
        <time>2022-09-18T14:29:53Z</time>
      </trkpt>
      <trkpt lat="44.57279" lon="6.18545">
        <ele>875.2</ele>
        <time>2022-09-18T14:29:54Z</time>
      </trkpt>
      <trkpt lat="44.57274" lon="6.18562">
        <ele>874.4</ele>
        <time>2022-09-18T14:29:55Z</time>
      </trkpt>
      <trkpt lat="44.57269" lon="6.18578">
        <ele>874</ele>
        <time>2022-09-18T14:29:56Z</time>
      </trkpt>
      <trkpt lat="44.57263" lon="6.18593">
        <ele>873</ele>
        <time>2022-09-18T14:29:57Z</time>
      </trkpt>
      <trkpt lat="44.57257" lon="6.18608">
        <ele>872.2</ele>
        <time>2022-09-18T14:29:58Z</time>
      </trkpt>
      <trkpt lat="44.57251" lon="6.18623">
        <ele>871.8</ele>
        <time>2022-09-18T14:29:59Z</time>
      </trkpt>
      <trkpt lat="44.57246" lon="6.18638">
        <ele>871.8</ele>
        <time>2022-09-18T14:30:00Z</time>
      </trkpt>
      <trkpt lat="44.57242" lon="6.18652">
        <ele>871</ele>
        <time>2022-09-18T14:30:01Z</time>
      </trkpt>
      <trkpt lat="44.57238" lon="6.18667">
        <ele>870.8</ele>
        <time>2022-09-18T14:30:02Z</time>
      </trkpt>
      <trkpt lat="44.57235" lon="6.18681">
        <ele>870.6</ele>
        <time>2022-09-18T14:30:03Z</time>
      </trkpt>
      <trkpt lat="44.57233" lon="6.18695">
        <ele>870.2</ele>
        <time>2022-09-18T14:30:04Z</time>
      </trkpt>
      <trkpt lat="44.57232" lon="6.1871">
        <ele>869.6</ele>
        <time>2022-09-18T14:30:05Z</time>
      </trkpt>
      <trkpt lat="44.57232" lon="6.18724">
        <ele>869.2</ele>
        <time>2022-09-18T14:30:06Z</time>
      </trkpt>
      <trkpt lat="44.57232" lon="6.18738">
        <ele>869</ele>
        <time>2022-09-18T14:30:07Z</time>
      </trkpt>
      <trkpt lat="44.57231" lon="6.18752">
        <ele>868.6</ele>
        <time>2022-09-18T14:30:08Z</time>
      </trkpt>
      <trkpt lat="44.57228" lon="6.18765">
        <ele>868.4</ele>
        <time>2022-09-18T14:30:09Z</time>
      </trkpt>
      <trkpt lat="44.57223" lon="6.18778">
        <ele>868.4</ele>
        <time>2022-09-18T14:30:10Z</time>
      </trkpt>
      <trkpt lat="44.57217" lon="6.18789">
        <ele>868.2</ele>
        <time>2022-09-18T14:30:11Z</time>
      </trkpt>
      <trkpt lat="44.5721" lon="6.18798">
        <ele>868.2</ele>
        <time>2022-09-18T14:30:12Z</time>
      </trkpt>
      <trkpt lat="44.57203" lon="6.18807">
        <ele>868.2</ele>
        <time>2022-09-18T14:30:13Z</time>
      </trkpt>
      <trkpt lat="44.57194" lon="6.18814">
        <ele>868.4</ele>
        <time>2022-09-18T14:30:14Z</time>
      </trkpt>
      <trkpt lat="44.57185" lon="6.1882">
        <ele>868</ele>
        <time>2022-09-18T14:30:15Z</time>
      </trkpt>
      <trkpt lat="44.57176" lon="6.18825">
        <ele>867.8</ele>
        <time>2022-09-18T14:30:16Z</time>
      </trkpt>
      <trkpt lat="44.57167" lon="6.1883">
        <ele>867.6</ele>
        <time>2022-09-18T14:30:17Z</time>
      </trkpt>
      <trkpt lat="44.57158" lon="6.18835">
        <ele>867.4</ele>
        <time>2022-09-18T14:30:18Z</time>
      </trkpt>
      <trkpt lat="44.57149" lon="6.18839">
        <ele>867.2</ele>
        <time>2022-09-18T14:30:19Z</time>
      </trkpt>
      <trkpt lat="44.57141" lon="6.18842">
        <ele>867</ele>
        <time>2022-09-18T14:30:20Z</time>
      </trkpt>
      <trkpt lat="44.57133" lon="6.18847">
        <ele>866.2</ele>
        <time>2022-09-18T14:30:21Z</time>
      </trkpt>
      <trkpt lat="44.57125" lon="6.18852">
        <ele>865.8</ele>
        <time>2022-09-18T14:30:22Z</time>
      </trkpt>
      <trkpt lat="44.57118" lon="6.18858">
        <ele>865.8</ele>
        <time>2022-09-18T14:30:23Z</time>
      </trkpt>
      <trkpt lat="44.57111" lon="6.18865">
        <ele>865.6</ele>
        <time>2022-09-18T14:30:24Z</time>
      </trkpt>
      <trkpt lat="44.57105" lon="6.18872">
        <ele>866</ele>
        <time>2022-09-18T14:30:25Z</time>
      </trkpt>
      <trkpt lat="44.57099" lon="6.18879">
        <ele>866.2</ele>
        <time>2022-09-18T14:30:26Z</time>
      </trkpt>
      <trkpt lat="44.57095" lon="6.18886">
        <ele>866</ele>
        <time>2022-09-18T14:30:27Z</time>
      </trkpt>
      <trkpt lat="44.57091" lon="6.18894">
        <ele>866</ele>
        <time>2022-09-18T14:30:28Z</time>
      </trkpt>
      <trkpt lat="44.57086" lon="6.18902">
        <ele>865.8</ele>
        <time>2022-09-18T14:30:29Z</time>
      </trkpt>
      <trkpt lat="44.57082" lon="6.1891">
        <ele>865.8</ele>
        <time>2022-09-18T14:30:30Z</time>
      </trkpt>
      <trkpt lat="44.57077" lon="6.18918">
        <ele>866.2</ele>
        <time>2022-09-18T14:30:31Z</time>
      </trkpt>
      <trkpt lat="44.57072" lon="6.18925">
        <ele>866.6</ele>
        <time>2022-09-18T14:30:32Z</time>
      </trkpt>
      <trkpt lat="44.57068" lon="6.18933">
        <ele>867</ele>
        <time>2022-09-18T14:30:33Z</time>
      </trkpt>
      <trkpt lat="44.57063" lon="6.18941">
        <ele>867.2</ele>
        <time>2022-09-18T14:30:34Z</time>
      </trkpt>
      <trkpt lat="44.57059" lon="6.18948">
        <ele>867.2</ele>
        <time>2022-09-18T14:30:35Z</time>
      </trkpt>
      <trkpt lat="44.57054" lon="6.18956">
        <ele>867</ele>
        <time>2022-09-18T14:30:36Z</time>
      </trkpt>
      <trkpt lat="44.5705" lon="6.18964">
        <ele>867</ele>
        <time>2022-09-18T14:30:37Z</time>
      </trkpt>
      <trkpt lat="44.57047" lon="6.18971">
        <ele>867</ele>
        <time>2022-09-18T14:30:38Z</time>
      </trkpt>
      <trkpt lat="44.57042" lon="6.18978">
        <ele>867</ele>
        <time>2022-09-18T14:30:39Z</time>
      </trkpt>
      <trkpt lat="44.57039" lon="6.18986">
        <ele>867</ele>
        <time>2022-09-18T14:30:40Z</time>
      </trkpt>
      <trkpt lat="44.57035" lon="6.18993">
        <ele>866.8</ele>
        <time>2022-09-18T14:30:41Z</time>
      </trkpt>
      <trkpt lat="44.5703" lon="6.19">
        <ele>866.6</ele>
        <time>2022-09-18T14:30:42Z</time>
      </trkpt>
      <trkpt lat="44.57026" lon="6.19006">
        <ele>866.8</ele>
        <time>2022-09-18T14:30:43Z</time>
      </trkpt>
      <trkpt lat="44.57021" lon="6.19012">
        <ele>866.6</ele>
        <time>2022-09-18T14:30:44Z</time>
      </trkpt>
      <trkpt lat="44.57017" lon="6.19017">
        <ele>866.6</ele>
        <time>2022-09-18T14:30:45Z</time>
      </trkpt>
      <trkpt lat="44.57012" lon="6.19023">
        <ele>866.6</ele>
        <time>2022-09-18T14:30:46Z</time>
      </trkpt>
      <trkpt lat="44.57008" lon="6.19028">
        <ele>866.6</ele>
        <time>2022-09-18T14:30:47Z</time>
      </trkpt>
      <trkpt lat="44.57003" lon="6.19033">
        <ele>866.4</ele>
        <time>2022-09-18T14:30:48Z</time>
      </trkpt>
      <trkpt lat="44.56998" lon="6.19039">
        <ele>866.4</ele>
        <time>2022-09-18T14:30:49Z</time>
      </trkpt>
      <trkpt lat="44.56992" lon="6.19045">
        <ele>866.4</ele>
        <time>2022-09-18T14:30:50Z</time>
      </trkpt>
      <trkpt lat="44.56982" lon="6.19056">
        <ele>866.4</ele>
        <time>2022-09-18T14:30:52Z</time>
      </trkpt>
      <trkpt lat="44.56972" lon="6.19067">
        <ele>866.4</ele>
        <time>2022-09-18T14:30:54Z</time>
      </trkpt>
      <trkpt lat="44.56963" lon="6.19077">
        <ele>866</ele>
        <time>2022-09-18T14:30:56Z</time>
      </trkpt>
      <trkpt lat="44.56958" lon="6.19083">
        <ele>866</ele>
        <time>2022-09-18T14:30:57Z</time>
      </trkpt>
      <trkpt lat="44.56953" lon="6.19088">
        <ele>866</ele>
        <time>2022-09-18T14:30:58Z</time>
      </trkpt>
      <trkpt lat="44.56949" lon="6.19094">
        <ele>865.4</ele>
        <time>2022-09-18T14:30:59Z</time>
      </trkpt>
      <trkpt lat="44.56946" lon="6.19099">
        <ele>864.8</ele>
        <time>2022-09-18T14:31:00Z</time>
      </trkpt>
      <trkpt lat="44.56942" lon="6.19105">
        <ele>864.6</ele>
        <time>2022-09-18T14:31:01Z</time>
      </trkpt>
      <trkpt lat="44.56939" lon="6.19111">
        <ele>864.2</ele>
        <time>2022-09-18T14:31:02Z</time>
      </trkpt>
      <trkpt lat="44.56931" lon="6.19124">
        <ele>863.8</ele>
        <time>2022-09-18T14:31:04Z</time>
      </trkpt>
      <trkpt lat="44.56922" lon="6.19138">
        <ele>863.6</ele>
        <time>2022-09-18T14:31:06Z</time>
      </trkpt>
      <trkpt lat="44.56914" lon="6.19152">
        <ele>863.6</ele>
        <time>2022-09-18T14:31:08Z</time>
      </trkpt>
      <trkpt lat="44.56909" lon="6.1916">
        <ele>863.8</ele>
        <time>2022-09-18T14:31:09Z</time>
      </trkpt>
      <trkpt lat="44.56905" lon="6.19168">
        <ele>863.8</ele>
        <time>2022-09-18T14:31:10Z</time>
      </trkpt>
      <trkpt lat="44.569" lon="6.19175">
        <ele>864</ele>
        <time>2022-09-18T14:31:11Z</time>
      </trkpt>
      <trkpt lat="44.56896" lon="6.19182">
        <ele>864</ele>
        <time>2022-09-18T14:31:12Z</time>
      </trkpt>
      <trkpt lat="44.56892" lon="6.1919">
        <ele>863.8</ele>
        <time>2022-09-18T14:31:13Z</time>
      </trkpt>
      <trkpt lat="44.56889" lon="6.19197">
        <ele>863.8</ele>
        <time>2022-09-18T14:31:14Z</time>
      </trkpt>
      <trkpt lat="44.56886" lon="6.19205">
        <ele>863.6</ele>
        <time>2022-09-18T14:31:15Z</time>
      </trkpt>
      <trkpt lat="44.56882" lon="6.19213">
        <ele>863.8</ele>
        <time>2022-09-18T14:31:16Z</time>
      </trkpt>
      <trkpt lat="44.56879" lon="6.1922">
        <ele>863.6</ele>
        <time>2022-09-18T14:31:17Z</time>
      </trkpt>
      <trkpt lat="44.56875" lon="6.19228">
        <ele>863.6</ele>
        <time>2022-09-18T14:31:18Z</time>
      </trkpt>
      <trkpt lat="44.56872" lon="6.19235">
        <ele>863.6</ele>
        <time>2022-09-18T14:31:19Z</time>
      </trkpt>
      <trkpt lat="44.56869" lon="6.19243">
        <ele>863.4</ele>
        <time>2022-09-18T14:31:20Z</time>
      </trkpt>
      <trkpt lat="44.56865" lon="6.1925">
        <ele>863.4</ele>
        <time>2022-09-18T14:31:21Z</time>
      </trkpt>
      <trkpt lat="44.56862" lon="6.19257">
        <ele>863.4</ele>
        <time>2022-09-18T14:31:22Z</time>
      </trkpt>
      <trkpt lat="44.56859" lon="6.19264">
        <ele>863.8</ele>
        <time>2022-09-18T14:31:23Z</time>
      </trkpt>
      <trkpt lat="44.56857" lon="6.19271">
        <ele>864</ele>
        <time>2022-09-18T14:31:24Z</time>
      </trkpt>
      <trkpt lat="44.56854" lon="6.19278">
        <ele>864.2</ele>
        <time>2022-09-18T14:31:25Z</time>
      </trkpt>
      <trkpt lat="44.56851" lon="6.19285">
        <ele>864.4</ele>
        <time>2022-09-18T14:31:26Z</time>
      </trkpt>
      <trkpt lat="44.56849" lon="6.19292">
        <ele>864.6</ele>
        <time>2022-09-18T14:31:27Z</time>
      </trkpt>
      <trkpt lat="44.56846" lon="6.19298">
        <ele>864.8</ele>
        <time>2022-09-18T14:31:28Z</time>
      </trkpt>
      <trkpt lat="44.56844" lon="6.19305">
        <ele>865</ele>
        <time>2022-09-18T14:31:29Z</time>
      </trkpt>
      <trkpt lat="44.56841" lon="6.19311">
        <ele>865.2</ele>
        <time>2022-09-18T14:31:30Z</time>
      </trkpt>
      <trkpt lat="44.56839" lon="6.19318">
        <ele>865.2</ele>
        <time>2022-09-18T14:31:31Z</time>
      </trkpt>
      <trkpt lat="44.56836" lon="6.19324">
        <ele>865.4</ele>
        <time>2022-09-18T14:31:32Z</time>
      </trkpt>
      <trkpt lat="44.56833" lon="6.1933">
        <ele>865.6</ele>
        <time>2022-09-18T14:31:33Z</time>
      </trkpt>
      <trkpt lat="44.5683" lon="6.19336">
        <ele>865.8</ele>
        <time>2022-09-18T14:31:34Z</time>
      </trkpt>
      <trkpt lat="44.56828" lon="6.19342">
        <ele>866</ele>
        <time>2022-09-18T14:31:35Z</time>
      </trkpt>
      <trkpt lat="44.56825" lon="6.19348">
        <ele>866.2</ele>
        <time>2022-09-18T14:31:36Z</time>
      </trkpt>
      <trkpt lat="44.56823" lon="6.19354">
        <ele>866.4</ele>
        <time>2022-09-18T14:31:37Z</time>
      </trkpt>
      <trkpt lat="44.56821" lon="6.1936">
        <ele>866.8</ele>
        <time>2022-09-18T14:31:38Z</time>
      </trkpt>
      <trkpt lat="44.56818" lon="6.19366">
        <ele>866.8</ele>
        <time>2022-09-18T14:31:39Z</time>
      </trkpt>
      <trkpt lat="44.56816" lon="6.19371">
        <ele>867.2</ele>
        <time>2022-09-18T14:31:40Z</time>
      </trkpt>
      <trkpt lat="44.56814" lon="6.19377">
        <ele>867.2</ele>
        <time>2022-09-18T14:31:41Z</time>
      </trkpt>
      <trkpt lat="44.56812" lon="6.19383">
        <ele>867.4</ele>
        <time>2022-09-18T14:31:42Z</time>
      </trkpt>
      <trkpt lat="44.5681" lon="6.19388">
        <ele>867.6</ele>
        <time>2022-09-18T14:31:43Z</time>
      </trkpt>
      <trkpt lat="44.56808" lon="6.19394">
        <ele>867.4</ele>
        <time>2022-09-18T14:31:44Z</time>
      </trkpt>
      <trkpt lat="44.56805" lon="6.194">
        <ele>867.8</ele>
        <time>2022-09-18T14:31:45Z</time>
      </trkpt>
      <trkpt lat="44.56803" lon="6.19405">
        <ele>868.2</ele>
        <time>2022-09-18T14:31:46Z</time>
      </trkpt>
      <trkpt lat="44.568" lon="6.19411">
        <ele>868.4</ele>
        <time>2022-09-18T14:31:47Z</time>
      </trkpt>
      <trkpt lat="44.56797" lon="6.19418">
        <ele>868.6</ele>
        <time>2022-09-18T14:31:48Z</time>
      </trkpt>
      <trkpt lat="44.56794" lon="6.19424">
        <ele>868.8</ele>
        <time>2022-09-18T14:31:49Z</time>
      </trkpt>
      <trkpt lat="44.56791" lon="6.1943">
        <ele>868.8</ele>
        <time>2022-09-18T14:31:50Z</time>
      </trkpt>
      <trkpt lat="44.56789" lon="6.19437">
        <ele>868.8</ele>
        <time>2022-09-18T14:31:51Z</time>
      </trkpt>
      <trkpt lat="44.56786" lon="6.19443">
        <ele>869</ele>
        <time>2022-09-18T14:31:52Z</time>
      </trkpt>
      <trkpt lat="44.56783" lon="6.19449">
        <ele>869.2</ele>
        <time>2022-09-18T14:31:53Z</time>
      </trkpt>
      <trkpt lat="44.56781" lon="6.19455">
        <ele>869</ele>
        <time>2022-09-18T14:31:54Z</time>
      </trkpt>
      <trkpt lat="44.56778" lon="6.19461">
        <ele>869.2</ele>
        <time>2022-09-18T14:31:55Z</time>
      </trkpt>
      <trkpt lat="44.56775" lon="6.19468">
        <ele>869.2</ele>
        <time>2022-09-18T14:31:56Z</time>
      </trkpt>
      <trkpt lat="44.56772" lon="6.19474">
        <ele>869</ele>
        <time>2022-09-18T14:31:57Z</time>
      </trkpt>
      <trkpt lat="44.5677" lon="6.1948">
        <ele>869</ele>
        <time>2022-09-18T14:31:58Z</time>
      </trkpt>
      <trkpt lat="44.56767" lon="6.19486">
        <ele>868.8</ele>
        <time>2022-09-18T14:31:59Z</time>
      </trkpt>
      <trkpt lat="44.56765" lon="6.19492">
        <ele>869.2</ele>
        <time>2022-09-18T14:32:00Z</time>
      </trkpt>
      <trkpt lat="44.56763" lon="6.19498">
        <ele>869.8</ele>
        <time>2022-09-18T14:32:01Z</time>
      </trkpt>
      <trkpt lat="44.5676" lon="6.19504">
        <ele>869.8</ele>
        <time>2022-09-18T14:32:02Z</time>
      </trkpt>
      <trkpt lat="44.56757" lon="6.19511">
        <ele>869.6</ele>
        <time>2022-09-18T14:32:03Z</time>
      </trkpt>
      <trkpt lat="44.56755" lon="6.19517">
        <ele>869.6</ele>
        <time>2022-09-18T14:32:04Z</time>
      </trkpt>
      <trkpt lat="44.56752" lon="6.19523">
        <ele>869.4</ele>
        <time>2022-09-18T14:32:05Z</time>
      </trkpt>
      <trkpt lat="44.5675" lon="6.19529">
        <ele>869.6</ele>
        <time>2022-09-18T14:32:06Z</time>
      </trkpt>
      <trkpt lat="44.56748" lon="6.19535">
        <ele>869.8</ele>
        <time>2022-09-18T14:32:07Z</time>
      </trkpt>
      <trkpt lat="44.56745" lon="6.19541">
        <ele>869.8</ele>
        <time>2022-09-18T14:32:08Z</time>
      </trkpt>
      <trkpt lat="44.56742" lon="6.19546">
        <ele>869.8</ele>
        <time>2022-09-18T14:32:09Z</time>
      </trkpt>
      <trkpt lat="44.5674" lon="6.1955">
        <ele>869.8</ele>
        <time>2022-09-18T14:32:10Z</time>
      </trkpt>
      <trkpt lat="44.56738" lon="6.19555">
        <ele>870</ele>
        <time>2022-09-18T14:32:11Z</time>
      </trkpt>
      <trkpt lat="44.56737" lon="6.19558">
        <ele>869.8</ele>
        <time>2022-09-18T14:32:12Z</time>
      </trkpt>
      <trkpt lat="44.56736" lon="6.19562">
        <ele>870</ele>
        <time>2022-09-18T14:32:13Z</time>
      </trkpt>
      <trkpt lat="44.56735" lon="6.19565">
        <ele>870</ele>
        <time>2022-09-18T14:32:14Z</time>
      </trkpt>
      <trkpt lat="44.56734" lon="6.19568">
        <ele>870</ele>
        <time>2022-09-18T14:32:15Z</time>
      </trkpt>
      <trkpt lat="44.56732" lon="6.1957">
        <ele>869.8</ele>
        <time>2022-09-18T14:32:16Z</time>
      </trkpt>
      <trkpt lat="44.56731" lon="6.19571">
        <ele>869.8</ele>
        <time>2022-09-18T14:32:17Z</time>
      </trkpt>
      <trkpt lat="44.56728" lon="6.19574">
        <ele>869.8</ele>
        <time>2022-09-18T14:32:19Z</time>
      </trkpt>
      <trkpt lat="44.56724" lon="6.19576">
        <ele>869.6</ele>
        <time>2022-09-18T14:32:21Z</time>
      </trkpt>
      <trkpt lat="44.56721" lon="6.19577">
        <ele>869.6</ele>
        <time>2022-09-18T14:32:22Z</time>
      </trkpt>
      <trkpt lat="44.56719" lon="6.19578">
        <ele>869.8</ele>
        <time>2022-09-18T14:32:23Z</time>
      </trkpt>
      <trkpt lat="44.56715" lon="6.19579">
        <ele>869.6</ele>
        <time>2022-09-18T14:32:24Z</time>
      </trkpt>
      <trkpt lat="44.56711" lon="6.1958">
        <ele>869</ele>
        <time>2022-09-18T14:32:25Z</time>
      </trkpt>
      <trkpt lat="44.56707" lon="6.19581">
        <ele>869</ele>
        <time>2022-09-18T14:32:26Z</time>
      </trkpt>
      <trkpt lat="44.56703" lon="6.19581">
        <ele>869.2</ele>
        <time>2022-09-18T14:32:27Z</time>
      </trkpt>
      <trkpt lat="44.56699" lon="6.19582">
        <ele>869.2</ele>
        <time>2022-09-18T14:32:28Z</time>
      </trkpt>
      <trkpt lat="44.56694" lon="6.19582">
        <ele>869.2</ele>
        <time>2022-09-18T14:32:29Z</time>
      </trkpt>
      <trkpt lat="44.56689" lon="6.19582">
        <ele>869.4</ele>
        <time>2022-09-18T14:32:30Z</time>
      </trkpt>
      <trkpt lat="44.56684" lon="6.19582">
        <ele>869.2</ele>
        <time>2022-09-18T14:32:31Z</time>
      </trkpt>
      <trkpt lat="44.5668" lon="6.19582">
        <ele>869.2</ele>
        <time>2022-09-18T14:32:32Z</time>
      </trkpt>
      <trkpt lat="44.56675" lon="6.19581">
        <ele>869.2</ele>
        <time>2022-09-18T14:32:33Z</time>
      </trkpt>
      <trkpt lat="44.5667" lon="6.19581">
        <ele>869.6</ele>
        <time>2022-09-18T14:32:34Z</time>
      </trkpt>
      <trkpt lat="44.56664" lon="6.19581">
        <ele>869.4</ele>
        <time>2022-09-18T14:32:35Z</time>
      </trkpt>
      <trkpt lat="44.56659" lon="6.19581">
        <ele>869.4</ele>
        <time>2022-09-18T14:32:36Z</time>
      </trkpt>
      <trkpt lat="44.56653" lon="6.1958">
        <ele>869.2</ele>
        <time>2022-09-18T14:32:37Z</time>
      </trkpt>
      <trkpt lat="44.56647" lon="6.19579">
        <ele>869</ele>
        <time>2022-09-18T14:32:38Z</time>
      </trkpt>
      <trkpt lat="44.56642" lon="6.19578">
        <ele>868.8</ele>
        <time>2022-09-18T14:32:39Z</time>
      </trkpt>
      <trkpt lat="44.56637" lon="6.19577">
        <ele>868.8</ele>
        <time>2022-09-18T14:32:40Z</time>
      </trkpt>
      <trkpt lat="44.56632" lon="6.19575">
        <ele>868.8</ele>
        <time>2022-09-18T14:32:41Z</time>
      </trkpt>
      <trkpt lat="44.56627" lon="6.19574">
        <ele>869</ele>
        <time>2022-09-18T14:32:42Z</time>
      </trkpt>
      <trkpt lat="44.56623" lon="6.19573">
        <ele>869.2</ele>
        <time>2022-09-18T14:32:43Z</time>
      </trkpt>
      <trkpt lat="44.56619" lon="6.19572">
        <ele>868.8</ele>
        <time>2022-09-18T14:32:44Z</time>
      </trkpt>
      <trkpt lat="44.56616" lon="6.19571">
        <ele>868.6</ele>
        <time>2022-09-18T14:32:45Z</time>
      </trkpt>
      <trkpt lat="44.56613" lon="6.1957">
        <ele>868.6</ele>
        <time>2022-09-18T14:32:46Z</time>
      </trkpt>
      <trkpt lat="44.5661" lon="6.19569">
        <ele>868.6</ele>
        <time>2022-09-18T14:32:47Z</time>
      </trkpt>
      <trkpt lat="44.56607" lon="6.19569">
        <ele>868.6</ele>
        <time>2022-09-18T14:32:48Z</time>
      </trkpt>
      <trkpt lat="44.56605" lon="6.1957">
        <ele>868.8</ele>
        <time>2022-09-18T14:32:49Z</time>
      </trkpt>
      <trkpt lat="44.56603" lon="6.19572">
        <ele>869</ele>
        <time>2022-09-18T14:32:50Z</time>
      </trkpt>
      <trkpt lat="44.56602" lon="6.19575">
        <ele>869</ele>
        <time>2022-09-18T14:32:51Z</time>
      </trkpt>
      <trkpt lat="44.56601" lon="6.19579">
        <ele>868.6</ele>
        <time>2022-09-18T14:32:52Z</time>
      </trkpt>
      <trkpt lat="44.566" lon="6.19583">
        <ele>868.6</ele>
        <time>2022-09-18T14:32:53Z</time>
      </trkpt>
      <trkpt lat="44.56599" lon="6.19587">
        <ele>868.2</ele>
        <time>2022-09-18T14:32:54Z</time>
      </trkpt>
      <trkpt lat="44.56598" lon="6.19592">
        <ele>868</ele>
        <time>2022-09-18T14:32:55Z</time>
      </trkpt>
      <trkpt lat="44.56597" lon="6.19597">
        <ele>867.8</ele>
        <time>2022-09-18T14:32:56Z</time>
      </trkpt>
      <trkpt lat="44.56595" lon="6.19603">
        <ele>867.6</ele>
        <time>2022-09-18T14:32:57Z</time>
      </trkpt>
      <trkpt lat="44.56593" lon="6.19609">
        <ele>867.6</ele>
        <time>2022-09-18T14:32:58Z</time>
      </trkpt>
      <trkpt lat="44.56591" lon="6.19614">
        <ele>867.4</ele>
        <time>2022-09-18T14:32:59Z</time>
      </trkpt>
      <trkpt lat="44.56588" lon="6.1962">
        <ele>867.6</ele>
        <time>2022-09-18T14:33:00Z</time>
      </trkpt>
      <trkpt lat="44.56585" lon="6.19625">
        <ele>867.4</ele>
        <time>2022-09-18T14:33:01Z</time>
      </trkpt>
      <trkpt lat="44.56581" lon="6.19631">
        <ele>867.6</ele>
        <time>2022-09-18T14:33:02Z</time>
      </trkpt>
      <trkpt lat="44.56578" lon="6.19637">
        <ele>867.4</ele>
        <time>2022-09-18T14:33:03Z</time>
      </trkpt>
      <trkpt lat="44.56574" lon="6.19643">
        <ele>867.4</ele>
        <time>2022-09-18T14:33:04Z</time>
      </trkpt>
      <trkpt lat="44.56571" lon="6.19648">
        <ele>867.6</ele>
        <time>2022-09-18T14:33:05Z</time>
      </trkpt>
      <trkpt lat="44.56568" lon="6.19653">
        <ele>867.4</ele>
        <time>2022-09-18T14:33:06Z</time>
      </trkpt>
      <trkpt lat="44.56564" lon="6.19659">
        <ele>867.4</ele>
        <time>2022-09-18T14:33:07Z</time>
      </trkpt>
      <trkpt lat="44.56561" lon="6.19664">
        <ele>867.2</ele>
        <time>2022-09-18T14:33:08Z</time>
      </trkpt>
      <trkpt lat="44.56557" lon="6.1967">
        <ele>867.2</ele>
        <time>2022-09-18T14:33:09Z</time>
      </trkpt>
      <trkpt lat="44.56553" lon="6.19675">
        <ele>867.2</ele>
        <time>2022-09-18T14:33:10Z</time>
      </trkpt>
      <trkpt lat="44.56549" lon="6.19681">
        <ele>867</ele>
        <time>2022-09-18T14:33:11Z</time>
      </trkpt>
      <trkpt lat="44.56545" lon="6.19687">
        <ele>867.2</ele>
        <time>2022-09-18T14:33:12Z</time>
      </trkpt>
      <trkpt lat="44.56542" lon="6.19692">
        <ele>867.2</ele>
        <time>2022-09-18T14:33:13Z</time>
      </trkpt>
      <trkpt lat="44.56538" lon="6.19698">
        <ele>867.2</ele>
        <time>2022-09-18T14:33:14Z</time>
      </trkpt>
      <trkpt lat="44.56535" lon="6.19703">
        <ele>867.2</ele>
        <time>2022-09-18T14:33:15Z</time>
      </trkpt>
      <trkpt lat="44.56531" lon="6.19708">
        <ele>867</ele>
        <time>2022-09-18T14:33:16Z</time>
      </trkpt>
      <trkpt lat="44.56527" lon="6.19714">
        <ele>867</ele>
        <time>2022-09-18T14:33:17Z</time>
      </trkpt>
      <trkpt lat="44.56523" lon="6.1972">
        <ele>866.8</ele>
        <time>2022-09-18T14:33:18Z</time>
      </trkpt>
      <trkpt lat="44.56519" lon="6.19725">
        <ele>866.8</ele>
        <time>2022-09-18T14:33:19Z</time>
      </trkpt>
      <trkpt lat="44.56516" lon="6.19731">
        <ele>866.6</ele>
        <time>2022-09-18T14:33:20Z</time>
      </trkpt>
      <trkpt lat="44.56513" lon="6.19736">
        <ele>866.8</ele>
        <time>2022-09-18T14:33:21Z</time>
      </trkpt>
      <trkpt lat="44.56509" lon="6.19742">
        <ele>867</ele>
        <time>2022-09-18T14:33:22Z</time>
      </trkpt>
      <trkpt lat="44.56506" lon="6.19747">
        <ele>867</ele>
        <time>2022-09-18T14:33:23Z</time>
      </trkpt>
      <trkpt lat="44.56503" lon="6.19752">
        <ele>867</ele>
        <time>2022-09-18T14:33:24Z</time>
      </trkpt>
      <trkpt lat="44.56499" lon="6.19758">
        <ele>867</ele>
        <time>2022-09-18T14:33:25Z</time>
      </trkpt>
      <trkpt lat="44.56496" lon="6.19763">
        <ele>867</ele>
        <time>2022-09-18T14:33:26Z</time>
      </trkpt>
      <trkpt lat="44.56493" lon="6.19767">
        <ele>867</ele>
        <time>2022-09-18T14:33:27Z</time>
      </trkpt>
      <trkpt lat="44.5649" lon="6.1977">
        <ele>866.8</ele>
        <time>2022-09-18T14:33:28Z</time>
      </trkpt>
      <trkpt lat="44.56487" lon="6.19771">
        <ele>867</ele>
        <time>2022-09-18T14:33:29Z</time>
      </trkpt>
      <trkpt lat="44.56485" lon="6.19769">
        <ele>867</ele>
        <time>2022-09-18T14:33:30Z</time>
      </trkpt>
      <trkpt lat="44.56484" lon="6.19766">
        <ele>866.8</ele>
        <time>2022-09-18T14:33:31Z</time>
      </trkpt>
      <trkpt lat="44.56483" lon="6.19762">
        <ele>867</ele>
        <time>2022-09-18T14:33:32Z</time>
      </trkpt>
      <trkpt lat="44.56484" lon="6.19758">
        <ele>867.2</ele>
        <time>2022-09-18T14:33:33Z</time>
      </trkpt>
      <trkpt lat="44.56485" lon="6.19755">
        <ele>867.4</ele>
        <time>2022-09-18T14:33:34Z</time>
      </trkpt>
      <trkpt lat="44.56486" lon="6.19751">
        <ele>867.4</ele>
        <time>2022-09-18T14:33:35Z</time>
      </trkpt>
      <trkpt lat="44.56487" lon="6.19746">
        <ele>867.2</ele>
        <time>2022-09-18T14:33:36Z</time>
      </trkpt>
      <trkpt lat="44.56488" lon="6.19742">
        <ele>867.2</ele>
        <time>2022-09-18T14:33:37Z</time>
      </trkpt>
      <trkpt lat="44.56488" lon="6.19737">
        <ele>867.2</ele>
        <time>2022-09-18T14:33:38Z</time>
      </trkpt>
      <trkpt lat="44.56489" lon="6.19732">
        <ele>867.2</ele>
        <time>2022-09-18T14:33:39Z</time>
      </trkpt>
      <trkpt lat="44.5649" lon="6.19726">
        <ele>867.2</ele>
        <time>2022-09-18T14:33:40Z</time>
      </trkpt>
      <trkpt lat="44.56491" lon="6.19721">
        <ele>867.4</ele>
        <time>2022-09-18T14:33:41Z</time>
      </trkpt>
      <trkpt lat="44.56491" lon="6.19715">
        <ele>867.6</ele>
        <time>2022-09-18T14:33:42Z</time>
      </trkpt>
      <trkpt lat="44.5649" lon="6.1971">
        <ele>867.4</ele>
        <time>2022-09-18T14:33:43Z</time>
      </trkpt>
      <trkpt lat="44.56489" lon="6.19705">
        <ele>867.4</ele>
        <time>2022-09-18T14:33:44Z</time>
      </trkpt>
      <trkpt lat="44.56489" lon="6.197">
        <ele>867.4</ele>
        <time>2022-09-18T14:33:45Z</time>
      </trkpt>
      <trkpt lat="44.56488" lon="6.19694">
        <ele>867.8</ele>
        <time>2022-09-18T14:33:46Z</time>
      </trkpt>
      <trkpt lat="44.56487" lon="6.19689">
        <ele>867.6</ele>
        <time>2022-09-18T14:33:47Z</time>
      </trkpt>
      <trkpt lat="44.56486" lon="6.19684">
        <ele>867.6</ele>
        <time>2022-09-18T14:33:48Z</time>
      </trkpt>
      <trkpt lat="44.56485" lon="6.19678">
        <ele>867.6</ele>
        <time>2022-09-18T14:33:49Z</time>
      </trkpt>
      <trkpt lat="44.56483" lon="6.19673">
        <ele>867.4</ele>
        <time>2022-09-18T14:33:50Z</time>
      </trkpt>
      <trkpt lat="44.56481" lon="6.19667">
        <ele>867.8</ele>
        <time>2022-09-18T14:33:51Z</time>
      </trkpt>
      <trkpt lat="44.56479" lon="6.19661">
        <ele>868</ele>
        <time>2022-09-18T14:33:52Z</time>
      </trkpt>
      <trkpt lat="44.56478" lon="6.19654">
        <ele>867.6</ele>
        <time>2022-09-18T14:33:53Z</time>
      </trkpt>
      <trkpt lat="44.56477" lon="6.19647">
        <ele>867.4</ele>
        <time>2022-09-18T14:33:54Z</time>
      </trkpt>
      <trkpt lat="44.56477" lon="6.19639">
        <ele>867.6</ele>
        <time>2022-09-18T14:33:55Z</time>
      </trkpt>
      <trkpt lat="44.56478" lon="6.19632">
        <ele>867.6</ele>
        <time>2022-09-18T14:33:56Z</time>
      </trkpt>
      <trkpt lat="44.5648" lon="6.19624">
        <ele>867.8</ele>
        <time>2022-09-18T14:33:57Z</time>
      </trkpt>
      <trkpt lat="44.56481" lon="6.19618">
        <ele>867.6</ele>
        <time>2022-09-18T14:33:58Z</time>
      </trkpt>
      <trkpt lat="44.56484" lon="6.19606">
        <ele>867.8</ele>
        <time>2022-09-18T14:34:00Z</time>
      </trkpt>
      <trkpt lat="44.56486" lon="6.19592">
        <ele>867.4</ele>
        <time>2022-09-18T14:34:02Z</time>
      </trkpt>
      <trkpt lat="44.56487" lon="6.19578">
        <ele>867.6</ele>
        <time>2022-09-18T14:34:04Z</time>
      </trkpt>
      <trkpt lat="44.5649" lon="6.19564">
        <ele>868</ele>
        <time>2022-09-18T14:34:06Z</time>
      </trkpt>
      <trkpt lat="44.56492" lon="6.19558">
        <ele>867.8</ele>
        <time>2022-09-18T14:34:07Z</time>
      </trkpt>
      <trkpt lat="44.56493" lon="6.19551">
        <ele>867.6</ele>
        <time>2022-09-18T14:34:08Z</time>
      </trkpt>
      <trkpt lat="44.56496" lon="6.19538">
        <ele>867.4</ele>
        <time>2022-09-18T14:34:10Z</time>
      </trkpt>
      <trkpt lat="44.565" lon="6.19525">
        <ele>868</ele>
        <time>2022-09-18T14:34:12Z</time>
      </trkpt>
      <trkpt lat="44.56505" lon="6.19513">
        <ele>868</ele>
        <time>2022-09-18T14:34:14Z</time>
      </trkpt>
      <trkpt lat="44.56511" lon="6.19504">
        <ele>867.6</ele>
        <time>2022-09-18T14:34:16Z</time>
      </trkpt>
      <trkpt lat="44.56523" lon="6.19494">
        <ele>867.4</ele>
        <time>2022-09-18T14:34:19Z</time>
      </trkpt>
      <trkpt lat="44.56526" lon="6.1949">
        <ele>867.2</ele>
        <time>2022-09-18T14:34:20Z</time>
      </trkpt>
      <trkpt lat="44.56532" lon="6.19478">
        <ele>867.2</ele>
        <time>2022-09-18T14:34:23Z</time>
      </trkpt>
      <trkpt lat="44.5653" lon="6.19462">
        <ele>865.6</ele>
        <time>2022-09-18T14:34:27Z</time>
      </trkpt>
      <trkpt lat="44.56529" lon="6.19456">
        <ele>865.6</ele>
        <time>2022-09-18T14:34:28Z</time>
      </trkpt>
      <trkpt lat="44.56528" lon="6.19452">
        <ele>865.4</ele>
        <time>2022-09-18T14:34:29Z</time>
      </trkpt>
      <trkpt lat="44.56526" lon="6.19448">
        <ele>865.2</ele>
        <time>2022-09-18T14:34:30Z</time>
      </trkpt>
      <trkpt lat="44.56524" lon="6.19446">
        <ele>865</ele>
        <time>2022-09-18T14:34:31Z</time>
      </trkpt>
      <trkpt lat="44.56522" lon="6.19444">
        <ele>865</ele>
        <time>2022-09-18T14:34:32Z</time>
      </trkpt>
      <trkpt lat="44.5652" lon="6.19443">
        <ele>865</ele>
        <time>2022-09-18T14:34:33Z</time>
      </trkpt>
      <trkpt lat="44.56518" lon="6.19442">
        <ele>865</ele>
        <time>2022-09-18T14:34:35Z</time>
      </trkpt>
      <trkpt lat="44.5652" lon="6.19444">
        <ele>864.8</ele>
        <time>2022-09-18T14:34:39Z</time>
      </trkpt>
      <trkpt lat="44.56522" lon="6.19443">
        <ele>864.8</ele>
        <time>2022-09-18T14:34:40Z</time>
      </trkpt>
      <trkpt lat="44.56524" lon="6.19442">
        <ele>864.8</ele>
        <time>2022-09-18T14:34:41Z</time>
      </trkpt>
      <trkpt lat="44.56527" lon="6.19441">
        <ele>864.8</ele>
        <time>2022-09-18T14:34:42Z</time>
      </trkpt>
      <trkpt lat="44.56529" lon="6.1944">
        <ele>864.8</ele>
        <time>2022-09-18T14:34:43Z</time>
      </trkpt>
      <trkpt lat="44.56532" lon="6.1944">
        <ele>864.6</ele>
        <time>2022-09-18T14:34:44Z</time>
      </trkpt>
      <trkpt lat="44.56534" lon="6.19439">
        <ele>864.8</ele>
        <time>2022-09-18T14:34:45Z</time>
      </trkpt>
      <trkpt lat="44.56535" lon="6.19437">
        <ele>864.8</ele>
        <time>2022-09-18T14:34:46Z</time>
      </trkpt>
      <trkpt lat="44.56536" lon="6.19432">
        <ele>864.6</ele>
        <time>2022-09-18T14:34:48Z</time>
      </trkpt>
      <trkpt lat="44.56536" lon="6.19428">
        <ele>864.4</ele>
        <time>2022-09-18T14:34:49Z</time>
      </trkpt>
      <trkpt lat="44.56536" lon="6.19423">
        <ele>864.6</ele>
        <time>2022-09-18T14:34:50Z</time>
      </trkpt>
      <trkpt lat="44.56537" lon="6.19418">
        <ele>864.8</ele>
        <time>2022-09-18T14:34:51Z</time>
      </trkpt>
      <trkpt lat="44.56538" lon="6.19414">
        <ele>864.4</ele>
        <time>2022-09-18T14:34:52Z</time>
      </trkpt>
      <trkpt lat="44.5654" lon="6.19409">
        <ele>864.6</ele>
        <time>2022-09-18T14:34:53Z</time>
      </trkpt>
      <trkpt lat="44.56541" lon="6.19404">
        <ele>864.4</ele>
        <time>2022-09-18T14:34:54Z</time>
      </trkpt>
      <trkpt lat="44.56543" lon="6.19399">
        <ele>864</ele>
        <time>2022-09-18T14:34:55Z</time>
      </trkpt>
      <trkpt lat="44.56545" lon="6.19395">
        <ele>863.8</ele>
        <time>2022-09-18T14:34:56Z</time>
      </trkpt>
      <trkpt lat="44.56546" lon="6.19391">
        <ele>863.8</ele>
        <time>2022-09-18T14:34:57Z</time>
      </trkpt>
      <trkpt lat="44.56547" lon="6.19388">
        <ele>863.6</ele>
        <time>2022-09-18T14:34:58Z</time>
      </trkpt>
      <trkpt lat="44.56547" lon="6.19384">
        <ele>863.6</ele>
        <time>2022-09-18T14:34:59Z</time>
      </trkpt>
      <trkpt lat="44.56548" lon="6.19381">
        <ele>863.4</ele>
        <time>2022-09-18T14:35:00Z</time>
      </trkpt>
      <trkpt lat="44.56548" lon="6.19378">
        <ele>863.2</ele>
        <time>2022-09-18T14:35:01Z</time>
      </trkpt>
      <trkpt lat="44.56548" lon="6.19376">
        <ele>863.2</ele>
        <time>2022-09-18T14:35:02Z</time>
      </trkpt>
      <trkpt lat="44.56548" lon="6.19373">
        <ele>862.4</ele>
        <time>2022-09-18T14:35:12Z</time>
      </trkpt>
      <trkpt lat="44.5655" lon="6.19372">
        <ele>862.4</ele>
        <time>2022-09-18T14:35:14Z</time>
      </trkpt>
      <trkpt lat="44.56553" lon="6.19372">
        <ele>862.2</ele>
        <time>2022-09-18T14:35:16Z</time>
      </trkpt>
      <trkpt lat="44.56555" lon="6.19371">
        <ele>862.4</ele>
        <time>2022-09-18T14:35:17Z</time>
      </trkpt>
      <trkpt lat="44.56558" lon="6.1937">
        <ele>862.2</ele>
        <time>2022-09-18T14:35:19Z</time>
      </trkpt>
      <trkpt lat="44.5656" lon="6.19372">
        <ele>862</ele>
        <time>2022-09-18T14:35:21Z</time>
      </trkpt>
      <trkpt lat="44.56562" lon="6.19374">
        <ele>859</ele>
        <time>2022-09-18T14:35:39Z</time>
      </trkpt>
      <trkpt lat="44.56564" lon="6.19377">
        <ele>858.6</ele>
        <time>2022-09-18T14:35:41Z</time>
      </trkpt>
      <trkpt lat="44.56565" lon="6.1938">
        <ele>858.6</ele>
        <time>2022-09-18T14:35:42Z</time>
      </trkpt>
      <trkpt lat="44.56566" lon="6.19383">
        <ele>858.4</ele>
        <time>2022-09-18T14:35:43Z</time>
      </trkpt>
      <trkpt lat="44.56567" lon="6.19386">
        <ele>858.4</ele>
        <time>2022-09-18T14:35:44Z</time>
      </trkpt>
      <trkpt lat="44.56567" lon="6.1939">
        <ele>858.2</ele>
        <time>2022-09-18T14:35:45Z</time>
      </trkpt>
      <trkpt lat="44.56568" lon="6.19394">
        <ele>858.2</ele>
        <time>2022-09-18T14:35:46Z</time>
      </trkpt>
      <trkpt lat="44.56569" lon="6.19398">
        <ele>858.2</ele>
        <time>2022-09-18T14:35:47Z</time>
      </trkpt>
      <trkpt lat="44.5657" lon="6.19402">
        <ele>858.2</ele>
        <time>2022-09-18T14:35:48Z</time>
      </trkpt>
      <trkpt lat="44.56572" lon="6.19407">
        <ele>858</ele>
        <time>2022-09-18T14:35:49Z</time>
      </trkpt>
      <trkpt lat="44.56575" lon="6.19421">
        <ele>857.8</ele>
        <time>2022-09-18T14:35:52Z</time>
      </trkpt>
      <trkpt lat="44.56577" lon="6.19438">
        <ele>857.6</ele>
        <time>2022-09-18T14:35:55Z</time>
      </trkpt>
      <trkpt lat="44.56579" lon="6.19451">
        <ele>857.6</ele>
        <time>2022-09-18T14:35:57Z</time>
      </trkpt>
      <trkpt lat="44.5658" lon="6.19457">
        <ele>857.6</ele>
        <time>2022-09-18T14:35:58Z</time>
      </trkpt>
      <trkpt lat="44.56581" lon="6.19462">
        <ele>858</ele>
        <time>2022-09-18T14:35:59Z</time>
      </trkpt>
      <trkpt lat="44.56584" lon="6.19477">
        <ele>858.2</ele>
        <time>2022-09-18T14:36:02Z</time>
      </trkpt>
      <trkpt lat="44.56585" lon="6.19483">
        <ele>858.2</ele>
        <time>2022-09-18T14:36:03Z</time>
      </trkpt>
      <trkpt lat="44.56587" lon="6.19489">
        <ele>858.2</ele>
        <time>2022-09-18T14:36:04Z</time>
      </trkpt>
      <trkpt lat="44.56588" lon="6.19494">
        <ele>858.2</ele>
        <time>2022-09-18T14:36:05Z</time>
      </trkpt>
      <trkpt lat="44.5659" lon="6.195">
        <ele>858.4</ele>
        <time>2022-09-18T14:36:06Z</time>
      </trkpt>
      <trkpt lat="44.56592" lon="6.19506">
        <ele>858.4</ele>
        <time>2022-09-18T14:36:07Z</time>
      </trkpt>
      <trkpt lat="44.56594" lon="6.19512">
        <ele>858.4</ele>
        <time>2022-09-18T14:36:08Z</time>
      </trkpt>
      <trkpt lat="44.56596" lon="6.19518">
        <ele>858.2</ele>
        <time>2022-09-18T14:36:09Z</time>
      </trkpt>
      <trkpt lat="44.56597" lon="6.19524">
        <ele>858</ele>
        <time>2022-09-18T14:36:10Z</time>
      </trkpt>
      <trkpt lat="44.56598" lon="6.1953">
        <ele>858.2</ele>
        <time>2022-09-18T14:36:11Z</time>
      </trkpt>
      <trkpt lat="44.566" lon="6.19536">
        <ele>858.2</ele>
        <time>2022-09-18T14:36:12Z</time>
      </trkpt>
      <trkpt lat="44.56601" lon="6.19542">
        <ele>858.4</ele>
        <time>2022-09-18T14:36:13Z</time>
      </trkpt>
      <trkpt lat="44.56603" lon="6.19548">
        <ele>858.4</ele>
        <time>2022-09-18T14:36:14Z</time>
      </trkpt>
      <trkpt lat="44.56604" lon="6.19554">
        <ele>858.4</ele>
        <time>2022-09-18T14:36:15Z</time>
      </trkpt>
      <trkpt lat="44.56604" lon="6.1956">
        <ele>858.4</ele>
        <time>2022-09-18T14:36:16Z</time>
      </trkpt>
      <trkpt lat="44.56604" lon="6.19567">
        <ele>858.4</ele>
        <time>2022-09-18T14:36:17Z</time>
      </trkpt>
      <trkpt lat="44.56604" lon="6.19574">
        <ele>858.6</ele>
        <time>2022-09-18T14:36:18Z</time>
      </trkpt>
      <trkpt lat="44.56603" lon="6.1958">
        <ele>858.6</ele>
        <time>2022-09-18T14:36:19Z</time>
      </trkpt>
      <trkpt lat="44.56602" lon="6.19587">
        <ele>858.6</ele>
        <time>2022-09-18T14:36:20Z</time>
      </trkpt>
      <trkpt lat="44.566" lon="6.19594">
        <ele>858.6</ele>
        <time>2022-09-18T14:36:21Z</time>
      </trkpt>
      <trkpt lat="44.56599" lon="6.19601">
        <ele>858.4</ele>
        <time>2022-09-18T14:36:22Z</time>
      </trkpt>
      <trkpt lat="44.56597" lon="6.19608">
        <ele>858.6</ele>
        <time>2022-09-18T14:36:23Z</time>
      </trkpt>
      <trkpt lat="44.56594" lon="6.19613">
        <ele>858.8</ele>
        <time>2022-09-18T14:36:24Z</time>
      </trkpt>
      <trkpt lat="44.56592" lon="6.19618">
        <ele>858.8</ele>
        <time>2022-09-18T14:36:25Z</time>
      </trkpt>
      <trkpt lat="44.56589" lon="6.19624">
        <ele>858.8</ele>
        <time>2022-09-18T14:36:26Z</time>
      </trkpt>
      <trkpt lat="44.56586" lon="6.19629">
        <ele>859</ele>
        <time>2022-09-18T14:36:27Z</time>
      </trkpt>
      <trkpt lat="44.56582" lon="6.19634">
        <ele>858.8</ele>
        <time>2022-09-18T14:36:28Z</time>
      </trkpt>
      <trkpt lat="44.56579" lon="6.19639">
        <ele>858.8</ele>
        <time>2022-09-18T14:36:29Z</time>
      </trkpt>
      <trkpt lat="44.56576" lon="6.19644">
        <ele>858.8</ele>
        <time>2022-09-18T14:36:30Z</time>
      </trkpt>
      <trkpt lat="44.56572" lon="6.19649">
        <ele>858.8</ele>
        <time>2022-09-18T14:36:31Z</time>
      </trkpt>
      <trkpt lat="44.56569" lon="6.19654">
        <ele>858.8</ele>
        <time>2022-09-18T14:36:32Z</time>
      </trkpt>
      <trkpt lat="44.56565" lon="6.19659">
        <ele>858.8</ele>
        <time>2022-09-18T14:36:33Z</time>
      </trkpt>
      <trkpt lat="44.56561" lon="6.19664">
        <ele>858.8</ele>
        <time>2022-09-18T14:36:34Z</time>
      </trkpt>
      <trkpt lat="44.56558" lon="6.1967">
        <ele>859</ele>
        <time>2022-09-18T14:36:35Z</time>
      </trkpt>
      <trkpt lat="44.56554" lon="6.19676">
        <ele>859</ele>
        <time>2022-09-18T14:36:36Z</time>
      </trkpt>
      <trkpt lat="44.56551" lon="6.19681">
        <ele>859.2</ele>
        <time>2022-09-18T14:36:37Z</time>
      </trkpt>
      <trkpt lat="44.56547" lon="6.19687">
        <ele>859.4</ele>
        <time>2022-09-18T14:36:38Z</time>
      </trkpt>
      <trkpt lat="44.56543" lon="6.19693">
        <ele>859.4</ele>
        <time>2022-09-18T14:36:39Z</time>
      </trkpt>
      <trkpt lat="44.56539" lon="6.19699">
        <ele>859.6</ele>
        <time>2022-09-18T14:36:40Z</time>
      </trkpt>
      <trkpt lat="44.56535" lon="6.19705">
        <ele>859.6</ele>
        <time>2022-09-18T14:36:41Z</time>
      </trkpt>
      <trkpt lat="44.56531" lon="6.1971">
        <ele>859.8</ele>
        <time>2022-09-18T14:36:42Z</time>
      </trkpt>
      <trkpt lat="44.56527" lon="6.19715">
        <ele>860</ele>
        <time>2022-09-18T14:36:43Z</time>
      </trkpt>
      <trkpt lat="44.56523" lon="6.19721">
        <ele>860.2</ele>
        <time>2022-09-18T14:36:44Z</time>
      </trkpt>
      <trkpt lat="44.5652" lon="6.19726">
        <ele>860.2</ele>
        <time>2022-09-18T14:36:45Z</time>
      </trkpt>
      <trkpt lat="44.56516" lon="6.19732">
        <ele>860.2</ele>
        <time>2022-09-18T14:36:46Z</time>
      </trkpt>
      <trkpt lat="44.56513" lon="6.19737">
        <ele>860.2</ele>
        <time>2022-09-18T14:36:47Z</time>
      </trkpt>
      <trkpt lat="44.56509" lon="6.19743">
        <ele>860.4</ele>
        <time>2022-09-18T14:36:48Z</time>
      </trkpt>
      <trkpt lat="44.56506" lon="6.19749">
        <ele>860.6</ele>
        <time>2022-09-18T14:36:49Z</time>
      </trkpt>
      <trkpt lat="44.56502" lon="6.19754">
        <ele>860.6</ele>
        <time>2022-09-18T14:36:50Z</time>
      </trkpt>
      <trkpt lat="44.56498" lon="6.1976">
        <ele>860.8</ele>
        <time>2022-09-18T14:36:51Z</time>
      </trkpt>
      <trkpt lat="44.56495" lon="6.19765">
        <ele>860.6</ele>
        <time>2022-09-18T14:36:52Z</time>
      </trkpt>
      <trkpt lat="44.56491" lon="6.1977">
        <ele>860.8</ele>
        <time>2022-09-18T14:36:53Z</time>
      </trkpt>
      <trkpt lat="44.56488" lon="6.19776">
        <ele>860.8</ele>
        <time>2022-09-18T14:36:54Z</time>
      </trkpt>
      <trkpt lat="44.56486" lon="6.19781">
        <ele>861</ele>
        <time>2022-09-18T14:36:55Z</time>
      </trkpt>
      <trkpt lat="44.56484" lon="6.19787">
        <ele>861.2</ele>
        <time>2022-09-18T14:36:56Z</time>
      </trkpt>
      <trkpt lat="44.56482" lon="6.19794">
        <ele>861.2</ele>
        <time>2022-09-18T14:36:57Z</time>
      </trkpt>
      <trkpt lat="44.5648" lon="6.19801">
        <ele>861.4</ele>
        <time>2022-09-18T14:36:58Z</time>
      </trkpt>
      <trkpt lat="44.56479" lon="6.19809">
        <ele>861.4</ele>
        <time>2022-09-18T14:36:59Z</time>
      </trkpt>
      <trkpt lat="44.56478" lon="6.19816">
        <ele>861.6</ele>
        <time>2022-09-18T14:37:00Z</time>
      </trkpt>
      <trkpt lat="44.56478" lon="6.19823">
        <ele>861.8</ele>
        <time>2022-09-18T14:37:01Z</time>
      </trkpt>
      <trkpt lat="44.56477" lon="6.1983">
        <ele>862</ele>
        <time>2022-09-18T14:37:02Z</time>
      </trkpt>
      <trkpt lat="44.56476" lon="6.19836">
        <ele>862</ele>
        <time>2022-09-18T14:37:03Z</time>
      </trkpt>
      <trkpt lat="44.56475" lon="6.19841">
        <ele>862</ele>
        <time>2022-09-18T14:37:04Z</time>
      </trkpt>
      <trkpt lat="44.56473" lon="6.19845">
        <ele>862.2</ele>
        <time>2022-09-18T14:37:05Z</time>
      </trkpt>
      <trkpt lat="44.5647" lon="6.19848">
        <ele>862.2</ele>
        <time>2022-09-18T14:37:06Z</time>
      </trkpt>
      <trkpt lat="44.56467" lon="6.19848">
        <ele>862.2</ele>
        <time>2022-09-18T14:37:07Z</time>
      </trkpt>
      <trkpt lat="44.56464" lon="6.19848">
        <ele>862.2</ele>
        <time>2022-09-18T14:37:08Z</time>
      </trkpt>
      <trkpt lat="44.5646" lon="6.19847">
        <ele>862.2</ele>
        <time>2022-09-18T14:37:09Z</time>
      </trkpt>
      <trkpt lat="44.56456" lon="6.19847">
        <ele>862.2</ele>
        <time>2022-09-18T14:37:10Z</time>
      </trkpt>
      <trkpt lat="44.56452" lon="6.19846">
        <ele>862.2</ele>
        <time>2022-09-18T14:37:11Z</time>
      </trkpt>
      <trkpt lat="44.56448" lon="6.19846">
        <ele>862.2</ele>
        <time>2022-09-18T14:37:12Z</time>
      </trkpt>
      <trkpt lat="44.56444" lon="6.19845">
        <ele>862.2</ele>
        <time>2022-09-18T14:37:13Z</time>
      </trkpt>
      <trkpt lat="44.5644" lon="6.19846">
        <ele>862.4</ele>
        <time>2022-09-18T14:37:14Z</time>
      </trkpt>
      <trkpt lat="44.56437" lon="6.19845">
        <ele>862.4</ele>
        <time>2022-09-18T14:37:15Z</time>
      </trkpt>
      <trkpt lat="44.56434" lon="6.19844">
        <ele>862.4</ele>
        <time>2022-09-18T14:37:16Z</time>
      </trkpt>
      <trkpt lat="44.56432" lon="6.19843">
        <ele>862.6</ele>
        <time>2022-09-18T14:37:17Z</time>
      </trkpt>
      <trkpt lat="44.56429" lon="6.19843">
        <ele>862.6</ele>
        <time>2022-09-18T14:37:18Z</time>
      </trkpt>
      <trkpt lat="44.56426" lon="6.19843">
        <ele>862.8</ele>
        <time>2022-09-18T14:37:19Z</time>
      </trkpt>
      <trkpt lat="44.56424" lon="6.19842">
        <ele>862.8</ele>
        <time>2022-09-18T14:37:20Z</time>
      </trkpt>
      <trkpt lat="44.56422" lon="6.19842">
        <ele>862.8</ele>
        <time>2022-09-18T14:37:21Z</time>
      </trkpt>
      <trkpt lat="44.5642" lon="6.19841">
        <ele>863</ele>
        <time>2022-09-18T14:37:22Z</time>
      </trkpt>
      <trkpt lat="44.56418" lon="6.1984">
        <ele>863</ele>
        <time>2022-09-18T14:37:23Z</time>
      </trkpt>
      <trkpt lat="44.56416" lon="6.19839">
        <ele>863.2</ele>
        <time>2022-09-18T14:37:24Z</time>
      </trkpt>
      <trkpt lat="44.56414" lon="6.19838">
        <ele>863</ele>
        <time>2022-09-18T14:37:25Z</time>
      </trkpt>
      <trkpt lat="44.56412" lon="6.19837">
        <ele>863</ele>
        <time>2022-09-18T14:37:26Z</time>
      </trkpt>
      <trkpt lat="44.5641" lon="6.19835">
        <ele>863</ele>
        <time>2022-09-18T14:37:27Z</time>
      </trkpt>
      <trkpt lat="44.56408" lon="6.19833">
        <ele>863.2</ele>
        <time>2022-09-18T14:37:28Z</time>
      </trkpt>
      <trkpt lat="44.56405" lon="6.19831">
        <ele>863</ele>
        <time>2022-09-18T14:37:29Z</time>
      </trkpt>
      <trkpt lat="44.56403" lon="6.1983">
        <ele>863</ele>
        <time>2022-09-18T14:37:30Z</time>
      </trkpt>
      <trkpt lat="44.56401" lon="6.19827">
        <ele>863</ele>
        <time>2022-09-18T14:37:31Z</time>
      </trkpt>
      <trkpt lat="44.56399" lon="6.19825">
        <ele>862.8</ele>
        <time>2022-09-18T14:37:32Z</time>
      </trkpt>
      <trkpt lat="44.56396" lon="6.19823">
        <ele>862.8</ele>
        <time>2022-09-18T14:37:33Z</time>
      </trkpt>
      <trkpt lat="44.56394" lon="6.19822">
        <ele>863</ele>
        <time>2022-09-18T14:37:34Z</time>
      </trkpt>
      <trkpt lat="44.5639" lon="6.1982">
        <ele>863.2</ele>
        <time>2022-09-18T14:37:35Z</time>
      </trkpt>
      <trkpt lat="44.56384" lon="6.19814">
        <ele>863.2</ele>
        <time>2022-09-18T14:37:37Z</time>
      </trkpt>
      <trkpt lat="44.5638" lon="6.19811">
        <ele>863.4</ele>
        <time>2022-09-18T14:37:38Z</time>
      </trkpt>
      <trkpt lat="44.56375" lon="6.19808">
        <ele>863.4</ele>
        <time>2022-09-18T14:37:39Z</time>
      </trkpt>
      <trkpt lat="44.5637" lon="6.19806">
        <ele>863.2</ele>
        <time>2022-09-18T14:37:40Z</time>
      </trkpt>
      <trkpt lat="44.56366" lon="6.19805">
        <ele>863.2</ele>
        <time>2022-09-18T14:37:41Z</time>
      </trkpt>
      <trkpt lat="44.56361" lon="6.19804">
        <ele>863</ele>
        <time>2022-09-18T14:37:42Z</time>
      </trkpt>
      <trkpt lat="44.56358" lon="6.19802">
        <ele>863</ele>
        <time>2022-09-18T14:37:43Z</time>
      </trkpt>
      <trkpt lat="44.56355" lon="6.19802">
        <ele>862.6</ele>
        <time>2022-09-18T14:37:44Z</time>
      </trkpt>
      <trkpt lat="44.56351" lon="6.19802">
        <ele>862.4</ele>
        <time>2022-09-18T14:37:45Z</time>
      </trkpt>
      <trkpt lat="44.56348" lon="6.19802">
        <ele>862.2</ele>
        <time>2022-09-18T14:37:46Z</time>
      </trkpt>
      <trkpt lat="44.56345" lon="6.19801">
        <ele>862</ele>
        <time>2022-09-18T14:37:47Z</time>
      </trkpt>
      <trkpt lat="44.56341" lon="6.198">
        <ele>862.2</ele>
        <time>2022-09-18T14:37:48Z</time>
      </trkpt>
      <trkpt lat="44.56337" lon="6.19797">
        <ele>863</ele>
        <time>2022-09-18T14:37:49Z</time>
      </trkpt>
      <trkpt lat="44.56334" lon="6.19793">
        <ele>862.6</ele>
        <time>2022-09-18T14:37:50Z</time>
      </trkpt>
      <trkpt lat="44.56332" lon="6.19788">
        <ele>862.8</ele>
        <time>2022-09-18T14:37:51Z</time>
      </trkpt>
      <trkpt lat="44.56331" lon="6.19782">
        <ele>862.6</ele>
        <time>2022-09-18T14:37:52Z</time>
      </trkpt>
      <trkpt lat="44.56331" lon="6.19775">
        <ele>862.6</ele>
        <time>2022-09-18T14:37:53Z</time>
      </trkpt>
      <trkpt lat="44.56332" lon="6.19768">
        <ele>862.6</ele>
        <time>2022-09-18T14:37:54Z</time>
      </trkpt>
      <trkpt lat="44.56333" lon="6.19762">
        <ele>862.4</ele>
        <time>2022-09-18T14:37:55Z</time>
      </trkpt>
      <trkpt lat="44.56335" lon="6.19756">
        <ele>862.4</ele>
        <time>2022-09-18T14:37:56Z</time>
      </trkpt>
      <trkpt lat="44.56336" lon="6.1975">
        <ele>862.6</ele>
        <time>2022-09-18T14:37:57Z</time>
      </trkpt>
      <trkpt lat="44.56338" lon="6.19744">
        <ele>862.6</ele>
        <time>2022-09-18T14:37:58Z</time>
      </trkpt>
      <trkpt lat="44.56341" lon="6.19739">
        <ele>862.8</ele>
        <time>2022-09-18T14:37:59Z</time>
      </trkpt>
      <trkpt lat="44.56343" lon="6.19733">
        <ele>863</ele>
        <time>2022-09-18T14:38:00Z</time>
      </trkpt>
      <trkpt lat="44.56344" lon="6.19727">
        <ele>863.2</ele>
        <time>2022-09-18T14:38:01Z</time>
      </trkpt>
      <trkpt lat="44.56345" lon="6.19722">
        <ele>863.2</ele>
        <time>2022-09-18T14:38:02Z</time>
      </trkpt>
      <trkpt lat="44.56345" lon="6.19717">
        <ele>863</ele>
        <time>2022-09-18T14:38:03Z</time>
      </trkpt>
      <trkpt lat="44.56345" lon="6.19713">
        <ele>862.8</ele>
        <time>2022-09-18T14:38:04Z</time>
      </trkpt>
      <trkpt lat="44.56345" lon="6.19708">
        <ele>862.6</ele>
        <time>2022-09-18T14:38:05Z</time>
      </trkpt>
      <trkpt lat="44.56344" lon="6.19704">
        <ele>862.6</ele>
        <time>2022-09-18T14:38:06Z</time>
      </trkpt>
      <trkpt lat="44.56342" lon="6.197">
        <ele>862.6</ele>
        <time>2022-09-18T14:38:07Z</time>
      </trkpt>
      <trkpt lat="44.56339" lon="6.19696">
        <ele>862.6</ele>
        <time>2022-09-18T14:38:08Z</time>
      </trkpt>
      <trkpt lat="44.56336" lon="6.19693">
        <ele>862.8</ele>
        <time>2022-09-18T14:38:09Z</time>
      </trkpt>
      <trkpt lat="44.56333" lon="6.1969">
        <ele>862.8</ele>
        <time>2022-09-18T14:38:10Z</time>
      </trkpt>
      <trkpt lat="44.56329" lon="6.19688">
        <ele>862.6</ele>
        <time>2022-09-18T14:38:11Z</time>
      </trkpt>
      <trkpt lat="44.56325" lon="6.19687">
        <ele>862.6</ele>
        <time>2022-09-18T14:38:12Z</time>
      </trkpt>
      <trkpt lat="44.56321" lon="6.19688">
        <ele>862.4</ele>
        <time>2022-09-18T14:38:13Z</time>
      </trkpt>
      <trkpt lat="44.56317" lon="6.19692">
        <ele>862.6</ele>
        <time>2022-09-18T14:38:14Z</time>
      </trkpt>
      <trkpt lat="44.56314" lon="6.19698">
        <ele>862.6</ele>
        <time>2022-09-18T14:38:15Z</time>
      </trkpt>
      <trkpt lat="44.56311" lon="6.19704">
        <ele>862.6</ele>
        <time>2022-09-18T14:38:16Z</time>
      </trkpt>
      <trkpt lat="44.56309" lon="6.19712">
        <ele>862.2</ele>
        <time>2022-09-18T14:38:17Z</time>
      </trkpt>
      <trkpt lat="44.56307" lon="6.19719">
        <ele>862</ele>
        <time>2022-09-18T14:38:18Z</time>
      </trkpt>
      <trkpt lat="44.56305" lon="6.19727">
        <ele>861.6</ele>
        <time>2022-09-18T14:38:19Z</time>
      </trkpt>
      <trkpt lat="44.56302" lon="6.19735">
        <ele>861.4</ele>
        <time>2022-09-18T14:38:20Z</time>
      </trkpt>
      <trkpt lat="44.563" lon="6.19743">
        <ele>861</ele>
        <time>2022-09-18T14:38:21Z</time>
      </trkpt>
      <trkpt lat="44.56298" lon="6.19752">
        <ele>860.8</ele>
        <time>2022-09-18T14:38:22Z</time>
      </trkpt>
      <trkpt lat="44.56296" lon="6.1976">
        <ele>860.6</ele>
        <time>2022-09-18T14:38:23Z</time>
      </trkpt>
      <trkpt lat="44.56294" lon="6.19769">
        <ele>860.2</ele>
        <time>2022-09-18T14:38:24Z</time>
      </trkpt>
      <trkpt lat="44.56292" lon="6.19777">
        <ele>859.8</ele>
        <time>2022-09-18T14:38:25Z</time>
      </trkpt>
      <trkpt lat="44.56288" lon="6.19786">
        <ele>859.6</ele>
        <time>2022-09-18T14:38:26Z</time>
      </trkpt>
      <trkpt lat="44.56285" lon="6.19795">
        <ele>859.4</ele>
        <time>2022-09-18T14:38:27Z</time>
      </trkpt>
      <trkpt lat="44.56281" lon="6.19803">
        <ele>859</ele>
        <time>2022-09-18T14:38:28Z</time>
      </trkpt>
      <trkpt lat="44.56276" lon="6.1981">
        <ele>858.8</ele>
        <time>2022-09-18T14:38:29Z</time>
      </trkpt>
      <trkpt lat="44.5627" lon="6.19817">
        <ele>858.6</ele>
        <time>2022-09-18T14:38:30Z</time>
      </trkpt>
      <trkpt lat="44.56264" lon="6.19824">
        <ele>858.4</ele>
        <time>2022-09-18T14:38:31Z</time>
      </trkpt>
      <trkpt lat="44.56257" lon="6.1983">
        <ele>858.4</ele>
        <time>2022-09-18T14:38:32Z</time>
      </trkpt>
      <trkpt lat="44.56251" lon="6.19836">
        <ele>858.8</ele>
        <time>2022-09-18T14:38:33Z</time>
      </trkpt>
      <trkpt lat="44.56244" lon="6.19842">
        <ele>858.8</ele>
        <time>2022-09-18T14:38:34Z</time>
      </trkpt>
      <trkpt lat="44.56237" lon="6.19849">
        <ele>858.2</ele>
        <time>2022-09-18T14:38:35Z</time>
      </trkpt>
      <trkpt lat="44.5623" lon="6.19855">
        <ele>858.6</ele>
        <time>2022-09-18T14:38:36Z</time>
      </trkpt>
      <trkpt lat="44.56224" lon="6.1986">
        <ele>858.4</ele>
        <time>2022-09-18T14:38:37Z</time>
      </trkpt>
      <trkpt lat="44.56217" lon="6.19866">
        <ele>858.2</ele>
        <time>2022-09-18T14:38:38Z</time>
      </trkpt>
      <trkpt lat="44.56203" lon="6.19877">
        <ele>857</ele>
        <time>2022-09-18T14:38:40Z</time>
      </trkpt>
      <trkpt lat="44.56195" lon="6.19883">
        <ele>856</ele>
        <time>2022-09-18T14:38:41Z</time>
      </trkpt>
      <trkpt lat="44.56185" lon="6.1989">
        <ele>855.2</ele>
        <time>2022-09-18T14:38:42Z</time>
      </trkpt>
      <trkpt lat="44.56175" lon="6.19898">
        <ele>854.8</ele>
        <time>2022-09-18T14:38:43Z</time>
      </trkpt>
      <trkpt lat="44.56164" lon="6.19907">
        <ele>853.8</ele>
        <time>2022-09-18T14:38:44Z</time>
      </trkpt>
      <trkpt lat="44.56154" lon="6.19915">
        <ele>853</ele>
        <time>2022-09-18T14:38:45Z</time>
      </trkpt>
      <trkpt lat="44.56143" lon="6.19922">
        <ele>852.2</ele>
        <time>2022-09-18T14:38:46Z</time>
      </trkpt>
      <trkpt lat="44.56132" lon="6.19929">
        <ele>851.6</ele>
        <time>2022-09-18T14:38:47Z</time>
      </trkpt>
      <trkpt lat="44.56121" lon="6.19936">
        <ele>850.8</ele>
        <time>2022-09-18T14:38:48Z</time>
      </trkpt>
      <trkpt lat="44.56109" lon="6.19941">
        <ele>850</ele>
        <time>2022-09-18T14:38:49Z</time>
      </trkpt>
      <trkpt lat="44.56097" lon="6.19947">
        <ele>849.6</ele>
        <time>2022-09-18T14:38:50Z</time>
      </trkpt>
      <trkpt lat="44.56085" lon="6.19952">
        <ele>849</ele>
        <time>2022-09-18T14:38:51Z</time>
      </trkpt>
      <trkpt lat="44.56073" lon="6.19958">
        <ele>848.8</ele>
        <time>2022-09-18T14:38:52Z</time>
      </trkpt>
      <trkpt lat="44.56061" lon="6.19964">
        <ele>848</ele>
        <time>2022-09-18T14:38:53Z</time>
      </trkpt>
      <trkpt lat="44.56049" lon="6.1997">
        <ele>847.8</ele>
        <time>2022-09-18T14:38:54Z</time>
      </trkpt>
      <trkpt lat="44.56037" lon="6.19976">
        <ele>846.8</ele>
        <time>2022-09-18T14:38:55Z</time>
      </trkpt>
      <trkpt lat="44.56023" lon="6.19982">
        <ele>846</ele>
        <time>2022-09-18T14:38:56Z</time>
      </trkpt>
      <trkpt lat="44.56008" lon="6.19987">
        <ele>844.8</ele>
        <time>2022-09-18T14:38:57Z</time>
      </trkpt>
      <trkpt lat="44.55993" lon="6.1999">
        <ele>844.2</ele>
        <time>2022-09-18T14:38:58Z</time>
      </trkpt>
      <trkpt lat="44.55978" lon="6.19992">
        <ele>843</ele>
        <time>2022-09-18T14:38:59Z</time>
      </trkpt>
      <trkpt lat="44.55964" lon="6.19992">
        <ele>842.2</ele>
        <time>2022-09-18T14:39:00Z</time>
      </trkpt>
      <trkpt lat="44.5595" lon="6.19991">
        <ele>841</ele>
        <time>2022-09-18T14:39:01Z</time>
      </trkpt>
      <trkpt lat="44.55937" lon="6.1999">
        <ele>840</ele>
        <time>2022-09-18T14:39:02Z</time>
      </trkpt>
      <trkpt lat="44.55923" lon="6.19988">
        <ele>839.2</ele>
        <time>2022-09-18T14:39:03Z</time>
      </trkpt>
      <trkpt lat="44.5591" lon="6.19986">
        <ele>835.6</ele>
        <time>2022-09-18T14:39:04Z</time>
      </trkpt>
      <trkpt lat="44.55897" lon="6.19984">
        <ele>833.6</ele>
        <time>2022-09-18T14:39:05Z</time>
      </trkpt>
      <trkpt lat="44.55884" lon="6.19983">
        <ele>833.4</ele>
        <time>2022-09-18T14:39:06Z</time>
      </trkpt>
      <trkpt lat="44.55871" lon="6.19983">
        <ele>833.2</ele>
        <time>2022-09-18T14:39:07Z</time>
      </trkpt>
      <trkpt lat="44.55859" lon="6.19985">
        <ele>832.4</ele>
        <time>2022-09-18T14:39:08Z</time>
      </trkpt>
      <trkpt lat="44.55847" lon="6.19986">
        <ele>831.8</ele>
        <time>2022-09-18T14:39:09Z</time>
      </trkpt>
      <trkpt lat="44.55836" lon="6.19989">
        <ele>831.6</ele>
        <time>2022-09-18T14:39:10Z</time>
      </trkpt>
      <trkpt lat="44.55825" lon="6.19991">
        <ele>831.2</ele>
        <time>2022-09-18T14:39:11Z</time>
      </trkpt>
      <trkpt lat="44.55814" lon="6.19995">
        <ele>830.4</ele>
        <time>2022-09-18T14:39:12Z</time>
      </trkpt>
      <trkpt lat="44.55804" lon="6.2">
        <ele>830.4</ele>
        <time>2022-09-18T14:39:13Z</time>
      </trkpt>
      <trkpt lat="44.55793" lon="6.20004">
        <ele>830.2</ele>
        <time>2022-09-18T14:39:14Z</time>
      </trkpt>
      <trkpt lat="44.55783" lon="6.20007">
        <ele>830</ele>
        <time>2022-09-18T14:39:15Z</time>
      </trkpt>
      <trkpt lat="44.55774" lon="6.2001">
        <ele>829.6</ele>
        <time>2022-09-18T14:39:16Z</time>
      </trkpt>
      <trkpt lat="44.55764" lon="6.20013">
        <ele>829.6</ele>
        <time>2022-09-18T14:39:17Z</time>
      </trkpt>
      <trkpt lat="44.55755" lon="6.20015">
        <ele>830</ele>
        <time>2022-09-18T14:39:18Z</time>
      </trkpt>
      <trkpt lat="44.55746" lon="6.20017">
        <ele>830.2</ele>
        <time>2022-09-18T14:39:19Z</time>
      </trkpt>
      <trkpt lat="44.55738" lon="6.20019">
        <ele>830</ele>
        <time>2022-09-18T14:39:20Z</time>
      </trkpt>
      <trkpt lat="44.5573" lon="6.2002">
        <ele>830</ele>
        <time>2022-09-18T14:39:21Z</time>
      </trkpt>
      <trkpt lat="44.55722" lon="6.2002">
        <ele>829.8</ele>
        <time>2022-09-18T14:39:22Z</time>
      </trkpt>
      <trkpt lat="44.55715" lon="6.20019">
        <ele>829.4</ele>
        <time>2022-09-18T14:39:23Z</time>
      </trkpt>
      <trkpt lat="44.55708" lon="6.20017">
        <ele>829.6</ele>
        <time>2022-09-18T14:39:24Z</time>
      </trkpt>
      <trkpt lat="44.55701" lon="6.20014">
        <ele>829.6</ele>
        <time>2022-09-18T14:39:25Z</time>
      </trkpt>
      <trkpt lat="44.55694" lon="6.2001">
        <ele>829.4</ele>
        <time>2022-09-18T14:39:26Z</time>
      </trkpt>
      <trkpt lat="44.55687" lon="6.20006">
        <ele>829.6</ele>
        <time>2022-09-18T14:39:27Z</time>
      </trkpt>
      <trkpt lat="44.5568" lon="6.20002">
        <ele>829.8</ele>
        <time>2022-09-18T14:39:28Z</time>
      </trkpt>
      <trkpt lat="44.55672" lon="6.19998">
        <ele>829.8</ele>
        <time>2022-09-18T14:39:29Z</time>
      </trkpt>
      <trkpt lat="44.55664" lon="6.19994">
        <ele>830</ele>
        <time>2022-09-18T14:39:30Z</time>
      </trkpt>
      <trkpt lat="44.55657" lon="6.19991">
        <ele>829.6</ele>
        <time>2022-09-18T14:39:31Z</time>
      </trkpt>
      <trkpt lat="44.55649" lon="6.19989">
        <ele>829</ele>
        <time>2022-09-18T14:39:32Z</time>
      </trkpt>
      <trkpt lat="44.5564" lon="6.19988">
        <ele>829.2</ele>
        <time>2022-09-18T14:39:33Z</time>
      </trkpt>
      <trkpt lat="44.55632" lon="6.19987">
        <ele>829.2</ele>
        <time>2022-09-18T14:39:34Z</time>
      </trkpt>
      <trkpt lat="44.55624" lon="6.19988">
        <ele>829.4</ele>
        <time>2022-09-18T14:39:35Z</time>
      </trkpt>
      <trkpt lat="44.55615" lon="6.19989">
        <ele>829.2</ele>
        <time>2022-09-18T14:39:36Z</time>
      </trkpt>
      <trkpt lat="44.55607" lon="6.1999">
        <ele>829</ele>
        <time>2022-09-18T14:39:37Z</time>
      </trkpt>
      <trkpt lat="44.55599" lon="6.19991">
        <ele>828.8</ele>
        <time>2022-09-18T14:39:38Z</time>
      </trkpt>
      <trkpt lat="44.5559" lon="6.19992">
        <ele>828.2</ele>
        <time>2022-09-18T14:39:39Z</time>
      </trkpt>
      <trkpt lat="44.55582" lon="6.19994">
        <ele>828</ele>
        <time>2022-09-18T14:39:40Z</time>
      </trkpt>
      <trkpt lat="44.55574" lon="6.19996">
        <ele>827.8</ele>
        <time>2022-09-18T14:39:41Z</time>
      </trkpt>
      <trkpt lat="44.55566" lon="6.19998">
        <ele>827.4</ele>
        <time>2022-09-18T14:39:42Z</time>
      </trkpt>
      <trkpt lat="44.55557" lon="6.19999">
        <ele>826.8</ele>
        <time>2022-09-18T14:39:43Z</time>
      </trkpt>
      <trkpt lat="44.55549" lon="6.20001">
        <ele>826.6</ele>
        <time>2022-09-18T14:39:44Z</time>
      </trkpt>
      <trkpt lat="44.55541" lon="6.20005">
        <ele>826</ele>
        <time>2022-09-18T14:39:45Z</time>
      </trkpt>
      <trkpt lat="44.55533" lon="6.2001">
        <ele>826</ele>
        <time>2022-09-18T14:39:46Z</time>
      </trkpt>
      <trkpt lat="44.55525" lon="6.20018">
        <ele>825.4</ele>
        <time>2022-09-18T14:39:47Z</time>
      </trkpt>
      <trkpt lat="44.55518" lon="6.20026">
        <ele>824.8</ele>
        <time>2022-09-18T14:39:48Z</time>
      </trkpt>
      <trkpt lat="44.55509" lon="6.20038">
        <ele>824.2</ele>
        <time>2022-09-18T14:39:49Z</time>
      </trkpt>
      <trkpt lat="44.555" lon="6.20049">
        <ele>823.8</ele>
        <time>2022-09-18T14:39:50Z</time>
      </trkpt>
      <trkpt lat="44.55491" lon="6.20059">
        <ele>822.2</ele>
        <time>2022-09-18T14:39:51Z</time>
      </trkpt>
      <trkpt lat="44.55481" lon="6.20067">
        <ele>821.8</ele>
        <time>2022-09-18T14:39:52Z</time>
      </trkpt>
      <trkpt lat="44.5547" lon="6.20074">
        <ele>821.4</ele>
        <time>2022-09-18T14:39:53Z</time>
      </trkpt>
      <trkpt lat="44.55459" lon="6.2008">
        <ele>821</ele>
        <time>2022-09-18T14:39:54Z</time>
      </trkpt>
      <trkpt lat="44.55448" lon="6.20085">
        <ele>820.4</ele>
        <time>2022-09-18T14:39:55Z</time>
      </trkpt>
      <trkpt lat="44.55435" lon="6.20088">
        <ele>819</ele>
        <time>2022-09-18T14:39:56Z</time>
      </trkpt>
      <trkpt lat="44.55422" lon="6.20088">
        <ele>818.4</ele>
        <time>2022-09-18T14:39:57Z</time>
      </trkpt>
      <trkpt lat="44.55409" lon="6.20086">
        <ele>818.2</ele>
        <time>2022-09-18T14:39:58Z</time>
      </trkpt>
      <trkpt lat="44.55396" lon="6.20084">
        <ele>817.8</ele>
        <time>2022-09-18T14:39:59Z</time>
      </trkpt>
      <trkpt lat="44.55382" lon="6.20083">
        <ele>817</ele>
        <time>2022-09-18T14:40:00Z</time>
      </trkpt>
      <trkpt lat="44.55369" lon="6.20083">
        <ele>816.2</ele>
        <time>2022-09-18T14:40:01Z</time>
      </trkpt>
      <trkpt lat="44.55356" lon="6.20084">
        <ele>815.8</ele>
        <time>2022-09-18T14:40:02Z</time>
      </trkpt>
      <trkpt lat="44.55343" lon="6.20085">
        <ele>814.6</ele>
        <time>2022-09-18T14:40:03Z</time>
      </trkpt>
      <trkpt lat="44.5533" lon="6.20086">
        <ele>814.2</ele>
        <time>2022-09-18T14:40:04Z</time>
      </trkpt>
      <trkpt lat="44.55317" lon="6.2009">
        <ele>813.6</ele>
        <time>2022-09-18T14:40:05Z</time>
      </trkpt>
      <trkpt lat="44.55304" lon="6.20094">
        <ele>812.8</ele>
        <time>2022-09-18T14:40:06Z</time>
      </trkpt>
      <trkpt lat="44.5529" lon="6.20099">
        <ele>811.8</ele>
        <time>2022-09-18T14:40:07Z</time>
      </trkpt>
      <trkpt lat="44.55277" lon="6.20103">
        <ele>811</ele>
        <time>2022-09-18T14:40:08Z</time>
      </trkpt>
      <trkpt lat="44.55263" lon="6.20108">
        <ele>810.2</ele>
        <time>2022-09-18T14:40:09Z</time>
      </trkpt>
      <trkpt lat="44.5525" lon="6.20112">
        <ele>808.8</ele>
        <time>2022-09-18T14:40:10Z</time>
      </trkpt>
      <trkpt lat="44.55237" lon="6.20116">
        <ele>808</ele>
        <time>2022-09-18T14:40:11Z</time>
      </trkpt>
      <trkpt lat="44.55224" lon="6.2012">
        <ele>807</ele>
        <time>2022-09-18T14:40:12Z</time>
      </trkpt>
      <trkpt lat="44.55212" lon="6.20124">
        <ele>806</ele>
        <time>2022-09-18T14:40:13Z</time>
      </trkpt>
      <trkpt lat="44.55199" lon="6.20128">
        <ele>805.4</ele>
        <time>2022-09-18T14:40:14Z</time>
      </trkpt>
      <trkpt lat="44.55186" lon="6.20132">
        <ele>804.8</ele>
        <time>2022-09-18T14:40:15Z</time>
      </trkpt>
      <trkpt lat="44.55174" lon="6.20136">
        <ele>804</ele>
        <time>2022-09-18T14:40:16Z</time>
      </trkpt>
      <trkpt lat="44.55162" lon="6.20139">
        <ele>803.6</ele>
        <time>2022-09-18T14:40:17Z</time>
      </trkpt>
      <trkpt lat="44.5515" lon="6.20143">
        <ele>802.8</ele>
        <time>2022-09-18T14:40:18Z</time>
      </trkpt>
      <trkpt lat="44.55139" lon="6.20146">
        <ele>802</ele>
        <time>2022-09-18T14:40:19Z</time>
      </trkpt>
      <trkpt lat="44.55127" lon="6.2015">
        <ele>802</ele>
        <time>2022-09-18T14:40:20Z</time>
      </trkpt>
      <trkpt lat="44.55116" lon="6.20153">
        <ele>801.6</ele>
        <time>2022-09-18T14:40:21Z</time>
      </trkpt>
      <trkpt lat="44.55104" lon="6.20156">
        <ele>801</ele>
        <time>2022-09-18T14:40:22Z</time>
      </trkpt>
      <trkpt lat="44.55093" lon="6.2016">
        <ele>800.2</ele>
        <time>2022-09-18T14:40:23Z</time>
      </trkpt>
      <trkpt lat="44.55083" lon="6.20163">
        <ele>799.4</ele>
        <time>2022-09-18T14:40:24Z</time>
      </trkpt>
      <trkpt lat="44.55073" lon="6.20167">
        <ele>799</ele>
        <time>2022-09-18T14:40:25Z</time>
      </trkpt>
      <trkpt lat="44.55063" lon="6.2017">
        <ele>799</ele>
        <time>2022-09-18T14:40:26Z</time>
      </trkpt>
      <trkpt lat="44.55055" lon="6.20174">
        <ele>798</ele>
        <time>2022-09-18T14:40:27Z</time>
      </trkpt>
      <trkpt lat="44.55047" lon="6.20177">
        <ele>798</ele>
        <time>2022-09-18T14:40:28Z</time>
      </trkpt>
      <trkpt lat="44.55035" lon="6.20183">
        <ele>797.4</ele>
        <time>2022-09-18T14:40:30Z</time>
      </trkpt>
      <trkpt lat="44.55025" lon="6.2019">
        <ele>795.8</ele>
        <time>2022-09-18T14:40:33Z</time>
      </trkpt>
      <trkpt lat="44.5502" lon="6.20195">
        <ele>795</ele>
        <time>2022-09-18T14:40:38Z</time>
      </trkpt>
      <trkpt lat="44.5502" lon="6.20199">
        <ele>794.6</ele>
        <time>2022-09-18T14:40:50Z</time>
      </trkpt>
      <trkpt lat="44.55019" lon="6.20203">
        <ele>794.8</ele>
        <time>2022-09-18T14:40:51Z</time>
      </trkpt>
      <trkpt lat="44.5502" lon="6.20206">
        <ele>794.8</ele>
        <time>2022-09-18T14:40:52Z</time>
      </trkpt>
      <trkpt lat="44.55021" lon="6.2021">
        <ele>795</ele>
        <time>2022-09-18T14:40:53Z</time>
      </trkpt>
      <trkpt lat="44.55024" lon="6.20214">
        <ele>795</ele>
        <time>2022-09-18T14:40:54Z</time>
      </trkpt>
      <trkpt lat="44.55026" lon="6.20219">
        <ele>794.6</ele>
        <time>2022-09-18T14:40:55Z</time>
      </trkpt>
      <trkpt lat="44.55029" lon="6.20224">
        <ele>795</ele>
        <time>2022-09-18T14:40:56Z</time>
      </trkpt>
      <trkpt lat="44.55032" lon="6.20229">
        <ele>794.6</ele>
        <time>2022-09-18T14:40:57Z</time>
      </trkpt>
      <trkpt lat="44.55035" lon="6.20234">
        <ele>794.4</ele>
        <time>2022-09-18T14:40:58Z</time>
      </trkpt>
      <trkpt lat="44.55038" lon="6.20239">
        <ele>794.6</ele>
        <time>2022-09-18T14:40:59Z</time>
      </trkpt>
      <trkpt lat="44.55041" lon="6.20244">
        <ele>794.4</ele>
        <time>2022-09-18T14:41:00Z</time>
      </trkpt>
      <trkpt lat="44.55044" lon="6.2025">
        <ele>794.4</ele>
        <time>2022-09-18T14:41:01Z</time>
      </trkpt>
      <trkpt lat="44.55048" lon="6.20256">
        <ele>794.4</ele>
        <time>2022-09-18T14:41:02Z</time>
      </trkpt>
      <trkpt lat="44.55051" lon="6.20261">
        <ele>794.4</ele>
        <time>2022-09-18T14:41:03Z</time>
      </trkpt>
      <trkpt lat="44.55054" lon="6.20267">
        <ele>794.4</ele>
        <time>2022-09-18T14:41:04Z</time>
      </trkpt>
      <trkpt lat="44.55057" lon="6.20273">
        <ele>794.4</ele>
        <time>2022-09-18T14:41:05Z</time>
      </trkpt>
      <trkpt lat="44.5506" lon="6.20279">
        <ele>794.2</ele>
        <time>2022-09-18T14:41:06Z</time>
      </trkpt>
      <trkpt lat="44.55063" lon="6.20285">
        <ele>794.2</ele>
        <time>2022-09-18T14:41:07Z</time>
      </trkpt>
      <trkpt lat="44.55066" lon="6.20291">
        <ele>794.8</ele>
        <time>2022-09-18T14:41:08Z</time>
      </trkpt>
      <trkpt lat="44.55069" lon="6.20298">
        <ele>794.6</ele>
        <time>2022-09-18T14:41:09Z</time>
      </trkpt>
      <trkpt lat="44.55072" lon="6.20304">
        <ele>794.6</ele>
        <time>2022-09-18T14:41:10Z</time>
      </trkpt>
      <trkpt lat="44.55076" lon="6.20311">
        <ele>794.8</ele>
        <time>2022-09-18T14:41:11Z</time>
      </trkpt>
      <trkpt lat="44.55079" lon="6.20317">
        <ele>795</ele>
        <time>2022-09-18T14:41:12Z</time>
      </trkpt>
      <trkpt lat="44.55082" lon="6.20324">
        <ele>795.2</ele>
        <time>2022-09-18T14:41:13Z</time>
      </trkpt>
      <trkpt lat="44.55085" lon="6.2033">
        <ele>795.2</ele>
        <time>2022-09-18T14:41:14Z</time>
      </trkpt>
      <trkpt lat="44.55088" lon="6.20336">
        <ele>795.2</ele>
        <time>2022-09-18T14:41:15Z</time>
      </trkpt>
      <trkpt lat="44.55091" lon="6.20343">
        <ele>795.2</ele>
        <time>2022-09-18T14:41:16Z</time>
      </trkpt>
      <trkpt lat="44.55094" lon="6.20349">
        <ele>795.6</ele>
        <time>2022-09-18T14:41:17Z</time>
      </trkpt>
      <trkpt lat="44.55097" lon="6.20356">
        <ele>795.6</ele>
        <time>2022-09-18T14:41:18Z</time>
      </trkpt>
      <trkpt lat="44.551" lon="6.20362">
        <ele>795.6</ele>
        <time>2022-09-18T14:41:19Z</time>
      </trkpt>
      <trkpt lat="44.55103" lon="6.20369">
        <ele>795.6</ele>
        <time>2022-09-18T14:41:20Z</time>
      </trkpt>
      <trkpt lat="44.55105" lon="6.20375">
        <ele>795.8</ele>
        <time>2022-09-18T14:41:21Z</time>
      </trkpt>
      <trkpt lat="44.55108" lon="6.20381">
        <ele>795.8</ele>
        <time>2022-09-18T14:41:22Z</time>
      </trkpt>
      <trkpt lat="44.55111" lon="6.20388">
        <ele>796</ele>
        <time>2022-09-18T14:41:23Z</time>
      </trkpt>
      <trkpt lat="44.55114" lon="6.20394">
        <ele>796.4</ele>
        <time>2022-09-18T14:41:24Z</time>
      </trkpt>
      <trkpt lat="44.55117" lon="6.204">
        <ele>796.6</ele>
        <time>2022-09-18T14:41:25Z</time>
      </trkpt>
      <trkpt lat="44.5512" lon="6.20407">
        <ele>796.6</ele>
        <time>2022-09-18T14:41:26Z</time>
      </trkpt>
      <trkpt lat="44.55123" lon="6.20413">
        <ele>796.8</ele>
        <time>2022-09-18T14:41:27Z</time>
      </trkpt>
      <trkpt lat="44.55126" lon="6.20419">
        <ele>797</ele>
        <time>2022-09-18T14:41:28Z</time>
      </trkpt>
      <trkpt lat="44.55129" lon="6.20425">
        <ele>797</ele>
        <time>2022-09-18T14:41:29Z</time>
      </trkpt>
      <trkpt lat="44.55132" lon="6.2043">
        <ele>797</ele>
        <time>2022-09-18T14:41:30Z</time>
      </trkpt>
      <trkpt lat="44.55135" lon="6.20436">
        <ele>797.2</ele>
        <time>2022-09-18T14:41:31Z</time>
      </trkpt>
      <trkpt lat="44.55137" lon="6.20442">
        <ele>797.2</ele>
        <time>2022-09-18T14:41:32Z</time>
      </trkpt>
      <trkpt lat="44.5514" lon="6.20448">
        <ele>797.4</ele>
        <time>2022-09-18T14:41:33Z</time>
      </trkpt>
      <trkpt lat="44.55142" lon="6.20454">
        <ele>797.6</ele>
        <time>2022-09-18T14:41:34Z</time>
      </trkpt>
      <trkpt lat="44.55145" lon="6.2046">
        <ele>797.6</ele>
        <time>2022-09-18T14:41:35Z</time>
      </trkpt>
      <trkpt lat="44.55147" lon="6.20465">
        <ele>797.8</ele>
        <time>2022-09-18T14:41:36Z</time>
      </trkpt>
      <trkpt lat="44.5515" lon="6.2047">
        <ele>798.2</ele>
        <time>2022-09-18T14:41:37Z</time>
      </trkpt>
      <trkpt lat="44.55152" lon="6.20476">
        <ele>798.4</ele>
        <time>2022-09-18T14:41:38Z</time>
      </trkpt>
      <trkpt lat="44.55155" lon="6.20481">
        <ele>798.6</ele>
        <time>2022-09-18T14:41:39Z</time>
      </trkpt>
      <trkpt lat="44.55157" lon="6.20487">
        <ele>798.8</ele>
        <time>2022-09-18T14:41:40Z</time>
      </trkpt>
      <trkpt lat="44.5516" lon="6.20492">
        <ele>798.8</ele>
        <time>2022-09-18T14:41:41Z</time>
      </trkpt>
      <trkpt lat="44.55162" lon="6.20497">
        <ele>799</ele>
        <time>2022-09-18T14:41:42Z</time>
      </trkpt>
      <trkpt lat="44.55165" lon="6.20503">
        <ele>799.2</ele>
        <time>2022-09-18T14:41:43Z</time>
      </trkpt>
      <trkpt lat="44.55167" lon="6.20508">
        <ele>799.4</ele>
        <time>2022-09-18T14:41:44Z</time>
      </trkpt>
      <trkpt lat="44.5517" lon="6.20513">
        <ele>799.4</ele>
        <time>2022-09-18T14:41:45Z</time>
      </trkpt>
      <trkpt lat="44.55172" lon="6.20518">
        <ele>799.6</ele>
        <time>2022-09-18T14:41:46Z</time>
      </trkpt>
      <trkpt lat="44.55175" lon="6.20524">
        <ele>799.8</ele>
        <time>2022-09-18T14:41:47Z</time>
      </trkpt>
      <trkpt lat="44.55177" lon="6.20529">
        <ele>799.8</ele>
        <time>2022-09-18T14:41:48Z</time>
      </trkpt>
      <trkpt lat="44.55179" lon="6.20535">
        <ele>800</ele>
        <time>2022-09-18T14:41:49Z</time>
      </trkpt>
      <trkpt lat="44.55182" lon="6.2054">
        <ele>800.2</ele>
        <time>2022-09-18T14:41:50Z</time>
      </trkpt>
      <trkpt lat="44.55184" lon="6.20545">
        <ele>800.2</ele>
        <time>2022-09-18T14:41:51Z</time>
      </trkpt>
      <trkpt lat="44.55187" lon="6.20551">
        <ele>800.2</ele>
        <time>2022-09-18T14:41:52Z</time>
      </trkpt>
      <trkpt lat="44.55189" lon="6.20556">
        <ele>800.2</ele>
        <time>2022-09-18T14:41:53Z</time>
      </trkpt>
      <trkpt lat="44.55191" lon="6.20562">
        <ele>800.2</ele>
        <time>2022-09-18T14:41:54Z</time>
      </trkpt>
      <trkpt lat="44.55194" lon="6.20567">
        <ele>800.4</ele>
        <time>2022-09-18T14:41:55Z</time>
      </trkpt>
      <trkpt lat="44.55196" lon="6.20572">
        <ele>800.6</ele>
        <time>2022-09-18T14:41:56Z</time>
      </trkpt>
      <trkpt lat="44.55198" lon="6.20578">
        <ele>800.4</ele>
        <time>2022-09-18T14:41:57Z</time>
      </trkpt>
      <trkpt lat="44.55201" lon="6.20583">
        <ele>800.8</ele>
        <time>2022-09-18T14:41:58Z</time>
      </trkpt>
      <trkpt lat="44.55203" lon="6.20589">
        <ele>800.6</ele>
        <time>2022-09-18T14:41:59Z</time>
      </trkpt>
      <trkpt lat="44.55205" lon="6.20594">
        <ele>801</ele>
        <time>2022-09-18T14:42:00Z</time>
      </trkpt>
      <trkpt lat="44.55208" lon="6.206">
        <ele>801</ele>
        <time>2022-09-18T14:42:01Z</time>
      </trkpt>
      <trkpt lat="44.5521" lon="6.20606">
        <ele>801</ele>
        <time>2022-09-18T14:42:02Z</time>
      </trkpt>
      <trkpt lat="44.55213" lon="6.20612">
        <ele>801</ele>
        <time>2022-09-18T14:42:03Z</time>
      </trkpt>
      <trkpt lat="44.55215" lon="6.20618">
        <ele>801.4</ele>
        <time>2022-09-18T14:42:04Z</time>
      </trkpt>
      <trkpt lat="44.55218" lon="6.20623">
        <ele>801.4</ele>
        <time>2022-09-18T14:42:05Z</time>
      </trkpt>
      <trkpt lat="44.5522" lon="6.20629">
        <ele>801.8</ele>
        <time>2022-09-18T14:42:06Z</time>
      </trkpt>
      <trkpt lat="44.55222" lon="6.20635">
        <ele>802</ele>
        <time>2022-09-18T14:42:07Z</time>
      </trkpt>
      <trkpt lat="44.55224" lon="6.2064">
        <ele>802.2</ele>
        <time>2022-09-18T14:42:08Z</time>
      </trkpt>
      <trkpt lat="44.55226" lon="6.20646">
        <ele>802.2</ele>
        <time>2022-09-18T14:42:09Z</time>
      </trkpt>
      <trkpt lat="44.55228" lon="6.20652">
        <ele>802.2</ele>
        <time>2022-09-18T14:42:10Z</time>
      </trkpt>
      <trkpt lat="44.55231" lon="6.20658">
        <ele>802</ele>
        <time>2022-09-18T14:42:11Z</time>
      </trkpt>
      <trkpt lat="44.55233" lon="6.20663">
        <ele>802</ele>
        <time>2022-09-18T14:42:12Z</time>
      </trkpt>
      <trkpt lat="44.55235" lon="6.20669">
        <ele>802</ele>
        <time>2022-09-18T14:42:13Z</time>
      </trkpt>
      <trkpt lat="44.55237" lon="6.20675">
        <ele>802.2</ele>
        <time>2022-09-18T14:42:14Z</time>
      </trkpt>
      <trkpt lat="44.55239" lon="6.20681">
        <ele>802.2</ele>
        <time>2022-09-18T14:42:15Z</time>
      </trkpt>
      <trkpt lat="44.55241" lon="6.20687">
        <ele>802.4</ele>
        <time>2022-09-18T14:42:16Z</time>
      </trkpt>
      <trkpt lat="44.55244" lon="6.20693">
        <ele>802.6</ele>
        <time>2022-09-18T14:42:17Z</time>
      </trkpt>
      <trkpt lat="44.55246" lon="6.20699">
        <ele>802.8</ele>
        <time>2022-09-18T14:42:18Z</time>
      </trkpt>
      <trkpt lat="44.55248" lon="6.20705">
        <ele>802.6</ele>
        <time>2022-09-18T14:42:19Z</time>
      </trkpt>
      <trkpt lat="44.5525" lon="6.20711">
        <ele>803</ele>
        <time>2022-09-18T14:42:20Z</time>
      </trkpt>
      <trkpt lat="44.55252" lon="6.20717">
        <ele>803</ele>
        <time>2022-09-18T14:42:21Z</time>
      </trkpt>
      <trkpt lat="44.55254" lon="6.20723">
        <ele>803.2</ele>
        <time>2022-09-18T14:42:22Z</time>
      </trkpt>
      <trkpt lat="44.55256" lon="6.20729">
        <ele>803.4</ele>
        <time>2022-09-18T14:42:23Z</time>
      </trkpt>
      <trkpt lat="44.55258" lon="6.20734">
        <ele>803.4</ele>
        <time>2022-09-18T14:42:24Z</time>
      </trkpt>
      <trkpt lat="44.5526" lon="6.2074">
        <ele>803.4</ele>
        <time>2022-09-18T14:42:25Z</time>
      </trkpt>
      <trkpt lat="44.55262" lon="6.20746">
        <ele>803.6</ele>
        <time>2022-09-18T14:42:26Z</time>
      </trkpt>
      <trkpt lat="44.55264" lon="6.20752">
        <ele>803.4</ele>
        <time>2022-09-18T14:42:27Z</time>
      </trkpt>
      <trkpt lat="44.55266" lon="6.20758">
        <ele>803.4</ele>
        <time>2022-09-18T14:42:28Z</time>
      </trkpt>
      <trkpt lat="44.55268" lon="6.20763">
        <ele>803.8</ele>
        <time>2022-09-18T14:42:29Z</time>
      </trkpt>
      <trkpt lat="44.5527" lon="6.20769">
        <ele>803.8</ele>
        <time>2022-09-18T14:42:30Z</time>
      </trkpt>
      <trkpt lat="44.55272" lon="6.20775">
        <ele>804</ele>
        <time>2022-09-18T14:42:31Z</time>
      </trkpt>
      <trkpt lat="44.55274" lon="6.20781">
        <ele>804</ele>
        <time>2022-09-18T14:42:32Z</time>
      </trkpt>
      <trkpt lat="44.55275" lon="6.20787">
        <ele>804.2</ele>
        <time>2022-09-18T14:42:33Z</time>
      </trkpt>
      <trkpt lat="44.55277" lon="6.20792">
        <ele>804.2</ele>
        <time>2022-09-18T14:42:34Z</time>
      </trkpt>
      <trkpt lat="44.55279" lon="6.20798">
        <ele>804.4</ele>
        <time>2022-09-18T14:42:35Z</time>
      </trkpt>
      <trkpt lat="44.5528" lon="6.20804">
        <ele>804.4</ele>
        <time>2022-09-18T14:42:36Z</time>
      </trkpt>
      <trkpt lat="44.55282" lon="6.2081">
        <ele>804.4</ele>
        <time>2022-09-18T14:42:37Z</time>
      </trkpt>
      <trkpt lat="44.55284" lon="6.20815">
        <ele>804.6</ele>
        <time>2022-09-18T14:42:38Z</time>
      </trkpt>
      <trkpt lat="44.55285" lon="6.20821">
        <ele>804.8</ele>
        <time>2022-09-18T14:42:39Z</time>
      </trkpt>
      <trkpt lat="44.55287" lon="6.20826">
        <ele>805</ele>
        <time>2022-09-18T14:42:40Z</time>
      </trkpt>
      <trkpt lat="44.55289" lon="6.20832">
        <ele>805</ele>
        <time>2022-09-18T14:42:41Z</time>
      </trkpt>
      <trkpt lat="44.5529" lon="6.20837">
        <ele>805</ele>
        <time>2022-09-18T14:42:42Z</time>
      </trkpt>
      <trkpt lat="44.55292" lon="6.20843">
        <ele>805.2</ele>
        <time>2022-09-18T14:42:43Z</time>
      </trkpt>
      <trkpt lat="44.55293" lon="6.20848">
        <ele>805</ele>
        <time>2022-09-18T14:42:44Z</time>
      </trkpt>
      <trkpt lat="44.55295" lon="6.20853">
        <ele>805.2</ele>
        <time>2022-09-18T14:42:45Z</time>
      </trkpt>
      <trkpt lat="44.55296" lon="6.20858">
        <ele>805.2</ele>
        <time>2022-09-18T14:42:46Z</time>
      </trkpt>
      <trkpt lat="44.55298" lon="6.20862">
        <ele>805</ele>
        <time>2022-09-18T14:42:47Z</time>
      </trkpt>
      <trkpt lat="44.553" lon="6.20866">
        <ele>805</ele>
        <time>2022-09-18T14:42:48Z</time>
      </trkpt>
      <trkpt lat="44.55301" lon="6.2087">
        <ele>804.8</ele>
        <time>2022-09-18T14:42:49Z</time>
      </trkpt>
      <trkpt lat="44.55303" lon="6.20874">
        <ele>805</ele>
        <time>2022-09-18T14:42:50Z</time>
      </trkpt>
      <trkpt lat="44.55306" lon="6.20878">
        <ele>805</ele>
        <time>2022-09-18T14:42:51Z</time>
      </trkpt>
      <trkpt lat="44.55308" lon="6.20882">
        <ele>805.2</ele>
        <time>2022-09-18T14:42:52Z</time>
      </trkpt>
      <trkpt lat="44.5531" lon="6.20886">
        <ele>805.4</ele>
        <time>2022-09-18T14:42:53Z</time>
      </trkpt>
      <trkpt lat="44.55311" lon="6.2089">
        <ele>805.6</ele>
        <time>2022-09-18T14:42:54Z</time>
      </trkpt>
      <trkpt lat="44.55313" lon="6.20893">
        <ele>805.6</ele>
        <time>2022-09-18T14:42:55Z</time>
      </trkpt>
      <trkpt lat="44.55315" lon="6.20897">
        <ele>805.6</ele>
        <time>2022-09-18T14:42:56Z</time>
      </trkpt>
      <trkpt lat="44.55316" lon="6.209">
        <ele>805.8</ele>
        <time>2022-09-18T14:42:57Z</time>
      </trkpt>
      <trkpt lat="44.55317" lon="6.20902">
        <ele>805.6</ele>
        <time>2022-09-18T14:42:58Z</time>
      </trkpt>
      <trkpt lat="44.55322" lon="6.20913">
        <ele>805.2</ele>
        <time>2022-09-18T14:43:02Z</time>
      </trkpt>
      <trkpt lat="44.55327" lon="6.20924">
        <ele>805.2</ele>
        <time>2022-09-18T14:43:05Z</time>
      </trkpt>
      <trkpt lat="44.55331" lon="6.20936">
        <ele>805.6</ele>
        <time>2022-09-18T14:43:08Z</time>
      </trkpt>
      <trkpt lat="44.55336" lon="6.20948">
        <ele>805.4</ele>
        <time>2022-09-18T14:43:11Z</time>
      </trkpt>
      <trkpt lat="44.55337" lon="6.20952">
        <ele>805.6</ele>
        <time>2022-09-18T14:43:12Z</time>
      </trkpt>
      <trkpt lat="44.55341" lon="6.20958">
        <ele>806</ele>
        <time>2022-09-18T14:43:14Z</time>
      </trkpt>
      <trkpt lat="44.55343" lon="6.2096">
        <ele>805.8</ele>
        <time>2022-09-18T14:43:15Z</time>
      </trkpt>
      <trkpt lat="44.55344" lon="6.20962">
        <ele>805.8</ele>
        <time>2022-09-18T14:43:16Z</time>
      </trkpt>
      <trkpt lat="44.55346" lon="6.20963">
        <ele>806</ele>
        <time>2022-09-18T14:43:17Z</time>
      </trkpt>
      <trkpt lat="44.55347" lon="6.20965">
        <ele>806.2</ele>
        <time>2022-09-18T14:43:18Z</time>
      </trkpt>
      <trkpt lat="44.5535" lon="6.20967">
        <ele>806.2</ele>
        <time>2022-09-18T14:43:19Z</time>
      </trkpt>
      <trkpt lat="44.55351" lon="6.20969">
        <ele>806.2</ele>
        <time>2022-09-18T14:43:20Z</time>
      </trkpt>
      <trkpt lat="44.55355" lon="6.2097">
        <ele>805.6</ele>
        <time>2022-09-18T14:43:22Z</time>
      </trkpt>
    </trkseg>
  </trk>
</gpx>